<?xml version="1.0" encoding="UTF-8" standalone="no" ?>
<gpx xmlns="http://www.topografix.com/GPX/1/1" xmlns:xsi="http://www.w3.org/2001/XMLSchema-instance" xsi:schemaLocation="http://www.topografix.com/GPX/1/1 http://www.topografix.com/GPX/1/1/gpx.xsd" version="1.1" creator="VisuGPX - https://www.visugpx.com">
  <metadata>
    <name>RSPG rando 22Mars 2012</name>
    <desc><![CDATA[Secteur dse Savournon  en partant de Jubéo
]]></desc>
  </metadata>
  <trk>
    <name><![CDATA[Tracé 001]]></name>
    <trkseg>
      <trkpt lat="44.39917" lon="5.79606">
        <ele>903.1367188</ele>
      </trkpt>
      <trkpt lat="44.39939" lon="5.79518">
        <ele>893.5820313</ele>
      </trkpt>
      <trkpt lat="44.39944" lon="5.79486">
        <ele>889.9804688</ele>
      </trkpt>
      <trkpt lat="44.39953" lon="5.79464">
        <ele>887.0351563</ele>
      </trkpt>
      <trkpt lat="44.3991" lon="5.7965">
        <ele>793.22</ele>
        <time>2012-03-22T08:15:06Z</time>
      </trkpt>
      <trkpt lat="44.39909" lon="5.79651">
        <ele>800.92</ele>
        <time>2012-03-22T08:15:07Z</time>
      </trkpt>
      <trkpt lat="44.39908" lon="5.79652">
        <ele>794.67</ele>
        <time>2012-03-22T08:15:08Z</time>
      </trkpt>
      <trkpt lat="44.39901" lon="5.79662">
        <ele>795.15</ele>
        <time>2012-03-22T08:15:16Z</time>
      </trkpt>
      <trkpt lat="44.39897" lon="5.79667">
        <ele>804.28</ele>
        <time>2012-03-22T08:15:20Z</time>
      </trkpt>
      <trkpt lat="44.39897" lon="5.79668">
        <ele>797.55</ele>
        <time>2012-03-22T08:15:21Z</time>
      </trkpt>
      <trkpt lat="44.39895" lon="5.79671">
        <ele>795.63</ele>
        <time>2012-03-22T08:15:23Z</time>
      </trkpt>
      <trkpt lat="44.3989" lon="5.79676">
        <ele>811.49</ele>
        <time>2012-03-22T08:15:28Z</time>
      </trkpt>
      <trkpt lat="44.39889" lon="5.79677">
        <ele>799.47</ele>
        <time>2012-03-22T08:15:29Z</time>
      </trkpt>
      <trkpt lat="44.39888" lon="5.79678">
        <ele>795.63</ele>
        <time>2012-03-22T08:15:30Z</time>
      </trkpt>
      <trkpt lat="44.39887" lon="5.79679">
        <ele>796.59</ele>
        <time>2012-03-22T08:15:31Z</time>
      </trkpt>
      <trkpt lat="44.39885" lon="5.79679">
        <ele>804.76</ele>
        <time>2012-03-22T08:15:32Z</time>
      </trkpt>
      <trkpt lat="44.39884" lon="5.7968">
        <ele>798.51</ele>
        <time>2012-03-22T08:15:33Z</time>
      </trkpt>
      <trkpt lat="44.3988" lon="5.79684">
        <ele>787.94</ele>
        <time>2012-03-22T08:15:37Z</time>
      </trkpt>
      <trkpt lat="44.39879" lon="5.79685">
        <ele>798.03</ele>
        <time>2012-03-22T08:15:38Z</time>
      </trkpt>
      <trkpt lat="44.39878" lon="5.79686">
        <ele>797.55</ele>
        <time>2012-03-22T08:15:39Z</time>
      </trkpt>
      <trkpt lat="44.39872" lon="5.7969">
        <ele>798.51</ele>
        <time>2012-03-22T08:15:45Z</time>
      </trkpt>
      <trkpt lat="44.39871" lon="5.79691">
        <ele>791.78</ele>
        <time>2012-03-22T08:15:46Z</time>
      </trkpt>
      <trkpt lat="44.39871" lon="5.79691">
        <ele>798.99</ele>
        <time>2012-03-22T08:15:47Z</time>
      </trkpt>
      <trkpt lat="44.39865" lon="5.79693">
        <ele>798.03</ele>
        <time>2012-03-22T08:15:53Z</time>
      </trkpt>
      <trkpt lat="44.39856" lon="5.79695">
        <ele>798.99</ele>
        <time>2012-03-22T08:16:05Z</time>
      </trkpt>
      <trkpt lat="44.39848" lon="5.79696">
        <ele>799.95</ele>
        <time>2012-03-22T08:16:13Z</time>
      </trkpt>
      <trkpt lat="44.39841" lon="5.79696">
        <ele>799.95</ele>
        <time>2012-03-22T08:16:21Z</time>
      </trkpt>
      <trkpt lat="44.39835" lon="5.79694">
        <ele>801.4</ele>
        <time>2012-03-22T08:16:27Z</time>
      </trkpt>
      <trkpt lat="44.39829" lon="5.79695">
        <ele>801.4</ele>
        <time>2012-03-22T08:16:34Z</time>
      </trkpt>
      <trkpt lat="44.39828" lon="5.79696">
        <ele>802.36</ele>
        <time>2012-03-22T08:16:35Z</time>
      </trkpt>
      <trkpt lat="44.3982" lon="5.79698">
        <ele>801.4</ele>
        <time>2012-03-22T08:16:44Z</time>
      </trkpt>
      <trkpt lat="44.39817" lon="5.79697">
        <ele>802.84</ele>
        <time>2012-03-22T08:16:50Z</time>
      </trkpt>
      <trkpt lat="44.39815" lon="5.79697">
        <ele>803.8</ele>
        <time>2012-03-22T08:16:52Z</time>
      </trkpt>
      <trkpt lat="44.3981" lon="5.79697">
        <ele>804.28</ele>
        <time>2012-03-22T08:16:58Z</time>
      </trkpt>
      <trkpt lat="44.39804" lon="5.79695">
        <ele>805.24</ele>
        <time>2012-03-22T08:17:06Z</time>
      </trkpt>
      <trkpt lat="44.39802" lon="5.79695">
        <ele>803.8</ele>
        <time>2012-03-22T08:17:08Z</time>
      </trkpt>
      <trkpt lat="44.39793" lon="5.79692">
        <ele>806.2</ele>
        <time>2012-03-22T08:17:18Z</time>
      </trkpt>
      <trkpt lat="44.3979" lon="5.79694">
        <ele>806.2</ele>
        <time>2012-03-22T08:17:22Z</time>
      </trkpt>
      <trkpt lat="44.39788" lon="5.79695">
        <ele>804.76</ele>
        <time>2012-03-22T08:17:24Z</time>
      </trkpt>
      <trkpt lat="44.39784" lon="5.79695">
        <ele>804.76</ele>
        <time>2012-03-22T08:17:30Z</time>
      </trkpt>
      <trkpt lat="44.39782" lon="5.79696">
        <ele>807.16</ele>
        <time>2012-03-22T08:17:32Z</time>
      </trkpt>
      <trkpt lat="44.39779" lon="5.79698">
        <ele>807.16</ele>
        <time>2012-03-22T08:17:37Z</time>
      </trkpt>
      <trkpt lat="44.39771" lon="5.79698">
        <ele>806.68</ele>
        <time>2012-03-22T08:17:49Z</time>
      </trkpt>
      <trkpt lat="44.39767" lon="5.79697">
        <ele>807.64</ele>
        <time>2012-03-22T08:17:53Z</time>
      </trkpt>
      <trkpt lat="44.39766" lon="5.79697">
        <ele>809.09</ele>
        <time>2012-03-22T08:17:55Z</time>
      </trkpt>
      <trkpt lat="44.39762" lon="5.79697">
        <ele>807.16</ele>
        <time>2012-03-22T08:17:59Z</time>
      </trkpt>
      <trkpt lat="44.39762" lon="5.79697">
        <ele>810.53</ele>
        <time>2012-03-22T08:18:00Z</time>
      </trkpt>
      <trkpt lat="44.39761" lon="5.79696">
        <ele>809.09</ele>
        <time>2012-03-22T08:18:01Z</time>
      </trkpt>
      <trkpt lat="44.39755" lon="5.79696">
        <ele>808.61</ele>
        <time>2012-03-22T08:18:09Z</time>
      </trkpt>
      <trkpt lat="44.39754" lon="5.79696">
        <ele>811.97</ele>
        <time>2012-03-22T08:18:10Z</time>
      </trkpt>
      <trkpt lat="44.39753" lon="5.79696">
        <ele>810.05</ele>
        <time>2012-03-22T08:18:11Z</time>
      </trkpt>
      <trkpt lat="44.3975" lon="5.79695">
        <ele>811.49</ele>
        <time>2012-03-22T08:18:14Z</time>
      </trkpt>
      <trkpt lat="44.39747" lon="5.79695">
        <ele>808.61</ele>
        <time>2012-03-22T08:18:18Z</time>
      </trkpt>
      <trkpt lat="44.39742" lon="5.79694">
        <ele>812.45</ele>
        <time>2012-03-22T08:18:24Z</time>
      </trkpt>
      <trkpt lat="44.39737" lon="5.79693">
        <ele>810.53</ele>
        <time>2012-03-22T08:18:31Z</time>
      </trkpt>
      <trkpt lat="44.39734" lon="5.79692">
        <ele>813.89</ele>
        <time>2012-03-22T08:18:34Z</time>
      </trkpt>
      <trkpt lat="44.39729" lon="5.79693">
        <ele>811.01</ele>
        <time>2012-03-22T08:18:40Z</time>
      </trkpt>
      <trkpt lat="44.39728" lon="5.79693">
        <ele>811.49</ele>
        <time>2012-03-22T08:18:41Z</time>
      </trkpt>
      <trkpt lat="44.39725" lon="5.79693">
        <ele>812.45</ele>
        <time>2012-03-22T08:18:43Z</time>
      </trkpt>
      <trkpt lat="44.39721" lon="5.79693">
        <ele>811.97</ele>
        <time>2012-03-22T08:18:48Z</time>
      </trkpt>
      <trkpt lat="44.3972" lon="5.79692">
        <ele>815.34</ele>
        <time>2012-03-22T08:18:49Z</time>
      </trkpt>
      <trkpt lat="44.39719" lon="5.79692">
        <ele>813.41</ele>
        <time>2012-03-22T08:18:50Z</time>
      </trkpt>
      <trkpt lat="44.39714" lon="5.7969">
        <ele>814.85</ele>
        <time>2012-03-22T08:18:55Z</time>
      </trkpt>
      <trkpt lat="44.39709" lon="5.79692">
        <ele>816.3</ele>
        <time>2012-03-22T08:19:00Z</time>
      </trkpt>
      <trkpt lat="44.39707" lon="5.79692">
        <ele>814.85</ele>
        <time>2012-03-22T08:19:01Z</time>
      </trkpt>
      <trkpt lat="44.39705" lon="5.79691">
        <ele>818.22</ele>
        <time>2012-03-22T08:19:04Z</time>
      </trkpt>
      <trkpt lat="44.39704" lon="5.79691">
        <ele>814.85</ele>
        <time>2012-03-22T08:19:06Z</time>
      </trkpt>
      <trkpt lat="44.39703" lon="5.79691">
        <ele>814.85</ele>
        <time>2012-03-22T08:19:07Z</time>
      </trkpt>
      <trkpt lat="44.39698" lon="5.79692">
        <ele>816.3</ele>
        <time>2012-03-22T08:19:12Z</time>
      </trkpt>
      <trkpt lat="44.3969" lon="5.79691">
        <ele>818.7</ele>
        <time>2012-03-22T08:19:20Z</time>
      </trkpt>
      <trkpt lat="44.3969" lon="5.79692">
        <ele>811.49</ele>
        <time>2012-03-22T08:19:21Z</time>
      </trkpt>
      <trkpt lat="44.39689" lon="5.79692">
        <ele>815.82</ele>
        <time>2012-03-22T08:19:22Z</time>
      </trkpt>
      <trkpt lat="44.39683" lon="5.79694">
        <ele>817.74</ele>
        <time>2012-03-22T08:19:28Z</time>
      </trkpt>
      <trkpt lat="44.39681" lon="5.79694">
        <ele>822.06</ele>
        <time>2012-03-22T08:19:30Z</time>
      </trkpt>
      <trkpt lat="44.39678" lon="5.79697">
        <ele>816.3</ele>
        <time>2012-03-22T08:19:33Z</time>
      </trkpt>
      <trkpt lat="44.39674" lon="5.79698">
        <ele>822.06</ele>
        <time>2012-03-22T08:19:37Z</time>
      </trkpt>
      <trkpt lat="44.39673" lon="5.79698">
        <ele>820.62</ele>
        <time>2012-03-22T08:19:38Z</time>
      </trkpt>
      <trkpt lat="44.39672" lon="5.79698">
        <ele>815.82</ele>
        <time>2012-03-22T08:19:39Z</time>
      </trkpt>
      <trkpt lat="44.39671" lon="5.79698">
        <ele>818.22</ele>
        <time>2012-03-22T08:19:40Z</time>
      </trkpt>
      <trkpt lat="44.3967" lon="5.79698">
        <ele>822.06</ele>
        <time>2012-03-22T08:19:41Z</time>
      </trkpt>
      <trkpt lat="44.3967" lon="5.79698">
        <ele>819.66</ele>
        <time>2012-03-22T08:19:42Z</time>
      </trkpt>
      <trkpt lat="44.39669" lon="5.79698">
        <ele>818.7</ele>
        <time>2012-03-22T08:19:44Z</time>
      </trkpt>
      <trkpt lat="44.39665" lon="5.79696">
        <ele>815.82</ele>
        <time>2012-03-22T08:19:51Z</time>
      </trkpt>
      <trkpt lat="44.39664" lon="5.79697">
        <ele>819.66</ele>
        <time>2012-03-22T08:19:52Z</time>
      </trkpt>
      <trkpt lat="44.39663" lon="5.79697">
        <ele>823.99</ele>
        <time>2012-03-22T08:19:53Z</time>
      </trkpt>
      <trkpt lat="44.39663" lon="5.79697">
        <ele>820.62</ele>
        <time>2012-03-22T08:19:54Z</time>
      </trkpt>
      <trkpt lat="44.39659" lon="5.79698">
        <ele>821.1</ele>
        <time>2012-03-22T08:19:58Z</time>
      </trkpt>
      <trkpt lat="44.3965" lon="5.79698">
        <ele>820.62</ele>
        <time>2012-03-22T08:20:06Z</time>
      </trkpt>
      <trkpt lat="44.39649" lon="5.79699">
        <ele>825.43</ele>
        <time>2012-03-22T08:20:07Z</time>
      </trkpt>
      <trkpt lat="44.39648" lon="5.79699">
        <ele>823.51</ele>
        <time>2012-03-22T08:20:08Z</time>
      </trkpt>
      <trkpt lat="44.39639" lon="5.79702">
        <ele>820.14</ele>
        <time>2012-03-22T08:20:16Z</time>
      </trkpt>
      <trkpt lat="44.39637" lon="5.79702">
        <ele>824.95</ele>
        <time>2012-03-22T08:20:18Z</time>
      </trkpt>
      <trkpt lat="44.39636" lon="5.79702">
        <ele>823.99</ele>
        <time>2012-03-22T08:20:19Z</time>
      </trkpt>
      <trkpt lat="44.39628" lon="5.79704">
        <ele>823.03</ele>
        <time>2012-03-22T08:20:27Z</time>
      </trkpt>
      <trkpt lat="44.39624" lon="5.79701">
        <ele>826.87</ele>
        <time>2012-03-22T08:20:31Z</time>
      </trkpt>
      <trkpt lat="44.39623" lon="5.79702">
        <ele>823.03</ele>
        <time>2012-03-22T08:20:32Z</time>
      </trkpt>
      <trkpt lat="44.39621" lon="5.79702">
        <ele>823.51</ele>
        <time>2012-03-22T08:20:33Z</time>
      </trkpt>
      <trkpt lat="44.3962" lon="5.79702">
        <ele>827.83</ele>
        <time>2012-03-22T08:20:34Z</time>
      </trkpt>
      <trkpt lat="44.3962" lon="5.79702">
        <ele>828.31</ele>
        <time>2012-03-22T08:20:35Z</time>
      </trkpt>
      <trkpt lat="44.39617" lon="5.79702">
        <ele>824.47</ele>
        <time>2012-03-22T08:20:37Z</time>
      </trkpt>
      <trkpt lat="44.39616" lon="5.79702">
        <ele>824.95</ele>
        <time>2012-03-22T08:20:38Z</time>
      </trkpt>
      <trkpt lat="44.39612" lon="5.79703">
        <ele>824.47</ele>
        <time>2012-03-22T08:20:42Z</time>
      </trkpt>
      <trkpt lat="44.39611" lon="5.79704">
        <ele>827.35</ele>
        <time>2012-03-22T08:20:43Z</time>
      </trkpt>
      <trkpt lat="44.39607" lon="5.79704">
        <ele>827.83</ele>
        <time>2012-03-22T08:20:47Z</time>
      </trkpt>
      <trkpt lat="44.39599" lon="5.79706">
        <ele>823.99</ele>
        <time>2012-03-22T08:20:56Z</time>
      </trkpt>
      <trkpt lat="44.39598" lon="5.79706">
        <ele>828.31</ele>
        <time>2012-03-22T08:20:57Z</time>
      </trkpt>
      <trkpt lat="44.39591" lon="5.79708">
        <ele>829.76</ele>
        <time>2012-03-22T08:21:04Z</time>
      </trkpt>
      <trkpt lat="44.39589" lon="5.79709">
        <ele>833.12</ele>
        <time>2012-03-22T08:21:07Z</time>
      </trkpt>
      <trkpt lat="44.39588" lon="5.7971">
        <ele>831.68</ele>
        <time>2012-03-22T08:21:08Z</time>
      </trkpt>
      <trkpt lat="44.39585" lon="5.79711">
        <ele>828.31</ele>
        <time>2012-03-22T08:21:11Z</time>
      </trkpt>
      <trkpt lat="44.39583" lon="5.79711">
        <ele>828.79</ele>
        <time>2012-03-22T08:21:13Z</time>
      </trkpt>
      <trkpt lat="44.39578" lon="5.79713">
        <ele>835.04</ele>
        <time>2012-03-22T08:21:18Z</time>
      </trkpt>
      <trkpt lat="44.39577" lon="5.79714">
        <ele>831.68</ele>
        <time>2012-03-22T08:21:19Z</time>
      </trkpt>
      <trkpt lat="44.39576" lon="5.79714">
        <ele>828.31</ele>
        <time>2012-03-22T08:21:20Z</time>
      </trkpt>
      <trkpt lat="44.39575" lon="5.79715">
        <ele>829.27</ele>
        <time>2012-03-22T08:21:21Z</time>
      </trkpt>
      <trkpt lat="44.39572" lon="5.79717">
        <ele>830.24</ele>
        <time>2012-03-22T08:21:24Z</time>
      </trkpt>
      <trkpt lat="44.39568" lon="5.7972">
        <ele>830.72</ele>
        <time>2012-03-22T08:21:28Z</time>
      </trkpt>
      <trkpt lat="44.39566" lon="5.79721">
        <ele>832.64</ele>
        <time>2012-03-22T08:21:30Z</time>
      </trkpt>
      <trkpt lat="44.39564" lon="5.79722">
        <ele>834.56</ele>
        <time>2012-03-22T08:21:32Z</time>
      </trkpt>
      <trkpt lat="44.39563" lon="5.79724">
        <ele>832.16</ele>
        <time>2012-03-22T08:21:34Z</time>
      </trkpt>
      <trkpt lat="44.39561" lon="5.79724">
        <ele>832.64</ele>
        <time>2012-03-22T08:21:36Z</time>
      </trkpt>
      <trkpt lat="44.39559" lon="5.79725">
        <ele>834.08</ele>
        <time>2012-03-22T08:21:38Z</time>
      </trkpt>
      <trkpt lat="44.39555" lon="5.79727">
        <ele>838.89</ele>
        <time>2012-03-22T08:21:42Z</time>
      </trkpt>
      <trkpt lat="44.39554" lon="5.79728">
        <ele>834.08</ele>
        <time>2012-03-22T08:21:43Z</time>
      </trkpt>
      <trkpt lat="44.39549" lon="5.7973">
        <ele>836.48</ele>
        <time>2012-03-22T08:21:48Z</time>
      </trkpt>
      <trkpt lat="44.39546" lon="5.79731">
        <ele>830.72</ele>
        <time>2012-03-22T08:21:51Z</time>
      </trkpt>
      <trkpt lat="44.39546" lon="5.7973">
        <ele>836</ele>
        <time>2012-03-22T08:21:52Z</time>
      </trkpt>
      <trkpt lat="44.39546" lon="5.7973">
        <ele>835.52</ele>
        <time>2012-03-22T08:21:53Z</time>
      </trkpt>
      <trkpt lat="44.39546" lon="5.7973">
        <ele>834.56</ele>
        <time>2012-03-22T08:21:54Z</time>
      </trkpt>
      <trkpt lat="44.39537" lon="5.79738">
        <ele>839.37</ele>
        <time>2012-03-22T08:22:03Z</time>
      </trkpt>
      <trkpt lat="44.39536" lon="5.79739">
        <ele>836.96</ele>
        <time>2012-03-22T08:22:04Z</time>
      </trkpt>
      <trkpt lat="44.3953" lon="5.79742">
        <ele>836.48</ele>
        <time>2012-03-22T08:22:11Z</time>
      </trkpt>
      <trkpt lat="44.39525" lon="5.79745">
        <ele>842.25</ele>
        <time>2012-03-22T08:22:16Z</time>
      </trkpt>
      <trkpt lat="44.39524" lon="5.79746">
        <ele>836.96</ele>
        <time>2012-03-22T08:22:17Z</time>
      </trkpt>
      <trkpt lat="44.39517" lon="5.79747">
        <ele>838.89</ele>
        <time>2012-03-22T08:22:25Z</time>
      </trkpt>
      <trkpt lat="44.39517" lon="5.79747">
        <ele>838.41</ele>
        <time>2012-03-22T08:22:26Z</time>
      </trkpt>
      <trkpt lat="44.39513" lon="5.79748">
        <ele>842.73</ele>
        <time>2012-03-22T08:22:32Z</time>
      </trkpt>
      <trkpt lat="44.39512" lon="5.79749">
        <ele>841.29</ele>
        <time>2012-03-22T08:22:33Z</time>
      </trkpt>
      <trkpt lat="44.39511" lon="5.79749">
        <ele>836.48</ele>
        <time>2012-03-22T08:22:34Z</time>
      </trkpt>
      <trkpt lat="44.3951" lon="5.79749">
        <ele>842.73</ele>
        <time>2012-03-22T08:22:35Z</time>
      </trkpt>
      <trkpt lat="44.39508" lon="5.79751">
        <ele>839.37</ele>
        <time>2012-03-22T08:22:37Z</time>
      </trkpt>
      <trkpt lat="44.39505" lon="5.79751">
        <ele>838.89</ele>
        <time>2012-03-22T08:22:42Z</time>
      </trkpt>
      <trkpt lat="44.39503" lon="5.79751">
        <ele>837.45</ele>
        <time>2012-03-22T08:22:44Z</time>
      </trkpt>
      <trkpt lat="44.39502" lon="5.79751">
        <ele>840.33</ele>
        <time>2012-03-22T08:22:45Z</time>
      </trkpt>
      <trkpt lat="44.395" lon="5.79752">
        <ele>840.81</ele>
        <time>2012-03-22T08:22:47Z</time>
      </trkpt>
      <trkpt lat="44.39498" lon="5.79752">
        <ele>840.33</ele>
        <time>2012-03-22T08:22:49Z</time>
      </trkpt>
      <trkpt lat="44.39497" lon="5.79752">
        <ele>845.14</ele>
        <time>2012-03-22T08:22:50Z</time>
      </trkpt>
      <trkpt lat="44.39496" lon="5.79752">
        <ele>840.81</ele>
        <time>2012-03-22T08:22:51Z</time>
      </trkpt>
      <trkpt lat="44.39491" lon="5.79754">
        <ele>846.58</ele>
        <time>2012-03-22T08:22:56Z</time>
      </trkpt>
      <trkpt lat="44.3949" lon="5.79754">
        <ele>843.69</ele>
        <time>2012-03-22T08:22:57Z</time>
      </trkpt>
      <trkpt lat="44.3949" lon="5.79753">
        <ele>837.93</ele>
        <time>2012-03-22T08:22:58Z</time>
      </trkpt>
      <trkpt lat="44.39489" lon="5.79754">
        <ele>843.21</ele>
        <time>2012-03-22T08:22:59Z</time>
      </trkpt>
      <trkpt lat="44.39484" lon="5.79755">
        <ele>844.18</ele>
        <time>2012-03-22T08:23:04Z</time>
      </trkpt>
      <trkpt lat="44.39482" lon="5.79756">
        <ele>843.21</ele>
        <time>2012-03-22T08:23:06Z</time>
      </trkpt>
      <trkpt lat="44.39475" lon="5.79759">
        <ele>839.37</ele>
        <time>2012-03-22T08:23:14Z</time>
      </trkpt>
      <trkpt lat="44.39475" lon="5.7976">
        <ele>843.21</ele>
        <time>2012-03-22T08:23:15Z</time>
      </trkpt>
      <trkpt lat="44.39471" lon="5.79762">
        <ele>848.5</ele>
        <time>2012-03-22T08:23:19Z</time>
      </trkpt>
      <trkpt lat="44.3947" lon="5.79762">
        <ele>844.66</ele>
        <time>2012-03-22T08:23:20Z</time>
      </trkpt>
      <trkpt lat="44.39467" lon="5.79763">
        <ele>840.33</ele>
        <time>2012-03-22T08:23:23Z</time>
      </trkpt>
      <trkpt lat="44.39465" lon="5.79764">
        <ele>846.58</ele>
        <time>2012-03-22T08:23:26Z</time>
      </trkpt>
      <trkpt lat="44.39464" lon="5.79764">
        <ele>842.25</ele>
        <time>2012-03-22T08:23:27Z</time>
      </trkpt>
      <trkpt lat="44.39463" lon="5.79764">
        <ele>848.02</ele>
        <time>2012-03-22T08:23:28Z</time>
      </trkpt>
      <trkpt lat="44.39461" lon="5.79765">
        <ele>845.14</ele>
        <time>2012-03-22T08:23:31Z</time>
      </trkpt>
      <trkpt lat="44.39459" lon="5.79766">
        <ele>849.46</ele>
        <time>2012-03-22T08:23:33Z</time>
      </trkpt>
      <trkpt lat="44.39458" lon="5.79766">
        <ele>844.18</ele>
        <time>2012-03-22T08:23:34Z</time>
      </trkpt>
      <trkpt lat="44.39452" lon="5.79768">
        <ele>850.42</ele>
        <time>2012-03-22T08:23:40Z</time>
      </trkpt>
      <trkpt lat="44.39448" lon="5.7977">
        <ele>851.38</ele>
        <time>2012-03-22T08:23:44Z</time>
      </trkpt>
      <trkpt lat="44.39447" lon="5.7977">
        <ele>846.1</ele>
        <time>2012-03-22T08:23:45Z</time>
      </trkpt>
      <trkpt lat="44.39445" lon="5.79769">
        <ele>845.14</ele>
        <time>2012-03-22T08:23:51Z</time>
      </trkpt>
      <trkpt lat="44.39443" lon="5.7977">
        <ele>842.73</ele>
        <time>2012-03-22T08:23:53Z</time>
      </trkpt>
      <trkpt lat="44.39442" lon="5.7977">
        <ele>846.58</ele>
        <time>2012-03-22T08:23:54Z</time>
      </trkpt>
      <trkpt lat="44.39441" lon="5.79771">
        <ele>851.38</ele>
        <time>2012-03-22T08:23:55Z</time>
      </trkpt>
      <trkpt lat="44.3944" lon="5.79772">
        <ele>848.02</ele>
        <time>2012-03-22T08:23:56Z</time>
      </trkpt>
      <trkpt lat="44.39436" lon="5.79773">
        <ele>845.62</ele>
        <time>2012-03-22T08:23:59Z</time>
      </trkpt>
      <trkpt lat="44.39434" lon="5.79773">
        <ele>846.1</ele>
        <time>2012-03-22T08:24:02Z</time>
      </trkpt>
      <trkpt lat="44.39429" lon="5.79773">
        <ele>853.31</ele>
        <time>2012-03-22T08:24:06Z</time>
      </trkpt>
      <trkpt lat="44.39428" lon="5.79774">
        <ele>847.54</ele>
        <time>2012-03-22T08:24:07Z</time>
      </trkpt>
      <trkpt lat="44.39425" lon="5.79774">
        <ele>847.54</ele>
        <time>2012-03-22T08:24:12Z</time>
      </trkpt>
      <trkpt lat="44.39423" lon="5.79773">
        <ele>848.5</ele>
        <time>2012-03-22T08:24:14Z</time>
      </trkpt>
      <trkpt lat="44.39422" lon="5.79771">
        <ele>851.38</ele>
        <time>2012-03-22T08:24:16Z</time>
      </trkpt>
      <trkpt lat="44.39421" lon="5.7977">
        <ele>846.1</ele>
        <time>2012-03-22T08:24:17Z</time>
      </trkpt>
      <trkpt lat="44.3942" lon="5.79768">
        <ele>850.9</ele>
        <time>2012-03-22T08:24:18Z</time>
      </trkpt>
      <trkpt lat="44.3942" lon="5.79768">
        <ele>849.46</ele>
        <time>2012-03-22T08:24:19Z</time>
      </trkpt>
      <trkpt lat="44.39418" lon="5.79766">
        <ele>847.54</ele>
        <time>2012-03-22T08:24:21Z</time>
      </trkpt>
      <trkpt lat="44.39412" lon="5.79765">
        <ele>849.46</ele>
        <time>2012-03-22T08:24:26Z</time>
      </trkpt>
      <trkpt lat="44.39409" lon="5.79768">
        <ele>850.42</ele>
        <time>2012-03-22T08:24:28Z</time>
      </trkpt>
      <trkpt lat="44.39407" lon="5.7977">
        <ele>853.79</ele>
        <time>2012-03-22T08:24:30Z</time>
      </trkpt>
      <trkpt lat="44.39407" lon="5.79775">
        <ele>848.02</ele>
        <time>2012-03-22T08:24:32Z</time>
      </trkpt>
      <trkpt lat="44.39406" lon="5.79777">
        <ele>851.87</ele>
        <time>2012-03-22T08:24:33Z</time>
      </trkpt>
      <trkpt lat="44.39404" lon="5.79782">
        <ele>850.42</ele>
        <time>2012-03-22T08:24:36Z</time>
      </trkpt>
      <trkpt lat="44.39402" lon="5.79785">
        <ele>846.58</ele>
        <time>2012-03-22T08:24:39Z</time>
      </trkpt>
      <trkpt lat="44.39402" lon="5.79785">
        <ele>851.38</ele>
        <time>2012-03-22T08:24:40Z</time>
      </trkpt>
      <trkpt lat="44.39401" lon="5.79786">
        <ele>856.19</ele>
        <time>2012-03-22T08:24:42Z</time>
      </trkpt>
      <trkpt lat="44.39397" lon="5.7979">
        <ele>853.31</ele>
        <time>2012-03-22T08:24:45Z</time>
      </trkpt>
      <trkpt lat="44.39395" lon="5.79793">
        <ele>853.31</ele>
        <time>2012-03-22T08:24:47Z</time>
      </trkpt>
      <trkpt lat="44.39393" lon="5.79796">
        <ele>853.31</ele>
        <time>2012-03-22T08:24:49Z</time>
      </trkpt>
      <trkpt lat="44.3939" lon="5.79799">
        <ele>854.75</ele>
        <time>2012-03-22T08:24:51Z</time>
      </trkpt>
      <trkpt lat="44.39389" lon="5.79799">
        <ele>851.38</ele>
        <time>2012-03-22T08:24:52Z</time>
      </trkpt>
      <trkpt lat="44.39388" lon="5.798">
        <ele>851.87</ele>
        <time>2012-03-22T08:24:53Z</time>
      </trkpt>
      <trkpt lat="44.39386" lon="5.79799">
        <ele>848.02</ele>
        <time>2012-03-22T08:24:55Z</time>
      </trkpt>
      <trkpt lat="44.39385" lon="5.79799">
        <ele>848.98</ele>
        <time>2012-03-22T08:24:56Z</time>
      </trkpt>
      <trkpt lat="44.39384" lon="5.798">
        <ele>854.75</ele>
        <time>2012-03-22T08:24:57Z</time>
      </trkpt>
      <trkpt lat="44.39378" lon="5.79799">
        <ele>855.23</ele>
        <time>2012-03-22T08:25:01Z</time>
      </trkpt>
      <trkpt lat="44.3937" lon="5.79794">
        <ele>855.71</ele>
        <time>2012-03-22T08:25:05Z</time>
      </trkpt>
      <trkpt lat="44.39364" lon="5.79793">
        <ele>855.23</ele>
        <time>2012-03-22T08:25:09Z</time>
      </trkpt>
      <trkpt lat="44.3936" lon="5.79792">
        <ele>855.23</ele>
        <time>2012-03-22T08:25:12Z</time>
      </trkpt>
      <trkpt lat="44.39349" lon="5.79785">
        <ele>857.63</ele>
        <time>2012-03-22T08:25:20Z</time>
      </trkpt>
      <trkpt lat="44.39341" lon="5.79776">
        <ele>855.71</ele>
        <time>2012-03-22T08:25:29Z</time>
      </trkpt>
      <trkpt lat="44.3934" lon="5.79776">
        <ele>861</ele>
        <time>2012-03-22T08:25:30Z</time>
      </trkpt>
      <trkpt lat="44.39337" lon="5.79775">
        <ele>857.15</ele>
        <time>2012-03-22T08:25:33Z</time>
      </trkpt>
      <trkpt lat="44.39335" lon="5.79773">
        <ele>861</ele>
        <time>2012-03-22T08:25:35Z</time>
      </trkpt>
      <trkpt lat="44.39332" lon="5.79773">
        <ele>857.15</ele>
        <time>2012-03-22T08:25:37Z</time>
      </trkpt>
      <trkpt lat="44.39327" lon="5.79771">
        <ele>858.11</ele>
        <time>2012-03-22T08:25:43Z</time>
      </trkpt>
      <trkpt lat="44.39323" lon="5.79771">
        <ele>858.59</ele>
        <time>2012-03-22T08:25:46Z</time>
      </trkpt>
      <trkpt lat="44.3932" lon="5.79774">
        <ele>861.96</ele>
        <time>2012-03-22T08:25:48Z</time>
      </trkpt>
      <trkpt lat="44.39317" lon="5.79775">
        <ele>859.08</ele>
        <time>2012-03-22T08:25:50Z</time>
      </trkpt>
      <trkpt lat="44.39311" lon="5.79782">
        <ele>858.11</ele>
        <time>2012-03-22T08:25:57Z</time>
      </trkpt>
      <trkpt lat="44.39311" lon="5.79782">
        <ele>861.48</ele>
        <time>2012-03-22T08:25:58Z</time>
      </trkpt>
      <trkpt lat="44.39309" lon="5.79785">
        <ele>857.63</ele>
        <time>2012-03-22T08:26:01Z</time>
      </trkpt>
      <trkpt lat="44.39308" lon="5.79786">
        <ele>857.63</ele>
        <time>2012-03-22T08:26:02Z</time>
      </trkpt>
      <trkpt lat="44.39307" lon="5.79787">
        <ele>864.36</ele>
        <time>2012-03-22T08:26:03Z</time>
      </trkpt>
      <trkpt lat="44.39306" lon="5.79789">
        <ele>859.08</ele>
        <time>2012-03-22T08:26:05Z</time>
      </trkpt>
      <trkpt lat="44.39306" lon="5.79789">
        <ele>863.4</ele>
        <time>2012-03-22T08:26:06Z</time>
      </trkpt>
      <trkpt lat="44.39303" lon="5.79791">
        <ele>863.88</ele>
        <time>2012-03-22T08:26:12Z</time>
      </trkpt>
      <trkpt lat="44.39301" lon="5.79796">
        <ele>863.88</ele>
        <time>2012-03-22T08:26:25Z</time>
      </trkpt>
      <trkpt lat="44.39296" lon="5.79799">
        <ele>863.4</ele>
        <time>2012-03-22T08:26:41Z</time>
      </trkpt>
      <trkpt lat="44.39295" lon="5.79798">
        <ele>865.32</ele>
        <time>2012-03-22T08:27:03Z</time>
      </trkpt>
      <trkpt lat="44.39295" lon="5.79797">
        <ele>866.29</ele>
        <time>2012-03-22T08:27:27Z</time>
      </trkpt>
      <trkpt lat="44.39295" lon="5.79797">
        <ele>867.73</ele>
        <time>2012-03-22T08:27:32Z</time>
      </trkpt>
      <trkpt lat="44.39296" lon="5.79797">
        <ele>867.73</ele>
        <time>2012-03-22T08:27:52Z</time>
      </trkpt>
      <trkpt lat="44.39293" lon="5.79799">
        <ele>871.09</ele>
        <time>2012-03-22T08:28:28Z</time>
      </trkpt>
      <trkpt lat="44.39292" lon="5.79799">
        <ele>868.21</ele>
        <time>2012-03-22T08:28:29Z</time>
      </trkpt>
      <trkpt lat="44.3929" lon="5.79798">
        <ele>869.65</ele>
        <time>2012-03-22T08:28:39Z</time>
      </trkpt>
      <trkpt lat="44.3929" lon="5.79798">
        <ele>870.13</ele>
        <time>2012-03-22T08:28:49Z</time>
      </trkpt>
      <trkpt lat="44.3929" lon="5.79798">
        <ele>873.5</ele>
        <time>2012-03-22T08:29:40Z</time>
      </trkpt>
      <trkpt lat="44.3929" lon="5.79798">
        <ele>875.9</ele>
        <time>2012-03-22T08:29:53Z</time>
      </trkpt>
      <trkpt lat="44.39289" lon="5.798">
        <ele>872.05</ele>
        <time>2012-03-22T08:29:56Z</time>
      </trkpt>
      <trkpt lat="44.39289" lon="5.79804">
        <ele>876.38</ele>
        <time>2012-03-22T08:30:01Z</time>
      </trkpt>
      <trkpt lat="44.39291" lon="5.79807">
        <ele>877.34</ele>
        <time>2012-03-22T08:30:10Z</time>
      </trkpt>
      <trkpt lat="44.3929" lon="5.79815">
        <ele>877.82</ele>
        <time>2012-03-22T08:30:22Z</time>
      </trkpt>
      <trkpt lat="44.39291" lon="5.79823">
        <ele>878.78</ele>
        <time>2012-03-22T08:30:33Z</time>
      </trkpt>
      <trkpt lat="44.39291" lon="5.79824">
        <ele>878.78</ele>
        <time>2012-03-22T08:30:34Z</time>
      </trkpt>
      <trkpt lat="44.39291" lon="5.79829">
        <ele>882.63</ele>
        <time>2012-03-22T08:30:38Z</time>
      </trkpt>
      <trkpt lat="44.39291" lon="5.79831">
        <ele>880.22</ele>
        <time>2012-03-22T08:30:41Z</time>
      </trkpt>
      <trkpt lat="44.39292" lon="5.79839">
        <ele>879.74</ele>
        <time>2012-03-22T08:30:51Z</time>
      </trkpt>
      <trkpt lat="44.39293" lon="5.79841">
        <ele>883.11</ele>
        <time>2012-03-22T08:30:53Z</time>
      </trkpt>
      <trkpt lat="44.39295" lon="5.79849">
        <ele>887.91</ele>
        <time>2012-03-22T08:31:02Z</time>
      </trkpt>
      <trkpt lat="44.39296" lon="5.7985">
        <ele>885.03</ele>
        <time>2012-03-22T08:31:03Z</time>
      </trkpt>
      <trkpt lat="44.39299" lon="5.79858">
        <ele>886.47</ele>
        <time>2012-03-22T08:31:13Z</time>
      </trkpt>
      <trkpt lat="44.393" lon="5.79861">
        <ele>883.59</ele>
        <time>2012-03-22T08:31:17Z</time>
      </trkpt>
      <trkpt lat="44.393" lon="5.7987">
        <ele>886.47</ele>
        <time>2012-03-22T08:31:24Z</time>
      </trkpt>
      <trkpt lat="44.39301" lon="5.79873">
        <ele>890.8</ele>
        <time>2012-03-22T08:31:27Z</time>
      </trkpt>
      <trkpt lat="44.39301" lon="5.79874">
        <ele>887.43</ele>
        <time>2012-03-22T08:31:28Z</time>
      </trkpt>
      <trkpt lat="44.39301" lon="5.79875">
        <ele>890.8</ele>
        <time>2012-03-22T08:31:29Z</time>
      </trkpt>
      <trkpt lat="44.39303" lon="5.79878">
        <ele>888.88</ele>
        <time>2012-03-22T08:31:32Z</time>
      </trkpt>
      <trkpt lat="44.39303" lon="5.7988">
        <ele>892.24</ele>
        <time>2012-03-22T08:31:36Z</time>
      </trkpt>
      <trkpt lat="44.39303" lon="5.7988">
        <ele>889.36</ele>
        <time>2012-03-22T08:31:37Z</time>
      </trkpt>
      <trkpt lat="44.39304" lon="5.79881">
        <ele>892.24</ele>
        <time>2012-03-22T08:31:38Z</time>
      </trkpt>
      <trkpt lat="44.39306" lon="5.79885">
        <ele>889.36</ele>
        <time>2012-03-22T08:31:43Z</time>
      </trkpt>
      <trkpt lat="44.39306" lon="5.79895">
        <ele>892.72</ele>
        <time>2012-03-22T08:31:50Z</time>
      </trkpt>
      <trkpt lat="44.39307" lon="5.799">
        <ele>888.88</ele>
        <time>2012-03-22T08:31:53Z</time>
      </trkpt>
      <trkpt lat="44.39307" lon="5.79901">
        <ele>890.32</ele>
        <time>2012-03-22T08:31:54Z</time>
      </trkpt>
      <trkpt lat="44.39307" lon="5.79903">
        <ele>893.2</ele>
        <time>2012-03-22T08:31:57Z</time>
      </trkpt>
      <trkpt lat="44.39307" lon="5.79908">
        <ele>896.09</ele>
        <time>2012-03-22T08:32:00Z</time>
      </trkpt>
      <trkpt lat="44.39307" lon="5.79909">
        <ele>892.72</ele>
        <time>2012-03-22T08:32:01Z</time>
      </trkpt>
      <trkpt lat="44.39309" lon="5.79918">
        <ele>893.68</ele>
        <time>2012-03-22T08:32:10Z</time>
      </trkpt>
      <trkpt lat="44.39309" lon="5.79919">
        <ele>897.53</ele>
        <time>2012-03-22T08:32:14Z</time>
      </trkpt>
      <trkpt lat="44.39309" lon="5.79921">
        <ele>893.68</ele>
        <time>2012-03-22T08:32:17Z</time>
      </trkpt>
      <trkpt lat="44.39309" lon="5.79922">
        <ele>895.61</ele>
        <time>2012-03-22T08:32:18Z</time>
      </trkpt>
      <trkpt lat="44.39309" lon="5.79926">
        <ele>898.97</ele>
        <time>2012-03-22T08:32:21Z</time>
      </trkpt>
      <trkpt lat="44.3931" lon="5.79932">
        <ele>894.64</ele>
        <time>2012-03-22T08:32:26Z</time>
      </trkpt>
      <trkpt lat="44.39311" lon="5.79935">
        <ele>898.49</ele>
        <time>2012-03-22T08:32:28Z</time>
      </trkpt>
      <trkpt lat="44.39311" lon="5.79938">
        <ele>895.12</ele>
        <time>2012-03-22T08:32:31Z</time>
      </trkpt>
      <trkpt lat="44.39311" lon="5.79941">
        <ele>898.01</ele>
        <time>2012-03-22T08:32:33Z</time>
      </trkpt>
      <trkpt lat="44.39311" lon="5.79941">
        <ele>903.3</ele>
        <time>2012-03-22T08:32:35Z</time>
      </trkpt>
      <trkpt lat="44.39312" lon="5.79942">
        <ele>898.97</ele>
        <time>2012-03-22T08:32:37Z</time>
      </trkpt>
      <trkpt lat="44.39313" lon="5.79943">
        <ele>901.85</ele>
        <time>2012-03-22T08:32:38Z</time>
      </trkpt>
      <trkpt lat="44.39314" lon="5.79945">
        <ele>898.49</ele>
        <time>2012-03-22T08:32:42Z</time>
      </trkpt>
      <trkpt lat="44.39315" lon="5.79945">
        <ele>903.3</ele>
        <time>2012-03-22T08:32:44Z</time>
      </trkpt>
      <trkpt lat="44.39317" lon="5.79952">
        <ele>901.37</ele>
        <time>2012-03-22T08:32:50Z</time>
      </trkpt>
      <trkpt lat="44.39316" lon="5.79961">
        <ele>905.7</ele>
        <time>2012-03-22T08:32:54Z</time>
      </trkpt>
      <trkpt lat="44.39316" lon="5.79963">
        <ele>902.33</ele>
        <time>2012-03-22T08:32:55Z</time>
      </trkpt>
      <trkpt lat="44.39317" lon="5.79968">
        <ele>906.18</ele>
        <time>2012-03-22T08:32:59Z</time>
      </trkpt>
      <trkpt lat="44.39316" lon="5.79969">
        <ele>905.7</ele>
        <time>2012-03-22T08:33:00Z</time>
      </trkpt>
      <trkpt lat="44.39319" lon="5.79977">
        <ele>908.1</ele>
        <time>2012-03-22T08:33:06Z</time>
      </trkpt>
      <trkpt lat="44.3932" lon="5.79978">
        <ele>904.26</ele>
        <time>2012-03-22T08:33:07Z</time>
      </trkpt>
      <trkpt lat="44.3932" lon="5.79979">
        <ele>905.7</ele>
        <time>2012-03-22T08:33:08Z</time>
      </trkpt>
      <trkpt lat="44.39321" lon="5.79985">
        <ele>910.51</ele>
        <time>2012-03-22T08:33:14Z</time>
      </trkpt>
      <trkpt lat="44.39321" lon="5.79988">
        <ele>906.18</ele>
        <time>2012-03-22T08:33:16Z</time>
      </trkpt>
      <trkpt lat="44.39323" lon="5.79997">
        <ele>909.54</ele>
        <time>2012-03-22T08:33:24Z</time>
      </trkpt>
      <trkpt lat="44.39323" lon="5.79997">
        <ele>908.1</ele>
        <time>2012-03-22T08:33:25Z</time>
      </trkpt>
      <trkpt lat="44.39324" lon="5.79998">
        <ele>911.47</ele>
        <time>2012-03-22T08:33:26Z</time>
      </trkpt>
      <trkpt lat="44.39324" lon="5.79999">
        <ele>906.66</ele>
        <time>2012-03-22T08:33:28Z</time>
      </trkpt>
      <trkpt lat="44.39325" lon="5.8">
        <ele>906.66</ele>
        <time>2012-03-22T08:33:29Z</time>
      </trkpt>
      <trkpt lat="44.39325" lon="5.80004">
        <ele>909.06</ele>
        <time>2012-03-22T08:33:34Z</time>
      </trkpt>
      <trkpt lat="44.39325" lon="5.80006">
        <ele>912.91</ele>
        <time>2012-03-22T08:33:36Z</time>
      </trkpt>
      <trkpt lat="44.39326" lon="5.80008">
        <ele>909.54</ele>
        <time>2012-03-22T08:33:39Z</time>
      </trkpt>
      <trkpt lat="44.39326" lon="5.80012">
        <ele>913.39</ele>
        <time>2012-03-22T08:33:42Z</time>
      </trkpt>
      <trkpt lat="44.39326" lon="5.80012">
        <ele>908.1</ele>
        <time>2012-03-22T08:33:43Z</time>
      </trkpt>
      <trkpt lat="44.39326" lon="5.80014">
        <ele>917.24</ele>
        <time>2012-03-22T08:33:45Z</time>
      </trkpt>
      <trkpt lat="44.39326" lon="5.80014">
        <ele>910.51</ele>
        <time>2012-03-22T08:33:46Z</time>
      </trkpt>
      <trkpt lat="44.39326" lon="5.8002">
        <ele>910.51</ele>
        <time>2012-03-22T08:33:53Z</time>
      </trkpt>
      <trkpt lat="44.39327" lon="5.80022">
        <ele>917.72</ele>
        <time>2012-03-22T08:33:57Z</time>
      </trkpt>
      <trkpt lat="44.39328" lon="5.80023">
        <ele>912.91</ele>
        <time>2012-03-22T08:33:58Z</time>
      </trkpt>
      <trkpt lat="44.39329" lon="5.80027">
        <ele>911.95</ele>
        <time>2012-03-22T08:34:00Z</time>
      </trkpt>
      <trkpt lat="44.39329" lon="5.80035">
        <ele>915.31</ele>
        <time>2012-03-22T08:34:06Z</time>
      </trkpt>
      <trkpt lat="44.39329" lon="5.80037">
        <ele>912.91</ele>
        <time>2012-03-22T08:34:07Z</time>
      </trkpt>
      <trkpt lat="44.3933" lon="5.80039">
        <ele>917.24</ele>
        <time>2012-03-22T08:34:09Z</time>
      </trkpt>
      <trkpt lat="44.3933" lon="5.8004">
        <ele>913.87</ele>
        <time>2012-03-22T08:34:10Z</time>
      </trkpt>
      <trkpt lat="44.3933" lon="5.80043">
        <ele>921.08</ele>
        <time>2012-03-22T08:34:12Z</time>
      </trkpt>
      <trkpt lat="44.39331" lon="5.80044">
        <ele>916.75</ele>
        <time>2012-03-22T08:34:13Z</time>
      </trkpt>
      <trkpt lat="44.39331" lon="5.80045">
        <ele>913.39</ele>
        <time>2012-03-22T08:34:14Z</time>
      </trkpt>
      <trkpt lat="44.39331" lon="5.80046">
        <ele>915.31</ele>
        <time>2012-03-22T08:34:15Z</time>
      </trkpt>
      <trkpt lat="44.39333" lon="5.80051">
        <ele>920.12</ele>
        <time>2012-03-22T08:34:24Z</time>
      </trkpt>
      <trkpt lat="44.39334" lon="5.80053">
        <ele>916.75</ele>
        <time>2012-03-22T08:34:26Z</time>
      </trkpt>
      <trkpt lat="44.39334" lon="5.80063">
        <ele>922.04</ele>
        <time>2012-03-22T08:34:31Z</time>
      </trkpt>
      <trkpt lat="44.39334" lon="5.80064">
        <ele>919.16</ele>
        <time>2012-03-22T08:34:32Z</time>
      </trkpt>
      <trkpt lat="44.39334" lon="5.80066">
        <ele>914.83</ele>
        <time>2012-03-22T08:34:33Z</time>
      </trkpt>
      <trkpt lat="44.39335" lon="5.80067">
        <ele>918.2</ele>
        <time>2012-03-22T08:34:34Z</time>
      </trkpt>
      <trkpt lat="44.39335" lon="5.80068">
        <ele>917.72</ele>
        <time>2012-03-22T08:34:36Z</time>
      </trkpt>
      <trkpt lat="44.39336" lon="5.80077">
        <ele>922.04</ele>
        <time>2012-03-22T08:34:43Z</time>
      </trkpt>
      <trkpt lat="44.39336" lon="5.80078">
        <ele>922.52</ele>
        <time>2012-03-22T08:34:44Z</time>
      </trkpt>
      <trkpt lat="44.39336" lon="5.80078">
        <ele>918.68</ele>
        <time>2012-03-22T08:34:45Z</time>
      </trkpt>
      <trkpt lat="44.39336" lon="5.80079">
        <ele>919.64</ele>
        <time>2012-03-22T08:34:46Z</time>
      </trkpt>
      <trkpt lat="44.39335" lon="5.80085">
        <ele>923.48</ele>
        <time>2012-03-22T08:34:51Z</time>
      </trkpt>
      <trkpt lat="44.39335" lon="5.80085">
        <ele>920.12</ele>
        <time>2012-03-22T08:34:52Z</time>
      </trkpt>
      <trkpt lat="44.39335" lon="5.80087">
        <ele>924.93</ele>
        <time>2012-03-22T08:34:54Z</time>
      </trkpt>
      <trkpt lat="44.39335" lon="5.80088">
        <ele>924.45</ele>
        <time>2012-03-22T08:34:55Z</time>
      </trkpt>
      <trkpt lat="44.39336" lon="5.80089">
        <ele>921.08</ele>
        <time>2012-03-22T08:34:56Z</time>
      </trkpt>
      <trkpt lat="44.39336" lon="5.8009">
        <ele>924.45</ele>
        <time>2012-03-22T08:34:57Z</time>
      </trkpt>
      <trkpt lat="44.39337" lon="5.80091">
        <ele>921.08</ele>
        <time>2012-03-22T08:34:58Z</time>
      </trkpt>
      <trkpt lat="44.39337" lon="5.80093">
        <ele>928.77</ele>
        <time>2012-03-22T08:35:00Z</time>
      </trkpt>
      <trkpt lat="44.39337" lon="5.80094">
        <ele>922.04</ele>
        <time>2012-03-22T08:35:01Z</time>
      </trkpt>
      <trkpt lat="44.39339" lon="5.80099">
        <ele>923.48</ele>
        <time>2012-03-22T08:35:09Z</time>
      </trkpt>
      <trkpt lat="44.39341" lon="5.80101">
        <ele>927.81</ele>
        <time>2012-03-22T08:35:12Z</time>
      </trkpt>
      <trkpt lat="44.39342" lon="5.80102">
        <ele>923.48</ele>
        <time>2012-03-22T08:35:13Z</time>
      </trkpt>
      <trkpt lat="44.39343" lon="5.80107">
        <ele>927.33</ele>
        <time>2012-03-22T08:35:17Z</time>
      </trkpt>
      <trkpt lat="44.39345" lon="5.8011">
        <ele>924.45</ele>
        <time>2012-03-22T08:35:21Z</time>
      </trkpt>
      <trkpt lat="44.39346" lon="5.80114">
        <ele>929.25</ele>
        <time>2012-03-22T08:35:25Z</time>
      </trkpt>
      <trkpt lat="44.39347" lon="5.80116">
        <ele>925.41</ele>
        <time>2012-03-22T08:35:28Z</time>
      </trkpt>
      <trkpt lat="44.39348" lon="5.80117">
        <ele>926.37</ele>
        <time>2012-03-22T08:35:29Z</time>
      </trkpt>
      <trkpt lat="44.39348" lon="5.80119">
        <ele>927.81</ele>
        <time>2012-03-22T08:35:32Z</time>
      </trkpt>
      <trkpt lat="44.3935" lon="5.80125">
        <ele>928.77</ele>
        <time>2012-03-22T08:35:39Z</time>
      </trkpt>
      <trkpt lat="44.39351" lon="5.80131">
        <ele>935.5</ele>
        <time>2012-03-22T08:35:45Z</time>
      </trkpt>
      <trkpt lat="44.39351" lon="5.80131">
        <ele>930.21</ele>
        <time>2012-03-22T08:35:46Z</time>
      </trkpt>
      <trkpt lat="44.39352" lon="5.80136">
        <ele>935.02</ele>
        <time>2012-03-22T08:35:50Z</time>
      </trkpt>
      <trkpt lat="44.39353" lon="5.80138">
        <ele>930.69</ele>
        <time>2012-03-22T08:35:52Z</time>
      </trkpt>
      <trkpt lat="44.39353" lon="5.80139">
        <ele>931.17</ele>
        <time>2012-03-22T08:35:53Z</time>
      </trkpt>
      <trkpt lat="44.39356" lon="5.80147">
        <ele>934.54</ele>
        <time>2012-03-22T08:36:00Z</time>
      </trkpt>
      <trkpt lat="44.39356" lon="5.80147">
        <ele>930.69</ele>
        <time>2012-03-22T08:36:01Z</time>
      </trkpt>
      <trkpt lat="44.39356" lon="5.80148">
        <ele>934.06</ele>
        <time>2012-03-22T08:36:02Z</time>
      </trkpt>
      <trkpt lat="44.39357" lon="5.80151">
        <ele>932.14</ele>
        <time>2012-03-22T08:36:05Z</time>
      </trkpt>
      <trkpt lat="44.39358" lon="5.80154">
        <ele>940.31</ele>
        <time>2012-03-22T08:36:09Z</time>
      </trkpt>
      <trkpt lat="44.39359" lon="5.80156">
        <ele>932.62</ele>
        <time>2012-03-22T08:36:10Z</time>
      </trkpt>
      <trkpt lat="44.39359" lon="5.80158">
        <ele>939.83</ele>
        <time>2012-03-22T08:36:12Z</time>
      </trkpt>
      <trkpt lat="44.39359" lon="5.80159">
        <ele>934.54</ele>
        <time>2012-03-22T08:36:13Z</time>
      </trkpt>
      <trkpt lat="44.3936" lon="5.80162">
        <ele>933.58</ele>
        <time>2012-03-22T08:36:15Z</time>
      </trkpt>
      <trkpt lat="44.39361" lon="5.80166">
        <ele>935.02</ele>
        <time>2012-03-22T08:36:18Z</time>
      </trkpt>
      <trkpt lat="44.39362" lon="5.80169">
        <ele>936.46</ele>
        <time>2012-03-22T08:36:23Z</time>
      </trkpt>
      <trkpt lat="44.39363" lon="5.8017">
        <ele>939.83</ele>
        <time>2012-03-22T08:36:26Z</time>
      </trkpt>
      <trkpt lat="44.39363" lon="5.80173">
        <ele>934.06</ele>
        <time>2012-03-22T08:36:28Z</time>
      </trkpt>
      <trkpt lat="44.39364" lon="5.80174">
        <ele>937.42</ele>
        <time>2012-03-22T08:36:29Z</time>
      </trkpt>
      <trkpt lat="44.39364" lon="5.80175">
        <ele>933.1</ele>
        <time>2012-03-22T08:36:30Z</time>
      </trkpt>
      <trkpt lat="44.39364" lon="5.80176">
        <ele>937.42</ele>
        <time>2012-03-22T08:36:31Z</time>
      </trkpt>
      <trkpt lat="44.39364" lon="5.80177">
        <ele>940.79</ele>
        <time>2012-03-22T08:36:32Z</time>
      </trkpt>
      <trkpt lat="44.39365" lon="5.80178">
        <ele>938.38</ele>
        <time>2012-03-22T08:36:33Z</time>
      </trkpt>
      <trkpt lat="44.39365" lon="5.80181">
        <ele>936.94</ele>
        <time>2012-03-22T08:36:36Z</time>
      </trkpt>
      <trkpt lat="44.39365" lon="5.80182">
        <ele>941.75</ele>
        <time>2012-03-22T08:36:39Z</time>
      </trkpt>
      <trkpt lat="44.39366" lon="5.80184">
        <ele>939.83</ele>
        <time>2012-03-22T08:36:40Z</time>
      </trkpt>
      <trkpt lat="44.39366" lon="5.80185">
        <ele>935.02</ele>
        <time>2012-03-22T08:36:42Z</time>
      </trkpt>
      <trkpt lat="44.39366" lon="5.80185">
        <ele>940.31</ele>
        <time>2012-03-22T08:36:43Z</time>
      </trkpt>
      <trkpt lat="44.39366" lon="5.80185">
        <ele>940.31</ele>
        <time>2012-03-22T08:36:44Z</time>
      </trkpt>
      <trkpt lat="44.39367" lon="5.80187">
        <ele>944.15</ele>
        <time>2012-03-22T08:36:46Z</time>
      </trkpt>
      <trkpt lat="44.39367" lon="5.80189">
        <ele>938.86</ele>
        <time>2012-03-22T08:36:47Z</time>
      </trkpt>
      <trkpt lat="44.39367" lon="5.8019">
        <ele>945.11</ele>
        <time>2012-03-22T08:36:48Z</time>
      </trkpt>
      <trkpt lat="44.39368" lon="5.80193">
        <ele>938.86</ele>
        <time>2012-03-22T08:36:50Z</time>
      </trkpt>
      <trkpt lat="44.39368" lon="5.80194">
        <ele>939.35</ele>
        <time>2012-03-22T08:36:51Z</time>
      </trkpt>
      <trkpt lat="44.39368" lon="5.802">
        <ele>943.67</ele>
        <time>2012-03-22T08:36:55Z</time>
      </trkpt>
      <trkpt lat="44.39369" lon="5.80201">
        <ele>939.83</ele>
        <time>2012-03-22T08:36:56Z</time>
      </trkpt>
      <trkpt lat="44.39369" lon="5.80202">
        <ele>945.11</ele>
        <time>2012-03-22T08:36:57Z</time>
      </trkpt>
      <trkpt lat="44.39369" lon="5.80203">
        <ele>945.11</ele>
        <time>2012-03-22T08:36:58Z</time>
      </trkpt>
      <trkpt lat="44.39371" lon="5.80205">
        <ele>939.35</ele>
        <time>2012-03-22T08:37:00Z</time>
      </trkpt>
      <trkpt lat="44.39371" lon="5.80205">
        <ele>943.19</ele>
        <time>2012-03-22T08:37:01Z</time>
      </trkpt>
      <trkpt lat="44.39371" lon="5.80206">
        <ele>948</ele>
        <time>2012-03-22T08:37:02Z</time>
      </trkpt>
      <trkpt lat="44.39371" lon="5.80206">
        <ele>939.83</ele>
        <time>2012-03-22T08:37:03Z</time>
      </trkpt>
      <trkpt lat="44.39373" lon="5.80213">
        <ele>943.67</ele>
        <time>2012-03-22T08:37:08Z</time>
      </trkpt>
      <trkpt lat="44.39372" lon="5.80214">
        <ele>950.4</ele>
        <time>2012-03-22T08:37:10Z</time>
      </trkpt>
      <trkpt lat="44.39372" lon="5.80214">
        <ele>944.63</ele>
        <time>2012-03-22T08:37:11Z</time>
      </trkpt>
      <trkpt lat="44.39372" lon="5.80215">
        <ele>941.27</ele>
        <time>2012-03-22T08:37:12Z</time>
      </trkpt>
      <trkpt lat="44.39372" lon="5.80215">
        <ele>943.67</ele>
        <time>2012-03-22T08:37:13Z</time>
      </trkpt>
      <trkpt lat="44.39372" lon="5.80221">
        <ele>945.59</ele>
        <time>2012-03-22T08:37:17Z</time>
      </trkpt>
      <trkpt lat="44.39373" lon="5.80223">
        <ele>943.67</ele>
        <time>2012-03-22T08:37:19Z</time>
      </trkpt>
      <trkpt lat="44.39373" lon="5.80224">
        <ele>944.63</ele>
        <time>2012-03-22T08:37:21Z</time>
      </trkpt>
      <trkpt lat="44.39373" lon="5.80238">
        <ele>947.52</ele>
        <time>2012-03-22T08:37:32Z</time>
      </trkpt>
      <trkpt lat="44.39373" lon="5.8024">
        <ele>943.67</ele>
        <time>2012-03-22T08:37:33Z</time>
      </trkpt>
      <trkpt lat="44.39373" lon="5.80241">
        <ele>944.63</ele>
        <time>2012-03-22T08:37:34Z</time>
      </trkpt>
      <trkpt lat="44.39373" lon="5.80242">
        <ele>949.92</ele>
        <time>2012-03-22T08:37:35Z</time>
      </trkpt>
      <trkpt lat="44.39373" lon="5.80244">
        <ele>945.59</ele>
        <time>2012-03-22T08:37:36Z</time>
      </trkpt>
      <trkpt lat="44.39374" lon="5.80249">
        <ele>947.52</ele>
        <time>2012-03-22T08:37:43Z</time>
      </trkpt>
      <trkpt lat="44.39375" lon="5.80254">
        <ele>948.48</ele>
        <time>2012-03-22T08:37:50Z</time>
      </trkpt>
      <trkpt lat="44.39375" lon="5.80258">
        <ele>951.84</ele>
        <time>2012-03-22T08:37:54Z</time>
      </trkpt>
      <trkpt lat="44.39376" lon="5.80264">
        <ele>948.48</ele>
        <time>2012-03-22T08:38:02Z</time>
      </trkpt>
      <trkpt lat="44.39376" lon="5.80264">
        <ele>952.8</ele>
        <time>2012-03-22T08:38:03Z</time>
      </trkpt>
      <trkpt lat="44.39375" lon="5.80275">
        <ele>953.28</ele>
        <time>2012-03-22T08:38:09Z</time>
      </trkpt>
      <trkpt lat="44.39376" lon="5.80278">
        <ele>956.65</ele>
        <time>2012-03-22T08:38:12Z</time>
      </trkpt>
      <trkpt lat="44.39376" lon="5.80279">
        <ele>953.77</ele>
        <time>2012-03-22T08:38:13Z</time>
      </trkpt>
      <trkpt lat="44.39377" lon="5.8028">
        <ele>952.8</ele>
        <time>2012-03-22T08:38:15Z</time>
      </trkpt>
      <trkpt lat="44.39377" lon="5.80285">
        <ele>954.25</ele>
        <time>2012-03-22T08:38:19Z</time>
      </trkpt>
      <trkpt lat="44.39379" lon="5.80293">
        <ele>960.49</ele>
        <time>2012-03-22T08:38:27Z</time>
      </trkpt>
      <trkpt lat="44.39379" lon="5.80293">
        <ele>953.28</ele>
        <time>2012-03-22T08:38:28Z</time>
      </trkpt>
      <trkpt lat="44.39379" lon="5.80295">
        <ele>958.09</ele>
        <time>2012-03-22T08:38:30Z</time>
      </trkpt>
      <trkpt lat="44.3938" lon="5.80297">
        <ele>956.65</ele>
        <time>2012-03-22T08:38:31Z</time>
      </trkpt>
      <trkpt lat="44.3938" lon="5.803">
        <ele>953.77</ele>
        <time>2012-03-22T08:38:34Z</time>
      </trkpt>
      <trkpt lat="44.3938" lon="5.80302">
        <ele>959.53</ele>
        <time>2012-03-22T08:38:36Z</time>
      </trkpt>
      <trkpt lat="44.3938" lon="5.80303">
        <ele>955.21</ele>
        <time>2012-03-22T08:38:37Z</time>
      </trkpt>
      <trkpt lat="44.3938" lon="5.80307">
        <ele>958.09</ele>
        <time>2012-03-22T08:38:41Z</time>
      </trkpt>
      <trkpt lat="44.39381" lon="5.80311">
        <ele>963.38</ele>
        <time>2012-03-22T08:38:45Z</time>
      </trkpt>
      <trkpt lat="44.39381" lon="5.80312">
        <ele>957.61</ele>
        <time>2012-03-22T08:38:46Z</time>
      </trkpt>
      <trkpt lat="44.39382" lon="5.80313">
        <ele>958.57</ele>
        <time>2012-03-22T08:38:47Z</time>
      </trkpt>
      <trkpt lat="44.39383" lon="5.8032">
        <ele>961.46</ele>
        <time>2012-03-22T08:38:53Z</time>
      </trkpt>
      <trkpt lat="44.39384" lon="5.80322">
        <ele>957.13</ele>
        <time>2012-03-22T08:38:56Z</time>
      </trkpt>
      <trkpt lat="44.39385" lon="5.80324">
        <ele>959.53</ele>
        <time>2012-03-22T08:38:57Z</time>
      </trkpt>
      <trkpt lat="44.39387" lon="5.80327">
        <ele>960.01</ele>
        <time>2012-03-22T08:39:02Z</time>
      </trkpt>
      <trkpt lat="44.39387" lon="5.80329">
        <ele>967.22</ele>
        <time>2012-03-22T08:39:03Z</time>
      </trkpt>
      <trkpt lat="44.39387" lon="5.80329">
        <ele>960.98</ele>
        <time>2012-03-22T08:39:04Z</time>
      </trkpt>
      <trkpt lat="44.39387" lon="5.8033">
        <ele>967.7</ele>
        <time>2012-03-22T08:39:05Z</time>
      </trkpt>
      <trkpt lat="44.39388" lon="5.80331">
        <ele>962.9</ele>
        <time>2012-03-22T08:39:06Z</time>
      </trkpt>
      <trkpt lat="44.39388" lon="5.80333">
        <ele>961.94</ele>
        <time>2012-03-22T08:39:08Z</time>
      </trkpt>
      <trkpt lat="44.39388" lon="5.80338">
        <ele>965.3</ele>
        <time>2012-03-22T08:39:17Z</time>
      </trkpt>
      <trkpt lat="44.39389" lon="5.80341">
        <ele>960.98</ele>
        <time>2012-03-22T08:39:19Z</time>
      </trkpt>
      <trkpt lat="44.39389" lon="5.80342">
        <ele>961.46</ele>
        <time>2012-03-22T08:39:20Z</time>
      </trkpt>
      <trkpt lat="44.3939" lon="5.80344">
        <ele>968.67</ele>
        <time>2012-03-22T08:39:21Z</time>
      </trkpt>
      <trkpt lat="44.3939" lon="5.80344">
        <ele>962.9</ele>
        <time>2012-03-22T08:39:22Z</time>
      </trkpt>
      <trkpt lat="44.3939" lon="5.80344">
        <ele>966.26</ele>
        <time>2012-03-22T08:39:23Z</time>
      </trkpt>
      <trkpt lat="44.3939" lon="5.80346">
        <ele>962.42</ele>
        <time>2012-03-22T08:39:26Z</time>
      </trkpt>
      <trkpt lat="44.3939" lon="5.80347">
        <ele>966.26</ele>
        <time>2012-03-22T08:39:27Z</time>
      </trkpt>
      <trkpt lat="44.3939" lon="5.80349">
        <ele>970.59</ele>
        <time>2012-03-22T08:39:30Z</time>
      </trkpt>
      <trkpt lat="44.3939" lon="5.8035">
        <ele>968.18</ele>
        <time>2012-03-22T08:39:31Z</time>
      </trkpt>
      <trkpt lat="44.39391" lon="5.80354">
        <ele>965.3</ele>
        <time>2012-03-22T08:39:33Z</time>
      </trkpt>
      <trkpt lat="44.39391" lon="5.80354">
        <ele>965.3</ele>
        <time>2012-03-22T08:39:34Z</time>
      </trkpt>
      <trkpt lat="44.39392" lon="5.80359">
        <ele>969.63</ele>
        <time>2012-03-22T08:39:39Z</time>
      </trkpt>
      <trkpt lat="44.39392" lon="5.80361">
        <ele>967.22</ele>
        <time>2012-03-22T08:39:40Z</time>
      </trkpt>
      <trkpt lat="44.39392" lon="5.80364">
        <ele>962.9</ele>
        <time>2012-03-22T08:39:43Z</time>
      </trkpt>
      <trkpt lat="44.39393" lon="5.80366">
        <ele>964.34</ele>
        <time>2012-03-22T08:39:44Z</time>
      </trkpt>
      <trkpt lat="44.39393" lon="5.80367">
        <ele>970.11</ele>
        <time>2012-03-22T08:39:45Z</time>
      </trkpt>
      <trkpt lat="44.39394" lon="5.80369">
        <ele>968.18</ele>
        <time>2012-03-22T08:39:46Z</time>
      </trkpt>
      <trkpt lat="44.39394" lon="5.80371">
        <ele>972.51</ele>
        <time>2012-03-22T08:39:48Z</time>
      </trkpt>
      <trkpt lat="44.39394" lon="5.80372">
        <ele>968.67</ele>
        <time>2012-03-22T08:39:49Z</time>
      </trkpt>
      <trkpt lat="44.39395" lon="5.80374">
        <ele>970.11</ele>
        <time>2012-03-22T08:39:51Z</time>
      </trkpt>
      <trkpt lat="44.39395" lon="5.80375">
        <ele>970.11</ele>
        <time>2012-03-22T08:39:53Z</time>
      </trkpt>
      <trkpt lat="44.39396" lon="5.80377">
        <ele>973.95</ele>
        <time>2012-03-22T08:39:54Z</time>
      </trkpt>
      <trkpt lat="44.39396" lon="5.80378">
        <ele>968.67</ele>
        <time>2012-03-22T08:39:55Z</time>
      </trkpt>
      <trkpt lat="44.39399" lon="5.80385">
        <ele>973.47</ele>
        <time>2012-03-22T08:40:03Z</time>
      </trkpt>
      <trkpt lat="44.39399" lon="5.80385">
        <ele>968.67</ele>
        <time>2012-03-22T08:40:04Z</time>
      </trkpt>
      <trkpt lat="44.39399" lon="5.80385">
        <ele>976.84</ele>
        <time>2012-03-22T08:40:05Z</time>
      </trkpt>
      <trkpt lat="44.39399" lon="5.80386">
        <ele>970.11</ele>
        <time>2012-03-22T08:40:06Z</time>
      </trkpt>
      <trkpt lat="44.39403" lon="5.80394">
        <ele>970.11</ele>
        <time>2012-03-22T08:40:15Z</time>
      </trkpt>
      <trkpt lat="44.39403" lon="5.80394">
        <ele>975.39</ele>
        <time>2012-03-22T08:40:16Z</time>
      </trkpt>
      <trkpt lat="44.39403" lon="5.80394">
        <ele>975.39</ele>
        <time>2012-03-22T08:40:17Z</time>
      </trkpt>
      <trkpt lat="44.39403" lon="5.80398">
        <ele>972.51</ele>
        <time>2012-03-22T08:40:23Z</time>
      </trkpt>
      <trkpt lat="44.39404" lon="5.80402">
        <ele>977.32</ele>
        <time>2012-03-22T08:40:26Z</time>
      </trkpt>
      <trkpt lat="44.39404" lon="5.80402">
        <ele>972.51</ele>
        <time>2012-03-22T08:40:27Z</time>
      </trkpt>
      <trkpt lat="44.39404" lon="5.80402">
        <ele>976.36</ele>
        <time>2012-03-22T08:40:29Z</time>
      </trkpt>
      <trkpt lat="44.39404" lon="5.80409">
        <ele>972.03</ele>
        <time>2012-03-22T08:40:34Z</time>
      </trkpt>
      <trkpt lat="44.39404" lon="5.80409">
        <ele>975.88</ele>
        <time>2012-03-22T08:40:35Z</time>
      </trkpt>
      <trkpt lat="44.39404" lon="5.80412">
        <ele>980.2</ele>
        <time>2012-03-22T08:40:45Z</time>
      </trkpt>
      <trkpt lat="44.39404" lon="5.80412">
        <ele>974.91</ele>
        <time>2012-03-22T08:40:46Z</time>
      </trkpt>
      <trkpt lat="44.39404" lon="5.80412">
        <ele>974.91</ele>
        <time>2012-03-22T08:40:47Z</time>
      </trkpt>
      <trkpt lat="44.39404" lon="5.80413">
        <ele>979.72</ele>
        <time>2012-03-22T08:40:48Z</time>
      </trkpt>
      <trkpt lat="44.39404" lon="5.80415">
        <ele>976.36</ele>
        <time>2012-03-22T08:40:49Z</time>
      </trkpt>
      <trkpt lat="44.39404" lon="5.80416">
        <ele>980.68</ele>
        <time>2012-03-22T08:40:50Z</time>
      </trkpt>
      <trkpt lat="44.39405" lon="5.80418">
        <ele>974.43</ele>
        <time>2012-03-22T08:40:51Z</time>
      </trkpt>
      <trkpt lat="44.39405" lon="5.8042">
        <ele>978.76</ele>
        <time>2012-03-22T08:40:52Z</time>
      </trkpt>
      <trkpt lat="44.39405" lon="5.80421">
        <ele>983.09</ele>
        <time>2012-03-22T08:40:53Z</time>
      </trkpt>
      <trkpt lat="44.39405" lon="5.80423">
        <ele>976.36</ele>
        <time>2012-03-22T08:40:54Z</time>
      </trkpt>
      <trkpt lat="44.39405" lon="5.80427">
        <ele>977.32</ele>
        <time>2012-03-22T08:40:58Z</time>
      </trkpt>
      <trkpt lat="44.39407" lon="5.80438">
        <ele>978.76</ele>
        <time>2012-03-22T08:41:10Z</time>
      </trkpt>
      <trkpt lat="44.39407" lon="5.8044">
        <ele>978.76</ele>
        <time>2012-03-22T08:41:11Z</time>
      </trkpt>
      <trkpt lat="44.39406" lon="5.80443">
        <ele>984.05</ele>
        <time>2012-03-22T08:41:14Z</time>
      </trkpt>
      <trkpt lat="44.39407" lon="5.80444">
        <ele>979.24</ele>
        <time>2012-03-22T08:41:15Z</time>
      </trkpt>
      <trkpt lat="44.39407" lon="5.80447">
        <ele>976.36</ele>
        <time>2012-03-22T08:41:18Z</time>
      </trkpt>
      <trkpt lat="44.39407" lon="5.80448">
        <ele>976.84</ele>
        <time>2012-03-22T08:41:19Z</time>
      </trkpt>
      <trkpt lat="44.39407" lon="5.8045">
        <ele>984.53</ele>
        <time>2012-03-22T08:41:20Z</time>
      </trkpt>
      <trkpt lat="44.39407" lon="5.80451">
        <ele>978.28</ele>
        <time>2012-03-22T08:41:21Z</time>
      </trkpt>
      <trkpt lat="44.39407" lon="5.80453">
        <ele>981.64</ele>
        <time>2012-03-22T08:41:23Z</time>
      </trkpt>
      <trkpt lat="44.39407" lon="5.80454">
        <ele>978.76</ele>
        <time>2012-03-22T08:41:24Z</time>
      </trkpt>
      <trkpt lat="44.39407" lon="5.80455">
        <ele>978.76</ele>
        <time>2012-03-22T08:41:25Z</time>
      </trkpt>
      <trkpt lat="44.39407" lon="5.80456">
        <ele>984.53</ele>
        <time>2012-03-22T08:41:26Z</time>
      </trkpt>
      <trkpt lat="44.39408" lon="5.80458">
        <ele>982.12</ele>
        <time>2012-03-22T08:41:27Z</time>
      </trkpt>
      <trkpt lat="44.39407" lon="5.80461">
        <ele>985.01</ele>
        <time>2012-03-22T08:41:30Z</time>
      </trkpt>
      <trkpt lat="44.39407" lon="5.80463">
        <ele>982.12</ele>
        <time>2012-03-22T08:41:31Z</time>
      </trkpt>
      <trkpt lat="44.39407" lon="5.80464">
        <ele>981.64</ele>
        <time>2012-03-22T08:41:32Z</time>
      </trkpt>
      <trkpt lat="44.39408" lon="5.80467">
        <ele>984.05</ele>
        <time>2012-03-22T08:41:36Z</time>
      </trkpt>
      <trkpt lat="44.39408" lon="5.80469">
        <ele>979.72</ele>
        <time>2012-03-22T08:41:38Z</time>
      </trkpt>
      <trkpt lat="44.39408" lon="5.8047">
        <ele>983.57</ele>
        <time>2012-03-22T08:41:39Z</time>
      </trkpt>
      <trkpt lat="44.39408" lon="5.80471">
        <ele>987.89</ele>
        <time>2012-03-22T08:41:40Z</time>
      </trkpt>
      <trkpt lat="44.39409" lon="5.80472">
        <ele>983.09</ele>
        <time>2012-03-22T08:41:41Z</time>
      </trkpt>
      <trkpt lat="44.39409" lon="5.80473">
        <ele>987.41</ele>
        <time>2012-03-22T08:41:42Z</time>
      </trkpt>
      <trkpt lat="44.39409" lon="5.80474">
        <ele>984.05</ele>
        <time>2012-03-22T08:41:43Z</time>
      </trkpt>
      <trkpt lat="44.39411" lon="5.80479">
        <ele>991.26</ele>
        <time>2012-03-22T08:41:51Z</time>
      </trkpt>
      <trkpt lat="44.39412" lon="5.80481">
        <ele>985.49</ele>
        <time>2012-03-22T08:41:52Z</time>
      </trkpt>
      <trkpt lat="44.39413" lon="5.80489">
        <ele>990.3</ele>
        <time>2012-03-22T08:42:00Z</time>
      </trkpt>
      <trkpt lat="44.39413" lon="5.80491">
        <ele>984.53</ele>
        <time>2012-03-22T08:42:02Z</time>
      </trkpt>
      <trkpt lat="44.39414" lon="5.80493">
        <ele>987.89</ele>
        <time>2012-03-22T08:42:03Z</time>
      </trkpt>
      <trkpt lat="44.39416" lon="5.805">
        <ele>992.22</ele>
        <time>2012-03-22T08:42:10Z</time>
      </trkpt>
      <trkpt lat="44.39416" lon="5.80501">
        <ele>988.85</ele>
        <time>2012-03-22T08:42:11Z</time>
      </trkpt>
      <trkpt lat="44.39417" lon="5.80504">
        <ele>996.06</ele>
        <time>2012-03-22T08:42:14Z</time>
      </trkpt>
      <trkpt lat="44.39417" lon="5.80505">
        <ele>990.3</ele>
        <time>2012-03-22T08:42:15Z</time>
      </trkpt>
      <trkpt lat="44.39418" lon="5.80507">
        <ele>986.93</ele>
        <time>2012-03-22T08:42:18Z</time>
      </trkpt>
      <trkpt lat="44.39418" lon="5.80509">
        <ele>989.81</ele>
        <time>2012-03-22T08:42:20Z</time>
      </trkpt>
      <trkpt lat="44.39418" lon="5.80511">
        <ele>987.89</ele>
        <time>2012-03-22T08:42:22Z</time>
      </trkpt>
      <trkpt lat="44.39418" lon="5.80513">
        <ele>995.1</ele>
        <time>2012-03-22T08:42:25Z</time>
      </trkpt>
      <trkpt lat="44.39419" lon="5.80513">
        <ele>989.81</ele>
        <time>2012-03-22T08:42:26Z</time>
      </trkpt>
      <trkpt lat="44.39419" lon="5.80521">
        <ele>993.18</ele>
        <time>2012-03-22T08:42:36Z</time>
      </trkpt>
      <trkpt lat="44.3942" lon="5.80525">
        <ele>990.78</ele>
        <time>2012-03-22T08:42:39Z</time>
      </trkpt>
      <trkpt lat="44.3942" lon="5.80529">
        <ele>992.22</ele>
        <time>2012-03-22T08:42:41Z</time>
      </trkpt>
      <trkpt lat="44.3942" lon="5.8053">
        <ele>997.51</ele>
        <time>2012-03-22T08:42:42Z</time>
      </trkpt>
      <trkpt lat="44.3942" lon="5.8053">
        <ele>991.74</ele>
        <time>2012-03-22T08:42:43Z</time>
      </trkpt>
      <trkpt lat="44.39421" lon="5.80531">
        <ele>997.02</ele>
        <time>2012-03-22T08:42:44Z</time>
      </trkpt>
      <trkpt lat="44.39421" lon="5.80533">
        <ele>991.74</ele>
        <time>2012-03-22T08:42:47Z</time>
      </trkpt>
      <trkpt lat="44.39421" lon="5.80538">
        <ele>994.62</ele>
        <time>2012-03-22T08:42:51Z</time>
      </trkpt>
      <trkpt lat="44.39422" lon="5.80544">
        <ele>999.43</ele>
        <time>2012-03-22T08:42:58Z</time>
      </trkpt>
      <trkpt lat="44.39423" lon="5.80547">
        <ele>995.1</ele>
        <time>2012-03-22T08:43:00Z</time>
      </trkpt>
      <trkpt lat="44.39423" lon="5.80548">
        <ele>995.58</ele>
        <time>2012-03-22T08:43:01Z</time>
      </trkpt>
      <trkpt lat="44.39423" lon="5.80556">
        <ele>997.02</ele>
        <time>2012-03-22T08:43:11Z</time>
      </trkpt>
      <trkpt lat="44.39422" lon="5.80559">
        <ele>998.95</ele>
        <time>2012-03-22T08:43:14Z</time>
      </trkpt>
      <trkpt lat="44.39422" lon="5.80559">
        <ele>1002.31</ele>
        <time>2012-03-22T08:43:16Z</time>
      </trkpt>
      <trkpt lat="44.39422" lon="5.80559">
        <ele>1000.39</ele>
        <time>2012-03-22T08:43:17Z</time>
      </trkpt>
      <trkpt lat="44.39422" lon="5.8056">
        <ele>996.54</ele>
        <time>2012-03-22T08:43:18Z</time>
      </trkpt>
      <trkpt lat="44.39423" lon="5.80561">
        <ele>997.51</ele>
        <time>2012-03-22T08:43:19Z</time>
      </trkpt>
      <trkpt lat="44.39423" lon="5.80562">
        <ele>1004.72</ele>
        <time>2012-03-22T08:43:20Z</time>
      </trkpt>
      <trkpt lat="44.39423" lon="5.80563">
        <ele>997.51</ele>
        <time>2012-03-22T08:43:21Z</time>
      </trkpt>
      <trkpt lat="44.39424" lon="5.80565">
        <ele>1003.75</ele>
        <time>2012-03-22T08:43:23Z</time>
      </trkpt>
      <trkpt lat="44.39424" lon="5.80566">
        <ele>998.95</ele>
        <time>2012-03-22T08:43:24Z</time>
      </trkpt>
      <trkpt lat="44.39424" lon="5.80567">
        <ele>1001.83</ele>
        <time>2012-03-22T08:43:25Z</time>
      </trkpt>
      <trkpt lat="44.39425" lon="5.80571">
        <ele>1006.16</ele>
        <time>2012-03-22T08:43:28Z</time>
      </trkpt>
      <trkpt lat="44.39425" lon="5.80573">
        <ele>1000.39</ele>
        <time>2012-03-22T08:43:29Z</time>
      </trkpt>
      <trkpt lat="44.39425" lon="5.80576">
        <ele>1004.23</ele>
        <time>2012-03-22T08:43:31Z</time>
      </trkpt>
      <trkpt lat="44.39425" lon="5.80577">
        <ele>999.91</ele>
        <time>2012-03-22T08:43:32Z</time>
      </trkpt>
      <trkpt lat="44.39425" lon="5.8058">
        <ele>1004.72</ele>
        <time>2012-03-22T08:43:34Z</time>
      </trkpt>
      <trkpt lat="44.39425" lon="5.80582">
        <ele>997.99</ele>
        <time>2012-03-22T08:43:35Z</time>
      </trkpt>
      <trkpt lat="44.39425" lon="5.80583">
        <ele>998.47</ele>
        <time>2012-03-22T08:43:36Z</time>
      </trkpt>
      <trkpt lat="44.39425" lon="5.80584">
        <ele>1004.23</ele>
        <time>2012-03-22T08:43:37Z</time>
      </trkpt>
      <trkpt lat="44.39425" lon="5.80585">
        <ele>1000.87</ele>
        <time>2012-03-22T08:43:38Z</time>
      </trkpt>
      <trkpt lat="44.39425" lon="5.80586">
        <ele>997.51</ele>
        <time>2012-03-22T08:43:39Z</time>
      </trkpt>
      <trkpt lat="44.39425" lon="5.80586">
        <ele>1002.31</ele>
        <time>2012-03-22T08:43:40Z</time>
      </trkpt>
      <trkpt lat="44.39426" lon="5.80589">
        <ele>1006.16</ele>
        <time>2012-03-22T08:43:43Z</time>
      </trkpt>
      <trkpt lat="44.39426" lon="5.8059">
        <ele>1002.31</ele>
        <time>2012-03-22T08:43:44Z</time>
      </trkpt>
      <trkpt lat="44.39427" lon="5.80591">
        <ele>999.43</ele>
        <time>2012-03-22T08:43:47Z</time>
      </trkpt>
      <trkpt lat="44.39427" lon="5.80592">
        <ele>999.43</ele>
        <time>2012-03-22T08:43:48Z</time>
      </trkpt>
      <trkpt lat="44.39427" lon="5.80594">
        <ele>1008.56</ele>
        <time>2012-03-22T08:43:51Z</time>
      </trkpt>
      <trkpt lat="44.39427" lon="5.80594">
        <ele>1009.04</ele>
        <time>2012-03-22T08:43:52Z</time>
      </trkpt>
      <trkpt lat="44.39427" lon="5.80595">
        <ele>1003.27</ele>
        <time>2012-03-22T08:43:53Z</time>
      </trkpt>
      <trkpt lat="44.39427" lon="5.80595">
        <ele>1003.27</ele>
        <time>2012-03-22T08:43:54Z</time>
      </trkpt>
      <trkpt lat="44.39429" lon="5.80602">
        <ele>1007.12</ele>
        <time>2012-03-22T08:44:01Z</time>
      </trkpt>
      <trkpt lat="44.39429" lon="5.80604">
        <ele>1005.68</ele>
        <time>2012-03-22T08:44:02Z</time>
      </trkpt>
      <trkpt lat="44.39428" lon="5.80607">
        <ele>1005.2</ele>
        <time>2012-03-22T08:44:04Z</time>
      </trkpt>
      <trkpt lat="44.39428" lon="5.80614">
        <ele>1004.23</ele>
        <time>2012-03-22T08:44:09Z</time>
      </trkpt>
      <trkpt lat="44.39429" lon="5.80615">
        <ele>1010.48</ele>
        <time>2012-03-22T08:44:10Z</time>
      </trkpt>
      <trkpt lat="44.39429" lon="5.80616">
        <ele>1005.68</ele>
        <time>2012-03-22T08:44:11Z</time>
      </trkpt>
      <trkpt lat="44.39428" lon="5.80622">
        <ele>1009.04</ele>
        <time>2012-03-22T08:44:19Z</time>
      </trkpt>
      <trkpt lat="44.39428" lon="5.80623">
        <ele>1004.72</ele>
        <time>2012-03-22T08:44:20Z</time>
      </trkpt>
      <trkpt lat="44.39428" lon="5.80625">
        <ele>1009.52</ele>
        <time>2012-03-22T08:44:22Z</time>
      </trkpt>
      <trkpt lat="44.39428" lon="5.80626">
        <ele>1006.16</ele>
        <time>2012-03-22T08:44:23Z</time>
      </trkpt>
      <trkpt lat="44.39428" lon="5.80631">
        <ele>1009.52</ele>
        <time>2012-03-22T08:44:28Z</time>
      </trkpt>
      <trkpt lat="44.39428" lon="5.80631">
        <ele>1005.2</ele>
        <time>2012-03-22T08:44:29Z</time>
      </trkpt>
      <trkpt lat="44.39429" lon="5.80633">
        <ele>1008.56</ele>
        <time>2012-03-22T08:44:31Z</time>
      </trkpt>
      <trkpt lat="44.39429" lon="5.80634">
        <ele>1014.33</ele>
        <time>2012-03-22T08:44:37Z</time>
      </trkpt>
      <trkpt lat="44.39429" lon="5.80636">
        <ele>1007.12</ele>
        <time>2012-03-22T08:44:38Z</time>
      </trkpt>
      <trkpt lat="44.3943" lon="5.80637">
        <ele>1010.96</ele>
        <time>2012-03-22T08:44:39Z</time>
      </trkpt>
      <trkpt lat="44.3943" lon="5.80645">
        <ele>1007.12</ele>
        <time>2012-03-22T08:44:44Z</time>
      </trkpt>
      <trkpt lat="44.3943" lon="5.80647">
        <ele>1015.29</ele>
        <time>2012-03-22T08:44:46Z</time>
      </trkpt>
      <trkpt lat="44.39431" lon="5.80648">
        <ele>1008.08</ele>
        <time>2012-03-22T08:44:47Z</time>
      </trkpt>
      <trkpt lat="44.39431" lon="5.80649">
        <ele>1017.21</ele>
        <time>2012-03-22T08:44:48Z</time>
      </trkpt>
      <trkpt lat="44.39431" lon="5.80651">
        <ele>1009.04</ele>
        <time>2012-03-22T08:44:49Z</time>
      </trkpt>
      <trkpt lat="44.39431" lon="5.80653">
        <ele>1014.81</ele>
        <time>2012-03-22T08:44:51Z</time>
      </trkpt>
      <trkpt lat="44.39431" lon="5.80654">
        <ele>1012.41</ele>
        <time>2012-03-22T08:44:52Z</time>
      </trkpt>
      <trkpt lat="44.39433" lon="5.80659">
        <ele>1011.44</ele>
        <time>2012-03-22T08:44:57Z</time>
      </trkpt>
      <trkpt lat="44.39434" lon="5.80661">
        <ele>1016.25</ele>
        <time>2012-03-22T08:45:00Z</time>
      </trkpt>
      <trkpt lat="44.39434" lon="5.80662">
        <ele>1011.93</ele>
        <time>2012-03-22T08:45:01Z</time>
      </trkpt>
      <trkpt lat="44.39435" lon="5.80664">
        <ele>1018.65</ele>
        <time>2012-03-22T08:45:03Z</time>
      </trkpt>
      <trkpt lat="44.39435" lon="5.80664">
        <ele>1013.85</ele>
        <time>2012-03-22T08:45:04Z</time>
      </trkpt>
      <trkpt lat="44.39435" lon="5.80667">
        <ele>1012.89</ele>
        <time>2012-03-22T08:45:06Z</time>
      </trkpt>
      <trkpt lat="44.39435" lon="5.8067">
        <ele>1016.25</ele>
        <time>2012-03-22T08:45:09Z</time>
      </trkpt>
      <trkpt lat="44.39435" lon="5.80671">
        <ele>1012.89</ele>
        <time>2012-03-22T08:45:10Z</time>
      </trkpt>
      <trkpt lat="44.39435" lon="5.80672">
        <ele>1018.65</ele>
        <time>2012-03-22T08:45:12Z</time>
      </trkpt>
      <trkpt lat="44.39435" lon="5.80672">
        <ele>1013.85</ele>
        <time>2012-03-22T08:45:13Z</time>
      </trkpt>
      <trkpt lat="44.39435" lon="5.80676">
        <ele>1010</ele>
        <time>2012-03-22T08:45:16Z</time>
      </trkpt>
      <trkpt lat="44.39435" lon="5.80679">
        <ele>1018.17</ele>
        <time>2012-03-22T08:45:18Z</time>
      </trkpt>
      <trkpt lat="44.39435" lon="5.8068">
        <ele>1016.25</ele>
        <time>2012-03-22T08:45:19Z</time>
      </trkpt>
      <trkpt lat="44.39436" lon="5.80685">
        <ele>1012.89</ele>
        <time>2012-03-22T08:45:23Z</time>
      </trkpt>
      <trkpt lat="44.39436" lon="5.80686">
        <ele>1014.81</ele>
        <time>2012-03-22T08:45:24Z</time>
      </trkpt>
      <trkpt lat="44.39437" lon="5.80691">
        <ele>1016.25</ele>
        <time>2012-03-22T08:45:28Z</time>
      </trkpt>
      <trkpt lat="44.39437" lon="5.80693">
        <ele>1012.89</ele>
        <time>2012-03-22T08:45:31Z</time>
      </trkpt>
      <trkpt lat="44.39437" lon="5.80694">
        <ele>1019.62</ele>
        <time>2012-03-22T08:45:32Z</time>
      </trkpt>
      <trkpt lat="44.39437" lon="5.80694">
        <ele>1022.98</ele>
        <time>2012-03-22T08:45:33Z</time>
      </trkpt>
      <trkpt lat="44.39437" lon="5.80696">
        <ele>1017.69</ele>
        <time>2012-03-22T08:45:34Z</time>
      </trkpt>
      <trkpt lat="44.39437" lon="5.80698">
        <ele>1020.58</ele>
        <time>2012-03-22T08:45:36Z</time>
      </trkpt>
      <trkpt lat="44.39438" lon="5.80699">
        <ele>1016.73</ele>
        <time>2012-03-22T08:45:38Z</time>
      </trkpt>
      <trkpt lat="44.39438" lon="5.80699">
        <ele>1017.21</ele>
        <time>2012-03-22T08:45:39Z</time>
      </trkpt>
      <trkpt lat="44.39437" lon="5.80703">
        <ele>1021.54</ele>
        <time>2012-03-22T08:45:42Z</time>
      </trkpt>
      <trkpt lat="44.39437" lon="5.80705">
        <ele>1016.73</ele>
        <time>2012-03-22T08:45:43Z</time>
      </trkpt>
      <trkpt lat="44.39437" lon="5.80708">
        <ele>1022.5</ele>
        <time>2012-03-22T08:45:45Z</time>
      </trkpt>
      <trkpt lat="44.39438" lon="5.80709">
        <ele>1019.13</ele>
        <time>2012-03-22T08:45:46Z</time>
      </trkpt>
      <trkpt lat="44.39438" lon="5.80711">
        <ele>1024.42</ele>
        <time>2012-03-22T08:45:48Z</time>
      </trkpt>
      <trkpt lat="44.39438" lon="5.80712">
        <ele>1021.06</ele>
        <time>2012-03-22T08:45:49Z</time>
      </trkpt>
      <trkpt lat="44.39439" lon="5.80719">
        <ele>1026.34</ele>
        <time>2012-03-22T08:45:57Z</time>
      </trkpt>
      <trkpt lat="44.39439" lon="5.80719">
        <ele>1022.5</ele>
        <time>2012-03-22T08:45:58Z</time>
      </trkpt>
      <trkpt lat="44.39439" lon="5.8072">
        <ele>1025.86</ele>
        <time>2012-03-22T08:45:59Z</time>
      </trkpt>
      <trkpt lat="44.39439" lon="5.80722">
        <ele>1022.5</ele>
        <time>2012-03-22T08:46:00Z</time>
      </trkpt>
      <trkpt lat="44.39439" lon="5.80726">
        <ele>1018.65</ele>
        <time>2012-03-22T08:46:04Z</time>
      </trkpt>
      <trkpt lat="44.39439" lon="5.80726">
        <ele>1022.02</ele>
        <time>2012-03-22T08:46:05Z</time>
      </trkpt>
      <trkpt lat="44.39439" lon="5.80729">
        <ele>1025.38</ele>
        <time>2012-03-22T08:46:08Z</time>
      </trkpt>
      <trkpt lat="44.39439" lon="5.80729">
        <ele>1022.02</ele>
        <time>2012-03-22T08:46:09Z</time>
      </trkpt>
      <trkpt lat="44.39439" lon="5.80729">
        <ele>1028.27</ele>
        <time>2012-03-22T08:46:11Z</time>
      </trkpt>
      <trkpt lat="44.3944" lon="5.8073">
        <ele>1023.46</ele>
        <time>2012-03-22T08:46:12Z</time>
      </trkpt>
      <trkpt lat="44.3944" lon="5.80731">
        <ele>1030.67</ele>
        <time>2012-03-22T08:46:14Z</time>
      </trkpt>
      <trkpt lat="44.3944" lon="5.80732">
        <ele>1022.98</ele>
        <time>2012-03-22T08:46:15Z</time>
      </trkpt>
      <trkpt lat="44.3944" lon="5.80736">
        <ele>1014.81</ele>
        <time>2012-03-22T08:46:18Z</time>
      </trkpt>
      <trkpt lat="44.3944" lon="5.80737">
        <ele>1024.42</ele>
        <time>2012-03-22T08:46:19Z</time>
      </trkpt>
      <trkpt lat="44.39443" lon="5.80751">
        <ele>1026.83</ele>
        <time>2012-03-22T08:46:31Z</time>
      </trkpt>
      <trkpt lat="44.39443" lon="5.80751">
        <ele>1023.94</ele>
        <time>2012-03-22T08:46:32Z</time>
      </trkpt>
      <trkpt lat="44.39443" lon="5.80752">
        <ele>1024.42</ele>
        <time>2012-03-22T08:46:33Z</time>
      </trkpt>
      <trkpt lat="44.39444" lon="5.80755">
        <ele>1027.31</ele>
        <time>2012-03-22T08:46:36Z</time>
      </trkpt>
      <trkpt lat="44.39444" lon="5.80756">
        <ele>1026.83</ele>
        <time>2012-03-22T08:46:37Z</time>
      </trkpt>
      <trkpt lat="44.39444" lon="5.80769">
        <ele>1027.79</ele>
        <time>2012-03-22T08:46:49Z</time>
      </trkpt>
      <trkpt lat="44.39444" lon="5.80772">
        <ele>1028.75</ele>
        <time>2012-03-22T08:47:02Z</time>
      </trkpt>
      <trkpt lat="44.39444" lon="5.80776">
        <ele>1029.71</ele>
        <time>2012-03-22T08:47:13Z</time>
      </trkpt>
      <trkpt lat="44.39444" lon="5.80781">
        <ele>1028.27</ele>
        <time>2012-03-22T08:47:17Z</time>
      </trkpt>
      <trkpt lat="44.39444" lon="5.80786">
        <ele>1032.59</ele>
        <time>2012-03-22T08:47:21Z</time>
      </trkpt>
      <trkpt lat="44.39444" lon="5.80786">
        <ele>1029.23</ele>
        <time>2012-03-22T08:47:22Z</time>
      </trkpt>
      <trkpt lat="44.39444" lon="5.80788">
        <ele>1033.55</ele>
        <time>2012-03-22T08:47:27Z</time>
      </trkpt>
      <trkpt lat="44.39444" lon="5.80797">
        <ele>1029.71</ele>
        <time>2012-03-22T08:47:34Z</time>
      </trkpt>
      <trkpt lat="44.39444" lon="5.80797">
        <ele>1035.96</ele>
        <time>2012-03-22T08:47:35Z</time>
      </trkpt>
      <trkpt lat="44.39444" lon="5.80798">
        <ele>1034.52</ele>
        <time>2012-03-22T08:47:36Z</time>
      </trkpt>
      <trkpt lat="44.39444" lon="5.80801">
        <ele>1031.15</ele>
        <time>2012-03-22T08:47:40Z</time>
      </trkpt>
      <trkpt lat="44.39444" lon="5.80804">
        <ele>1035</ele>
        <time>2012-03-22T08:47:45Z</time>
      </trkpt>
      <trkpt lat="44.39444" lon="5.80808">
        <ele>1031.15</ele>
        <time>2012-03-22T08:47:47Z</time>
      </trkpt>
      <trkpt lat="44.39444" lon="5.8081">
        <ele>1036.44</ele>
        <time>2012-03-22T08:47:50Z</time>
      </trkpt>
      <trkpt lat="44.39444" lon="5.80811">
        <ele>1039.32</ele>
        <time>2012-03-22T08:47:51Z</time>
      </trkpt>
      <trkpt lat="44.39445" lon="5.80812">
        <ele>1036.44</ele>
        <time>2012-03-22T08:47:52Z</time>
      </trkpt>
      <trkpt lat="44.39445" lon="5.80818">
        <ele>1033.07</ele>
        <time>2012-03-22T08:47:56Z</time>
      </trkpt>
      <trkpt lat="44.39445" lon="5.80819">
        <ele>1040.28</ele>
        <time>2012-03-22T08:47:57Z</time>
      </trkpt>
      <trkpt lat="44.39445" lon="5.8082">
        <ele>1036.44</ele>
        <time>2012-03-22T08:47:58Z</time>
      </trkpt>
      <trkpt lat="44.39445" lon="5.80822">
        <ele>1032.59</ele>
        <time>2012-03-22T08:47:59Z</time>
      </trkpt>
      <trkpt lat="44.39445" lon="5.80823">
        <ele>1035.48</ele>
        <time>2012-03-22T08:48:00Z</time>
      </trkpt>
      <trkpt lat="44.39446" lon="5.80824">
        <ele>1040.76</ele>
        <time>2012-03-22T08:48:01Z</time>
      </trkpt>
      <trkpt lat="44.39446" lon="5.80825">
        <ele>1035.96</ele>
        <time>2012-03-22T08:48:02Z</time>
      </trkpt>
      <trkpt lat="44.39447" lon="5.80829">
        <ele>1040.76</ele>
        <time>2012-03-22T08:48:06Z</time>
      </trkpt>
      <trkpt lat="44.39447" lon="5.8083">
        <ele>1039.32</ele>
        <time>2012-03-22T08:48:07Z</time>
      </trkpt>
      <trkpt lat="44.39447" lon="5.80833">
        <ele>1035.48</ele>
        <time>2012-03-22T08:48:10Z</time>
      </trkpt>
      <trkpt lat="44.39448" lon="5.80837">
        <ele>1039.8</ele>
        <time>2012-03-22T08:48:16Z</time>
      </trkpt>
      <trkpt lat="44.39448" lon="5.80838">
        <ele>1035.96</ele>
        <time>2012-03-22T08:48:18Z</time>
      </trkpt>
      <trkpt lat="44.39448" lon="5.80839">
        <ele>1041.25</ele>
        <time>2012-03-22T08:48:19Z</time>
      </trkpt>
      <trkpt lat="44.39449" lon="5.80845">
        <ele>1036.92</ele>
        <time>2012-03-22T08:48:24Z</time>
      </trkpt>
      <trkpt lat="44.39449" lon="5.80851">
        <ele>1040.28</ele>
        <time>2012-03-22T08:48:28Z</time>
      </trkpt>
      <trkpt lat="44.3945" lon="5.80857">
        <ele>1036.92</ele>
        <time>2012-03-22T08:48:33Z</time>
      </trkpt>
      <trkpt lat="44.3945" lon="5.80858">
        <ele>1041.73</ele>
        <time>2012-03-22T08:48:34Z</time>
      </trkpt>
      <trkpt lat="44.3945" lon="5.80858">
        <ele>1044.61</ele>
        <time>2012-03-22T08:48:35Z</time>
      </trkpt>
      <trkpt lat="44.3945" lon="5.8086">
        <ele>1039.32</ele>
        <time>2012-03-22T08:48:36Z</time>
      </trkpt>
      <trkpt lat="44.3945" lon="5.80861">
        <ele>1042.21</ele>
        <time>2012-03-22T08:48:37Z</time>
      </trkpt>
      <trkpt lat="44.3945" lon="5.80865">
        <ele>1046.53</ele>
        <time>2012-03-22T08:48:40Z</time>
      </trkpt>
      <trkpt lat="44.3945" lon="5.80866">
        <ele>1041.73</ele>
        <time>2012-03-22T08:48:41Z</time>
      </trkpt>
      <trkpt lat="44.39451" lon="5.80868">
        <ele>1037.88</ele>
        <time>2012-03-22T08:48:45Z</time>
      </trkpt>
      <trkpt lat="44.39451" lon="5.80869">
        <ele>1046.53</ele>
        <time>2012-03-22T08:48:46Z</time>
      </trkpt>
      <trkpt lat="44.39451" lon="5.8087">
        <ele>1044.61</ele>
        <time>2012-03-22T08:48:47Z</time>
      </trkpt>
      <trkpt lat="44.39451" lon="5.80872">
        <ele>1040.76</ele>
        <time>2012-03-22T08:48:51Z</time>
      </trkpt>
      <trkpt lat="44.39451" lon="5.80873">
        <ele>1041.73</ele>
        <time>2012-03-22T08:48:52Z</time>
      </trkpt>
      <trkpt lat="44.39453" lon="5.8088">
        <ele>1042.69</ele>
        <time>2012-03-22T08:48:57Z</time>
      </trkpt>
      <trkpt lat="44.39453" lon="5.8088">
        <ele>1048.94</ele>
        <time>2012-03-22T08:48:58Z</time>
      </trkpt>
      <trkpt lat="44.39453" lon="5.80881">
        <ele>1045.09</ele>
        <time>2012-03-22T08:48:59Z</time>
      </trkpt>
      <trkpt lat="44.39453" lon="5.80887">
        <ele>1048.45</ele>
        <time>2012-03-22T08:49:07Z</time>
      </trkpt>
      <trkpt lat="44.39454" lon="5.80888">
        <ele>1044.13</ele>
        <time>2012-03-22T08:49:08Z</time>
      </trkpt>
      <trkpt lat="44.39455" lon="5.80893">
        <ele>1046.05</ele>
        <time>2012-03-22T08:49:14Z</time>
      </trkpt>
      <trkpt lat="44.39455" lon="5.80899">
        <ele>1049.9</ele>
        <time>2012-03-22T08:49:19Z</time>
      </trkpt>
      <trkpt lat="44.39456" lon="5.809">
        <ele>1045.57</ele>
        <time>2012-03-22T08:49:21Z</time>
      </trkpt>
      <trkpt lat="44.39456" lon="5.80901">
        <ele>1048.94</ele>
        <time>2012-03-22T08:49:22Z</time>
      </trkpt>
      <trkpt lat="44.39455" lon="5.80912">
        <ele>1045.57</ele>
        <time>2012-03-22T08:49:30Z</time>
      </trkpt>
      <trkpt lat="44.39455" lon="5.80913">
        <ele>1051.34</ele>
        <time>2012-03-22T08:49:31Z</time>
      </trkpt>
      <trkpt lat="44.39455" lon="5.80914">
        <ele>1046.05</ele>
        <time>2012-03-22T08:49:32Z</time>
      </trkpt>
      <trkpt lat="44.39455" lon="5.80915">
        <ele>1055.18</ele>
        <time>2012-03-22T08:49:33Z</time>
      </trkpt>
      <trkpt lat="44.39455" lon="5.80915">
        <ele>1050.38</ele>
        <time>2012-03-22T08:49:34Z</time>
      </trkpt>
      <trkpt lat="44.39455" lon="5.80916">
        <ele>1046.53</ele>
        <time>2012-03-22T08:49:35Z</time>
      </trkpt>
      <trkpt lat="44.39455" lon="5.80917">
        <ele>1049.42</ele>
        <time>2012-03-22T08:49:36Z</time>
      </trkpt>
      <trkpt lat="44.39455" lon="5.80922">
        <ele>1050.86</ele>
        <time>2012-03-22T08:49:40Z</time>
      </trkpt>
      <trkpt lat="44.39455" lon="5.80923">
        <ele>1047.49</ele>
        <time>2012-03-22T08:49:41Z</time>
      </trkpt>
      <trkpt lat="44.39455" lon="5.80924">
        <ele>1048.45</ele>
        <time>2012-03-22T08:49:42Z</time>
      </trkpt>
      <trkpt lat="44.39455" lon="5.80925">
        <ele>1051.82</ele>
        <time>2012-03-22T08:49:43Z</time>
      </trkpt>
      <trkpt lat="44.39455" lon="5.80925">
        <ele>1048.45</ele>
        <time>2012-03-22T08:49:44Z</time>
      </trkpt>
      <trkpt lat="44.39455" lon="5.80926">
        <ele>1051.82</ele>
        <time>2012-03-22T08:49:45Z</time>
      </trkpt>
      <trkpt lat="44.39455" lon="5.8093">
        <ele>1048.94</ele>
        <time>2012-03-22T08:49:48Z</time>
      </trkpt>
      <trkpt lat="44.39456" lon="5.80934">
        <ele>1056.63</ele>
        <time>2012-03-22T08:49:52Z</time>
      </trkpt>
      <trkpt lat="44.39456" lon="5.80935">
        <ele>1053.74</ele>
        <time>2012-03-22T08:49:53Z</time>
      </trkpt>
      <trkpt lat="44.39456" lon="5.80936">
        <ele>1050.38</ele>
        <time>2012-03-22T08:49:54Z</time>
      </trkpt>
      <trkpt lat="44.39456" lon="5.80937">
        <ele>1050.86</ele>
        <time>2012-03-22T08:49:55Z</time>
      </trkpt>
      <trkpt lat="44.39456" lon="5.80941">
        <ele>1057.11</ele>
        <time>2012-03-22T08:50:00Z</time>
      </trkpt>
      <trkpt lat="44.39456" lon="5.80942">
        <ele>1055.18</ele>
        <time>2012-03-22T08:50:01Z</time>
      </trkpt>
      <trkpt lat="44.39456" lon="5.80942">
        <ele>1048.45</ele>
        <time>2012-03-22T08:50:02Z</time>
      </trkpt>
      <trkpt lat="44.39456" lon="5.80942">
        <ele>1056.15</ele>
        <time>2012-03-22T08:50:03Z</time>
      </trkpt>
      <trkpt lat="44.39456" lon="5.80945">
        <ele>1049.9</ele>
        <time>2012-03-22T08:50:07Z</time>
      </trkpt>
      <trkpt lat="44.39456" lon="5.80946">
        <ele>1054.22</ele>
        <time>2012-03-22T08:50:08Z</time>
      </trkpt>
      <trkpt lat="44.39456" lon="5.80957">
        <ele>1055.18</ele>
        <time>2012-03-22T08:50:18Z</time>
      </trkpt>
      <trkpt lat="44.39457" lon="5.80964">
        <ele>1059.03</ele>
        <time>2012-03-22T08:50:26Z</time>
      </trkpt>
      <trkpt lat="44.39457" lon="5.80964">
        <ele>1055.18</ele>
        <time>2012-03-22T08:50:27Z</time>
      </trkpt>
      <trkpt lat="44.39457" lon="5.80966">
        <ele>1060.47</ele>
        <time>2012-03-22T08:50:29Z</time>
      </trkpt>
      <trkpt lat="44.39457" lon="5.80967">
        <ele>1057.11</ele>
        <time>2012-03-22T08:50:30Z</time>
      </trkpt>
      <trkpt lat="44.39458" lon="5.80969">
        <ele>1053.26</ele>
        <time>2012-03-22T08:50:33Z</time>
      </trkpt>
      <trkpt lat="44.39458" lon="5.80969">
        <ele>1056.63</ele>
        <time>2012-03-22T08:50:34Z</time>
      </trkpt>
      <trkpt lat="44.39458" lon="5.8097">
        <ele>1052.78</ele>
        <time>2012-03-22T08:50:36Z</time>
      </trkpt>
      <trkpt lat="44.39458" lon="5.80972">
        <ele>1053.26</ele>
        <time>2012-03-22T08:50:37Z</time>
      </trkpt>
      <trkpt lat="44.39458" lon="5.80972">
        <ele>1060.47</ele>
        <time>2012-03-22T08:50:38Z</time>
      </trkpt>
      <trkpt lat="44.39458" lon="5.80973">
        <ele>1057.11</ele>
        <time>2012-03-22T08:50:39Z</time>
      </trkpt>
      <trkpt lat="44.39458" lon="5.80974">
        <ele>1060.47</ele>
        <time>2012-03-22T08:50:40Z</time>
      </trkpt>
      <trkpt lat="44.39459" lon="5.80976">
        <ele>1056.15</ele>
        <time>2012-03-22T08:50:42Z</time>
      </trkpt>
      <trkpt lat="44.39459" lon="5.80977">
        <ele>1059.99</ele>
        <time>2012-03-22T08:50:43Z</time>
      </trkpt>
      <trkpt lat="44.39459" lon="5.80978">
        <ele>1056.15</ele>
        <time>2012-03-22T08:50:45Z</time>
      </trkpt>
      <trkpt lat="44.39459" lon="5.80979">
        <ele>1063.36</ele>
        <time>2012-03-22T08:50:47Z</time>
      </trkpt>
      <trkpt lat="44.39458" lon="5.80981">
        <ele>1056.63</ele>
        <time>2012-03-22T08:50:48Z</time>
      </trkpt>
      <trkpt lat="44.39458" lon="5.80983">
        <ele>1061.91</ele>
        <time>2012-03-22T08:50:49Z</time>
      </trkpt>
      <trkpt lat="44.39459" lon="5.80985">
        <ele>1059.03</ele>
        <time>2012-03-22T08:50:56Z</time>
      </trkpt>
      <trkpt lat="44.3946" lon="5.80988">
        <ele>1058.07</ele>
        <time>2012-03-22T08:50:58Z</time>
      </trkpt>
      <trkpt lat="44.39461" lon="5.80995">
        <ele>1058.07</ele>
        <time>2012-03-22T08:51:03Z</time>
      </trkpt>
      <trkpt lat="44.39462" lon="5.80996">
        <ele>1066.72</ele>
        <time>2012-03-22T08:51:04Z</time>
      </trkpt>
      <trkpt lat="44.39462" lon="5.80996">
        <ele>1060.47</ele>
        <time>2012-03-22T08:51:05Z</time>
      </trkpt>
      <trkpt lat="44.39461" lon="5.81001">
        <ele>1060.95</ele>
        <time>2012-03-22T08:51:10Z</time>
      </trkpt>
      <trkpt lat="44.39461" lon="5.81004">
        <ele>1062.39</ele>
        <time>2012-03-22T08:51:13Z</time>
      </trkpt>
      <trkpt lat="44.39461" lon="5.81006">
        <ele>1066.72</ele>
        <time>2012-03-22T08:51:15Z</time>
      </trkpt>
      <trkpt lat="44.39461" lon="5.81007">
        <ele>1060.95</ele>
        <time>2012-03-22T08:51:16Z</time>
      </trkpt>
      <trkpt lat="44.39461" lon="5.81014">
        <ele>1062.39</ele>
        <time>2012-03-22T08:51:23Z</time>
      </trkpt>
      <trkpt lat="44.39462" lon="5.81017">
        <ele>1068.64</ele>
        <time>2012-03-22T08:51:27Z</time>
      </trkpt>
      <trkpt lat="44.39461" lon="5.81018">
        <ele>1063.36</ele>
        <time>2012-03-22T08:51:28Z</time>
      </trkpt>
      <trkpt lat="44.39462" lon="5.81019">
        <ele>1067.2</ele>
        <time>2012-03-22T08:51:30Z</time>
      </trkpt>
      <trkpt lat="44.39462" lon="5.81021">
        <ele>1064.32</ele>
        <time>2012-03-22T08:51:32Z</time>
      </trkpt>
      <trkpt lat="44.39462" lon="5.81026">
        <ele>1064.8</ele>
        <time>2012-03-22T08:51:36Z</time>
      </trkpt>
      <trkpt lat="44.39463" lon="5.81032">
        <ele>1068.16</ele>
        <time>2012-03-22T08:51:42Z</time>
      </trkpt>
      <trkpt lat="44.39463" lon="5.81033">
        <ele>1065.28</ele>
        <time>2012-03-22T08:51:43Z</time>
      </trkpt>
      <trkpt lat="44.39464" lon="5.81036">
        <ele>1070.57</ele>
        <time>2012-03-22T08:51:49Z</time>
      </trkpt>
      <trkpt lat="44.39464" lon="5.81036">
        <ele>1066.24</ele>
        <time>2012-03-22T08:51:50Z</time>
      </trkpt>
      <trkpt lat="44.39464" lon="5.81038">
        <ele>1073.45</ele>
        <time>2012-03-22T08:51:52Z</time>
      </trkpt>
      <trkpt lat="44.39464" lon="5.81039">
        <ele>1068.64</ele>
        <time>2012-03-22T08:51:53Z</time>
      </trkpt>
      <trkpt lat="44.39465" lon="5.8104">
        <ele>1064.8</ele>
        <time>2012-03-22T08:51:54Z</time>
      </trkpt>
      <trkpt lat="44.39465" lon="5.8104">
        <ele>1070.08</ele>
        <time>2012-03-22T08:51:55Z</time>
      </trkpt>
      <trkpt lat="44.39465" lon="5.81042">
        <ele>1067.2</ele>
        <time>2012-03-22T08:51:56Z</time>
      </trkpt>
      <trkpt lat="44.39465" lon="5.81046">
        <ele>1071.53</ele>
        <time>2012-03-22T08:51:58Z</time>
      </trkpt>
      <trkpt lat="44.39465" lon="5.81047">
        <ele>1065.28</ele>
        <time>2012-03-22T08:51:59Z</time>
      </trkpt>
      <trkpt lat="44.39465" lon="5.81049">
        <ele>1068.64</ele>
        <time>2012-03-22T08:52:00Z</time>
      </trkpt>
      <trkpt lat="44.39465" lon="5.81052">
        <ele>1065.28</ele>
        <time>2012-03-22T08:52:03Z</time>
      </trkpt>
      <trkpt lat="44.39466" lon="5.81054">
        <ele>1072.97</ele>
        <time>2012-03-22T08:52:04Z</time>
      </trkpt>
      <trkpt lat="44.39466" lon="5.81055">
        <ele>1071.53</ele>
        <time>2012-03-22T08:52:05Z</time>
      </trkpt>
      <trkpt lat="44.39466" lon="5.81057">
        <ele>1066.24</ele>
        <time>2012-03-22T08:52:06Z</time>
      </trkpt>
      <trkpt lat="44.39466" lon="5.81058">
        <ele>1069.12</ele>
        <time>2012-03-22T08:52:07Z</time>
      </trkpt>
      <trkpt lat="44.39467" lon="5.81067">
        <ele>1072.97</ele>
        <time>2012-03-22T08:52:16Z</time>
      </trkpt>
      <trkpt lat="44.39467" lon="5.81069">
        <ele>1068.16</ele>
        <time>2012-03-22T08:52:17Z</time>
      </trkpt>
      <trkpt lat="44.39467" lon="5.8107">
        <ele>1071.53</ele>
        <time>2012-03-22T08:52:18Z</time>
      </trkpt>
      <trkpt lat="44.39467" lon="5.81077">
        <ele>1068.64</ele>
        <time>2012-03-22T08:52:26Z</time>
      </trkpt>
      <trkpt lat="44.39467" lon="5.81079">
        <ele>1069.6</ele>
        <time>2012-03-22T08:52:27Z</time>
      </trkpt>
      <trkpt lat="44.39467" lon="5.8108">
        <ele>1075.37</ele>
        <time>2012-03-22T08:52:28Z</time>
      </trkpt>
      <trkpt lat="44.39467" lon="5.8108">
        <ele>1072.49</ele>
        <time>2012-03-22T08:52:29Z</time>
      </trkpt>
      <trkpt lat="44.39467" lon="5.81087">
        <ele>1075.85</ele>
        <time>2012-03-22T08:52:36Z</time>
      </trkpt>
      <trkpt lat="44.39467" lon="5.81089">
        <ele>1072.97</ele>
        <time>2012-03-22T08:52:37Z</time>
      </trkpt>
      <trkpt lat="44.39467" lon="5.81089">
        <ele>1069.6</ele>
        <time>2012-03-22T08:52:38Z</time>
      </trkpt>
      <trkpt lat="44.39468" lon="5.8109">
        <ele>1076.81</ele>
        <time>2012-03-22T08:52:40Z</time>
      </trkpt>
      <trkpt lat="44.39468" lon="5.8109">
        <ele>1074.41</ele>
        <time>2012-03-22T08:52:41Z</time>
      </trkpt>
      <trkpt lat="44.39467" lon="5.81095">
        <ele>1069.12</ele>
        <time>2012-03-22T08:52:47Z</time>
      </trkpt>
      <trkpt lat="44.39467" lon="5.81096">
        <ele>1073.45</ele>
        <time>2012-03-22T08:52:48Z</time>
      </trkpt>
      <trkpt lat="44.39467" lon="5.81097">
        <ele>1076.81</ele>
        <time>2012-03-22T08:52:49Z</time>
      </trkpt>
      <trkpt lat="44.39467" lon="5.81097">
        <ele>1080.18</ele>
        <time>2012-03-22T08:52:50Z</time>
      </trkpt>
      <trkpt lat="44.39467" lon="5.81098">
        <ele>1078.26</ele>
        <time>2012-03-22T08:52:51Z</time>
      </trkpt>
      <trkpt lat="44.39467" lon="5.811">
        <ele>1074.89</ele>
        <time>2012-03-22T08:52:52Z</time>
      </trkpt>
      <trkpt lat="44.39467" lon="5.811">
        <ele>1076.33</ele>
        <time>2012-03-22T08:52:56Z</time>
      </trkpt>
      <trkpt lat="44.39467" lon="5.81101">
        <ele>1079.7</ele>
        <time>2012-03-22T08:52:57Z</time>
      </trkpt>
      <trkpt lat="44.39468" lon="5.81103">
        <ele>1073.45</ele>
        <time>2012-03-22T08:52:58Z</time>
      </trkpt>
      <trkpt lat="44.39468" lon="5.81104">
        <ele>1073.45</ele>
        <time>2012-03-22T08:52:59Z</time>
      </trkpt>
      <trkpt lat="44.39468" lon="5.81104">
        <ele>1077.78</ele>
        <time>2012-03-22T08:53:00Z</time>
      </trkpt>
      <trkpt lat="44.39468" lon="5.81105">
        <ele>1072.97</ele>
        <time>2012-03-22T08:53:01Z</time>
      </trkpt>
      <trkpt lat="44.39468" lon="5.81109">
        <ele>1077.29</ele>
        <time>2012-03-22T08:53:03Z</time>
      </trkpt>
      <trkpt lat="44.39468" lon="5.8111">
        <ele>1075.85</ele>
        <time>2012-03-22T08:53:04Z</time>
      </trkpt>
      <trkpt lat="44.39469" lon="5.81116">
        <ele>1083.06</ele>
        <time>2012-03-22T08:53:11Z</time>
      </trkpt>
      <trkpt lat="44.3947" lon="5.81117">
        <ele>1079.7</ele>
        <time>2012-03-22T08:53:12Z</time>
      </trkpt>
      <trkpt lat="44.3947" lon="5.81118">
        <ele>1076.81</ele>
        <time>2012-03-22T08:53:14Z</time>
      </trkpt>
      <trkpt lat="44.39471" lon="5.81122">
        <ele>1080.18</ele>
        <time>2012-03-22T08:53:17Z</time>
      </trkpt>
      <trkpt lat="44.39472" lon="5.81123">
        <ele>1076.33</ele>
        <time>2012-03-22T08:53:18Z</time>
      </trkpt>
      <trkpt lat="44.39472" lon="5.81127">
        <ele>1080.18</ele>
        <time>2012-03-22T08:53:23Z</time>
      </trkpt>
      <trkpt lat="44.39472" lon="5.8113">
        <ele>1080.18</ele>
        <time>2012-03-22T08:53:27Z</time>
      </trkpt>
      <trkpt lat="44.39472" lon="5.81131">
        <ele>1079.7</ele>
        <time>2012-03-22T08:54:04Z</time>
      </trkpt>
      <trkpt lat="44.39472" lon="5.81132">
        <ele>1084.02</ele>
        <time>2012-03-22T08:54:09Z</time>
      </trkpt>
      <trkpt lat="44.39472" lon="5.81133">
        <ele>1083.54</ele>
        <time>2012-03-22T08:54:10Z</time>
      </trkpt>
      <trkpt lat="44.39472" lon="5.81134">
        <ele>1080.18</ele>
        <time>2012-03-22T08:54:11Z</time>
      </trkpt>
      <trkpt lat="44.3947" lon="5.8114">
        <ele>1084.99</ele>
        <time>2012-03-22T08:54:18Z</time>
      </trkpt>
      <trkpt lat="44.3947" lon="5.81141">
        <ele>1079.7</ele>
        <time>2012-03-22T08:54:19Z</time>
      </trkpt>
      <trkpt lat="44.3947" lon="5.81142">
        <ele>1083.54</ele>
        <time>2012-03-22T08:54:20Z</time>
      </trkpt>
      <trkpt lat="44.3947" lon="5.81145">
        <ele>1078.74</ele>
        <time>2012-03-22T08:54:23Z</time>
      </trkpt>
      <trkpt lat="44.3947" lon="5.81146">
        <ele>1092.2</ele>
        <time>2012-03-22T08:54:24Z</time>
      </trkpt>
      <trkpt lat="44.39469" lon="5.81147">
        <ele>1084.99</ele>
        <time>2012-03-22T08:54:25Z</time>
      </trkpt>
      <trkpt lat="44.39469" lon="5.81147">
        <ele>1081.62</ele>
        <time>2012-03-22T08:54:26Z</time>
      </trkpt>
      <trkpt lat="44.39469" lon="5.81148">
        <ele>1082.1</ele>
        <time>2012-03-22T08:54:27Z</time>
      </trkpt>
      <trkpt lat="44.39469" lon="5.81151">
        <ele>1084.02</ele>
        <time>2012-03-22T08:54:30Z</time>
      </trkpt>
      <trkpt lat="44.39467" lon="5.81155">
        <ele>1080.66</ele>
        <time>2012-03-22T08:54:34Z</time>
      </trkpt>
      <trkpt lat="44.39467" lon="5.81156">
        <ele>1086.43</ele>
        <time>2012-03-22T08:54:35Z</time>
      </trkpt>
      <trkpt lat="44.39467" lon="5.81157">
        <ele>1081.62</ele>
        <time>2012-03-22T08:54:36Z</time>
      </trkpt>
      <trkpt lat="44.39467" lon="5.81158">
        <ele>1085.47</ele>
        <time>2012-03-22T08:54:37Z</time>
      </trkpt>
      <trkpt lat="44.39466" lon="5.81166">
        <ele>1084.99</ele>
        <time>2012-03-22T08:54:46Z</time>
      </trkpt>
      <trkpt lat="44.39466" lon="5.8117">
        <ele>1088.35</ele>
        <time>2012-03-22T08:54:50Z</time>
      </trkpt>
      <trkpt lat="44.39465" lon="5.81173">
        <ele>1091.71</ele>
        <time>2012-03-22T08:54:52Z</time>
      </trkpt>
      <trkpt lat="44.39465" lon="5.81174">
        <ele>1090.75</ele>
        <time>2012-03-22T08:54:53Z</time>
      </trkpt>
      <trkpt lat="44.39465" lon="5.81175">
        <ele>1084.99</ele>
        <time>2012-03-22T08:54:54Z</time>
      </trkpt>
      <trkpt lat="44.39465" lon="5.81177">
        <ele>1089.79</ele>
        <time>2012-03-22T08:54:56Z</time>
      </trkpt>
      <trkpt lat="44.39465" lon="5.81178">
        <ele>1084.99</ele>
        <time>2012-03-22T08:54:57Z</time>
      </trkpt>
      <trkpt lat="44.39464" lon="5.8118">
        <ele>1086.43</ele>
        <time>2012-03-22T08:55:00Z</time>
      </trkpt>
      <trkpt lat="44.39464" lon="5.81184">
        <ele>1091.23</ele>
        <time>2012-03-22T08:55:05Z</time>
      </trkpt>
      <trkpt lat="44.39464" lon="5.81185">
        <ele>1086.91</ele>
        <time>2012-03-22T08:55:06Z</time>
      </trkpt>
      <trkpt lat="44.39464" lon="5.81186">
        <ele>1087.39</ele>
        <time>2012-03-22T08:55:07Z</time>
      </trkpt>
      <trkpt lat="44.39464" lon="5.81195">
        <ele>1093.64</ele>
        <time>2012-03-22T08:55:14Z</time>
      </trkpt>
      <trkpt lat="44.39463" lon="5.81196">
        <ele>1087.87</ele>
        <time>2012-03-22T08:55:15Z</time>
      </trkpt>
      <trkpt lat="44.39464" lon="5.81197">
        <ele>1091.23</ele>
        <time>2012-03-22T08:55:16Z</time>
      </trkpt>
      <trkpt lat="44.39463" lon="5.81203">
        <ele>1091.23</ele>
        <time>2012-03-22T08:55:24Z</time>
      </trkpt>
      <trkpt lat="44.39463" lon="5.8121">
        <ele>1091.71</ele>
        <time>2012-03-22T08:55:34Z</time>
      </trkpt>
      <trkpt lat="44.39462" lon="5.81218">
        <ele>1097.48</ele>
        <time>2012-03-22T08:55:40Z</time>
      </trkpt>
      <trkpt lat="44.39462" lon="5.81218">
        <ele>1093.64</ele>
        <time>2012-03-22T08:55:41Z</time>
      </trkpt>
      <trkpt lat="44.39463" lon="5.81219">
        <ele>1097.48</ele>
        <time>2012-03-22T08:55:42Z</time>
      </trkpt>
      <trkpt lat="44.39463" lon="5.8122">
        <ele>1092.68</ele>
        <time>2012-03-22T08:55:43Z</time>
      </trkpt>
      <trkpt lat="44.39463" lon="5.81223">
        <ele>1098.44</ele>
        <time>2012-03-22T08:55:49Z</time>
      </trkpt>
      <trkpt lat="44.39463" lon="5.81223">
        <ele>1094.6</ele>
        <time>2012-03-22T08:55:50Z</time>
      </trkpt>
      <trkpt lat="44.39463" lon="5.81227">
        <ele>1091.23</ele>
        <time>2012-03-22T08:55:54Z</time>
      </trkpt>
      <trkpt lat="44.39464" lon="5.81229">
        <ele>1091.23</ele>
        <time>2012-03-22T08:55:55Z</time>
      </trkpt>
      <trkpt lat="44.39464" lon="5.8123">
        <ele>1096.52</ele>
        <time>2012-03-22T08:55:56Z</time>
      </trkpt>
      <trkpt lat="44.39464" lon="5.81232">
        <ele>1093.16</ele>
        <time>2012-03-22T08:55:57Z</time>
      </trkpt>
      <trkpt lat="44.39464" lon="5.81233">
        <ele>1099.89</ele>
        <time>2012-03-22T08:55:58Z</time>
      </trkpt>
      <trkpt lat="44.39463" lon="5.81235">
        <ele>1096.52</ele>
        <time>2012-03-22T08:55:59Z</time>
      </trkpt>
      <trkpt lat="44.39463" lon="5.81239">
        <ele>1092.68</ele>
        <time>2012-03-22T08:56:02Z</time>
      </trkpt>
      <trkpt lat="44.39464" lon="5.81242">
        <ele>1098.92</ele>
        <time>2012-03-22T08:56:07Z</time>
      </trkpt>
      <trkpt lat="44.39464" lon="5.81242">
        <ele>1096.52</ele>
        <time>2012-03-22T08:56:08Z</time>
      </trkpt>
      <trkpt lat="44.39464" lon="5.81245">
        <ele>1095.08</ele>
        <time>2012-03-22T08:56:11Z</time>
      </trkpt>
      <trkpt lat="44.39465" lon="5.81248">
        <ele>1100.37</ele>
        <time>2012-03-22T08:56:13Z</time>
      </trkpt>
      <trkpt lat="44.39465" lon="5.81249">
        <ele>1095.56</ele>
        <time>2012-03-22T08:56:14Z</time>
      </trkpt>
      <trkpt lat="44.39466" lon="5.81253">
        <ele>1099.4</ele>
        <time>2012-03-22T08:56:18Z</time>
      </trkpt>
      <trkpt lat="44.39466" lon="5.81254">
        <ele>1094.12</ele>
        <time>2012-03-22T08:56:20Z</time>
      </trkpt>
      <trkpt lat="44.39467" lon="5.81256">
        <ele>1096.04</ele>
        <time>2012-03-22T08:56:21Z</time>
      </trkpt>
      <trkpt lat="44.39467" lon="5.81256">
        <ele>1099.89</ele>
        <time>2012-03-22T08:56:22Z</time>
      </trkpt>
      <trkpt lat="44.39467" lon="5.81257">
        <ele>1096.04</ele>
        <time>2012-03-22T08:56:23Z</time>
      </trkpt>
      <trkpt lat="44.39469" lon="5.81259">
        <ele>1102.77</ele>
        <time>2012-03-22T08:56:25Z</time>
      </trkpt>
      <trkpt lat="44.39469" lon="5.8126">
        <ele>1099.89</ele>
        <time>2012-03-22T08:56:26Z</time>
      </trkpt>
      <trkpt lat="44.3947" lon="5.81261">
        <ele>1103.73</ele>
        <time>2012-03-22T08:56:27Z</time>
      </trkpt>
      <trkpt lat="44.3947" lon="5.81263">
        <ele>1097.96</ele>
        <time>2012-03-22T08:56:28Z</time>
      </trkpt>
      <trkpt lat="44.3947" lon="5.81263">
        <ele>1097.96</ele>
        <time>2012-03-22T08:56:29Z</time>
      </trkpt>
      <trkpt lat="44.3947" lon="5.81263">
        <ele>1102.77</ele>
        <time>2012-03-22T08:56:30Z</time>
      </trkpt>
      <trkpt lat="44.3947" lon="5.81264">
        <ele>1099.4</ele>
        <time>2012-03-22T08:56:31Z</time>
      </trkpt>
      <trkpt lat="44.3947" lon="5.81264">
        <ele>1094.6</ele>
        <time>2012-03-22T08:56:32Z</time>
      </trkpt>
      <trkpt lat="44.3947" lon="5.81266">
        <ele>1097.96</ele>
        <time>2012-03-22T08:56:33Z</time>
      </trkpt>
      <trkpt lat="44.39471" lon="5.81267">
        <ele>1103.73</ele>
        <time>2012-03-22T08:56:36Z</time>
      </trkpt>
      <trkpt lat="44.39471" lon="5.81267">
        <ele>1098.92</ele>
        <time>2012-03-22T08:56:37Z</time>
      </trkpt>
      <trkpt lat="44.39472" lon="5.81271">
        <ele>1095.56</ele>
        <time>2012-03-22T08:56:41Z</time>
      </trkpt>
      <trkpt lat="44.39472" lon="5.81272">
        <ele>1099.4</ele>
        <time>2012-03-22T08:56:42Z</time>
      </trkpt>
      <trkpt lat="44.39473" lon="5.81279">
        <ele>1098.92</ele>
        <time>2012-03-22T08:56:47Z</time>
      </trkpt>
      <trkpt lat="44.39473" lon="5.81281">
        <ele>1105.65</ele>
        <time>2012-03-22T08:56:48Z</time>
      </trkpt>
      <trkpt lat="44.39473" lon="5.81281">
        <ele>1100.85</ele>
        <time>2012-03-22T08:56:49Z</time>
      </trkpt>
      <trkpt lat="44.3947" lon="5.81291">
        <ele>1099.89</ele>
        <time>2012-03-22T08:56:59Z</time>
      </trkpt>
      <trkpt lat="44.3947" lon="5.81295">
        <ele>1105.65</ele>
        <time>2012-03-22T08:57:02Z</time>
      </trkpt>
      <trkpt lat="44.3947" lon="5.81296">
        <ele>1103.25</ele>
        <time>2012-03-22T08:57:03Z</time>
      </trkpt>
      <trkpt lat="44.3947" lon="5.81298">
        <ele>1099.89</ele>
        <time>2012-03-22T08:57:04Z</time>
      </trkpt>
      <trkpt lat="44.3947" lon="5.81299">
        <ele>1103.25</ele>
        <time>2012-03-22T08:57:06Z</time>
      </trkpt>
      <trkpt lat="44.39472" lon="5.81305">
        <ele>1105.17</ele>
        <time>2012-03-22T08:57:12Z</time>
      </trkpt>
      <trkpt lat="44.39472" lon="5.81305">
        <ele>1100.85</ele>
        <time>2012-03-22T08:57:13Z</time>
      </trkpt>
      <trkpt lat="44.39472" lon="5.81305">
        <ele>1102.29</ele>
        <time>2012-03-22T08:57:14Z</time>
      </trkpt>
      <trkpt lat="44.39472" lon="5.81306">
        <ele>1107.58</ele>
        <time>2012-03-22T08:57:15Z</time>
      </trkpt>
      <trkpt lat="44.39472" lon="5.81306">
        <ele>1103.73</ele>
        <time>2012-03-22T08:57:16Z</time>
      </trkpt>
      <trkpt lat="44.39473" lon="5.81307">
        <ele>1110.46</ele>
        <time>2012-03-22T08:57:17Z</time>
      </trkpt>
      <trkpt lat="44.39473" lon="5.81308">
        <ele>1103.73</ele>
        <time>2012-03-22T08:57:18Z</time>
      </trkpt>
      <trkpt lat="44.39474" lon="5.8131">
        <ele>1108.06</ele>
        <time>2012-03-22T08:57:20Z</time>
      </trkpt>
      <trkpt lat="44.39474" lon="5.81311">
        <ele>1106.61</ele>
        <time>2012-03-22T08:57:21Z</time>
      </trkpt>
      <trkpt lat="44.39474" lon="5.81311">
        <ele>1103.25</ele>
        <time>2012-03-22T08:57:22Z</time>
      </trkpt>
      <trkpt lat="44.39474" lon="5.81313">
        <ele>1103.73</ele>
        <time>2012-03-22T08:57:23Z</time>
      </trkpt>
      <trkpt lat="44.39473" lon="5.81315">
        <ele>1109.02</ele>
        <time>2012-03-22T08:57:26Z</time>
      </trkpt>
      <trkpt lat="44.39473" lon="5.81317">
        <ele>1102.29</ele>
        <time>2012-03-22T08:57:27Z</time>
      </trkpt>
      <trkpt lat="44.39473" lon="5.8132">
        <ele>1106.61</ele>
        <time>2012-03-22T08:57:29Z</time>
      </trkpt>
      <trkpt lat="44.39473" lon="5.81324">
        <ele>1109.98</ele>
        <time>2012-03-22T08:57:32Z</time>
      </trkpt>
      <trkpt lat="44.39472" lon="5.81325">
        <ele>1106.61</ele>
        <time>2012-03-22T08:57:33Z</time>
      </trkpt>
      <trkpt lat="44.39472" lon="5.81327">
        <ele>1109.5</ele>
        <time>2012-03-22T08:57:34Z</time>
      </trkpt>
      <trkpt lat="44.39472" lon="5.8133">
        <ele>1108.54</ele>
        <time>2012-03-22T08:57:38Z</time>
      </trkpt>
      <trkpt lat="44.39472" lon="5.8133">
        <ele>1104.69</ele>
        <time>2012-03-22T08:57:39Z</time>
      </trkpt>
      <trkpt lat="44.39471" lon="5.81331">
        <ele>1107.58</ele>
        <time>2012-03-22T08:57:40Z</time>
      </trkpt>
      <trkpt lat="44.39471" lon="5.81332">
        <ele>1112.38</ele>
        <time>2012-03-22T08:57:41Z</time>
      </trkpt>
      <trkpt lat="44.39471" lon="5.81333">
        <ele>1108.06</ele>
        <time>2012-03-22T08:57:42Z</time>
      </trkpt>
      <trkpt lat="44.39471" lon="5.81334">
        <ele>1113.82</ele>
        <time>2012-03-22T08:57:43Z</time>
      </trkpt>
      <trkpt lat="44.39471" lon="5.81335">
        <ele>1110.46</ele>
        <time>2012-03-22T08:57:44Z</time>
      </trkpt>
      <trkpt lat="44.39469" lon="5.8134">
        <ele>1106.13</ele>
        <time>2012-03-22T08:57:48Z</time>
      </trkpt>
      <trkpt lat="44.39469" lon="5.8134">
        <ele>1107.58</ele>
        <time>2012-03-22T08:57:49Z</time>
      </trkpt>
      <trkpt lat="44.39468" lon="5.81341">
        <ele>1110.94</ele>
        <time>2012-03-22T08:57:50Z</time>
      </trkpt>
      <trkpt lat="44.39467" lon="5.81342">
        <ele>1115.27</ele>
        <time>2012-03-22T08:57:51Z</time>
      </trkpt>
      <trkpt lat="44.39463" lon="5.8135">
        <ele>1112.86</ele>
        <time>2012-03-22T08:58:01Z</time>
      </trkpt>
      <trkpt lat="44.39462" lon="5.81351">
        <ele>1107.58</ele>
        <time>2012-03-22T08:58:03Z</time>
      </trkpt>
      <trkpt lat="44.39462" lon="5.81352">
        <ele>1111.9</ele>
        <time>2012-03-22T08:58:04Z</time>
      </trkpt>
      <trkpt lat="44.39458" lon="5.81358">
        <ele>1108.54</ele>
        <time>2012-03-22T08:58:12Z</time>
      </trkpt>
      <trkpt lat="44.39457" lon="5.81359">
        <ele>1112.38</ele>
        <time>2012-03-22T08:58:13Z</time>
      </trkpt>
      <trkpt lat="44.39457" lon="5.81359">
        <ele>1118.15</ele>
        <time>2012-03-22T08:58:14Z</time>
      </trkpt>
      <trkpt lat="44.39457" lon="5.81359">
        <ele>1112.86</ele>
        <time>2012-03-22T08:58:15Z</time>
      </trkpt>
      <trkpt lat="44.39455" lon="5.81362">
        <ele>1116.23</ele>
        <time>2012-03-22T08:58:19Z</time>
      </trkpt>
      <trkpt lat="44.39455" lon="5.81362">
        <ele>1112.86</ele>
        <time>2012-03-22T08:58:20Z</time>
      </trkpt>
      <trkpt lat="44.39454" lon="5.81363">
        <ele>1116.71</ele>
        <time>2012-03-22T08:58:22Z</time>
      </trkpt>
      <trkpt lat="44.39454" lon="5.81364">
        <ele>1116.23</ele>
        <time>2012-03-22T08:58:23Z</time>
      </trkpt>
      <trkpt lat="44.39453" lon="5.81365">
        <ele>1112.38</ele>
        <time>2012-03-22T08:58:24Z</time>
      </trkpt>
      <trkpt lat="44.39452" lon="5.81366">
        <ele>1113.82</ele>
        <time>2012-03-22T08:58:25Z</time>
      </trkpt>
      <trkpt lat="44.3945" lon="5.8137">
        <ele>1110.46</ele>
        <time>2012-03-22T08:58:31Z</time>
      </trkpt>
      <trkpt lat="44.3945" lon="5.81371">
        <ele>1115.75</ele>
        <time>2012-03-22T08:58:32Z</time>
      </trkpt>
      <trkpt lat="44.3945" lon="5.81372">
        <ele>1111.9</ele>
        <time>2012-03-22T08:58:33Z</time>
      </trkpt>
      <trkpt lat="44.3945" lon="5.81374">
        <ele>1117.19</ele>
        <time>2012-03-22T08:58:36Z</time>
      </trkpt>
      <trkpt lat="44.3945" lon="5.81375">
        <ele>1121.03</ele>
        <time>2012-03-22T08:58:37Z</time>
      </trkpt>
      <trkpt lat="44.3945" lon="5.81375">
        <ele>1115.75</ele>
        <time>2012-03-22T08:58:38Z</time>
      </trkpt>
      <trkpt lat="44.3945" lon="5.81376">
        <ele>1115.75</ele>
        <time>2012-03-22T08:58:39Z</time>
      </trkpt>
      <trkpt lat="44.3945" lon="5.81378">
        <ele>1120.07</ele>
        <time>2012-03-22T08:58:41Z</time>
      </trkpt>
      <trkpt lat="44.3945" lon="5.8138">
        <ele>1118.15</ele>
        <time>2012-03-22T08:58:42Z</time>
      </trkpt>
      <trkpt lat="44.3945" lon="5.81381">
        <ele>1114.79</ele>
        <time>2012-03-22T08:58:43Z</time>
      </trkpt>
      <trkpt lat="44.3945" lon="5.81382">
        <ele>1115.75</ele>
        <time>2012-03-22T08:58:44Z</time>
      </trkpt>
      <trkpt lat="44.39449" lon="5.81383">
        <ele>1109.5</ele>
        <time>2012-03-22T08:58:46Z</time>
      </trkpt>
      <trkpt lat="44.39449" lon="5.81384">
        <ele>1116.71</ele>
        <time>2012-03-22T08:58:47Z</time>
      </trkpt>
      <trkpt lat="44.39449" lon="5.81386">
        <ele>1119.59</ele>
        <time>2012-03-22T08:58:49Z</time>
      </trkpt>
      <trkpt lat="44.39449" lon="5.8139">
        <ele>1114.31</ele>
        <time>2012-03-22T08:58:53Z</time>
      </trkpt>
      <trkpt lat="44.39449" lon="5.81392">
        <ele>1121.03</ele>
        <time>2012-03-22T08:58:55Z</time>
      </trkpt>
      <trkpt lat="44.39448" lon="5.81393">
        <ele>1114.31</ele>
        <time>2012-03-22T08:58:56Z</time>
      </trkpt>
      <trkpt lat="44.39448" lon="5.81394">
        <ele>1119.11</ele>
        <time>2012-03-22T08:58:57Z</time>
      </trkpt>
      <trkpt lat="44.39449" lon="5.81397">
        <ele>1122</ele>
        <time>2012-03-22T08:59:00Z</time>
      </trkpt>
      <trkpt lat="44.39449" lon="5.81397">
        <ele>1116.23</ele>
        <time>2012-03-22T08:59:01Z</time>
      </trkpt>
      <trkpt lat="44.39449" lon="5.81399">
        <ele>1121.52</ele>
        <time>2012-03-22T08:59:03Z</time>
      </trkpt>
      <trkpt lat="44.3945" lon="5.81399">
        <ele>1120.07</ele>
        <time>2012-03-22T08:59:04Z</time>
      </trkpt>
      <trkpt lat="44.39452" lon="5.81406">
        <ele>1123.44</ele>
        <time>2012-03-22T08:59:12Z</time>
      </trkpt>
      <trkpt lat="44.39452" lon="5.81406">
        <ele>1118.63</ele>
        <time>2012-03-22T08:59:13Z</time>
      </trkpt>
      <trkpt lat="44.39452" lon="5.81406">
        <ele>1122</ele>
        <time>2012-03-22T08:59:14Z</time>
      </trkpt>
      <trkpt lat="44.39451" lon="5.81408">
        <ele>1117.67</ele>
        <time>2012-03-22T08:59:17Z</time>
      </trkpt>
      <trkpt lat="44.39451" lon="5.81408">
        <ele>1121.52</ele>
        <time>2012-03-22T08:59:18Z</time>
      </trkpt>
      <trkpt lat="44.39451" lon="5.81408">
        <ele>1116.71</ele>
        <time>2012-03-22T08:59:19Z</time>
      </trkpt>
      <trkpt lat="44.39452" lon="5.81412">
        <ele>1121.52</ele>
        <time>2012-03-22T08:59:21Z</time>
      </trkpt>
      <trkpt lat="44.39452" lon="5.81413">
        <ele>1121.03</ele>
        <time>2012-03-22T08:59:22Z</time>
      </trkpt>
      <trkpt lat="44.39451" lon="5.8142">
        <ele>1118.15</ele>
        <time>2012-03-22T08:59:30Z</time>
      </trkpt>
      <trkpt lat="44.39451" lon="5.81422">
        <ele>1122</ele>
        <time>2012-03-22T08:59:31Z</time>
      </trkpt>
      <trkpt lat="44.39452" lon="5.81423">
        <ele>1118.15</ele>
        <time>2012-03-22T08:59:32Z</time>
      </trkpt>
      <trkpt lat="44.39452" lon="5.81425">
        <ele>1122.96</ele>
        <time>2012-03-22T08:59:33Z</time>
      </trkpt>
      <trkpt lat="44.39453" lon="5.81432">
        <ele>1122.96</ele>
        <time>2012-03-22T08:59:40Z</time>
      </trkpt>
      <trkpt lat="44.39453" lon="5.81434">
        <ele>1129.21</ele>
        <time>2012-03-22T08:59:44Z</time>
      </trkpt>
      <trkpt lat="44.39454" lon="5.81435">
        <ele>1124.88</ele>
        <time>2012-03-22T08:59:45Z</time>
      </trkpt>
      <trkpt lat="44.39453" lon="5.81443">
        <ele>1130.17</ele>
        <time>2012-03-22T08:59:51Z</time>
      </trkpt>
      <trkpt lat="44.39453" lon="5.81444">
        <ele>1125.84</ele>
        <time>2012-03-22T08:59:52Z</time>
      </trkpt>
      <trkpt lat="44.39453" lon="5.81444">
        <ele>1129.69</ele>
        <time>2012-03-22T08:59:53Z</time>
      </trkpt>
      <trkpt lat="44.39453" lon="5.81445">
        <ele>1122.96</ele>
        <time>2012-03-22T08:59:54Z</time>
      </trkpt>
      <trkpt lat="44.39453" lon="5.81446">
        <ele>1124.4</ele>
        <time>2012-03-22T08:59:55Z</time>
      </trkpt>
      <trkpt lat="44.39453" lon="5.81452">
        <ele>1129.21</ele>
        <time>2012-03-22T09:00:02Z</time>
      </trkpt>
      <trkpt lat="44.39454" lon="5.81455">
        <ele>1124.4</ele>
        <time>2012-03-22T09:00:04Z</time>
      </trkpt>
      <trkpt lat="44.39454" lon="5.81456">
        <ele>1126.32</ele>
        <time>2012-03-22T09:00:05Z</time>
      </trkpt>
      <trkpt lat="44.39454" lon="5.81459">
        <ele>1122.96</ele>
        <time>2012-03-22T09:00:10Z</time>
      </trkpt>
      <trkpt lat="44.39454" lon="5.81461">
        <ele>1126.32</ele>
        <time>2012-03-22T09:00:11Z</time>
      </trkpt>
      <trkpt lat="44.39454" lon="5.81461">
        <ele>1130.17</ele>
        <time>2012-03-22T09:00:12Z</time>
      </trkpt>
      <trkpt lat="44.39454" lon="5.81463">
        <ele>1125.36</ele>
        <time>2012-03-22T09:00:13Z</time>
      </trkpt>
      <trkpt lat="44.39453" lon="5.81466">
        <ele>1129.21</ele>
        <time>2012-03-22T09:00:16Z</time>
      </trkpt>
      <trkpt lat="44.39453" lon="5.81466">
        <ele>1132.57</ele>
        <time>2012-03-22T09:00:17Z</time>
      </trkpt>
      <trkpt lat="44.39453" lon="5.81466">
        <ele>1124.88</ele>
        <time>2012-03-22T09:00:18Z</time>
      </trkpt>
      <trkpt lat="44.39453" lon="5.81467">
        <ele>1132.57</ele>
        <time>2012-03-22T09:00:19Z</time>
      </trkpt>
      <trkpt lat="44.39454" lon="5.8147">
        <ele>1127.28</ele>
        <time>2012-03-22T09:00:21Z</time>
      </trkpt>
      <trkpt lat="44.39455" lon="5.81475">
        <ele>1122.96</ele>
        <time>2012-03-22T09:00:24Z</time>
      </trkpt>
      <trkpt lat="44.39455" lon="5.81476">
        <ele>1130.17</ele>
        <time>2012-03-22T09:00:25Z</time>
      </trkpt>
      <trkpt lat="44.39456" lon="5.81479">
        <ele>1135.45</ele>
        <time>2012-03-22T09:00:27Z</time>
      </trkpt>
      <trkpt lat="44.39456" lon="5.81479">
        <ele>1139.3</ele>
        <time>2012-03-22T09:00:28Z</time>
      </trkpt>
      <trkpt lat="44.39455" lon="5.8148">
        <ele>1129.69</ele>
        <time>2012-03-22T09:00:29Z</time>
      </trkpt>
      <trkpt lat="44.39455" lon="5.81482">
        <ele>1126.32</ele>
        <time>2012-03-22T09:00:30Z</time>
      </trkpt>
      <trkpt lat="44.39455" lon="5.81483">
        <ele>1132.57</ele>
        <time>2012-03-22T09:00:32Z</time>
      </trkpt>
      <trkpt lat="44.39455" lon="5.81484">
        <ele>1131.13</ele>
        <time>2012-03-22T09:00:33Z</time>
      </trkpt>
      <trkpt lat="44.39455" lon="5.81484">
        <ele>1126.32</ele>
        <time>2012-03-22T09:00:34Z</time>
      </trkpt>
      <trkpt lat="44.39455" lon="5.81484">
        <ele>1134.49</ele>
        <time>2012-03-22T09:00:35Z</time>
      </trkpt>
      <trkpt lat="44.39455" lon="5.81486">
        <ele>1128.24</ele>
        <time>2012-03-22T09:00:36Z</time>
      </trkpt>
      <trkpt lat="44.39455" lon="5.81487">
        <ele>1131.61</ele>
        <time>2012-03-22T09:00:37Z</time>
      </trkpt>
      <trkpt lat="44.39456" lon="5.81493">
        <ele>1126.32</ele>
        <time>2012-03-22T09:00:43Z</time>
      </trkpt>
      <trkpt lat="44.39456" lon="5.81494">
        <ele>1129.69</ele>
        <time>2012-03-22T09:00:44Z</time>
      </trkpt>
      <trkpt lat="44.39456" lon="5.81498">
        <ele>1133.53</ele>
        <time>2012-03-22T09:00:47Z</time>
      </trkpt>
      <trkpt lat="44.39455" lon="5.81499">
        <ele>1131.61</ele>
        <time>2012-03-22T09:00:48Z</time>
      </trkpt>
      <trkpt lat="44.39455" lon="5.815">
        <ele>1127.76</ele>
        <time>2012-03-22T09:00:49Z</time>
      </trkpt>
      <trkpt lat="44.39455" lon="5.815">
        <ele>1130.65</ele>
        <time>2012-03-22T09:00:50Z</time>
      </trkpt>
      <trkpt lat="44.39455" lon="5.81502">
        <ele>1134.49</ele>
        <time>2012-03-22T09:00:53Z</time>
      </trkpt>
      <trkpt lat="44.39455" lon="5.81503">
        <ele>1128.73</ele>
        <time>2012-03-22T09:00:54Z</time>
      </trkpt>
      <trkpt lat="44.39455" lon="5.81505">
        <ele>1135.94</ele>
        <time>2012-03-22T09:00:56Z</time>
      </trkpt>
      <trkpt lat="44.39455" lon="5.81505">
        <ele>1131.13</ele>
        <time>2012-03-22T09:00:57Z</time>
      </trkpt>
      <trkpt lat="44.39455" lon="5.81508">
        <ele>1134.49</ele>
        <time>2012-03-22T09:00:59Z</time>
      </trkpt>
      <trkpt lat="44.39455" lon="5.81508">
        <ele>1132.57</ele>
        <time>2012-03-22T09:01:00Z</time>
      </trkpt>
      <trkpt lat="44.39455" lon="5.81509">
        <ele>1136.42</ele>
        <time>2012-03-22T09:01:01Z</time>
      </trkpt>
      <trkpt lat="44.39455" lon="5.81511">
        <ele>1127.76</ele>
        <time>2012-03-22T09:01:03Z</time>
      </trkpt>
      <trkpt lat="44.39455" lon="5.81512">
        <ele>1134.49</ele>
        <time>2012-03-22T09:01:04Z</time>
      </trkpt>
      <trkpt lat="44.39455" lon="5.81516">
        <ele>1130.65</ele>
        <time>2012-03-22T09:01:06Z</time>
      </trkpt>
      <trkpt lat="44.39454" lon="5.81522">
        <ele>1134.01</ele>
        <time>2012-03-22T09:01:11Z</time>
      </trkpt>
      <trkpt lat="44.39454" lon="5.81523">
        <ele>1138.34</ele>
        <time>2012-03-22T09:01:12Z</time>
      </trkpt>
      <trkpt lat="44.39454" lon="5.81524">
        <ele>1135.94</ele>
        <time>2012-03-22T09:01:13Z</time>
      </trkpt>
      <trkpt lat="44.39454" lon="5.81527">
        <ele>1139.3</ele>
        <time>2012-03-22T09:01:16Z</time>
      </trkpt>
      <trkpt lat="44.39454" lon="5.81527">
        <ele>1133.05</ele>
        <time>2012-03-22T09:01:17Z</time>
      </trkpt>
      <trkpt lat="44.39454" lon="5.81528">
        <ele>1130.17</ele>
        <time>2012-03-22T09:01:18Z</time>
      </trkpt>
      <trkpt lat="44.39454" lon="5.81528">
        <ele>1135.94</ele>
        <time>2012-03-22T09:01:19Z</time>
      </trkpt>
      <trkpt lat="44.39454" lon="5.81528">
        <ele>1134.49</ele>
        <time>2012-03-22T09:01:20Z</time>
      </trkpt>
      <trkpt lat="44.39454" lon="5.81532">
        <ele>1138.34</ele>
        <time>2012-03-22T09:01:28Z</time>
      </trkpt>
      <trkpt lat="44.39454" lon="5.81533">
        <ele>1134.49</ele>
        <time>2012-03-22T09:01:29Z</time>
      </trkpt>
      <trkpt lat="44.39454" lon="5.81533">
        <ele>1139.78</ele>
        <time>2012-03-22T09:01:30Z</time>
      </trkpt>
      <trkpt lat="44.39453" lon="5.81535">
        <ele>1134.97</ele>
        <time>2012-03-22T09:01:32Z</time>
      </trkpt>
      <trkpt lat="44.39452" lon="5.81537">
        <ele>1138.34</ele>
        <time>2012-03-22T09:01:34Z</time>
      </trkpt>
      <trkpt lat="44.39452" lon="5.81538">
        <ele>1132.09</ele>
        <time>2012-03-22T09:01:35Z</time>
      </trkpt>
      <trkpt lat="44.39452" lon="5.81539">
        <ele>1135.45</ele>
        <time>2012-03-22T09:01:36Z</time>
      </trkpt>
      <trkpt lat="44.39452" lon="5.81539">
        <ele>1140.26</ele>
        <time>2012-03-22T09:01:37Z</time>
      </trkpt>
      <trkpt lat="44.39452" lon="5.8154">
        <ele>1129.69</ele>
        <time>2012-03-22T09:01:38Z</time>
      </trkpt>
      <trkpt lat="44.39452" lon="5.81542">
        <ele>1134.97</ele>
        <time>2012-03-22T09:01:39Z</time>
      </trkpt>
      <trkpt lat="44.39452" lon="5.81544">
        <ele>1137.86</ele>
        <time>2012-03-22T09:01:41Z</time>
      </trkpt>
      <trkpt lat="44.39447" lon="5.81552">
        <ele>1140.26</ele>
        <time>2012-03-22T09:01:51Z</time>
      </trkpt>
      <trkpt lat="44.39446" lon="5.81553">
        <ele>1139.3</ele>
        <time>2012-03-22T09:01:52Z</time>
      </trkpt>
      <trkpt lat="44.39445" lon="5.81553">
        <ele>1138.34</ele>
        <time>2012-03-22T09:01:54Z</time>
      </trkpt>
      <trkpt lat="44.39441" lon="5.81557">
        <ele>1142.66</ele>
        <time>2012-03-22T09:02:02Z</time>
      </trkpt>
      <trkpt lat="44.3944" lon="5.81558">
        <ele>1141.7</ele>
        <time>2012-03-22T09:02:03Z</time>
      </trkpt>
      <trkpt lat="44.3944" lon="5.81558">
        <ele>1136.42</ele>
        <time>2012-03-22T09:02:05Z</time>
      </trkpt>
      <trkpt lat="44.3944" lon="5.81558">
        <ele>1141.22</ele>
        <time>2012-03-22T09:02:06Z</time>
      </trkpt>
      <trkpt lat="44.39434" lon="5.81561">
        <ele>1141.7</ele>
        <time>2012-03-22T09:02:13Z</time>
      </trkpt>
      <trkpt lat="44.39433" lon="5.81561">
        <ele>1140.74</ele>
        <time>2012-03-22T09:02:15Z</time>
      </trkpt>
      <trkpt lat="44.39432" lon="5.81562">
        <ele>1146.03</ele>
        <time>2012-03-22T09:02:16Z</time>
      </trkpt>
      <trkpt lat="44.39432" lon="5.81562">
        <ele>1140.74</ele>
        <time>2012-03-22T09:02:17Z</time>
      </trkpt>
      <trkpt lat="44.39431" lon="5.81562">
        <ele>1147.47</ele>
        <time>2012-03-22T09:02:18Z</time>
      </trkpt>
      <trkpt lat="44.3943" lon="5.81563">
        <ele>1142.66</ele>
        <time>2012-03-22T09:02:19Z</time>
      </trkpt>
      <trkpt lat="44.39427" lon="5.81566">
        <ele>1147.47</ele>
        <time>2012-03-22T09:02:24Z</time>
      </trkpt>
      <trkpt lat="44.39427" lon="5.81566">
        <ele>1142.66</ele>
        <time>2012-03-22T09:02:25Z</time>
      </trkpt>
      <trkpt lat="44.39421" lon="5.8157">
        <ele>1139.78</ele>
        <time>2012-03-22T09:02:33Z</time>
      </trkpt>
      <trkpt lat="44.3942" lon="5.81571">
        <ele>1144.59</ele>
        <time>2012-03-22T09:02:34Z</time>
      </trkpt>
      <trkpt lat="44.39418" lon="5.81579">
        <ele>1144.11</ele>
        <time>2012-03-22T09:02:43Z</time>
      </trkpt>
      <trkpt lat="44.39418" lon="5.81581">
        <ele>1145.55</ele>
        <time>2012-03-22T09:02:46Z</time>
      </trkpt>
      <trkpt lat="44.39418" lon="5.81583">
        <ele>1148.91</ele>
        <time>2012-03-22T09:02:50Z</time>
      </trkpt>
      <trkpt lat="44.39418" lon="5.81583">
        <ele>1145.07</ele>
        <time>2012-03-22T09:02:51Z</time>
      </trkpt>
      <trkpt lat="44.39419" lon="5.81584">
        <ele>1148.91</ele>
        <time>2012-03-22T09:02:52Z</time>
      </trkpt>
      <trkpt lat="44.39419" lon="5.81589">
        <ele>1148.91</ele>
        <time>2012-03-22T09:02:56Z</time>
      </trkpt>
      <trkpt lat="44.39419" lon="5.81591">
        <ele>1145.07</ele>
        <time>2012-03-22T09:02:58Z</time>
      </trkpt>
      <trkpt lat="44.39419" lon="5.81593">
        <ele>1152.28</ele>
        <time>2012-03-22T09:03:01Z</time>
      </trkpt>
      <trkpt lat="44.39419" lon="5.81594">
        <ele>1144.11</ele>
        <time>2012-03-22T09:03:02Z</time>
      </trkpt>
      <trkpt lat="44.39419" lon="5.81595">
        <ele>1147.47</ele>
        <time>2012-03-22T09:03:03Z</time>
      </trkpt>
      <trkpt lat="44.39419" lon="5.81606">
        <ele>1146.99</ele>
        <time>2012-03-22T09:03:12Z</time>
      </trkpt>
      <trkpt lat="44.39419" lon="5.81606">
        <ele>1150.35</ele>
        <time>2012-03-22T09:03:13Z</time>
      </trkpt>
      <trkpt lat="44.39418" lon="5.81608">
        <ele>1145.55</ele>
        <time>2012-03-22T09:03:15Z</time>
      </trkpt>
      <trkpt lat="44.39418" lon="5.81609">
        <ele>1150.35</ele>
        <time>2012-03-22T09:03:16Z</time>
      </trkpt>
      <trkpt lat="44.39418" lon="5.8161">
        <ele>1148.91</ele>
        <time>2012-03-22T09:03:17Z</time>
      </trkpt>
      <trkpt lat="44.39417" lon="5.81619">
        <ele>1152.28</ele>
        <time>2012-03-22T09:03:25Z</time>
      </trkpt>
      <trkpt lat="44.39418" lon="5.81623">
        <ele>1157.08</ele>
        <time>2012-03-22T09:03:30Z</time>
      </trkpt>
      <trkpt lat="44.39418" lon="5.81623">
        <ele>1155.16</ele>
        <time>2012-03-22T09:03:31Z</time>
      </trkpt>
      <trkpt lat="44.39418" lon="5.81623">
        <ele>1150.35</ele>
        <time>2012-03-22T09:03:32Z</time>
      </trkpt>
      <trkpt lat="44.39418" lon="5.81624">
        <ele>1149.87</ele>
        <time>2012-03-22T09:03:33Z</time>
      </trkpt>
      <trkpt lat="44.39418" lon="5.81625">
        <ele>1153.72</ele>
        <time>2012-03-22T09:03:34Z</time>
      </trkpt>
      <trkpt lat="44.39418" lon="5.81628">
        <ele>1157.56</ele>
        <time>2012-03-22T09:03:44Z</time>
      </trkpt>
      <trkpt lat="44.39417" lon="5.81629">
        <ele>1151.8</ele>
        <time>2012-03-22T09:03:45Z</time>
      </trkpt>
      <trkpt lat="44.39418" lon="5.8163">
        <ele>1158.05</ele>
        <time>2012-03-22T09:03:48Z</time>
      </trkpt>
      <trkpt lat="44.39418" lon="5.81631">
        <ele>1152.28</ele>
        <time>2012-03-22T09:03:49Z</time>
      </trkpt>
      <trkpt lat="44.39418" lon="5.81632">
        <ele>1151.32</ele>
        <time>2012-03-22T09:03:51Z</time>
      </trkpt>
      <trkpt lat="44.39418" lon="5.81632">
        <ele>1152.28</ele>
        <time>2012-03-22T09:03:53Z</time>
      </trkpt>
      <trkpt lat="44.39418" lon="5.81632">
        <ele>1152.76</ele>
        <time>2012-03-22T09:04:05Z</time>
      </trkpt>
      <trkpt lat="44.39418" lon="5.81632">
        <ele>1151.8</ele>
        <time>2012-03-22T09:04:10Z</time>
      </trkpt>
      <trkpt lat="44.39418" lon="5.81632">
        <ele>1152.76</ele>
        <time>2012-03-22T09:04:26Z</time>
      </trkpt>
      <trkpt lat="44.39418" lon="5.81632">
        <ele>1156.6</ele>
        <time>2012-03-22T09:04:40Z</time>
      </trkpt>
      <trkpt lat="44.39418" lon="5.81632">
        <ele>1154.68</ele>
        <time>2012-03-22T09:04:41Z</time>
      </trkpt>
      <trkpt lat="44.39418" lon="5.81632">
        <ele>1149.87</ele>
        <time>2012-03-22T09:04:53Z</time>
      </trkpt>
      <trkpt lat="44.39418" lon="5.81632">
        <ele>1155.16</ele>
        <time>2012-03-22T09:04:54Z</time>
      </trkpt>
      <trkpt lat="44.39418" lon="5.81632">
        <ele>1155.16</ele>
        <time>2012-03-22T09:04:56Z</time>
      </trkpt>
      <trkpt lat="44.39418" lon="5.81632">
        <ele>1150.84</ele>
        <time>2012-03-22T09:04:57Z</time>
      </trkpt>
      <trkpt lat="44.39418" lon="5.81632">
        <ele>1154.68</ele>
        <time>2012-03-22T09:05:00Z</time>
      </trkpt>
      <trkpt lat="44.39418" lon="5.81632">
        <ele>1151.32</ele>
        <time>2012-03-22T09:05:02Z</time>
      </trkpt>
      <trkpt lat="44.39418" lon="5.81632">
        <ele>1156.6</ele>
        <time>2012-03-22T09:05:03Z</time>
      </trkpt>
      <trkpt lat="44.39418" lon="5.81633">
        <ele>1149.39</ele>
        <time>2012-03-22T09:05:04Z</time>
      </trkpt>
      <trkpt lat="44.39418" lon="5.81633">
        <ele>1156.12</ele>
        <time>2012-03-22T09:05:05Z</time>
      </trkpt>
      <trkpt lat="44.39418" lon="5.81633">
        <ele>1152.76</ele>
        <time>2012-03-22T09:05:06Z</time>
      </trkpt>
      <trkpt lat="44.39418" lon="5.81633">
        <ele>1139.78</ele>
        <time>2012-03-22T09:05:08Z</time>
      </trkpt>
      <trkpt lat="44.39418" lon="5.81633">
        <ele>1153.72</ele>
        <time>2012-03-22T09:05:09Z</time>
      </trkpt>
      <trkpt lat="44.39418" lon="5.81633">
        <ele>1152.76</ele>
        <time>2012-03-22T09:05:12Z</time>
      </trkpt>
      <trkpt lat="44.39418" lon="5.81633">
        <ele>1153.72</ele>
        <time>2012-03-22T09:05:14Z</time>
      </trkpt>
      <trkpt lat="44.39418" lon="5.81633">
        <ele>1153.24</ele>
        <time>2012-03-22T09:05:16Z</time>
      </trkpt>
      <trkpt lat="44.39417" lon="5.81634">
        <ele>1153.72</ele>
        <time>2012-03-22T09:05:33Z</time>
      </trkpt>
      <trkpt lat="44.39417" lon="5.81634">
        <ele>1154.2</ele>
        <time>2012-03-22T09:05:58Z</time>
      </trkpt>
      <trkpt lat="44.39417" lon="5.81634">
        <ele>1154.2</ele>
        <time>2012-03-22T09:06:57Z</time>
      </trkpt>
      <trkpt lat="44.39417" lon="5.81634">
        <ele>1155.64</ele>
        <time>2012-03-22T09:07:14Z</time>
      </trkpt>
      <trkpt lat="44.39417" lon="5.81634">
        <ele>1155.64</ele>
        <time>2012-03-22T09:07:32Z</time>
      </trkpt>
      <trkpt lat="44.39416" lon="5.81633">
        <ele>1156.12</ele>
        <time>2012-03-22T09:07:50Z</time>
      </trkpt>
      <trkpt lat="44.39415" lon="5.8163">
        <ele>1155.64</ele>
        <time>2012-03-22T09:08:18Z</time>
      </trkpt>
      <trkpt lat="44.39415" lon="5.81631">
        <ele>1156.6</ele>
        <time>2012-03-22T09:08:42Z</time>
      </trkpt>
      <trkpt lat="44.39415" lon="5.81631">
        <ele>1156.6</ele>
        <time>2012-03-22T09:09:05Z</time>
      </trkpt>
      <trkpt lat="44.39415" lon="5.8163">
        <ele>1157.56</ele>
        <time>2012-03-22T09:09:45Z</time>
      </trkpt>
      <trkpt lat="44.39415" lon="5.8163">
        <ele>1157.56</ele>
        <time>2012-03-22T09:09:46Z</time>
      </trkpt>
      <trkpt lat="44.39416" lon="5.81633">
        <ele>1157.08</ele>
        <time>2012-03-22T09:10:01Z</time>
      </trkpt>
      <trkpt lat="44.39416" lon="5.81633">
        <ele>1157.08</ele>
        <time>2012-03-22T09:10:02Z</time>
      </trkpt>
      <trkpt lat="44.39416" lon="5.81633">
        <ele>1160.45</ele>
        <time>2012-03-22T09:10:51Z</time>
      </trkpt>
      <trkpt lat="44.39415" lon="5.81635">
        <ele>1158.05</ele>
        <time>2012-03-22T09:11:02Z</time>
      </trkpt>
      <trkpt lat="44.39415" lon="5.81635">
        <ele>1158.05</ele>
        <time>2012-03-22T09:11:32Z</time>
      </trkpt>
      <trkpt lat="44.39416" lon="5.81636">
        <ele>1159.01</ele>
        <time>2012-03-22T09:12:02Z</time>
      </trkpt>
      <trkpt lat="44.39416" lon="5.81635">
        <ele>1159.01</ele>
        <time>2012-03-22T09:12:19Z</time>
      </trkpt>
      <trkpt lat="44.39416" lon="5.81635">
        <ele>1159.97</ele>
        <time>2012-03-22T09:12:32Z</time>
      </trkpt>
      <trkpt lat="44.39416" lon="5.81636">
        <ele>1160.93</ele>
        <time>2012-03-22T09:13:43Z</time>
      </trkpt>
      <trkpt lat="44.39416" lon="5.81635">
        <ele>1160.45</ele>
        <time>2012-03-22T09:14:22Z</time>
      </trkpt>
      <trkpt lat="44.39416" lon="5.81635">
        <ele>1161.41</ele>
        <time>2012-03-22T09:14:46Z</time>
      </trkpt>
      <trkpt lat="44.39418" lon="5.81641">
        <ele>1163.33</ele>
        <time>2012-03-22T09:15:21Z</time>
      </trkpt>
      <trkpt lat="44.39418" lon="5.81644">
        <ele>1159.49</ele>
        <time>2012-03-22T09:15:24Z</time>
      </trkpt>
      <trkpt lat="44.39419" lon="5.81645">
        <ele>1162.85</ele>
        <time>2012-03-22T09:15:25Z</time>
      </trkpt>
      <trkpt lat="44.39419" lon="5.81651">
        <ele>1166.7</ele>
        <time>2012-03-22T09:15:32Z</time>
      </trkpt>
      <trkpt lat="44.39419" lon="5.81651">
        <ele>1164.29</ele>
        <time>2012-03-22T09:15:33Z</time>
      </trkpt>
      <trkpt lat="44.3942" lon="5.81661">
        <ele>1165.26</ele>
        <time>2012-03-22T09:15:42Z</time>
      </trkpt>
      <trkpt lat="44.3942" lon="5.81662">
        <ele>1161.41</ele>
        <time>2012-03-22T09:15:44Z</time>
      </trkpt>
      <trkpt lat="44.3942" lon="5.81663">
        <ele>1164.29</ele>
        <time>2012-03-22T09:15:45Z</time>
      </trkpt>
      <trkpt lat="44.3942" lon="5.81668">
        <ele>1170.54</ele>
        <time>2012-03-22T09:15:54Z</time>
      </trkpt>
      <trkpt lat="44.3942" lon="5.81669">
        <ele>1162.85</ele>
        <time>2012-03-22T09:15:55Z</time>
      </trkpt>
      <trkpt lat="44.3942" lon="5.8167">
        <ele>1167.18</ele>
        <time>2012-03-22T09:15:56Z</time>
      </trkpt>
      <trkpt lat="44.3942" lon="5.81671">
        <ele>1171.02</ele>
        <time>2012-03-22T09:15:57Z</time>
      </trkpt>
      <trkpt lat="44.3942" lon="5.81672">
        <ele>1167.18</ele>
        <time>2012-03-22T09:15:58Z</time>
      </trkpt>
      <trkpt lat="44.3942" lon="5.81676">
        <ele>1168.62</ele>
        <time>2012-03-22T09:16:01Z</time>
      </trkpt>
      <trkpt lat="44.39419" lon="5.8168">
        <ele>1170.06</ele>
        <time>2012-03-22T09:16:04Z</time>
      </trkpt>
      <trkpt lat="44.39419" lon="5.81681">
        <ele>1165.26</ele>
        <time>2012-03-22T09:16:05Z</time>
      </trkpt>
      <trkpt lat="44.39418" lon="5.81682">
        <ele>1166.7</ele>
        <time>2012-03-22T09:16:06Z</time>
      </trkpt>
      <trkpt lat="44.39417" lon="5.81686">
        <ele>1171.98</ele>
        <time>2012-03-22T09:16:10Z</time>
      </trkpt>
      <trkpt lat="44.39417" lon="5.81686">
        <ele>1168.62</ele>
        <time>2012-03-22T09:16:11Z</time>
      </trkpt>
      <trkpt lat="44.39417" lon="5.81687">
        <ele>1171.98</ele>
        <time>2012-03-22T09:16:12Z</time>
      </trkpt>
      <trkpt lat="44.39416" lon="5.81688">
        <ele>1168.62</ele>
        <time>2012-03-22T09:16:13Z</time>
      </trkpt>
      <trkpt lat="44.39414" lon="5.81694">
        <ele>1174.87</ele>
        <time>2012-03-22T09:16:19Z</time>
      </trkpt>
      <trkpt lat="44.39414" lon="5.81695">
        <ele>1171.5</ele>
        <time>2012-03-22T09:16:20Z</time>
      </trkpt>
      <trkpt lat="44.39414" lon="5.81695">
        <ele>1167.66</ele>
        <time>2012-03-22T09:16:21Z</time>
      </trkpt>
      <trkpt lat="44.39414" lon="5.81696">
        <ele>1168.14</ele>
        <time>2012-03-22T09:16:22Z</time>
      </trkpt>
      <trkpt lat="44.39413" lon="5.81698">
        <ele>1173.91</ele>
        <time>2012-03-22T09:16:24Z</time>
      </trkpt>
      <trkpt lat="44.39413" lon="5.81698">
        <ele>1168.62</ele>
        <time>2012-03-22T09:16:25Z</time>
      </trkpt>
      <trkpt lat="44.39413" lon="5.81699">
        <ele>1171.98</ele>
        <time>2012-03-22T09:16:26Z</time>
      </trkpt>
      <trkpt lat="44.39413" lon="5.81699">
        <ele>1175.35</ele>
        <time>2012-03-22T09:16:27Z</time>
      </trkpt>
      <trkpt lat="44.39413" lon="5.81699">
        <ele>1171.02</ele>
        <time>2012-03-22T09:16:28Z</time>
      </trkpt>
      <trkpt lat="44.39411" lon="5.81709">
        <ele>1171.98</ele>
        <time>2012-03-22T09:16:38Z</time>
      </trkpt>
      <trkpt lat="44.3941" lon="5.81712">
        <ele>1179.19</ele>
        <time>2012-03-22T09:16:41Z</time>
      </trkpt>
      <trkpt lat="44.39409" lon="5.81713">
        <ele>1170.06</ele>
        <time>2012-03-22T09:16:42Z</time>
      </trkpt>
      <trkpt lat="44.39409" lon="5.81713">
        <ele>1175.35</ele>
        <time>2012-03-22T09:16:43Z</time>
      </trkpt>
      <trkpt lat="44.39408" lon="5.81717">
        <ele>1171.98</ele>
        <time>2012-03-22T09:16:47Z</time>
      </trkpt>
      <trkpt lat="44.39408" lon="5.81718">
        <ele>1179.19</ele>
        <time>2012-03-22T09:16:48Z</time>
      </trkpt>
      <trkpt lat="44.39407" lon="5.81718">
        <ele>1170.06</ele>
        <time>2012-03-22T09:16:49Z</time>
      </trkpt>
      <trkpt lat="44.39407" lon="5.81719">
        <ele>1173.43</ele>
        <time>2012-03-22T09:16:51Z</time>
      </trkpt>
      <trkpt lat="44.39407" lon="5.81719">
        <ele>1172.47</ele>
        <time>2012-03-22T09:16:52Z</time>
      </trkpt>
      <trkpt lat="44.39405" lon="5.81724">
        <ele>1176.79</ele>
        <time>2012-03-22T09:16:57Z</time>
      </trkpt>
      <trkpt lat="44.39405" lon="5.81725">
        <ele>1182.08</ele>
        <time>2012-03-22T09:16:58Z</time>
      </trkpt>
      <trkpt lat="44.39405" lon="5.81726">
        <ele>1172.95</ele>
        <time>2012-03-22T09:16:59Z</time>
      </trkpt>
      <trkpt lat="44.39405" lon="5.81726">
        <ele>1174.87</ele>
        <time>2012-03-22T09:17:00Z</time>
      </trkpt>
      <trkpt lat="44.39405" lon="5.8173">
        <ele>1171.98</ele>
        <time>2012-03-22T09:17:03Z</time>
      </trkpt>
      <trkpt lat="44.39404" lon="5.81732">
        <ele>1177.27</ele>
        <time>2012-03-22T09:17:06Z</time>
      </trkpt>
      <trkpt lat="44.39404" lon="5.81733">
        <ele>1172.95</ele>
        <time>2012-03-22T09:17:07Z</time>
      </trkpt>
      <trkpt lat="44.39404" lon="5.81734">
        <ele>1178.71</ele>
        <time>2012-03-22T09:17:08Z</time>
      </trkpt>
      <trkpt lat="44.39404" lon="5.81734">
        <ele>1182.56</ele>
        <time>2012-03-22T09:17:09Z</time>
      </trkpt>
      <trkpt lat="44.39404" lon="5.81735">
        <ele>1172.47</ele>
        <time>2012-03-22T09:17:10Z</time>
      </trkpt>
      <trkpt lat="44.39404" lon="5.81736">
        <ele>1173.91</ele>
        <time>2012-03-22T09:17:11Z</time>
      </trkpt>
      <trkpt lat="44.39403" lon="5.81738">
        <ele>1178.71</ele>
        <time>2012-03-22T09:17:13Z</time>
      </trkpt>
      <trkpt lat="44.39403" lon="5.8174">
        <ele>1175.35</ele>
        <time>2012-03-22T09:17:15Z</time>
      </trkpt>
      <trkpt lat="44.39403" lon="5.8174">
        <ele>1171.5</ele>
        <time>2012-03-22T09:17:16Z</time>
      </trkpt>
      <trkpt lat="44.39403" lon="5.81742">
        <ele>1175.35</ele>
        <time>2012-03-22T09:17:18Z</time>
      </trkpt>
      <trkpt lat="44.39403" lon="5.81743">
        <ele>1179.19</ele>
        <time>2012-03-22T09:17:19Z</time>
      </trkpt>
      <trkpt lat="44.39403" lon="5.81743">
        <ele>1177.75</ele>
        <time>2012-03-22T09:17:20Z</time>
      </trkpt>
      <trkpt lat="44.39403" lon="5.81744">
        <ele>1173.91</ele>
        <time>2012-03-22T09:17:22Z</time>
      </trkpt>
      <trkpt lat="44.39402" lon="5.81745">
        <ele>1174.39</ele>
        <time>2012-03-22T09:17:23Z</time>
      </trkpt>
      <trkpt lat="44.39402" lon="5.81748">
        <ele>1178.23</ele>
        <time>2012-03-22T09:17:27Z</time>
      </trkpt>
      <trkpt lat="44.39402" lon="5.81749">
        <ele>1178.23</ele>
        <time>2012-03-22T09:17:28Z</time>
      </trkpt>
      <trkpt lat="44.39401" lon="5.81754">
        <ele>1182.56</ele>
        <time>2012-03-22T09:17:33Z</time>
      </trkpt>
      <trkpt lat="44.39401" lon="5.81754">
        <ele>1186.88</ele>
        <time>2012-03-22T09:17:34Z</time>
      </trkpt>
      <trkpt lat="44.394" lon="5.81755">
        <ele>1177.75</ele>
        <time>2012-03-22T09:17:35Z</time>
      </trkpt>
      <trkpt lat="44.39398" lon="5.81764">
        <ele>1180.16</ele>
        <time>2012-03-22T09:17:44Z</time>
      </trkpt>
      <trkpt lat="44.39398" lon="5.81765">
        <ele>1176.31</ele>
        <time>2012-03-22T09:17:47Z</time>
      </trkpt>
      <trkpt lat="44.39398" lon="5.81766">
        <ele>1180.64</ele>
        <time>2012-03-22T09:17:48Z</time>
      </trkpt>
      <trkpt lat="44.39398" lon="5.81767">
        <ele>1180.64</ele>
        <time>2012-03-22T09:17:49Z</time>
      </trkpt>
      <trkpt lat="44.39398" lon="5.81768">
        <ele>1176.31</ele>
        <time>2012-03-22T09:17:50Z</time>
      </trkpt>
      <trkpt lat="44.39398" lon="5.81769">
        <ele>1180.64</ele>
        <time>2012-03-22T09:17:51Z</time>
      </trkpt>
      <trkpt lat="44.39398" lon="5.81776">
        <ele>1180.16</ele>
        <time>2012-03-22T09:17:59Z</time>
      </trkpt>
      <trkpt lat="44.39397" lon="5.81782">
        <ele>1176.79</ele>
        <time>2012-03-22T09:18:05Z</time>
      </trkpt>
      <trkpt lat="44.39398" lon="5.81783">
        <ele>1182.08</ele>
        <time>2012-03-22T09:18:06Z</time>
      </trkpt>
      <trkpt lat="44.39398" lon="5.81783">
        <ele>1187.37</ele>
        <time>2012-03-22T09:18:07Z</time>
      </trkpt>
      <trkpt lat="44.39398" lon="5.81783">
        <ele>1177.75</ele>
        <time>2012-03-22T09:18:08Z</time>
      </trkpt>
      <trkpt lat="44.39398" lon="5.81784">
        <ele>1184.48</ele>
        <time>2012-03-22T09:18:09Z</time>
      </trkpt>
      <trkpt lat="44.39398" lon="5.81785">
        <ele>1183.04</ele>
        <time>2012-03-22T09:18:13Z</time>
      </trkpt>
      <trkpt lat="44.39398" lon="5.81791">
        <ele>1187.37</ele>
        <time>2012-03-22T09:18:16Z</time>
      </trkpt>
      <trkpt lat="44.39398" lon="5.81792">
        <ele>1179.67</ele>
        <time>2012-03-22T09:18:17Z</time>
      </trkpt>
      <trkpt lat="44.39398" lon="5.81793">
        <ele>1183.52</ele>
        <time>2012-03-22T09:18:18Z</time>
      </trkpt>
      <trkpt lat="44.39398" lon="5.81794">
        <ele>1186.88</ele>
        <time>2012-03-22T09:18:20Z</time>
      </trkpt>
      <trkpt lat="44.39398" lon="5.81797">
        <ele>1183.52</ele>
        <time>2012-03-22T09:18:23Z</time>
      </trkpt>
      <trkpt lat="44.39399" lon="5.81806">
        <ele>1182.56</ele>
        <time>2012-03-22T09:18:31Z</time>
      </trkpt>
      <trkpt lat="44.39399" lon="5.81807">
        <ele>1186.4</ele>
        <time>2012-03-22T09:18:32Z</time>
      </trkpt>
      <trkpt lat="44.39399" lon="5.81807">
        <ele>1184.96</ele>
        <time>2012-03-22T09:18:33Z</time>
      </trkpt>
      <trkpt lat="44.39398" lon="5.81815">
        <ele>1189.77</ele>
        <time>2012-03-22T09:18:42Z</time>
      </trkpt>
      <trkpt lat="44.39398" lon="5.81816">
        <ele>1185.44</ele>
        <time>2012-03-22T09:18:43Z</time>
      </trkpt>
      <trkpt lat="44.39398" lon="5.81818">
        <ele>1184</ele>
        <time>2012-03-22T09:18:47Z</time>
      </trkpt>
      <trkpt lat="44.39399" lon="5.81822">
        <ele>1186.88</ele>
        <time>2012-03-22T09:18:51Z</time>
      </trkpt>
      <trkpt lat="44.39399" lon="5.81823">
        <ele>1187.37</ele>
        <time>2012-03-22T09:18:52Z</time>
      </trkpt>
      <trkpt lat="44.394" lon="5.81833">
        <ele>1189.29</ele>
        <time>2012-03-22T09:19:02Z</time>
      </trkpt>
      <trkpt lat="44.39401" lon="5.81838">
        <ele>1183.52</ele>
        <time>2012-03-22T09:19:06Z</time>
      </trkpt>
      <trkpt lat="44.39402" lon="5.8184">
        <ele>1194.09</ele>
        <time>2012-03-22T09:19:08Z</time>
      </trkpt>
      <trkpt lat="44.39402" lon="5.81841">
        <ele>1184.96</ele>
        <time>2012-03-22T09:19:09Z</time>
      </trkpt>
      <trkpt lat="44.39403" lon="5.81843">
        <ele>1188.33</ele>
        <time>2012-03-22T09:19:11Z</time>
      </trkpt>
      <trkpt lat="44.39403" lon="5.81843">
        <ele>1184.96</ele>
        <time>2012-03-22T09:19:12Z</time>
      </trkpt>
      <trkpt lat="44.39403" lon="5.81843">
        <ele>1188.33</ele>
        <time>2012-03-22T09:19:13Z</time>
      </trkpt>
      <trkpt lat="44.39404" lon="5.81846">
        <ele>1189.29</ele>
        <time>2012-03-22T09:19:17Z</time>
      </trkpt>
      <trkpt lat="44.39404" lon="5.81847">
        <ele>1185.44</ele>
        <time>2012-03-22T09:19:18Z</time>
      </trkpt>
      <trkpt lat="44.39404" lon="5.81848">
        <ele>1188.33</ele>
        <time>2012-03-22T09:19:21Z</time>
      </trkpt>
      <trkpt lat="44.39404" lon="5.81848">
        <ele>1193.13</ele>
        <time>2012-03-22T09:19:23Z</time>
      </trkpt>
      <trkpt lat="44.39404" lon="5.81848">
        <ele>1187.85</ele>
        <time>2012-03-22T09:19:24Z</time>
      </trkpt>
      <trkpt lat="44.39404" lon="5.81848">
        <ele>1192.65</ele>
        <time>2012-03-22T09:19:25Z</time>
      </trkpt>
      <trkpt lat="44.39404" lon="5.81849">
        <ele>1186.4</ele>
        <time>2012-03-22T09:19:28Z</time>
      </trkpt>
      <trkpt lat="44.39404" lon="5.81849">
        <ele>1189.77</ele>
        <time>2012-03-22T09:19:29Z</time>
      </trkpt>
      <trkpt lat="44.39404" lon="5.81851">
        <ele>1190.25</ele>
        <time>2012-03-22T09:19:34Z</time>
      </trkpt>
      <trkpt lat="44.39404" lon="5.81852">
        <ele>1194.58</ele>
        <time>2012-03-22T09:19:35Z</time>
      </trkpt>
      <trkpt lat="44.39404" lon="5.81852">
        <ele>1191.21</ele>
        <time>2012-03-22T09:19:36Z</time>
      </trkpt>
      <trkpt lat="44.39404" lon="5.81852">
        <ele>1186.4</ele>
        <time>2012-03-22T09:19:42Z</time>
      </trkpt>
      <trkpt lat="44.39404" lon="5.81853">
        <ele>1189.77</ele>
        <time>2012-03-22T09:19:43Z</time>
      </trkpt>
      <trkpt lat="44.39404" lon="5.81853">
        <ele>1194.58</ele>
        <time>2012-03-22T09:19:44Z</time>
      </trkpt>
      <trkpt lat="44.39404" lon="5.81853">
        <ele>1188.81</ele>
        <time>2012-03-22T09:19:45Z</time>
      </trkpt>
      <trkpt lat="44.39405" lon="5.81856">
        <ele>1192.17</ele>
        <time>2012-03-22T09:19:52Z</time>
      </trkpt>
      <trkpt lat="44.39405" lon="5.81857">
        <ele>1199.38</ele>
        <time>2012-03-22T09:19:53Z</time>
      </trkpt>
      <trkpt lat="44.39404" lon="5.81859">
        <ele>1186.88</ele>
        <time>2012-03-22T09:19:54Z</time>
      </trkpt>
      <trkpt lat="44.39404" lon="5.81859">
        <ele>1193.61</ele>
        <time>2012-03-22T09:19:55Z</time>
      </trkpt>
      <trkpt lat="44.39404" lon="5.81861">
        <ele>1189.29</ele>
        <time>2012-03-22T09:19:56Z</time>
      </trkpt>
      <trkpt lat="44.39404" lon="5.81864">
        <ele>1185.44</ele>
        <time>2012-03-22T09:19:58Z</time>
      </trkpt>
      <trkpt lat="44.39404" lon="5.81866">
        <ele>1190.25</ele>
        <time>2012-03-22T09:19:59Z</time>
      </trkpt>
      <trkpt lat="44.39403" lon="5.8187">
        <ele>1194.09</ele>
        <time>2012-03-22T09:20:01Z</time>
      </trkpt>
      <trkpt lat="44.39403" lon="5.81872">
        <ele>1189.77</ele>
        <time>2012-03-22T09:20:02Z</time>
      </trkpt>
      <trkpt lat="44.39403" lon="5.81873">
        <ele>1193.13</ele>
        <time>2012-03-22T09:20:03Z</time>
      </trkpt>
      <trkpt lat="44.39402" lon="5.81876">
        <ele>1189.77</ele>
        <time>2012-03-22T09:20:06Z</time>
      </trkpt>
      <trkpt lat="44.39402" lon="5.81876">
        <ele>1202.27</ele>
        <time>2012-03-22T09:20:07Z</time>
      </trkpt>
      <trkpt lat="44.39402" lon="5.81878">
        <ele>1190.25</ele>
        <time>2012-03-22T09:20:08Z</time>
      </trkpt>
      <trkpt lat="44.39403" lon="5.81879">
        <ele>1196.02</ele>
        <time>2012-03-22T09:20:10Z</time>
      </trkpt>
      <trkpt lat="44.39403" lon="5.81879">
        <ele>1196.02</ele>
        <time>2012-03-22T09:20:11Z</time>
      </trkpt>
      <trkpt lat="44.39403" lon="5.81879">
        <ele>1192.17</ele>
        <time>2012-03-22T09:20:12Z</time>
      </trkpt>
      <trkpt lat="44.39403" lon="5.81879">
        <ele>1192.65</ele>
        <time>2012-03-22T09:20:13Z</time>
      </trkpt>
      <trkpt lat="44.39402" lon="5.81883">
        <ele>1195.06</ele>
        <time>2012-03-22T09:20:17Z</time>
      </trkpt>
      <trkpt lat="44.39402" lon="5.81885">
        <ele>1194.09</ele>
        <time>2012-03-22T09:20:19Z</time>
      </trkpt>
      <trkpt lat="44.39402" lon="5.81885">
        <ele>1188.33</ele>
        <time>2012-03-22T09:20:21Z</time>
      </trkpt>
      <trkpt lat="44.39402" lon="5.81886">
        <ele>1195.06</ele>
        <time>2012-03-22T09:20:22Z</time>
      </trkpt>
      <trkpt lat="44.39401" lon="5.81889">
        <ele>1191.21</ele>
        <time>2012-03-22T09:20:27Z</time>
      </trkpt>
      <trkpt lat="44.39401" lon="5.8189">
        <ele>1194.58</ele>
        <time>2012-03-22T09:20:28Z</time>
      </trkpt>
      <trkpt lat="44.39401" lon="5.8189">
        <ele>1198.9</ele>
        <time>2012-03-22T09:20:29Z</time>
      </trkpt>
      <trkpt lat="44.39401" lon="5.81891">
        <ele>1193.61</ele>
        <time>2012-03-22T09:20:30Z</time>
      </trkpt>
      <trkpt lat="44.39401" lon="5.81891">
        <ele>1201.3</ele>
        <time>2012-03-22T09:20:31Z</time>
      </trkpt>
      <trkpt lat="44.39401" lon="5.81892">
        <ele>1193.61</ele>
        <time>2012-03-22T09:20:32Z</time>
      </trkpt>
      <trkpt lat="44.39401" lon="5.81894">
        <ele>1196.98</ele>
        <time>2012-03-22T09:20:33Z</time>
      </trkpt>
      <trkpt lat="44.39401" lon="5.81894">
        <ele>1202.75</ele>
        <time>2012-03-22T09:20:34Z</time>
      </trkpt>
      <trkpt lat="44.39401" lon="5.81894">
        <ele>1191.69</ele>
        <time>2012-03-22T09:20:35Z</time>
      </trkpt>
      <trkpt lat="44.39401" lon="5.81895">
        <ele>1194.58</ele>
        <time>2012-03-22T09:20:36Z</time>
      </trkpt>
      <trkpt lat="44.39401" lon="5.81898">
        <ele>1197.94</ele>
        <time>2012-03-22T09:20:38Z</time>
      </trkpt>
      <trkpt lat="44.39401" lon="5.81901">
        <ele>1191.21</ele>
        <time>2012-03-22T09:20:41Z</time>
      </trkpt>
      <trkpt lat="44.39401" lon="5.81902">
        <ele>1196.98</ele>
        <time>2012-03-22T09:20:42Z</time>
      </trkpt>
      <trkpt lat="44.39401" lon="5.81904">
        <ele>1192.17</ele>
        <time>2012-03-22T09:20:44Z</time>
      </trkpt>
      <trkpt lat="44.39401" lon="5.81904">
        <ele>1195.54</ele>
        <time>2012-03-22T09:20:45Z</time>
      </trkpt>
      <trkpt lat="44.394" lon="5.81907">
        <ele>1199.38</ele>
        <time>2012-03-22T09:20:47Z</time>
      </trkpt>
      <trkpt lat="44.394" lon="5.81908">
        <ele>1197.94</ele>
        <time>2012-03-22T09:20:48Z</time>
      </trkpt>
      <trkpt lat="44.394" lon="5.81912">
        <ele>1192.65</ele>
        <time>2012-03-22T09:20:53Z</time>
      </trkpt>
      <trkpt lat="44.394" lon="5.81912">
        <ele>1196.98</ele>
        <time>2012-03-22T09:20:54Z</time>
      </trkpt>
      <trkpt lat="44.394" lon="5.81919">
        <ele>1199.86</ele>
        <time>2012-03-22T09:20:59Z</time>
      </trkpt>
      <trkpt lat="44.39399" lon="5.81923">
        <ele>1196.98</ele>
        <time>2012-03-22T09:21:03Z</time>
      </trkpt>
      <trkpt lat="44.39398" lon="5.81925">
        <ele>1201.3</ele>
        <time>2012-03-22T09:21:05Z</time>
      </trkpt>
      <trkpt lat="44.39397" lon="5.81926">
        <ele>1196.98</ele>
        <time>2012-03-22T09:21:07Z</time>
      </trkpt>
      <trkpt lat="44.39397" lon="5.81927">
        <ele>1201.3</ele>
        <time>2012-03-22T09:21:08Z</time>
      </trkpt>
      <trkpt lat="44.39397" lon="5.81928">
        <ele>1200.34</ele>
        <time>2012-03-22T09:21:09Z</time>
      </trkpt>
      <trkpt lat="44.39396" lon="5.81929">
        <ele>1196.98</ele>
        <time>2012-03-22T09:21:11Z</time>
      </trkpt>
      <trkpt lat="44.39396" lon="5.81931">
        <ele>1199.86</ele>
        <time>2012-03-22T09:21:14Z</time>
      </trkpt>
      <trkpt lat="44.39396" lon="5.81934">
        <ele>1204.19</ele>
        <time>2012-03-22T09:21:17Z</time>
      </trkpt>
      <trkpt lat="44.39395" lon="5.81935">
        <ele>1197.46</ele>
        <time>2012-03-22T09:21:18Z</time>
      </trkpt>
      <trkpt lat="44.39395" lon="5.81937">
        <ele>1200.34</ele>
        <time>2012-03-22T09:21:20Z</time>
      </trkpt>
      <trkpt lat="44.39395" lon="5.81939">
        <ele>1205.63</ele>
        <time>2012-03-22T09:21:22Z</time>
      </trkpt>
      <trkpt lat="44.39395" lon="5.81941">
        <ele>1198.9</ele>
        <time>2012-03-22T09:21:23Z</time>
      </trkpt>
      <trkpt lat="44.39395" lon="5.81942">
        <ele>1203.23</ele>
        <time>2012-03-22T09:21:24Z</time>
      </trkpt>
      <trkpt lat="44.39395" lon="5.81943">
        <ele>1208.03</ele>
        <time>2012-03-22T09:21:25Z</time>
      </trkpt>
      <trkpt lat="44.39395" lon="5.81944">
        <ele>1199.86</ele>
        <time>2012-03-22T09:21:26Z</time>
      </trkpt>
      <trkpt lat="44.39394" lon="5.81945">
        <ele>1201.3</ele>
        <time>2012-03-22T09:21:27Z</time>
      </trkpt>
      <trkpt lat="44.39394" lon="5.81953">
        <ele>1204.67</ele>
        <time>2012-03-22T09:21:36Z</time>
      </trkpt>
      <trkpt lat="44.39393" lon="5.81957">
        <ele>1202.27</ele>
        <time>2012-03-22T09:21:46Z</time>
      </trkpt>
      <trkpt lat="44.39393" lon="5.81958">
        <ele>1206.11</ele>
        <time>2012-03-22T09:21:47Z</time>
      </trkpt>
      <trkpt lat="44.39392" lon="5.8196">
        <ele>1202.27</ele>
        <time>2012-03-22T09:21:51Z</time>
      </trkpt>
      <trkpt lat="44.39392" lon="5.8196">
        <ele>1206.59</ele>
        <time>2012-03-22T09:21:54Z</time>
      </trkpt>
      <trkpt lat="44.39393" lon="5.81962">
        <ele>1201.79</ele>
        <time>2012-03-22T09:21:55Z</time>
      </trkpt>
      <trkpt lat="44.39393" lon="5.81962">
        <ele>1202.27</ele>
        <time>2012-03-22T09:21:56Z</time>
      </trkpt>
      <trkpt lat="44.39393" lon="5.81963">
        <ele>1205.63</ele>
        <time>2012-03-22T09:21:57Z</time>
      </trkpt>
      <trkpt lat="44.39393" lon="5.81964">
        <ele>1204.67</ele>
        <time>2012-03-22T09:21:58Z</time>
      </trkpt>
      <trkpt lat="44.39392" lon="5.81975">
        <ele>1209.48</ele>
        <time>2012-03-22T09:22:09Z</time>
      </trkpt>
      <trkpt lat="44.39392" lon="5.81976">
        <ele>1205.15</ele>
        <time>2012-03-22T09:22:10Z</time>
      </trkpt>
      <trkpt lat="44.39392" lon="5.81977">
        <ele>1210.44</ele>
        <time>2012-03-22T09:22:12Z</time>
      </trkpt>
      <trkpt lat="44.39392" lon="5.81978">
        <ele>1206.59</ele>
        <time>2012-03-22T09:22:13Z</time>
      </trkpt>
      <trkpt lat="44.39392" lon="5.81984">
        <ele>1209.48</ele>
        <time>2012-03-22T09:22:22Z</time>
      </trkpt>
      <trkpt lat="44.39392" lon="5.81985">
        <ele>1206.11</ele>
        <time>2012-03-22T09:22:23Z</time>
      </trkpt>
      <trkpt lat="44.39392" lon="5.81986">
        <ele>1213.8</ele>
        <time>2012-03-22T09:22:24Z</time>
      </trkpt>
      <trkpt lat="44.39392" lon="5.81987">
        <ele>1208.03</ele>
        <time>2012-03-22T09:22:25Z</time>
      </trkpt>
      <trkpt lat="44.39391" lon="5.8199">
        <ele>1211.88</ele>
        <time>2012-03-22T09:22:31Z</time>
      </trkpt>
      <trkpt lat="44.39391" lon="5.81991">
        <ele>1211.4</ele>
        <time>2012-03-22T09:22:32Z</time>
      </trkpt>
      <trkpt lat="44.3939" lon="5.81993">
        <ele>1204.67</ele>
        <time>2012-03-22T09:22:34Z</time>
      </trkpt>
      <trkpt lat="44.3939" lon="5.81994">
        <ele>1212.36</ele>
        <time>2012-03-22T09:22:35Z</time>
      </trkpt>
      <trkpt lat="44.3939" lon="5.81995">
        <ele>1216.21</ele>
        <time>2012-03-22T09:22:36Z</time>
      </trkpt>
      <trkpt lat="44.3939" lon="5.81997">
        <ele>1209.96</ele>
        <time>2012-03-22T09:22:37Z</time>
      </trkpt>
      <trkpt lat="44.3939" lon="5.81998">
        <ele>1210.44</ele>
        <time>2012-03-22T09:22:38Z</time>
      </trkpt>
      <trkpt lat="44.39389" lon="5.82006">
        <ele>1214.76</ele>
        <time>2012-03-22T09:22:45Z</time>
      </trkpt>
      <trkpt lat="44.39389" lon="5.82007">
        <ele>1206.11</ele>
        <time>2012-03-22T09:22:46Z</time>
      </trkpt>
      <trkpt lat="44.39389" lon="5.82008">
        <ele>1209.96</ele>
        <time>2012-03-22T09:22:47Z</time>
      </trkpt>
      <trkpt lat="44.39389" lon="5.82013">
        <ele>1212.36</ele>
        <time>2012-03-22T09:22:53Z</time>
      </trkpt>
      <trkpt lat="44.39389" lon="5.82017">
        <ele>1207.55</ele>
        <time>2012-03-22T09:22:59Z</time>
      </trkpt>
      <trkpt lat="44.39389" lon="5.82018">
        <ele>1211.4</ele>
        <time>2012-03-22T09:23:00Z</time>
      </trkpt>
      <trkpt lat="44.39387" lon="5.82027">
        <ele>1215.72</ele>
        <time>2012-03-22T09:23:08Z</time>
      </trkpt>
      <trkpt lat="44.39387" lon="5.82027">
        <ele>1219.09</ele>
        <time>2012-03-22T09:23:09Z</time>
      </trkpt>
      <trkpt lat="44.39387" lon="5.82027">
        <ele>1209.48</ele>
        <time>2012-03-22T09:23:10Z</time>
      </trkpt>
      <trkpt lat="44.39387" lon="5.82028">
        <ele>1213.8</ele>
        <time>2012-03-22T09:23:11Z</time>
      </trkpt>
      <trkpt lat="44.39387" lon="5.82032">
        <ele>1209.48</ele>
        <time>2012-03-22T09:23:16Z</time>
      </trkpt>
      <trkpt lat="44.39388" lon="5.82033">
        <ele>1213.32</ele>
        <time>2012-03-22T09:23:17Z</time>
      </trkpt>
      <trkpt lat="44.39386" lon="5.8204">
        <ele>1213.8</ele>
        <time>2012-03-22T09:23:28Z</time>
      </trkpt>
      <trkpt lat="44.39386" lon="5.82045">
        <ele>1212.84</ele>
        <time>2012-03-22T09:23:37Z</time>
      </trkpt>
      <trkpt lat="44.39385" lon="5.82049">
        <ele>1218.61</ele>
        <time>2012-03-22T09:23:42Z</time>
      </trkpt>
      <trkpt lat="44.39385" lon="5.82049">
        <ele>1216.69</ele>
        <time>2012-03-22T09:23:43Z</time>
      </trkpt>
      <trkpt lat="44.39385" lon="5.82049">
        <ele>1213.32</ele>
        <time>2012-03-22T09:23:45Z</time>
      </trkpt>
      <trkpt lat="44.39384" lon="5.8205">
        <ele>1214.76</ele>
        <time>2012-03-22T09:23:46Z</time>
      </trkpt>
      <trkpt lat="44.39384" lon="5.82051">
        <ele>1220.05</ele>
        <time>2012-03-22T09:23:47Z</time>
      </trkpt>
      <trkpt lat="44.39384" lon="5.82052">
        <ele>1224.86</ele>
        <time>2012-03-22T09:23:51Z</time>
      </trkpt>
      <trkpt lat="44.39384" lon="5.82052">
        <ele>1214.76</ele>
        <time>2012-03-22T09:23:52Z</time>
      </trkpt>
      <trkpt lat="44.39385" lon="5.82053">
        <ele>1220.05</ele>
        <time>2012-03-22T09:23:53Z</time>
      </trkpt>
      <trkpt lat="44.39385" lon="5.82058">
        <ele>1214.28</ele>
        <time>2012-03-22T09:23:58Z</time>
      </trkpt>
      <trkpt lat="44.39385" lon="5.82059">
        <ele>1217.65</ele>
        <time>2012-03-22T09:23:59Z</time>
      </trkpt>
      <trkpt lat="44.39385" lon="5.82062">
        <ele>1221.49</ele>
        <time>2012-03-22T09:24:02Z</time>
      </trkpt>
      <trkpt lat="44.39385" lon="5.82062">
        <ele>1226.3</ele>
        <time>2012-03-22T09:24:03Z</time>
      </trkpt>
      <trkpt lat="44.39385" lon="5.82064">
        <ele>1218.13</ele>
        <time>2012-03-22T09:24:04Z</time>
      </trkpt>
      <trkpt lat="44.39385" lon="5.82064">
        <ele>1222.93</ele>
        <time>2012-03-22T09:24:05Z</time>
      </trkpt>
      <trkpt lat="44.39385" lon="5.82064">
        <ele>1215.72</ele>
        <time>2012-03-22T09:24:06Z</time>
      </trkpt>
      <trkpt lat="44.39385" lon="5.82065">
        <ele>1223.42</ele>
        <time>2012-03-22T09:24:07Z</time>
      </trkpt>
      <trkpt lat="44.39385" lon="5.82067">
        <ele>1217.17</ele>
        <time>2012-03-22T09:24:09Z</time>
      </trkpt>
      <trkpt lat="44.39385" lon="5.82068">
        <ele>1219.57</ele>
        <time>2012-03-22T09:24:10Z</time>
      </trkpt>
      <trkpt lat="44.39384" lon="5.8207">
        <ele>1216.69</ele>
        <time>2012-03-22T09:24:12Z</time>
      </trkpt>
      <trkpt lat="44.39384" lon="5.82072">
        <ele>1223.9</ele>
        <time>2012-03-22T09:24:14Z</time>
      </trkpt>
      <trkpt lat="44.39384" lon="5.82073">
        <ele>1217.65</ele>
        <time>2012-03-22T09:24:15Z</time>
      </trkpt>
      <trkpt lat="44.39383" lon="5.82074">
        <ele>1213.8</ele>
        <time>2012-03-22T09:24:16Z</time>
      </trkpt>
      <trkpt lat="44.39383" lon="5.82075">
        <ele>1220.05</ele>
        <time>2012-03-22T09:24:17Z</time>
      </trkpt>
      <trkpt lat="44.39383" lon="5.82078">
        <ele>1216.69</ele>
        <time>2012-03-22T09:24:19Z</time>
      </trkpt>
      <trkpt lat="44.39383" lon="5.82079">
        <ele>1221.97</ele>
        <time>2012-03-22T09:24:20Z</time>
      </trkpt>
      <trkpt lat="44.39383" lon="5.82079">
        <ele>1218.61</ele>
        <time>2012-03-22T09:24:21Z</time>
      </trkpt>
      <trkpt lat="44.39384" lon="5.82083">
        <ele>1220.53</ele>
        <time>2012-03-22T09:24:27Z</time>
      </trkpt>
      <trkpt lat="44.39384" lon="5.82083">
        <ele>1217.17</ele>
        <time>2012-03-22T09:24:29Z</time>
      </trkpt>
      <trkpt lat="44.39384" lon="5.82083">
        <ele>1223.9</ele>
        <time>2012-03-22T09:24:30Z</time>
      </trkpt>
      <trkpt lat="44.39384" lon="5.82084">
        <ele>1220.05</ele>
        <time>2012-03-22T09:24:31Z</time>
      </trkpt>
      <trkpt lat="44.39383" lon="5.82089">
        <ele>1225.34</ele>
        <time>2012-03-22T09:24:40Z</time>
      </trkpt>
      <trkpt lat="44.39383" lon="5.8209">
        <ele>1224.38</ele>
        <time>2012-03-22T09:24:41Z</time>
      </trkpt>
      <trkpt lat="44.39383" lon="5.82093">
        <ele>1220.53</ele>
        <time>2012-03-22T09:24:44Z</time>
      </trkpt>
      <trkpt lat="44.39382" lon="5.82094">
        <ele>1221.01</ele>
        <time>2012-03-22T09:24:45Z</time>
      </trkpt>
      <trkpt lat="44.39382" lon="5.82098">
        <ele>1232.07</ele>
        <time>2012-03-22T09:24:51Z</time>
      </trkpt>
      <trkpt lat="44.39382" lon="5.82099">
        <ele>1220.05</ele>
        <time>2012-03-22T09:24:52Z</time>
      </trkpt>
      <trkpt lat="44.39382" lon="5.82101">
        <ele>1226.3</ele>
        <time>2012-03-22T09:24:53Z</time>
      </trkpt>
      <trkpt lat="44.39382" lon="5.82101">
        <ele>1229.66</ele>
        <time>2012-03-22T09:24:54Z</time>
      </trkpt>
      <trkpt lat="44.39382" lon="5.82102">
        <ele>1220.53</ele>
        <time>2012-03-22T09:24:55Z</time>
      </trkpt>
      <trkpt lat="44.39381" lon="5.82104">
        <ele>1231.11</ele>
        <time>2012-03-22T09:24:56Z</time>
      </trkpt>
      <trkpt lat="44.39381" lon="5.82105">
        <ele>1222.93</ele>
        <time>2012-03-22T09:24:57Z</time>
      </trkpt>
      <trkpt lat="44.39381" lon="5.82106">
        <ele>1228.7</ele>
        <time>2012-03-22T09:24:58Z</time>
      </trkpt>
      <trkpt lat="44.39381" lon="5.82107">
        <ele>1233.51</ele>
        <time>2012-03-22T09:24:59Z</time>
      </trkpt>
      <trkpt lat="44.39381" lon="5.82107">
        <ele>1223.42</ele>
        <time>2012-03-22T09:25:00Z</time>
      </trkpt>
      <trkpt lat="44.39381" lon="5.82108">
        <ele>1223.9</ele>
        <time>2012-03-22T09:25:01Z</time>
      </trkpt>
      <trkpt lat="44.3938" lon="5.8211">
        <ele>1220.53</ele>
        <time>2012-03-22T09:25:04Z</time>
      </trkpt>
      <trkpt lat="44.3938" lon="5.82111">
        <ele>1224.86</ele>
        <time>2012-03-22T09:25:05Z</time>
      </trkpt>
      <trkpt lat="44.3938" lon="5.82115">
        <ele>1221.49</ele>
        <time>2012-03-22T09:25:09Z</time>
      </trkpt>
      <trkpt lat="44.3938" lon="5.82117">
        <ele>1227.74</ele>
        <time>2012-03-22T09:25:10Z</time>
      </trkpt>
      <trkpt lat="44.3938" lon="5.82117">
        <ele>1232.07</ele>
        <time>2012-03-22T09:25:11Z</time>
      </trkpt>
      <trkpt lat="44.39379" lon="5.82118">
        <ele>1225.82</ele>
        <time>2012-03-22T09:25:12Z</time>
      </trkpt>
      <trkpt lat="44.39379" lon="5.82122">
        <ele>1229.66</ele>
        <time>2012-03-22T09:25:15Z</time>
      </trkpt>
      <trkpt lat="44.39379" lon="5.82123">
        <ele>1226.3</ele>
        <time>2012-03-22T09:25:16Z</time>
      </trkpt>
      <trkpt lat="44.39379" lon="5.82124">
        <ele>1221.97</ele>
        <time>2012-03-22T09:25:17Z</time>
      </trkpt>
      <trkpt lat="44.39379" lon="5.82125">
        <ele>1225.82</ele>
        <time>2012-03-22T09:25:18Z</time>
      </trkpt>
      <trkpt lat="44.39379" lon="5.82129">
        <ele>1229.18</ele>
        <time>2012-03-22T09:25:24Z</time>
      </trkpt>
      <trkpt lat="44.39379" lon="5.8213">
        <ele>1223.9</ele>
        <time>2012-03-22T09:25:25Z</time>
      </trkpt>
      <trkpt lat="44.39379" lon="5.82131">
        <ele>1227.26</ele>
        <time>2012-03-22T09:25:26Z</time>
      </trkpt>
      <trkpt lat="44.39379" lon="5.82132">
        <ele>1231.59</ele>
        <time>2012-03-22T09:25:27Z</time>
      </trkpt>
      <trkpt lat="44.39379" lon="5.82132">
        <ele>1225.82</ele>
        <time>2012-03-22T09:25:28Z</time>
      </trkpt>
      <trkpt lat="44.39379" lon="5.82133">
        <ele>1231.59</ele>
        <time>2012-03-22T09:25:29Z</time>
      </trkpt>
      <trkpt lat="44.39379" lon="5.82134">
        <ele>1225.82</ele>
        <time>2012-03-22T09:25:30Z</time>
      </trkpt>
      <trkpt lat="44.39379" lon="5.82135">
        <ele>1229.18</ele>
        <time>2012-03-22T09:25:31Z</time>
      </trkpt>
      <trkpt lat="44.39378" lon="5.82146">
        <ele>1228.22</ele>
        <time>2012-03-22T09:25:43Z</time>
      </trkpt>
      <trkpt lat="44.39378" lon="5.82153">
        <ele>1226.78</ele>
        <time>2012-03-22T09:25:53Z</time>
      </trkpt>
      <trkpt lat="44.39378" lon="5.82154">
        <ele>1233.99</ele>
        <time>2012-03-22T09:25:54Z</time>
      </trkpt>
      <trkpt lat="44.39378" lon="5.82154">
        <ele>1231.59</ele>
        <time>2012-03-22T09:25:55Z</time>
      </trkpt>
      <trkpt lat="44.39378" lon="5.82155">
        <ele>1235.91</ele>
        <time>2012-03-22T09:25:56Z</time>
      </trkpt>
      <trkpt lat="44.39378" lon="5.82155">
        <ele>1229.66</ele>
        <time>2012-03-22T09:25:57Z</time>
      </trkpt>
      <trkpt lat="44.39377" lon="5.82157">
        <ele>1234.95</ele>
        <time>2012-03-22T09:25:59Z</time>
      </trkpt>
      <trkpt lat="44.39377" lon="5.82159">
        <ele>1228.22</ele>
        <time>2012-03-22T09:26:00Z</time>
      </trkpt>
      <trkpt lat="44.39377" lon="5.8216">
        <ele>1236.39</ele>
        <time>2012-03-22T09:26:02Z</time>
      </trkpt>
      <trkpt lat="44.39377" lon="5.82161">
        <ele>1228.7</ele>
        <time>2012-03-22T09:26:03Z</time>
      </trkpt>
      <trkpt lat="44.39377" lon="5.82162">
        <ele>1232.07</ele>
        <time>2012-03-22T09:26:04Z</time>
      </trkpt>
      <trkpt lat="44.39378" lon="5.82164">
        <ele>1237.83</ele>
        <time>2012-03-22T09:26:07Z</time>
      </trkpt>
      <trkpt lat="44.39378" lon="5.82164">
        <ele>1228.7</ele>
        <time>2012-03-22T09:26:08Z</time>
      </trkpt>
      <trkpt lat="44.39378" lon="5.82165">
        <ele>1238.32</ele>
        <time>2012-03-22T09:26:10Z</time>
      </trkpt>
      <trkpt lat="44.39378" lon="5.82165">
        <ele>1229.18</ele>
        <time>2012-03-22T09:26:11Z</time>
      </trkpt>
      <trkpt lat="44.39378" lon="5.82165">
        <ele>1233.03</ele>
        <time>2012-03-22T09:26:12Z</time>
      </trkpt>
      <trkpt lat="44.39378" lon="5.82168">
        <ele>1236.87</ele>
        <time>2012-03-22T09:26:15Z</time>
      </trkpt>
      <trkpt lat="44.39377" lon="5.82169">
        <ele>1229.18</ele>
        <time>2012-03-22T09:26:16Z</time>
      </trkpt>
      <trkpt lat="44.39377" lon="5.82171">
        <ele>1232.55</ele>
        <time>2012-03-22T09:26:17Z</time>
      </trkpt>
      <trkpt lat="44.39377" lon="5.82172">
        <ele>1240.24</ele>
        <time>2012-03-22T09:26:18Z</time>
      </trkpt>
      <trkpt lat="44.39377" lon="5.82173">
        <ele>1231.11</ele>
        <time>2012-03-22T09:26:19Z</time>
      </trkpt>
      <trkpt lat="44.39377" lon="5.82174">
        <ele>1235.91</ele>
        <time>2012-03-22T09:26:20Z</time>
      </trkpt>
      <trkpt lat="44.39376" lon="5.82176">
        <ele>1230.62</ele>
        <time>2012-03-22T09:26:22Z</time>
      </trkpt>
      <trkpt lat="44.39376" lon="5.82177">
        <ele>1230.62</ele>
        <time>2012-03-22T09:26:23Z</time>
      </trkpt>
      <trkpt lat="44.39377" lon="5.82179">
        <ele>1233.99</ele>
        <time>2012-03-22T09:26:26Z</time>
      </trkpt>
      <trkpt lat="44.39376" lon="5.82181">
        <ele>1230.62</ele>
        <time>2012-03-22T09:26:29Z</time>
      </trkpt>
      <trkpt lat="44.39376" lon="5.82182">
        <ele>1231.59</ele>
        <time>2012-03-22T09:26:30Z</time>
      </trkpt>
      <trkpt lat="44.39376" lon="5.82184">
        <ele>1235.91</ele>
        <time>2012-03-22T09:26:31Z</time>
      </trkpt>
      <trkpt lat="44.39376" lon="5.82185">
        <ele>1233.99</ele>
        <time>2012-03-22T09:26:32Z</time>
      </trkpt>
      <trkpt lat="44.39377" lon="5.82193">
        <ele>1235.43</ele>
        <time>2012-03-22T09:26:40Z</time>
      </trkpt>
      <trkpt lat="44.39376" lon="5.82193">
        <ele>1230.62</ele>
        <time>2012-03-22T09:26:42Z</time>
      </trkpt>
      <trkpt lat="44.39376" lon="5.82194">
        <ele>1235.43</ele>
        <time>2012-03-22T09:26:43Z</time>
      </trkpt>
      <trkpt lat="44.39376" lon="5.82198">
        <ele>1238.8</ele>
        <time>2012-03-22T09:26:46Z</time>
      </trkpt>
      <trkpt lat="44.39376" lon="5.82198">
        <ele>1233.03</ele>
        <time>2012-03-22T09:26:47Z</time>
      </trkpt>
      <trkpt lat="44.39376" lon="5.82199">
        <ele>1237.35</ele>
        <time>2012-03-22T09:26:48Z</time>
      </trkpt>
      <trkpt lat="44.39376" lon="5.82201">
        <ele>1237.83</ele>
        <time>2012-03-22T09:26:53Z</time>
      </trkpt>
      <trkpt lat="44.39376" lon="5.82201">
        <ele>1236.39</ele>
        <time>2012-03-22T09:27:24Z</time>
      </trkpt>
      <trkpt lat="44.39376" lon="5.82202">
        <ele>1240.24</ele>
        <time>2012-03-22T09:27:26Z</time>
      </trkpt>
      <trkpt lat="44.39376" lon="5.82203">
        <ele>1235.43</ele>
        <time>2012-03-22T09:27:27Z</time>
      </trkpt>
      <trkpt lat="44.39376" lon="5.82204">
        <ele>1236.87</ele>
        <time>2012-03-22T09:27:28Z</time>
      </trkpt>
      <trkpt lat="44.39375" lon="5.82207">
        <ele>1233.03</ele>
        <time>2012-03-22T09:27:32Z</time>
      </trkpt>
      <trkpt lat="44.39376" lon="5.82208">
        <ele>1235.91</ele>
        <time>2012-03-22T09:27:33Z</time>
      </trkpt>
      <trkpt lat="44.39376" lon="5.82209">
        <ele>1241.2</ele>
        <time>2012-03-22T09:27:34Z</time>
      </trkpt>
      <trkpt lat="44.39376" lon="5.8221">
        <ele>1244.56</ele>
        <time>2012-03-22T09:27:35Z</time>
      </trkpt>
      <trkpt lat="44.39376" lon="5.8221">
        <ele>1238.32</ele>
        <time>2012-03-22T09:27:36Z</time>
      </trkpt>
      <trkpt lat="44.39376" lon="5.82211">
        <ele>1238.8</ele>
        <time>2012-03-22T09:27:37Z</time>
      </trkpt>
      <trkpt lat="44.39376" lon="5.82217">
        <ele>1243.6</ele>
        <time>2012-03-22T09:27:43Z</time>
      </trkpt>
      <trkpt lat="44.39376" lon="5.82218">
        <ele>1242.16</ele>
        <time>2012-03-22T09:27:44Z</time>
      </trkpt>
      <trkpt lat="44.39376" lon="5.82219">
        <ele>1238.8</ele>
        <time>2012-03-22T09:27:45Z</time>
      </trkpt>
      <trkpt lat="44.39376" lon="5.82222">
        <ele>1228.7</ele>
        <time>2012-03-22T09:27:49Z</time>
      </trkpt>
      <trkpt lat="44.39376" lon="5.82223">
        <ele>1234.47</ele>
        <time>2012-03-22T09:27:50Z</time>
      </trkpt>
      <trkpt lat="44.39376" lon="5.82226">
        <ele>1238.8</ele>
        <time>2012-03-22T09:27:53Z</time>
      </trkpt>
      <trkpt lat="44.39376" lon="5.82227">
        <ele>1233.99</ele>
        <time>2012-03-22T09:27:54Z</time>
      </trkpt>
      <trkpt lat="44.39376" lon="5.82228">
        <ele>1238.32</ele>
        <time>2012-03-22T09:27:55Z</time>
      </trkpt>
      <trkpt lat="44.39376" lon="5.82232">
        <ele>1242.16</ele>
        <time>2012-03-22T09:27:59Z</time>
      </trkpt>
      <trkpt lat="44.39376" lon="5.82233">
        <ele>1238.8</ele>
        <time>2012-03-22T09:28:00Z</time>
      </trkpt>
      <trkpt lat="44.39376" lon="5.82235">
        <ele>1233.51</ele>
        <time>2012-03-22T09:28:02Z</time>
      </trkpt>
      <trkpt lat="44.39376" lon="5.82235">
        <ele>1241.68</ele>
        <time>2012-03-22T09:28:03Z</time>
      </trkpt>
      <trkpt lat="44.39376" lon="5.82235">
        <ele>1250.81</ele>
        <time>2012-03-22T09:28:04Z</time>
      </trkpt>
      <trkpt lat="44.39376" lon="5.82236">
        <ele>1237.83</ele>
        <time>2012-03-22T09:28:05Z</time>
      </trkpt>
      <trkpt lat="44.39376" lon="5.82237">
        <ele>1241.2</ele>
        <time>2012-03-22T09:28:06Z</time>
      </trkpt>
      <trkpt lat="44.39376" lon="5.8224">
        <ele>1242.16</ele>
        <time>2012-03-22T09:28:08Z</time>
      </trkpt>
      <trkpt lat="44.39376" lon="5.82241">
        <ele>1237.83</ele>
        <time>2012-03-22T09:28:10Z</time>
      </trkpt>
      <trkpt lat="44.39376" lon="5.82242">
        <ele>1243.12</ele>
        <time>2012-03-22T09:28:11Z</time>
      </trkpt>
      <trkpt lat="44.39376" lon="5.82243">
        <ele>1237.83</ele>
        <time>2012-03-22T09:28:12Z</time>
      </trkpt>
      <trkpt lat="44.39376" lon="5.82244">
        <ele>1242.64</ele>
        <time>2012-03-22T09:28:13Z</time>
      </trkpt>
      <trkpt lat="44.39376" lon="5.82245">
        <ele>1238.32</ele>
        <time>2012-03-22T09:28:14Z</time>
      </trkpt>
      <trkpt lat="44.39377" lon="5.82246">
        <ele>1245.04</ele>
        <time>2012-03-22T09:28:15Z</time>
      </trkpt>
      <trkpt lat="44.39377" lon="5.82247">
        <ele>1241.2</ele>
        <time>2012-03-22T09:28:17Z</time>
      </trkpt>
      <trkpt lat="44.39378" lon="5.82247">
        <ele>1237.35</ele>
        <time>2012-03-22T09:28:18Z</time>
      </trkpt>
      <trkpt lat="44.39378" lon="5.82247">
        <ele>1240.24</ele>
        <time>2012-03-22T09:28:19Z</time>
      </trkpt>
      <trkpt lat="44.39378" lon="5.8225">
        <ele>1246.97</ele>
        <time>2012-03-22T09:28:23Z</time>
      </trkpt>
      <trkpt lat="44.39378" lon="5.8225">
        <ele>1242.16</ele>
        <time>2012-03-22T09:28:24Z</time>
      </trkpt>
      <trkpt lat="44.39378" lon="5.82252">
        <ele>1253.22</ele>
        <time>2012-03-22T09:28:26Z</time>
      </trkpt>
      <trkpt lat="44.39378" lon="5.82253">
        <ele>1239.28</ele>
        <time>2012-03-22T09:28:27Z</time>
      </trkpt>
      <trkpt lat="44.39378" lon="5.82254">
        <ele>1244.56</ele>
        <time>2012-03-22T09:28:28Z</time>
      </trkpt>
      <trkpt lat="44.39378" lon="5.82256">
        <ele>1255.14</ele>
        <time>2012-03-22T09:28:29Z</time>
      </trkpt>
      <trkpt lat="44.39378" lon="5.82257">
        <ele>1248.89</ele>
        <time>2012-03-22T09:28:30Z</time>
      </trkpt>
      <trkpt lat="44.39379" lon="5.82258">
        <ele>1253.7</ele>
        <time>2012-03-22T09:28:31Z</time>
      </trkpt>
      <trkpt lat="44.39379" lon="5.82258">
        <ele>1241.68</ele>
        <time>2012-03-22T09:28:32Z</time>
      </trkpt>
      <trkpt lat="44.39379" lon="5.82259">
        <ele>1249.37</ele>
        <time>2012-03-22T09:28:33Z</time>
      </trkpt>
      <trkpt lat="44.39379" lon="5.82261">
        <ele>1245.04</ele>
        <time>2012-03-22T09:28:35Z</time>
      </trkpt>
      <trkpt lat="44.39379" lon="5.82263">
        <ele>1252.25</ele>
        <time>2012-03-22T09:28:37Z</time>
      </trkpt>
      <trkpt lat="44.39379" lon="5.82264">
        <ele>1246.97</ele>
        <time>2012-03-22T09:28:38Z</time>
      </trkpt>
      <trkpt lat="44.39379" lon="5.82264">
        <ele>1243.6</ele>
        <time>2012-03-22T09:28:39Z</time>
      </trkpt>
      <trkpt lat="44.39379" lon="5.82265">
        <ele>1245.53</ele>
        <time>2012-03-22T09:28:40Z</time>
      </trkpt>
      <trkpt lat="44.39379" lon="5.82267">
        <ele>1256.58</ele>
        <time>2012-03-22T09:28:42Z</time>
      </trkpt>
      <trkpt lat="44.39379" lon="5.82267">
        <ele>1243.6</ele>
        <time>2012-03-22T09:28:43Z</time>
      </trkpt>
      <trkpt lat="44.39379" lon="5.82268">
        <ele>1248.41</ele>
        <time>2012-03-22T09:28:44Z</time>
      </trkpt>
      <trkpt lat="44.3938" lon="5.82269">
        <ele>1242.64</ele>
        <time>2012-03-22T09:28:45Z</time>
      </trkpt>
      <trkpt lat="44.3938" lon="5.82269">
        <ele>1246.97</ele>
        <time>2012-03-22T09:28:46Z</time>
      </trkpt>
      <trkpt lat="44.3938" lon="5.8227">
        <ele>1238.8</ele>
        <time>2012-03-22T09:28:47Z</time>
      </trkpt>
      <trkpt lat="44.3938" lon="5.82271">
        <ele>1245.04</ele>
        <time>2012-03-22T09:28:48Z</time>
      </trkpt>
      <trkpt lat="44.3938" lon="5.82272">
        <ele>1251.77</ele>
        <time>2012-03-22T09:28:49Z</time>
      </trkpt>
      <trkpt lat="44.3938" lon="5.82273">
        <ele>1245.53</ele>
        <time>2012-03-22T09:28:51Z</time>
      </trkpt>
      <trkpt lat="44.3938" lon="5.82275">
        <ele>1255.14</ele>
        <time>2012-03-22T09:28:53Z</time>
      </trkpt>
      <trkpt lat="44.39379" lon="5.82276">
        <ele>1247.45</ele>
        <time>2012-03-22T09:28:54Z</time>
      </trkpt>
      <trkpt lat="44.39379" lon="5.82277">
        <ele>1241.68</ele>
        <time>2012-03-22T09:28:55Z</time>
      </trkpt>
      <trkpt lat="44.39379" lon="5.82278">
        <ele>1245.04</ele>
        <time>2012-03-22T09:28:56Z</time>
      </trkpt>
      <trkpt lat="44.39378" lon="5.82282">
        <ele>1248.41</ele>
        <time>2012-03-22T09:29:00Z</time>
      </trkpt>
      <trkpt lat="44.39377" lon="5.82288">
        <ele>1254.18</ele>
        <time>2012-03-22T09:29:06Z</time>
      </trkpt>
      <trkpt lat="44.39376" lon="5.8229">
        <ele>1246.01</ele>
        <time>2012-03-22T09:29:07Z</time>
      </trkpt>
      <trkpt lat="44.39376" lon="5.82291">
        <ele>1243.6</ele>
        <time>2012-03-22T09:29:09Z</time>
      </trkpt>
      <trkpt lat="44.39375" lon="5.82292">
        <ele>1254.18</ele>
        <time>2012-03-22T09:29:10Z</time>
      </trkpt>
      <trkpt lat="44.39375" lon="5.82293">
        <ele>1246.97</ele>
        <time>2012-03-22T09:29:11Z</time>
      </trkpt>
      <trkpt lat="44.39374" lon="5.82294">
        <ele>1254.66</ele>
        <time>2012-03-22T09:29:12Z</time>
      </trkpt>
      <trkpt lat="44.39374" lon="5.82296">
        <ele>1247.93</ele>
        <time>2012-03-22T09:29:14Z</time>
      </trkpt>
      <trkpt lat="44.39373" lon="5.82297">
        <ele>1244.08</ele>
        <time>2012-03-22T09:29:15Z</time>
      </trkpt>
      <trkpt lat="44.39373" lon="5.82298">
        <ele>1247.93</ele>
        <time>2012-03-22T09:29:16Z</time>
      </trkpt>
      <trkpt lat="44.39372" lon="5.82299">
        <ele>1253.22</ele>
        <time>2012-03-22T09:29:17Z</time>
      </trkpt>
      <trkpt lat="44.39371" lon="5.82299">
        <ele>1255.14</ele>
        <time>2012-03-22T09:29:18Z</time>
      </trkpt>
      <trkpt lat="44.3937" lon="5.82301">
        <ele>1246.49</ele>
        <time>2012-03-22T09:29:20Z</time>
      </trkpt>
      <trkpt lat="44.39369" lon="5.82301">
        <ele>1250.33</ele>
        <time>2012-03-22T09:29:21Z</time>
      </trkpt>
      <trkpt lat="44.39369" lon="5.82302">
        <ele>1243.6</ele>
        <time>2012-03-22T09:29:22Z</time>
      </trkpt>
      <trkpt lat="44.39368" lon="5.82302">
        <ele>1245.04</ele>
        <time>2012-03-22T09:29:23Z</time>
      </trkpt>
      <trkpt lat="44.39366" lon="5.82303">
        <ele>1248.41</ele>
        <time>2012-03-22T09:29:26Z</time>
      </trkpt>
      <trkpt lat="44.39366" lon="5.82304">
        <ele>1244.56</ele>
        <time>2012-03-22T09:29:27Z</time>
      </trkpt>
      <trkpt lat="44.39364" lon="5.82308">
        <ele>1248.89</ele>
        <time>2012-03-22T09:29:31Z</time>
      </trkpt>
      <trkpt lat="44.39363" lon="5.82309">
        <ele>1257.54</ele>
        <time>2012-03-22T09:29:32Z</time>
      </trkpt>
      <trkpt lat="44.39363" lon="5.8231">
        <ele>1245.53</ele>
        <time>2012-03-22T09:29:33Z</time>
      </trkpt>
      <trkpt lat="44.39362" lon="5.82311">
        <ele>1246.49</ele>
        <time>2012-03-22T09:29:34Z</time>
      </trkpt>
      <trkpt lat="44.39362" lon="5.82313">
        <ele>1246.97</ele>
        <time>2012-03-22T09:29:36Z</time>
      </trkpt>
      <trkpt lat="44.3936" lon="5.82317">
        <ele>1250.33</ele>
        <time>2012-03-22T09:29:39Z</time>
      </trkpt>
      <trkpt lat="44.3936" lon="5.82318">
        <ele>1246.49</ele>
        <time>2012-03-22T09:29:40Z</time>
      </trkpt>
      <trkpt lat="44.39359" lon="5.82322">
        <ele>1247.45</ele>
        <time>2012-03-22T09:29:44Z</time>
      </trkpt>
      <trkpt lat="44.39358" lon="5.82323">
        <ele>1244.56</ele>
        <time>2012-03-22T09:29:45Z</time>
      </trkpt>
      <trkpt lat="44.39355" lon="5.82327">
        <ele>1248.89</ele>
        <time>2012-03-22T09:29:50Z</time>
      </trkpt>
      <trkpt lat="44.39355" lon="5.82328">
        <ele>1238.32</ele>
        <time>2012-03-22T09:29:51Z</time>
      </trkpt>
      <trkpt lat="44.39354" lon="5.82329">
        <ele>1249.85</ele>
        <time>2012-03-22T09:29:52Z</time>
      </trkpt>
      <trkpt lat="44.39354" lon="5.8233">
        <ele>1246.01</ele>
        <time>2012-03-22T09:29:53Z</time>
      </trkpt>
      <trkpt lat="44.39352" lon="5.82332">
        <ele>1242.64</ele>
        <time>2012-03-22T09:29:57Z</time>
      </trkpt>
      <trkpt lat="44.39352" lon="5.82333">
        <ele>1247.45</ele>
        <time>2012-03-22T09:29:59Z</time>
      </trkpt>
      <trkpt lat="44.39351" lon="5.82334">
        <ele>1246.97</ele>
        <time>2012-03-22T09:30:00Z</time>
      </trkpt>
      <trkpt lat="44.3935" lon="5.82336">
        <ele>1240.72</ele>
        <time>2012-03-22T09:30:02Z</time>
      </trkpt>
      <trkpt lat="44.3935" lon="5.82337">
        <ele>1244.56</ele>
        <time>2012-03-22T09:30:03Z</time>
      </trkpt>
      <trkpt lat="44.3935" lon="5.82339">
        <ele>1248.89</ele>
        <time>2012-03-22T09:30:05Z</time>
      </trkpt>
      <trkpt lat="44.3935" lon="5.8234">
        <ele>1256.1</ele>
        <time>2012-03-22T09:30:06Z</time>
      </trkpt>
      <trkpt lat="44.39349" lon="5.82341">
        <ele>1246.97</ele>
        <time>2012-03-22T09:30:07Z</time>
      </trkpt>
      <trkpt lat="44.39349" lon="5.82342">
        <ele>1242.16</ele>
        <time>2012-03-22T09:30:08Z</time>
      </trkpt>
      <trkpt lat="44.39348" lon="5.82343">
        <ele>1236.87</ele>
        <time>2012-03-22T09:30:09Z</time>
      </trkpt>
      <trkpt lat="44.39348" lon="5.82344">
        <ele>1246.97</ele>
        <time>2012-03-22T09:30:10Z</time>
      </trkpt>
      <trkpt lat="44.39347" lon="5.82345">
        <ele>1243.12</ele>
        <time>2012-03-22T09:30:11Z</time>
      </trkpt>
      <trkpt lat="44.39346" lon="5.82347">
        <ele>1247.45</ele>
        <time>2012-03-22T09:30:13Z</time>
      </trkpt>
      <trkpt lat="44.39346" lon="5.82348">
        <ele>1246.49</ele>
        <time>2012-03-22T09:30:14Z</time>
      </trkpt>
      <trkpt lat="44.39345" lon="5.82351">
        <ele>1243.12</ele>
        <time>2012-03-22T09:30:17Z</time>
      </trkpt>
      <trkpt lat="44.39345" lon="5.82352">
        <ele>1244.08</ele>
        <time>2012-03-22T09:30:18Z</time>
      </trkpt>
      <trkpt lat="44.39344" lon="5.82355">
        <ele>1247.93</ele>
        <time>2012-03-22T09:30:20Z</time>
      </trkpt>
      <trkpt lat="44.39344" lon="5.82356">
        <ele>1251.29</ele>
        <time>2012-03-22T09:30:21Z</time>
      </trkpt>
      <trkpt lat="44.39344" lon="5.82357">
        <ele>1245.53</ele>
        <time>2012-03-22T09:30:22Z</time>
      </trkpt>
      <trkpt lat="44.39344" lon="5.82357">
        <ele>1241.68</ele>
        <time>2012-03-22T09:30:23Z</time>
      </trkpt>
      <trkpt lat="44.39344" lon="5.82358">
        <ele>1245.53</ele>
        <time>2012-03-22T09:30:24Z</time>
      </trkpt>
      <trkpt lat="44.39344" lon="5.8236">
        <ele>1246.49</ele>
        <time>2012-03-22T09:30:26Z</time>
      </trkpt>
      <trkpt lat="44.39343" lon="5.82362">
        <ele>1243.12</ele>
        <time>2012-03-22T09:30:28Z</time>
      </trkpt>
      <trkpt lat="44.39341" lon="5.82366">
        <ele>1246.97</ele>
        <time>2012-03-22T09:30:32Z</time>
      </trkpt>
      <trkpt lat="44.3934" lon="5.8237">
        <ele>1243.12</ele>
        <time>2012-03-22T09:30:37Z</time>
      </trkpt>
      <trkpt lat="44.3934" lon="5.82371">
        <ele>1243.12</ele>
        <time>2012-03-22T09:30:38Z</time>
      </trkpt>
      <trkpt lat="44.39339" lon="5.82372">
        <ele>1246.97</ele>
        <time>2012-03-22T09:30:39Z</time>
      </trkpt>
      <trkpt lat="44.39339" lon="5.82373">
        <ele>1246.01</ele>
        <time>2012-03-22T09:30:40Z</time>
      </trkpt>
      <trkpt lat="44.39338" lon="5.82376">
        <ele>1240.24</ele>
        <time>2012-03-22T09:30:43Z</time>
      </trkpt>
      <trkpt lat="44.39338" lon="5.82376">
        <ele>1248.41</ele>
        <time>2012-03-22T09:30:44Z</time>
      </trkpt>
      <trkpt lat="44.39337" lon="5.82379">
        <ele>1243.6</ele>
        <time>2012-03-22T09:30:47Z</time>
      </trkpt>
      <trkpt lat="44.39337" lon="5.8238">
        <ele>1246.49</ele>
        <time>2012-03-22T09:30:48Z</time>
      </trkpt>
      <trkpt lat="44.39337" lon="5.82381">
        <ele>1243.6</ele>
        <time>2012-03-22T09:30:50Z</time>
      </trkpt>
      <trkpt lat="44.39337" lon="5.82384">
        <ele>1249.85</ele>
        <time>2012-03-22T09:30:52Z</time>
      </trkpt>
      <trkpt lat="44.39336" lon="5.82385">
        <ele>1246.01</ele>
        <time>2012-03-22T09:30:53Z</time>
      </trkpt>
      <trkpt lat="44.39336" lon="5.82387">
        <ele>1242.16</ele>
        <time>2012-03-22T09:30:55Z</time>
      </trkpt>
      <trkpt lat="44.39336" lon="5.82388">
        <ele>1243.12</ele>
        <time>2012-03-22T09:30:56Z</time>
      </trkpt>
      <trkpt lat="44.39335" lon="5.8239">
        <ele>1247.45</ele>
        <time>2012-03-22T09:30:58Z</time>
      </trkpt>
      <trkpt lat="44.39334" lon="5.82391">
        <ele>1246.49</ele>
        <time>2012-03-22T09:30:59Z</time>
      </trkpt>
      <trkpt lat="44.39334" lon="5.82394">
        <ele>1242.64</ele>
        <time>2012-03-22T09:31:01Z</time>
      </trkpt>
      <trkpt lat="44.39333" lon="5.82396">
        <ele>1244.08</ele>
        <time>2012-03-22T09:31:04Z</time>
      </trkpt>
      <trkpt lat="44.39332" lon="5.82397">
        <ele>1240.24</ele>
        <time>2012-03-22T09:31:06Z</time>
      </trkpt>
      <trkpt lat="44.39332" lon="5.82397">
        <ele>1243.6</ele>
        <time>2012-03-22T09:31:07Z</time>
      </trkpt>
      <trkpt lat="44.39332" lon="5.82403">
        <ele>1248.41</ele>
        <time>2012-03-22T09:31:12Z</time>
      </trkpt>
      <trkpt lat="44.39332" lon="5.82403">
        <ele>1245.04</ele>
        <time>2012-03-22T09:31:13Z</time>
      </trkpt>
      <trkpt lat="44.39332" lon="5.82403">
        <ele>1241.68</ele>
        <time>2012-03-22T09:31:15Z</time>
      </trkpt>
      <trkpt lat="44.39331" lon="5.82404">
        <ele>1242.16</ele>
        <time>2012-03-22T09:31:16Z</time>
      </trkpt>
      <trkpt lat="44.39331" lon="5.82406">
        <ele>1246.01</ele>
        <time>2012-03-22T09:31:19Z</time>
      </trkpt>
      <trkpt lat="44.39329" lon="5.8241">
        <ele>1240.72</ele>
        <time>2012-03-22T09:31:22Z</time>
      </trkpt>
      <trkpt lat="44.39329" lon="5.82411">
        <ele>1246.49</ele>
        <time>2012-03-22T09:31:23Z</time>
      </trkpt>
      <trkpt lat="44.39329" lon="5.82413">
        <ele>1244.08</ele>
        <time>2012-03-22T09:31:27Z</time>
      </trkpt>
      <trkpt lat="44.39328" lon="5.82414">
        <ele>1236.87</ele>
        <time>2012-03-22T09:31:28Z</time>
      </trkpt>
      <trkpt lat="44.39328" lon="5.82414">
        <ele>1242.64</ele>
        <time>2012-03-22T09:31:29Z</time>
      </trkpt>
      <trkpt lat="44.39328" lon="5.82414">
        <ele>1244.56</ele>
        <time>2012-03-22T09:31:31Z</time>
      </trkpt>
      <trkpt lat="44.39328" lon="5.82414">
        <ele>1239.28</ele>
        <time>2012-03-22T09:31:33Z</time>
      </trkpt>
      <trkpt lat="44.39328" lon="5.82415">
        <ele>1244.08</ele>
        <time>2012-03-22T09:31:34Z</time>
      </trkpt>
      <trkpt lat="44.39328" lon="5.82417">
        <ele>1250.81</ele>
        <time>2012-03-22T09:31:38Z</time>
      </trkpt>
      <trkpt lat="44.39328" lon="5.82417">
        <ele>1245.04</ele>
        <time>2012-03-22T09:31:39Z</time>
      </trkpt>
      <trkpt lat="44.39326" lon="5.82422">
        <ele>1241.68</ele>
        <time>2012-03-22T09:31:44Z</time>
      </trkpt>
      <trkpt lat="44.39326" lon="5.82422">
        <ele>1246.01</ele>
        <time>2012-03-22T09:31:45Z</time>
      </trkpt>
      <trkpt lat="44.39326" lon="5.82424">
        <ele>1241.68</ele>
        <time>2012-03-22T09:31:48Z</time>
      </trkpt>
      <trkpt lat="44.39324" lon="5.8243">
        <ele>1248.89</ele>
        <time>2012-03-22T09:31:52Z</time>
      </trkpt>
      <trkpt lat="44.39324" lon="5.82432">
        <ele>1243.6</ele>
        <time>2012-03-22T09:31:53Z</time>
      </trkpt>
      <trkpt lat="44.39324" lon="5.82433">
        <ele>1238.8</ele>
        <time>2012-03-22T09:31:55Z</time>
      </trkpt>
      <trkpt lat="44.39324" lon="5.82433">
        <ele>1239.28</ele>
        <time>2012-03-22T09:31:56Z</time>
      </trkpt>
      <trkpt lat="44.39324" lon="5.82434">
        <ele>1246.97</ele>
        <time>2012-03-22T09:31:57Z</time>
      </trkpt>
      <trkpt lat="44.39324" lon="5.82434">
        <ele>1242.16</ele>
        <time>2012-03-22T09:31:58Z</time>
      </trkpt>
      <trkpt lat="44.39324" lon="5.82434">
        <ele>1241.2</ele>
        <time>2012-03-22T09:32:00Z</time>
      </trkpt>
      <trkpt lat="44.39324" lon="5.82434">
        <ele>1245.53</ele>
        <time>2012-03-22T09:32:01Z</time>
      </trkpt>
      <trkpt lat="44.39324" lon="5.82434">
        <ele>1242.16</ele>
        <time>2012-03-22T09:32:02Z</time>
      </trkpt>
      <trkpt lat="44.39323" lon="5.82441">
        <ele>1238.8</ele>
        <time>2012-03-22T09:32:09Z</time>
      </trkpt>
      <trkpt lat="44.39323" lon="5.82441">
        <ele>1243.6</ele>
        <time>2012-03-22T09:32:10Z</time>
      </trkpt>
      <trkpt lat="44.39321" lon="5.82447">
        <ele>1241.68</ele>
        <time>2012-03-22T09:32:14Z</time>
      </trkpt>
      <trkpt lat="44.39319" lon="5.82452">
        <ele>1245.04</ele>
        <time>2012-03-22T09:32:19Z</time>
      </trkpt>
      <trkpt lat="44.39319" lon="5.82455">
        <ele>1240.72</ele>
        <time>2012-03-22T09:32:21Z</time>
      </trkpt>
      <trkpt lat="44.39318" lon="5.8246">
        <ele>1244.56</ele>
        <time>2012-03-22T09:32:26Z</time>
      </trkpt>
      <trkpt lat="44.39318" lon="5.8246">
        <ele>1244.56</ele>
        <time>2012-03-22T09:32:27Z</time>
      </trkpt>
      <trkpt lat="44.39317" lon="5.82463">
        <ele>1240.24</ele>
        <time>2012-03-22T09:32:30Z</time>
      </trkpt>
      <trkpt lat="44.39315" lon="5.82468">
        <ele>1236.87</ele>
        <time>2012-03-22T09:32:33Z</time>
      </trkpt>
      <trkpt lat="44.39315" lon="5.8247">
        <ele>1241.2</ele>
        <time>2012-03-22T09:32:34Z</time>
      </trkpt>
      <trkpt lat="44.39315" lon="5.82472">
        <ele>1248.89</ele>
        <time>2012-03-22T09:32:35Z</time>
      </trkpt>
      <trkpt lat="44.39314" lon="5.82473">
        <ele>1243.6</ele>
        <time>2012-03-22T09:32:36Z</time>
      </trkpt>
      <trkpt lat="44.39312" lon="5.82478">
        <ele>1240.24</ele>
        <time>2012-03-22T09:32:40Z</time>
      </trkpt>
      <trkpt lat="44.39311" lon="5.8248">
        <ele>1245.04</ele>
        <time>2012-03-22T09:32:41Z</time>
      </trkpt>
      <trkpt lat="44.3931" lon="5.82482">
        <ele>1241.68</ele>
        <time>2012-03-22T09:32:44Z</time>
      </trkpt>
      <trkpt lat="44.3931" lon="5.82483">
        <ele>1245.53</ele>
        <time>2012-03-22T09:32:46Z</time>
      </trkpt>
      <trkpt lat="44.3931" lon="5.82483">
        <ele>1239.76</ele>
        <time>2012-03-22T09:32:47Z</time>
      </trkpt>
      <trkpt lat="44.39309" lon="5.82484">
        <ele>1242.64</ele>
        <time>2012-03-22T09:32:49Z</time>
      </trkpt>
      <trkpt lat="44.39309" lon="5.82485">
        <ele>1241.2</ele>
        <time>2012-03-22T09:32:54Z</time>
      </trkpt>
      <trkpt lat="44.39308" lon="5.82485">
        <ele>1244.08</ele>
        <time>2012-03-22T09:32:57Z</time>
      </trkpt>
      <trkpt lat="44.39307" lon="5.82487">
        <ele>1241.68</ele>
        <time>2012-03-22T09:33:01Z</time>
      </trkpt>
      <trkpt lat="44.39307" lon="5.82489">
        <ele>1247.93</ele>
        <time>2012-03-22T09:33:05Z</time>
      </trkpt>
      <trkpt lat="44.39307" lon="5.82489">
        <ele>1245.04</ele>
        <time>2012-03-22T09:33:06Z</time>
      </trkpt>
      <trkpt lat="44.39307" lon="5.82489">
        <ele>1250.33</ele>
        <time>2012-03-22T09:33:07Z</time>
      </trkpt>
      <trkpt lat="44.39307" lon="5.82489">
        <ele>1239.76</ele>
        <time>2012-03-22T09:33:08Z</time>
      </trkpt>
      <trkpt lat="44.39307" lon="5.82491">
        <ele>1240.72</ele>
        <time>2012-03-22T09:33:09Z</time>
      </trkpt>
      <trkpt lat="44.39307" lon="5.82492">
        <ele>1249.85</ele>
        <time>2012-03-22T09:33:10Z</time>
      </trkpt>
      <trkpt lat="44.39307" lon="5.82493">
        <ele>1242.16</ele>
        <time>2012-03-22T09:33:11Z</time>
      </trkpt>
      <trkpt lat="44.39305" lon="5.825">
        <ele>1235.91</ele>
        <time>2012-03-22T09:33:18Z</time>
      </trkpt>
      <trkpt lat="44.39304" lon="5.82501">
        <ele>1240.24</ele>
        <time>2012-03-22T09:33:19Z</time>
      </trkpt>
      <trkpt lat="44.39303" lon="5.82506">
        <ele>1241.2</ele>
        <time>2012-03-22T09:33:29Z</time>
      </trkpt>
      <trkpt lat="44.39303" lon="5.82506">
        <ele>1247.45</ele>
        <time>2012-03-22T09:33:31Z</time>
      </trkpt>
      <trkpt lat="44.39303" lon="5.82507">
        <ele>1240.72</ele>
        <time>2012-03-22T09:33:32Z</time>
      </trkpt>
      <trkpt lat="44.39303" lon="5.82514">
        <ele>1246.49</ele>
        <time>2012-03-22T09:33:40Z</time>
      </trkpt>
      <trkpt lat="44.39302" lon="5.82515">
        <ele>1241.68</ele>
        <time>2012-03-22T09:33:41Z</time>
      </trkpt>
      <trkpt lat="44.39301" lon="5.82519">
        <ele>1237.35</ele>
        <time>2012-03-22T09:33:43Z</time>
      </trkpt>
      <trkpt lat="44.39301" lon="5.8252">
        <ele>1243.12</ele>
        <time>2012-03-22T09:33:44Z</time>
      </trkpt>
      <trkpt lat="44.393" lon="5.82521">
        <ele>1239.28</ele>
        <time>2012-03-22T09:33:45Z</time>
      </trkpt>
      <trkpt lat="44.393" lon="5.82522">
        <ele>1246.01</ele>
        <time>2012-03-22T09:33:46Z</time>
      </trkpt>
      <trkpt lat="44.393" lon="5.82524">
        <ele>1246.01</ele>
        <time>2012-03-22T09:33:47Z</time>
      </trkpt>
      <trkpt lat="44.393" lon="5.82524">
        <ele>1241.68</ele>
        <time>2012-03-22T09:33:48Z</time>
      </trkpt>
      <trkpt lat="44.393" lon="5.82526">
        <ele>1240.24</ele>
        <time>2012-03-22T09:33:50Z</time>
      </trkpt>
      <trkpt lat="44.39299" lon="5.82528">
        <ele>1241.68</ele>
        <time>2012-03-22T09:33:52Z</time>
      </trkpt>
      <trkpt lat="44.39298" lon="5.82531">
        <ele>1246.49</ele>
        <time>2012-03-22T09:33:54Z</time>
      </trkpt>
      <trkpt lat="44.39298" lon="5.82532">
        <ele>1241.68</ele>
        <time>2012-03-22T09:33:55Z</time>
      </trkpt>
      <trkpt lat="44.39298" lon="5.82532">
        <ele>1235.43</ele>
        <time>2012-03-22T09:33:56Z</time>
      </trkpt>
      <trkpt lat="44.39298" lon="5.82533">
        <ele>1241.68</ele>
        <time>2012-03-22T09:33:57Z</time>
      </trkpt>
      <trkpt lat="44.39298" lon="5.82534">
        <ele>1236.39</ele>
        <time>2012-03-22T09:33:58Z</time>
      </trkpt>
      <trkpt lat="44.39298" lon="5.82535">
        <ele>1242.64</ele>
        <time>2012-03-22T09:33:59Z</time>
      </trkpt>
      <trkpt lat="44.39298" lon="5.82535">
        <ele>1236.87</ele>
        <time>2012-03-22T09:34:00Z</time>
      </trkpt>
      <trkpt lat="44.39298" lon="5.82535">
        <ele>1240.72</ele>
        <time>2012-03-22T09:34:01Z</time>
      </trkpt>
      <trkpt lat="44.39298" lon="5.82536">
        <ele>1236.39</ele>
        <time>2012-03-22T09:34:03Z</time>
      </trkpt>
      <trkpt lat="44.39297" lon="5.82537">
        <ele>1239.76</ele>
        <time>2012-03-22T09:34:04Z</time>
      </trkpt>
      <trkpt lat="44.39297" lon="5.82537">
        <ele>1232.07</ele>
        <time>2012-03-22T09:34:05Z</time>
      </trkpt>
      <trkpt lat="44.39298" lon="5.82538">
        <ele>1236.87</ele>
        <time>2012-03-22T09:34:06Z</time>
      </trkpt>
      <trkpt lat="44.39298" lon="5.82538">
        <ele>1241.2</ele>
        <time>2012-03-22T09:34:07Z</time>
      </trkpt>
      <trkpt lat="44.39298" lon="5.82538">
        <ele>1237.35</ele>
        <time>2012-03-22T09:34:08Z</time>
      </trkpt>
      <trkpt lat="44.39298" lon="5.82538">
        <ele>1241.2</ele>
        <time>2012-03-22T09:34:10Z</time>
      </trkpt>
      <trkpt lat="44.39298" lon="5.82539">
        <ele>1239.28</ele>
        <time>2012-03-22T09:34:11Z</time>
      </trkpt>
      <trkpt lat="44.39297" lon="5.82541">
        <ele>1242.64</ele>
        <time>2012-03-22T09:34:13Z</time>
      </trkpt>
      <trkpt lat="44.39297" lon="5.82541">
        <ele>1236.87</ele>
        <time>2012-03-22T09:34:14Z</time>
      </trkpt>
      <trkpt lat="44.39297" lon="5.82542">
        <ele>1246.01</ele>
        <time>2012-03-22T09:34:15Z</time>
      </trkpt>
      <trkpt lat="44.39296" lon="5.82543">
        <ele>1241.68</ele>
        <time>2012-03-22T09:34:16Z</time>
      </trkpt>
      <trkpt lat="44.39296" lon="5.82544">
        <ele>1237.35</ele>
        <time>2012-03-22T09:34:17Z</time>
      </trkpt>
      <trkpt lat="44.39295" lon="5.82544">
        <ele>1238.8</ele>
        <time>2012-03-22T09:34:18Z</time>
      </trkpt>
      <trkpt lat="44.39295" lon="5.82544">
        <ele>1242.64</ele>
        <time>2012-03-22T09:34:19Z</time>
      </trkpt>
      <trkpt lat="44.39295" lon="5.82544">
        <ele>1240.72</ele>
        <time>2012-03-22T09:34:20Z</time>
      </trkpt>
      <trkpt lat="44.39295" lon="5.82546">
        <ele>1232.55</ele>
        <time>2012-03-22T09:34:25Z</time>
      </trkpt>
      <trkpt lat="44.39295" lon="5.82546">
        <ele>1237.83</ele>
        <time>2012-03-22T09:34:26Z</time>
      </trkpt>
      <trkpt lat="44.39295" lon="5.82548">
        <ele>1241.68</ele>
        <time>2012-03-22T09:34:30Z</time>
      </trkpt>
      <trkpt lat="44.39295" lon="5.82552">
        <ele>1240.72</ele>
        <time>2012-03-22T09:34:36Z</time>
      </trkpt>
      <trkpt lat="44.39294" lon="5.82554">
        <ele>1245.04</ele>
        <time>2012-03-22T09:34:38Z</time>
      </trkpt>
      <trkpt lat="44.39294" lon="5.82554">
        <ele>1238.32</ele>
        <time>2012-03-22T09:34:39Z</time>
      </trkpt>
      <trkpt lat="44.39293" lon="5.82556">
        <ele>1242.16</ele>
        <time>2012-03-22T09:34:40Z</time>
      </trkpt>
      <trkpt lat="44.39293" lon="5.82557">
        <ele>1238.8</ele>
        <time>2012-03-22T09:34:41Z</time>
      </trkpt>
      <trkpt lat="44.39289" lon="5.82565">
        <ele>1232.07</ele>
        <time>2012-03-22T09:34:46Z</time>
      </trkpt>
      <trkpt lat="44.39288" lon="5.82566">
        <ele>1239.76</ele>
        <time>2012-03-22T09:34:47Z</time>
      </trkpt>
      <trkpt lat="44.39288" lon="5.82567">
        <ele>1238.32</ele>
        <time>2012-03-22T09:34:48Z</time>
      </trkpt>
      <trkpt lat="44.39288" lon="5.82567">
        <ele>1235.43</ele>
        <time>2012-03-22T09:34:49Z</time>
      </trkpt>
      <trkpt lat="44.39289" lon="5.82569">
        <ele>1236.39</ele>
        <time>2012-03-22T09:34:50Z</time>
      </trkpt>
      <trkpt lat="44.39289" lon="5.82571">
        <ele>1247.45</ele>
        <time>2012-03-22T09:34:52Z</time>
      </trkpt>
      <trkpt lat="44.39289" lon="5.82571">
        <ele>1240.24</ele>
        <time>2012-03-22T09:34:53Z</time>
      </trkpt>
      <trkpt lat="44.39288" lon="5.82573">
        <ele>1244.08</ele>
        <time>2012-03-22T09:34:56Z</time>
      </trkpt>
      <trkpt lat="44.39288" lon="5.82573">
        <ele>1238.8</ele>
        <time>2012-03-22T09:34:57Z</time>
      </trkpt>
      <trkpt lat="44.39288" lon="5.82574">
        <ele>1246.97</ele>
        <time>2012-03-22T09:34:59Z</time>
      </trkpt>
      <trkpt lat="44.39287" lon="5.82576">
        <ele>1240.24</ele>
        <time>2012-03-22T09:35:00Z</time>
      </trkpt>
      <trkpt lat="44.39286" lon="5.8258">
        <ele>1234.95</ele>
        <time>2012-03-22T09:35:02Z</time>
      </trkpt>
      <trkpt lat="44.39285" lon="5.82582">
        <ele>1236.87</ele>
        <time>2012-03-22T09:35:03Z</time>
      </trkpt>
      <trkpt lat="44.39285" lon="5.82583">
        <ele>1244.56</ele>
        <time>2012-03-22T09:35:04Z</time>
      </trkpt>
      <trkpt lat="44.39285" lon="5.82583">
        <ele>1236.39</ele>
        <time>2012-03-22T09:35:05Z</time>
      </trkpt>
      <trkpt lat="44.39285" lon="5.82583">
        <ele>1246.97</ele>
        <time>2012-03-22T09:35:06Z</time>
      </trkpt>
      <trkpt lat="44.39284" lon="5.82587">
        <ele>1241.68</ele>
        <time>2012-03-22T09:35:07Z</time>
      </trkpt>
      <trkpt lat="44.39284" lon="5.82588">
        <ele>1235.43</ele>
        <time>2012-03-22T09:35:08Z</time>
      </trkpt>
      <trkpt lat="44.39284" lon="5.82588">
        <ele>1238.32</ele>
        <time>2012-03-22T09:35:09Z</time>
      </trkpt>
      <trkpt lat="44.39284" lon="5.8259">
        <ele>1233.51</ele>
        <time>2012-03-22T09:35:10Z</time>
      </trkpt>
      <trkpt lat="44.39284" lon="5.82591">
        <ele>1238.8</ele>
        <time>2012-03-22T09:35:11Z</time>
      </trkpt>
      <trkpt lat="44.39283" lon="5.82599">
        <ele>1242.16</ele>
        <time>2012-03-22T09:35:14Z</time>
      </trkpt>
      <trkpt lat="44.39283" lon="5.82599">
        <ele>1234.47</ele>
        <time>2012-03-22T09:35:15Z</time>
      </trkpt>
      <trkpt lat="44.39282" lon="5.82603">
        <ele>1231.11</ele>
        <time>2012-03-22T09:35:18Z</time>
      </trkpt>
      <trkpt lat="44.39281" lon="5.82604">
        <ele>1235.91</ele>
        <time>2012-03-22T09:35:19Z</time>
      </trkpt>
      <trkpt lat="44.3928" lon="5.82609">
        <ele>1243.12</ele>
        <time>2012-03-22T09:35:22Z</time>
      </trkpt>
      <trkpt lat="44.39278" lon="5.8261">
        <ele>1236.39</ele>
        <time>2012-03-22T09:35:23Z</time>
      </trkpt>
      <trkpt lat="44.39276" lon="5.82614">
        <ele>1232.07</ele>
        <time>2012-03-22T09:35:26Z</time>
      </trkpt>
      <trkpt lat="44.39276" lon="5.82615">
        <ele>1236.39</ele>
        <time>2012-03-22T09:35:27Z</time>
      </trkpt>
      <trkpt lat="44.39275" lon="5.82616">
        <ele>1242.16</ele>
        <time>2012-03-22T09:35:28Z</time>
      </trkpt>
      <trkpt lat="44.39275" lon="5.82616">
        <ele>1241.68</ele>
        <time>2012-03-22T09:35:29Z</time>
      </trkpt>
      <trkpt lat="44.39276" lon="5.82619">
        <ele>1237.83</ele>
        <time>2012-03-22T09:35:32Z</time>
      </trkpt>
      <trkpt lat="44.39277" lon="5.82625">
        <ele>1233.03</ele>
        <time>2012-03-22T09:35:38Z</time>
      </trkpt>
      <trkpt lat="44.39276" lon="5.82626">
        <ele>1233.03</ele>
        <time>2012-03-22T09:35:39Z</time>
      </trkpt>
      <trkpt lat="44.39276" lon="5.82627">
        <ele>1237.35</ele>
        <time>2012-03-22T09:35:40Z</time>
      </trkpt>
      <trkpt lat="44.39276" lon="5.82629">
        <ele>1240.72</ele>
        <time>2012-03-22T09:35:42Z</time>
      </trkpt>
      <trkpt lat="44.39276" lon="5.82629">
        <ele>1234.95</ele>
        <time>2012-03-22T09:35:43Z</time>
      </trkpt>
      <trkpt lat="44.39276" lon="5.82632">
        <ele>1238.8</ele>
        <time>2012-03-22T09:35:45Z</time>
      </trkpt>
      <trkpt lat="44.39276" lon="5.82632">
        <ele>1234.95</ele>
        <time>2012-03-22T09:35:47Z</time>
      </trkpt>
      <trkpt lat="44.39276" lon="5.82634">
        <ele>1240.24</ele>
        <time>2012-03-22T09:35:48Z</time>
      </trkpt>
      <trkpt lat="44.39276" lon="5.82634">
        <ele>1240.24</ele>
        <time>2012-03-22T09:35:49Z</time>
      </trkpt>
      <trkpt lat="44.39276" lon="5.82634">
        <ele>1237.35</ele>
        <time>2012-03-22T09:35:51Z</time>
      </trkpt>
      <trkpt lat="44.39276" lon="5.82634">
        <ele>1241.2</ele>
        <time>2012-03-22T09:36:20Z</time>
      </trkpt>
      <trkpt lat="44.39276" lon="5.82634">
        <ele>1236.87</ele>
        <time>2012-03-22T09:36:21Z</time>
      </trkpt>
      <trkpt lat="44.39276" lon="5.82634">
        <ele>1233.99</ele>
        <time>2012-03-22T09:36:22Z</time>
      </trkpt>
      <trkpt lat="44.39276" lon="5.82634">
        <ele>1238.32</ele>
        <time>2012-03-22T09:36:23Z</time>
      </trkpt>
      <trkpt lat="44.39276" lon="5.82635">
        <ele>1234.95</ele>
        <time>2012-03-22T09:36:25Z</time>
      </trkpt>
      <trkpt lat="44.39275" lon="5.8264">
        <ele>1241.68</ele>
        <time>2012-03-22T09:36:30Z</time>
      </trkpt>
      <trkpt lat="44.39275" lon="5.82642">
        <ele>1235.91</ele>
        <time>2012-03-22T09:36:31Z</time>
      </trkpt>
      <trkpt lat="44.39275" lon="5.82643">
        <ele>1233.03</ele>
        <time>2012-03-22T09:36:32Z</time>
      </trkpt>
      <trkpt lat="44.39275" lon="5.82644">
        <ele>1236.87</ele>
        <time>2012-03-22T09:36:33Z</time>
      </trkpt>
      <trkpt lat="44.39275" lon="5.82647">
        <ele>1242.64</ele>
        <time>2012-03-22T09:36:37Z</time>
      </trkpt>
      <trkpt lat="44.39275" lon="5.82648">
        <ele>1236.39</ele>
        <time>2012-03-22T09:36:38Z</time>
      </trkpt>
      <trkpt lat="44.39274" lon="5.82656">
        <ele>1241.2</ele>
        <time>2012-03-22T09:36:44Z</time>
      </trkpt>
      <trkpt lat="44.39274" lon="5.82659">
        <ele>1239.28</ele>
        <time>2012-03-22T09:36:45Z</time>
      </trkpt>
      <trkpt lat="44.39274" lon="5.8266">
        <ele>1235.43</ele>
        <time>2012-03-22T09:36:46Z</time>
      </trkpt>
      <trkpt lat="44.39273" lon="5.82662">
        <ele>1236.39</ele>
        <time>2012-03-22T09:36:47Z</time>
      </trkpt>
      <trkpt lat="44.39272" lon="5.82664">
        <ele>1231.11</ele>
        <time>2012-03-22T09:36:50Z</time>
      </trkpt>
      <trkpt lat="44.39272" lon="5.82664">
        <ele>1236.87</ele>
        <time>2012-03-22T09:36:51Z</time>
      </trkpt>
      <trkpt lat="44.39272" lon="5.82664">
        <ele>1236.87</ele>
        <time>2012-03-22T09:36:52Z</time>
      </trkpt>
      <trkpt lat="44.39272" lon="5.82665">
        <ele>1229.18</ele>
        <time>2012-03-22T09:36:55Z</time>
      </trkpt>
      <trkpt lat="44.39272" lon="5.82667">
        <ele>1230.62</ele>
        <time>2012-03-22T09:36:56Z</time>
      </trkpt>
      <trkpt lat="44.39272" lon="5.82668">
        <ele>1235.91</ele>
        <time>2012-03-22T09:36:57Z</time>
      </trkpt>
      <trkpt lat="44.39272" lon="5.8267">
        <ele>1237.83</ele>
        <time>2012-03-22T09:36:59Z</time>
      </trkpt>
      <trkpt lat="44.39272" lon="5.82671">
        <ele>1242.64</ele>
        <time>2012-03-22T09:37:00Z</time>
      </trkpt>
      <trkpt lat="44.39271" lon="5.82673">
        <ele>1233.99</ele>
        <time>2012-03-22T09:37:01Z</time>
      </trkpt>
      <trkpt lat="44.39271" lon="5.82673">
        <ele>1235.91</ele>
        <time>2012-03-22T09:37:02Z</time>
      </trkpt>
      <trkpt lat="44.3927" lon="5.82678">
        <ele>1231.59</ele>
        <time>2012-03-22T09:37:05Z</time>
      </trkpt>
      <trkpt lat="44.39269" lon="5.82679">
        <ele>1236.39</ele>
        <time>2012-03-22T09:37:06Z</time>
      </trkpt>
      <trkpt lat="44.39269" lon="5.82681">
        <ele>1233.03</ele>
        <time>2012-03-22T09:37:07Z</time>
      </trkpt>
      <trkpt lat="44.39268" lon="5.82683">
        <ele>1241.68</ele>
        <time>2012-03-22T09:37:10Z</time>
      </trkpt>
      <trkpt lat="44.39268" lon="5.82684">
        <ele>1234.47</ele>
        <time>2012-03-22T09:37:11Z</time>
      </trkpt>
      <trkpt lat="44.39267" lon="5.82687">
        <ele>1233.51</ele>
        <time>2012-03-22T09:37:13Z</time>
      </trkpt>
      <trkpt lat="44.39266" lon="5.82691">
        <ele>1238.8</ele>
        <time>2012-03-22T09:37:15Z</time>
      </trkpt>
      <trkpt lat="44.39266" lon="5.82691">
        <ele>1237.35</ele>
        <time>2012-03-22T09:37:16Z</time>
      </trkpt>
      <trkpt lat="44.39264" lon="5.82697">
        <ele>1233.99</ele>
        <time>2012-03-22T09:37:20Z</time>
      </trkpt>
      <trkpt lat="44.39263" lon="5.82698">
        <ele>1230.14</ele>
        <time>2012-03-22T09:37:21Z</time>
      </trkpt>
      <trkpt lat="44.39263" lon="5.827">
        <ele>1234.47</ele>
        <time>2012-03-22T09:37:22Z</time>
      </trkpt>
      <trkpt lat="44.39263" lon="5.82701">
        <ele>1238.8</ele>
        <time>2012-03-22T09:37:23Z</time>
      </trkpt>
      <trkpt lat="44.39261" lon="5.82705">
        <ele>1233.99</ele>
        <time>2012-03-22T09:37:26Z</time>
      </trkpt>
      <trkpt lat="44.39261" lon="5.82706">
        <ele>1230.62</ele>
        <time>2012-03-22T09:37:27Z</time>
      </trkpt>
      <trkpt lat="44.3926" lon="5.82707">
        <ele>1237.35</ele>
        <time>2012-03-22T09:37:28Z</time>
      </trkpt>
      <trkpt lat="44.39259" lon="5.82708">
        <ele>1235.91</ele>
        <time>2012-03-22T09:37:29Z</time>
      </trkpt>
      <trkpt lat="44.39259" lon="5.82709">
        <ele>1231.11</ele>
        <time>2012-03-22T09:37:30Z</time>
      </trkpt>
      <trkpt lat="44.39258" lon="5.8271">
        <ele>1232.07</ele>
        <time>2012-03-22T09:37:31Z</time>
      </trkpt>
      <trkpt lat="44.39258" lon="5.82711">
        <ele>1238.32</ele>
        <time>2012-03-22T09:37:32Z</time>
      </trkpt>
      <trkpt lat="44.39257" lon="5.82711">
        <ele>1237.35</ele>
        <time>2012-03-22T09:37:33Z</time>
      </trkpt>
      <trkpt lat="44.39256" lon="5.82712">
        <ele>1233.03</ele>
        <time>2012-03-22T09:37:34Z</time>
      </trkpt>
      <trkpt lat="44.39256" lon="5.82712">
        <ele>1234.47</ele>
        <time>2012-03-22T09:37:35Z</time>
      </trkpt>
      <trkpt lat="44.39256" lon="5.82712">
        <ele>1231.11</ele>
        <time>2012-03-22T09:37:38Z</time>
      </trkpt>
      <trkpt lat="44.39256" lon="5.82714">
        <ele>1236.39</ele>
        <time>2012-03-22T09:37:39Z</time>
      </trkpt>
      <trkpt lat="44.39255" lon="5.82715">
        <ele>1240.24</ele>
        <time>2012-03-22T09:37:40Z</time>
      </trkpt>
      <trkpt lat="44.39255" lon="5.82717">
        <ele>1234.47</ele>
        <time>2012-03-22T09:37:41Z</time>
      </trkpt>
      <trkpt lat="44.39254" lon="5.82719">
        <ele>1233.99</ele>
        <time>2012-03-22T09:37:43Z</time>
      </trkpt>
      <trkpt lat="44.39253" lon="5.82722">
        <ele>1235.91</ele>
        <time>2012-03-22T09:37:45Z</time>
      </trkpt>
      <trkpt lat="44.39251" lon="5.82727">
        <ele>1232.55</ele>
        <time>2012-03-22T09:37:48Z</time>
      </trkpt>
      <trkpt lat="44.39251" lon="5.82729">
        <ele>1236.87</ele>
        <time>2012-03-22T09:37:49Z</time>
      </trkpt>
      <trkpt lat="44.3925" lon="5.8273">
        <ele>1233.51</ele>
        <time>2012-03-22T09:37:51Z</time>
      </trkpt>
      <trkpt lat="44.39248" lon="5.82738">
        <ele>1227.74</ele>
        <time>2012-03-22T09:37:58Z</time>
      </trkpt>
      <trkpt lat="44.39248" lon="5.82739">
        <ele>1235.91</ele>
        <time>2012-03-22T09:37:59Z</time>
      </trkpt>
      <trkpt lat="44.39248" lon="5.8274">
        <ele>1241.2</ele>
        <time>2012-03-22T09:38:00Z</time>
      </trkpt>
      <trkpt lat="44.39247" lon="5.82741">
        <ele>1232.55</ele>
        <time>2012-03-22T09:38:01Z</time>
      </trkpt>
      <trkpt lat="44.39247" lon="5.82742">
        <ele>1237.35</ele>
        <time>2012-03-22T09:38:02Z</time>
      </trkpt>
      <trkpt lat="44.39247" lon="5.82745">
        <ele>1232.07</ele>
        <time>2012-03-22T09:38:05Z</time>
      </trkpt>
      <trkpt lat="44.39247" lon="5.82746">
        <ele>1233.51</ele>
        <time>2012-03-22T09:38:06Z</time>
      </trkpt>
      <trkpt lat="44.39245" lon="5.82752">
        <ele>1228.22</ele>
        <time>2012-03-22T09:38:11Z</time>
      </trkpt>
      <trkpt lat="44.39245" lon="5.82753">
        <ele>1236.39</ele>
        <time>2012-03-22T09:38:12Z</time>
      </trkpt>
      <trkpt lat="44.39244" lon="5.82755">
        <ele>1233.03</ele>
        <time>2012-03-22T09:38:14Z</time>
      </trkpt>
      <trkpt lat="44.39244" lon="5.82756">
        <ele>1236.39</ele>
        <time>2012-03-22T09:38:15Z</time>
      </trkpt>
      <trkpt lat="44.39244" lon="5.82758">
        <ele>1232.07</ele>
        <time>2012-03-22T09:38:16Z</time>
      </trkpt>
      <trkpt lat="44.39242" lon="5.82762">
        <ele>1233.03</ele>
        <time>2012-03-22T09:38:20Z</time>
      </trkpt>
      <trkpt lat="44.39242" lon="5.82764">
        <ele>1235.43</ele>
        <time>2012-03-22T09:38:23Z</time>
      </trkpt>
      <trkpt lat="44.39242" lon="5.82764">
        <ele>1230.62</ele>
        <time>2012-03-22T09:38:24Z</time>
      </trkpt>
      <trkpt lat="44.39241" lon="5.82764">
        <ele>1235.43</ele>
        <time>2012-03-22T09:38:25Z</time>
      </trkpt>
      <trkpt lat="44.39241" lon="5.82764">
        <ele>1231.59</ele>
        <time>2012-03-22T09:38:27Z</time>
      </trkpt>
      <trkpt lat="44.39241" lon="5.82764">
        <ele>1232.07</ele>
        <time>2012-03-22T09:38:28Z</time>
      </trkpt>
      <trkpt lat="44.39241" lon="5.82764">
        <ele>1234.95</ele>
        <time>2012-03-22T09:38:35Z</time>
      </trkpt>
      <trkpt lat="44.3924" lon="5.82766">
        <ele>1231.11</ele>
        <time>2012-03-22T09:38:37Z</time>
      </trkpt>
      <trkpt lat="44.3924" lon="5.82766">
        <ele>1235.91</ele>
        <time>2012-03-22T09:38:38Z</time>
      </trkpt>
      <trkpt lat="44.3924" lon="5.82766">
        <ele>1234.47</ele>
        <time>2012-03-22T09:38:39Z</time>
      </trkpt>
      <trkpt lat="44.3924" lon="5.82766">
        <ele>1233.03</ele>
        <time>2012-03-22T09:38:41Z</time>
      </trkpt>
      <trkpt lat="44.3924" lon="5.82766">
        <ele>1233.99</ele>
        <time>2012-03-22T09:38:43Z</time>
      </trkpt>
      <trkpt lat="44.3924" lon="5.82766">
        <ele>1230.14</ele>
        <time>2012-03-22T09:38:45Z</time>
      </trkpt>
      <trkpt lat="44.3924" lon="5.82767">
        <ele>1234.47</ele>
        <time>2012-03-22T09:38:46Z</time>
      </trkpt>
      <trkpt lat="44.39239" lon="5.82772">
        <ele>1230.62</ele>
        <time>2012-03-22T09:38:53Z</time>
      </trkpt>
      <trkpt lat="44.39239" lon="5.82772">
        <ele>1232.07</ele>
        <time>2012-03-22T09:38:54Z</time>
      </trkpt>
      <trkpt lat="44.39239" lon="5.82772">
        <ele>1234.95</ele>
        <time>2012-03-22T09:38:55Z</time>
      </trkpt>
      <trkpt lat="44.39239" lon="5.82772">
        <ele>1234.95</ele>
        <time>2012-03-22T09:38:56Z</time>
      </trkpt>
      <trkpt lat="44.39238" lon="5.82775">
        <ele>1238.8</ele>
        <time>2012-03-22T09:39:04Z</time>
      </trkpt>
      <trkpt lat="44.39237" lon="5.82775">
        <ele>1233.99</ele>
        <time>2012-03-22T09:39:05Z</time>
      </trkpt>
      <trkpt lat="44.39237" lon="5.82777">
        <ele>1231.59</ele>
        <time>2012-03-22T09:39:07Z</time>
      </trkpt>
      <trkpt lat="44.39236" lon="5.82778">
        <ele>1236.39</ele>
        <time>2012-03-22T09:39:08Z</time>
      </trkpt>
      <trkpt lat="44.39236" lon="5.82779">
        <ele>1235.43</ele>
        <time>2012-03-22T09:39:09Z</time>
      </trkpt>
      <trkpt lat="44.39235" lon="5.82783">
        <ele>1234.47</ele>
        <time>2012-03-22T09:39:13Z</time>
      </trkpt>
      <trkpt lat="44.39235" lon="5.82784">
        <ele>1230.14</ele>
        <time>2012-03-22T09:39:14Z</time>
      </trkpt>
      <trkpt lat="44.39235" lon="5.82786">
        <ele>1234.47</ele>
        <time>2012-03-22T09:39:15Z</time>
      </trkpt>
      <trkpt lat="44.39233" lon="5.82793">
        <ele>1233.51</ele>
        <time>2012-03-22T09:39:22Z</time>
      </trkpt>
      <trkpt lat="44.39232" lon="5.82794">
        <ele>1232.55</ele>
        <time>2012-03-22T09:39:24Z</time>
      </trkpt>
      <trkpt lat="44.39232" lon="5.82795">
        <ele>1236.39</ele>
        <time>2012-03-22T09:39:25Z</time>
      </trkpt>
      <trkpt lat="44.39231" lon="5.82796">
        <ele>1234.95</ele>
        <time>2012-03-22T09:39:26Z</time>
      </trkpt>
      <trkpt lat="44.3923" lon="5.82801">
        <ele>1230.62</ele>
        <time>2012-03-22T09:39:30Z</time>
      </trkpt>
      <trkpt lat="44.3923" lon="5.82802">
        <ele>1231.11</ele>
        <time>2012-03-22T09:39:31Z</time>
      </trkpt>
      <trkpt lat="44.3923" lon="5.82803">
        <ele>1235.91</ele>
        <time>2012-03-22T09:39:32Z</time>
      </trkpt>
      <trkpt lat="44.3923" lon="5.82804">
        <ele>1233.99</ele>
        <time>2012-03-22T09:39:33Z</time>
      </trkpt>
      <trkpt lat="44.3923" lon="5.82805">
        <ele>1231.11</ele>
        <time>2012-03-22T09:39:34Z</time>
      </trkpt>
      <trkpt lat="44.3923" lon="5.82806">
        <ele>1238.32</ele>
        <time>2012-03-22T09:39:35Z</time>
      </trkpt>
      <trkpt lat="44.3923" lon="5.82806">
        <ele>1232.55</ele>
        <time>2012-03-22T09:39:36Z</time>
      </trkpt>
      <trkpt lat="44.39228" lon="5.82809">
        <ele>1235.91</ele>
        <time>2012-03-22T09:39:42Z</time>
      </trkpt>
      <trkpt lat="44.39227" lon="5.82811">
        <ele>1231.11</ele>
        <time>2012-03-22T09:39:45Z</time>
      </trkpt>
      <trkpt lat="44.39225" lon="5.82814">
        <ele>1228.22</ele>
        <time>2012-03-22T09:39:49Z</time>
      </trkpt>
      <trkpt lat="44.39225" lon="5.82815">
        <ele>1233.51</ele>
        <time>2012-03-22T09:39:50Z</time>
      </trkpt>
      <trkpt lat="44.39225" lon="5.82817">
        <ele>1228.7</ele>
        <time>2012-03-22T09:39:52Z</time>
      </trkpt>
      <trkpt lat="44.39224" lon="5.82818">
        <ele>1236.39</ele>
        <time>2012-03-22T09:39:53Z</time>
      </trkpt>
      <trkpt lat="44.39224" lon="5.82818">
        <ele>1233.03</ele>
        <time>2012-03-22T09:39:54Z</time>
      </trkpt>
      <trkpt lat="44.39223" lon="5.82822">
        <ele>1238.32</ele>
        <time>2012-03-22T09:39:58Z</time>
      </trkpt>
      <trkpt lat="44.39222" lon="5.82823">
        <ele>1232.55</ele>
        <time>2012-03-22T09:39:59Z</time>
      </trkpt>
      <trkpt lat="44.39221" lon="5.8283">
        <ele>1233.99</ele>
        <time>2012-03-22T09:40:07Z</time>
      </trkpt>
      <trkpt lat="44.39221" lon="5.82831">
        <ele>1230.62</ele>
        <time>2012-03-22T09:40:10Z</time>
      </trkpt>
      <trkpt lat="44.3922" lon="5.82835">
        <ele>1237.83</ele>
        <time>2012-03-22T09:40:17Z</time>
      </trkpt>
      <trkpt lat="44.3922" lon="5.82836">
        <ele>1234.47</ele>
        <time>2012-03-22T09:40:18Z</time>
      </trkpt>
      <trkpt lat="44.39218" lon="5.82846">
        <ele>1234.47</ele>
        <time>2012-03-22T09:40:27Z</time>
      </trkpt>
      <trkpt lat="44.39218" lon="5.82849">
        <ele>1229.18</ele>
        <time>2012-03-22T09:40:36Z</time>
      </trkpt>
      <trkpt lat="44.39218" lon="5.82849">
        <ele>1233.03</ele>
        <time>2012-03-22T09:40:37Z</time>
      </trkpt>
      <trkpt lat="44.39218" lon="5.82849">
        <ele>1234.47</ele>
        <time>2012-03-22T09:40:38Z</time>
      </trkpt>
      <trkpt lat="44.39217" lon="5.82852">
        <ele>1229.18</ele>
        <time>2012-03-22T09:40:40Z</time>
      </trkpt>
      <trkpt lat="44.39217" lon="5.82852">
        <ele>1233.03</ele>
        <time>2012-03-22T09:40:41Z</time>
      </trkpt>
      <trkpt lat="44.39217" lon="5.82852">
        <ele>1228.22</ele>
        <time>2012-03-22T09:40:42Z</time>
      </trkpt>
      <trkpt lat="44.39217" lon="5.82852">
        <ele>1235.91</ele>
        <time>2012-03-22T09:40:43Z</time>
      </trkpt>
      <trkpt lat="44.39217" lon="5.82852">
        <ele>1229.18</ele>
        <time>2012-03-22T09:40:44Z</time>
      </trkpt>
      <trkpt lat="44.39217" lon="5.82852">
        <ele>1233.51</ele>
        <time>2012-03-22T09:40:45Z</time>
      </trkpt>
      <trkpt lat="44.39217" lon="5.82852">
        <ele>1230.62</ele>
        <time>2012-03-22T09:40:48Z</time>
      </trkpt>
      <trkpt lat="44.39217" lon="5.82852">
        <ele>1232.55</ele>
        <time>2012-03-22T09:40:50Z</time>
      </trkpt>
      <trkpt lat="44.39217" lon="5.82852">
        <ele>1228.7</ele>
        <time>2012-03-22T09:40:51Z</time>
      </trkpt>
      <trkpt lat="44.39217" lon="5.82852">
        <ele>1233.03</ele>
        <time>2012-03-22T09:40:52Z</time>
      </trkpt>
      <trkpt lat="44.39216" lon="5.82857">
        <ele>1232.07</ele>
        <time>2012-03-22T09:40:56Z</time>
      </trkpt>
      <trkpt lat="44.39214" lon="5.82864">
        <ele>1232.07</ele>
        <time>2012-03-22T09:41:05Z</time>
      </trkpt>
      <trkpt lat="44.39214" lon="5.82864">
        <ele>1236.87</ele>
        <time>2012-03-22T09:41:07Z</time>
      </trkpt>
      <trkpt lat="44.39214" lon="5.82864">
        <ele>1233.51</ele>
        <time>2012-03-22T09:41:08Z</time>
      </trkpt>
      <trkpt lat="44.39214" lon="5.82864">
        <ele>1232.07</ele>
        <time>2012-03-22T09:41:11Z</time>
      </trkpt>
      <trkpt lat="44.39214" lon="5.82864">
        <ele>1230.62</ele>
        <time>2012-03-22T09:41:19Z</time>
      </trkpt>
      <trkpt lat="44.39213" lon="5.82866">
        <ele>1235.91</ele>
        <time>2012-03-22T09:41:21Z</time>
      </trkpt>
      <trkpt lat="44.39213" lon="5.8287">
        <ele>1231.59</ele>
        <time>2012-03-22T09:41:24Z</time>
      </trkpt>
      <trkpt lat="44.39213" lon="5.8287">
        <ele>1227.74</ele>
        <time>2012-03-22T09:41:28Z</time>
      </trkpt>
      <trkpt lat="44.39213" lon="5.8287">
        <ele>1231.59</ele>
        <time>2012-03-22T09:41:30Z</time>
      </trkpt>
      <trkpt lat="44.39213" lon="5.8287">
        <ele>1226.78</ele>
        <time>2012-03-22T09:41:31Z</time>
      </trkpt>
      <trkpt lat="44.39213" lon="5.8287">
        <ele>1230.14</ele>
        <time>2012-03-22T09:41:32Z</time>
      </trkpt>
      <trkpt lat="44.39213" lon="5.82872">
        <ele>1226.3</ele>
        <time>2012-03-22T09:41:36Z</time>
      </trkpt>
      <trkpt lat="44.39213" lon="5.82874">
        <ele>1236.39</ele>
        <time>2012-03-22T09:41:37Z</time>
      </trkpt>
      <trkpt lat="44.39212" lon="5.82876">
        <ele>1230.62</ele>
        <time>2012-03-22T09:41:38Z</time>
      </trkpt>
      <trkpt lat="44.39209" lon="5.82887">
        <ele>1226.3</ele>
        <time>2012-03-22T09:41:44Z</time>
      </trkpt>
      <trkpt lat="44.39208" lon="5.82889">
        <ele>1238.8</ele>
        <time>2012-03-22T09:41:45Z</time>
      </trkpt>
      <trkpt lat="44.39206" lon="5.82895">
        <ele>1233.51</ele>
        <time>2012-03-22T09:41:49Z</time>
      </trkpt>
      <trkpt lat="44.39205" lon="5.82896">
        <ele>1233.99</ele>
        <time>2012-03-22T09:41:50Z</time>
      </trkpt>
      <trkpt lat="44.39204" lon="5.82898">
        <ele>1226.3</ele>
        <time>2012-03-22T09:41:51Z</time>
      </trkpt>
      <trkpt lat="44.39203" lon="5.82901">
        <ele>1236.87</ele>
        <time>2012-03-22T09:41:53Z</time>
      </trkpt>
      <trkpt lat="44.39203" lon="5.82902">
        <ele>1230.62</ele>
        <time>2012-03-22T09:41:54Z</time>
      </trkpt>
      <trkpt lat="44.39201" lon="5.82907">
        <ele>1238.32</ele>
        <time>2012-03-22T09:41:58Z</time>
      </trkpt>
      <trkpt lat="44.392" lon="5.82908">
        <ele>1228.22</ele>
        <time>2012-03-22T09:41:59Z</time>
      </trkpt>
      <trkpt lat="44.39199" lon="5.82909">
        <ele>1234.47</ele>
        <time>2012-03-22T09:42:00Z</time>
      </trkpt>
      <trkpt lat="44.39198" lon="5.82911">
        <ele>1230.62</ele>
        <time>2012-03-22T09:42:02Z</time>
      </trkpt>
      <trkpt lat="44.39197" lon="5.82913">
        <ele>1233.99</ele>
        <time>2012-03-22T09:42:03Z</time>
      </trkpt>
      <trkpt lat="44.39196" lon="5.82914">
        <ele>1223.42</ele>
        <time>2012-03-22T09:42:04Z</time>
      </trkpt>
      <trkpt lat="44.39195" lon="5.82915">
        <ele>1231.59</ele>
        <time>2012-03-22T09:42:05Z</time>
      </trkpt>
      <trkpt lat="44.39194" lon="5.82917">
        <ele>1228.22</ele>
        <time>2012-03-22T09:42:07Z</time>
      </trkpt>
      <trkpt lat="44.39191" lon="5.82924">
        <ele>1233.03</ele>
        <time>2012-03-22T09:42:12Z</time>
      </trkpt>
      <trkpt lat="44.39191" lon="5.82925">
        <ele>1225.34</ele>
        <time>2012-03-22T09:42:13Z</time>
      </trkpt>
      <trkpt lat="44.39191" lon="5.82927">
        <ele>1232.07</ele>
        <time>2012-03-22T09:42:14Z</time>
      </trkpt>
      <trkpt lat="44.3919" lon="5.82929">
        <ele>1226.78</ele>
        <time>2012-03-22T09:42:16Z</time>
      </trkpt>
      <trkpt lat="44.39189" lon="5.82931">
        <ele>1230.62</ele>
        <time>2012-03-22T09:42:17Z</time>
      </trkpt>
      <trkpt lat="44.39188" lon="5.82935">
        <ele>1226.3</ele>
        <time>2012-03-22T09:42:19Z</time>
      </trkpt>
      <trkpt lat="44.39187" lon="5.82937">
        <ele>1229.18</ele>
        <time>2012-03-22T09:42:20Z</time>
      </trkpt>
      <trkpt lat="44.39185" lon="5.82941">
        <ele>1223.42</ele>
        <time>2012-03-22T09:42:23Z</time>
      </trkpt>
      <trkpt lat="44.39185" lon="5.82941">
        <ele>1229.18</ele>
        <time>2012-03-22T09:42:24Z</time>
      </trkpt>
      <trkpt lat="44.39184" lon="5.82943">
        <ele>1234.95</ele>
        <time>2012-03-22T09:42:27Z</time>
      </trkpt>
      <trkpt lat="44.39184" lon="5.82945">
        <ele>1234.47</ele>
        <time>2012-03-22T09:42:28Z</time>
      </trkpt>
      <trkpt lat="44.39184" lon="5.82946">
        <ele>1226.78</ele>
        <time>2012-03-22T09:42:29Z</time>
      </trkpt>
      <trkpt lat="44.39182" lon="5.82954">
        <ele>1220.53</ele>
        <time>2012-03-22T09:42:36Z</time>
      </trkpt>
      <trkpt lat="44.39182" lon="5.82954">
        <ele>1230.14</ele>
        <time>2012-03-22T09:42:37Z</time>
      </trkpt>
      <trkpt lat="44.39182" lon="5.82957">
        <ele>1233.51</ele>
        <time>2012-03-22T09:42:43Z</time>
      </trkpt>
      <trkpt lat="44.39182" lon="5.82957">
        <ele>1228.22</ele>
        <time>2012-03-22T09:42:44Z</time>
      </trkpt>
      <trkpt lat="44.39182" lon="5.82959">
        <ele>1231.59</ele>
        <time>2012-03-22T09:42:45Z</time>
      </trkpt>
      <trkpt lat="44.39182" lon="5.82959">
        <ele>1225.82</ele>
        <time>2012-03-22T09:42:46Z</time>
      </trkpt>
      <trkpt lat="44.39182" lon="5.82959">
        <ele>1236.39</ele>
        <time>2012-03-22T09:42:47Z</time>
      </trkpt>
      <trkpt lat="44.39181" lon="5.8296">
        <ele>1228.7</ele>
        <time>2012-03-22T09:42:48Z</time>
      </trkpt>
      <trkpt lat="44.39181" lon="5.8296">
        <ele>1233.03</ele>
        <time>2012-03-22T09:42:49Z</time>
      </trkpt>
      <trkpt lat="44.3918" lon="5.82962">
        <ele>1227.74</ele>
        <time>2012-03-22T09:42:50Z</time>
      </trkpt>
      <trkpt lat="44.39178" lon="5.8297">
        <ele>1234.47</ele>
        <time>2012-03-22T09:42:55Z</time>
      </trkpt>
      <trkpt lat="44.39178" lon="5.82972">
        <ele>1227.74</ele>
        <time>2012-03-22T09:42:56Z</time>
      </trkpt>
      <trkpt lat="44.39176" lon="5.82978">
        <ele>1233.51</ele>
        <time>2012-03-22T09:43:02Z</time>
      </trkpt>
      <trkpt lat="44.39176" lon="5.8298">
        <ele>1229.18</ele>
        <time>2012-03-22T09:43:03Z</time>
      </trkpt>
      <trkpt lat="44.39175" lon="5.82983">
        <ele>1233.51</ele>
        <time>2012-03-22T09:43:05Z</time>
      </trkpt>
      <trkpt lat="44.39175" lon="5.82985">
        <ele>1227.74</ele>
        <time>2012-03-22T09:43:06Z</time>
      </trkpt>
      <trkpt lat="44.39172" lon="5.82993">
        <ele>1228.7</ele>
        <time>2012-03-22T09:43:11Z</time>
      </trkpt>
      <trkpt lat="44.39171" lon="5.82997">
        <ele>1225.34</ele>
        <time>2012-03-22T09:43:14Z</time>
      </trkpt>
      <trkpt lat="44.39171" lon="5.82999">
        <ele>1231.59</ele>
        <time>2012-03-22T09:43:16Z</time>
      </trkpt>
      <trkpt lat="44.39169" lon="5.83003">
        <ele>1226.78</ele>
        <time>2012-03-22T09:43:17Z</time>
      </trkpt>
      <trkpt lat="44.39166" lon="5.83011">
        <ele>1228.22</ele>
        <time>2012-03-22T09:43:23Z</time>
      </trkpt>
      <trkpt lat="44.39165" lon="5.83015">
        <ele>1227.26</ele>
        <time>2012-03-22T09:43:28Z</time>
      </trkpt>
      <trkpt lat="44.39165" lon="5.83016">
        <ele>1230.62</ele>
        <time>2012-03-22T09:43:29Z</time>
      </trkpt>
      <trkpt lat="44.39164" lon="5.83017">
        <ele>1227.26</ele>
        <time>2012-03-22T09:43:30Z</time>
      </trkpt>
      <trkpt lat="44.39164" lon="5.83019">
        <ele>1223.9</ele>
        <time>2012-03-22T09:43:32Z</time>
      </trkpt>
      <trkpt lat="44.39163" lon="5.8302">
        <ele>1227.26</ele>
        <time>2012-03-22T09:43:33Z</time>
      </trkpt>
      <trkpt lat="44.39162" lon="5.83024">
        <ele>1231.11</ele>
        <time>2012-03-22T09:43:36Z</time>
      </trkpt>
      <trkpt lat="44.39162" lon="5.83025">
        <ele>1229.18</ele>
        <time>2012-03-22T09:43:37Z</time>
      </trkpt>
      <trkpt lat="44.39161" lon="5.83026">
        <ele>1233.51</ele>
        <time>2012-03-22T09:43:41Z</time>
      </trkpt>
      <trkpt lat="44.39161" lon="5.83026">
        <ele>1228.22</ele>
        <time>2012-03-22T09:43:42Z</time>
      </trkpt>
      <trkpt lat="44.3916" lon="5.83029">
        <ele>1229.18</ele>
        <time>2012-03-22T09:43:48Z</time>
      </trkpt>
      <trkpt lat="44.39158" lon="5.83034">
        <ele>1227.26</ele>
        <time>2012-03-22T09:43:54Z</time>
      </trkpt>
      <trkpt lat="44.39155" lon="5.83041">
        <ele>1233.03</ele>
        <time>2012-03-22T09:44:01Z</time>
      </trkpt>
      <trkpt lat="44.39155" lon="5.83041">
        <ele>1227.74</ele>
        <time>2012-03-22T09:44:02Z</time>
      </trkpt>
      <trkpt lat="44.39154" lon="5.83043">
        <ele>1224.38</ele>
        <time>2012-03-22T09:44:03Z</time>
      </trkpt>
      <trkpt lat="44.39153" lon="5.83044">
        <ele>1226.78</ele>
        <time>2012-03-22T09:44:04Z</time>
      </trkpt>
      <trkpt lat="44.39151" lon="5.83047">
        <ele>1230.14</ele>
        <time>2012-03-22T09:44:08Z</time>
      </trkpt>
      <trkpt lat="44.39151" lon="5.83049">
        <ele>1222.45</ele>
        <time>2012-03-22T09:44:09Z</time>
      </trkpt>
      <trkpt lat="44.3915" lon="5.8305">
        <ele>1225.82</ele>
        <time>2012-03-22T09:44:10Z</time>
      </trkpt>
      <trkpt lat="44.39148" lon="5.83054">
        <ele>1231.11</ele>
        <time>2012-03-22T09:44:13Z</time>
      </trkpt>
      <trkpt lat="44.39147" lon="5.83057">
        <ele>1228.22</ele>
        <time>2012-03-22T09:44:15Z</time>
      </trkpt>
      <trkpt lat="44.39146" lon="5.83057">
        <ele>1224.86</ele>
        <time>2012-03-22T09:44:16Z</time>
      </trkpt>
      <trkpt lat="44.39145" lon="5.83058">
        <ele>1226.3</ele>
        <time>2012-03-22T09:44:17Z</time>
      </trkpt>
      <trkpt lat="44.39143" lon="5.83061">
        <ele>1223.42</ele>
        <time>2012-03-22T09:44:20Z</time>
      </trkpt>
      <trkpt lat="44.39142" lon="5.83061">
        <ele>1224.38</ele>
        <time>2012-03-22T09:44:21Z</time>
      </trkpt>
      <trkpt lat="44.39141" lon="5.83062">
        <ele>1226.3</ele>
        <time>2012-03-22T09:44:23Z</time>
      </trkpt>
      <trkpt lat="44.3914" lon="5.83064">
        <ele>1230.62</ele>
        <time>2012-03-22T09:44:25Z</time>
      </trkpt>
      <trkpt lat="44.3914" lon="5.83066">
        <ele>1224.38</ele>
        <time>2012-03-22T09:44:26Z</time>
      </trkpt>
      <trkpt lat="44.3914" lon="5.83067">
        <ele>1228.7</ele>
        <time>2012-03-22T09:44:29Z</time>
      </trkpt>
      <trkpt lat="44.39139" lon="5.83068">
        <ele>1225.34</ele>
        <time>2012-03-22T09:44:30Z</time>
      </trkpt>
      <trkpt lat="44.39137" lon="5.83072">
        <ele>1231.11</ele>
        <time>2012-03-22T09:44:37Z</time>
      </trkpt>
      <trkpt lat="44.39136" lon="5.83074">
        <ele>1224.86</ele>
        <time>2012-03-22T09:44:38Z</time>
      </trkpt>
      <trkpt lat="44.39137" lon="5.8308">
        <ele>1229.66</ele>
        <time>2012-03-22T09:44:43Z</time>
      </trkpt>
      <trkpt lat="44.39137" lon="5.8308">
        <ele>1233.51</ele>
        <time>2012-03-22T09:44:44Z</time>
      </trkpt>
      <trkpt lat="44.39136" lon="5.83081">
        <ele>1227.26</ele>
        <time>2012-03-22T09:44:45Z</time>
      </trkpt>
      <trkpt lat="44.39136" lon="5.83084">
        <ele>1226.3</ele>
        <time>2012-03-22T09:44:47Z</time>
      </trkpt>
      <trkpt lat="44.39135" lon="5.83086">
        <ele>1221.97</ele>
        <time>2012-03-22T09:44:49Z</time>
      </trkpt>
      <trkpt lat="44.39134" lon="5.83088">
        <ele>1225.82</ele>
        <time>2012-03-22T09:44:50Z</time>
      </trkpt>
      <trkpt lat="44.39132" lon="5.83091">
        <ele>1224.38</ele>
        <time>2012-03-22T09:44:53Z</time>
      </trkpt>
      <trkpt lat="44.39132" lon="5.83096">
        <ele>1224.86</ele>
        <time>2012-03-22T09:44:58Z</time>
      </trkpt>
      <trkpt lat="44.39131" lon="5.83098">
        <ele>1223.9</ele>
        <time>2012-03-22T09:45:00Z</time>
      </trkpt>
      <trkpt lat="44.39131" lon="5.83099">
        <ele>1229.18</ele>
        <time>2012-03-22T09:45:01Z</time>
      </trkpt>
      <trkpt lat="44.3913" lon="5.831">
        <ele>1223.9</ele>
        <time>2012-03-22T09:45:02Z</time>
      </trkpt>
      <trkpt lat="44.3913" lon="5.83103">
        <ele>1228.7</ele>
        <time>2012-03-22T09:45:06Z</time>
      </trkpt>
      <trkpt lat="44.39129" lon="5.83105">
        <ele>1221.97</ele>
        <time>2012-03-22T09:45:07Z</time>
      </trkpt>
      <trkpt lat="44.39129" lon="5.83106">
        <ele>1223.9</ele>
        <time>2012-03-22T09:45:08Z</time>
      </trkpt>
      <trkpt lat="44.39129" lon="5.83107">
        <ele>1230.14</ele>
        <time>2012-03-22T09:45:09Z</time>
      </trkpt>
      <trkpt lat="44.39128" lon="5.83108">
        <ele>1224.86</ele>
        <time>2012-03-22T09:45:10Z</time>
      </trkpt>
      <trkpt lat="44.39125" lon="5.83117">
        <ele>1224.38</ele>
        <time>2012-03-22T09:45:19Z</time>
      </trkpt>
      <trkpt lat="44.39125" lon="5.83122">
        <ele>1226.78</ele>
        <time>2012-03-22T09:45:23Z</time>
      </trkpt>
      <trkpt lat="44.39125" lon="5.83123">
        <ele>1230.14</ele>
        <time>2012-03-22T09:45:25Z</time>
      </trkpt>
      <trkpt lat="44.39125" lon="5.83124">
        <ele>1225.34</ele>
        <time>2012-03-22T09:45:26Z</time>
      </trkpt>
      <trkpt lat="44.39125" lon="5.83127">
        <ele>1228.22</ele>
        <time>2012-03-22T09:45:29Z</time>
      </trkpt>
      <trkpt lat="44.39123" lon="5.8313">
        <ele>1223.42</ele>
        <time>2012-03-22T09:45:31Z</time>
      </trkpt>
      <trkpt lat="44.39118" lon="5.83136">
        <ele>1224.86</ele>
        <time>2012-03-22T09:45:41Z</time>
      </trkpt>
      <trkpt lat="44.39118" lon="5.83136">
        <ele>1224.38</ele>
        <time>2012-03-22T09:45:46Z</time>
      </trkpt>
      <trkpt lat="44.39116" lon="5.83138">
        <ele>1224.38</ele>
        <time>2012-03-22T09:46:06Z</time>
      </trkpt>
      <trkpt lat="44.39115" lon="5.83139">
        <ele>1227.74</ele>
        <time>2012-03-22T09:46:07Z</time>
      </trkpt>
      <trkpt lat="44.39114" lon="5.8314">
        <ele>1225.82</ele>
        <time>2012-03-22T09:46:08Z</time>
      </trkpt>
      <trkpt lat="44.39114" lon="5.8314">
        <ele>1222.45</ele>
        <time>2012-03-22T09:46:19Z</time>
      </trkpt>
      <trkpt lat="44.39114" lon="5.8314">
        <ele>1225.82</ele>
        <time>2012-03-22T09:46:20Z</time>
      </trkpt>
      <trkpt lat="44.39113" lon="5.83139">
        <ele>1225.82</ele>
        <time>2012-03-22T09:46:21Z</time>
      </trkpt>
      <trkpt lat="44.39113" lon="5.83139">
        <ele>1224.38</ele>
        <time>2012-03-22T09:46:38Z</time>
      </trkpt>
      <trkpt lat="44.39113" lon="5.83139">
        <ele>1219.09</ele>
        <time>2012-03-22T09:47:14Z</time>
      </trkpt>
      <trkpt lat="44.39113" lon="5.83139">
        <ele>1224.38</ele>
        <time>2012-03-22T09:47:15Z</time>
      </trkpt>
      <trkpt lat="44.39113" lon="5.83139">
        <ele>1227.74</ele>
        <time>2012-03-22T09:47:16Z</time>
      </trkpt>
      <trkpt lat="44.39112" lon="5.8314">
        <ele>1226.78</ele>
        <time>2012-03-22T09:47:17Z</time>
      </trkpt>
      <trkpt lat="44.39112" lon="5.83141">
        <ele>1230.14</ele>
        <time>2012-03-22T09:47:18Z</time>
      </trkpt>
      <trkpt lat="44.39112" lon="5.83142">
        <ele>1229.18</ele>
        <time>2012-03-22T09:47:19Z</time>
      </trkpt>
      <trkpt lat="44.39111" lon="5.83143">
        <ele>1225.34</ele>
        <time>2012-03-22T09:47:20Z</time>
      </trkpt>
      <trkpt lat="44.39109" lon="5.83148">
        <ele>1220.53</ele>
        <time>2012-03-22T09:47:24Z</time>
      </trkpt>
      <trkpt lat="44.39108" lon="5.83149">
        <ele>1223.42</ele>
        <time>2012-03-22T09:47:25Z</time>
      </trkpt>
      <trkpt lat="44.39107" lon="5.83153">
        <ele>1229.66</ele>
        <time>2012-03-22T09:47:28Z</time>
      </trkpt>
      <trkpt lat="44.39106" lon="5.83154">
        <ele>1218.13</ele>
        <time>2012-03-22T09:47:29Z</time>
      </trkpt>
      <trkpt lat="44.39106" lon="5.83155">
        <ele>1229.66</ele>
        <time>2012-03-22T09:47:30Z</time>
      </trkpt>
      <trkpt lat="44.39105" lon="5.83158">
        <ele>1226.78</ele>
        <time>2012-03-22T09:47:32Z</time>
      </trkpt>
      <trkpt lat="44.39103" lon="5.83168">
        <ele>1221.49</ele>
        <time>2012-03-22T09:47:37Z</time>
      </trkpt>
      <trkpt lat="44.39103" lon="5.8317">
        <ele>1222.45</ele>
        <time>2012-03-22T09:47:38Z</time>
      </trkpt>
      <trkpt lat="44.39101" lon="5.83174">
        <ele>1227.26</ele>
        <time>2012-03-22T09:47:41Z</time>
      </trkpt>
      <trkpt lat="44.39101" lon="5.83175">
        <ele>1222.45</ele>
        <time>2012-03-22T09:47:42Z</time>
      </trkpt>
      <trkpt lat="44.391" lon="5.83176">
        <ele>1225.34</ele>
        <time>2012-03-22T09:47:43Z</time>
      </trkpt>
      <trkpt lat="44.39099" lon="5.83179">
        <ele>1228.7</ele>
        <time>2012-03-22T09:47:45Z</time>
      </trkpt>
      <trkpt lat="44.39099" lon="5.83182">
        <ele>1230.14</ele>
        <time>2012-03-22T09:47:46Z</time>
      </trkpt>
      <trkpt lat="44.39095" lon="5.83187">
        <ele>1219.09</ele>
        <time>2012-03-22T09:47:51Z</time>
      </trkpt>
      <trkpt lat="44.39095" lon="5.83188">
        <ele>1231.59</ele>
        <time>2012-03-22T09:47:52Z</time>
      </trkpt>
      <trkpt lat="44.39094" lon="5.83189">
        <ele>1224.38</ele>
        <time>2012-03-22T09:47:53Z</time>
      </trkpt>
      <trkpt lat="44.39093" lon="5.83191">
        <ele>1219.57</ele>
        <time>2012-03-22T09:47:55Z</time>
      </trkpt>
      <trkpt lat="44.39093" lon="5.83192">
        <ele>1223.9</ele>
        <time>2012-03-22T09:47:56Z</time>
      </trkpt>
      <trkpt lat="44.39089" lon="5.83196">
        <ele>1221.49</ele>
        <time>2012-03-22T09:48:00Z</time>
      </trkpt>
      <trkpt lat="44.39086" lon="5.83198">
        <ele>1225.34</ele>
        <time>2012-03-22T09:48:03Z</time>
      </trkpt>
      <trkpt lat="44.39086" lon="5.83199">
        <ele>1225.34</ele>
        <time>2012-03-22T09:48:04Z</time>
      </trkpt>
      <trkpt lat="44.39085" lon="5.832">
        <ele>1230.14</ele>
        <time>2012-03-22T09:48:05Z</time>
      </trkpt>
      <trkpt lat="44.39085" lon="5.83201">
        <ele>1224.38</ele>
        <time>2012-03-22T09:48:06Z</time>
      </trkpt>
      <trkpt lat="44.39085" lon="5.83202">
        <ele>1218.13</ele>
        <time>2012-03-22T09:48:07Z</time>
      </trkpt>
      <trkpt lat="44.39086" lon="5.83203">
        <ele>1223.9</ele>
        <time>2012-03-22T09:48:08Z</time>
      </trkpt>
      <trkpt lat="44.39086" lon="5.83203">
        <ele>1227.74</ele>
        <time>2012-03-22T09:48:11Z</time>
      </trkpt>
      <trkpt lat="44.39086" lon="5.83204">
        <ele>1223.42</ele>
        <time>2012-03-22T09:48:13Z</time>
      </trkpt>
      <trkpt lat="44.39086" lon="5.83204">
        <ele>1223.42</ele>
        <time>2012-03-22T09:48:14Z</time>
      </trkpt>
      <trkpt lat="44.39084" lon="5.8321">
        <ele>1223.42</ele>
        <time>2012-03-22T09:48:18Z</time>
      </trkpt>
      <trkpt lat="44.39082" lon="5.83215">
        <ele>1225.82</ele>
        <time>2012-03-22T09:48:22Z</time>
      </trkpt>
      <trkpt lat="44.39078" lon="5.83224">
        <ele>1219.57</ele>
        <time>2012-03-22T09:48:27Z</time>
      </trkpt>
      <trkpt lat="44.39076" lon="5.83226">
        <ele>1215.24</ele>
        <time>2012-03-22T09:48:28Z</time>
      </trkpt>
      <trkpt lat="44.39076" lon="5.83228">
        <ele>1218.13</ele>
        <time>2012-03-22T09:48:29Z</time>
      </trkpt>
      <trkpt lat="44.39075" lon="5.8323">
        <ele>1222.93</ele>
        <time>2012-03-22T09:48:30Z</time>
      </trkpt>
      <trkpt lat="44.39075" lon="5.83231">
        <ele>1222.93</ele>
        <time>2012-03-22T09:48:31Z</time>
      </trkpt>
      <trkpt lat="44.39072" lon="5.83238">
        <ele>1218.61</ele>
        <time>2012-03-22T09:48:36Z</time>
      </trkpt>
      <trkpt lat="44.39072" lon="5.83241">
        <ele>1225.34</ele>
        <time>2012-03-22T09:48:38Z</time>
      </trkpt>
      <trkpt lat="44.3907" lon="5.83247">
        <ele>1220.53</ele>
        <time>2012-03-22T09:48:41Z</time>
      </trkpt>
      <trkpt lat="44.39069" lon="5.83252">
        <ele>1223.9</ele>
        <time>2012-03-22T09:48:45Z</time>
      </trkpt>
      <trkpt lat="44.39069" lon="5.83252">
        <ele>1231.11</ele>
        <time>2012-03-22T09:48:46Z</time>
      </trkpt>
      <trkpt lat="44.39068" lon="5.83253">
        <ele>1216.21</ele>
        <time>2012-03-22T09:48:47Z</time>
      </trkpt>
      <trkpt lat="44.39067" lon="5.83254">
        <ele>1226.78</ele>
        <time>2012-03-22T09:48:48Z</time>
      </trkpt>
      <trkpt lat="44.39065" lon="5.83257">
        <ele>1218.13</ele>
        <time>2012-03-22T09:48:50Z</time>
      </trkpt>
      <trkpt lat="44.39064" lon="5.83258">
        <ele>1220.05</ele>
        <time>2012-03-22T09:48:51Z</time>
      </trkpt>
      <trkpt lat="44.39063" lon="5.83261">
        <ele>1223.42</ele>
        <time>2012-03-22T09:48:54Z</time>
      </trkpt>
      <trkpt lat="44.39061" lon="5.83263">
        <ele>1219.09</ele>
        <time>2012-03-22T09:48:57Z</time>
      </trkpt>
      <trkpt lat="44.39059" lon="5.83265">
        <ele>1222.93</ele>
        <time>2012-03-22T09:49:02Z</time>
      </trkpt>
      <trkpt lat="44.39059" lon="5.83266">
        <ele>1222.93</ele>
        <time>2012-03-22T09:49:03Z</time>
      </trkpt>
      <trkpt lat="44.39057" lon="5.83267">
        <ele>1216.69</ele>
        <time>2012-03-22T09:49:05Z</time>
      </trkpt>
      <trkpt lat="44.39055" lon="5.83268">
        <ele>1220.53</ele>
        <time>2012-03-22T09:49:07Z</time>
      </trkpt>
      <trkpt lat="44.39054" lon="5.83268">
        <ele>1223.9</ele>
        <time>2012-03-22T09:49:09Z</time>
      </trkpt>
      <trkpt lat="44.39053" lon="5.83268">
        <ele>1220.53</ele>
        <time>2012-03-22T09:49:10Z</time>
      </trkpt>
      <trkpt lat="44.3905" lon="5.83271">
        <ele>1225.34</ele>
        <time>2012-03-22T09:49:13Z</time>
      </trkpt>
      <trkpt lat="44.39049" lon="5.83272">
        <ele>1219.57</ele>
        <time>2012-03-22T09:49:14Z</time>
      </trkpt>
      <trkpt lat="44.39048" lon="5.83272">
        <ele>1225.82</ele>
        <time>2012-03-22T09:49:15Z</time>
      </trkpt>
      <trkpt lat="44.39046" lon="5.83273">
        <ele>1220.05</ele>
        <time>2012-03-22T09:49:16Z</time>
      </trkpt>
      <trkpt lat="44.39044" lon="5.83274">
        <ele>1215.24</ele>
        <time>2012-03-22T09:49:18Z</time>
      </trkpt>
      <trkpt lat="44.39043" lon="5.83275">
        <ele>1226.78</ele>
        <time>2012-03-22T09:49:19Z</time>
      </trkpt>
      <trkpt lat="44.39043" lon="5.83276">
        <ele>1222.45</ele>
        <time>2012-03-22T09:49:20Z</time>
      </trkpt>
      <trkpt lat="44.39039" lon="5.83275">
        <ele>1227.74</ele>
        <time>2012-03-22T09:49:24Z</time>
      </trkpt>
      <trkpt lat="44.39037" lon="5.83275">
        <ele>1221.01</ele>
        <time>2012-03-22T09:49:26Z</time>
      </trkpt>
      <trkpt lat="44.39036" lon="5.83276">
        <ele>1221.01</ele>
        <time>2012-03-22T09:49:27Z</time>
      </trkpt>
      <trkpt lat="44.39032" lon="5.8328">
        <ele>1213.8</ele>
        <time>2012-03-22T09:49:32Z</time>
      </trkpt>
      <trkpt lat="44.39032" lon="5.83281">
        <ele>1217.17</ele>
        <time>2012-03-22T09:49:33Z</time>
      </trkpt>
      <trkpt lat="44.39032" lon="5.83282">
        <ele>1221.49</ele>
        <time>2012-03-22T09:49:34Z</time>
      </trkpt>
      <trkpt lat="44.39031" lon="5.83284">
        <ele>1218.13</ele>
        <time>2012-03-22T09:49:37Z</time>
      </trkpt>
      <trkpt lat="44.39031" lon="5.83284">
        <ele>1218.13</ele>
        <time>2012-03-22T09:49:38Z</time>
      </trkpt>
      <trkpt lat="44.39031" lon="5.83284">
        <ele>1220.05</ele>
        <time>2012-03-22T09:49:40Z</time>
      </trkpt>
      <trkpt lat="44.39031" lon="5.83284">
        <ele>1214.76</ele>
        <time>2012-03-22T09:49:43Z</time>
      </trkpt>
      <trkpt lat="44.39031" lon="5.83284">
        <ele>1215.72</ele>
        <time>2012-03-22T09:49:44Z</time>
      </trkpt>
      <trkpt lat="44.3903" lon="5.83284">
        <ele>1220.05</ele>
        <time>2012-03-22T09:49:45Z</time>
      </trkpt>
      <trkpt lat="44.3903" lon="5.83284">
        <ele>1218.13</ele>
        <time>2012-03-22T09:49:46Z</time>
      </trkpt>
      <trkpt lat="44.3903" lon="5.83284">
        <ele>1221.97</ele>
        <time>2012-03-22T09:49:48Z</time>
      </trkpt>
      <trkpt lat="44.3903" lon="5.83286">
        <ele>1226.3</ele>
        <time>2012-03-22T09:49:50Z</time>
      </trkpt>
      <trkpt lat="44.3903" lon="5.83287">
        <ele>1221.49</ele>
        <time>2012-03-22T09:49:51Z</time>
      </trkpt>
      <trkpt lat="44.39029" lon="5.83289">
        <ele>1216.21</ele>
        <time>2012-03-22T09:49:52Z</time>
      </trkpt>
      <trkpt lat="44.39029" lon="5.8329">
        <ele>1221.01</ele>
        <time>2012-03-22T09:49:53Z</time>
      </trkpt>
      <trkpt lat="44.39027" lon="5.83296">
        <ele>1215.72</ele>
        <time>2012-03-22T09:49:56Z</time>
      </trkpt>
      <trkpt lat="44.39024" lon="5.83302">
        <ele>1219.57</ele>
        <time>2012-03-22T09:49:59Z</time>
      </trkpt>
      <trkpt lat="44.39024" lon="5.83304">
        <ele>1219.57</ele>
        <time>2012-03-22T09:50:00Z</time>
      </trkpt>
      <trkpt lat="44.39022" lon="5.83307">
        <ele>1213.32</ele>
        <time>2012-03-22T09:50:02Z</time>
      </trkpt>
      <trkpt lat="44.39021" lon="5.83309">
        <ele>1219.57</ele>
        <time>2012-03-22T09:50:03Z</time>
      </trkpt>
      <trkpt lat="44.39019" lon="5.83321">
        <ele>1216.69</ele>
        <time>2012-03-22T09:50:07Z</time>
      </trkpt>
      <trkpt lat="44.39017" lon="5.83323">
        <ele>1217.17</ele>
        <time>2012-03-22T09:50:08Z</time>
      </trkpt>
      <trkpt lat="44.39016" lon="5.83324">
        <ele>1225.82</ele>
        <time>2012-03-22T09:50:11Z</time>
      </trkpt>
      <trkpt lat="44.39016" lon="5.83325">
        <ele>1219.57</ele>
        <time>2012-03-22T09:50:12Z</time>
      </trkpt>
      <trkpt lat="44.39013" lon="5.83331">
        <ele>1223.9</ele>
        <time>2012-03-22T09:50:16Z</time>
      </trkpt>
      <trkpt lat="44.39012" lon="5.83333">
        <ele>1222.45</ele>
        <time>2012-03-22T09:50:17Z</time>
      </trkpt>
      <trkpt lat="44.39011" lon="5.83336">
        <ele>1221.01</ele>
        <time>2012-03-22T09:50:20Z</time>
      </trkpt>
      <trkpt lat="44.39009" lon="5.83339">
        <ele>1219.09</ele>
        <time>2012-03-22T09:50:22Z</time>
      </trkpt>
      <trkpt lat="44.39008" lon="5.83342">
        <ele>1225.34</ele>
        <time>2012-03-22T09:50:24Z</time>
      </trkpt>
      <trkpt lat="44.39008" lon="5.83342">
        <ele>1220.05</ele>
        <time>2012-03-22T09:50:25Z</time>
      </trkpt>
      <trkpt lat="44.39006" lon="5.83348">
        <ele>1216.69</ele>
        <time>2012-03-22T09:50:28Z</time>
      </trkpt>
      <trkpt lat="44.39003" lon="5.83354">
        <ele>1219.57</ele>
        <time>2012-03-22T09:50:31Z</time>
      </trkpt>
      <trkpt lat="44.39002" lon="5.83355">
        <ele>1228.22</ele>
        <time>2012-03-22T09:50:32Z</time>
      </trkpt>
      <trkpt lat="44.39002" lon="5.83355">
        <ele>1220.53</ele>
        <time>2012-03-22T09:50:33Z</time>
      </trkpt>
      <trkpt lat="44.39001" lon="5.83358">
        <ele>1214.28</ele>
        <time>2012-03-22T09:50:39Z</time>
      </trkpt>
      <trkpt lat="44.39001" lon="5.83358">
        <ele>1216.69</ele>
        <time>2012-03-22T09:50:40Z</time>
      </trkpt>
      <trkpt lat="44.38999" lon="5.83366">
        <ele>1220.05</ele>
        <time>2012-03-22T09:50:46Z</time>
      </trkpt>
      <trkpt lat="44.38996" lon="5.83374">
        <ele>1214.28</ele>
        <time>2012-03-22T09:50:51Z</time>
      </trkpt>
      <trkpt lat="44.38994" lon="5.83377">
        <ele>1223.9</ele>
        <time>2012-03-22T09:50:52Z</time>
      </trkpt>
      <trkpt lat="44.38993" lon="5.83378">
        <ele>1221.49</ele>
        <time>2012-03-22T09:50:53Z</time>
      </trkpt>
      <trkpt lat="44.38991" lon="5.83381">
        <ele>1218.13</ele>
        <time>2012-03-22T09:50:55Z</time>
      </trkpt>
      <trkpt lat="44.3899" lon="5.83382">
        <ele>1218.13</ele>
        <time>2012-03-22T09:50:56Z</time>
      </trkpt>
      <trkpt lat="44.38987" lon="5.83386">
        <ele>1221.01</ele>
        <time>2012-03-22T09:51:00Z</time>
      </trkpt>
      <trkpt lat="44.38987" lon="5.83387">
        <ele>1212.84</ele>
        <time>2012-03-22T09:51:01Z</time>
      </trkpt>
      <trkpt lat="44.38986" lon="5.83389">
        <ele>1218.61</ele>
        <time>2012-03-22T09:51:02Z</time>
      </trkpt>
      <trkpt lat="44.38985" lon="5.83391">
        <ele>1223.9</ele>
        <time>2012-03-22T09:51:03Z</time>
      </trkpt>
      <trkpt lat="44.38985" lon="5.83392">
        <ele>1220.53</ele>
        <time>2012-03-22T09:51:04Z</time>
      </trkpt>
      <trkpt lat="44.38984" lon="5.83395">
        <ele>1214.28</ele>
        <time>2012-03-22T09:51:06Z</time>
      </trkpt>
      <trkpt lat="44.38983" lon="5.83396">
        <ele>1219.57</ele>
        <time>2012-03-22T09:51:07Z</time>
      </trkpt>
      <trkpt lat="44.38983" lon="5.83399">
        <ele>1220.53</ele>
        <time>2012-03-22T09:51:09Z</time>
      </trkpt>
      <trkpt lat="44.38982" lon="5.83402">
        <ele>1217.17</ele>
        <time>2012-03-22T09:51:12Z</time>
      </trkpt>
      <trkpt lat="44.38982" lon="5.83402">
        <ele>1213.32</ele>
        <time>2012-03-22T09:51:13Z</time>
      </trkpt>
      <trkpt lat="44.38982" lon="5.83402">
        <ele>1219.57</ele>
        <time>2012-03-22T09:51:14Z</time>
      </trkpt>
      <trkpt lat="44.38982" lon="5.83402">
        <ele>1218.13</ele>
        <time>2012-03-22T09:51:15Z</time>
      </trkpt>
      <trkpt lat="44.38982" lon="5.83402">
        <ele>1214.76</ele>
        <time>2012-03-22T09:51:18Z</time>
      </trkpt>
      <trkpt lat="44.38982" lon="5.83403">
        <ele>1214.28</ele>
        <time>2012-03-22T09:51:19Z</time>
      </trkpt>
      <trkpt lat="44.38984" lon="5.83406">
        <ele>1219.09</ele>
        <time>2012-03-22T09:51:23Z</time>
      </trkpt>
      <trkpt lat="44.38984" lon="5.83408">
        <ele>1218.13</ele>
        <time>2012-03-22T09:51:24Z</time>
      </trkpt>
      <trkpt lat="44.38985" lon="5.83411">
        <ele>1212.36</ele>
        <time>2012-03-22T09:51:26Z</time>
      </trkpt>
      <trkpt lat="44.38986" lon="5.83412">
        <ele>1213.32</ele>
        <time>2012-03-22T09:51:27Z</time>
      </trkpt>
      <trkpt lat="44.38987" lon="5.83417">
        <ele>1220.05</ele>
        <time>2012-03-22T09:51:31Z</time>
      </trkpt>
      <trkpt lat="44.38987" lon="5.83419">
        <ele>1220.05</ele>
        <time>2012-03-22T09:51:32Z</time>
      </trkpt>
      <trkpt lat="44.38987" lon="5.83419">
        <ele>1213.8</ele>
        <time>2012-03-22T09:51:33Z</time>
      </trkpt>
      <trkpt lat="44.38987" lon="5.8342">
        <ele>1215.24</ele>
        <time>2012-03-22T09:51:37Z</time>
      </trkpt>
      <trkpt lat="44.38987" lon="5.8342">
        <ele>1208.51</ele>
        <time>2012-03-22T09:51:38Z</time>
      </trkpt>
      <trkpt lat="44.38987" lon="5.83422">
        <ele>1205.15</ele>
        <time>2012-03-22T09:51:39Z</time>
      </trkpt>
      <trkpt lat="44.38988" lon="5.83424">
        <ele>1209</ele>
        <time>2012-03-22T09:51:40Z</time>
      </trkpt>
      <trkpt lat="44.38988" lon="5.83424">
        <ele>1216.21</ele>
        <time>2012-03-22T09:51:42Z</time>
      </trkpt>
      <trkpt lat="44.38988" lon="5.83424">
        <ele>1211.88</ele>
        <time>2012-03-22T09:51:43Z</time>
      </trkpt>
      <trkpt lat="44.38988" lon="5.83424">
        <ele>1205.15</ele>
        <time>2012-03-22T09:51:44Z</time>
      </trkpt>
      <trkpt lat="44.38988" lon="5.83424">
        <ele>1216.21</ele>
        <time>2012-03-22T09:51:45Z</time>
      </trkpt>
      <trkpt lat="44.38988" lon="5.83424">
        <ele>1208.03</ele>
        <time>2012-03-22T09:51:46Z</time>
      </trkpt>
      <trkpt lat="44.38988" lon="5.83424">
        <ele>1213.8</ele>
        <time>2012-03-22T09:51:47Z</time>
      </trkpt>
      <trkpt lat="44.38988" lon="5.83429">
        <ele>1209</ele>
        <time>2012-03-22T09:51:52Z</time>
      </trkpt>
      <trkpt lat="44.38988" lon="5.83431">
        <ele>1215.24</ele>
        <time>2012-03-22T09:51:53Z</time>
      </trkpt>
      <trkpt lat="44.38988" lon="5.83433">
        <ele>1210.92</ele>
        <time>2012-03-22T09:51:55Z</time>
      </trkpt>
      <trkpt lat="44.38988" lon="5.83435">
        <ele>1214.28</ele>
        <time>2012-03-22T09:51:56Z</time>
      </trkpt>
      <trkpt lat="44.38987" lon="5.83438">
        <ele>1206.59</ele>
        <time>2012-03-22T09:51:57Z</time>
      </trkpt>
      <trkpt lat="44.38986" lon="5.8344">
        <ele>1209.96</ele>
        <time>2012-03-22T09:51:58Z</time>
      </trkpt>
      <trkpt lat="44.38986" lon="5.83442">
        <ele>1206.11</ele>
        <time>2012-03-22T09:52:00Z</time>
      </trkpt>
      <trkpt lat="44.38986" lon="5.83445">
        <ele>1214.28</ele>
        <time>2012-03-22T09:52:01Z</time>
      </trkpt>
      <trkpt lat="44.38985" lon="5.83447">
        <ele>1210.44</ele>
        <time>2012-03-22T09:52:03Z</time>
      </trkpt>
      <trkpt lat="44.38983" lon="5.83452">
        <ele>1214.76</ele>
        <time>2012-03-22T09:52:07Z</time>
      </trkpt>
      <trkpt lat="44.38982" lon="5.83454">
        <ele>1206.59</ele>
        <time>2012-03-22T09:52:09Z</time>
      </trkpt>
      <trkpt lat="44.38981" lon="5.83456">
        <ele>1210.92</ele>
        <time>2012-03-22T09:52:10Z</time>
      </trkpt>
      <trkpt lat="44.38979" lon="5.8346">
        <ele>1211.88</ele>
        <time>2012-03-22T09:52:13Z</time>
      </trkpt>
      <trkpt lat="44.38979" lon="5.83464">
        <ele>1207.07</ele>
        <time>2012-03-22T09:52:15Z</time>
      </trkpt>
      <trkpt lat="44.38979" lon="5.83466">
        <ele>1208.51</ele>
        <time>2012-03-22T09:52:16Z</time>
      </trkpt>
      <trkpt lat="44.38975" lon="5.83475">
        <ele>1214.28</ele>
        <time>2012-03-22T09:52:18Z</time>
      </trkpt>
      <trkpt lat="44.38974" lon="5.83478">
        <ele>1209.48</ele>
        <time>2012-03-22T09:52:19Z</time>
      </trkpt>
      <trkpt lat="44.38973" lon="5.83481">
        <ele>1206.59</ele>
        <time>2012-03-22T09:52:21Z</time>
      </trkpt>
      <trkpt lat="44.38972" lon="5.83483">
        <ele>1210.44</ele>
        <time>2012-03-22T09:52:22Z</time>
      </trkpt>
      <trkpt lat="44.38972" lon="5.83485">
        <ele>1211.88</ele>
        <time>2012-03-22T09:52:26Z</time>
      </trkpt>
      <trkpt lat="44.38971" lon="5.83488">
        <ele>1208.03</ele>
        <time>2012-03-22T09:52:29Z</time>
      </trkpt>
      <trkpt lat="44.38971" lon="5.8349">
        <ele>1216.69</ele>
        <time>2012-03-22T09:52:30Z</time>
      </trkpt>
      <trkpt lat="44.38971" lon="5.8349">
        <ele>1215.72</ele>
        <time>2012-03-22T09:52:31Z</time>
      </trkpt>
      <trkpt lat="44.3897" lon="5.83492">
        <ele>1208.51</ele>
        <time>2012-03-22T09:52:32Z</time>
      </trkpt>
      <trkpt lat="44.3897" lon="5.83492">
        <ele>1214.76</ele>
        <time>2012-03-22T09:52:33Z</time>
      </trkpt>
      <trkpt lat="44.3897" lon="5.83492">
        <ele>1209.48</ele>
        <time>2012-03-22T09:52:36Z</time>
      </trkpt>
      <trkpt lat="44.38969" lon="5.83494">
        <ele>1209.48</ele>
        <time>2012-03-22T09:52:37Z</time>
      </trkpt>
      <trkpt lat="44.38968" lon="5.83495">
        <ele>1212.84</ele>
        <time>2012-03-22T09:52:38Z</time>
      </trkpt>
      <trkpt lat="44.38967" lon="5.835">
        <ele>1216.69</ele>
        <time>2012-03-22T09:52:42Z</time>
      </trkpt>
      <trkpt lat="44.38966" lon="5.83503">
        <ele>1213.32</ele>
        <time>2012-03-22T09:52:44Z</time>
      </trkpt>
      <trkpt lat="44.38966" lon="5.83506">
        <ele>1209</ele>
        <time>2012-03-22T09:52:45Z</time>
      </trkpt>
      <trkpt lat="44.38966" lon="5.83508">
        <ele>1217.17</ele>
        <time>2012-03-22T09:52:46Z</time>
      </trkpt>
      <trkpt lat="44.38965" lon="5.83514">
        <ele>1211.4</ele>
        <time>2012-03-22T09:52:48Z</time>
      </trkpt>
      <trkpt lat="44.38965" lon="5.83514">
        <ele>1220.53</ele>
        <time>2012-03-22T09:52:49Z</time>
      </trkpt>
      <trkpt lat="44.38965" lon="5.83514">
        <ele>1214.28</ele>
        <time>2012-03-22T09:52:50Z</time>
      </trkpt>
      <trkpt lat="44.38965" lon="5.83516">
        <ele>1219.09</ele>
        <time>2012-03-22T09:52:51Z</time>
      </trkpt>
      <trkpt lat="44.38965" lon="5.83518">
        <ele>1215.72</ele>
        <time>2012-03-22T09:52:52Z</time>
      </trkpt>
      <trkpt lat="44.38965" lon="5.83519">
        <ele>1210.92</ele>
        <time>2012-03-22T09:52:54Z</time>
      </trkpt>
      <trkpt lat="44.38965" lon="5.83519">
        <ele>1212.84</ele>
        <time>2012-03-22T09:52:55Z</time>
      </trkpt>
      <trkpt lat="44.38965" lon="5.83519">
        <ele>1206.11</ele>
        <time>2012-03-22T09:52:56Z</time>
      </trkpt>
      <trkpt lat="44.38964" lon="5.83519">
        <ele>1212.84</ele>
        <time>2012-03-22T09:52:57Z</time>
      </trkpt>
      <trkpt lat="44.38964" lon="5.83521">
        <ele>1211.4</ele>
        <time>2012-03-22T09:53:00Z</time>
      </trkpt>
      <trkpt lat="44.38964" lon="5.83522">
        <ele>1218.13</ele>
        <time>2012-03-22T09:53:02Z</time>
      </trkpt>
      <trkpt lat="44.38964" lon="5.83522">
        <ele>1216.21</ele>
        <time>2012-03-22T09:53:03Z</time>
      </trkpt>
      <trkpt lat="44.38963" lon="5.83523">
        <ele>1221.97</ele>
        <time>2012-03-22T09:53:04Z</time>
      </trkpt>
      <trkpt lat="44.38963" lon="5.83524">
        <ele>1213.8</ele>
        <time>2012-03-22T09:53:05Z</time>
      </trkpt>
      <trkpt lat="44.38963" lon="5.83525">
        <ele>1209.48</ele>
        <time>2012-03-22T09:53:06Z</time>
      </trkpt>
      <trkpt lat="44.38962" lon="5.83526">
        <ele>1218.13</ele>
        <time>2012-03-22T09:53:07Z</time>
      </trkpt>
      <trkpt lat="44.38962" lon="5.83526">
        <ele>1214.28</ele>
        <time>2012-03-22T09:53:08Z</time>
      </trkpt>
      <trkpt lat="44.38959" lon="5.83531">
        <ele>1209.48</ele>
        <time>2012-03-22T09:53:12Z</time>
      </trkpt>
      <trkpt lat="44.38957" lon="5.83535">
        <ele>1211.88</ele>
        <time>2012-03-22T09:53:15Z</time>
      </trkpt>
      <trkpt lat="44.38957" lon="5.83537">
        <ele>1216.69</ele>
        <time>2012-03-22T09:53:17Z</time>
      </trkpt>
      <trkpt lat="44.38957" lon="5.83537">
        <ele>1213.32</ele>
        <time>2012-03-22T09:53:18Z</time>
      </trkpt>
      <trkpt lat="44.38957" lon="5.83539">
        <ele>1209.48</ele>
        <time>2012-03-22T09:53:21Z</time>
      </trkpt>
      <trkpt lat="44.38958" lon="5.8354">
        <ele>1212.36</ele>
        <time>2012-03-22T09:53:22Z</time>
      </trkpt>
      <trkpt lat="44.38958" lon="5.8354">
        <ele>1215.72</ele>
        <time>2012-03-22T09:53:23Z</time>
      </trkpt>
      <trkpt lat="44.38958" lon="5.8354">
        <ele>1211.88</ele>
        <time>2012-03-22T09:53:24Z</time>
      </trkpt>
      <trkpt lat="44.38958" lon="5.83542">
        <ele>1209</ele>
        <time>2012-03-22T09:53:29Z</time>
      </trkpt>
      <trkpt lat="44.38957" lon="5.83544">
        <ele>1213.32</ele>
        <time>2012-03-22T09:53:31Z</time>
      </trkpt>
      <trkpt lat="44.38957" lon="5.83544">
        <ele>1213.32</ele>
        <time>2012-03-22T09:53:32Z</time>
      </trkpt>
      <trkpt lat="44.38953" lon="5.83547">
        <ele>1217.17</ele>
        <time>2012-03-22T09:53:35Z</time>
      </trkpt>
      <trkpt lat="44.38953" lon="5.83548">
        <ele>1214.28</ele>
        <time>2012-03-22T09:53:36Z</time>
      </trkpt>
      <trkpt lat="44.38952" lon="5.8355">
        <ele>1212.36</ele>
        <time>2012-03-22T09:53:38Z</time>
      </trkpt>
      <trkpt lat="44.38951" lon="5.83552">
        <ele>1213.8</ele>
        <time>2012-03-22T09:53:40Z</time>
      </trkpt>
      <trkpt lat="44.38948" lon="5.83555">
        <ele>1220.53</ele>
        <time>2012-03-22T09:53:46Z</time>
      </trkpt>
      <trkpt lat="44.38948" lon="5.83555">
        <ele>1212.84</ele>
        <time>2012-03-22T09:53:47Z</time>
      </trkpt>
      <trkpt lat="44.38948" lon="5.83555">
        <ele>1216.69</ele>
        <time>2012-03-22T09:53:48Z</time>
      </trkpt>
      <trkpt lat="44.38948" lon="5.83555">
        <ele>1213.8</ele>
        <time>2012-03-22T09:53:49Z</time>
      </trkpt>
      <trkpt lat="44.38947" lon="5.83556">
        <ele>1212.36</ele>
        <time>2012-03-22T09:53:51Z</time>
      </trkpt>
      <trkpt lat="44.38947" lon="5.83558">
        <ele>1211.88</ele>
        <time>2012-03-22T09:53:53Z</time>
      </trkpt>
      <trkpt lat="44.38946" lon="5.8356">
        <ele>1215.24</ele>
        <time>2012-03-22T09:53:54Z</time>
      </trkpt>
      <trkpt lat="44.38943" lon="5.83566">
        <ele>1212.36</ele>
        <time>2012-03-22T09:53:59Z</time>
      </trkpt>
      <trkpt lat="44.3894" lon="5.83572">
        <ele>1217.17</ele>
        <time>2012-03-22T09:54:00Z</time>
      </trkpt>
      <trkpt lat="44.38938" lon="5.83577">
        <ele>1216.69</ele>
        <time>2012-03-22T09:54:01Z</time>
      </trkpt>
      <trkpt lat="44.38934" lon="5.83584">
        <ele>1221.49</ele>
        <time>2012-03-22T09:54:07Z</time>
      </trkpt>
      <trkpt lat="44.38934" lon="5.83584">
        <ele>1217.65</ele>
        <time>2012-03-22T09:54:08Z</time>
      </trkpt>
      <trkpt lat="44.38934" lon="5.83586">
        <ele>1214.76</ele>
        <time>2012-03-22T09:54:19Z</time>
      </trkpt>
      <trkpt lat="44.38934" lon="5.83588">
        <ele>1221.97</ele>
        <time>2012-03-22T09:54:21Z</time>
      </trkpt>
      <trkpt lat="44.38934" lon="5.8359">
        <ele>1218.61</ele>
        <time>2012-03-22T09:54:22Z</time>
      </trkpt>
      <trkpt lat="44.38934" lon="5.83593">
        <ele>1213.8</ele>
        <time>2012-03-22T09:54:31Z</time>
      </trkpt>
      <trkpt lat="44.38934" lon="5.83593">
        <ele>1218.13</ele>
        <time>2012-03-22T09:54:33Z</time>
      </trkpt>
      <trkpt lat="44.38934" lon="5.83593">
        <ele>1218.13</ele>
        <time>2012-03-22T09:54:34Z</time>
      </trkpt>
      <trkpt lat="44.38923" lon="5.83598">
        <ele>1217.17</ele>
        <time>2012-03-22T09:54:44Z</time>
      </trkpt>
      <trkpt lat="44.38923" lon="5.83599">
        <ele>1218.61</ele>
        <time>2012-03-22T09:54:58Z</time>
      </trkpt>
      <trkpt lat="44.38922" lon="5.83599">
        <ele>1218.13</ele>
        <time>2012-03-22T09:55:03Z</time>
      </trkpt>
      <trkpt lat="44.38922" lon="5.83599">
        <ele>1219.09</ele>
        <time>2012-03-22T09:55:21Z</time>
      </trkpt>
      <trkpt lat="44.38922" lon="5.83599">
        <ele>1215.24</ele>
        <time>2012-03-22T09:55:23Z</time>
      </trkpt>
      <trkpt lat="44.38922" lon="5.83599">
        <ele>1216.69</ele>
        <time>2012-03-22T09:55:24Z</time>
      </trkpt>
      <trkpt lat="44.38922" lon="5.83599">
        <ele>1219.09</ele>
        <time>2012-03-22T09:55:26Z</time>
      </trkpt>
      <trkpt lat="44.38922" lon="5.83599">
        <ele>1215.72</ele>
        <time>2012-03-22T09:55:42Z</time>
      </trkpt>
      <trkpt lat="44.38922" lon="5.83599">
        <ele>1219.09</ele>
        <time>2012-03-22T09:55:47Z</time>
      </trkpt>
      <trkpt lat="44.38922" lon="5.83599">
        <ele>1217.17</ele>
        <time>2012-03-22T09:56:13Z</time>
      </trkpt>
      <trkpt lat="44.38921" lon="5.836">
        <ele>1221.01</ele>
        <time>2012-03-22T09:56:34Z</time>
      </trkpt>
      <trkpt lat="44.38921" lon="5.836">
        <ele>1219.09</ele>
        <time>2012-03-22T09:56:35Z</time>
      </trkpt>
      <trkpt lat="44.38921" lon="5.836">
        <ele>1217.65</ele>
        <time>2012-03-22T09:56:37Z</time>
      </trkpt>
      <trkpt lat="44.38921" lon="5.83601">
        <ele>1216.69</ele>
        <time>2012-03-22T09:57:03Z</time>
      </trkpt>
      <trkpt lat="44.38921" lon="5.83601">
        <ele>1215.72</ele>
        <time>2012-03-22T09:57:33Z</time>
      </trkpt>
      <trkpt lat="44.3892" lon="5.83595">
        <ele>1217.65</ele>
        <time>2012-03-22T09:57:48Z</time>
      </trkpt>
      <trkpt lat="44.3892" lon="5.83594">
        <ele>1214.76</ele>
        <time>2012-03-22T09:58:09Z</time>
      </trkpt>
      <trkpt lat="44.3892" lon="5.83594">
        <ele>1215.24</ele>
        <time>2012-03-22T09:58:52Z</time>
      </trkpt>
      <trkpt lat="44.3892" lon="5.83594">
        <ele>1215.24</ele>
        <time>2012-03-22T09:59:20Z</time>
      </trkpt>
      <trkpt lat="44.3892" lon="5.83593">
        <ele>1214.76</ele>
        <time>2012-03-22T09:59:51Z</time>
      </trkpt>
      <trkpt lat="44.38919" lon="5.83594">
        <ele>1219.09</ele>
        <time>2012-03-22T10:00:04Z</time>
      </trkpt>
      <trkpt lat="44.38919" lon="5.83594">
        <ele>1215.72</ele>
        <time>2012-03-22T10:00:05Z</time>
      </trkpt>
      <trkpt lat="44.38921" lon="5.83595">
        <ele>1216.21</ele>
        <time>2012-03-22T10:00:21Z</time>
      </trkpt>
      <trkpt lat="44.38921" lon="5.83595">
        <ele>1219.09</ele>
        <time>2012-03-22T10:00:24Z</time>
      </trkpt>
      <trkpt lat="44.38921" lon="5.83595">
        <ele>1216.69</ele>
        <time>2012-03-22T10:00:38Z</time>
      </trkpt>
      <trkpt lat="44.38921" lon="5.83595">
        <ele>1220.53</ele>
        <time>2012-03-22T10:00:39Z</time>
      </trkpt>
      <trkpt lat="44.38921" lon="5.83595">
        <ele>1220.05</ele>
        <time>2012-03-22T10:00:40Z</time>
      </trkpt>
      <trkpt lat="44.38921" lon="5.83595">
        <ele>1216.69</ele>
        <time>2012-03-22T10:00:44Z</time>
      </trkpt>
      <trkpt lat="44.38921" lon="5.83595">
        <ele>1219.57</ele>
        <time>2012-03-22T10:00:46Z</time>
      </trkpt>
      <trkpt lat="44.38921" lon="5.83598">
        <ele>1223.42</ele>
        <time>2012-03-22T10:00:50Z</time>
      </trkpt>
      <trkpt lat="44.38921" lon="5.83598">
        <ele>1218.13</ele>
        <time>2012-03-22T10:00:51Z</time>
      </trkpt>
      <trkpt lat="44.38921" lon="5.83598">
        <ele>1221.49</ele>
        <time>2012-03-22T10:00:52Z</time>
      </trkpt>
      <trkpt lat="44.38922" lon="5.83607">
        <ele>1221.49</ele>
        <time>2012-03-22T10:01:05Z</time>
      </trkpt>
      <trkpt lat="44.38924" lon="5.83612">
        <ele>1224.86</ele>
        <time>2012-03-22T10:01:11Z</time>
      </trkpt>
      <trkpt lat="44.38929" lon="5.83616">
        <ele>1221.01</ele>
        <time>2012-03-22T10:01:16Z</time>
      </trkpt>
      <trkpt lat="44.38929" lon="5.83616">
        <ele>1224.38</ele>
        <time>2012-03-22T10:01:17Z</time>
      </trkpt>
      <trkpt lat="44.3893" lon="5.83618">
        <ele>1225.82</ele>
        <time>2012-03-22T10:01:19Z</time>
      </trkpt>
      <trkpt lat="44.38933" lon="5.83622">
        <ele>1224.38</ele>
        <time>2012-03-22T10:01:22Z</time>
      </trkpt>
      <trkpt lat="44.38933" lon="5.83622">
        <ele>1226.3</ele>
        <time>2012-03-22T10:01:24Z</time>
      </trkpt>
      <trkpt lat="44.38933" lon="5.83622">
        <ele>1222.45</ele>
        <time>2012-03-22T10:01:25Z</time>
      </trkpt>
      <trkpt lat="44.38933" lon="5.83622">
        <ele>1225.34</ele>
        <time>2012-03-22T10:01:26Z</time>
      </trkpt>
      <trkpt lat="44.38937" lon="5.83628">
        <ele>1225.34</ele>
        <time>2012-03-22T10:01:34Z</time>
      </trkpt>
      <trkpt lat="44.38938" lon="5.8363">
        <ele>1228.22</ele>
        <time>2012-03-22T10:01:37Z</time>
      </trkpt>
      <trkpt lat="44.38943" lon="5.83638">
        <ele>1231.59</ele>
        <time>2012-03-22T10:01:41Z</time>
      </trkpt>
      <trkpt lat="44.38943" lon="5.8364">
        <ele>1230.62</ele>
        <time>2012-03-22T10:01:42Z</time>
      </trkpt>
      <trkpt lat="44.38946" lon="5.83644">
        <ele>1229.66</ele>
        <time>2012-03-22T10:01:44Z</time>
      </trkpt>
      <trkpt lat="44.38947" lon="5.83646">
        <ele>1226.3</ele>
        <time>2012-03-22T10:01:45Z</time>
      </trkpt>
      <trkpt lat="44.38947" lon="5.83646">
        <ele>1229.66</ele>
        <time>2012-03-22T10:01:46Z</time>
      </trkpt>
      <trkpt lat="44.38947" lon="5.83646">
        <ele>1232.55</ele>
        <time>2012-03-22T10:01:54Z</time>
      </trkpt>
      <trkpt lat="44.38947" lon="5.83646">
        <ele>1229.18</ele>
        <time>2012-03-22T10:01:55Z</time>
      </trkpt>
      <trkpt lat="44.38949" lon="5.8365">
        <ele>1233.03</ele>
        <time>2012-03-22T10:02:00Z</time>
      </trkpt>
      <trkpt lat="44.38948" lon="5.83651">
        <ele>1228.22</ele>
        <time>2012-03-22T10:02:01Z</time>
      </trkpt>
      <trkpt lat="44.38948" lon="5.83651">
        <ele>1235.91</ele>
        <time>2012-03-22T10:02:02Z</time>
      </trkpt>
      <trkpt lat="44.38948" lon="5.83651">
        <ele>1227.74</ele>
        <time>2012-03-22T10:02:03Z</time>
      </trkpt>
      <trkpt lat="44.38949" lon="5.83655">
        <ele>1233.03</ele>
        <time>2012-03-22T10:02:07Z</time>
      </trkpt>
      <trkpt lat="44.38949" lon="5.83655">
        <ele>1228.22</ele>
        <time>2012-03-22T10:02:08Z</time>
      </trkpt>
      <trkpt lat="44.3895" lon="5.83657">
        <ele>1232.07</ele>
        <time>2012-03-22T10:02:09Z</time>
      </trkpt>
      <trkpt lat="44.3895" lon="5.83658">
        <ele>1233.99</ele>
        <time>2012-03-22T10:02:14Z</time>
      </trkpt>
      <trkpt lat="44.3895" lon="5.83658">
        <ele>1229.66</ele>
        <time>2012-03-22T10:02:16Z</time>
      </trkpt>
      <trkpt lat="44.3895" lon="5.83658">
        <ele>1237.83</ele>
        <time>2012-03-22T10:02:20Z</time>
      </trkpt>
      <trkpt lat="44.3895" lon="5.83658">
        <ele>1237.83</ele>
        <time>2012-03-22T10:02:21Z</time>
      </trkpt>
      <trkpt lat="44.3895" lon="5.83658">
        <ele>1233.03</ele>
        <time>2012-03-22T10:02:22Z</time>
      </trkpt>
      <trkpt lat="44.3895" lon="5.83658">
        <ele>1235.91</ele>
        <time>2012-03-22T10:02:23Z</time>
      </trkpt>
      <trkpt lat="44.3895" lon="5.83658">
        <ele>1232.55</ele>
        <time>2012-03-22T10:02:25Z</time>
      </trkpt>
      <trkpt lat="44.3895" lon="5.83658">
        <ele>1228.22</ele>
        <time>2012-03-22T10:02:27Z</time>
      </trkpt>
      <trkpt lat="44.3895" lon="5.83659">
        <ele>1239.76</ele>
        <time>2012-03-22T10:02:28Z</time>
      </trkpt>
      <trkpt lat="44.3895" lon="5.83659">
        <ele>1238.32</ele>
        <time>2012-03-22T10:02:29Z</time>
      </trkpt>
      <trkpt lat="44.3895" lon="5.83659">
        <ele>1233.99</ele>
        <time>2012-03-22T10:02:30Z</time>
      </trkpt>
      <trkpt lat="44.3895" lon="5.83659">
        <ele>1237.83</ele>
        <time>2012-03-22T10:02:40Z</time>
      </trkpt>
      <trkpt lat="44.3895" lon="5.83659">
        <ele>1237.83</ele>
        <time>2012-03-22T10:02:41Z</time>
      </trkpt>
      <trkpt lat="44.3895" lon="5.83659">
        <ele>1235.91</ele>
        <time>2012-03-22T10:02:43Z</time>
      </trkpt>
      <trkpt lat="44.3895" lon="5.83659">
        <ele>1238.8</ele>
        <time>2012-03-22T10:02:45Z</time>
      </trkpt>
      <trkpt lat="44.3895" lon="5.83659">
        <ele>1233.03</ele>
        <time>2012-03-22T10:02:46Z</time>
      </trkpt>
      <trkpt lat="44.3895" lon="5.83659">
        <ele>1239.28</ele>
        <time>2012-03-22T10:02:49Z</time>
      </trkpt>
      <trkpt lat="44.3895" lon="5.83659">
        <ele>1237.35</ele>
        <time>2012-03-22T10:02:50Z</time>
      </trkpt>
      <trkpt lat="44.3895" lon="5.83659">
        <ele>1240.24</ele>
        <time>2012-03-22T10:02:53Z</time>
      </trkpt>
      <trkpt lat="44.3895" lon="5.83659">
        <ele>1236.39</ele>
        <time>2012-03-22T10:02:54Z</time>
      </trkpt>
      <trkpt lat="44.3895" lon="5.83659">
        <ele>1241.2</ele>
        <time>2012-03-22T10:02:56Z</time>
      </trkpt>
      <trkpt lat="44.3895" lon="5.83659">
        <ele>1236.87</ele>
        <time>2012-03-22T10:02:57Z</time>
      </trkpt>
      <trkpt lat="44.3895" lon="5.83659">
        <ele>1240.72</ele>
        <time>2012-03-22T10:02:59Z</time>
      </trkpt>
      <trkpt lat="44.3895" lon="5.83659">
        <ele>1237.35</ele>
        <time>2012-03-22T10:03:03Z</time>
      </trkpt>
      <trkpt lat="44.3895" lon="5.83659">
        <ele>1240.72</ele>
        <time>2012-03-22T10:03:06Z</time>
      </trkpt>
      <trkpt lat="44.3895" lon="5.83659">
        <ele>1234.47</ele>
        <time>2012-03-22T10:03:07Z</time>
      </trkpt>
      <trkpt lat="44.3895" lon="5.83659">
        <ele>1236.39</ele>
        <time>2012-03-22T10:03:08Z</time>
      </trkpt>
      <trkpt lat="44.3895" lon="5.83659">
        <ele>1246.01</ele>
        <time>2012-03-22T10:03:09Z</time>
      </trkpt>
      <trkpt lat="44.3895" lon="5.83659">
        <ele>1240.72</ele>
        <time>2012-03-22T10:03:10Z</time>
      </trkpt>
      <trkpt lat="44.3895" lon="5.83659">
        <ele>1236.87</ele>
        <time>2012-03-22T10:03:12Z</time>
      </trkpt>
      <trkpt lat="44.3895" lon="5.83659">
        <ele>1241.68</ele>
        <time>2012-03-22T10:03:13Z</time>
      </trkpt>
      <trkpt lat="44.3895" lon="5.83659">
        <ele>1245.04</ele>
        <time>2012-03-22T10:03:14Z</time>
      </trkpt>
      <trkpt lat="44.3895" lon="5.83659">
        <ele>1237.35</ele>
        <time>2012-03-22T10:03:15Z</time>
      </trkpt>
      <trkpt lat="44.3895" lon="5.83659">
        <ele>1238.8</ele>
        <time>2012-03-22T10:03:16Z</time>
      </trkpt>
      <trkpt lat="44.3895" lon="5.83659">
        <ele>1245.53</ele>
        <time>2012-03-22T10:03:17Z</time>
      </trkpt>
      <trkpt lat="44.3895" lon="5.83659">
        <ele>1239.28</ele>
        <time>2012-03-22T10:03:18Z</time>
      </trkpt>
      <trkpt lat="44.3895" lon="5.83659">
        <ele>1243.6</ele>
        <time>2012-03-22T10:03:19Z</time>
      </trkpt>
      <trkpt lat="44.3895" lon="5.83659">
        <ele>1240.24</ele>
        <time>2012-03-22T10:03:20Z</time>
      </trkpt>
      <trkpt lat="44.3895" lon="5.83659">
        <ele>1244.08</ele>
        <time>2012-03-22T10:03:22Z</time>
      </trkpt>
      <trkpt lat="44.3895" lon="5.83659">
        <ele>1244.08</ele>
        <time>2012-03-22T10:03:23Z</time>
      </trkpt>
      <trkpt lat="44.3895" lon="5.83659">
        <ele>1237.83</ele>
        <time>2012-03-22T10:03:24Z</time>
      </trkpt>
      <trkpt lat="44.3895" lon="5.83659">
        <ele>1240.72</ele>
        <time>2012-03-22T10:03:25Z</time>
      </trkpt>
      <trkpt lat="44.3895" lon="5.83659">
        <ele>1246.49</ele>
        <time>2012-03-22T10:03:26Z</time>
      </trkpt>
      <trkpt lat="44.3895" lon="5.83659">
        <ele>1240.72</ele>
        <time>2012-03-22T10:03:27Z</time>
      </trkpt>
      <trkpt lat="44.3895" lon="5.83659">
        <ele>1246.97</ele>
        <time>2012-03-22T10:03:28Z</time>
      </trkpt>
      <trkpt lat="44.3895" lon="5.83659">
        <ele>1237.83</ele>
        <time>2012-03-22T10:03:31Z</time>
      </trkpt>
      <trkpt lat="44.3895" lon="5.83659">
        <ele>1240.24</ele>
        <time>2012-03-22T10:03:32Z</time>
      </trkpt>
      <trkpt lat="44.3895" lon="5.83659">
        <ele>1246.97</ele>
        <time>2012-03-22T10:03:38Z</time>
      </trkpt>
      <trkpt lat="44.3895" lon="5.83659">
        <ele>1241.68</ele>
        <time>2012-03-22T10:03:39Z</time>
      </trkpt>
      <trkpt lat="44.3895" lon="5.83659">
        <ele>1242.64</ele>
        <time>2012-03-22T10:03:44Z</time>
      </trkpt>
      <trkpt lat="44.38951" lon="5.83661">
        <ele>1246.97</ele>
        <time>2012-03-22T10:03:48Z</time>
      </trkpt>
      <trkpt lat="44.38951" lon="5.83661">
        <ele>1243.12</ele>
        <time>2012-03-22T10:03:49Z</time>
      </trkpt>
      <trkpt lat="44.38951" lon="5.83661">
        <ele>1248.89</ele>
        <time>2012-03-22T10:03:51Z</time>
      </trkpt>
      <trkpt lat="44.38951" lon="5.83661">
        <ele>1246.01</ele>
        <time>2012-03-22T10:03:52Z</time>
      </trkpt>
      <trkpt lat="44.38951" lon="5.83661">
        <ele>1249.85</ele>
        <time>2012-03-22T10:03:53Z</time>
      </trkpt>
      <trkpt lat="44.38951" lon="5.83661">
        <ele>1242.64</ele>
        <time>2012-03-22T10:03:54Z</time>
      </trkpt>
      <trkpt lat="44.38951" lon="5.83661">
        <ele>1244.56</ele>
        <time>2012-03-22T10:03:55Z</time>
      </trkpt>
      <trkpt lat="44.38951" lon="5.83661">
        <ele>1247.93</ele>
        <time>2012-03-22T10:03:56Z</time>
      </trkpt>
      <trkpt lat="44.38951" lon="5.83661">
        <ele>1242.64</ele>
        <time>2012-03-22T10:03:57Z</time>
      </trkpt>
      <trkpt lat="44.38951" lon="5.83661">
        <ele>1246.97</ele>
        <time>2012-03-22T10:03:59Z</time>
      </trkpt>
      <trkpt lat="44.38951" lon="5.83661">
        <ele>1243.6</ele>
        <time>2012-03-22T10:04:01Z</time>
      </trkpt>
      <trkpt lat="44.38951" lon="5.83661">
        <ele>1249.85</ele>
        <time>2012-03-22T10:04:11Z</time>
      </trkpt>
      <trkpt lat="44.38951" lon="5.83661">
        <ele>1248.41</ele>
        <time>2012-03-22T10:04:12Z</time>
      </trkpt>
      <trkpt lat="44.38951" lon="5.83661">
        <ele>1245.04</ele>
        <time>2012-03-22T10:04:14Z</time>
      </trkpt>
      <trkpt lat="44.38951" lon="5.83661">
        <ele>1248.41</ele>
        <time>2012-03-22T10:04:18Z</time>
      </trkpt>
      <trkpt lat="44.38951" lon="5.83661">
        <ele>1245.04</ele>
        <time>2012-03-22T10:04:19Z</time>
      </trkpt>
      <trkpt lat="44.38951" lon="5.83661">
        <ele>1252.74</ele>
        <time>2012-03-22T10:04:21Z</time>
      </trkpt>
      <trkpt lat="44.38951" lon="5.83661">
        <ele>1251.77</ele>
        <time>2012-03-22T10:04:22Z</time>
      </trkpt>
      <trkpt lat="44.38951" lon="5.83661">
        <ele>1246.01</ele>
        <time>2012-03-22T10:04:23Z</time>
      </trkpt>
      <trkpt lat="44.38951" lon="5.83661">
        <ele>1246.97</ele>
        <time>2012-03-22T10:04:24Z</time>
      </trkpt>
      <trkpt lat="44.38951" lon="5.83661">
        <ele>1251.29</ele>
        <time>2012-03-22T10:04:26Z</time>
      </trkpt>
      <trkpt lat="44.38951" lon="5.83661">
        <ele>1250.33</ele>
        <time>2012-03-22T10:04:27Z</time>
      </trkpt>
      <trkpt lat="44.3895" lon="5.83662">
        <ele>1249.85</ele>
        <time>2012-03-22T10:04:32Z</time>
      </trkpt>
      <trkpt lat="44.3895" lon="5.83662">
        <ele>1254.18</ele>
        <time>2012-03-22T10:04:33Z</time>
      </trkpt>
      <trkpt lat="44.3895" lon="5.83662">
        <ele>1244.56</ele>
        <time>2012-03-22T10:04:34Z</time>
      </trkpt>
      <trkpt lat="44.3895" lon="5.83662">
        <ele>1248.41</ele>
        <time>2012-03-22T10:04:35Z</time>
      </trkpt>
      <trkpt lat="44.3895" lon="5.83662">
        <ele>1253.7</ele>
        <time>2012-03-22T10:04:39Z</time>
      </trkpt>
      <trkpt lat="44.3895" lon="5.83662">
        <ele>1245.04</ele>
        <time>2012-03-22T10:04:42Z</time>
      </trkpt>
      <trkpt lat="44.3895" lon="5.83662">
        <ele>1247.93</ele>
        <time>2012-03-22T10:04:43Z</time>
      </trkpt>
      <trkpt lat="44.3895" lon="5.83662">
        <ele>1258.5</ele>
        <time>2012-03-22T10:04:44Z</time>
      </trkpt>
      <trkpt lat="44.3895" lon="5.83662">
        <ele>1250.33</ele>
        <time>2012-03-22T10:04:45Z</time>
      </trkpt>
      <trkpt lat="44.3895" lon="5.83662">
        <ele>1254.18</ele>
        <time>2012-03-22T10:04:46Z</time>
      </trkpt>
      <trkpt lat="44.3895" lon="5.83662">
        <ele>1250.81</ele>
        <time>2012-03-22T10:04:47Z</time>
      </trkpt>
      <trkpt lat="44.3895" lon="5.83662">
        <ele>1247.45</ele>
        <time>2012-03-22T10:04:49Z</time>
      </trkpt>
      <trkpt lat="44.3895" lon="5.83662">
        <ele>1250.33</ele>
        <time>2012-03-22T10:04:50Z</time>
      </trkpt>
      <trkpt lat="44.3895" lon="5.83662">
        <ele>1256.1</ele>
        <time>2012-03-22T10:04:51Z</time>
      </trkpt>
      <trkpt lat="44.3895" lon="5.83662">
        <ele>1251.77</ele>
        <time>2012-03-22T10:04:52Z</time>
      </trkpt>
      <trkpt lat="44.3895" lon="5.83662">
        <ele>1259.46</ele>
        <time>2012-03-22T10:04:56Z</time>
      </trkpt>
      <trkpt lat="44.3895" lon="5.83662">
        <ele>1250.81</ele>
        <time>2012-03-22T10:04:57Z</time>
      </trkpt>
      <trkpt lat="44.3895" lon="5.83662">
        <ele>1258.02</ele>
        <time>2012-03-22T10:05:00Z</time>
      </trkpt>
      <trkpt lat="44.3895" lon="5.83662">
        <ele>1251.29</ele>
        <time>2012-03-22T10:05:01Z</time>
      </trkpt>
      <trkpt lat="44.3895" lon="5.83662">
        <ele>1255.14</ele>
        <time>2012-03-22T10:05:02Z</time>
      </trkpt>
      <trkpt lat="44.3895" lon="5.83662">
        <ele>1263.79</ele>
        <time>2012-03-22T10:05:05Z</time>
      </trkpt>
      <trkpt lat="44.3895" lon="5.83662">
        <ele>1258.98</ele>
        <time>2012-03-22T10:05:06Z</time>
      </trkpt>
      <trkpt lat="44.3895" lon="5.83662">
        <ele>1243.12</ele>
        <time>2012-03-22T10:05:07Z</time>
      </trkpt>
      <trkpt lat="44.38948" lon="5.83666">
        <ele>1252.74</ele>
        <time>2012-03-22T10:05:08Z</time>
      </trkpt>
      <trkpt lat="44.38948" lon="5.83666">
        <ele>1256.58</ele>
        <time>2012-03-22T10:05:10Z</time>
      </trkpt>
      <trkpt lat="44.38948" lon="5.83666">
        <ele>1247.93</ele>
        <time>2012-03-22T10:05:11Z</time>
      </trkpt>
      <trkpt lat="44.38948" lon="5.83666">
        <ele>1257.54</ele>
        <time>2012-03-22T10:05:12Z</time>
      </trkpt>
      <trkpt lat="44.38948" lon="5.83666">
        <ele>1258.5</ele>
        <time>2012-03-22T10:05:14Z</time>
      </trkpt>
      <trkpt lat="44.38948" lon="5.83666">
        <ele>1254.18</ele>
        <time>2012-03-22T10:05:15Z</time>
      </trkpt>
      <trkpt lat="44.38948" lon="5.83666">
        <ele>1256.1</ele>
        <time>2012-03-22T10:05:16Z</time>
      </trkpt>
      <trkpt lat="44.38948" lon="5.83666">
        <ele>1258.98</ele>
        <time>2012-03-22T10:05:18Z</time>
      </trkpt>
      <trkpt lat="44.38948" lon="5.83666">
        <ele>1253.7</ele>
        <time>2012-03-22T10:05:22Z</time>
      </trkpt>
      <trkpt lat="44.38948" lon="5.83666">
        <ele>1263.31</ele>
        <time>2012-03-22T10:05:23Z</time>
      </trkpt>
      <trkpt lat="44.38948" lon="5.83666">
        <ele>1262.35</ele>
        <time>2012-03-22T10:05:24Z</time>
      </trkpt>
      <trkpt lat="44.38948" lon="5.83666">
        <ele>1257.06</ele>
        <time>2012-03-22T10:05:25Z</time>
      </trkpt>
      <trkpt lat="44.38948" lon="5.83666">
        <ele>1258.5</ele>
        <time>2012-03-22T10:05:26Z</time>
      </trkpt>
      <trkpt lat="44.38948" lon="5.83666">
        <ele>1252.25</ele>
        <time>2012-03-22T10:05:27Z</time>
      </trkpt>
      <trkpt lat="44.38948" lon="5.83666">
        <ele>1257.06</ele>
        <time>2012-03-22T10:05:28Z</time>
      </trkpt>
      <trkpt lat="44.38948" lon="5.83666">
        <ele>1266.67</ele>
        <time>2012-03-22T10:05:29Z</time>
      </trkpt>
      <trkpt lat="44.38948" lon="5.83666">
        <ele>1263.31</ele>
        <time>2012-03-22T10:05:30Z</time>
      </trkpt>
      <trkpt lat="44.38948" lon="5.83666">
        <ele>1259.46</ele>
        <time>2012-03-22T10:05:31Z</time>
      </trkpt>
      <trkpt lat="44.38948" lon="5.83666">
        <ele>1253.7</ele>
        <time>2012-03-22T10:05:32Z</time>
      </trkpt>
      <trkpt lat="44.38948" lon="5.83666">
        <ele>1257.06</ele>
        <time>2012-03-22T10:05:33Z</time>
      </trkpt>
      <trkpt lat="44.38948" lon="5.83666">
        <ele>1259.46</ele>
        <time>2012-03-22T10:05:35Z</time>
      </trkpt>
      <trkpt lat="44.38948" lon="5.83666">
        <ele>1256.1</ele>
        <time>2012-03-22T10:05:37Z</time>
      </trkpt>
      <trkpt lat="44.38948" lon="5.83666">
        <ele>1263.31</ele>
        <time>2012-03-22T10:05:38Z</time>
      </trkpt>
      <trkpt lat="44.38948" lon="5.83666">
        <ele>1262.35</ele>
        <time>2012-03-22T10:05:39Z</time>
      </trkpt>
      <trkpt lat="44.38948" lon="5.83666">
        <ele>1255.62</ele>
        <time>2012-03-22T10:05:41Z</time>
      </trkpt>
      <trkpt lat="44.38948" lon="5.83666">
        <ele>1258.02</ele>
        <time>2012-03-22T10:05:42Z</time>
      </trkpt>
      <trkpt lat="44.38948" lon="5.8367">
        <ele>1261.39</ele>
        <time>2012-03-22T10:05:44Z</time>
      </trkpt>
      <trkpt lat="44.38949" lon="5.83674">
        <ele>1256.58</ele>
        <time>2012-03-22T10:05:45Z</time>
      </trkpt>
      <trkpt lat="44.3895" lon="5.83678">
        <ele>1259.46</ele>
        <time>2012-03-22T10:05:46Z</time>
      </trkpt>
      <trkpt lat="44.3895" lon="5.83678">
        <ele>1262.83</ele>
        <time>2012-03-22T10:05:48Z</time>
      </trkpt>
      <trkpt lat="44.38951" lon="5.83683">
        <ele>1255.62</ele>
        <time>2012-03-22T10:05:49Z</time>
      </trkpt>
      <trkpt lat="44.38952" lon="5.83688">
        <ele>1261.87</ele>
        <time>2012-03-22T10:05:50Z</time>
      </trkpt>
      <trkpt lat="44.38956" lon="5.83703">
        <ele>1265.23</ele>
        <time>2012-03-22T10:05:55Z</time>
      </trkpt>
      <trkpt lat="44.38959" lon="5.83708">
        <ele>1260.43</ele>
        <time>2012-03-22T10:05:56Z</time>
      </trkpt>
      <trkpt lat="44.3896" lon="5.8371">
        <ele>1266.67</ele>
        <time>2012-03-22T10:05:58Z</time>
      </trkpt>
      <trkpt lat="44.38962" lon="5.83714">
        <ele>1260.43</ele>
        <time>2012-03-22T10:05:59Z</time>
      </trkpt>
      <trkpt lat="44.38966" lon="5.83721">
        <ele>1263.79</ele>
        <time>2012-03-22T10:06:01Z</time>
      </trkpt>
      <trkpt lat="44.38974" lon="5.83728">
        <ele>1266.67</ele>
        <time>2012-03-22T10:06:05Z</time>
      </trkpt>
      <trkpt lat="44.38974" lon="5.83728">
        <ele>1264.27</ele>
        <time>2012-03-22T10:06:06Z</time>
      </trkpt>
      <trkpt lat="44.38989" lon="5.83735">
        <ele>1258.02</ele>
        <time>2012-03-22T10:06:10Z</time>
      </trkpt>
      <trkpt lat="44.38992" lon="5.83736">
        <ele>1264.27</ele>
        <time>2012-03-22T10:06:11Z</time>
      </trkpt>
      <trkpt lat="44.38992" lon="5.83736">
        <ele>1260.91</ele>
        <time>2012-03-22T10:06:13Z</time>
      </trkpt>
      <trkpt lat="44.38992" lon="5.83736">
        <ele>1264.27</ele>
        <time>2012-03-22T10:06:14Z</time>
      </trkpt>
      <trkpt lat="44.38992" lon="5.83736">
        <ele>1268.6</ele>
        <time>2012-03-22T10:06:31Z</time>
      </trkpt>
      <trkpt lat="44.38992" lon="5.83736">
        <ele>1265.23</ele>
        <time>2012-03-22T10:06:32Z</time>
      </trkpt>
      <trkpt lat="44.38992" lon="5.83736">
        <ele>1263.31</ele>
        <time>2012-03-22T10:06:34Z</time>
      </trkpt>
      <trkpt lat="44.38992" lon="5.83738">
        <ele>1257.06</ele>
        <time>2012-03-22T10:06:36Z</time>
      </trkpt>
      <trkpt lat="44.38992" lon="5.8374">
        <ele>1261.39</ele>
        <time>2012-03-22T10:06:37Z</time>
      </trkpt>
      <trkpt lat="44.38992" lon="5.83743">
        <ele>1264.27</ele>
        <time>2012-03-22T10:06:38Z</time>
      </trkpt>
      <trkpt lat="44.38993" lon="5.83745">
        <ele>1261.87</ele>
        <time>2012-03-22T10:06:39Z</time>
      </trkpt>
      <trkpt lat="44.38993" lon="5.83749">
        <ele>1260.91</ele>
        <time>2012-03-22T10:06:41Z</time>
      </trkpt>
      <trkpt lat="44.38993" lon="5.83757">
        <ele>1261.87</ele>
        <time>2012-03-22T10:06:45Z</time>
      </trkpt>
      <trkpt lat="44.38992" lon="5.83761">
        <ele>1263.31</ele>
        <time>2012-03-22T10:06:47Z</time>
      </trkpt>
      <trkpt lat="44.38991" lon="5.83762">
        <ele>1259.94</ele>
        <time>2012-03-22T10:06:48Z</time>
      </trkpt>
      <trkpt lat="44.38991" lon="5.83763">
        <ele>1256.1</ele>
        <time>2012-03-22T10:06:49Z</time>
      </trkpt>
      <trkpt lat="44.38991" lon="5.83765">
        <ele>1260.91</ele>
        <time>2012-03-22T10:06:50Z</time>
      </trkpt>
      <trkpt lat="44.38991" lon="5.83767">
        <ele>1267.16</ele>
        <time>2012-03-22T10:06:51Z</time>
      </trkpt>
      <trkpt lat="44.3899" lon="5.83769">
        <ele>1264.27</ele>
        <time>2012-03-22T10:06:52Z</time>
      </trkpt>
      <trkpt lat="44.38988" lon="5.83774">
        <ele>1258.98</ele>
        <time>2012-03-22T10:06:55Z</time>
      </trkpt>
      <trkpt lat="44.38988" lon="5.83775">
        <ele>1262.35</ele>
        <time>2012-03-22T10:06:56Z</time>
      </trkpt>
      <trkpt lat="44.38988" lon="5.83777">
        <ele>1258.02</ele>
        <time>2012-03-22T10:06:57Z</time>
      </trkpt>
      <trkpt lat="44.38988" lon="5.83778">
        <ele>1261.39</ele>
        <time>2012-03-22T10:06:58Z</time>
      </trkpt>
      <trkpt lat="44.38987" lon="5.83786">
        <ele>1266.19</ele>
        <time>2012-03-22T10:07:04Z</time>
      </trkpt>
      <trkpt lat="44.38987" lon="5.83787">
        <ele>1258.98</ele>
        <time>2012-03-22T10:07:05Z</time>
      </trkpt>
      <trkpt lat="44.38987" lon="5.83788">
        <ele>1263.79</ele>
        <time>2012-03-22T10:07:06Z</time>
      </trkpt>
      <trkpt lat="44.38986" lon="5.83793">
        <ele>1260.43</ele>
        <time>2012-03-22T10:07:13Z</time>
      </trkpt>
      <trkpt lat="44.38986" lon="5.83797">
        <ele>1263.31</ele>
        <time>2012-03-22T10:07:16Z</time>
      </trkpt>
      <trkpt lat="44.38982" lon="5.83809">
        <ele>1266.67</ele>
        <time>2012-03-22T10:07:25Z</time>
      </trkpt>
      <trkpt lat="44.38981" lon="5.83811">
        <ele>1257.54</ele>
        <time>2012-03-22T10:07:26Z</time>
      </trkpt>
      <trkpt lat="44.38981" lon="5.83813">
        <ele>1272.92</ele>
        <time>2012-03-22T10:07:27Z</time>
      </trkpt>
      <trkpt lat="44.38981" lon="5.83815">
        <ele>1271.48</ele>
        <time>2012-03-22T10:07:28Z</time>
      </trkpt>
      <trkpt lat="44.38981" lon="5.83816">
        <ele>1264.27</ele>
        <time>2012-03-22T10:07:29Z</time>
      </trkpt>
      <trkpt lat="44.3898" lon="5.83819">
        <ele>1271.96</ele>
        <time>2012-03-22T10:07:31Z</time>
      </trkpt>
      <trkpt lat="44.3898" lon="5.83819">
        <ele>1271.48</ele>
        <time>2012-03-22T10:07:32Z</time>
      </trkpt>
      <trkpt lat="44.3898" lon="5.8382">
        <ele>1266.67</ele>
        <time>2012-03-22T10:07:33Z</time>
      </trkpt>
      <trkpt lat="44.3898" lon="5.83826">
        <ele>1261.39</ele>
        <time>2012-03-22T10:07:38Z</time>
      </trkpt>
      <trkpt lat="44.3898" lon="5.8383">
        <ele>1270.52</ele>
        <time>2012-03-22T10:07:40Z</time>
      </trkpt>
      <trkpt lat="44.3898" lon="5.83831">
        <ele>1258.5</ele>
        <time>2012-03-22T10:07:41Z</time>
      </trkpt>
      <trkpt lat="44.3898" lon="5.83835">
        <ele>1263.79</ele>
        <time>2012-03-22T10:07:43Z</time>
      </trkpt>
      <trkpt lat="44.3898" lon="5.83837">
        <ele>1258.98</ele>
        <time>2012-03-22T10:07:44Z</time>
      </trkpt>
      <trkpt lat="44.3898" lon="5.83839">
        <ele>1268.12</ele>
        <time>2012-03-22T10:07:45Z</time>
      </trkpt>
      <trkpt lat="44.3898" lon="5.83841">
        <ele>1262.35</ele>
        <time>2012-03-22T10:07:46Z</time>
      </trkpt>
      <trkpt lat="44.3898" lon="5.83845">
        <ele>1265.71</ele>
        <time>2012-03-22T10:07:49Z</time>
      </trkpt>
      <trkpt lat="44.3898" lon="5.83848">
        <ele>1260.43</ele>
        <time>2012-03-22T10:07:51Z</time>
      </trkpt>
      <trkpt lat="44.38981" lon="5.83849">
        <ele>1264.75</ele>
        <time>2012-03-22T10:07:52Z</time>
      </trkpt>
      <trkpt lat="44.38981" lon="5.83851">
        <ele>1264.75</ele>
        <time>2012-03-22T10:07:53Z</time>
      </trkpt>
      <trkpt lat="44.3898" lon="5.83857">
        <ele>1260.91</ele>
        <time>2012-03-22T10:07:55Z</time>
      </trkpt>
      <trkpt lat="44.3898" lon="5.8386">
        <ele>1265.71</ele>
        <time>2012-03-22T10:07:56Z</time>
      </trkpt>
      <trkpt lat="44.38979" lon="5.83862">
        <ele>1269.56</ele>
        <time>2012-03-22T10:07:57Z</time>
      </trkpt>
      <trkpt lat="44.38979" lon="5.83864">
        <ele>1266.19</ele>
        <time>2012-03-22T10:07:58Z</time>
      </trkpt>
      <trkpt lat="44.38977" lon="5.83869">
        <ele>1261.39</ele>
        <time>2012-03-22T10:07:59Z</time>
      </trkpt>
      <trkpt lat="44.38975" lon="5.83874">
        <ele>1264.75</ele>
        <time>2012-03-22T10:08:01Z</time>
      </trkpt>
      <trkpt lat="44.38974" lon="5.83878">
        <ele>1261.87</ele>
        <time>2012-03-22T10:08:03Z</time>
      </trkpt>
      <trkpt lat="44.38973" lon="5.83883">
        <ele>1258.98</ele>
        <time>2012-03-22T10:08:06Z</time>
      </trkpt>
      <trkpt lat="44.38973" lon="5.83885">
        <ele>1265.71</ele>
        <time>2012-03-22T10:08:07Z</time>
      </trkpt>
      <trkpt lat="44.38972" lon="5.83887">
        <ele>1256.1</ele>
        <time>2012-03-22T10:08:08Z</time>
      </trkpt>
      <trkpt lat="44.38971" lon="5.8389">
        <ele>1259.46</ele>
        <time>2012-03-22T10:08:10Z</time>
      </trkpt>
      <trkpt lat="44.3897" lon="5.83894">
        <ele>1263.31</ele>
        <time>2012-03-22T10:08:14Z</time>
      </trkpt>
      <trkpt lat="44.38969" lon="5.83898">
        <ele>1270.04</ele>
        <time>2012-03-22T10:08:17Z</time>
      </trkpt>
      <trkpt lat="44.38969" lon="5.83899">
        <ele>1263.79</ele>
        <time>2012-03-22T10:08:18Z</time>
      </trkpt>
      <trkpt lat="44.3897" lon="5.83907">
        <ele>1270.52</ele>
        <time>2012-03-22T10:08:24Z</time>
      </trkpt>
      <trkpt lat="44.3897" lon="5.83908">
        <ele>1261.39</ele>
        <time>2012-03-22T10:08:25Z</time>
      </trkpt>
      <trkpt lat="44.3897" lon="5.8391">
        <ele>1261.39</ele>
        <time>2012-03-22T10:08:26Z</time>
      </trkpt>
      <trkpt lat="44.3897" lon="5.83912">
        <ele>1268.6</ele>
        <time>2012-03-22T10:08:28Z</time>
      </trkpt>
      <trkpt lat="44.3897" lon="5.83913">
        <ele>1263.31</ele>
        <time>2012-03-22T10:08:29Z</time>
      </trkpt>
      <trkpt lat="44.3897" lon="5.83914">
        <ele>1261.87</ele>
        <time>2012-03-22T10:08:31Z</time>
      </trkpt>
      <trkpt lat="44.38968" lon="5.83918">
        <ele>1269.56</ele>
        <time>2012-03-22T10:08:34Z</time>
      </trkpt>
      <trkpt lat="44.38968" lon="5.83919">
        <ele>1264.75</ele>
        <time>2012-03-22T10:08:35Z</time>
      </trkpt>
      <trkpt lat="44.38967" lon="5.8392">
        <ele>1259.94</ele>
        <time>2012-03-22T10:08:36Z</time>
      </trkpt>
      <trkpt lat="44.38967" lon="5.83921">
        <ele>1263.31</ele>
        <time>2012-03-22T10:08:37Z</time>
      </trkpt>
      <trkpt lat="44.38967" lon="5.83924">
        <ele>1265.71</ele>
        <time>2012-03-22T10:08:40Z</time>
      </trkpt>
      <trkpt lat="44.38967" lon="5.83925">
        <ele>1259.46</ele>
        <time>2012-03-22T10:08:41Z</time>
      </trkpt>
      <trkpt lat="44.38967" lon="5.83926">
        <ele>1263.79</ele>
        <time>2012-03-22T10:08:42Z</time>
      </trkpt>
      <trkpt lat="44.38967" lon="5.83926">
        <ele>1267.64</ele>
        <time>2012-03-22T10:08:43Z</time>
      </trkpt>
      <trkpt lat="44.38967" lon="5.83926">
        <ele>1262.35</ele>
        <time>2012-03-22T10:08:44Z</time>
      </trkpt>
      <trkpt lat="44.38967" lon="5.83927">
        <ele>1258.02</ele>
        <time>2012-03-22T10:08:45Z</time>
      </trkpt>
      <trkpt lat="44.38966" lon="5.83929">
        <ele>1260.43</ele>
        <time>2012-03-22T10:08:46Z</time>
      </trkpt>
      <trkpt lat="44.38966" lon="5.83932">
        <ele>1266.19</ele>
        <time>2012-03-22T10:08:49Z</time>
      </trkpt>
      <trkpt lat="44.38965" lon="5.83933">
        <ele>1262.35</ele>
        <time>2012-03-22T10:08:50Z</time>
      </trkpt>
      <trkpt lat="44.38962" lon="5.83942">
        <ele>1257.06</ele>
        <time>2012-03-22T10:08:55Z</time>
      </trkpt>
      <trkpt lat="44.38962" lon="5.83943">
        <ele>1263.79</ele>
        <time>2012-03-22T10:08:56Z</time>
      </trkpt>
      <trkpt lat="44.38962" lon="5.83944">
        <ele>1259.46</ele>
        <time>2012-03-22T10:08:57Z</time>
      </trkpt>
      <trkpt lat="44.38962" lon="5.83945">
        <ele>1262.83</ele>
        <time>2012-03-22T10:08:59Z</time>
      </trkpt>
      <trkpt lat="44.38962" lon="5.83947">
        <ele>1257.06</ele>
        <time>2012-03-22T10:09:00Z</time>
      </trkpt>
      <trkpt lat="44.38962" lon="5.83947">
        <ele>1260.91</ele>
        <time>2012-03-22T10:09:01Z</time>
      </trkpt>
      <trkpt lat="44.38962" lon="5.83949">
        <ele>1256.1</ele>
        <time>2012-03-22T10:09:02Z</time>
      </trkpt>
      <trkpt lat="44.38962" lon="5.8395">
        <ele>1263.31</ele>
        <time>2012-03-22T10:09:03Z</time>
      </trkpt>
      <trkpt lat="44.38962" lon="5.83952">
        <ele>1262.35</ele>
        <time>2012-03-22T10:09:04Z</time>
      </trkpt>
      <trkpt lat="44.38962" lon="5.83953">
        <ele>1256.58</ele>
        <time>2012-03-22T10:09:06Z</time>
      </trkpt>
      <trkpt lat="44.38962" lon="5.83954">
        <ele>1261.39</ele>
        <time>2012-03-22T10:09:07Z</time>
      </trkpt>
      <trkpt lat="44.38961" lon="5.83957">
        <ele>1255.62</ele>
        <time>2012-03-22T10:09:09Z</time>
      </trkpt>
      <trkpt lat="44.38961" lon="5.83959">
        <ele>1263.31</ele>
        <time>2012-03-22T10:09:10Z</time>
      </trkpt>
      <trkpt lat="44.3896" lon="5.83961">
        <ele>1266.67</ele>
        <time>2012-03-22T10:09:11Z</time>
      </trkpt>
      <trkpt lat="44.38959" lon="5.83965">
        <ele>1263.31</ele>
        <time>2012-03-22T10:09:14Z</time>
      </trkpt>
      <trkpt lat="44.38958" lon="5.83966">
        <ele>1264.27</ele>
        <time>2012-03-22T10:09:15Z</time>
      </trkpt>
      <trkpt lat="44.38958" lon="5.83967">
        <ele>1259.46</ele>
        <time>2012-03-22T10:09:16Z</time>
      </trkpt>
      <trkpt lat="44.38958" lon="5.83968">
        <ele>1261.87</ele>
        <time>2012-03-22T10:09:17Z</time>
      </trkpt>
      <trkpt lat="44.38958" lon="5.8397">
        <ele>1258.5</ele>
        <time>2012-03-22T10:09:18Z</time>
      </trkpt>
      <trkpt lat="44.38958" lon="5.83971">
        <ele>1268.6</ele>
        <time>2012-03-22T10:09:19Z</time>
      </trkpt>
      <trkpt lat="44.38958" lon="5.83972">
        <ele>1264.75</ele>
        <time>2012-03-22T10:09:20Z</time>
      </trkpt>
      <trkpt lat="44.38958" lon="5.83974">
        <ele>1260.91</ele>
        <time>2012-03-22T10:09:22Z</time>
      </trkpt>
      <trkpt lat="44.38957" lon="5.83975">
        <ele>1264.75</ele>
        <time>2012-03-22T10:09:23Z</time>
      </trkpt>
      <trkpt lat="44.38957" lon="5.83977">
        <ele>1268.12</ele>
        <time>2012-03-22T10:09:24Z</time>
      </trkpt>
      <trkpt lat="44.38956" lon="5.83978">
        <ele>1261.87</ele>
        <time>2012-03-22T10:09:25Z</time>
      </trkpt>
      <trkpt lat="44.38956" lon="5.83979">
        <ele>1267.64</ele>
        <time>2012-03-22T10:09:26Z</time>
      </trkpt>
      <trkpt lat="44.38956" lon="5.83982">
        <ele>1261.87</ele>
        <time>2012-03-22T10:09:28Z</time>
      </trkpt>
      <trkpt lat="44.38956" lon="5.83983">
        <ele>1266.67</ele>
        <time>2012-03-22T10:09:29Z</time>
      </trkpt>
      <trkpt lat="44.38955" lon="5.83986">
        <ele>1260.43</ele>
        <time>2012-03-22T10:09:32Z</time>
      </trkpt>
      <trkpt lat="44.38955" lon="5.83987">
        <ele>1264.75</ele>
        <time>2012-03-22T10:09:33Z</time>
      </trkpt>
      <trkpt lat="44.38954" lon="5.83991">
        <ele>1269.08</ele>
        <time>2012-03-22T10:09:37Z</time>
      </trkpt>
      <trkpt lat="44.38954" lon="5.83992">
        <ele>1261.39</ele>
        <time>2012-03-22T10:09:38Z</time>
      </trkpt>
      <trkpt lat="44.38954" lon="5.83993">
        <ele>1267.16</ele>
        <time>2012-03-22T10:09:39Z</time>
      </trkpt>
      <trkpt lat="44.38952" lon="5.84001">
        <ele>1268.12</ele>
        <time>2012-03-22T10:09:48Z</time>
      </trkpt>
      <trkpt lat="44.38953" lon="5.84005">
        <ele>1275.33</ele>
        <time>2012-03-22T10:09:51Z</time>
      </trkpt>
      <trkpt lat="44.38952" lon="5.84006">
        <ele>1268.12</ele>
        <time>2012-03-22T10:09:52Z</time>
      </trkpt>
      <trkpt lat="44.38952" lon="5.84007">
        <ele>1263.79</ele>
        <time>2012-03-22T10:09:53Z</time>
      </trkpt>
      <trkpt lat="44.38952" lon="5.84009">
        <ele>1277.25</ele>
        <time>2012-03-22T10:09:55Z</time>
      </trkpt>
      <trkpt lat="44.38952" lon="5.8401">
        <ele>1268.6</ele>
        <time>2012-03-22T10:09:56Z</time>
      </trkpt>
      <trkpt lat="44.38951" lon="5.84012">
        <ele>1262.83</ele>
        <time>2012-03-22T10:09:57Z</time>
      </trkpt>
      <trkpt lat="44.38951" lon="5.84013">
        <ele>1263.79</ele>
        <time>2012-03-22T10:09:58Z</time>
      </trkpt>
      <trkpt lat="44.38951" lon="5.84013">
        <ele>1268.12</ele>
        <time>2012-03-22T10:09:59Z</time>
      </trkpt>
      <trkpt lat="44.38951" lon="5.84014">
        <ele>1266.67</ele>
        <time>2012-03-22T10:10:00Z</time>
      </trkpt>
      <trkpt lat="44.3895" lon="5.84016">
        <ele>1263.31</ele>
        <time>2012-03-22T10:10:01Z</time>
      </trkpt>
      <trkpt lat="44.38949" lon="5.84019">
        <ele>1267.64</ele>
        <time>2012-03-22T10:10:04Z</time>
      </trkpt>
      <trkpt lat="44.38949" lon="5.8402">
        <ele>1265.23</ele>
        <time>2012-03-22T10:10:05Z</time>
      </trkpt>
      <trkpt lat="44.38948" lon="5.84021">
        <ele>1259.94</ele>
        <time>2012-03-22T10:10:06Z</time>
      </trkpt>
      <trkpt lat="44.38948" lon="5.84022">
        <ele>1264.75</ele>
        <time>2012-03-22T10:10:07Z</time>
      </trkpt>
      <trkpt lat="44.38948" lon="5.84025">
        <ele>1268.12</ele>
        <time>2012-03-22T10:10:09Z</time>
      </trkpt>
      <trkpt lat="44.38948" lon="5.84026">
        <ele>1268.6</ele>
        <time>2012-03-22T10:10:10Z</time>
      </trkpt>
      <trkpt lat="44.38949" lon="5.84026">
        <ele>1264.27</ele>
        <time>2012-03-22T10:10:11Z</time>
      </trkpt>
      <trkpt lat="44.38949" lon="5.84027">
        <ele>1271</ele>
        <time>2012-03-22T10:10:12Z</time>
      </trkpt>
      <trkpt lat="44.38949" lon="5.84027">
        <ele>1267.16</ele>
        <time>2012-03-22T10:10:13Z</time>
      </trkpt>
      <trkpt lat="44.38949" lon="5.84027">
        <ele>1270.04</ele>
        <time>2012-03-22T10:10:14Z</time>
      </trkpt>
      <trkpt lat="44.38949" lon="5.84031">
        <ele>1271.96</ele>
        <time>2012-03-22T10:10:16Z</time>
      </trkpt>
      <trkpt lat="44.38949" lon="5.84032">
        <ele>1265.23</ele>
        <time>2012-03-22T10:10:17Z</time>
      </trkpt>
      <trkpt lat="44.38949" lon="5.84033">
        <ele>1268.6</ele>
        <time>2012-03-22T10:10:18Z</time>
      </trkpt>
      <trkpt lat="44.38949" lon="5.84034">
        <ele>1272.92</ele>
        <time>2012-03-22T10:10:19Z</time>
      </trkpt>
      <trkpt lat="44.38948" lon="5.84035">
        <ele>1265.23</ele>
        <time>2012-03-22T10:10:20Z</time>
      </trkpt>
      <trkpt lat="44.38948" lon="5.84036">
        <ele>1269.08</ele>
        <time>2012-03-22T10:10:21Z</time>
      </trkpt>
      <trkpt lat="44.38947" lon="5.84039">
        <ele>1275.33</ele>
        <time>2012-03-22T10:10:23Z</time>
      </trkpt>
      <trkpt lat="44.38947" lon="5.8404">
        <ele>1267.64</ele>
        <time>2012-03-22T10:10:24Z</time>
      </trkpt>
      <trkpt lat="44.38947" lon="5.84042">
        <ele>1269.56</ele>
        <time>2012-03-22T10:10:25Z</time>
      </trkpt>
      <trkpt lat="44.38946" lon="5.84047">
        <ele>1271</ele>
        <time>2012-03-22T10:10:29Z</time>
      </trkpt>
      <trkpt lat="44.38946" lon="5.84047">
        <ele>1266.67</ele>
        <time>2012-03-22T10:10:32Z</time>
      </trkpt>
      <trkpt lat="44.38947" lon="5.84048">
        <ele>1270.52</ele>
        <time>2012-03-22T10:10:33Z</time>
      </trkpt>
      <trkpt lat="44.38947" lon="5.84048">
        <ele>1266.67</ele>
        <time>2012-03-22T10:10:34Z</time>
      </trkpt>
      <trkpt lat="44.38947" lon="5.84049">
        <ele>1268.6</ele>
        <time>2012-03-22T10:10:35Z</time>
      </trkpt>
      <trkpt lat="44.38946" lon="5.84053">
        <ele>1264.75</ele>
        <time>2012-03-22T10:10:37Z</time>
      </trkpt>
      <trkpt lat="44.38945" lon="5.84054">
        <ele>1272.92</ele>
        <time>2012-03-22T10:10:38Z</time>
      </trkpt>
      <trkpt lat="44.38945" lon="5.84056">
        <ele>1276.29</ele>
        <time>2012-03-22T10:10:39Z</time>
      </trkpt>
      <trkpt lat="44.38944" lon="5.8406">
        <ele>1269.08</ele>
        <time>2012-03-22T10:10:41Z</time>
      </trkpt>
      <trkpt lat="44.38944" lon="5.84062">
        <ele>1270.04</ele>
        <time>2012-03-22T10:10:42Z</time>
      </trkpt>
      <trkpt lat="44.38943" lon="5.84066">
        <ele>1266.19</ele>
        <time>2012-03-22T10:10:45Z</time>
      </trkpt>
      <trkpt lat="44.38942" lon="5.8407">
        <ele>1270.04</ele>
        <time>2012-03-22T10:10:47Z</time>
      </trkpt>
      <trkpt lat="44.38941" lon="5.84071">
        <ele>1273.88</ele>
        <time>2012-03-22T10:10:48Z</time>
      </trkpt>
      <trkpt lat="44.3894" lon="5.84073">
        <ele>1272.44</ele>
        <time>2012-03-22T10:10:49Z</time>
      </trkpt>
      <trkpt lat="44.38939" lon="5.84078">
        <ele>1277.73</ele>
        <time>2012-03-22T10:10:52Z</time>
      </trkpt>
      <trkpt lat="44.38939" lon="5.84079">
        <ele>1272.92</ele>
        <time>2012-03-22T10:10:53Z</time>
      </trkpt>
      <trkpt lat="44.38937" lon="5.84083">
        <ele>1269.56</ele>
        <time>2012-03-22T10:10:56Z</time>
      </trkpt>
      <trkpt lat="44.38937" lon="5.84084">
        <ele>1272.92</ele>
        <time>2012-03-22T10:10:57Z</time>
      </trkpt>
      <trkpt lat="44.38937" lon="5.84094">
        <ele>1280.61</ele>
        <time>2012-03-22T10:11:04Z</time>
      </trkpt>
      <trkpt lat="44.38937" lon="5.84096">
        <ele>1273.4</ele>
        <time>2012-03-22T10:11:05Z</time>
      </trkpt>
      <trkpt lat="44.38936" lon="5.84101">
        <ele>1268.12</ele>
        <time>2012-03-22T10:11:08Z</time>
      </trkpt>
      <trkpt lat="44.38936" lon="5.84103">
        <ele>1273.4</ele>
        <time>2012-03-22T10:11:10Z</time>
      </trkpt>
      <trkpt lat="44.38936" lon="5.84105">
        <ele>1270.04</ele>
        <time>2012-03-22T10:11:11Z</time>
      </trkpt>
      <trkpt lat="44.38936" lon="5.84106">
        <ele>1278.21</ele>
        <time>2012-03-22T10:11:12Z</time>
      </trkpt>
      <trkpt lat="44.38936" lon="5.84107">
        <ele>1276.77</ele>
        <time>2012-03-22T10:11:13Z</time>
      </trkpt>
      <trkpt lat="44.38935" lon="5.84108">
        <ele>1271.48</ele>
        <time>2012-03-22T10:11:14Z</time>
      </trkpt>
      <trkpt lat="44.38935" lon="5.84109">
        <ele>1273.4</ele>
        <time>2012-03-22T10:11:15Z</time>
      </trkpt>
      <trkpt lat="44.38935" lon="5.8411">
        <ele>1269.08</ele>
        <time>2012-03-22T10:11:16Z</time>
      </trkpt>
      <trkpt lat="44.38935" lon="5.84113">
        <ele>1276.29</ele>
        <time>2012-03-22T10:11:20Z</time>
      </trkpt>
      <trkpt lat="44.38935" lon="5.84114">
        <ele>1274.85</ele>
        <time>2012-03-22T10:11:21Z</time>
      </trkpt>
      <trkpt lat="44.38935" lon="5.84116">
        <ele>1272.44</ele>
        <time>2012-03-22T10:11:23Z</time>
      </trkpt>
      <trkpt lat="44.38936" lon="5.84119">
        <ele>1276.77</ele>
        <time>2012-03-22T10:11:25Z</time>
      </trkpt>
      <trkpt lat="44.38936" lon="5.84122">
        <ele>1271.96</ele>
        <time>2012-03-22T10:11:28Z</time>
      </trkpt>
      <trkpt lat="44.38937" lon="5.84123">
        <ele>1276.29</ele>
        <time>2012-03-22T10:11:29Z</time>
      </trkpt>
      <trkpt lat="44.38938" lon="5.84129">
        <ele>1271.48</ele>
        <time>2012-03-22T10:11:34Z</time>
      </trkpt>
      <trkpt lat="44.38938" lon="5.8413">
        <ele>1271.96</ele>
        <time>2012-03-22T10:11:35Z</time>
      </trkpt>
      <trkpt lat="44.38939" lon="5.84132">
        <ele>1275.33</ele>
        <time>2012-03-22T10:11:37Z</time>
      </trkpt>
      <trkpt lat="44.38939" lon="5.84134">
        <ele>1270.04</ele>
        <time>2012-03-22T10:11:38Z</time>
      </trkpt>
      <trkpt lat="44.38939" lon="5.84135">
        <ele>1273.88</ele>
        <time>2012-03-22T10:11:39Z</time>
      </trkpt>
      <trkpt lat="44.38939" lon="5.84135">
        <ele>1269.56</ele>
        <time>2012-03-22T10:11:40Z</time>
      </trkpt>
      <trkpt lat="44.38939" lon="5.84135">
        <ele>1272.92</ele>
        <time>2012-03-22T10:11:41Z</time>
      </trkpt>
      <trkpt lat="44.38939" lon="5.84136">
        <ele>1279.17</ele>
        <time>2012-03-22T10:11:42Z</time>
      </trkpt>
      <trkpt lat="44.38939" lon="5.84136">
        <ele>1273.88</ele>
        <time>2012-03-22T10:11:43Z</time>
      </trkpt>
      <trkpt lat="44.38939" lon="5.8414">
        <ele>1273.4</ele>
        <time>2012-03-22T10:11:48Z</time>
      </trkpt>
      <trkpt lat="44.38939" lon="5.84141">
        <ele>1278.21</ele>
        <time>2012-03-22T10:11:49Z</time>
      </trkpt>
      <trkpt lat="44.38938" lon="5.84144">
        <ele>1271.48</ele>
        <time>2012-03-22T10:11:51Z</time>
      </trkpt>
      <trkpt lat="44.38938" lon="5.84145">
        <ele>1275.33</ele>
        <time>2012-03-22T10:11:52Z</time>
      </trkpt>
      <trkpt lat="44.38938" lon="5.84145">
        <ele>1277.25</ele>
        <time>2012-03-22T10:11:53Z</time>
      </trkpt>
      <trkpt lat="44.38938" lon="5.84147">
        <ele>1272.92</ele>
        <time>2012-03-22T10:11:55Z</time>
      </trkpt>
      <trkpt lat="44.38934" lon="5.84161">
        <ele>1276.77</ele>
        <time>2012-03-22T10:12:03Z</time>
      </trkpt>
      <trkpt lat="44.38933" lon="5.84162">
        <ele>1271.96</ele>
        <time>2012-03-22T10:12:04Z</time>
      </trkpt>
      <trkpt lat="44.38933" lon="5.84163">
        <ele>1273.4</ele>
        <time>2012-03-22T10:12:05Z</time>
      </trkpt>
      <trkpt lat="44.38934" lon="5.84165">
        <ele>1276.29</ele>
        <time>2012-03-22T10:12:08Z</time>
      </trkpt>
      <trkpt lat="44.38935" lon="5.84167">
        <ele>1272.92</ele>
        <time>2012-03-22T10:12:10Z</time>
      </trkpt>
      <trkpt lat="44.38935" lon="5.84167">
        <ele>1277.25</ele>
        <time>2012-03-22T10:12:11Z</time>
      </trkpt>
      <trkpt lat="44.38935" lon="5.84167">
        <ele>1276.29</ele>
        <time>2012-03-22T10:12:12Z</time>
      </trkpt>
      <trkpt lat="44.38933" lon="5.84171">
        <ele>1278.69</ele>
        <time>2012-03-22T10:12:17Z</time>
      </trkpt>
      <trkpt lat="44.38933" lon="5.84172">
        <ele>1272.92</ele>
        <time>2012-03-22T10:12:18Z</time>
      </trkpt>
      <trkpt lat="44.38933" lon="5.84173">
        <ele>1278.21</ele>
        <time>2012-03-22T10:12:19Z</time>
      </trkpt>
      <trkpt lat="44.38933" lon="5.84178">
        <ele>1273.88</ele>
        <time>2012-03-22T10:12:23Z</time>
      </trkpt>
      <trkpt lat="44.38932" lon="5.84182">
        <ele>1277.73</ele>
        <time>2012-03-22T10:12:25Z</time>
      </trkpt>
      <trkpt lat="44.38932" lon="5.84185">
        <ele>1283.5</ele>
        <time>2012-03-22T10:12:27Z</time>
      </trkpt>
      <trkpt lat="44.38932" lon="5.84186">
        <ele>1280.61</ele>
        <time>2012-03-22T10:12:28Z</time>
      </trkpt>
      <trkpt lat="44.38932" lon="5.84187">
        <ele>1271.96</ele>
        <time>2012-03-22T10:12:29Z</time>
      </trkpt>
      <trkpt lat="44.38931" lon="5.84187">
        <ele>1279.17</ele>
        <time>2012-03-22T10:12:30Z</time>
      </trkpt>
      <trkpt lat="44.38932" lon="5.84188">
        <ele>1274.85</ele>
        <time>2012-03-22T10:12:31Z</time>
      </trkpt>
      <trkpt lat="44.38931" lon="5.84191">
        <ele>1280.61</ele>
        <time>2012-03-22T10:12:33Z</time>
      </trkpt>
      <trkpt lat="44.3893" lon="5.84192">
        <ele>1276.29</ele>
        <time>2012-03-22T10:12:34Z</time>
      </trkpt>
      <trkpt lat="44.3893" lon="5.84193">
        <ele>1280.13</ele>
        <time>2012-03-22T10:12:36Z</time>
      </trkpt>
      <trkpt lat="44.3893" lon="5.84193">
        <ele>1276.77</ele>
        <time>2012-03-22T10:12:38Z</time>
      </trkpt>
      <trkpt lat="44.3893" lon="5.84194">
        <ele>1273.4</ele>
        <time>2012-03-22T10:12:39Z</time>
      </trkpt>
      <trkpt lat="44.3893" lon="5.84194">
        <ele>1275.33</ele>
        <time>2012-03-22T10:12:40Z</time>
      </trkpt>
      <trkpt lat="44.3893" lon="5.84198">
        <ele>1274.85</ele>
        <time>2012-03-22T10:12:44Z</time>
      </trkpt>
      <trkpt lat="44.3893" lon="5.84201">
        <ele>1277.25</ele>
        <time>2012-03-22T10:12:46Z</time>
      </trkpt>
      <trkpt lat="44.38928" lon="5.84208">
        <ele>1281.57</ele>
        <time>2012-03-22T10:12:50Z</time>
      </trkpt>
      <trkpt lat="44.38928" lon="5.8421">
        <ele>1280.61</ele>
        <time>2012-03-22T10:12:51Z</time>
      </trkpt>
      <trkpt lat="44.38928" lon="5.84212">
        <ele>1275.33</ele>
        <time>2012-03-22T10:12:52Z</time>
      </trkpt>
      <trkpt lat="44.38928" lon="5.84213">
        <ele>1278.69</ele>
        <time>2012-03-22T10:12:53Z</time>
      </trkpt>
      <trkpt lat="44.38928" lon="5.84215">
        <ele>1274.85</ele>
        <time>2012-03-22T10:12:55Z</time>
      </trkpt>
      <trkpt lat="44.38927" lon="5.84217">
        <ele>1275.81</ele>
        <time>2012-03-22T10:12:56Z</time>
      </trkpt>
      <trkpt lat="44.38926" lon="5.8422">
        <ele>1272.92</ele>
        <time>2012-03-22T10:12:59Z</time>
      </trkpt>
      <trkpt lat="44.38924" lon="5.84226">
        <ele>1276.29</ele>
        <time>2012-03-22T10:13:03Z</time>
      </trkpt>
      <trkpt lat="44.38923" lon="5.84227">
        <ele>1271.48</ele>
        <time>2012-03-22T10:13:04Z</time>
      </trkpt>
      <trkpt lat="44.38922" lon="5.8423">
        <ele>1278.21</ele>
        <time>2012-03-22T10:13:06Z</time>
      </trkpt>
      <trkpt lat="44.38921" lon="5.84231">
        <ele>1277.25</ele>
        <time>2012-03-22T10:13:07Z</time>
      </trkpt>
      <trkpt lat="44.3892" lon="5.84232">
        <ele>1273.4</ele>
        <time>2012-03-22T10:13:08Z</time>
      </trkpt>
      <trkpt lat="44.3892" lon="5.84233">
        <ele>1274.85</ele>
        <time>2012-03-22T10:13:09Z</time>
      </trkpt>
      <trkpt lat="44.38918" lon="5.84235">
        <ele>1272.44</ele>
        <time>2012-03-22T10:13:11Z</time>
      </trkpt>
      <trkpt lat="44.38918" lon="5.84238">
        <ele>1273.4</ele>
        <time>2012-03-22T10:13:13Z</time>
      </trkpt>
      <trkpt lat="44.38917" lon="5.84241">
        <ele>1270.04</ele>
        <time>2012-03-22T10:13:15Z</time>
      </trkpt>
      <trkpt lat="44.38917" lon="5.84242">
        <ele>1276.29</ele>
        <time>2012-03-22T10:13:16Z</time>
      </trkpt>
      <trkpt lat="44.38916" lon="5.84243">
        <ele>1273.4</ele>
        <time>2012-03-22T10:13:17Z</time>
      </trkpt>
      <trkpt lat="44.38916" lon="5.84247">
        <ele>1277.73</ele>
        <time>2012-03-22T10:13:21Z</time>
      </trkpt>
      <trkpt lat="44.38915" lon="5.84248">
        <ele>1271.96</ele>
        <time>2012-03-22T10:13:22Z</time>
      </trkpt>
      <trkpt lat="44.38915" lon="5.84248">
        <ele>1272.44</ele>
        <time>2012-03-22T10:13:23Z</time>
      </trkpt>
      <trkpt lat="44.38913" lon="5.84254">
        <ele>1271</ele>
        <time>2012-03-22T10:13:28Z</time>
      </trkpt>
      <trkpt lat="44.38913" lon="5.84258">
        <ele>1271.48</ele>
        <time>2012-03-22T10:13:34Z</time>
      </trkpt>
      <trkpt lat="44.38913" lon="5.84261">
        <ele>1267.16</ele>
        <time>2012-03-22T10:13:37Z</time>
      </trkpt>
      <trkpt lat="44.38913" lon="5.84262">
        <ele>1271.48</ele>
        <time>2012-03-22T10:13:38Z</time>
      </trkpt>
      <trkpt lat="44.38913" lon="5.84264">
        <ele>1274.85</ele>
        <time>2012-03-22T10:13:39Z</time>
      </trkpt>
      <trkpt lat="44.38913" lon="5.84266">
        <ele>1272.92</ele>
        <time>2012-03-22T10:13:40Z</time>
      </trkpt>
      <trkpt lat="44.38912" lon="5.84267">
        <ele>1280.13</ele>
        <time>2012-03-22T10:13:41Z</time>
      </trkpt>
      <trkpt lat="44.38912" lon="5.84267">
        <ele>1270.04</ele>
        <time>2012-03-22T10:13:42Z</time>
      </trkpt>
      <trkpt lat="44.38912" lon="5.84269">
        <ele>1274.85</ele>
        <time>2012-03-22T10:13:43Z</time>
      </trkpt>
      <trkpt lat="44.38911" lon="5.84274">
        <ele>1270.52</ele>
        <time>2012-03-22T10:13:47Z</time>
      </trkpt>
      <trkpt lat="44.38911" lon="5.84274">
        <ele>1274.85</ele>
        <time>2012-03-22T10:13:48Z</time>
      </trkpt>
      <trkpt lat="44.3891" lon="5.84275">
        <ele>1278.21</ele>
        <time>2012-03-22T10:13:49Z</time>
      </trkpt>
      <trkpt lat="44.3891" lon="5.84276">
        <ele>1271.48</ele>
        <time>2012-03-22T10:13:51Z</time>
      </trkpt>
      <trkpt lat="44.38909" lon="5.84277">
        <ele>1276.77</ele>
        <time>2012-03-22T10:13:52Z</time>
      </trkpt>
      <trkpt lat="44.38909" lon="5.84278">
        <ele>1272.44</ele>
        <time>2012-03-22T10:13:53Z</time>
      </trkpt>
      <trkpt lat="44.38909" lon="5.84279">
        <ele>1279.17</ele>
        <time>2012-03-22T10:13:55Z</time>
      </trkpt>
      <trkpt lat="44.38909" lon="5.84279">
        <ele>1272.92</ele>
        <time>2012-03-22T10:13:56Z</time>
      </trkpt>
      <trkpt lat="44.38908" lon="5.84282">
        <ele>1279.65</ele>
        <time>2012-03-22T10:13:58Z</time>
      </trkpt>
      <trkpt lat="44.38907" lon="5.84283">
        <ele>1273.4</ele>
        <time>2012-03-22T10:13:59Z</time>
      </trkpt>
      <trkpt lat="44.38906" lon="5.84283">
        <ele>1283.02</ele>
        <time>2012-03-22T10:14:00Z</time>
      </trkpt>
      <trkpt lat="44.38906" lon="5.84284">
        <ele>1274.85</ele>
        <time>2012-03-22T10:14:01Z</time>
      </trkpt>
      <trkpt lat="44.38906" lon="5.84285">
        <ele>1280.13</ele>
        <time>2012-03-22T10:14:02Z</time>
      </trkpt>
      <trkpt lat="44.38906" lon="5.84285">
        <ele>1275.81</ele>
        <time>2012-03-22T10:14:04Z</time>
      </trkpt>
      <trkpt lat="44.38904" lon="5.84293">
        <ele>1280.13</ele>
        <time>2012-03-22T10:14:14Z</time>
      </trkpt>
      <trkpt lat="44.38904" lon="5.84294">
        <ele>1283.02</ele>
        <time>2012-03-22T10:14:16Z</time>
      </trkpt>
      <trkpt lat="44.38904" lon="5.84294">
        <ele>1276.77</ele>
        <time>2012-03-22T10:14:17Z</time>
      </trkpt>
      <trkpt lat="44.38904" lon="5.84295">
        <ele>1288.3</ele>
        <time>2012-03-22T10:14:18Z</time>
      </trkpt>
      <trkpt lat="44.38903" lon="5.84296">
        <ele>1280.13</ele>
        <time>2012-03-22T10:14:19Z</time>
      </trkpt>
      <trkpt lat="44.38902" lon="5.84297">
        <ele>1275.81</ele>
        <time>2012-03-22T10:14:20Z</time>
      </trkpt>
      <trkpt lat="44.38901" lon="5.84298">
        <ele>1279.65</ele>
        <time>2012-03-22T10:14:21Z</time>
      </trkpt>
      <trkpt lat="44.389" lon="5.84302">
        <ele>1276.77</ele>
        <time>2012-03-22T10:14:27Z</time>
      </trkpt>
      <trkpt lat="44.389" lon="5.84302">
        <ele>1283.5</ele>
        <time>2012-03-22T10:14:29Z</time>
      </trkpt>
      <trkpt lat="44.389" lon="5.84304">
        <ele>1279.65</ele>
        <time>2012-03-22T10:14:30Z</time>
      </trkpt>
      <trkpt lat="44.389" lon="5.84307">
        <ele>1283.5</ele>
        <time>2012-03-22T10:14:33Z</time>
      </trkpt>
      <trkpt lat="44.389" lon="5.84309">
        <ele>1278.69</ele>
        <time>2012-03-22T10:14:34Z</time>
      </trkpt>
      <trkpt lat="44.389" lon="5.84311">
        <ele>1290.23</ele>
        <time>2012-03-22T10:14:35Z</time>
      </trkpt>
      <trkpt lat="44.389" lon="5.84312">
        <ele>1282.06</ele>
        <time>2012-03-22T10:14:36Z</time>
      </trkpt>
      <trkpt lat="44.38898" lon="5.84321">
        <ele>1279.17</ele>
        <time>2012-03-22T10:14:46Z</time>
      </trkpt>
      <trkpt lat="44.38898" lon="5.84322">
        <ele>1280.61</ele>
        <time>2012-03-22T10:14:51Z</time>
      </trkpt>
      <trkpt lat="44.38898" lon="5.84323">
        <ele>1273.88</ele>
        <time>2012-03-22T10:14:53Z</time>
      </trkpt>
      <trkpt lat="44.38898" lon="5.84324">
        <ele>1278.69</ele>
        <time>2012-03-22T10:14:54Z</time>
      </trkpt>
      <trkpt lat="44.38898" lon="5.84325">
        <ele>1282.54</ele>
        <time>2012-03-22T10:14:55Z</time>
      </trkpt>
      <trkpt lat="44.38898" lon="5.84326">
        <ele>1280.61</ele>
        <time>2012-03-22T10:14:56Z</time>
      </trkpt>
      <trkpt lat="44.38898" lon="5.84329">
        <ele>1274.85</ele>
        <time>2012-03-22T10:15:00Z</time>
      </trkpt>
      <trkpt lat="44.38898" lon="5.84329">
        <ele>1278.69</ele>
        <time>2012-03-22T10:15:01Z</time>
      </trkpt>
      <trkpt lat="44.38897" lon="5.84335">
        <ele>1286.38</ele>
        <time>2012-03-22T10:15:07Z</time>
      </trkpt>
      <trkpt lat="44.38897" lon="5.84335">
        <ele>1276.77</ele>
        <time>2012-03-22T10:15:08Z</time>
      </trkpt>
      <trkpt lat="44.38896" lon="5.84336">
        <ele>1285.9</ele>
        <time>2012-03-22T10:15:09Z</time>
      </trkpt>
      <trkpt lat="44.38895" lon="5.84337">
        <ele>1278.69</ele>
        <time>2012-03-22T10:15:10Z</time>
      </trkpt>
      <trkpt lat="44.38895" lon="5.84338">
        <ele>1284.94</ele>
        <time>2012-03-22T10:15:11Z</time>
      </trkpt>
      <trkpt lat="44.38894" lon="5.84339">
        <ele>1278.69</ele>
        <time>2012-03-22T10:15:12Z</time>
      </trkpt>
      <trkpt lat="44.38894" lon="5.84342">
        <ele>1277.25</ele>
        <time>2012-03-22T10:15:14Z</time>
      </trkpt>
      <trkpt lat="44.38894" lon="5.84342">
        <ele>1284.94</ele>
        <time>2012-03-22T10:15:15Z</time>
      </trkpt>
      <trkpt lat="44.38894" lon="5.84343">
        <ele>1283.5</ele>
        <time>2012-03-22T10:15:16Z</time>
      </trkpt>
      <trkpt lat="44.38893" lon="5.84346">
        <ele>1287.34</ele>
        <time>2012-03-22T10:15:17Z</time>
      </trkpt>
      <trkpt lat="44.38892" lon="5.84347">
        <ele>1283.98</ele>
        <time>2012-03-22T10:15:18Z</time>
      </trkpt>
      <trkpt lat="44.3889" lon="5.84351">
        <ele>1274.85</ele>
        <time>2012-03-22T10:15:22Z</time>
      </trkpt>
      <trkpt lat="44.3889" lon="5.84351">
        <ele>1283.02</ele>
        <time>2012-03-22T10:15:23Z</time>
      </trkpt>
      <trkpt lat="44.38888" lon="5.84354">
        <ele>1279.65</ele>
        <time>2012-03-22T10:15:26Z</time>
      </trkpt>
      <trkpt lat="44.38887" lon="5.84355">
        <ele>1284.46</ele>
        <time>2012-03-22T10:15:28Z</time>
      </trkpt>
      <trkpt lat="44.38887" lon="5.84355">
        <ele>1282.06</ele>
        <time>2012-03-22T10:15:29Z</time>
      </trkpt>
      <trkpt lat="44.38885" lon="5.8436">
        <ele>1276.29</ele>
        <time>2012-03-22T10:15:32Z</time>
      </trkpt>
      <trkpt lat="44.38885" lon="5.84361">
        <ele>1277.73</ele>
        <time>2012-03-22T10:15:33Z</time>
      </trkpt>
      <trkpt lat="44.38883" lon="5.84365">
        <ele>1288.3</ele>
        <time>2012-03-22T10:15:36Z</time>
      </trkpt>
      <trkpt lat="44.38883" lon="5.84367">
        <ele>1280.13</ele>
        <time>2012-03-22T10:15:37Z</time>
      </trkpt>
      <trkpt lat="44.3888" lon="5.84374">
        <ele>1275.33</ele>
        <time>2012-03-22T10:15:42Z</time>
      </trkpt>
      <trkpt lat="44.38879" lon="5.84375">
        <ele>1278.21</ele>
        <time>2012-03-22T10:15:43Z</time>
      </trkpt>
      <trkpt lat="44.38878" lon="5.84378">
        <ele>1284.94</ele>
        <time>2012-03-22T10:15:44Z</time>
      </trkpt>
      <trkpt lat="44.38878" lon="5.84379">
        <ele>1277.25</ele>
        <time>2012-03-22T10:15:45Z</time>
      </trkpt>
      <trkpt lat="44.38876" lon="5.84382">
        <ele>1280.61</ele>
        <time>2012-03-22T10:15:47Z</time>
      </trkpt>
      <trkpt lat="44.38875" lon="5.84385">
        <ele>1284.94</ele>
        <time>2012-03-22T10:15:48Z</time>
      </trkpt>
      <trkpt lat="44.38874" lon="5.84387">
        <ele>1283.98</ele>
        <time>2012-03-22T10:15:49Z</time>
      </trkpt>
      <trkpt lat="44.38872" lon="5.8439">
        <ele>1283.5</ele>
        <time>2012-03-22T10:15:51Z</time>
      </trkpt>
      <trkpt lat="44.38871" lon="5.84392">
        <ele>1278.69</ele>
        <time>2012-03-22T10:15:53Z</time>
      </trkpt>
      <trkpt lat="44.3887" lon="5.84395">
        <ele>1283.02</ele>
        <time>2012-03-22T10:15:54Z</time>
      </trkpt>
      <trkpt lat="44.38869" lon="5.84396">
        <ele>1276.29</ele>
        <time>2012-03-22T10:15:55Z</time>
      </trkpt>
      <trkpt lat="44.38868" lon="5.84397">
        <ele>1277.25</ele>
        <time>2012-03-22T10:15:56Z</time>
      </trkpt>
      <trkpt lat="44.38868" lon="5.84398">
        <ele>1282.54</ele>
        <time>2012-03-22T10:15:57Z</time>
      </trkpt>
      <trkpt lat="44.38866" lon="5.84399">
        <ele>1275.33</ele>
        <time>2012-03-22T10:15:58Z</time>
      </trkpt>
      <trkpt lat="44.38866" lon="5.844">
        <ele>1280.13</ele>
        <time>2012-03-22T10:15:59Z</time>
      </trkpt>
      <trkpt lat="44.38865" lon="5.84401">
        <ele>1283.5</ele>
        <time>2012-03-22T10:16:00Z</time>
      </trkpt>
      <trkpt lat="44.38864" lon="5.84402">
        <ele>1278.21</ele>
        <time>2012-03-22T10:16:01Z</time>
      </trkpt>
      <trkpt lat="44.38863" lon="5.84406">
        <ele>1285.9</ele>
        <time>2012-03-22T10:16:04Z</time>
      </trkpt>
      <trkpt lat="44.38862" lon="5.84407">
        <ele>1279.17</ele>
        <time>2012-03-22T10:16:05Z</time>
      </trkpt>
      <trkpt lat="44.38861" lon="5.8441">
        <ele>1275.33</ele>
        <time>2012-03-22T10:16:08Z</time>
      </trkpt>
      <trkpt lat="44.3886" lon="5.84411">
        <ele>1281.57</ele>
        <time>2012-03-22T10:16:09Z</time>
      </trkpt>
      <trkpt lat="44.3886" lon="5.84411">
        <ele>1280.13</ele>
        <time>2012-03-22T10:16:10Z</time>
      </trkpt>
      <trkpt lat="44.3886" lon="5.84413">
        <ele>1278.69</ele>
        <time>2012-03-22T10:16:21Z</time>
      </trkpt>
      <trkpt lat="44.38861" lon="5.84413">
        <ele>1285.9</ele>
        <time>2012-03-22T10:16:22Z</time>
      </trkpt>
      <trkpt lat="44.38861" lon="5.84414">
        <ele>1283.98</ele>
        <time>2012-03-22T10:16:23Z</time>
      </trkpt>
      <trkpt lat="44.38861" lon="5.84414">
        <ele>1274.85</ele>
        <time>2012-03-22T10:16:24Z</time>
      </trkpt>
      <trkpt lat="44.38861" lon="5.84416">
        <ele>1285.42</ele>
        <time>2012-03-22T10:16:26Z</time>
      </trkpt>
      <trkpt lat="44.38859" lon="5.8442">
        <ele>1282.54</ele>
        <time>2012-03-22T10:16:29Z</time>
      </trkpt>
      <trkpt lat="44.38859" lon="5.84422">
        <ele>1278.69</ele>
        <time>2012-03-22T10:16:30Z</time>
      </trkpt>
      <trkpt lat="44.38856" lon="5.84429">
        <ele>1271.96</ele>
        <time>2012-03-22T10:16:35Z</time>
      </trkpt>
      <trkpt lat="44.38856" lon="5.84431">
        <ele>1281.09</ele>
        <time>2012-03-22T10:16:36Z</time>
      </trkpt>
      <trkpt lat="44.38856" lon="5.84432">
        <ele>1276.77</ele>
        <time>2012-03-22T10:16:37Z</time>
      </trkpt>
      <trkpt lat="44.38855" lon="5.84434">
        <ele>1281.09</ele>
        <time>2012-03-22T10:16:38Z</time>
      </trkpt>
      <trkpt lat="44.38855" lon="5.84435">
        <ele>1275.33</ele>
        <time>2012-03-22T10:16:39Z</time>
      </trkpt>
      <trkpt lat="44.38854" lon="5.84437">
        <ele>1279.65</ele>
        <time>2012-03-22T10:16:41Z</time>
      </trkpt>
      <trkpt lat="44.38854" lon="5.84438">
        <ele>1276.29</ele>
        <time>2012-03-22T10:16:42Z</time>
      </trkpt>
      <trkpt lat="44.38854" lon="5.84439">
        <ele>1277.25</ele>
        <time>2012-03-22T10:16:44Z</time>
      </trkpt>
      <trkpt lat="44.38853" lon="5.84445">
        <ele>1277.25</ele>
        <time>2012-03-22T10:16:47Z</time>
      </trkpt>
      <trkpt lat="44.38853" lon="5.84447">
        <ele>1277.73</ele>
        <time>2012-03-22T10:16:48Z</time>
      </trkpt>
      <trkpt lat="44.38852" lon="5.84452">
        <ele>1283.98</ele>
        <time>2012-03-22T10:16:53Z</time>
      </trkpt>
      <trkpt lat="44.38852" lon="5.84452">
        <ele>1279.17</ele>
        <time>2012-03-22T10:16:54Z</time>
      </trkpt>
      <trkpt lat="44.3885" lon="5.84461">
        <ele>1279.65</ele>
        <time>2012-03-22T10:17:04Z</time>
      </trkpt>
      <trkpt lat="44.38848" lon="5.84464">
        <ele>1274.85</ele>
        <time>2012-03-22T10:17:10Z</time>
      </trkpt>
      <trkpt lat="44.38848" lon="5.84465">
        <ele>1279.65</ele>
        <time>2012-03-22T10:17:12Z</time>
      </trkpt>
      <trkpt lat="44.38848" lon="5.84465">
        <ele>1284.46</ele>
        <time>2012-03-22T10:17:13Z</time>
      </trkpt>
      <trkpt lat="44.38848" lon="5.84465">
        <ele>1280.61</ele>
        <time>2012-03-22T10:17:14Z</time>
      </trkpt>
      <trkpt lat="44.38849" lon="5.84467">
        <ele>1279.17</ele>
        <time>2012-03-22T10:17:16Z</time>
      </trkpt>
      <trkpt lat="44.38849" lon="5.84467">
        <ele>1273.4</ele>
        <time>2012-03-22T10:17:18Z</time>
      </trkpt>
      <trkpt lat="44.38849" lon="5.84468">
        <ele>1281.09</ele>
        <time>2012-03-22T10:17:19Z</time>
      </trkpt>
      <trkpt lat="44.38849" lon="5.84468">
        <ele>1281.57</ele>
        <time>2012-03-22T10:17:20Z</time>
      </trkpt>
      <trkpt lat="44.38849" lon="5.84468">
        <ele>1287.82</ele>
        <time>2012-03-22T10:17:22Z</time>
      </trkpt>
      <trkpt lat="44.38848" lon="5.8447">
        <ele>1284.46</ele>
        <time>2012-03-22T10:17:23Z</time>
      </trkpt>
      <trkpt lat="44.38848" lon="5.84472">
        <ele>1277.25</ele>
        <time>2012-03-22T10:17:25Z</time>
      </trkpt>
      <trkpt lat="44.38848" lon="5.84472">
        <ele>1283.02</ele>
        <time>2012-03-22T10:17:26Z</time>
      </trkpt>
      <trkpt lat="44.38846" lon="5.84476">
        <ele>1278.69</ele>
        <time>2012-03-22T10:17:28Z</time>
      </trkpt>
      <trkpt lat="44.38846" lon="5.84478">
        <ele>1284.46</ele>
        <time>2012-03-22T10:17:29Z</time>
      </trkpt>
      <trkpt lat="44.38845" lon="5.8448">
        <ele>1279.65</ele>
        <time>2012-03-22T10:17:30Z</time>
      </trkpt>
      <trkpt lat="44.38844" lon="5.8448">
        <ele>1276.77</ele>
        <time>2012-03-22T10:17:31Z</time>
      </trkpt>
      <trkpt lat="44.38844" lon="5.84481">
        <ele>1277.25</ele>
        <time>2012-03-22T10:17:32Z</time>
      </trkpt>
      <trkpt lat="44.38844" lon="5.84481">
        <ele>1284.94</ele>
        <time>2012-03-22T10:17:34Z</time>
      </trkpt>
      <trkpt lat="44.38843" lon="5.84483">
        <ele>1282.54</ele>
        <time>2012-03-22T10:17:35Z</time>
      </trkpt>
      <trkpt lat="44.38843" lon="5.84483">
        <ele>1279.17</ele>
        <time>2012-03-22T10:17:43Z</time>
      </trkpt>
      <trkpt lat="44.38843" lon="5.84484">
        <ele>1284.46</ele>
        <time>2012-03-22T10:17:44Z</time>
      </trkpt>
      <trkpt lat="44.38842" lon="5.84485">
        <ele>1283.02</ele>
        <time>2012-03-22T10:17:45Z</time>
      </trkpt>
      <trkpt lat="44.38842" lon="5.84486">
        <ele>1282.06</ele>
        <time>2012-03-22T10:17:47Z</time>
      </trkpt>
      <trkpt lat="44.3884" lon="5.84489">
        <ele>1286.86</ele>
        <time>2012-03-22T10:17:51Z</time>
      </trkpt>
      <trkpt lat="44.3884" lon="5.8449">
        <ele>1281.57</ele>
        <time>2012-03-22T10:17:52Z</time>
      </trkpt>
      <trkpt lat="44.38839" lon="5.84492">
        <ele>1284.94</ele>
        <time>2012-03-22T10:17:55Z</time>
      </trkpt>
      <trkpt lat="44.38839" lon="5.84493">
        <ele>1292.63</ele>
        <time>2012-03-22T10:17:56Z</time>
      </trkpt>
      <trkpt lat="44.38839" lon="5.84493">
        <ele>1282.06</ele>
        <time>2012-03-22T10:17:57Z</time>
      </trkpt>
      <trkpt lat="44.38839" lon="5.84493">
        <ele>1282.06</ele>
        <time>2012-03-22T10:17:58Z</time>
      </trkpt>
      <trkpt lat="44.38839" lon="5.84494">
        <ele>1286.38</ele>
        <time>2012-03-22T10:18:01Z</time>
      </trkpt>
      <trkpt lat="44.38838" lon="5.84495">
        <ele>1285.42</ele>
        <time>2012-03-22T10:18:02Z</time>
      </trkpt>
      <trkpt lat="44.38838" lon="5.84496">
        <ele>1281.09</ele>
        <time>2012-03-22T10:18:03Z</time>
      </trkpt>
      <trkpt lat="44.38838" lon="5.84497">
        <ele>1283.02</ele>
        <time>2012-03-22T10:18:04Z</time>
      </trkpt>
      <trkpt lat="44.38837" lon="5.84498">
        <ele>1290.23</ele>
        <time>2012-03-22T10:18:05Z</time>
      </trkpt>
      <trkpt lat="44.38837" lon="5.84499">
        <ele>1288.78</ele>
        <time>2012-03-22T10:18:06Z</time>
      </trkpt>
      <trkpt lat="44.38836" lon="5.84501">
        <ele>1291.67</ele>
        <time>2012-03-22T10:18:07Z</time>
      </trkpt>
      <trkpt lat="44.38836" lon="5.84503">
        <ele>1286.86</ele>
        <time>2012-03-22T10:18:08Z</time>
      </trkpt>
      <trkpt lat="44.38835" lon="5.84506">
        <ele>1285.9</ele>
        <time>2012-03-22T10:18:10Z</time>
      </trkpt>
      <trkpt lat="44.38834" lon="5.84507">
        <ele>1287.82</ele>
        <time>2012-03-22T10:18:12Z</time>
      </trkpt>
      <trkpt lat="44.38834" lon="5.84507">
        <ele>1282.54</ele>
        <time>2012-03-22T10:18:13Z</time>
      </trkpt>
      <trkpt lat="44.38834" lon="5.84508">
        <ele>1289.27</ele>
        <time>2012-03-22T10:18:14Z</time>
      </trkpt>
      <trkpt lat="44.38833" lon="5.8451">
        <ele>1283.5</ele>
        <time>2012-03-22T10:18:15Z</time>
      </trkpt>
      <trkpt lat="44.38833" lon="5.84511">
        <ele>1286.86</ele>
        <time>2012-03-22T10:18:16Z</time>
      </trkpt>
      <trkpt lat="44.38832" lon="5.84513">
        <ele>1282.54</ele>
        <time>2012-03-22T10:18:18Z</time>
      </trkpt>
      <trkpt lat="44.38832" lon="5.84514">
        <ele>1285.42</ele>
        <time>2012-03-22T10:18:19Z</time>
      </trkpt>
      <trkpt lat="44.38832" lon="5.84515">
        <ele>1290.23</ele>
        <time>2012-03-22T10:18:20Z</time>
      </trkpt>
      <trkpt lat="44.38832" lon="5.84515">
        <ele>1283.02</ele>
        <time>2012-03-22T10:18:21Z</time>
      </trkpt>
      <trkpt lat="44.38832" lon="5.84516">
        <ele>1290.23</ele>
        <time>2012-03-22T10:18:22Z</time>
      </trkpt>
      <trkpt lat="44.38832" lon="5.84517">
        <ele>1294.07</ele>
        <time>2012-03-22T10:18:25Z</time>
      </trkpt>
      <trkpt lat="44.38832" lon="5.84519">
        <ele>1283.98</ele>
        <time>2012-03-22T10:18:26Z</time>
      </trkpt>
      <trkpt lat="44.38832" lon="5.8452">
        <ele>1290.71</ele>
        <time>2012-03-22T10:18:27Z</time>
      </trkpt>
      <trkpt lat="44.38833" lon="5.84521">
        <ele>1296.48</ele>
        <time>2012-03-22T10:18:28Z</time>
      </trkpt>
      <trkpt lat="44.38833" lon="5.84521">
        <ele>1287.82</ele>
        <time>2012-03-22T10:18:29Z</time>
      </trkpt>
      <trkpt lat="44.38833" lon="5.84523">
        <ele>1295.51</ele>
        <time>2012-03-22T10:18:31Z</time>
      </trkpt>
      <trkpt lat="44.38832" lon="5.84524">
        <ele>1294.07</ele>
        <time>2012-03-22T10:18:32Z</time>
      </trkpt>
      <trkpt lat="44.38832" lon="5.84526">
        <ele>1286.38</ele>
        <time>2012-03-22T10:18:34Z</time>
      </trkpt>
      <trkpt lat="44.38831" lon="5.84527">
        <ele>1289.27</ele>
        <time>2012-03-22T10:18:36Z</time>
      </trkpt>
      <trkpt lat="44.38828" lon="5.84534">
        <ele>1296.48</ele>
        <time>2012-03-22T10:18:45Z</time>
      </trkpt>
      <trkpt lat="44.38828" lon="5.84535">
        <ele>1285.9</ele>
        <time>2012-03-22T10:18:46Z</time>
      </trkpt>
      <trkpt lat="44.38828" lon="5.84536">
        <ele>1290.23</ele>
        <time>2012-03-22T10:18:47Z</time>
      </trkpt>
      <trkpt lat="44.38828" lon="5.84538">
        <ele>1294.07</ele>
        <time>2012-03-22T10:18:48Z</time>
      </trkpt>
      <trkpt lat="44.38828" lon="5.84538">
        <ele>1289.75</ele>
        <time>2012-03-22T10:18:49Z</time>
      </trkpt>
      <trkpt lat="44.38828" lon="5.84539">
        <ele>1295.51</ele>
        <time>2012-03-22T10:18:51Z</time>
      </trkpt>
      <trkpt lat="44.38827" lon="5.84541">
        <ele>1287.82</ele>
        <time>2012-03-22T10:18:52Z</time>
      </trkpt>
      <trkpt lat="44.38827" lon="5.84543">
        <ele>1293.11</ele>
        <time>2012-03-22T10:18:53Z</time>
      </trkpt>
      <trkpt lat="44.38827" lon="5.84546">
        <ele>1288.3</ele>
        <time>2012-03-22T10:18:57Z</time>
      </trkpt>
      <trkpt lat="44.38827" lon="5.84547">
        <ele>1287.82</ele>
        <time>2012-03-22T10:18:58Z</time>
      </trkpt>
      <trkpt lat="44.38826" lon="5.84549">
        <ele>1295.99</ele>
        <time>2012-03-22T10:18:59Z</time>
      </trkpt>
      <trkpt lat="44.38826" lon="5.8455">
        <ele>1292.15</ele>
        <time>2012-03-22T10:19:00Z</time>
      </trkpt>
      <trkpt lat="44.38825" lon="5.84553">
        <ele>1291.19</ele>
        <time>2012-03-22T10:19:02Z</time>
      </trkpt>
      <trkpt lat="44.38824" lon="5.84556">
        <ele>1295.51</ele>
        <time>2012-03-22T10:19:05Z</time>
      </trkpt>
      <trkpt lat="44.38824" lon="5.84557">
        <ele>1283.5</ele>
        <time>2012-03-22T10:19:06Z</time>
      </trkpt>
      <trkpt lat="44.38824" lon="5.84557">
        <ele>1292.15</ele>
        <time>2012-03-22T10:19:07Z</time>
      </trkpt>
      <trkpt lat="44.38823" lon="5.84561">
        <ele>1288.78</ele>
        <time>2012-03-22T10:19:11Z</time>
      </trkpt>
      <trkpt lat="44.38823" lon="5.84562">
        <ele>1294.07</ele>
        <time>2012-03-22T10:19:12Z</time>
      </trkpt>
      <trkpt lat="44.38822" lon="5.84563">
        <ele>1291.19</ele>
        <time>2012-03-22T10:19:13Z</time>
      </trkpt>
      <trkpt lat="44.38821" lon="5.84569">
        <ele>1294.55</ele>
        <time>2012-03-22T10:19:17Z</time>
      </trkpt>
      <trkpt lat="44.38821" lon="5.8457">
        <ele>1294.07</ele>
        <time>2012-03-22T10:19:18Z</time>
      </trkpt>
      <trkpt lat="44.38821" lon="5.84573">
        <ele>1290.71</ele>
        <time>2012-03-22T10:19:20Z</time>
      </trkpt>
      <trkpt lat="44.38821" lon="5.84574">
        <ele>1292.63</ele>
        <time>2012-03-22T10:19:21Z</time>
      </trkpt>
      <trkpt lat="44.3882" lon="5.84575">
        <ele>1296.96</ele>
        <time>2012-03-22T10:19:22Z</time>
      </trkpt>
      <trkpt lat="44.3882" lon="5.84576">
        <ele>1296.48</ele>
        <time>2012-03-22T10:19:23Z</time>
      </trkpt>
      <trkpt lat="44.38819" lon="5.84577">
        <ele>1292.63</ele>
        <time>2012-03-22T10:19:24Z</time>
      </trkpt>
      <trkpt lat="44.38819" lon="5.84578">
        <ele>1293.11</ele>
        <time>2012-03-22T10:19:25Z</time>
      </trkpt>
      <trkpt lat="44.38819" lon="5.8458">
        <ele>1297.92</ele>
        <time>2012-03-22T10:19:28Z</time>
      </trkpt>
      <trkpt lat="44.38818" lon="5.84581">
        <ele>1294.07</ele>
        <time>2012-03-22T10:19:29Z</time>
      </trkpt>
      <trkpt lat="44.38818" lon="5.84582">
        <ele>1293.59</ele>
        <time>2012-03-22T10:19:30Z</time>
      </trkpt>
      <trkpt lat="44.38816" lon="5.84586">
        <ele>1297.44</ele>
        <time>2012-03-22T10:19:36Z</time>
      </trkpt>
      <trkpt lat="44.38815" lon="5.84589">
        <ele>1294.07</ele>
        <time>2012-03-22T10:19:38Z</time>
      </trkpt>
      <trkpt lat="44.38815" lon="5.8459">
        <ele>1302.24</ele>
        <time>2012-03-22T10:19:39Z</time>
      </trkpt>
      <trkpt lat="44.38815" lon="5.84591">
        <ele>1290.71</ele>
        <time>2012-03-22T10:19:40Z</time>
      </trkpt>
      <trkpt lat="44.38814" lon="5.84592">
        <ele>1299.84</ele>
        <time>2012-03-22T10:19:41Z</time>
      </trkpt>
      <trkpt lat="44.38813" lon="5.84592">
        <ele>1303.69</ele>
        <time>2012-03-22T10:19:42Z</time>
      </trkpt>
      <trkpt lat="44.38813" lon="5.84593">
        <ele>1293.11</ele>
        <time>2012-03-22T10:19:43Z</time>
      </trkpt>
      <trkpt lat="44.38813" lon="5.84594">
        <ele>1299.36</ele>
        <time>2012-03-22T10:19:44Z</time>
      </trkpt>
      <trkpt lat="44.38813" lon="5.84595">
        <ele>1295.99</ele>
        <time>2012-03-22T10:19:45Z</time>
      </trkpt>
      <trkpt lat="44.38811" lon="5.84599">
        <ele>1301.28</ele>
        <time>2012-03-22T10:19:49Z</time>
      </trkpt>
      <trkpt lat="44.3881" lon="5.846">
        <ele>1301.28</ele>
        <time>2012-03-22T10:19:50Z</time>
      </trkpt>
      <trkpt lat="44.3881" lon="5.84603">
        <ele>1294.55</ele>
        <time>2012-03-22T10:19:52Z</time>
      </trkpt>
      <trkpt lat="44.3881" lon="5.84604">
        <ele>1297.92</ele>
        <time>2012-03-22T10:19:53Z</time>
      </trkpt>
      <trkpt lat="44.3881" lon="5.84606">
        <ele>1298.4</ele>
        <time>2012-03-22T10:19:57Z</time>
      </trkpt>
      <trkpt lat="44.38809" lon="5.84609">
        <ele>1302.24</ele>
        <time>2012-03-22T10:20:00Z</time>
      </trkpt>
      <trkpt lat="44.38809" lon="5.8461">
        <ele>1295.99</ele>
        <time>2012-03-22T10:20:01Z</time>
      </trkpt>
      <trkpt lat="44.38809" lon="5.84611">
        <ele>1300.32</ele>
        <time>2012-03-22T10:20:02Z</time>
      </trkpt>
      <trkpt lat="44.38809" lon="5.84611">
        <ele>1297.44</ele>
        <time>2012-03-22T10:20:04Z</time>
      </trkpt>
      <trkpt lat="44.38809" lon="5.84612">
        <ele>1300.32</ele>
        <time>2012-03-22T10:20:05Z</time>
      </trkpt>
      <trkpt lat="44.38808" lon="5.84615">
        <ele>1303.69</ele>
        <time>2012-03-22T10:20:09Z</time>
      </trkpt>
      <trkpt lat="44.38808" lon="5.84616">
        <ele>1296.96</ele>
        <time>2012-03-22T10:20:10Z</time>
      </trkpt>
      <trkpt lat="44.38807" lon="5.84619">
        <ele>1300.32</ele>
        <time>2012-03-22T10:20:15Z</time>
      </trkpt>
      <trkpt lat="44.38804" lon="5.84626">
        <ele>1304.65</ele>
        <time>2012-03-22T10:20:21Z</time>
      </trkpt>
      <trkpt lat="44.38804" lon="5.84626">
        <ele>1299.84</ele>
        <time>2012-03-22T10:20:22Z</time>
      </trkpt>
      <trkpt lat="44.38804" lon="5.84627">
        <ele>1305.13</ele>
        <time>2012-03-22T10:20:23Z</time>
      </trkpt>
      <trkpt lat="44.38804" lon="5.84628">
        <ele>1299.36</ele>
        <time>2012-03-22T10:20:24Z</time>
      </trkpt>
      <trkpt lat="44.38802" lon="5.84633">
        <ele>1304.65</ele>
        <time>2012-03-22T10:20:32Z</time>
      </trkpt>
      <trkpt lat="44.38801" lon="5.84634">
        <ele>1297.92</ele>
        <time>2012-03-22T10:20:33Z</time>
      </trkpt>
      <trkpt lat="44.388" lon="5.84635">
        <ele>1305.13</ele>
        <time>2012-03-22T10:20:35Z</time>
      </trkpt>
      <trkpt lat="44.388" lon="5.84636">
        <ele>1302.72</ele>
        <time>2012-03-22T10:20:36Z</time>
      </trkpt>
      <trkpt lat="44.388" lon="5.84637">
        <ele>1298.4</ele>
        <time>2012-03-22T10:20:37Z</time>
      </trkpt>
      <trkpt lat="44.38799" lon="5.84638">
        <ele>1298.4</ele>
        <time>2012-03-22T10:20:38Z</time>
      </trkpt>
      <trkpt lat="44.38799" lon="5.84638">
        <ele>1302.72</ele>
        <time>2012-03-22T10:20:40Z</time>
      </trkpt>
      <trkpt lat="44.38799" lon="5.84639">
        <ele>1302.72</ele>
        <time>2012-03-22T10:20:41Z</time>
      </trkpt>
      <trkpt lat="44.38798" lon="5.84643">
        <ele>1301.28</ele>
        <time>2012-03-22T10:20:44Z</time>
      </trkpt>
      <trkpt lat="44.38797" lon="5.84644">
        <ele>1308.49</ele>
        <time>2012-03-22T10:20:45Z</time>
      </trkpt>
      <trkpt lat="44.38797" lon="5.84645">
        <ele>1300.32</ele>
        <time>2012-03-22T10:20:46Z</time>
      </trkpt>
      <trkpt lat="44.38797" lon="5.84646">
        <ele>1305.61</ele>
        <time>2012-03-22T10:20:47Z</time>
      </trkpt>
      <trkpt lat="44.38797" lon="5.84647">
        <ele>1300.8</ele>
        <time>2012-03-22T10:20:48Z</time>
      </trkpt>
      <trkpt lat="44.38796" lon="5.84652">
        <ele>1305.61</ele>
        <time>2012-03-22T10:20:55Z</time>
      </trkpt>
      <trkpt lat="44.38795" lon="5.84654">
        <ele>1301.28</ele>
        <time>2012-03-22T10:21:06Z</time>
      </trkpt>
      <trkpt lat="44.38794" lon="5.84655">
        <ele>1307.53</ele>
        <time>2012-03-22T10:21:09Z</time>
      </trkpt>
      <trkpt lat="44.38794" lon="5.84655">
        <ele>1300.8</ele>
        <time>2012-03-22T10:21:10Z</time>
      </trkpt>
      <trkpt lat="44.38793" lon="5.84656">
        <ele>1304.65</ele>
        <time>2012-03-22T10:21:11Z</time>
      </trkpt>
      <trkpt lat="44.3879" lon="5.8466">
        <ele>1301.28</ele>
        <time>2012-03-22T10:21:18Z</time>
      </trkpt>
      <trkpt lat="44.3879" lon="5.84662">
        <ele>1303.2</ele>
        <time>2012-03-22T10:21:21Z</time>
      </trkpt>
      <trkpt lat="44.38788" lon="5.84665">
        <ele>1303.2</ele>
        <time>2012-03-22T10:21:37Z</time>
      </trkpt>
      <trkpt lat="44.38788" lon="5.84662">
        <ele>1303.2</ele>
        <time>2012-03-22T10:21:50Z</time>
      </trkpt>
      <trkpt lat="44.38793" lon="5.84656">
        <ele>1308.01</ele>
        <time>2012-03-22T10:21:57Z</time>
      </trkpt>
      <trkpt lat="44.38793" lon="5.84655">
        <ele>1304.17</ele>
        <time>2012-03-22T10:21:58Z</time>
      </trkpt>
      <trkpt lat="44.38794" lon="5.84653">
        <ele>1303.69</ele>
        <time>2012-03-22T10:22:10Z</time>
      </trkpt>
      <trkpt lat="44.38794" lon="5.84653">
        <ele>1307.53</ele>
        <time>2012-03-22T10:22:19Z</time>
      </trkpt>
      <trkpt lat="44.38794" lon="5.84653">
        <ele>1306.09</ele>
        <time>2012-03-22T10:22:20Z</time>
      </trkpt>
      <trkpt lat="44.38794" lon="5.84653">
        <ele>1302.72</ele>
        <time>2012-03-22T10:22:26Z</time>
      </trkpt>
      <trkpt lat="44.38794" lon="5.84653">
        <ele>1306.09</ele>
        <time>2012-03-22T10:22:32Z</time>
      </trkpt>
      <trkpt lat="44.38794" lon="5.84653">
        <ele>1305.13</ele>
        <time>2012-03-22T10:22:57Z</time>
      </trkpt>
      <trkpt lat="44.38794" lon="5.84653">
        <ele>1304.17</ele>
        <time>2012-03-22T10:23:37Z</time>
      </trkpt>
      <trkpt lat="44.38794" lon="5.84653">
        <ele>1305.13</ele>
        <time>2012-03-22T10:23:39Z</time>
      </trkpt>
      <trkpt lat="44.38794" lon="5.84654">
        <ele>1306.57</ele>
        <time>2012-03-22T10:23:58Z</time>
      </trkpt>
      <trkpt lat="44.38795" lon="5.84653">
        <ele>1307.05</ele>
        <time>2012-03-22T10:24:09Z</time>
      </trkpt>
      <trkpt lat="44.38796" lon="5.84652">
        <ele>1307.05</ele>
        <time>2012-03-22T10:24:16Z</time>
      </trkpt>
      <trkpt lat="44.38799" lon="5.84651">
        <ele>1313.78</ele>
        <time>2012-03-22T10:24:28Z</time>
      </trkpt>
      <trkpt lat="44.38799" lon="5.84651">
        <ele>1308.49</ele>
        <time>2012-03-22T10:24:29Z</time>
      </trkpt>
      <trkpt lat="44.38801" lon="5.8465">
        <ele>1311.86</ele>
        <time>2012-03-22T10:24:31Z</time>
      </trkpt>
      <trkpt lat="44.38801" lon="5.8465">
        <ele>1307.53</ele>
        <time>2012-03-22T10:24:32Z</time>
      </trkpt>
      <trkpt lat="44.38804" lon="5.84649">
        <ele>1303.69</ele>
        <time>2012-03-22T10:24:35Z</time>
      </trkpt>
      <trkpt lat="44.38804" lon="5.84648">
        <ele>1307.53</ele>
        <time>2012-03-22T10:24:36Z</time>
      </trkpt>
      <trkpt lat="44.38807" lon="5.84644">
        <ele>1310.9</ele>
        <time>2012-03-22T10:24:40Z</time>
      </trkpt>
      <trkpt lat="44.3881" lon="5.84639">
        <ele>1309.45</ele>
        <time>2012-03-22T10:24:45Z</time>
      </trkpt>
      <trkpt lat="44.38812" lon="5.84633">
        <ele>1311.86</ele>
        <time>2012-03-22T10:24:51Z</time>
      </trkpt>
      <trkpt lat="44.38816" lon="5.84629">
        <ele>1316.66</ele>
        <time>2012-03-22T10:24:57Z</time>
      </trkpt>
      <trkpt lat="44.38816" lon="5.84628">
        <ele>1310.9</ele>
        <time>2012-03-22T10:24:58Z</time>
      </trkpt>
      <trkpt lat="44.3882" lon="5.84624">
        <ele>1311.38</ele>
        <time>2012-03-22T10:25:05Z</time>
      </trkpt>
      <trkpt lat="44.38822" lon="5.84624">
        <ele>1316.66</ele>
        <time>2012-03-22T10:25:08Z</time>
      </trkpt>
      <trkpt lat="44.38823" lon="5.84623">
        <ele>1311.86</ele>
        <time>2012-03-22T10:25:09Z</time>
      </trkpt>
      <trkpt lat="44.38829" lon="5.84624">
        <ele>1315.22</ele>
        <time>2012-03-22T10:25:18Z</time>
      </trkpt>
      <trkpt lat="44.38831" lon="5.84623">
        <ele>1310.9</ele>
        <time>2012-03-22T10:25:20Z</time>
      </trkpt>
      <trkpt lat="44.38831" lon="5.84623">
        <ele>1310.9</ele>
        <time>2012-03-22T10:25:21Z</time>
      </trkpt>
      <trkpt lat="44.38832" lon="5.84623">
        <ele>1313.78</ele>
        <time>2012-03-22T10:25:23Z</time>
      </trkpt>
      <trkpt lat="44.38833" lon="5.84623">
        <ele>1310.41</ele>
        <time>2012-03-22T10:25:24Z</time>
      </trkpt>
      <trkpt lat="44.38834" lon="5.84623">
        <ele>1313.3</ele>
        <time>2012-03-22T10:25:25Z</time>
      </trkpt>
      <trkpt lat="44.38835" lon="5.84623">
        <ele>1315.7</ele>
        <time>2012-03-22T10:25:27Z</time>
      </trkpt>
      <trkpt lat="44.38836" lon="5.84623">
        <ele>1313.78</ele>
        <time>2012-03-22T10:25:30Z</time>
      </trkpt>
      <trkpt lat="44.38837" lon="5.84623">
        <ele>1312.34</ele>
        <time>2012-03-22T10:25:39Z</time>
      </trkpt>
      <trkpt lat="44.38839" lon="5.84621">
        <ele>1318.1</ele>
        <time>2012-03-22T10:25:41Z</time>
      </trkpt>
      <trkpt lat="44.3884" lon="5.84621">
        <ele>1312.82</ele>
        <time>2012-03-22T10:25:42Z</time>
      </trkpt>
      <trkpt lat="44.38842" lon="5.8462">
        <ele>1317.14</ele>
        <time>2012-03-22T10:25:44Z</time>
      </trkpt>
      <trkpt lat="44.38842" lon="5.8462">
        <ele>1316.18</ele>
        <time>2012-03-22T10:25:45Z</time>
      </trkpt>
      <trkpt lat="44.38844" lon="5.84618">
        <ele>1311.86</ele>
        <time>2012-03-22T10:25:47Z</time>
      </trkpt>
      <trkpt lat="44.38844" lon="5.84617">
        <ele>1317.62</ele>
        <time>2012-03-22T10:25:48Z</time>
      </trkpt>
      <trkpt lat="44.38845" lon="5.84614">
        <ele>1312.34</ele>
        <time>2012-03-22T10:25:50Z</time>
      </trkpt>
      <trkpt lat="44.38845" lon="5.84613">
        <ele>1313.78</ele>
        <time>2012-03-22T10:25:51Z</time>
      </trkpt>
      <trkpt lat="44.38847" lon="5.84612">
        <ele>1318.1</ele>
        <time>2012-03-22T10:25:54Z</time>
      </trkpt>
      <trkpt lat="44.38847" lon="5.84611">
        <ele>1312.34</ele>
        <time>2012-03-22T10:25:55Z</time>
      </trkpt>
      <trkpt lat="44.38848" lon="5.8461">
        <ele>1319.55</ele>
        <time>2012-03-22T10:25:56Z</time>
      </trkpt>
      <trkpt lat="44.38848" lon="5.8461">
        <ele>1316.18</ele>
        <time>2012-03-22T10:25:58Z</time>
      </trkpt>
      <trkpt lat="44.38848" lon="5.8461">
        <ele>1316.18</ele>
        <time>2012-03-22T10:25:59Z</time>
      </trkpt>
      <trkpt lat="44.38848" lon="5.84608">
        <ele>1322.43</ele>
        <time>2012-03-22T10:26:02Z</time>
      </trkpt>
      <trkpt lat="44.38849" lon="5.84607">
        <ele>1315.22</ele>
        <time>2012-03-22T10:26:03Z</time>
      </trkpt>
      <trkpt lat="44.38849" lon="5.84606">
        <ele>1319.07</ele>
        <time>2012-03-22T10:26:04Z</time>
      </trkpt>
      <trkpt lat="44.38851" lon="5.84605">
        <ele>1314.74</ele>
        <time>2012-03-22T10:26:06Z</time>
      </trkpt>
      <trkpt lat="44.38851" lon="5.84604">
        <ele>1316.66</ele>
        <time>2012-03-22T10:26:07Z</time>
      </trkpt>
      <trkpt lat="44.38852" lon="5.84603">
        <ele>1321.47</ele>
        <time>2012-03-22T10:26:10Z</time>
      </trkpt>
      <trkpt lat="44.38852" lon="5.84603">
        <ele>1320.99</ele>
        <time>2012-03-22T10:26:11Z</time>
      </trkpt>
      <trkpt lat="44.38853" lon="5.84602">
        <ele>1316.18</ele>
        <time>2012-03-22T10:26:12Z</time>
      </trkpt>
      <trkpt lat="44.38854" lon="5.84602">
        <ele>1316.18</ele>
        <time>2012-03-22T10:26:13Z</time>
      </trkpt>
      <trkpt lat="44.38854" lon="5.84601">
        <ele>1322.43</ele>
        <time>2012-03-22T10:26:14Z</time>
      </trkpt>
      <trkpt lat="44.38855" lon="5.846">
        <ele>1317.62</ele>
        <time>2012-03-22T10:26:15Z</time>
      </trkpt>
      <trkpt lat="44.38859" lon="5.84598">
        <ele>1321.47</ele>
        <time>2012-03-22T10:26:19Z</time>
      </trkpt>
      <trkpt lat="44.3886" lon="5.84599">
        <ele>1316.18</ele>
        <time>2012-03-22T10:26:21Z</time>
      </trkpt>
      <trkpt lat="44.38861" lon="5.84599">
        <ele>1319.55</ele>
        <time>2012-03-22T10:26:22Z</time>
      </trkpt>
      <trkpt lat="44.38861" lon="5.84597">
        <ele>1323.87</ele>
        <time>2012-03-22T10:26:24Z</time>
      </trkpt>
      <trkpt lat="44.38863" lon="5.84596">
        <ele>1316.66</ele>
        <time>2012-03-22T10:26:26Z</time>
      </trkpt>
      <trkpt lat="44.38863" lon="5.84596">
        <ele>1319.55</ele>
        <time>2012-03-22T10:26:27Z</time>
      </trkpt>
      <trkpt lat="44.38864" lon="5.84595">
        <ele>1317.62</ele>
        <time>2012-03-22T10:26:30Z</time>
      </trkpt>
      <trkpt lat="44.38865" lon="5.84593">
        <ele>1322.43</ele>
        <time>2012-03-22T10:26:31Z</time>
      </trkpt>
      <trkpt lat="44.38865" lon="5.84591">
        <ele>1324.35</ele>
        <time>2012-03-22T10:26:33Z</time>
      </trkpt>
      <trkpt lat="44.38865" lon="5.84591">
        <ele>1319.55</ele>
        <time>2012-03-22T10:26:34Z</time>
      </trkpt>
      <trkpt lat="44.38866" lon="5.84589">
        <ele>1326.28</ele>
        <time>2012-03-22T10:26:36Z</time>
      </trkpt>
      <trkpt lat="44.38866" lon="5.84588">
        <ele>1322.43</ele>
        <time>2012-03-22T10:26:37Z</time>
      </trkpt>
      <trkpt lat="44.38866" lon="5.84587">
        <ele>1319.07</ele>
        <time>2012-03-22T10:26:38Z</time>
      </trkpt>
      <trkpt lat="44.38867" lon="5.84585">
        <ele>1316.18</ele>
        <time>2012-03-22T10:26:39Z</time>
      </trkpt>
      <trkpt lat="44.38867" lon="5.84585">
        <ele>1320.03</ele>
        <time>2012-03-22T10:26:40Z</time>
      </trkpt>
      <trkpt lat="44.38868" lon="5.84583">
        <ele>1317.14</ele>
        <time>2012-03-22T10:26:42Z</time>
      </trkpt>
      <trkpt lat="44.38868" lon="5.84582">
        <ele>1320.03</ele>
        <time>2012-03-22T10:26:43Z</time>
      </trkpt>
      <trkpt lat="44.38871" lon="5.84575">
        <ele>1326.28</ele>
        <time>2012-03-22T10:26:50Z</time>
      </trkpt>
      <trkpt lat="44.38871" lon="5.84574">
        <ele>1316.66</ele>
        <time>2012-03-22T10:26:51Z</time>
      </trkpt>
      <trkpt lat="44.38871" lon="5.84573">
        <ele>1319.07</ele>
        <time>2012-03-22T10:26:52Z</time>
      </trkpt>
      <trkpt lat="44.38872" lon="5.8457">
        <ele>1323.39</ele>
        <time>2012-03-22T10:26:55Z</time>
      </trkpt>
      <trkpt lat="44.38873" lon="5.8457">
        <ele>1321.95</ele>
        <time>2012-03-22T10:26:56Z</time>
      </trkpt>
      <trkpt lat="44.38875" lon="5.84568">
        <ele>1324.83</ele>
        <time>2012-03-22T10:27:00Z</time>
      </trkpt>
      <trkpt lat="44.38875" lon="5.84567">
        <ele>1319.55</ele>
        <time>2012-03-22T10:27:01Z</time>
      </trkpt>
      <trkpt lat="44.38875" lon="5.84565">
        <ele>1324.83</ele>
        <time>2012-03-22T10:27:02Z</time>
      </trkpt>
      <trkpt lat="44.38876" lon="5.84564">
        <ele>1321.47</ele>
        <time>2012-03-22T10:27:05Z</time>
      </trkpt>
      <trkpt lat="44.38878" lon="5.84563">
        <ele>1326.76</ele>
        <time>2012-03-22T10:27:08Z</time>
      </trkpt>
      <trkpt lat="44.38878" lon="5.84563">
        <ele>1321.95</ele>
        <time>2012-03-22T10:27:09Z</time>
      </trkpt>
      <trkpt lat="44.38879" lon="5.84562">
        <ele>1324.83</ele>
        <time>2012-03-22T10:27:10Z</time>
      </trkpt>
      <trkpt lat="44.38881" lon="5.84562">
        <ele>1322.91</ele>
        <time>2012-03-22T10:27:13Z</time>
      </trkpt>
      <trkpt lat="44.38882" lon="5.84562">
        <ele>1328.2</ele>
        <time>2012-03-22T10:27:14Z</time>
      </trkpt>
      <trkpt lat="44.38883" lon="5.84561">
        <ele>1327.72</ele>
        <time>2012-03-22T10:27:15Z</time>
      </trkpt>
      <trkpt lat="44.38883" lon="5.84561">
        <ele>1322.43</ele>
        <time>2012-03-22T10:27:16Z</time>
      </trkpt>
      <trkpt lat="44.38884" lon="5.8456">
        <ele>1326.76</ele>
        <time>2012-03-22T10:27:17Z</time>
      </trkpt>
      <trkpt lat="44.38885" lon="5.8456">
        <ele>1323.39</ele>
        <time>2012-03-22T10:27:18Z</time>
      </trkpt>
      <trkpt lat="44.38886" lon="5.84559">
        <ele>1319.55</ele>
        <time>2012-03-22T10:27:19Z</time>
      </trkpt>
      <trkpt lat="44.38887" lon="5.84559">
        <ele>1329.64</ele>
        <time>2012-03-22T10:27:20Z</time>
      </trkpt>
      <trkpt lat="44.38887" lon="5.84559">
        <ele>1324.83</ele>
        <time>2012-03-22T10:27:21Z</time>
      </trkpt>
      <trkpt lat="44.38889" lon="5.84558">
        <ele>1332.52</ele>
        <time>2012-03-22T10:27:23Z</time>
      </trkpt>
      <trkpt lat="44.38889" lon="5.84558">
        <ele>1329.16</ele>
        <time>2012-03-22T10:27:24Z</time>
      </trkpt>
      <trkpt lat="44.38889" lon="5.84558">
        <ele>1326.28</ele>
        <time>2012-03-22T10:27:27Z</time>
      </trkpt>
      <trkpt lat="44.38891" lon="5.84555">
        <ele>1327.72</ele>
        <time>2012-03-22T10:27:30Z</time>
      </trkpt>
      <trkpt lat="44.38892" lon="5.84553">
        <ele>1323.87</ele>
        <time>2012-03-22T10:27:32Z</time>
      </trkpt>
      <trkpt lat="44.38892" lon="5.84552">
        <ele>1334.93</ele>
        <time>2012-03-22T10:27:33Z</time>
      </trkpt>
      <trkpt lat="44.38892" lon="5.84551">
        <ele>1326.76</ele>
        <time>2012-03-22T10:27:34Z</time>
      </trkpt>
      <trkpt lat="44.38892" lon="5.84549">
        <ele>1330.12</ele>
        <time>2012-03-22T10:27:36Z</time>
      </trkpt>
      <trkpt lat="44.38893" lon="5.84549">
        <ele>1330.12</ele>
        <time>2012-03-22T10:27:37Z</time>
      </trkpt>
      <trkpt lat="44.38893" lon="5.84548">
        <ele>1326.76</ele>
        <time>2012-03-22T10:27:38Z</time>
      </trkpt>
      <trkpt lat="44.38895" lon="5.84541">
        <ele>1325.31</ele>
        <time>2012-03-22T10:27:47Z</time>
      </trkpt>
      <trkpt lat="44.38895" lon="5.8454">
        <ele>1328.68</ele>
        <time>2012-03-22T10:27:48Z</time>
      </trkpt>
      <trkpt lat="44.38895" lon="5.84539">
        <ele>1327.24</ele>
        <time>2012-03-22T10:27:49Z</time>
      </trkpt>
      <trkpt lat="44.38895" lon="5.84537">
        <ele>1330.6</ele>
        <time>2012-03-22T10:27:52Z</time>
      </trkpt>
      <trkpt lat="44.38895" lon="5.84536">
        <ele>1327.72</ele>
        <time>2012-03-22T10:27:53Z</time>
      </trkpt>
      <trkpt lat="44.38897" lon="5.84531">
        <ele>1331.08</ele>
        <time>2012-03-22T10:27:57Z</time>
      </trkpt>
      <trkpt lat="44.38897" lon="5.8453">
        <ele>1327.72</ele>
        <time>2012-03-22T10:27:59Z</time>
      </trkpt>
      <trkpt lat="44.38898" lon="5.84529">
        <ele>1331.08</ele>
        <time>2012-03-22T10:28:00Z</time>
      </trkpt>
      <trkpt lat="44.38898" lon="5.84527">
        <ele>1331.08</ele>
        <time>2012-03-22T10:28:01Z</time>
      </trkpt>
      <trkpt lat="44.38899" lon="5.84525">
        <ele>1329.16</ele>
        <time>2012-03-22T10:28:03Z</time>
      </trkpt>
      <trkpt lat="44.389" lon="5.84523">
        <ele>1335.89</ele>
        <time>2012-03-22T10:28:05Z</time>
      </trkpt>
      <trkpt lat="44.38901" lon="5.84523">
        <ele>1333.01</ele>
        <time>2012-03-22T10:28:06Z</time>
      </trkpt>
      <trkpt lat="44.38903" lon="5.84522">
        <ele>1328.68</ele>
        <time>2012-03-22T10:28:08Z</time>
      </trkpt>
      <trkpt lat="44.38905" lon="5.8452">
        <ele>1335.41</ele>
        <time>2012-03-22T10:28:11Z</time>
      </trkpt>
      <trkpt lat="44.38906" lon="5.8452">
        <ele>1327.24</ele>
        <time>2012-03-22T10:28:12Z</time>
      </trkpt>
      <trkpt lat="44.38906" lon="5.8452">
        <ele>1332.52</ele>
        <time>2012-03-22T10:28:13Z</time>
      </trkpt>
      <trkpt lat="44.38907" lon="5.84519">
        <ele>1328.68</ele>
        <time>2012-03-22T10:28:14Z</time>
      </trkpt>
      <trkpt lat="44.38908" lon="5.84519">
        <ele>1332.04</ele>
        <time>2012-03-22T10:28:15Z</time>
      </trkpt>
      <trkpt lat="44.38911" lon="5.84517">
        <ele>1328.2</ele>
        <time>2012-03-22T10:28:19Z</time>
      </trkpt>
      <trkpt lat="44.38911" lon="5.84517">
        <ele>1329.64</ele>
        <time>2012-03-22T10:28:20Z</time>
      </trkpt>
      <trkpt lat="44.38913" lon="5.84516">
        <ele>1333.97</ele>
        <time>2012-03-22T10:28:22Z</time>
      </trkpt>
      <trkpt lat="44.38913" lon="5.84516">
        <ele>1327.72</ele>
        <time>2012-03-22T10:28:23Z</time>
      </trkpt>
      <trkpt lat="44.38915" lon="5.84514">
        <ele>1331.08</ele>
        <time>2012-03-22T10:28:26Z</time>
      </trkpt>
      <trkpt lat="44.38917" lon="5.84513">
        <ele>1327.24</ele>
        <time>2012-03-22T10:28:27Z</time>
      </trkpt>
      <trkpt lat="44.38917" lon="5.84512">
        <ele>1332.52</ele>
        <time>2012-03-22T10:28:28Z</time>
      </trkpt>
      <trkpt lat="44.38921" lon="5.84503">
        <ele>1334.93</ele>
        <time>2012-03-22T10:28:35Z</time>
      </trkpt>
      <trkpt lat="44.38921" lon="5.84502">
        <ele>1329.64</ele>
        <time>2012-03-22T10:28:36Z</time>
      </trkpt>
      <trkpt lat="44.38921" lon="5.84501">
        <ele>1333.49</ele>
        <time>2012-03-22T10:28:37Z</time>
      </trkpt>
      <trkpt lat="44.38922" lon="5.84501">
        <ele>1338.29</ele>
        <time>2012-03-22T10:28:38Z</time>
      </trkpt>
      <trkpt lat="44.38923" lon="5.845">
        <ele>1333.97</ele>
        <time>2012-03-22T10:28:39Z</time>
      </trkpt>
      <trkpt lat="44.38925" lon="5.84495">
        <ele>1331.08</ele>
        <time>2012-03-22T10:28:48Z</time>
      </trkpt>
      <trkpt lat="44.38926" lon="5.84493">
        <ele>1339.25</ele>
        <time>2012-03-22T10:28:50Z</time>
      </trkpt>
      <trkpt lat="44.38926" lon="5.84492">
        <ele>1332.52</ele>
        <time>2012-03-22T10:28:51Z</time>
      </trkpt>
      <trkpt lat="44.38926" lon="5.84491">
        <ele>1336.37</ele>
        <time>2012-03-22T10:28:52Z</time>
      </trkpt>
      <trkpt lat="44.38925" lon="5.84488">
        <ele>1342.14</ele>
        <time>2012-03-22T10:28:56Z</time>
      </trkpt>
      <trkpt lat="44.38925" lon="5.84488">
        <ele>1340.7</ele>
        <time>2012-03-22T10:28:57Z</time>
      </trkpt>
      <trkpt lat="44.38926" lon="5.84487">
        <ele>1333.01</ele>
        <time>2012-03-22T10:28:59Z</time>
      </trkpt>
      <trkpt lat="44.38926" lon="5.84487">
        <ele>1337.81</ele>
        <time>2012-03-22T10:29:00Z</time>
      </trkpt>
      <trkpt lat="44.38927" lon="5.84486">
        <ele>1332.04</ele>
        <time>2012-03-22T10:29:03Z</time>
      </trkpt>
      <trkpt lat="44.38927" lon="5.84486">
        <ele>1337.33</ele>
        <time>2012-03-22T10:29:04Z</time>
      </trkpt>
      <trkpt lat="44.38927" lon="5.84485">
        <ele>1341.18</ele>
        <time>2012-03-22T10:29:05Z</time>
      </trkpt>
      <trkpt lat="44.38927" lon="5.84484">
        <ele>1338.29</ele>
        <time>2012-03-22T10:29:06Z</time>
      </trkpt>
      <trkpt lat="44.38927" lon="5.84484">
        <ele>1333.49</ele>
        <time>2012-03-22T10:29:07Z</time>
      </trkpt>
      <trkpt lat="44.38927" lon="5.84484">
        <ele>1336.85</ele>
        <time>2012-03-22T10:29:08Z</time>
      </trkpt>
      <trkpt lat="44.38927" lon="5.84484">
        <ele>1337.81</ele>
        <time>2012-03-22T10:29:10Z</time>
      </trkpt>
      <trkpt lat="44.38928" lon="5.84482">
        <ele>1333.49</ele>
        <time>2012-03-22T10:29:12Z</time>
      </trkpt>
      <trkpt lat="44.38928" lon="5.84482">
        <ele>1341.66</ele>
        <time>2012-03-22T10:29:13Z</time>
      </trkpt>
      <trkpt lat="44.38928" lon="5.84481">
        <ele>1341.18</ele>
        <time>2012-03-22T10:29:14Z</time>
      </trkpt>
      <trkpt lat="44.38928" lon="5.8448">
        <ele>1336.85</ele>
        <time>2012-03-22T10:29:15Z</time>
      </trkpt>
      <trkpt lat="44.38932" lon="5.84473">
        <ele>1342.14</ele>
        <time>2012-03-22T10:29:24Z</time>
      </trkpt>
      <trkpt lat="44.38932" lon="5.84472">
        <ele>1334.45</ele>
        <time>2012-03-22T10:29:25Z</time>
      </trkpt>
      <trkpt lat="44.38933" lon="5.84472">
        <ele>1340.7</ele>
        <time>2012-03-22T10:29:26Z</time>
      </trkpt>
      <trkpt lat="44.38935" lon="5.84469">
        <ele>1338.29</ele>
        <time>2012-03-22T10:29:29Z</time>
      </trkpt>
      <trkpt lat="44.38937" lon="5.84465">
        <ele>1350.79</ele>
        <time>2012-03-22T10:29:33Z</time>
      </trkpt>
      <trkpt lat="44.38938" lon="5.84464">
        <ele>1337.33</ele>
        <time>2012-03-22T10:29:34Z</time>
      </trkpt>
      <trkpt lat="44.38938" lon="5.84462">
        <ele>1340.7</ele>
        <time>2012-03-22T10:29:36Z</time>
      </trkpt>
      <trkpt lat="44.38938" lon="5.84461">
        <ele>1339.73</ele>
        <time>2012-03-22T10:29:37Z</time>
      </trkpt>
      <trkpt lat="44.38939" lon="5.8446">
        <ele>1335.89</ele>
        <time>2012-03-22T10:29:38Z</time>
      </trkpt>
      <trkpt lat="44.38939" lon="5.8446">
        <ele>1343.1</ele>
        <time>2012-03-22T10:29:39Z</time>
      </trkpt>
      <trkpt lat="44.38939" lon="5.8446">
        <ele>1337.33</ele>
        <time>2012-03-22T10:29:40Z</time>
      </trkpt>
      <trkpt lat="44.38941" lon="5.84457">
        <ele>1338.29</ele>
        <time>2012-03-22T10:29:44Z</time>
      </trkpt>
      <trkpt lat="44.38941" lon="5.84456">
        <ele>1342.14</ele>
        <time>2012-03-22T10:29:45Z</time>
      </trkpt>
      <trkpt lat="44.38942" lon="5.84455">
        <ele>1346.94</ele>
        <time>2012-03-22T10:29:46Z</time>
      </trkpt>
      <trkpt lat="44.38942" lon="5.84454">
        <ele>1338.77</ele>
        <time>2012-03-22T10:29:47Z</time>
      </trkpt>
      <trkpt lat="44.38943" lon="5.84453">
        <ele>1349.35</ele>
        <time>2012-03-22T10:29:48Z</time>
      </trkpt>
      <trkpt lat="44.38943" lon="5.84451">
        <ele>1343.1</ele>
        <time>2012-03-22T10:29:49Z</time>
      </trkpt>
      <trkpt lat="44.38944" lon="5.84449">
        <ele>1338.77</ele>
        <time>2012-03-22T10:29:52Z</time>
      </trkpt>
      <trkpt lat="44.38944" lon="5.84448">
        <ele>1340.22</ele>
        <time>2012-03-22T10:29:53Z</time>
      </trkpt>
      <trkpt lat="44.38945" lon="5.84448">
        <ele>1335.41</ele>
        <time>2012-03-22T10:29:54Z</time>
      </trkpt>
      <trkpt lat="44.38945" lon="5.84446">
        <ele>1341.18</ele>
        <time>2012-03-22T10:29:55Z</time>
      </trkpt>
      <trkpt lat="44.38946" lon="5.84443">
        <ele>1337.33</ele>
        <time>2012-03-22T10:29:58Z</time>
      </trkpt>
      <trkpt lat="44.38947" lon="5.84442">
        <ele>1341.18</ele>
        <time>2012-03-22T10:29:59Z</time>
      </trkpt>
      <trkpt lat="44.38947" lon="5.84441">
        <ele>1345.5</ele>
        <time>2012-03-22T10:30:00Z</time>
      </trkpt>
      <trkpt lat="44.38947" lon="5.8444">
        <ele>1342.14</ele>
        <time>2012-03-22T10:30:01Z</time>
      </trkpt>
      <trkpt lat="44.38951" lon="5.84432">
        <ele>1345.98</ele>
        <time>2012-03-22T10:30:12Z</time>
      </trkpt>
      <trkpt lat="44.38952" lon="5.84432">
        <ele>1343.58</ele>
        <time>2012-03-22T10:30:13Z</time>
      </trkpt>
      <trkpt lat="44.38952" lon="5.84432">
        <ele>1347.43</ele>
        <time>2012-03-22T10:30:14Z</time>
      </trkpt>
      <trkpt lat="44.38953" lon="5.84432">
        <ele>1341.18</ele>
        <time>2012-03-22T10:30:15Z</time>
      </trkpt>
      <trkpt lat="44.38953" lon="5.84431">
        <ele>1345.02</ele>
        <time>2012-03-22T10:30:16Z</time>
      </trkpt>
      <trkpt lat="44.38953" lon="5.84429">
        <ele>1349.83</ele>
        <time>2012-03-22T10:30:18Z</time>
      </trkpt>
      <trkpt lat="44.38953" lon="5.84429">
        <ele>1343.1</ele>
        <time>2012-03-22T10:30:19Z</time>
      </trkpt>
      <trkpt lat="44.38954" lon="5.84427">
        <ele>1347.43</ele>
        <time>2012-03-22T10:30:21Z</time>
      </trkpt>
      <trkpt lat="44.38955" lon="5.84426">
        <ele>1345.98</ele>
        <time>2012-03-22T10:30:22Z</time>
      </trkpt>
      <trkpt lat="44.38955" lon="5.84424">
        <ele>1345.5</ele>
        <time>2012-03-22T10:30:24Z</time>
      </trkpt>
      <trkpt lat="44.38956" lon="5.84421">
        <ele>1348.87</ele>
        <time>2012-03-22T10:30:27Z</time>
      </trkpt>
      <trkpt lat="44.38956" lon="5.8442">
        <ele>1342.14</ele>
        <time>2012-03-22T10:30:28Z</time>
      </trkpt>
      <trkpt lat="44.38957" lon="5.84419">
        <ele>1342.62</ele>
        <time>2012-03-22T10:30:29Z</time>
      </trkpt>
      <trkpt lat="44.38957" lon="5.84418">
        <ele>1348.39</ele>
        <time>2012-03-22T10:30:30Z</time>
      </trkpt>
      <trkpt lat="44.38957" lon="5.84417">
        <ele>1345.5</ele>
        <time>2012-03-22T10:30:31Z</time>
      </trkpt>
      <trkpt lat="44.38959" lon="5.84415">
        <ele>1351.27</ele>
        <time>2012-03-22T10:30:33Z</time>
      </trkpt>
      <trkpt lat="44.38959" lon="5.84415">
        <ele>1341.66</ele>
        <time>2012-03-22T10:30:34Z</time>
      </trkpt>
      <trkpt lat="44.38959" lon="5.84414">
        <ele>1344.54</ele>
        <time>2012-03-22T10:30:35Z</time>
      </trkpt>
      <trkpt lat="44.3896" lon="5.84411">
        <ele>1346.46</ele>
        <time>2012-03-22T10:30:39Z</time>
      </trkpt>
      <trkpt lat="44.38962" lon="5.84409">
        <ele>1350.31</ele>
        <time>2012-03-22T10:30:42Z</time>
      </trkpt>
      <trkpt lat="44.38963" lon="5.84408">
        <ele>1344.54</ele>
        <time>2012-03-22T10:30:43Z</time>
      </trkpt>
      <trkpt lat="44.38964" lon="5.84407">
        <ele>1344.54</ele>
        <time>2012-03-22T10:30:44Z</time>
      </trkpt>
      <trkpt lat="44.38964" lon="5.84405">
        <ele>1350.79</ele>
        <time>2012-03-22T10:30:46Z</time>
      </trkpt>
      <trkpt lat="44.38964" lon="5.84404">
        <ele>1346.46</ele>
        <time>2012-03-22T10:30:47Z</time>
      </trkpt>
      <trkpt lat="44.38964" lon="5.84404">
        <ele>1352.23</ele>
        <time>2012-03-22T10:30:48Z</time>
      </trkpt>
      <trkpt lat="44.38965" lon="5.84403">
        <ele>1346.46</ele>
        <time>2012-03-22T10:30:49Z</time>
      </trkpt>
      <trkpt lat="44.38965" lon="5.84402">
        <ele>1351.27</ele>
        <time>2012-03-22T10:30:51Z</time>
      </trkpt>
      <trkpt lat="44.38965" lon="5.84402">
        <ele>1345.98</ele>
        <time>2012-03-22T10:30:52Z</time>
      </trkpt>
      <trkpt lat="44.38966" lon="5.844">
        <ele>1351.75</ele>
        <time>2012-03-22T10:30:54Z</time>
      </trkpt>
      <trkpt lat="44.38967" lon="5.84399">
        <ele>1349.35</ele>
        <time>2012-03-22T10:30:55Z</time>
      </trkpt>
      <trkpt lat="44.38971" lon="5.84389">
        <ele>1345.98</ele>
        <time>2012-03-22T10:31:06Z</time>
      </trkpt>
      <trkpt lat="44.38972" lon="5.84388">
        <ele>1349.83</ele>
        <time>2012-03-22T10:31:07Z</time>
      </trkpt>
      <trkpt lat="44.38973" lon="5.84383">
        <ele>1350.31</ele>
        <time>2012-03-22T10:31:13Z</time>
      </trkpt>
      <trkpt lat="44.38974" lon="5.8438">
        <ele>1353.19</ele>
        <time>2012-03-22T10:31:17Z</time>
      </trkpt>
      <trkpt lat="44.38975" lon="5.84379">
        <ele>1349.83</ele>
        <time>2012-03-22T10:31:18Z</time>
      </trkpt>
      <trkpt lat="44.38975" lon="5.84376">
        <ele>1353.67</ele>
        <time>2012-03-22T10:31:20Z</time>
      </trkpt>
      <trkpt lat="44.38976" lon="5.84375">
        <ele>1349.83</ele>
        <time>2012-03-22T10:31:22Z</time>
      </trkpt>
      <trkpt lat="44.38976" lon="5.84374">
        <ele>1350.79</ele>
        <time>2012-03-22T10:31:23Z</time>
      </trkpt>
      <trkpt lat="44.38977" lon="5.84373">
        <ele>1355.6</ele>
        <time>2012-03-22T10:31:25Z</time>
      </trkpt>
      <trkpt lat="44.38977" lon="5.84372">
        <ele>1348.39</ele>
        <time>2012-03-22T10:31:26Z</time>
      </trkpt>
      <trkpt lat="44.38977" lon="5.8437">
        <ele>1353.67</ele>
        <time>2012-03-22T10:31:27Z</time>
      </trkpt>
      <trkpt lat="44.38978" lon="5.8437">
        <ele>1349.35</ele>
        <time>2012-03-22T10:31:29Z</time>
      </trkpt>
      <trkpt lat="44.38978" lon="5.84369">
        <ele>1355.12</ele>
        <time>2012-03-22T10:31:30Z</time>
      </trkpt>
      <trkpt lat="44.38979" lon="5.84367">
        <ele>1351.27</ele>
        <time>2012-03-22T10:31:31Z</time>
      </trkpt>
      <trkpt lat="44.3898" lon="5.84366">
        <ele>1356.08</ele>
        <time>2012-03-22T10:31:34Z</time>
      </trkpt>
      <trkpt lat="44.3898" lon="5.84365">
        <ele>1350.79</ele>
        <time>2012-03-22T10:31:35Z</time>
      </trkpt>
      <trkpt lat="44.38981" lon="5.84363">
        <ele>1355.12</ele>
        <time>2012-03-22T10:31:37Z</time>
      </trkpt>
      <trkpt lat="44.38981" lon="5.84362">
        <ele>1349.35</ele>
        <time>2012-03-22T10:31:38Z</time>
      </trkpt>
      <trkpt lat="44.38982" lon="5.84361">
        <ele>1352.71</ele>
        <time>2012-03-22T10:31:39Z</time>
      </trkpt>
      <trkpt lat="44.38982" lon="5.8436">
        <ele>1357.04</ele>
        <time>2012-03-22T10:31:40Z</time>
      </trkpt>
      <trkpt lat="44.38983" lon="5.84359">
        <ele>1350.31</ele>
        <time>2012-03-22T10:31:41Z</time>
      </trkpt>
      <trkpt lat="44.38983" lon="5.84359">
        <ele>1356.08</ele>
        <time>2012-03-22T10:31:42Z</time>
      </trkpt>
      <trkpt lat="44.38983" lon="5.84358">
        <ele>1352.71</ele>
        <time>2012-03-22T10:31:44Z</time>
      </trkpt>
      <trkpt lat="44.38984" lon="5.84357">
        <ele>1357.52</ele>
        <time>2012-03-22T10:31:45Z</time>
      </trkpt>
      <trkpt lat="44.38985" lon="5.84357">
        <ele>1350.31</ele>
        <time>2012-03-22T10:31:47Z</time>
      </trkpt>
      <trkpt lat="44.38985" lon="5.84357">
        <ele>1353.19</ele>
        <time>2012-03-22T10:31:48Z</time>
      </trkpt>
      <trkpt lat="44.38985" lon="5.84354">
        <ele>1362.33</ele>
        <time>2012-03-22T10:31:51Z</time>
      </trkpt>
      <trkpt lat="44.38986" lon="5.84353">
        <ele>1352.71</ele>
        <time>2012-03-22T10:31:52Z</time>
      </trkpt>
      <trkpt lat="44.38986" lon="5.84353">
        <ele>1356.56</ele>
        <time>2012-03-22T10:31:53Z</time>
      </trkpt>
      <trkpt lat="44.38987" lon="5.84352">
        <ele>1353.19</ele>
        <time>2012-03-22T10:31:55Z</time>
      </trkpt>
      <trkpt lat="44.38987" lon="5.84352">
        <ele>1356.56</ele>
        <time>2012-03-22T10:31:56Z</time>
      </trkpt>
      <trkpt lat="44.38988" lon="5.84352">
        <ele>1352.23</ele>
        <time>2012-03-22T10:31:57Z</time>
      </trkpt>
      <trkpt lat="44.38988" lon="5.8435">
        <ele>1355.12</ele>
        <time>2012-03-22T10:31:59Z</time>
      </trkpt>
      <trkpt lat="44.38991" lon="5.84344">
        <ele>1358.96</ele>
        <time>2012-03-22T10:32:08Z</time>
      </trkpt>
      <trkpt lat="44.38991" lon="5.84343">
        <ele>1354.63</ele>
        <time>2012-03-22T10:32:09Z</time>
      </trkpt>
      <trkpt lat="44.38991" lon="5.84341">
        <ele>1358.96</ele>
        <time>2012-03-22T10:32:12Z</time>
      </trkpt>
      <trkpt lat="44.38992" lon="5.8434">
        <ele>1354.63</ele>
        <time>2012-03-22T10:32:15Z</time>
      </trkpt>
      <trkpt lat="44.38992" lon="5.84338">
        <ele>1359.44</ele>
        <time>2012-03-22T10:32:16Z</time>
      </trkpt>
      <trkpt lat="44.38993" lon="5.84336">
        <ele>1356.08</ele>
        <time>2012-03-22T10:32:18Z</time>
      </trkpt>
      <trkpt lat="44.38993" lon="5.84335">
        <ele>1356.08</ele>
        <time>2012-03-22T10:32:19Z</time>
      </trkpt>
      <trkpt lat="44.38994" lon="5.84334">
        <ele>1360.4</ele>
        <time>2012-03-22T10:32:21Z</time>
      </trkpt>
      <trkpt lat="44.38994" lon="5.84332">
        <ele>1363.77</ele>
        <time>2012-03-22T10:32:23Z</time>
      </trkpt>
      <trkpt lat="44.38994" lon="5.84331">
        <ele>1356.56</ele>
        <time>2012-03-22T10:32:24Z</time>
      </trkpt>
      <trkpt lat="44.38995" lon="5.8433">
        <ele>1358.96</ele>
        <time>2012-03-22T10:32:25Z</time>
      </trkpt>
      <trkpt lat="44.38995" lon="5.8433">
        <ele>1362.81</ele>
        <time>2012-03-22T10:32:26Z</time>
      </trkpt>
      <trkpt lat="44.38996" lon="5.84329">
        <ele>1359.44</ele>
        <time>2012-03-22T10:32:27Z</time>
      </trkpt>
      <trkpt lat="44.38997" lon="5.84328">
        <ele>1358.48</ele>
        <time>2012-03-22T10:32:29Z</time>
      </trkpt>
      <trkpt lat="44.38997" lon="5.84327">
        <ele>1363.29</ele>
        <time>2012-03-22T10:32:31Z</time>
      </trkpt>
      <trkpt lat="44.38997" lon="5.84327">
        <ele>1357.04</ele>
        <time>2012-03-22T10:32:32Z</time>
      </trkpt>
      <trkpt lat="44.38998" lon="5.84326">
        <ele>1361.36</ele>
        <time>2012-03-22T10:32:33Z</time>
      </trkpt>
      <trkpt lat="44.38998" lon="5.84324">
        <ele>1365.21</ele>
        <time>2012-03-22T10:32:35Z</time>
      </trkpt>
      <trkpt lat="44.38998" lon="5.84322">
        <ele>1360.4</ele>
        <time>2012-03-22T10:32:36Z</time>
      </trkpt>
      <trkpt lat="44.38999" lon="5.84321">
        <ele>1357.04</ele>
        <time>2012-03-22T10:32:38Z</time>
      </trkpt>
      <trkpt lat="44.38999" lon="5.8432">
        <ele>1360.4</ele>
        <time>2012-03-22T10:32:39Z</time>
      </trkpt>
      <trkpt lat="44.38999" lon="5.84319">
        <ele>1355.6</ele>
        <time>2012-03-22T10:32:40Z</time>
      </trkpt>
      <trkpt lat="44.39" lon="5.84319">
        <ele>1359.92</ele>
        <time>2012-03-22T10:32:41Z</time>
      </trkpt>
      <trkpt lat="44.39" lon="5.84318">
        <ele>1363.29</ele>
        <time>2012-03-22T10:32:42Z</time>
      </trkpt>
      <trkpt lat="44.39001" lon="5.84317">
        <ele>1359.44</ele>
        <time>2012-03-22T10:32:43Z</time>
      </trkpt>
      <trkpt lat="44.39001" lon="5.84316">
        <ele>1365.21</ele>
        <time>2012-03-22T10:32:44Z</time>
      </trkpt>
      <trkpt lat="44.39001" lon="5.84316">
        <ele>1355.12</ele>
        <time>2012-03-22T10:32:45Z</time>
      </trkpt>
      <trkpt lat="44.39002" lon="5.84315">
        <ele>1357.04</ele>
        <time>2012-03-22T10:32:46Z</time>
      </trkpt>
      <trkpt lat="44.39003" lon="5.84313">
        <ele>1360.4</ele>
        <time>2012-03-22T10:32:49Z</time>
      </trkpt>
      <trkpt lat="44.39004" lon="5.8431">
        <ele>1366.17</ele>
        <time>2012-03-22T10:32:53Z</time>
      </trkpt>
      <trkpt lat="44.39004" lon="5.8431">
        <ele>1359.44</ele>
        <time>2012-03-22T10:32:54Z</time>
      </trkpt>
      <trkpt lat="44.39005" lon="5.84309">
        <ele>1365.69</ele>
        <time>2012-03-22T10:32:55Z</time>
      </trkpt>
      <trkpt lat="44.39005" lon="5.84309">
        <ele>1359.92</ele>
        <time>2012-03-22T10:32:56Z</time>
      </trkpt>
      <trkpt lat="44.39006" lon="5.84308">
        <ele>1367.13</ele>
        <time>2012-03-22T10:32:57Z</time>
      </trkpt>
      <trkpt lat="44.39006" lon="5.84306">
        <ele>1360.88</ele>
        <time>2012-03-22T10:32:58Z</time>
      </trkpt>
      <trkpt lat="44.39006" lon="5.84302">
        <ele>1364.73</ele>
        <time>2012-03-22T10:33:02Z</time>
      </trkpt>
      <trkpt lat="44.39006" lon="5.84301">
        <ele>1364.73</ele>
        <time>2012-03-22T10:33:03Z</time>
      </trkpt>
      <trkpt lat="44.39007" lon="5.843">
        <ele>1361.36</ele>
        <time>2012-03-22T10:33:04Z</time>
      </trkpt>
      <trkpt lat="44.39009" lon="5.84297">
        <ele>1365.21</ele>
        <time>2012-03-22T10:33:10Z</time>
      </trkpt>
      <trkpt lat="44.39013" lon="5.84291">
        <ele>1360.88</ele>
        <time>2012-03-22T10:33:18Z</time>
      </trkpt>
      <trkpt lat="44.39013" lon="5.8429">
        <ele>1366.17</ele>
        <time>2012-03-22T10:33:19Z</time>
      </trkpt>
      <trkpt lat="44.39013" lon="5.84289">
        <ele>1362.81</ele>
        <time>2012-03-22T10:33:20Z</time>
      </trkpt>
      <trkpt lat="44.39014" lon="5.84287">
        <ele>1367.13</ele>
        <time>2012-03-22T10:33:23Z</time>
      </trkpt>
      <trkpt lat="44.39014" lon="5.84287">
        <ele>1363.29</ele>
        <time>2012-03-22T10:33:24Z</time>
      </trkpt>
      <trkpt lat="44.39017" lon="5.84284">
        <ele>1367.13</ele>
        <time>2012-03-22T10:33:28Z</time>
      </trkpt>
      <trkpt lat="44.39018" lon="5.84283">
        <ele>1365.69</ele>
        <time>2012-03-22T10:33:31Z</time>
      </trkpt>
      <trkpt lat="44.3902" lon="5.84278">
        <ele>1372.9</ele>
        <time>2012-03-22T10:33:36Z</time>
      </trkpt>
      <trkpt lat="44.3902" lon="5.84277">
        <ele>1365.21</ele>
        <time>2012-03-22T10:33:37Z</time>
      </trkpt>
      <trkpt lat="44.3902" lon="5.84276">
        <ele>1357.52</ele>
        <time>2012-03-22T10:33:38Z</time>
      </trkpt>
      <trkpt lat="44.39021" lon="5.84275">
        <ele>1364.73</ele>
        <time>2012-03-22T10:33:39Z</time>
      </trkpt>
      <trkpt lat="44.39021" lon="5.84275">
        <ele>1368.09</ele>
        <time>2012-03-22T10:33:40Z</time>
      </trkpt>
      <trkpt lat="44.39021" lon="5.84274">
        <ele>1366.65</ele>
        <time>2012-03-22T10:33:41Z</time>
      </trkpt>
      <trkpt lat="44.39024" lon="5.84268">
        <ele>1363.77</ele>
        <time>2012-03-22T10:33:47Z</time>
      </trkpt>
      <trkpt lat="44.39024" lon="5.84267">
        <ele>1363.77</ele>
        <time>2012-03-22T10:33:48Z</time>
      </trkpt>
      <trkpt lat="44.39024" lon="5.84266">
        <ele>1367.61</ele>
        <time>2012-03-22T10:33:49Z</time>
      </trkpt>
      <trkpt lat="44.39024" lon="5.84265">
        <ele>1372.42</ele>
        <time>2012-03-22T10:33:50Z</time>
      </trkpt>
      <trkpt lat="44.39024" lon="5.84265">
        <ele>1369.54</ele>
        <time>2012-03-22T10:33:51Z</time>
      </trkpt>
      <trkpt lat="44.39024" lon="5.84263">
        <ele>1364.25</ele>
        <time>2012-03-22T10:33:53Z</time>
      </trkpt>
      <trkpt lat="44.39025" lon="5.84263">
        <ele>1365.21</ele>
        <time>2012-03-22T10:33:54Z</time>
      </trkpt>
      <trkpt lat="44.39025" lon="5.84261">
        <ele>1370.98</ele>
        <time>2012-03-22T10:33:55Z</time>
      </trkpt>
      <trkpt lat="44.39025" lon="5.8426">
        <ele>1370.02</ele>
        <time>2012-03-22T10:33:56Z</time>
      </trkpt>
      <trkpt lat="44.39026" lon="5.8426">
        <ele>1365.69</ele>
        <time>2012-03-22T10:33:57Z</time>
      </trkpt>
      <trkpt lat="44.39026" lon="5.84259">
        <ele>1367.61</ele>
        <time>2012-03-22T10:33:58Z</time>
      </trkpt>
      <trkpt lat="44.39026" lon="5.84258">
        <ele>1364.25</ele>
        <time>2012-03-22T10:33:59Z</time>
      </trkpt>
      <trkpt lat="44.39027" lon="5.84257">
        <ele>1367.61</ele>
        <time>2012-03-22T10:34:00Z</time>
      </trkpt>
      <trkpt lat="44.39029" lon="5.84256">
        <ele>1369.54</ele>
        <time>2012-03-22T10:34:02Z</time>
      </trkpt>
      <trkpt lat="44.3903" lon="5.84255">
        <ele>1367.13</ele>
        <time>2012-03-22T10:34:04Z</time>
      </trkpt>
      <trkpt lat="44.39031" lon="5.84253">
        <ele>1370.5</ele>
        <time>2012-03-22T10:34:06Z</time>
      </trkpt>
      <trkpt lat="44.39031" lon="5.84252">
        <ele>1367.13</ele>
        <time>2012-03-22T10:34:07Z</time>
      </trkpt>
      <trkpt lat="44.39032" lon="5.84252">
        <ele>1373.38</ele>
        <time>2012-03-22T10:34:08Z</time>
      </trkpt>
      <trkpt lat="44.39032" lon="5.8425">
        <ele>1366.65</ele>
        <time>2012-03-22T10:34:10Z</time>
      </trkpt>
      <trkpt lat="44.39032" lon="5.84246">
        <ele>1370.5</ele>
        <time>2012-03-22T10:34:13Z</time>
      </trkpt>
      <trkpt lat="44.39033" lon="5.84245">
        <ele>1370.02</ele>
        <time>2012-03-22T10:34:14Z</time>
      </trkpt>
      <trkpt lat="44.39033" lon="5.84242">
        <ele>1375.3</ele>
        <time>2012-03-22T10:34:16Z</time>
      </trkpt>
      <trkpt lat="44.39034" lon="5.84241">
        <ele>1370.5</ele>
        <time>2012-03-22T10:34:17Z</time>
      </trkpt>
      <trkpt lat="44.39034" lon="5.8424">
        <ele>1365.69</ele>
        <time>2012-03-22T10:34:18Z</time>
      </trkpt>
      <trkpt lat="44.39034" lon="5.8424">
        <ele>1369.05</ele>
        <time>2012-03-22T10:34:19Z</time>
      </trkpt>
      <trkpt lat="44.39035" lon="5.84239">
        <ele>1370.02</ele>
        <time>2012-03-22T10:34:21Z</time>
      </trkpt>
      <trkpt lat="44.39037" lon="5.84236">
        <ele>1360.4</ele>
        <time>2012-03-22T10:34:26Z</time>
      </trkpt>
      <trkpt lat="44.39037" lon="5.84235">
        <ele>1368.57</ele>
        <time>2012-03-22T10:34:27Z</time>
      </trkpt>
      <trkpt lat="44.39037" lon="5.84234">
        <ele>1371.94</ele>
        <time>2012-03-22T10:34:28Z</time>
      </trkpt>
      <trkpt lat="44.39038" lon="5.84234">
        <ele>1370.02</ele>
        <time>2012-03-22T10:34:29Z</time>
      </trkpt>
      <trkpt lat="44.39039" lon="5.84231">
        <ele>1380.59</ele>
        <time>2012-03-22T10:34:33Z</time>
      </trkpt>
      <trkpt lat="44.39039" lon="5.84231">
        <ele>1373.38</ele>
        <time>2012-03-22T10:34:34Z</time>
      </trkpt>
      <trkpt lat="44.3904" lon="5.8423">
        <ele>1370.5</ele>
        <time>2012-03-22T10:34:36Z</time>
      </trkpt>
      <trkpt lat="44.39041" lon="5.84229">
        <ele>1374.34</ele>
        <time>2012-03-22T10:34:38Z</time>
      </trkpt>
      <trkpt lat="44.39042" lon="5.84229">
        <ele>1372.42</ele>
        <time>2012-03-22T10:34:39Z</time>
      </trkpt>
      <trkpt lat="44.39043" lon="5.84222">
        <ele>1373.38</ele>
        <time>2012-03-22T10:34:45Z</time>
      </trkpt>
      <trkpt lat="44.39043" lon="5.84221">
        <ele>1379.15</ele>
        <time>2012-03-22T10:34:46Z</time>
      </trkpt>
      <trkpt lat="44.39044" lon="5.8422">
        <ele>1373.38</ele>
        <time>2012-03-22T10:34:47Z</time>
      </trkpt>
      <trkpt lat="44.39046" lon="5.84215">
        <ele>1377.71</ele>
        <time>2012-03-22T10:34:53Z</time>
      </trkpt>
      <trkpt lat="44.39047" lon="5.84215">
        <ele>1372.42</ele>
        <time>2012-03-22T10:34:54Z</time>
      </trkpt>
      <trkpt lat="44.39047" lon="5.84214">
        <ele>1380.59</ele>
        <time>2012-03-22T10:34:55Z</time>
      </trkpt>
      <trkpt lat="44.39047" lon="5.84213">
        <ele>1372.42</ele>
        <time>2012-03-22T10:34:56Z</time>
      </trkpt>
      <trkpt lat="44.39048" lon="5.84211">
        <ele>1367.61</ele>
        <time>2012-03-22T10:34:58Z</time>
      </trkpt>
      <trkpt lat="44.39048" lon="5.84211">
        <ele>1374.82</ele>
        <time>2012-03-22T10:34:59Z</time>
      </trkpt>
      <trkpt lat="44.39048" lon="5.8421">
        <ele>1370.5</ele>
        <time>2012-03-22T10:35:01Z</time>
      </trkpt>
      <trkpt lat="44.39048" lon="5.8421">
        <ele>1374.34</ele>
        <time>2012-03-22T10:35:02Z</time>
      </trkpt>
      <trkpt lat="44.39049" lon="5.84209">
        <ele>1377.71</ele>
        <time>2012-03-22T10:35:04Z</time>
      </trkpt>
      <trkpt lat="44.39049" lon="5.84208">
        <ele>1376.26</ele>
        <time>2012-03-22T10:35:05Z</time>
      </trkpt>
      <trkpt lat="44.39049" lon="5.84208">
        <ele>1373.86</ele>
        <time>2012-03-22T10:35:07Z</time>
      </trkpt>
      <trkpt lat="44.39049" lon="5.84208">
        <ele>1377.23</ele>
        <time>2012-03-22T10:35:12Z</time>
      </trkpt>
      <trkpt lat="44.3905" lon="5.84205">
        <ele>1372.9</ele>
        <time>2012-03-22T10:35:17Z</time>
      </trkpt>
      <trkpt lat="44.3905" lon="5.84204">
        <ele>1379.63</ele>
        <time>2012-03-22T10:35:18Z</time>
      </trkpt>
      <trkpt lat="44.3905" lon="5.84204">
        <ele>1376.26</ele>
        <time>2012-03-22T10:35:19Z</time>
      </trkpt>
      <trkpt lat="44.39051" lon="5.84203">
        <ele>1372.42</ele>
        <time>2012-03-22T10:35:20Z</time>
      </trkpt>
      <trkpt lat="44.39051" lon="5.84202">
        <ele>1375.3</ele>
        <time>2012-03-22T10:35:21Z</time>
      </trkpt>
      <trkpt lat="44.39052" lon="5.84201">
        <ele>1379.15</ele>
        <time>2012-03-22T10:35:22Z</time>
      </trkpt>
      <trkpt lat="44.39052" lon="5.84199">
        <ele>1374.34</ele>
        <time>2012-03-22T10:35:24Z</time>
      </trkpt>
      <trkpt lat="44.39054" lon="5.84196">
        <ele>1379.63</ele>
        <time>2012-03-22T10:35:28Z</time>
      </trkpt>
      <trkpt lat="44.39055" lon="5.84195">
        <ele>1375.3</ele>
        <time>2012-03-22T10:35:30Z</time>
      </trkpt>
      <trkpt lat="44.39055" lon="5.84195">
        <ele>1374.82</ele>
        <time>2012-03-22T10:35:31Z</time>
      </trkpt>
      <trkpt lat="44.39057" lon="5.8419">
        <ele>1381.55</ele>
        <time>2012-03-22T10:35:36Z</time>
      </trkpt>
      <trkpt lat="44.39059" lon="5.84188">
        <ele>1375.3</ele>
        <time>2012-03-22T10:35:39Z</time>
      </trkpt>
      <trkpt lat="44.39059" lon="5.84187">
        <ele>1380.59</ele>
        <time>2012-03-22T10:35:40Z</time>
      </trkpt>
      <trkpt lat="44.39061" lon="5.84186">
        <ele>1377.23</ele>
        <time>2012-03-22T10:35:43Z</time>
      </trkpt>
      <trkpt lat="44.39062" lon="5.84184">
        <ele>1378.67</ele>
        <time>2012-03-22T10:35:44Z</time>
      </trkpt>
      <trkpt lat="44.39063" lon="5.84181">
        <ele>1382.99</ele>
        <time>2012-03-22T10:35:48Z</time>
      </trkpt>
      <trkpt lat="44.39064" lon="5.8418">
        <ele>1377.71</ele>
        <time>2012-03-22T10:35:49Z</time>
      </trkpt>
      <trkpt lat="44.39066" lon="5.84178">
        <ele>1382.51</ele>
        <time>2012-03-22T10:35:53Z</time>
      </trkpt>
      <trkpt lat="44.39067" lon="5.84176">
        <ele>1378.67</ele>
        <time>2012-03-22T10:35:55Z</time>
      </trkpt>
      <trkpt lat="44.39067" lon="5.84175">
        <ele>1378.67</ele>
        <time>2012-03-22T10:35:56Z</time>
      </trkpt>
      <trkpt lat="44.39068" lon="5.84174">
        <ele>1383.96</ele>
        <time>2012-03-22T10:35:58Z</time>
      </trkpt>
      <trkpt lat="44.39069" lon="5.84173">
        <ele>1381.55</ele>
        <time>2012-03-22T10:35:59Z</time>
      </trkpt>
      <trkpt lat="44.3907" lon="5.84171">
        <ele>1389.24</ele>
        <time>2012-03-22T10:36:03Z</time>
      </trkpt>
      <trkpt lat="44.39071" lon="5.8417">
        <ele>1378.19</ele>
        <time>2012-03-22T10:36:04Z</time>
      </trkpt>
      <trkpt lat="44.39072" lon="5.8417">
        <ele>1382.51</ele>
        <time>2012-03-22T10:36:05Z</time>
      </trkpt>
      <trkpt lat="44.39073" lon="5.84168">
        <ele>1378.67</ele>
        <time>2012-03-22T10:36:08Z</time>
      </trkpt>
      <trkpt lat="44.39074" lon="5.84167">
        <ele>1382.99</ele>
        <time>2012-03-22T10:36:09Z</time>
      </trkpt>
      <trkpt lat="44.39076" lon="5.84163">
        <ele>1377.23</ele>
        <time>2012-03-22T10:36:14Z</time>
      </trkpt>
      <trkpt lat="44.39077" lon="5.84162">
        <ele>1383.47</ele>
        <time>2012-03-22T10:36:15Z</time>
      </trkpt>
      <trkpt lat="44.39078" lon="5.84161">
        <ele>1386.36</ele>
        <time>2012-03-22T10:36:17Z</time>
      </trkpt>
      <trkpt lat="44.39079" lon="5.8416">
        <ele>1384.92</ele>
        <time>2012-03-22T10:36:19Z</time>
      </trkpt>
      <trkpt lat="44.39082" lon="5.84158">
        <ele>1380.59</ele>
        <time>2012-03-22T10:36:23Z</time>
      </trkpt>
      <trkpt lat="44.39083" lon="5.8416">
        <ele>1383.47</ele>
        <time>2012-03-22T10:36:27Z</time>
      </trkpt>
      <trkpt lat="44.39084" lon="5.84159">
        <ele>1392.13</ele>
        <time>2012-03-22T10:36:29Z</time>
      </trkpt>
      <trkpt lat="44.39084" lon="5.84159">
        <ele>1384.44</ele>
        <time>2012-03-22T10:36:30Z</time>
      </trkpt>
      <trkpt lat="44.39084" lon="5.84159">
        <ele>1381.07</ele>
        <time>2012-03-22T10:36:31Z</time>
      </trkpt>
      <trkpt lat="44.39084" lon="5.84159">
        <ele>1383.96</ele>
        <time>2012-03-22T10:36:32Z</time>
      </trkpt>
      <trkpt lat="44.39084" lon="5.8416">
        <ele>1384.44</ele>
        <time>2012-03-22T10:36:36Z</time>
      </trkpt>
      <trkpt lat="44.39084" lon="5.8416">
        <ele>1385.4</ele>
        <time>2012-03-22T10:36:38Z</time>
      </trkpt>
      <trkpt lat="44.39084" lon="5.84159">
        <ele>1384.92</ele>
        <time>2012-03-22T10:36:51Z</time>
      </trkpt>
      <trkpt lat="44.39084" lon="5.84159">
        <ele>1381.55</ele>
        <time>2012-03-22T10:37:00Z</time>
      </trkpt>
      <trkpt lat="44.39084" lon="5.84159">
        <ele>1384.44</ele>
        <time>2012-03-22T10:37:03Z</time>
      </trkpt>
      <trkpt lat="44.39084" lon="5.84159">
        <ele>1385.4</ele>
        <time>2012-03-22T10:37:34Z</time>
      </trkpt>
      <trkpt lat="44.39084" lon="5.84158">
        <ele>1383.96</ele>
        <time>2012-03-22T10:37:47Z</time>
      </trkpt>
      <trkpt lat="44.39084" lon="5.84158">
        <ele>1385.4</ele>
        <time>2012-03-22T10:38:45Z</time>
      </trkpt>
      <trkpt lat="44.39084" lon="5.84158">
        <ele>1384.92</ele>
        <time>2012-03-22T10:39:02Z</time>
      </trkpt>
      <trkpt lat="44.39084" lon="5.84158">
        <ele>1381.55</ele>
        <time>2012-03-22T10:39:05Z</time>
      </trkpt>
      <trkpt lat="44.39084" lon="5.84158">
        <ele>1386.36</ele>
        <time>2012-03-22T10:39:06Z</time>
      </trkpt>
      <trkpt lat="44.39084" lon="5.84158">
        <ele>1386.36</ele>
        <time>2012-03-22T10:39:28Z</time>
      </trkpt>
      <trkpt lat="44.39084" lon="5.84157">
        <ele>1384.92</ele>
        <time>2012-03-22T10:39:44Z</time>
      </trkpt>
      <trkpt lat="44.39083" lon="5.84154">
        <ele>1384.92</ele>
        <time>2012-03-22T10:39:58Z</time>
      </trkpt>
      <trkpt lat="44.39083" lon="5.84152">
        <ele>1385.4</ele>
        <time>2012-03-22T10:40:01Z</time>
      </trkpt>
      <trkpt lat="44.39083" lon="5.84149">
        <ele>1385.4</ele>
        <time>2012-03-22T10:40:03Z</time>
      </trkpt>
      <trkpt lat="44.39083" lon="5.84147">
        <ele>1383.96</ele>
        <time>2012-03-22T10:40:05Z</time>
      </trkpt>
      <trkpt lat="44.39085" lon="5.84133">
        <ele>1384.92</ele>
        <time>2012-03-22T10:40:15Z</time>
      </trkpt>
      <trkpt lat="44.39086" lon="5.84124">
        <ele>1384.92</ele>
        <time>2012-03-22T10:40:23Z</time>
      </trkpt>
      <trkpt lat="44.39089" lon="5.84114">
        <ele>1384.92</ele>
        <time>2012-03-22T10:40:33Z</time>
      </trkpt>
      <trkpt lat="44.39091" lon="5.84107">
        <ele>1387.32</ele>
        <time>2012-03-22T10:40:39Z</time>
      </trkpt>
      <trkpt lat="44.39092" lon="5.84106">
        <ele>1383.96</ele>
        <time>2012-03-22T10:40:40Z</time>
      </trkpt>
      <trkpt lat="44.39094" lon="5.84097">
        <ele>1384.92</ele>
        <time>2012-03-22T10:40:47Z</time>
      </trkpt>
      <trkpt lat="44.39095" lon="5.84087">
        <ele>1383.47</ele>
        <time>2012-03-22T10:40:56Z</time>
      </trkpt>
      <trkpt lat="44.39095" lon="5.84085">
        <ele>1388.28</ele>
        <time>2012-03-22T10:40:57Z</time>
      </trkpt>
      <trkpt lat="44.39095" lon="5.84083">
        <ele>1383.96</ele>
        <time>2012-03-22T10:40:59Z</time>
      </trkpt>
      <trkpt lat="44.39095" lon="5.84081">
        <ele>1387.32</ele>
        <time>2012-03-22T10:41:00Z</time>
      </trkpt>
      <trkpt lat="44.39095" lon="5.84078">
        <ele>1384.44</ele>
        <time>2012-03-22T10:41:02Z</time>
      </trkpt>
      <trkpt lat="44.39096" lon="5.84074">
        <ele>1382.03</ele>
        <time>2012-03-22T10:41:05Z</time>
      </trkpt>
      <trkpt lat="44.39097" lon="5.84073">
        <ele>1386.84</ele>
        <time>2012-03-22T10:41:07Z</time>
      </trkpt>
      <trkpt lat="44.39098" lon="5.84072">
        <ele>1382.51</ele>
        <time>2012-03-22T10:41:08Z</time>
      </trkpt>
      <trkpt lat="44.39099" lon="5.8407">
        <ele>1386.36</ele>
        <time>2012-03-22T10:41:11Z</time>
      </trkpt>
      <trkpt lat="44.39102" lon="5.84064">
        <ele>1385.88</ele>
        <time>2012-03-22T10:41:20Z</time>
      </trkpt>
      <trkpt lat="44.39103" lon="5.84062">
        <ele>1387.32</ele>
        <time>2012-03-22T10:41:22Z</time>
      </trkpt>
      <trkpt lat="44.39106" lon="5.84057">
        <ele>1388.76</ele>
        <time>2012-03-22T10:41:31Z</time>
      </trkpt>
      <trkpt lat="44.39111" lon="5.84051">
        <ele>1391.65</ele>
        <time>2012-03-22T10:41:41Z</time>
      </trkpt>
      <trkpt lat="44.39111" lon="5.8405">
        <ele>1396.93</ele>
        <time>2012-03-22T10:41:45Z</time>
      </trkpt>
      <trkpt lat="44.39112" lon="5.84051">
        <ele>1392.13</ele>
        <time>2012-03-22T10:41:46Z</time>
      </trkpt>
      <trkpt lat="44.39113" lon="5.84051">
        <ele>1398.37</ele>
        <time>2012-03-22T10:41:51Z</time>
      </trkpt>
      <trkpt lat="44.39114" lon="5.8405">
        <ele>1391.65</ele>
        <time>2012-03-22T10:41:52Z</time>
      </trkpt>
      <trkpt lat="44.39114" lon="5.84049">
        <ele>1391.17</ele>
        <time>2012-03-22T10:41:53Z</time>
      </trkpt>
      <trkpt lat="44.39115" lon="5.84049">
        <ele>1395.01</ele>
        <time>2012-03-22T10:41:54Z</time>
      </trkpt>
      <trkpt lat="44.39115" lon="5.84049">
        <ele>1393.09</ele>
        <time>2012-03-22T10:41:55Z</time>
      </trkpt>
      <trkpt lat="44.39115" lon="5.84049">
        <ele>1395.97</ele>
        <time>2012-03-22T10:41:56Z</time>
      </trkpt>
      <trkpt lat="44.39116" lon="5.84048">
        <ele>1393.09</ele>
        <time>2012-03-22T10:41:57Z</time>
      </trkpt>
      <trkpt lat="44.39118" lon="5.84043">
        <ele>1397.41</ele>
        <time>2012-03-22T10:42:02Z</time>
      </trkpt>
      <trkpt lat="44.39118" lon="5.84042">
        <ele>1392.61</ele>
        <time>2012-03-22T10:42:03Z</time>
      </trkpt>
      <trkpt lat="44.39119" lon="5.8404">
        <ele>1395.97</ele>
        <time>2012-03-22T10:42:06Z</time>
      </trkpt>
      <trkpt lat="44.39119" lon="5.84039">
        <ele>1395.49</ele>
        <time>2012-03-22T10:42:29Z</time>
      </trkpt>
      <trkpt lat="44.39119" lon="5.84036">
        <ele>1397.89</ele>
        <time>2012-03-22T10:42:49Z</time>
      </trkpt>
      <trkpt lat="44.39119" lon="5.84034">
        <ele>1394.05</ele>
        <time>2012-03-22T10:42:50Z</time>
      </trkpt>
      <trkpt lat="44.39119" lon="5.84033">
        <ele>1395.49</ele>
        <time>2012-03-22T10:42:51Z</time>
      </trkpt>
      <trkpt lat="44.39121" lon="5.84031">
        <ele>1391.65</ele>
        <time>2012-03-22T10:42:53Z</time>
      </trkpt>
      <trkpt lat="44.39121" lon="5.8403">
        <ele>1395.01</ele>
        <time>2012-03-22T10:42:55Z</time>
      </trkpt>
      <trkpt lat="44.39122" lon="5.84029">
        <ele>1398.86</ele>
        <time>2012-03-22T10:42:56Z</time>
      </trkpt>
      <trkpt lat="44.39122" lon="5.84028">
        <ele>1395.01</ele>
        <time>2012-03-22T10:42:57Z</time>
      </trkpt>
      <trkpt lat="44.39123" lon="5.84027">
        <ele>1397.89</ele>
        <time>2012-03-22T10:43:00Z</time>
      </trkpt>
      <trkpt lat="44.39123" lon="5.84027">
        <ele>1394.05</ele>
        <time>2012-03-22T10:43:01Z</time>
      </trkpt>
      <trkpt lat="44.39123" lon="5.84021">
        <ele>1402.7</ele>
        <time>2012-03-22T10:43:05Z</time>
      </trkpt>
      <trkpt lat="44.39124" lon="5.84017">
        <ele>1394.53</ele>
        <time>2012-03-22T10:43:08Z</time>
      </trkpt>
      <trkpt lat="44.39124" lon="5.84016">
        <ele>1397.89</ele>
        <time>2012-03-22T10:43:09Z</time>
      </trkpt>
      <trkpt lat="44.39125" lon="5.84011">
        <ele>1392.61</ele>
        <time>2012-03-22T10:43:13Z</time>
      </trkpt>
      <trkpt lat="44.39125" lon="5.8401">
        <ele>1401.74</ele>
        <time>2012-03-22T10:43:14Z</time>
      </trkpt>
      <trkpt lat="44.39126" lon="5.84009">
        <ele>1395.97</ele>
        <time>2012-03-22T10:43:15Z</time>
      </trkpt>
      <trkpt lat="44.39126" lon="5.84008">
        <ele>1398.37</ele>
        <time>2012-03-22T10:43:16Z</time>
      </trkpt>
      <trkpt lat="44.39126" lon="5.84005">
        <ele>1399.34</ele>
        <time>2012-03-22T10:43:18Z</time>
      </trkpt>
      <trkpt lat="44.39127" lon="5.84003">
        <ele>1392.61</ele>
        <time>2012-03-22T10:43:20Z</time>
      </trkpt>
      <trkpt lat="44.39127" lon="5.84002">
        <ele>1398.37</ele>
        <time>2012-03-22T10:43:21Z</time>
      </trkpt>
      <trkpt lat="44.39127" lon="5.83998">
        <ele>1397.89</ele>
        <time>2012-03-22T10:43:24Z</time>
      </trkpt>
      <trkpt lat="44.39126" lon="5.83991">
        <ele>1398.37</ele>
        <time>2012-03-22T10:43:30Z</time>
      </trkpt>
      <trkpt lat="44.39127" lon="5.83986">
        <ele>1397.89</ele>
        <time>2012-03-22T10:43:34Z</time>
      </trkpt>
      <trkpt lat="44.39127" lon="5.83985">
        <ele>1401.26</ele>
        <time>2012-03-22T10:43:35Z</time>
      </trkpt>
      <trkpt lat="44.39127" lon="5.83984">
        <ele>1399.34</ele>
        <time>2012-03-22T10:43:36Z</time>
      </trkpt>
      <trkpt lat="44.39129" lon="5.83982">
        <ele>1399.34</ele>
        <time>2012-03-22T10:43:41Z</time>
      </trkpt>
      <trkpt lat="44.39131" lon="5.8398">
        <ele>1400.3</ele>
        <time>2012-03-22T10:43:44Z</time>
      </trkpt>
      <trkpt lat="44.39132" lon="5.83974">
        <ele>1406.07</ele>
        <time>2012-03-22T10:43:51Z</time>
      </trkpt>
      <trkpt lat="44.39133" lon="5.83973">
        <ele>1400.3</ele>
        <time>2012-03-22T10:43:52Z</time>
      </trkpt>
      <trkpt lat="44.39133" lon="5.83973">
        <ele>1400.78</ele>
        <time>2012-03-22T10:43:53Z</time>
      </trkpt>
      <trkpt lat="44.39133" lon="5.83971">
        <ele>1405.1</ele>
        <time>2012-03-22T10:43:54Z</time>
      </trkpt>
      <trkpt lat="44.39133" lon="5.8397">
        <ele>1402.22</ele>
        <time>2012-03-22T10:43:55Z</time>
      </trkpt>
      <trkpt lat="44.39133" lon="5.83967">
        <ele>1406.07</ele>
        <time>2012-03-22T10:43:58Z</time>
      </trkpt>
      <trkpt lat="44.39134" lon="5.83966">
        <ele>1402.22</ele>
        <time>2012-03-22T10:43:59Z</time>
      </trkpt>
      <trkpt lat="44.39136" lon="5.8396">
        <ele>1406.55</ele>
        <time>2012-03-22T10:44:05Z</time>
      </trkpt>
      <trkpt lat="44.39136" lon="5.83959">
        <ele>1400.3</ele>
        <time>2012-03-22T10:44:06Z</time>
      </trkpt>
      <trkpt lat="44.39137" lon="5.83958">
        <ele>1404.62</ele>
        <time>2012-03-22T10:44:07Z</time>
      </trkpt>
      <trkpt lat="44.39137" lon="5.83956">
        <ele>1403.18</ele>
        <time>2012-03-22T10:44:10Z</time>
      </trkpt>
      <trkpt lat="44.39137" lon="5.83952">
        <ele>1407.99</ele>
        <time>2012-03-22T10:44:16Z</time>
      </trkpt>
      <trkpt lat="44.39137" lon="5.83951">
        <ele>1407.51</ele>
        <time>2012-03-22T10:44:17Z</time>
      </trkpt>
      <trkpt lat="44.39137" lon="5.8395">
        <ele>1403.66</ele>
        <time>2012-03-22T10:44:18Z</time>
      </trkpt>
      <trkpt lat="44.39137" lon="5.83947">
        <ele>1406.07</ele>
        <time>2012-03-22T10:44:22Z</time>
      </trkpt>
      <trkpt lat="44.39137" lon="5.83947">
        <ele>1402.7</ele>
        <time>2012-03-22T10:44:23Z</time>
      </trkpt>
      <trkpt lat="44.39137" lon="5.83946">
        <ele>1406.55</ele>
        <time>2012-03-22T10:44:24Z</time>
      </trkpt>
      <trkpt lat="44.39137" lon="5.83945">
        <ele>1402.7</ele>
        <time>2012-03-22T10:44:25Z</time>
      </trkpt>
      <trkpt lat="44.39136" lon="5.83944">
        <ele>1407.51</ele>
        <time>2012-03-22T10:44:26Z</time>
      </trkpt>
      <trkpt lat="44.39137" lon="5.83943">
        <ele>1402.7</ele>
        <time>2012-03-22T10:44:28Z</time>
      </trkpt>
      <trkpt lat="44.39138" lon="5.83939">
        <ele>1406.07</ele>
        <time>2012-03-22T10:44:32Z</time>
      </trkpt>
      <trkpt lat="44.39139" lon="5.83938">
        <ele>1402.7</ele>
        <time>2012-03-22T10:44:35Z</time>
      </trkpt>
      <trkpt lat="44.39139" lon="5.83935">
        <ele>1405.58</ele>
        <time>2012-03-22T10:44:38Z</time>
      </trkpt>
      <trkpt lat="44.3914" lon="5.83935">
        <ele>1409.43</ele>
        <time>2012-03-22T10:44:39Z</time>
      </trkpt>
      <trkpt lat="44.3914" lon="5.83934">
        <ele>1406.55</ele>
        <time>2012-03-22T10:44:40Z</time>
      </trkpt>
      <trkpt lat="44.39142" lon="5.83931">
        <ele>1411.83</ele>
        <time>2012-03-22T10:44:44Z</time>
      </trkpt>
      <trkpt lat="44.39142" lon="5.8393">
        <ele>1404.14</ele>
        <time>2012-03-22T10:44:45Z</time>
      </trkpt>
      <trkpt lat="44.39142" lon="5.83929">
        <ele>1408.47</ele>
        <time>2012-03-22T10:44:46Z</time>
      </trkpt>
      <trkpt lat="44.39144" lon="5.83925">
        <ele>1407.51</ele>
        <time>2012-03-22T10:44:51Z</time>
      </trkpt>
      <trkpt lat="44.39144" lon="5.83921">
        <ele>1411.83</ele>
        <time>2012-03-22T10:44:54Z</time>
      </trkpt>
      <trkpt lat="44.39145" lon="5.83916">
        <ele>1407.51</ele>
        <time>2012-03-22T10:44:59Z</time>
      </trkpt>
      <trkpt lat="44.39145" lon="5.83914">
        <ele>1399.82</ele>
        <time>2012-03-22T10:45:01Z</time>
      </trkpt>
      <trkpt lat="44.39145" lon="5.83913">
        <ele>1407.99</ele>
        <time>2012-03-22T10:45:02Z</time>
      </trkpt>
      <trkpt lat="44.39146" lon="5.83912">
        <ele>1413.76</ele>
        <time>2012-03-22T10:45:04Z</time>
      </trkpt>
      <trkpt lat="44.39146" lon="5.83911">
        <ele>1410.39</ele>
        <time>2012-03-22T10:45:05Z</time>
      </trkpt>
      <trkpt lat="44.39146" lon="5.8391">
        <ele>1407.03</ele>
        <time>2012-03-22T10:45:06Z</time>
      </trkpt>
      <trkpt lat="44.39146" lon="5.83909">
        <ele>1411.35</ele>
        <time>2012-03-22T10:45:07Z</time>
      </trkpt>
      <trkpt lat="44.39146" lon="5.83908">
        <ele>1407.03</ele>
        <time>2012-03-22T10:45:08Z</time>
      </trkpt>
      <trkpt lat="44.39147" lon="5.83907">
        <ele>1410.39</ele>
        <time>2012-03-22T10:45:09Z</time>
      </trkpt>
      <trkpt lat="44.39147" lon="5.83906">
        <ele>1403.18</ele>
        <time>2012-03-22T10:45:14Z</time>
      </trkpt>
      <trkpt lat="44.39147" lon="5.83906">
        <ele>1412.31</ele>
        <time>2012-03-22T10:45:15Z</time>
      </trkpt>
      <trkpt lat="44.39148" lon="5.83905">
        <ele>1407.99</ele>
        <time>2012-03-22T10:45:17Z</time>
      </trkpt>
      <trkpt lat="44.39148" lon="5.83904">
        <ele>1412.79</ele>
        <time>2012-03-22T10:45:18Z</time>
      </trkpt>
      <trkpt lat="44.39148" lon="5.83904">
        <ele>1409.43</ele>
        <time>2012-03-22T10:45:19Z</time>
      </trkpt>
      <trkpt lat="44.39149" lon="5.83902">
        <ele>1411.83</ele>
        <time>2012-03-22T10:45:22Z</time>
      </trkpt>
      <trkpt lat="44.39149" lon="5.83902">
        <ele>1406.55</ele>
        <time>2012-03-22T10:45:23Z</time>
      </trkpt>
      <trkpt lat="44.39149" lon="5.83902">
        <ele>1411.83</ele>
        <time>2012-03-22T10:45:24Z</time>
      </trkpt>
      <trkpt lat="44.39149" lon="5.83902">
        <ele>1407.03</ele>
        <time>2012-03-22T10:45:25Z</time>
      </trkpt>
      <trkpt lat="44.39149" lon="5.83902">
        <ele>1413.28</ele>
        <time>2012-03-22T10:45:26Z</time>
      </trkpt>
      <trkpt lat="44.39149" lon="5.83902">
        <ele>1405.58</ele>
        <time>2012-03-22T10:45:27Z</time>
      </trkpt>
      <trkpt lat="44.39149" lon="5.83902">
        <ele>1409.91</ele>
        <time>2012-03-22T10:45:28Z</time>
      </trkpt>
      <trkpt lat="44.39149" lon="5.83902">
        <ele>1410.87</ele>
        <time>2012-03-22T10:45:30Z</time>
      </trkpt>
      <trkpt lat="44.39149" lon="5.83902">
        <ele>1415.2</ele>
        <time>2012-03-22T10:45:33Z</time>
      </trkpt>
      <trkpt lat="44.39149" lon="5.83902">
        <ele>1411.35</ele>
        <time>2012-03-22T10:45:36Z</time>
      </trkpt>
      <trkpt lat="44.39149" lon="5.83902">
        <ele>1411.35</ele>
        <time>2012-03-22T10:45:37Z</time>
      </trkpt>
      <trkpt lat="44.39153" lon="5.83896">
        <ele>1414.24</ele>
        <time>2012-03-22T10:45:46Z</time>
      </trkpt>
      <trkpt lat="44.39154" lon="5.83895">
        <ele>1421.45</ele>
        <time>2012-03-22T10:45:47Z</time>
      </trkpt>
      <trkpt lat="44.39155" lon="5.83894">
        <ele>1411.83</ele>
        <time>2012-03-22T10:45:48Z</time>
      </trkpt>
      <trkpt lat="44.39155" lon="5.83893">
        <ele>1412.31</ele>
        <time>2012-03-22T10:45:49Z</time>
      </trkpt>
      <trkpt lat="44.39158" lon="5.8389">
        <ele>1419.52</ele>
        <time>2012-03-22T10:45:52Z</time>
      </trkpt>
      <trkpt lat="44.39158" lon="5.8389">
        <ele>1417.6</ele>
        <time>2012-03-22T10:45:53Z</time>
      </trkpt>
      <trkpt lat="44.39158" lon="5.8389">
        <ele>1412.79</ele>
        <time>2012-03-22T10:45:56Z</time>
      </trkpt>
      <trkpt lat="44.39158" lon="5.8389">
        <ele>1413.76</ele>
        <time>2012-03-22T10:45:57Z</time>
      </trkpt>
      <trkpt lat="44.39158" lon="5.8389">
        <ele>1418.08</ele>
        <time>2012-03-22T10:46:00Z</time>
      </trkpt>
      <trkpt lat="44.39158" lon="5.8389">
        <ele>1414.24</ele>
        <time>2012-03-22T10:46:01Z</time>
      </trkpt>
      <trkpt lat="44.39158" lon="5.8389">
        <ele>1419.04</ele>
        <time>2012-03-22T10:46:03Z</time>
      </trkpt>
      <trkpt lat="44.39158" lon="5.8389">
        <ele>1415.68</ele>
        <time>2012-03-22T10:46:04Z</time>
      </trkpt>
      <trkpt lat="44.3916" lon="5.83883">
        <ele>1415.2</ele>
        <time>2012-03-22T10:46:25Z</time>
      </trkpt>
      <trkpt lat="44.39164" lon="5.83875">
        <ele>1411.83</ele>
        <time>2012-03-22T10:46:32Z</time>
      </trkpt>
      <trkpt lat="44.39165" lon="5.83871">
        <ele>1416.16</ele>
        <time>2012-03-22T10:46:34Z</time>
      </trkpt>
      <trkpt lat="44.39167" lon="5.83865">
        <ele>1412.31</ele>
        <time>2012-03-22T10:46:40Z</time>
      </trkpt>
      <trkpt lat="44.39167" lon="5.83864">
        <ele>1416.16</ele>
        <time>2012-03-22T10:46:41Z</time>
      </trkpt>
      <trkpt lat="44.39168" lon="5.83862">
        <ele>1417.6</ele>
        <time>2012-03-22T10:46:43Z</time>
      </trkpt>
      <trkpt lat="44.3917" lon="5.83853">
        <ele>1414.24</ele>
        <time>2012-03-22T10:46:51Z</time>
      </trkpt>
      <trkpt lat="44.39171" lon="5.83846">
        <ele>1417.6</ele>
        <time>2012-03-22T10:46:57Z</time>
      </trkpt>
      <trkpt lat="44.39172" lon="5.83843">
        <ele>1412.79</ele>
        <time>2012-03-22T10:47:00Z</time>
      </trkpt>
      <trkpt lat="44.39172" lon="5.83843">
        <ele>1413.28</ele>
        <time>2012-03-22T10:47:01Z</time>
      </trkpt>
      <trkpt lat="44.39172" lon="5.83841">
        <ele>1414.72</ele>
        <time>2012-03-22T10:47:03Z</time>
      </trkpt>
      <trkpt lat="44.39172" lon="5.83831">
        <ele>1414.72</ele>
        <time>2012-03-22T10:47:13Z</time>
      </trkpt>
      <trkpt lat="44.39173" lon="5.83828">
        <ele>1411.35</ele>
        <time>2012-03-22T10:47:16Z</time>
      </trkpt>
      <trkpt lat="44.39173" lon="5.83827">
        <ele>1411.83</ele>
        <time>2012-03-22T10:47:17Z</time>
      </trkpt>
      <trkpt lat="44.39173" lon="5.83827">
        <ele>1408.47</ele>
        <time>2012-03-22T10:47:18Z</time>
      </trkpt>
      <trkpt lat="44.39174" lon="5.83827">
        <ele>1412.31</ele>
        <time>2012-03-22T10:47:20Z</time>
      </trkpt>
      <trkpt lat="44.39174" lon="5.83827">
        <ele>1416.16</ele>
        <time>2012-03-22T10:47:22Z</time>
      </trkpt>
      <trkpt lat="44.39174" lon="5.83827">
        <ele>1411.83</ele>
        <time>2012-03-22T10:47:23Z</time>
      </trkpt>
      <trkpt lat="44.39174" lon="5.83827">
        <ele>1415.68</ele>
        <time>2012-03-22T10:47:24Z</time>
      </trkpt>
      <trkpt lat="44.39174" lon="5.83827">
        <ele>1412.79</ele>
        <time>2012-03-22T10:47:25Z</time>
      </trkpt>
      <trkpt lat="44.39174" lon="5.83827">
        <ele>1407.51</ele>
        <time>2012-03-22T10:47:26Z</time>
      </trkpt>
      <trkpt lat="44.39174" lon="5.83827">
        <ele>1411.83</ele>
        <time>2012-03-22T10:47:27Z</time>
      </trkpt>
      <trkpt lat="44.39174" lon="5.83827">
        <ele>1415.2</ele>
        <time>2012-03-22T10:47:30Z</time>
      </trkpt>
      <trkpt lat="44.39174" lon="5.83827">
        <ele>1418.56</ele>
        <time>2012-03-22T10:47:31Z</time>
      </trkpt>
      <trkpt lat="44.39174" lon="5.83827">
        <ele>1413.76</ele>
        <time>2012-03-22T10:47:34Z</time>
      </trkpt>
      <trkpt lat="44.39174" lon="5.83827">
        <ele>1417.6</ele>
        <time>2012-03-22T10:47:43Z</time>
      </trkpt>
      <trkpt lat="44.39175" lon="5.83826">
        <ele>1414.24</ele>
        <time>2012-03-22T10:47:45Z</time>
      </trkpt>
      <trkpt lat="44.39175" lon="5.83825">
        <ele>1413.76</ele>
        <time>2012-03-22T10:47:46Z</time>
      </trkpt>
      <trkpt lat="44.39175" lon="5.83825">
        <ele>1417.6</ele>
        <time>2012-03-22T10:47:47Z</time>
      </trkpt>
      <trkpt lat="44.39175" lon="5.83825">
        <ele>1417.12</ele>
        <time>2012-03-22T10:47:48Z</time>
      </trkpt>
      <trkpt lat="44.39175" lon="5.83825">
        <ele>1420.97</ele>
        <time>2012-03-22T10:47:49Z</time>
      </trkpt>
      <trkpt lat="44.39175" lon="5.83825">
        <ele>1415.68</ele>
        <time>2012-03-22T10:47:50Z</time>
      </trkpt>
      <trkpt lat="44.39175" lon="5.83825">
        <ele>1419.52</ele>
        <time>2012-03-22T10:47:55Z</time>
      </trkpt>
      <trkpt lat="44.39175" lon="5.83825">
        <ele>1418.08</ele>
        <time>2012-03-22T10:47:58Z</time>
      </trkpt>
      <trkpt lat="44.39175" lon="5.83825">
        <ele>1422.41</ele>
        <time>2012-03-22T10:48:00Z</time>
      </trkpt>
      <trkpt lat="44.39175" lon="5.83825">
        <ele>1419.04</ele>
        <time>2012-03-22T10:48:01Z</time>
      </trkpt>
      <trkpt lat="44.39175" lon="5.83825">
        <ele>1415.68</ele>
        <time>2012-03-22T10:48:02Z</time>
      </trkpt>
      <trkpt lat="44.39175" lon="5.83825">
        <ele>1419.04</ele>
        <time>2012-03-22T10:48:03Z</time>
      </trkpt>
      <trkpt lat="44.39175" lon="5.83825">
        <ele>1416.16</ele>
        <time>2012-03-22T10:48:04Z</time>
      </trkpt>
      <trkpt lat="44.39175" lon="5.83825">
        <ele>1420.49</ele>
        <time>2012-03-22T10:48:07Z</time>
      </trkpt>
      <trkpt lat="44.39175" lon="5.83825">
        <ele>1420.49</ele>
        <time>2012-03-22T10:48:08Z</time>
      </trkpt>
      <trkpt lat="44.39178" lon="5.83819">
        <ele>1422.89</ele>
        <time>2012-03-22T10:48:15Z</time>
      </trkpt>
      <trkpt lat="44.39179" lon="5.83818">
        <ele>1420.97</ele>
        <time>2012-03-22T10:48:16Z</time>
      </trkpt>
      <trkpt lat="44.3918" lon="5.83814">
        <ele>1420.97</ele>
        <time>2012-03-22T10:48:20Z</time>
      </trkpt>
      <trkpt lat="44.3918" lon="5.83814">
        <ele>1416.16</ele>
        <time>2012-03-22T10:48:32Z</time>
      </trkpt>
      <trkpt lat="44.3918" lon="5.83814">
        <ele>1417.12</ele>
        <time>2012-03-22T10:48:33Z</time>
      </trkpt>
      <trkpt lat="44.39181" lon="5.83812">
        <ele>1420</ele>
        <time>2012-03-22T10:48:35Z</time>
      </trkpt>
      <trkpt lat="44.39183" lon="5.8381">
        <ele>1420</ele>
        <time>2012-03-22T10:48:36Z</time>
      </trkpt>
      <trkpt lat="44.39184" lon="5.83806">
        <ele>1418.08</ele>
        <time>2012-03-22T10:48:38Z</time>
      </trkpt>
      <trkpt lat="44.39186" lon="5.83801">
        <ele>1415.2</ele>
        <time>2012-03-22T10:48:40Z</time>
      </trkpt>
      <trkpt lat="44.39187" lon="5.83799">
        <ele>1416.16</ele>
        <time>2012-03-22T10:48:41Z</time>
      </trkpt>
      <trkpt lat="44.39188" lon="5.83796">
        <ele>1417.12</ele>
        <time>2012-03-22T10:48:43Z</time>
      </trkpt>
      <trkpt lat="44.39191" lon="5.83786">
        <ele>1420</ele>
        <time>2012-03-22T10:48:49Z</time>
      </trkpt>
      <trkpt lat="44.39192" lon="5.83782">
        <ele>1417.12</ele>
        <time>2012-03-22T10:48:52Z</time>
      </trkpt>
      <trkpt lat="44.39192" lon="5.8378">
        <ele>1420.49</ele>
        <time>2012-03-22T10:48:53Z</time>
      </trkpt>
      <trkpt lat="44.39193" lon="5.83779">
        <ele>1416.64</ele>
        <time>2012-03-22T10:48:54Z</time>
      </trkpt>
      <trkpt lat="44.39193" lon="5.83776">
        <ele>1413.28</ele>
        <time>2012-03-22T10:48:56Z</time>
      </trkpt>
      <trkpt lat="44.39194" lon="5.83774">
        <ele>1414.72</ele>
        <time>2012-03-22T10:48:57Z</time>
      </trkpt>
      <trkpt lat="44.39194" lon="5.83774">
        <ele>1417.6</ele>
        <time>2012-03-22T10:48:58Z</time>
      </trkpt>
      <trkpt lat="44.39195" lon="5.83765">
        <ele>1414.72</ele>
        <time>2012-03-22T10:49:04Z</time>
      </trkpt>
      <trkpt lat="44.39196" lon="5.83763">
        <ele>1418.08</ele>
        <time>2012-03-22T10:49:06Z</time>
      </trkpt>
      <trkpt lat="44.39196" lon="5.83763">
        <ele>1416.16</ele>
        <time>2012-03-22T10:49:19Z</time>
      </trkpt>
      <trkpt lat="44.39198" lon="5.83754">
        <ele>1414.24</ele>
        <time>2012-03-22T10:49:28Z</time>
      </trkpt>
      <trkpt lat="44.39199" lon="5.83748">
        <ele>1414.72</ele>
        <time>2012-03-22T10:49:38Z</time>
      </trkpt>
      <trkpt lat="44.39199" lon="5.83749">
        <ele>1416.16</ele>
        <time>2012-03-22T10:50:22Z</time>
      </trkpt>
      <trkpt lat="44.39199" lon="5.83749">
        <ele>1416.16</ele>
        <time>2012-03-22T10:50:37Z</time>
      </trkpt>
      <trkpt lat="44.39199" lon="5.83748">
        <ele>1414.72</ele>
        <time>2012-03-22T10:51:16Z</time>
      </trkpt>
      <trkpt lat="44.392" lon="5.83749">
        <ele>1415.68</ele>
        <time>2012-03-22T10:52:41Z</time>
      </trkpt>
      <trkpt lat="44.39201" lon="5.83749">
        <ele>1415.68</ele>
        <time>2012-03-22T10:52:48Z</time>
      </trkpt>
      <trkpt lat="44.39201" lon="5.8375">
        <ele>1416.16</ele>
        <time>2012-03-22T10:52:59Z</time>
      </trkpt>
      <trkpt lat="44.39201" lon="5.8375">
        <ele>1416.64</ele>
        <time>2012-03-22T10:54:00Z</time>
      </trkpt>
      <trkpt lat="44.39201" lon="5.8375">
        <ele>1416.16</ele>
        <time>2012-03-22T10:54:22Z</time>
      </trkpt>
      <trkpt lat="44.39201" lon="5.83752">
        <ele>1417.12</ele>
        <time>2012-03-22T10:54:40Z</time>
      </trkpt>
      <trkpt lat="44.39201" lon="5.83752">
        <ele>1417.12</ele>
        <time>2012-03-22T10:54:41Z</time>
      </trkpt>
      <trkpt lat="44.39201" lon="5.83752">
        <ele>1420.97</ele>
        <time>2012-03-22T10:54:45Z</time>
      </trkpt>
      <trkpt lat="44.39201" lon="5.83752">
        <ele>1417.12</ele>
        <time>2012-03-22T10:54:46Z</time>
      </trkpt>
      <trkpt lat="44.39199" lon="5.8376">
        <ele>1419.52</ele>
        <time>2012-03-22T10:54:54Z</time>
      </trkpt>
      <trkpt lat="44.39199" lon="5.8376">
        <ele>1416.16</ele>
        <time>2012-03-22T10:55:01Z</time>
      </trkpt>
      <trkpt lat="44.392" lon="5.83762">
        <ele>1424.81</ele>
        <time>2012-03-22T10:55:05Z</time>
      </trkpt>
      <trkpt lat="44.392" lon="5.83763">
        <ele>1419.52</ele>
        <time>2012-03-22T10:55:06Z</time>
      </trkpt>
      <trkpt lat="44.39199" lon="5.83765">
        <ele>1420</ele>
        <time>2012-03-22T10:55:17Z</time>
      </trkpt>
      <trkpt lat="44.39199" lon="5.83766">
        <ele>1417.6</ele>
        <time>2012-03-22T10:55:20Z</time>
      </trkpt>
      <trkpt lat="44.39198" lon="5.83766">
        <ele>1420.49</ele>
        <time>2012-03-22T10:55:21Z</time>
      </trkpt>
      <trkpt lat="44.39198" lon="5.83766">
        <ele>1420.49</ele>
        <time>2012-03-22T10:55:22Z</time>
      </trkpt>
      <trkpt lat="44.39198" lon="5.83767">
        <ele>1420</ele>
        <time>2012-03-22T10:55:33Z</time>
      </trkpt>
      <trkpt lat="44.39198" lon="5.83772">
        <ele>1418.08</ele>
        <time>2012-03-22T10:55:41Z</time>
      </trkpt>
      <trkpt lat="44.39197" lon="5.83775">
        <ele>1425.77</ele>
        <time>2012-03-22T10:55:44Z</time>
      </trkpt>
      <trkpt lat="44.39197" lon="5.83775">
        <ele>1420.97</ele>
        <time>2012-03-22T10:55:45Z</time>
      </trkpt>
      <trkpt lat="44.39196" lon="5.83779">
        <ele>1424.33</ele>
        <time>2012-03-22T10:55:49Z</time>
      </trkpt>
      <trkpt lat="44.39196" lon="5.83779">
        <ele>1420</ele>
        <time>2012-03-22T10:55:50Z</time>
      </trkpt>
      <trkpt lat="44.39195" lon="5.83782">
        <ele>1423.85</ele>
        <time>2012-03-22T10:55:53Z</time>
      </trkpt>
      <trkpt lat="44.39195" lon="5.83783">
        <ele>1419.52</ele>
        <time>2012-03-22T10:55:54Z</time>
      </trkpt>
      <trkpt lat="44.39195" lon="5.83787">
        <ele>1422.41</ele>
        <time>2012-03-22T10:55:57Z</time>
      </trkpt>
      <trkpt lat="44.39194" lon="5.83789">
        <ele>1421.45</ele>
        <time>2012-03-22T10:56:00Z</time>
      </trkpt>
      <trkpt lat="44.39193" lon="5.83793">
        <ele>1425.29</ele>
        <time>2012-03-22T10:56:05Z</time>
      </trkpt>
      <trkpt lat="44.39193" lon="5.83793">
        <ele>1421.93</ele>
        <time>2012-03-22T10:56:06Z</time>
      </trkpt>
      <trkpt lat="44.39192" lon="5.83798">
        <ele>1417.6</ele>
        <time>2012-03-22T10:56:11Z</time>
      </trkpt>
      <trkpt lat="44.39192" lon="5.83799">
        <ele>1423.85</ele>
        <time>2012-03-22T10:56:12Z</time>
      </trkpt>
      <trkpt lat="44.39192" lon="5.838">
        <ele>1422.89</ele>
        <time>2012-03-22T10:56:13Z</time>
      </trkpt>
      <trkpt lat="44.39191" lon="5.83801">
        <ele>1418.56</ele>
        <time>2012-03-22T10:56:16Z</time>
      </trkpt>
      <trkpt lat="44.39191" lon="5.83801">
        <ele>1420</ele>
        <time>2012-03-22T10:56:17Z</time>
      </trkpt>
      <trkpt lat="44.39191" lon="5.83802">
        <ele>1423.37</ele>
        <time>2012-03-22T10:56:21Z</time>
      </trkpt>
      <trkpt lat="44.3919" lon="5.83803">
        <ele>1419.52</ele>
        <time>2012-03-22T10:56:22Z</time>
      </trkpt>
      <trkpt lat="44.3919" lon="5.83804">
        <ele>1410.87</ele>
        <time>2012-03-22T10:56:23Z</time>
      </trkpt>
      <trkpt lat="44.3919" lon="5.83805">
        <ele>1418.08</ele>
        <time>2012-03-22T10:56:24Z</time>
      </trkpt>
      <trkpt lat="44.39189" lon="5.83807">
        <ele>1421.45</ele>
        <time>2012-03-22T10:56:26Z</time>
      </trkpt>
      <trkpt lat="44.39188" lon="5.83808">
        <ele>1420</ele>
        <time>2012-03-22T10:56:30Z</time>
      </trkpt>
      <trkpt lat="44.39187" lon="5.83809">
        <ele>1413.28</ele>
        <time>2012-03-22T10:56:31Z</time>
      </trkpt>
      <trkpt lat="44.39187" lon="5.8381">
        <ele>1417.6</ele>
        <time>2012-03-22T10:56:32Z</time>
      </trkpt>
      <trkpt lat="44.39186" lon="5.83811">
        <ele>1421.45</ele>
        <time>2012-03-22T10:56:33Z</time>
      </trkpt>
      <trkpt lat="44.39186" lon="5.83811">
        <ele>1420</ele>
        <time>2012-03-22T10:56:34Z</time>
      </trkpt>
      <trkpt lat="44.39184" lon="5.83813">
        <ele>1418.08</ele>
        <time>2012-03-22T10:56:39Z</time>
      </trkpt>
      <trkpt lat="44.39183" lon="5.83816">
        <ele>1423.85</ele>
        <time>2012-03-22T10:56:44Z</time>
      </trkpt>
      <trkpt lat="44.39183" lon="5.83817">
        <ele>1419.04</ele>
        <time>2012-03-22T10:56:45Z</time>
      </trkpt>
      <trkpt lat="44.39183" lon="5.83817">
        <ele>1414.72</ele>
        <time>2012-03-22T10:56:47Z</time>
      </trkpt>
      <trkpt lat="44.39183" lon="5.83818">
        <ele>1414.24</ele>
        <time>2012-03-22T10:56:48Z</time>
      </trkpt>
      <trkpt lat="44.39182" lon="5.83818">
        <ele>1420</ele>
        <time>2012-03-22T10:56:50Z</time>
      </trkpt>
      <trkpt lat="44.39182" lon="5.83819">
        <ele>1419.04</ele>
        <time>2012-03-22T10:56:51Z</time>
      </trkpt>
      <trkpt lat="44.39181" lon="5.8382">
        <ele>1418.08</ele>
        <time>2012-03-22T10:56:53Z</time>
      </trkpt>
      <trkpt lat="44.3918" lon="5.83822">
        <ele>1414.24</ele>
        <time>2012-03-22T10:56:55Z</time>
      </trkpt>
      <trkpt lat="44.39178" lon="5.83825">
        <ele>1417.6</ele>
        <time>2012-03-22T10:57:00Z</time>
      </trkpt>
      <trkpt lat="44.39178" lon="5.83826">
        <ele>1412.31</ele>
        <time>2012-03-22T10:57:01Z</time>
      </trkpt>
      <trkpt lat="44.39178" lon="5.83827">
        <ele>1416.16</ele>
        <time>2012-03-22T10:57:02Z</time>
      </trkpt>
      <trkpt lat="44.39176" lon="5.83831">
        <ele>1416.16</ele>
        <time>2012-03-22T10:57:09Z</time>
      </trkpt>
      <trkpt lat="44.39176" lon="5.83832">
        <ele>1412.79</ele>
        <time>2012-03-22T10:57:11Z</time>
      </trkpt>
      <trkpt lat="44.39175" lon="5.83833">
        <ele>1417.6</ele>
        <time>2012-03-22T10:57:12Z</time>
      </trkpt>
      <trkpt lat="44.39174" lon="5.83836">
        <ele>1415.2</ele>
        <time>2012-03-22T10:57:15Z</time>
      </trkpt>
      <trkpt lat="44.39174" lon="5.83838">
        <ele>1417.12</ele>
        <time>2012-03-22T10:57:17Z</time>
      </trkpt>
      <trkpt lat="44.39173" lon="5.83841">
        <ele>1420.49</ele>
        <time>2012-03-22T10:57:20Z</time>
      </trkpt>
      <trkpt lat="44.39173" lon="5.83842">
        <ele>1417.6</ele>
        <time>2012-03-22T10:57:21Z</time>
      </trkpt>
      <trkpt lat="44.39172" lon="5.83843">
        <ele>1416.16</ele>
        <time>2012-03-22T10:57:23Z</time>
      </trkpt>
      <trkpt lat="44.39172" lon="5.83844">
        <ele>1423.37</ele>
        <time>2012-03-22T10:57:24Z</time>
      </trkpt>
      <trkpt lat="44.39172" lon="5.83845">
        <ele>1413.76</ele>
        <time>2012-03-22T10:57:25Z</time>
      </trkpt>
      <trkpt lat="44.39172" lon="5.83846">
        <ele>1417.6</ele>
        <time>2012-03-22T10:57:26Z</time>
      </trkpt>
      <trkpt lat="44.39171" lon="5.83849">
        <ele>1418.08</ele>
        <time>2012-03-22T10:57:31Z</time>
      </trkpt>
      <trkpt lat="44.39171" lon="5.83849">
        <ele>1409.43</ele>
        <time>2012-03-22T10:57:32Z</time>
      </trkpt>
      <trkpt lat="44.39171" lon="5.8385">
        <ele>1418.56</ele>
        <time>2012-03-22T10:57:33Z</time>
      </trkpt>
      <trkpt lat="44.3917" lon="5.83851">
        <ele>1415.2</ele>
        <time>2012-03-22T10:57:34Z</time>
      </trkpt>
      <trkpt lat="44.3917" lon="5.83852">
        <ele>1418.56</ele>
        <time>2012-03-22T10:57:36Z</time>
      </trkpt>
      <trkpt lat="44.3917" lon="5.83853">
        <ele>1414.24</ele>
        <time>2012-03-22T10:57:37Z</time>
      </trkpt>
      <trkpt lat="44.3917" lon="5.83854">
        <ele>1418.56</ele>
        <time>2012-03-22T10:57:38Z</time>
      </trkpt>
      <trkpt lat="44.3917" lon="5.83856">
        <ele>1415.2</ele>
        <time>2012-03-22T10:57:40Z</time>
      </trkpt>
      <trkpt lat="44.3917" lon="5.83857">
        <ele>1419.52</ele>
        <time>2012-03-22T10:57:41Z</time>
      </trkpt>
      <trkpt lat="44.3917" lon="5.83857">
        <ele>1418.08</ele>
        <time>2012-03-22T10:57:42Z</time>
      </trkpt>
      <trkpt lat="44.39169" lon="5.83863">
        <ele>1422.41</ele>
        <time>2012-03-22T10:57:49Z</time>
      </trkpt>
      <trkpt lat="44.39169" lon="5.83864">
        <ele>1414.24</ele>
        <time>2012-03-22T10:57:50Z</time>
      </trkpt>
      <trkpt lat="44.39169" lon="5.83865">
        <ele>1418.08</ele>
        <time>2012-03-22T10:57:51Z</time>
      </trkpt>
      <trkpt lat="44.39168" lon="5.83867">
        <ele>1414.72</ele>
        <time>2012-03-22T10:57:55Z</time>
      </trkpt>
      <trkpt lat="44.39167" lon="5.83868">
        <ele>1418.56</ele>
        <time>2012-03-22T10:57:57Z</time>
      </trkpt>
      <trkpt lat="44.39166" lon="5.8387">
        <ele>1420</ele>
        <time>2012-03-22T10:57:59Z</time>
      </trkpt>
      <trkpt lat="44.39165" lon="5.8387">
        <ele>1415.68</ele>
        <time>2012-03-22T10:58:00Z</time>
      </trkpt>
      <trkpt lat="44.39165" lon="5.83871">
        <ele>1407.51</ele>
        <time>2012-03-22T10:58:01Z</time>
      </trkpt>
      <trkpt lat="44.39165" lon="5.83872">
        <ele>1414.72</ele>
        <time>2012-03-22T10:58:02Z</time>
      </trkpt>
      <trkpt lat="44.39165" lon="5.83873">
        <ele>1418.08</ele>
        <time>2012-03-22T10:58:03Z</time>
      </trkpt>
      <trkpt lat="44.39165" lon="5.83874">
        <ele>1417.12</ele>
        <time>2012-03-22T10:58:04Z</time>
      </trkpt>
      <trkpt lat="44.39165" lon="5.83875">
        <ele>1410.87</ele>
        <time>2012-03-22T10:58:05Z</time>
      </trkpt>
      <trkpt lat="44.39164" lon="5.83877">
        <ele>1410.39</ele>
        <time>2012-03-22T10:58:07Z</time>
      </trkpt>
      <trkpt lat="44.39163" lon="5.83877">
        <ele>1416.64</ele>
        <time>2012-03-22T10:58:08Z</time>
      </trkpt>
      <trkpt lat="44.39163" lon="5.83878">
        <ele>1416.64</ele>
        <time>2012-03-22T10:58:09Z</time>
      </trkpt>
      <trkpt lat="44.39163" lon="5.83879">
        <ele>1413.28</ele>
        <time>2012-03-22T10:58:10Z</time>
      </trkpt>
      <trkpt lat="44.39163" lon="5.83879">
        <ele>1414.72</ele>
        <time>2012-03-22T10:58:11Z</time>
      </trkpt>
      <trkpt lat="44.39162" lon="5.8388">
        <ele>1413.76</ele>
        <time>2012-03-22T10:58:12Z</time>
      </trkpt>
      <trkpt lat="44.39161" lon="5.83884">
        <ele>1412.31</ele>
        <time>2012-03-22T10:58:16Z</time>
      </trkpt>
      <trkpt lat="44.3916" lon="5.83885">
        <ele>1412.79</ele>
        <time>2012-03-22T10:58:17Z</time>
      </trkpt>
      <trkpt lat="44.3916" lon="5.83887">
        <ele>1416.16</ele>
        <time>2012-03-22T10:58:19Z</time>
      </trkpt>
      <trkpt lat="44.39159" lon="5.83888">
        <ele>1419.52</ele>
        <time>2012-03-22T10:58:21Z</time>
      </trkpt>
      <trkpt lat="44.39159" lon="5.83889">
        <ele>1415.2</ele>
        <time>2012-03-22T10:58:22Z</time>
      </trkpt>
      <trkpt lat="44.39158" lon="5.83889">
        <ele>1416.64</ele>
        <time>2012-03-22T10:58:23Z</time>
      </trkpt>
      <trkpt lat="44.39157" lon="5.83894">
        <ele>1419.52</ele>
        <time>2012-03-22T10:58:27Z</time>
      </trkpt>
      <trkpt lat="44.39157" lon="5.83895">
        <ele>1412.79</ele>
        <time>2012-03-22T10:58:28Z</time>
      </trkpt>
      <trkpt lat="44.39157" lon="5.83896">
        <ele>1413.28</ele>
        <time>2012-03-22T10:58:29Z</time>
      </trkpt>
      <trkpt lat="44.39157" lon="5.83897">
        <ele>1414.72</ele>
        <time>2012-03-22T10:58:31Z</time>
      </trkpt>
      <trkpt lat="44.39157" lon="5.83897">
        <ele>1421.45</ele>
        <time>2012-03-22T10:58:32Z</time>
      </trkpt>
      <trkpt lat="44.39157" lon="5.83898">
        <ele>1417.6</ele>
        <time>2012-03-22T10:58:33Z</time>
      </trkpt>
      <trkpt lat="44.39156" lon="5.83898">
        <ele>1413.28</ele>
        <time>2012-03-22T10:58:34Z</time>
      </trkpt>
      <trkpt lat="44.39156" lon="5.839">
        <ele>1417.12</ele>
        <time>2012-03-22T10:58:36Z</time>
      </trkpt>
      <trkpt lat="44.39155" lon="5.839">
        <ele>1414.72</ele>
        <time>2012-03-22T10:58:37Z</time>
      </trkpt>
      <trkpt lat="44.39154" lon="5.83904">
        <ele>1414.24</ele>
        <time>2012-03-22T10:58:41Z</time>
      </trkpt>
      <trkpt lat="44.39154" lon="5.83905">
        <ele>1409.43</ele>
        <time>2012-03-22T10:58:42Z</time>
      </trkpt>
      <trkpt lat="44.39154" lon="5.83905">
        <ele>1415.68</ele>
        <time>2012-03-22T10:58:43Z</time>
      </trkpt>
      <trkpt lat="44.39154" lon="5.83906">
        <ele>1412.79</ele>
        <time>2012-03-22T10:58:44Z</time>
      </trkpt>
      <trkpt lat="44.39152" lon="5.83908">
        <ele>1407.03</ele>
        <time>2012-03-22T10:58:48Z</time>
      </trkpt>
      <trkpt lat="44.39152" lon="5.83909">
        <ele>1414.72</ele>
        <time>2012-03-22T10:58:49Z</time>
      </trkpt>
      <trkpt lat="44.39151" lon="5.83913">
        <ele>1411.83</ele>
        <time>2012-03-22T10:58:54Z</time>
      </trkpt>
      <trkpt lat="44.3915" lon="5.83915">
        <ele>1413.76</ele>
        <time>2012-03-22T10:58:57Z</time>
      </trkpt>
      <trkpt lat="44.3915" lon="5.83916">
        <ele>1410.39</ele>
        <time>2012-03-22T10:58:58Z</time>
      </trkpt>
      <trkpt lat="44.39151" lon="5.83916">
        <ele>1415.2</ele>
        <time>2012-03-22T10:58:59Z</time>
      </trkpt>
      <trkpt lat="44.39151" lon="5.83916">
        <ele>1413.28</ele>
        <time>2012-03-22T10:59:02Z</time>
      </trkpt>
      <trkpt lat="44.39149" lon="5.83921">
        <ele>1412.79</ele>
        <time>2012-03-22T10:59:14Z</time>
      </trkpt>
      <trkpt lat="44.39146" lon="5.83926">
        <ele>1412.79</ele>
        <time>2012-03-22T10:59:25Z</time>
      </trkpt>
      <trkpt lat="44.39146" lon="5.83926">
        <ele>1409.43</ele>
        <time>2012-03-22T10:59:27Z</time>
      </trkpt>
      <trkpt lat="44.39147" lon="5.83926">
        <ele>1412.79</ele>
        <time>2012-03-22T10:59:30Z</time>
      </trkpt>
      <trkpt lat="44.39146" lon="5.83929">
        <ele>1410.87</ele>
        <time>2012-03-22T10:59:45Z</time>
      </trkpt>
      <trkpt lat="44.39145" lon="5.8393">
        <ele>1411.35</ele>
        <time>2012-03-22T10:59:49Z</time>
      </trkpt>
      <trkpt lat="44.39145" lon="5.83931">
        <ele>1415.68</ele>
        <time>2012-03-22T10:59:51Z</time>
      </trkpt>
      <trkpt lat="44.39144" lon="5.83932">
        <ele>1410.87</ele>
        <time>2012-03-22T10:59:52Z</time>
      </trkpt>
      <trkpt lat="44.3914" lon="5.83937">
        <ele>1408.95</ele>
        <time>2012-03-22T11:00:01Z</time>
      </trkpt>
      <trkpt lat="44.39139" lon="5.83939">
        <ele>1402.7</ele>
        <time>2012-03-22T11:00:03Z</time>
      </trkpt>
      <trkpt lat="44.39139" lon="5.8394">
        <ele>1410.39</ele>
        <time>2012-03-22T11:00:04Z</time>
      </trkpt>
      <trkpt lat="44.39138" lon="5.8394">
        <ele>1409.43</ele>
        <time>2012-03-22T11:00:05Z</time>
      </trkpt>
      <trkpt lat="44.39138" lon="5.83941">
        <ele>1415.2</ele>
        <time>2012-03-22T11:00:06Z</time>
      </trkpt>
      <trkpt lat="44.39138" lon="5.83942">
        <ele>1411.35</ele>
        <time>2012-03-22T11:00:07Z</time>
      </trkpt>
      <trkpt lat="44.39138" lon="5.83943">
        <ele>1407.99</ele>
        <time>2012-03-22T11:00:10Z</time>
      </trkpt>
      <trkpt lat="44.39138" lon="5.83944">
        <ele>1407.99</ele>
        <time>2012-03-22T11:00:11Z</time>
      </trkpt>
      <trkpt lat="44.39138" lon="5.83945">
        <ele>1411.83</ele>
        <time>2012-03-22T11:00:15Z</time>
      </trkpt>
      <trkpt lat="44.39138" lon="5.83946">
        <ele>1406.55</ele>
        <time>2012-03-22T11:00:16Z</time>
      </trkpt>
      <trkpt lat="44.39138" lon="5.83946">
        <ele>1400.3</ele>
        <time>2012-03-22T11:00:17Z</time>
      </trkpt>
      <trkpt lat="44.39137" lon="5.83951">
        <ele>1405.58</ele>
        <time>2012-03-22T11:00:21Z</time>
      </trkpt>
      <trkpt lat="44.39136" lon="5.83955">
        <ele>1408.47</ele>
        <time>2012-03-22T11:00:25Z</time>
      </trkpt>
      <trkpt lat="44.39135" lon="5.8396">
        <ele>1407.51</ele>
        <time>2012-03-22T11:00:30Z</time>
      </trkpt>
      <trkpt lat="44.39134" lon="5.83962">
        <ele>1400.78</ele>
        <time>2012-03-22T11:00:32Z</time>
      </trkpt>
      <trkpt lat="44.39134" lon="5.83963">
        <ele>1400.78</ele>
        <time>2012-03-22T11:00:33Z</time>
      </trkpt>
      <trkpt lat="44.39134" lon="5.83964">
        <ele>1410.39</ele>
        <time>2012-03-22T11:00:34Z</time>
      </trkpt>
      <trkpt lat="44.39134" lon="5.83966">
        <ele>1407.03</ele>
        <time>2012-03-22T11:00:35Z</time>
      </trkpt>
      <trkpt lat="44.39133" lon="5.83967">
        <ele>1403.18</ele>
        <time>2012-03-22T11:00:36Z</time>
      </trkpt>
      <trkpt lat="44.39133" lon="5.83969">
        <ele>1405.1</ele>
        <time>2012-03-22T11:00:38Z</time>
      </trkpt>
      <trkpt lat="44.39132" lon="5.83974">
        <ele>1405.1</ele>
        <time>2012-03-22T11:00:42Z</time>
      </trkpt>
      <trkpt lat="44.39131" lon="5.83977">
        <ele>1396.93</ele>
        <time>2012-03-22T11:00:44Z</time>
      </trkpt>
      <trkpt lat="44.39131" lon="5.83978">
        <ele>1407.03</ele>
        <time>2012-03-22T11:00:45Z</time>
      </trkpt>
      <trkpt lat="44.39131" lon="5.83978">
        <ele>1401.26</ele>
        <time>2012-03-22T11:00:46Z</time>
      </trkpt>
      <trkpt lat="44.39131" lon="5.83981">
        <ele>1405.58</ele>
        <time>2012-03-22T11:00:48Z</time>
      </trkpt>
      <trkpt lat="44.3913" lon="5.83982">
        <ele>1404.62</ele>
        <time>2012-03-22T11:00:49Z</time>
      </trkpt>
      <trkpt lat="44.3913" lon="5.83984">
        <ele>1401.26</ele>
        <time>2012-03-22T11:00:51Z</time>
      </trkpt>
      <trkpt lat="44.39129" lon="5.83986">
        <ele>1405.1</ele>
        <time>2012-03-22T11:00:53Z</time>
      </trkpt>
      <trkpt lat="44.39128" lon="5.83988">
        <ele>1399.82</ele>
        <time>2012-03-22T11:00:56Z</time>
      </trkpt>
      <trkpt lat="44.39128" lon="5.8399">
        <ele>1404.62</ele>
        <time>2012-03-22T11:00:58Z</time>
      </trkpt>
      <trkpt lat="44.39128" lon="5.83991">
        <ele>1399.82</ele>
        <time>2012-03-22T11:00:59Z</time>
      </trkpt>
      <trkpt lat="44.39127" lon="5.83992">
        <ele>1399.34</ele>
        <time>2012-03-22T11:01:00Z</time>
      </trkpt>
      <trkpt lat="44.39126" lon="5.83996">
        <ele>1403.18</ele>
        <time>2012-03-22T11:01:03Z</time>
      </trkpt>
      <trkpt lat="44.39126" lon="5.83997">
        <ele>1401.26</ele>
        <time>2012-03-22T11:01:04Z</time>
      </trkpt>
      <trkpt lat="44.39126" lon="5.84001">
        <ele>1398.37</ele>
        <time>2012-03-22T11:01:08Z</time>
      </trkpt>
      <trkpt lat="44.39126" lon="5.84003">
        <ele>1402.22</ele>
        <time>2012-03-22T11:01:11Z</time>
      </trkpt>
      <trkpt lat="44.39127" lon="5.84004">
        <ele>1399.34</ele>
        <time>2012-03-22T11:01:17Z</time>
      </trkpt>
      <trkpt lat="44.39127" lon="5.84004">
        <ele>1402.7</ele>
        <time>2012-03-22T11:01:18Z</time>
      </trkpt>
      <trkpt lat="44.39127" lon="5.84004">
        <ele>1399.82</ele>
        <time>2012-03-22T11:01:21Z</time>
      </trkpt>
      <trkpt lat="44.39127" lon="5.84004">
        <ele>1400.78</ele>
        <time>2012-03-22T11:01:37Z</time>
      </trkpt>
      <trkpt lat="44.39127" lon="5.84004">
        <ele>1397.41</ele>
        <time>2012-03-22T11:01:51Z</time>
      </trkpt>
      <trkpt lat="44.39127" lon="5.84004">
        <ele>1404.62</ele>
        <time>2012-03-22T11:01:52Z</time>
      </trkpt>
      <trkpt lat="44.39127" lon="5.84004">
        <ele>1401.74</ele>
        <time>2012-03-22T11:01:53Z</time>
      </trkpt>
      <trkpt lat="44.39127" lon="5.84004">
        <ele>1397.89</ele>
        <time>2012-03-22T11:01:54Z</time>
      </trkpt>
      <trkpt lat="44.39127" lon="5.84004">
        <ele>1400.78</ele>
        <time>2012-03-22T11:01:55Z</time>
      </trkpt>
      <trkpt lat="44.39126" lon="5.84004">
        <ele>1401.74</ele>
        <time>2012-03-22T11:02:12Z</time>
      </trkpt>
      <trkpt lat="44.39126" lon="5.84004">
        <ele>1398.37</ele>
        <time>2012-03-22T11:02:13Z</time>
      </trkpt>
      <trkpt lat="44.39126" lon="5.84004">
        <ele>1401.74</ele>
        <time>2012-03-22T11:02:20Z</time>
      </trkpt>
      <trkpt lat="44.39126" lon="5.84004">
        <ele>1399.82</ele>
        <time>2012-03-22T11:02:23Z</time>
      </trkpt>
      <trkpt lat="44.39126" lon="5.84004">
        <ele>1402.22</ele>
        <time>2012-03-22T11:03:10Z</time>
      </trkpt>
      <trkpt lat="44.39126" lon="5.84004">
        <ele>1398.86</ele>
        <time>2012-03-22T11:03:11Z</time>
      </trkpt>
      <trkpt lat="44.39126" lon="5.84004">
        <ele>1399.82</ele>
        <time>2012-03-22T11:03:12Z</time>
      </trkpt>
      <trkpt lat="44.39125" lon="5.84008">
        <ele>1401.74</ele>
        <time>2012-03-22T11:04:07Z</time>
      </trkpt>
      <trkpt lat="44.39125" lon="5.84009">
        <ele>1399.82</ele>
        <time>2012-03-22T11:04:11Z</time>
      </trkpt>
      <trkpt lat="44.39125" lon="5.84009">
        <ele>1400.3</ele>
        <time>2012-03-22T11:04:15Z</time>
      </trkpt>
      <trkpt lat="44.39124" lon="5.8401">
        <ele>1399.34</ele>
        <time>2012-03-22T11:04:38Z</time>
      </trkpt>
      <trkpt lat="44.39125" lon="5.84011">
        <ele>1398.37</ele>
        <time>2012-03-22T11:04:51Z</time>
      </trkpt>
      <trkpt lat="44.39126" lon="5.84013">
        <ele>1401.74</ele>
        <time>2012-03-22T11:05:06Z</time>
      </trkpt>
      <trkpt lat="44.39126" lon="5.84013">
        <ele>1397.41</ele>
        <time>2012-03-22T11:05:23Z</time>
      </trkpt>
      <trkpt lat="44.39126" lon="5.84013">
        <ele>1400.78</ele>
        <time>2012-03-22T11:05:24Z</time>
      </trkpt>
      <trkpt lat="44.39126" lon="5.84012">
        <ele>1400.3</ele>
        <time>2012-03-22T11:05:37Z</time>
      </trkpt>
      <trkpt lat="44.39126" lon="5.84012">
        <ele>1395.49</ele>
        <time>2012-03-22T11:05:50Z</time>
      </trkpt>
      <trkpt lat="44.39126" lon="5.84012">
        <ele>1399.34</ele>
        <time>2012-03-22T11:05:51Z</time>
      </trkpt>
      <trkpt lat="44.39126" lon="5.84012">
        <ele>1401.26</ele>
        <time>2012-03-22T11:05:54Z</time>
      </trkpt>
      <trkpt lat="44.39127" lon="5.84012">
        <ele>1396.93</ele>
        <time>2012-03-22T11:06:07Z</time>
      </trkpt>
      <trkpt lat="44.39126" lon="5.8401">
        <ele>1400.3</ele>
        <time>2012-03-22T11:06:12Z</time>
      </trkpt>
      <trkpt lat="44.39127" lon="5.84008">
        <ele>1398.86</ele>
        <time>2012-03-22T11:06:15Z</time>
      </trkpt>
      <trkpt lat="44.39127" lon="5.84008">
        <ele>1403.18</ele>
        <time>2012-03-22T11:06:17Z</time>
      </trkpt>
      <trkpt lat="44.39127" lon="5.84008">
        <ele>1400.78</ele>
        <time>2012-03-22T11:06:18Z</time>
      </trkpt>
      <trkpt lat="44.39127" lon="5.84008">
        <ele>1404.14</ele>
        <time>2012-03-22T11:06:28Z</time>
      </trkpt>
      <trkpt lat="44.39127" lon="5.84008">
        <ele>1398.37</ele>
        <time>2012-03-22T11:06:29Z</time>
      </trkpt>
      <trkpt lat="44.39127" lon="5.84008">
        <ele>1392.61</ele>
        <time>2012-03-22T11:06:31Z</time>
      </trkpt>
      <trkpt lat="44.39127" lon="5.84008">
        <ele>1399.34</ele>
        <time>2012-03-22T11:06:32Z</time>
      </trkpt>
      <trkpt lat="44.39127" lon="5.84008">
        <ele>1400.3</ele>
        <time>2012-03-22T11:06:34Z</time>
      </trkpt>
      <trkpt lat="44.39127" lon="5.84006">
        <ele>1404.62</ele>
        <time>2012-03-22T11:06:44Z</time>
      </trkpt>
      <trkpt lat="44.39127" lon="5.84006">
        <ele>1403.66</ele>
        <time>2012-03-22T11:06:45Z</time>
      </trkpt>
      <trkpt lat="44.39128" lon="5.84005">
        <ele>1399.34</ele>
        <time>2012-03-22T11:06:46Z</time>
      </trkpt>
      <trkpt lat="44.39128" lon="5.84004">
        <ele>1401.74</ele>
        <time>2012-03-22T11:06:47Z</time>
      </trkpt>
      <trkpt lat="44.39129" lon="5.84003">
        <ele>1406.07</ele>
        <time>2012-03-22T11:06:49Z</time>
      </trkpt>
      <trkpt lat="44.39129" lon="5.84002">
        <ele>1399.34</ele>
        <time>2012-03-22T11:06:50Z</time>
      </trkpt>
      <trkpt lat="44.3913" lon="5.84002">
        <ele>1402.7</ele>
        <time>2012-03-22T11:06:52Z</time>
      </trkpt>
      <trkpt lat="44.3913" lon="5.84002">
        <ele>1399.34</ele>
        <time>2012-03-22T11:07:02Z</time>
      </trkpt>
      <trkpt lat="44.39129" lon="5.84001">
        <ele>1402.7</ele>
        <time>2012-03-22T11:07:03Z</time>
      </trkpt>
      <trkpt lat="44.39131" lon="5.83993">
        <ele>1406.55</ele>
        <time>2012-03-22T11:07:13Z</time>
      </trkpt>
      <trkpt lat="44.39131" lon="5.83993">
        <ele>1401.26</ele>
        <time>2012-03-22T11:07:14Z</time>
      </trkpt>
      <trkpt lat="44.39131" lon="5.83993">
        <ele>1405.58</ele>
        <time>2012-03-22T11:07:16Z</time>
      </trkpt>
      <trkpt lat="44.39131" lon="5.83993">
        <ele>1402.22</ele>
        <time>2012-03-22T11:07:17Z</time>
      </trkpt>
      <trkpt lat="44.39131" lon="5.83993">
        <ele>1407.03</ele>
        <time>2012-03-22T11:07:20Z</time>
      </trkpt>
      <trkpt lat="44.39131" lon="5.83993">
        <ele>1404.14</ele>
        <time>2012-03-22T11:07:21Z</time>
      </trkpt>
      <trkpt lat="44.39131" lon="5.83993">
        <ele>1402.22</ele>
        <time>2012-03-22T11:07:30Z</time>
      </trkpt>
      <trkpt lat="44.39131" lon="5.83993">
        <ele>1407.51</ele>
        <time>2012-03-22T11:07:31Z</time>
      </trkpt>
      <trkpt lat="44.39131" lon="5.83993">
        <ele>1401.74</ele>
        <time>2012-03-22T11:07:32Z</time>
      </trkpt>
      <trkpt lat="44.39131" lon="5.83993">
        <ele>1408.95</ele>
        <time>2012-03-22T11:07:34Z</time>
      </trkpt>
      <trkpt lat="44.39131" lon="5.83993">
        <ele>1403.18</ele>
        <time>2012-03-22T11:07:35Z</time>
      </trkpt>
      <trkpt lat="44.39132" lon="5.83991">
        <ele>1407.51</ele>
        <time>2012-03-22T11:07:36Z</time>
      </trkpt>
      <trkpt lat="44.39132" lon="5.8399">
        <ele>1404.14</ele>
        <time>2012-03-22T11:07:37Z</time>
      </trkpt>
      <trkpt lat="44.39133" lon="5.83986">
        <ele>1409.91</ele>
        <time>2012-03-22T11:07:42Z</time>
      </trkpt>
      <trkpt lat="44.39133" lon="5.83986">
        <ele>1405.1</ele>
        <time>2012-03-22T11:07:44Z</time>
      </trkpt>
      <trkpt lat="44.39133" lon="5.83986">
        <ele>1405.58</ele>
        <time>2012-03-22T11:07:45Z</time>
      </trkpt>
      <trkpt lat="44.39133" lon="5.83986">
        <ele>1408.95</ele>
        <time>2012-03-22T11:08:00Z</time>
      </trkpt>
      <trkpt lat="44.39133" lon="5.83986">
        <ele>1404.62</ele>
        <time>2012-03-22T11:08:01Z</time>
      </trkpt>
      <trkpt lat="44.39132" lon="5.83985">
        <ele>1403.66</ele>
        <time>2012-03-22T11:08:05Z</time>
      </trkpt>
      <trkpt lat="44.39132" lon="5.83985">
        <ele>1405.58</ele>
        <time>2012-03-22T11:08:14Z</time>
      </trkpt>
      <trkpt lat="44.39132" lon="5.83985">
        <ele>1400.3</ele>
        <time>2012-03-22T11:08:15Z</time>
      </trkpt>
      <trkpt lat="44.39132" lon="5.83985">
        <ele>1403.18</ele>
        <time>2012-03-22T11:08:16Z</time>
      </trkpt>
      <trkpt lat="44.39132" lon="5.83985">
        <ele>1399.82</ele>
        <time>2012-03-22T11:08:19Z</time>
      </trkpt>
      <trkpt lat="44.39132" lon="5.83985">
        <ele>1404.62</ele>
        <time>2012-03-22T11:08:20Z</time>
      </trkpt>
      <trkpt lat="44.39132" lon="5.83985">
        <ele>1400.78</ele>
        <time>2012-03-22T11:08:21Z</time>
      </trkpt>
      <trkpt lat="44.39132" lon="5.83985">
        <ele>1405.1</ele>
        <time>2012-03-22T11:08:28Z</time>
      </trkpt>
      <trkpt lat="44.39129" lon="5.8399">
        <ele>1404.14</ele>
        <time>2012-03-22T11:08:34Z</time>
      </trkpt>
      <trkpt lat="44.39129" lon="5.83991">
        <ele>1402.7</ele>
        <time>2012-03-22T11:08:36Z</time>
      </trkpt>
      <trkpt lat="44.39126" lon="5.83996">
        <ele>1398.86</ele>
        <time>2012-03-22T11:08:43Z</time>
      </trkpt>
      <trkpt lat="44.39125" lon="5.83997">
        <ele>1402.7</ele>
        <time>2012-03-22T11:08:44Z</time>
      </trkpt>
      <trkpt lat="44.39125" lon="5.83998">
        <ele>1399.34</ele>
        <time>2012-03-22T11:08:48Z</time>
      </trkpt>
      <trkpt lat="44.39125" lon="5.83998">
        <ele>1400.3</ele>
        <time>2012-03-22T11:08:49Z</time>
      </trkpt>
      <trkpt lat="44.39125" lon="5.83998">
        <ele>1404.14</ele>
        <time>2012-03-22T11:08:58Z</time>
      </trkpt>
      <trkpt lat="44.39125" lon="5.83998">
        <ele>1399.34</ele>
        <time>2012-03-22T11:09:01Z</time>
      </trkpt>
      <trkpt lat="44.39125" lon="5.83998">
        <ele>1402.7</ele>
        <time>2012-03-22T11:09:02Z</time>
      </trkpt>
      <trkpt lat="44.39125" lon="5.83998">
        <ele>1397.89</ele>
        <time>2012-03-22T11:09:04Z</time>
      </trkpt>
      <trkpt lat="44.39125" lon="5.83998">
        <ele>1401.26</ele>
        <time>2012-03-22T11:09:05Z</time>
      </trkpt>
      <trkpt lat="44.39125" lon="5.83998">
        <ele>1407.51</ele>
        <time>2012-03-22T11:09:07Z</time>
      </trkpt>
      <trkpt lat="44.39125" lon="5.83998">
        <ele>1401.26</ele>
        <time>2012-03-22T11:09:08Z</time>
      </trkpt>
      <trkpt lat="44.39125" lon="5.83998">
        <ele>1396.45</ele>
        <time>2012-03-22T11:09:13Z</time>
      </trkpt>
      <trkpt lat="44.39125" lon="5.83998">
        <ele>1400.3</ele>
        <time>2012-03-22T11:09:14Z</time>
      </trkpt>
      <trkpt lat="44.39125" lon="5.83998">
        <ele>1400.78</ele>
        <time>2012-03-22T11:09:29Z</time>
      </trkpt>
      <trkpt lat="44.39125" lon="5.83998">
        <ele>1404.14</ele>
        <time>2012-03-22T11:09:39Z</time>
      </trkpt>
      <trkpt lat="44.39125" lon="5.83998">
        <ele>1401.74</ele>
        <time>2012-03-22T11:09:42Z</time>
      </trkpt>
      <trkpt lat="44.39125" lon="5.83999">
        <ele>1398.37</ele>
        <time>2012-03-22T11:10:12Z</time>
      </trkpt>
      <trkpt lat="44.39125" lon="5.83999">
        <ele>1401.26</ele>
        <time>2012-03-22T11:10:17Z</time>
      </trkpt>
      <trkpt lat="44.39125" lon="5.83999">
        <ele>1402.22</ele>
        <time>2012-03-22T11:10:43Z</time>
      </trkpt>
      <trkpt lat="44.39125" lon="5.83999">
        <ele>1401.26</ele>
        <time>2012-03-22T11:11:12Z</time>
      </trkpt>
      <trkpt lat="44.39125" lon="5.83999">
        <ele>1401.74</ele>
        <time>2012-03-22T11:11:41Z</time>
      </trkpt>
      <trkpt lat="44.39125" lon="5.84">
        <ele>1401.74</ele>
        <time>2012-03-22T11:12:41Z</time>
      </trkpt>
      <trkpt lat="44.39125" lon="5.84">
        <ele>1401.74</ele>
        <time>2012-03-22T11:13:23Z</time>
      </trkpt>
      <trkpt lat="44.39125" lon="5.84">
        <ele>1400.78</ele>
        <time>2012-03-22T11:14:41Z</time>
      </trkpt>
      <trkpt lat="44.39126" lon="5.84">
        <ele>1401.74</ele>
        <time>2012-03-22T11:14:51Z</time>
      </trkpt>
      <trkpt lat="44.39126" lon="5.84">
        <ele>1403.18</ele>
        <time>2012-03-22T11:16:03Z</time>
      </trkpt>
      <trkpt lat="44.39127" lon="5.84001">
        <ele>1403.66</ele>
        <time>2012-03-22T11:18:28Z</time>
      </trkpt>
      <trkpt lat="44.39128" lon="5.84002">
        <ele>1403.66</ele>
        <time>2012-03-22T11:20:30Z</time>
      </trkpt>
      <trkpt lat="44.39127" lon="5.84002">
        <ele>1403.66</ele>
        <time>2012-03-22T11:21:32Z</time>
      </trkpt>
      <trkpt lat="44.39127" lon="5.84003">
        <ele>1404.14</ele>
        <time>2012-03-22T11:24:43Z</time>
      </trkpt>
      <trkpt lat="44.39127" lon="5.84003">
        <ele>1405.58</ele>
        <time>2012-03-22T11:25:00Z</time>
      </trkpt>
      <trkpt lat="44.39127" lon="5.84003">
        <ele>1406.07</ele>
        <time>2012-03-22T11:25:25Z</time>
      </trkpt>
      <trkpt lat="44.39128" lon="5.84003">
        <ele>1404.14</ele>
        <time>2012-03-22T11:25:40Z</time>
      </trkpt>
      <trkpt lat="44.39128" lon="5.84004">
        <ele>1404.14</ele>
        <time>2012-03-22T11:26:37Z</time>
      </trkpt>
      <trkpt lat="44.39127" lon="5.84004">
        <ele>1404.62</ele>
        <time>2012-03-22T11:28:04Z</time>
      </trkpt>
      <trkpt lat="44.39127" lon="5.84004">
        <ele>1405.58</ele>
        <time>2012-03-22T11:30:29Z</time>
      </trkpt>
      <trkpt lat="44.39127" lon="5.84004">
        <ele>1405.58</ele>
        <time>2012-03-22T11:32:06Z</time>
      </trkpt>
      <trkpt lat="44.39127" lon="5.84004">
        <ele>1407.51</ele>
        <time>2012-03-22T11:35:21Z</time>
      </trkpt>
      <trkpt lat="44.39127" lon="5.84004">
        <ele>1407.99</ele>
        <time>2012-03-22T11:35:48Z</time>
      </trkpt>
      <trkpt lat="44.39127" lon="5.84004">
        <ele>1407.03</ele>
        <time>2012-03-22T11:39:21Z</time>
      </trkpt>
      <trkpt lat="44.39127" lon="5.84005">
        <ele>1407.51</ele>
        <time>2012-03-22T11:40:54Z</time>
      </trkpt>
      <trkpt lat="44.39127" lon="5.84005">
        <ele>1407.51</ele>
        <time>2012-03-22T11:45:08Z</time>
      </trkpt>
      <trkpt lat="44.39127" lon="5.84005">
        <ele>1407.03</ele>
        <time>2012-03-22T11:47:54Z</time>
      </trkpt>
      <trkpt lat="44.39127" lon="5.84005">
        <ele>1408.47</ele>
        <time>2012-03-22T11:48:58Z</time>
      </trkpt>
      <trkpt lat="44.39127" lon="5.84005">
        <ele>1403.66</ele>
        <time>2012-03-22T11:49:09Z</time>
      </trkpt>
      <trkpt lat="44.39127" lon="5.84005">
        <ele>1407.51</ele>
        <time>2012-03-22T11:49:10Z</time>
      </trkpt>
      <trkpt lat="44.39127" lon="5.84005">
        <ele>1403.18</ele>
        <time>2012-03-22T11:49:15Z</time>
      </trkpt>
      <trkpt lat="44.39127" lon="5.84005">
        <ele>1410.39</ele>
        <time>2012-03-22T11:49:16Z</time>
      </trkpt>
      <trkpt lat="44.39127" lon="5.84005">
        <ele>1406.55</ele>
        <time>2012-03-22T11:49:17Z</time>
      </trkpt>
      <trkpt lat="44.39127" lon="5.84005">
        <ele>1402.22</ele>
        <time>2012-03-22T11:49:28Z</time>
      </trkpt>
      <trkpt lat="44.39126" lon="5.84005">
        <ele>1407.03</ele>
        <time>2012-03-22T11:49:29Z</time>
      </trkpt>
      <trkpt lat="44.39127" lon="5.84005">
        <ele>1400.3</ele>
        <time>2012-03-22T11:50:31Z</time>
      </trkpt>
      <trkpt lat="44.39127" lon="5.84005">
        <ele>1407.03</ele>
        <time>2012-03-22T11:50:32Z</time>
      </trkpt>
      <trkpt lat="44.39127" lon="5.84005">
        <ele>1406.55</ele>
        <time>2012-03-22T11:51:32Z</time>
      </trkpt>
      <trkpt lat="44.39127" lon="5.84005">
        <ele>1409.91</ele>
        <time>2012-03-22T11:51:58Z</time>
      </trkpt>
      <trkpt lat="44.39127" lon="5.84005">
        <ele>1406.55</ele>
        <time>2012-03-22T11:52:02Z</time>
      </trkpt>
      <trkpt lat="44.39126" lon="5.84005">
        <ele>1407.99</ele>
        <time>2012-03-22T11:53:19Z</time>
      </trkpt>
      <trkpt lat="44.39126" lon="5.84005">
        <ele>1407.99</ele>
        <time>2012-03-22T11:53:54Z</time>
      </trkpt>
      <trkpt lat="44.39126" lon="5.84005">
        <ele>1404.14</ele>
        <time>2012-03-22T11:54:30Z</time>
      </trkpt>
      <trkpt lat="44.39126" lon="5.84004">
        <ele>1408.47</ele>
        <time>2012-03-22T11:54:31Z</time>
      </trkpt>
      <trkpt lat="44.39126" lon="5.84004">
        <ele>1407.99</ele>
        <time>2012-03-22T11:54:51Z</time>
      </trkpt>
      <trkpt lat="44.39126" lon="5.84005">
        <ele>1408.47</ele>
        <time>2012-03-22T11:55:22Z</time>
      </trkpt>
      <trkpt lat="44.39126" lon="5.84005">
        <ele>1410.39</ele>
        <time>2012-03-22T11:55:37Z</time>
      </trkpt>
      <trkpt lat="44.39125" lon="5.84002">
        <ele>1411.83</ele>
        <time>2012-03-22T11:55:44Z</time>
      </trkpt>
      <trkpt lat="44.39125" lon="5.84001">
        <ele>1409.91</ele>
        <time>2012-03-22T11:55:47Z</time>
      </trkpt>
      <trkpt lat="44.39124" lon="5.84">
        <ele>1397.89</ele>
        <time>2012-03-22T11:55:50Z</time>
      </trkpt>
      <trkpt lat="44.39124" lon="5.84">
        <ele>1409.43</ele>
        <time>2012-03-22T11:55:51Z</time>
      </trkpt>
      <trkpt lat="44.39124" lon="5.84">
        <ele>1404.62</ele>
        <time>2012-03-22T11:55:52Z</time>
      </trkpt>
      <trkpt lat="44.39124" lon="5.84">
        <ele>1410.39</ele>
        <time>2012-03-22T11:55:53Z</time>
      </trkpt>
      <trkpt lat="44.39124" lon="5.84">
        <ele>1405.1</ele>
        <time>2012-03-22T11:56:01Z</time>
      </trkpt>
      <trkpt lat="44.39124" lon="5.84">
        <ele>1408.47</ele>
        <time>2012-03-22T11:56:02Z</time>
      </trkpt>
      <trkpt lat="44.39124" lon="5.84">
        <ele>1411.83</ele>
        <time>2012-03-22T11:56:11Z</time>
      </trkpt>
      <trkpt lat="44.39124" lon="5.84">
        <ele>1410.39</ele>
        <time>2012-03-22T11:56:12Z</time>
      </trkpt>
      <trkpt lat="44.39124" lon="5.84">
        <ele>1399.82</ele>
        <time>2012-03-22T11:56:14Z</time>
      </trkpt>
      <trkpt lat="44.39124" lon="5.84">
        <ele>1409.91</ele>
        <time>2012-03-22T11:56:15Z</time>
      </trkpt>
      <trkpt lat="44.39124" lon="5.84">
        <ele>1401.26</ele>
        <time>2012-03-22T11:56:16Z</time>
      </trkpt>
      <trkpt lat="44.39124" lon="5.84">
        <ele>1408.95</ele>
        <time>2012-03-22T11:56:17Z</time>
      </trkpt>
      <trkpt lat="44.39124" lon="5.84">
        <ele>1414.72</ele>
        <time>2012-03-22T11:56:22Z</time>
      </trkpt>
      <trkpt lat="44.39124" lon="5.84">
        <ele>1410.39</ele>
        <time>2012-03-22T11:56:23Z</time>
      </trkpt>
      <trkpt lat="44.39124" lon="5.84">
        <ele>1402.22</ele>
        <time>2012-03-22T11:56:24Z</time>
      </trkpt>
      <trkpt lat="44.39124" lon="5.84">
        <ele>1411.83</ele>
        <time>2012-03-22T11:56:25Z</time>
      </trkpt>
      <trkpt lat="44.39124" lon="5.84">
        <ele>1395.97</ele>
        <time>2012-03-22T11:56:27Z</time>
      </trkpt>
      <trkpt lat="44.39124" lon="5.84">
        <ele>1408.47</ele>
        <time>2012-03-22T11:56:28Z</time>
      </trkpt>
      <trkpt lat="44.39124" lon="5.84">
        <ele>1414.24</ele>
        <time>2012-03-22T11:56:30Z</time>
      </trkpt>
      <trkpt lat="44.39124" lon="5.84">
        <ele>1410.39</ele>
        <time>2012-03-22T11:56:31Z</time>
      </trkpt>
      <trkpt lat="44.39124" lon="5.84">
        <ele>1403.18</ele>
        <time>2012-03-22T11:56:33Z</time>
      </trkpt>
      <trkpt lat="44.39124" lon="5.84">
        <ele>1407.99</ele>
        <time>2012-03-22T11:56:34Z</time>
      </trkpt>
      <trkpt lat="44.39124" lon="5.84">
        <ele>1411.35</ele>
        <time>2012-03-22T11:56:43Z</time>
      </trkpt>
      <trkpt lat="44.39124" lon="5.84">
        <ele>1410.39</ele>
        <time>2012-03-22T11:56:44Z</time>
      </trkpt>
      <trkpt lat="44.39124" lon="5.84">
        <ele>1407.99</ele>
        <time>2012-03-22T11:56:49Z</time>
      </trkpt>
      <trkpt lat="44.39124" lon="5.84">
        <ele>1411.83</ele>
        <time>2012-03-22T11:56:54Z</time>
      </trkpt>
      <trkpt lat="44.39124" lon="5.84">
        <ele>1408.95</ele>
        <time>2012-03-22T11:56:56Z</time>
      </trkpt>
      <trkpt lat="44.39124" lon="5.84">
        <ele>1397.41</ele>
        <time>2012-03-22T11:56:57Z</time>
      </trkpt>
      <trkpt lat="44.39124" lon="5.84">
        <ele>1408.95</ele>
        <time>2012-03-22T11:56:58Z</time>
      </trkpt>
      <trkpt lat="44.39124" lon="5.84">
        <ele>1399.34</ele>
        <time>2012-03-22T11:57:00Z</time>
      </trkpt>
      <trkpt lat="44.39124" lon="5.84">
        <ele>1408.47</ele>
        <time>2012-03-22T11:57:01Z</time>
      </trkpt>
      <trkpt lat="44.39124" lon="5.84">
        <ele>1412.79</ele>
        <time>2012-03-22T11:57:03Z</time>
      </trkpt>
      <trkpt lat="44.39124" lon="5.84">
        <ele>1408.47</ele>
        <time>2012-03-22T11:57:05Z</time>
      </trkpt>
      <trkpt lat="44.39124" lon="5.84">
        <ele>1408.47</ele>
        <time>2012-03-22T11:57:06Z</time>
      </trkpt>
      <trkpt lat="44.39124" lon="5.84">
        <ele>1417.12</ele>
        <time>2012-03-22T11:57:23Z</time>
      </trkpt>
      <trkpt lat="44.39124" lon="5.84">
        <ele>1411.35</ele>
        <time>2012-03-22T11:57:24Z</time>
      </trkpt>
      <trkpt lat="44.39124" lon="5.84">
        <ele>1407.99</ele>
        <time>2012-03-22T11:57:27Z</time>
      </trkpt>
      <trkpt lat="44.39124" lon="5.83999">
        <ele>1408.95</ele>
        <time>2012-03-22T11:57:53Z</time>
      </trkpt>
      <trkpt lat="44.39124" lon="5.83999">
        <ele>1408.95</ele>
        <time>2012-03-22T11:58:20Z</time>
      </trkpt>
      <trkpt lat="44.39124" lon="5.84">
        <ele>1409.43</ele>
        <time>2012-03-22T11:59:32Z</time>
      </trkpt>
      <trkpt lat="44.39124" lon="5.84">
        <ele>1404.62</ele>
        <time>2012-03-22T11:59:49Z</time>
      </trkpt>
      <trkpt lat="44.39124" lon="5.84">
        <ele>1409.43</ele>
        <time>2012-03-22T11:59:50Z</time>
      </trkpt>
      <trkpt lat="44.39124" lon="5.84">
        <ele>1407.51</ele>
        <time>2012-03-22T12:00:30Z</time>
      </trkpt>
      <trkpt lat="44.39124" lon="5.84">
        <ele>1407.03</ele>
        <time>2012-03-22T12:01:25Z</time>
      </trkpt>
      <trkpt lat="44.39124" lon="5.84">
        <ele>1407.03</ele>
        <time>2012-03-22T12:01:55Z</time>
      </trkpt>
      <trkpt lat="44.39124" lon="5.84">
        <ele>1408.47</ele>
        <time>2012-03-22T12:02:03Z</time>
      </trkpt>
      <trkpt lat="44.39124" lon="5.84">
        <ele>1409.91</ele>
        <time>2012-03-22T12:02:06Z</time>
      </trkpt>
      <trkpt lat="44.39124" lon="5.84">
        <ele>1407.99</ele>
        <time>2012-03-22T12:02:14Z</time>
      </trkpt>
      <trkpt lat="44.39124" lon="5.84">
        <ele>1408.47</ele>
        <time>2012-03-22T12:02:35Z</time>
      </trkpt>
      <trkpt lat="44.39123" lon="5.84004">
        <ele>1408.95</ele>
        <time>2012-03-22T12:02:44Z</time>
      </trkpt>
      <trkpt lat="44.39122" lon="5.84009">
        <ele>1407.99</ele>
        <time>2012-03-22T12:02:56Z</time>
      </trkpt>
      <trkpt lat="44.39122" lon="5.84009">
        <ele>1409.91</ele>
        <time>2012-03-22T12:03:28Z</time>
      </trkpt>
      <trkpt lat="44.39123" lon="5.84008">
        <ele>1406.55</ele>
        <time>2012-03-22T12:03:31Z</time>
      </trkpt>
      <trkpt lat="44.39124" lon="5.84006">
        <ele>1407.99</ele>
        <time>2012-03-22T12:03:53Z</time>
      </trkpt>
      <trkpt lat="44.39124" lon="5.84006">
        <ele>1407.51</ele>
        <time>2012-03-22T12:04:11Z</time>
      </trkpt>
      <trkpt lat="44.39124" lon="5.84006">
        <ele>1407.51</ele>
        <time>2012-03-22T12:05:51Z</time>
      </trkpt>
      <trkpt lat="44.39124" lon="5.84006">
        <ele>1407.99</ele>
        <time>2012-03-22T12:06:11Z</time>
      </trkpt>
      <trkpt lat="44.39124" lon="5.84006">
        <ele>1409.91</ele>
        <time>2012-03-22T12:06:22Z</time>
      </trkpt>
      <trkpt lat="44.39124" lon="5.84006">
        <ele>1410.87</ele>
        <time>2012-03-22T12:06:33Z</time>
      </trkpt>
      <trkpt lat="44.39124" lon="5.84006">
        <ele>1407.51</ele>
        <time>2012-03-22T12:06:35Z</time>
      </trkpt>
      <trkpt lat="44.39124" lon="5.84006">
        <ele>1408.47</ele>
        <time>2012-03-22T12:06:36Z</time>
      </trkpt>
      <trkpt lat="44.39124" lon="5.84006">
        <ele>1408.47</ele>
        <time>2012-03-22T12:07:10Z</time>
      </trkpt>
      <trkpt lat="44.39124" lon="5.84006">
        <ele>1407.51</ele>
        <time>2012-03-22T12:07:53Z</time>
      </trkpt>
      <trkpt lat="44.39124" lon="5.84006">
        <ele>1408.47</ele>
        <time>2012-03-22T12:08:01Z</time>
      </trkpt>
      <trkpt lat="44.39124" lon="5.84006">
        <ele>1408.95</ele>
        <time>2012-03-22T12:08:13Z</time>
      </trkpt>
      <trkpt lat="44.39124" lon="5.84006">
        <ele>1408.95</ele>
        <time>2012-03-22T12:08:20Z</time>
      </trkpt>
      <trkpt lat="44.39126" lon="5.84003">
        <ele>1408.47</ele>
        <time>2012-03-22T12:08:51Z</time>
      </trkpt>
      <trkpt lat="44.39126" lon="5.84001">
        <ele>1409.43</ele>
        <time>2012-03-22T12:08:53Z</time>
      </trkpt>
      <trkpt lat="44.39127" lon="5.84">
        <ele>1409.43</ele>
        <time>2012-03-22T12:09:03Z</time>
      </trkpt>
      <trkpt lat="44.39127" lon="5.84">
        <ele>1411.35</ele>
        <time>2012-03-22T12:09:14Z</time>
      </trkpt>
      <trkpt lat="44.39127" lon="5.84">
        <ele>1409.91</ele>
        <time>2012-03-22T12:09:25Z</time>
      </trkpt>
      <trkpt lat="44.39126" lon="5.83998">
        <ele>1411.83</ele>
        <time>2012-03-22T12:09:40Z</time>
      </trkpt>
      <trkpt lat="44.39126" lon="5.83998">
        <ele>1410.39</ele>
        <time>2012-03-22T12:10:03Z</time>
      </trkpt>
      <trkpt lat="44.39126" lon="5.83997">
        <ele>1410.39</ele>
        <time>2012-03-22T12:10:20Z</time>
      </trkpt>
      <trkpt lat="44.39126" lon="5.83996">
        <ele>1409.43</ele>
        <time>2012-03-22T12:11:12Z</time>
      </trkpt>
      <trkpt lat="44.39126" lon="5.83996">
        <ele>1409.43</ele>
        <time>2012-03-22T12:11:21Z</time>
      </trkpt>
      <trkpt lat="44.39125" lon="5.83997">
        <ele>1408.95</ele>
        <time>2012-03-22T12:11:43Z</time>
      </trkpt>
      <trkpt lat="44.39124" lon="5.84004">
        <ele>1407.99</ele>
        <time>2012-03-22T12:11:53Z</time>
      </trkpt>
      <trkpt lat="44.39124" lon="5.84005">
        <ele>1408.95</ele>
        <time>2012-03-22T12:11:55Z</time>
      </trkpt>
      <trkpt lat="44.39124" lon="5.84006">
        <ele>1407.03</ele>
        <time>2012-03-22T12:12:09Z</time>
      </trkpt>
      <trkpt lat="44.39123" lon="5.84005">
        <ele>1406.55</ele>
        <time>2012-03-22T12:12:16Z</time>
      </trkpt>
      <trkpt lat="44.3912" lon="5.84009">
        <ele>1406.07</ele>
        <time>2012-03-22T12:12:25Z</time>
      </trkpt>
      <trkpt lat="44.39117" lon="5.84015">
        <ele>1403.18</ele>
        <time>2012-03-22T12:12:35Z</time>
      </trkpt>
      <trkpt lat="44.39115" lon="5.84024">
        <ele>1402.7</ele>
        <time>2012-03-22T12:12:44Z</time>
      </trkpt>
      <trkpt lat="44.39114" lon="5.84028">
        <ele>1402.22</ele>
        <time>2012-03-22T12:12:52Z</time>
      </trkpt>
      <trkpt lat="44.39114" lon="5.8403">
        <ele>1401.74</ele>
        <time>2012-03-22T12:12:54Z</time>
      </trkpt>
      <trkpt lat="44.39113" lon="5.84039">
        <ele>1402.22</ele>
        <time>2012-03-22T12:13:03Z</time>
      </trkpt>
      <trkpt lat="44.39112" lon="5.84046">
        <ele>1399.82</ele>
        <time>2012-03-22T12:13:11Z</time>
      </trkpt>
      <trkpt lat="44.39111" lon="5.84049">
        <ele>1400.3</ele>
        <time>2012-03-22T12:13:15Z</time>
      </trkpt>
      <trkpt lat="44.39109" lon="5.84052">
        <ele>1398.86</ele>
        <time>2012-03-22T12:13:26Z</time>
      </trkpt>
      <trkpt lat="44.39107" lon="5.8406">
        <ele>1399.34</ele>
        <time>2012-03-22T12:13:34Z</time>
      </trkpt>
      <trkpt lat="44.39104" lon="5.84066">
        <ele>1395.97</ele>
        <time>2012-03-22T12:13:40Z</time>
      </trkpt>
      <trkpt lat="44.391" lon="5.84078">
        <ele>1397.41</ele>
        <time>2012-03-22T12:13:51Z</time>
      </trkpt>
      <trkpt lat="44.391" lon="5.84082">
        <ele>1395.49</ele>
        <time>2012-03-22T12:13:55Z</time>
      </trkpt>
      <trkpt lat="44.391" lon="5.84085">
        <ele>1397.41</ele>
        <time>2012-03-22T12:13:57Z</time>
      </trkpt>
      <trkpt lat="44.39099" lon="5.84087">
        <ele>1395.97</ele>
        <time>2012-03-22T12:13:59Z</time>
      </trkpt>
      <trkpt lat="44.39098" lon="5.84093">
        <ele>1399.82</ele>
        <time>2012-03-22T12:14:05Z</time>
      </trkpt>
      <trkpt lat="44.39097" lon="5.84095">
        <ele>1395.01</ele>
        <time>2012-03-22T12:14:07Z</time>
      </trkpt>
      <trkpt lat="44.39096" lon="5.84105">
        <ele>1395.97</ele>
        <time>2012-03-22T12:14:15Z</time>
      </trkpt>
      <trkpt lat="44.39093" lon="5.84113">
        <ele>1395.97</ele>
        <time>2012-03-22T12:14:24Z</time>
      </trkpt>
      <trkpt lat="44.39092" lon="5.84122">
        <ele>1395.97</ele>
        <time>2012-03-22T12:14:33Z</time>
      </trkpt>
      <trkpt lat="44.3909" lon="5.84127">
        <ele>1399.82</ele>
        <time>2012-03-22T12:14:40Z</time>
      </trkpt>
      <trkpt lat="44.3909" lon="5.84128">
        <ele>1396.45</ele>
        <time>2012-03-22T12:14:41Z</time>
      </trkpt>
      <trkpt lat="44.39089" lon="5.84129">
        <ele>1396.93</ele>
        <time>2012-03-22T12:14:50Z</time>
      </trkpt>
      <trkpt lat="44.39089" lon="5.84133">
        <ele>1395.97</ele>
        <time>2012-03-22T12:14:59Z</time>
      </trkpt>
      <trkpt lat="44.39089" lon="5.84136">
        <ele>1396.45</ele>
        <time>2012-03-22T12:15:01Z</time>
      </trkpt>
      <trkpt lat="44.39086" lon="5.84147">
        <ele>1399.34</ele>
        <time>2012-03-22T12:15:08Z</time>
      </trkpt>
      <trkpt lat="44.39085" lon="5.8415">
        <ele>1395.97</ele>
        <time>2012-03-22T12:15:11Z</time>
      </trkpt>
      <trkpt lat="44.39083" lon="5.84158">
        <ele>1396.45</ele>
        <time>2012-03-22T12:15:21Z</time>
      </trkpt>
      <trkpt lat="44.39082" lon="5.84159">
        <ele>1398.37</ele>
        <time>2012-03-22T12:15:40Z</time>
      </trkpt>
      <trkpt lat="44.39079" lon="5.84163">
        <ele>1393.09</ele>
        <time>2012-03-22T12:15:46Z</time>
      </trkpt>
      <trkpt lat="44.39079" lon="5.84163">
        <ele>1398.37</ele>
        <time>2012-03-22T12:15:47Z</time>
      </trkpt>
      <trkpt lat="44.39079" lon="5.84164">
        <ele>1395.01</ele>
        <time>2012-03-22T12:15:48Z</time>
      </trkpt>
      <trkpt lat="44.39075" lon="5.84168">
        <ele>1394.05</ele>
        <time>2012-03-22T12:15:59Z</time>
      </trkpt>
      <trkpt lat="44.39075" lon="5.84172">
        <ele>1397.89</ele>
        <time>2012-03-22T12:16:02Z</time>
      </trkpt>
      <trkpt lat="44.39074" lon="5.84172">
        <ele>1395.97</ele>
        <time>2012-03-22T12:16:03Z</time>
      </trkpt>
      <trkpt lat="44.39071" lon="5.84175">
        <ele>1392.13</ele>
        <time>2012-03-22T12:16:07Z</time>
      </trkpt>
      <trkpt lat="44.3907" lon="5.84178">
        <ele>1396.45</ele>
        <time>2012-03-22T12:16:09Z</time>
      </trkpt>
      <trkpt lat="44.39069" lon="5.84179">
        <ele>1394.05</ele>
        <time>2012-03-22T12:16:10Z</time>
      </trkpt>
      <trkpt lat="44.39068" lon="5.84181">
        <ele>1390.2</ele>
        <time>2012-03-22T12:16:12Z</time>
      </trkpt>
      <trkpt lat="44.39067" lon="5.84182">
        <ele>1390.2</ele>
        <time>2012-03-22T12:16:13Z</time>
      </trkpt>
      <trkpt lat="44.39066" lon="5.84184">
        <ele>1393.09</ele>
        <time>2012-03-22T12:16:15Z</time>
      </trkpt>
      <trkpt lat="44.39061" lon="5.84191">
        <ele>1393.09</ele>
        <time>2012-03-22T12:16:25Z</time>
      </trkpt>
      <trkpt lat="44.39059" lon="5.84196">
        <ele>1388.76</ele>
        <time>2012-03-22T12:16:33Z</time>
      </trkpt>
      <trkpt lat="44.39059" lon="5.84197">
        <ele>1388.28</ele>
        <time>2012-03-22T12:16:35Z</time>
      </trkpt>
      <trkpt lat="44.39056" lon="5.84203">
        <ele>1389.72</ele>
        <time>2012-03-22T12:16:44Z</time>
      </trkpt>
      <trkpt lat="44.39054" lon="5.8421">
        <ele>1386.84</ele>
        <time>2012-03-22T12:16:52Z</time>
      </trkpt>
      <trkpt lat="44.39052" lon="5.84216">
        <ele>1387.32</ele>
        <time>2012-03-22T12:16:57Z</time>
      </trkpt>
      <trkpt lat="44.3905" lon="5.84222">
        <ele>1386.36</ele>
        <time>2012-03-22T12:17:03Z</time>
      </trkpt>
      <trkpt lat="44.39046" lon="5.84229">
        <ele>1387.32</ele>
        <time>2012-03-22T12:17:11Z</time>
      </trkpt>
      <trkpt lat="44.39046" lon="5.84229">
        <ele>1384.44</ele>
        <time>2012-03-22T12:17:12Z</time>
      </trkpt>
      <trkpt lat="44.39046" lon="5.84229">
        <ele>1383.96</ele>
        <time>2012-03-22T12:17:13Z</time>
      </trkpt>
      <trkpt lat="44.39046" lon="5.84229">
        <ele>1388.28</ele>
        <time>2012-03-22T12:17:16Z</time>
      </trkpt>
      <trkpt lat="44.39045" lon="5.84231">
        <ele>1383.96</ele>
        <time>2012-03-22T12:17:18Z</time>
      </trkpt>
      <trkpt lat="44.39044" lon="5.84233">
        <ele>1382.99</ele>
        <time>2012-03-22T12:17:20Z</time>
      </trkpt>
      <trkpt lat="44.3904" lon="5.84245">
        <ele>1384.92</ele>
        <time>2012-03-22T12:17:30Z</time>
      </trkpt>
      <trkpt lat="44.39038" lon="5.84247">
        <ele>1382.03</ele>
        <time>2012-03-22T12:17:35Z</time>
      </trkpt>
      <trkpt lat="44.39033" lon="5.84258">
        <ele>1381.07</ele>
        <time>2012-03-22T12:17:43Z</time>
      </trkpt>
      <trkpt lat="44.39032" lon="5.84262">
        <ele>1380.11</ele>
        <time>2012-03-22T12:17:52Z</time>
      </trkpt>
      <trkpt lat="44.39028" lon="5.84272">
        <ele>1380.59</ele>
        <time>2012-03-22T12:18:02Z</time>
      </trkpt>
      <trkpt lat="44.39027" lon="5.84274">
        <ele>1378.67</ele>
        <time>2012-03-22T12:18:04Z</time>
      </trkpt>
      <trkpt lat="44.3902" lon="5.84283">
        <ele>1376.75</ele>
        <time>2012-03-22T12:18:16Z</time>
      </trkpt>
      <trkpt lat="44.39018" lon="5.84286">
        <ele>1379.63</ele>
        <time>2012-03-22T12:18:22Z</time>
      </trkpt>
      <trkpt lat="44.39016" lon="5.84288">
        <ele>1376.75</ele>
        <time>2012-03-22T12:18:25Z</time>
      </trkpt>
      <trkpt lat="44.39011" lon="5.84303">
        <ele>1375.78</ele>
        <time>2012-03-22T12:18:36Z</time>
      </trkpt>
      <trkpt lat="44.3901" lon="5.84305">
        <ele>1377.23</ele>
        <time>2012-03-22T12:18:38Z</time>
      </trkpt>
      <trkpt lat="44.39008" lon="5.84309">
        <ele>1377.23</ele>
        <time>2012-03-22T12:18:42Z</time>
      </trkpt>
      <trkpt lat="44.39007" lon="5.84311">
        <ele>1371.94</ele>
        <time>2012-03-22T12:18:45Z</time>
      </trkpt>
      <trkpt lat="44.39003" lon="5.8432">
        <ele>1371.46</ele>
        <time>2012-03-22T12:18:54Z</time>
      </trkpt>
      <trkpt lat="44.39002" lon="5.84321">
        <ele>1375.3</ele>
        <time>2012-03-22T12:18:55Z</time>
      </trkpt>
      <trkpt lat="44.39002" lon="5.84322">
        <ele>1371.46</ele>
        <time>2012-03-22T12:18:56Z</time>
      </trkpt>
      <trkpt lat="44.38999" lon="5.84327">
        <ele>1370.98</ele>
        <time>2012-03-22T12:19:03Z</time>
      </trkpt>
      <trkpt lat="44.38999" lon="5.8433">
        <ele>1374.34</ele>
        <time>2012-03-22T12:19:06Z</time>
      </trkpt>
      <trkpt lat="44.38999" lon="5.8433">
        <ele>1373.86</ele>
        <time>2012-03-22T12:19:07Z</time>
      </trkpt>
      <trkpt lat="44.38999" lon="5.8433">
        <ele>1368.57</ele>
        <time>2012-03-22T12:19:10Z</time>
      </trkpt>
      <trkpt lat="44.38999" lon="5.8433">
        <ele>1372.9</ele>
        <time>2012-03-22T12:19:11Z</time>
      </trkpt>
      <trkpt lat="44.38999" lon="5.8433">
        <ele>1367.61</ele>
        <time>2012-03-22T12:19:13Z</time>
      </trkpt>
      <trkpt lat="44.38999" lon="5.8433">
        <ele>1369.54</ele>
        <time>2012-03-22T12:19:14Z</time>
      </trkpt>
      <trkpt lat="44.38998" lon="5.84331">
        <ele>1370.5</ele>
        <time>2012-03-22T12:19:25Z</time>
      </trkpt>
      <trkpt lat="44.38998" lon="5.84331">
        <ele>1366.17</ele>
        <time>2012-03-22T12:19:28Z</time>
      </trkpt>
      <trkpt lat="44.38996" lon="5.84337">
        <ele>1367.13</ele>
        <time>2012-03-22T12:19:39Z</time>
      </trkpt>
      <trkpt lat="44.38995" lon="5.84343">
        <ele>1363.29</ele>
        <time>2012-03-22T12:19:49Z</time>
      </trkpt>
      <trkpt lat="44.38995" lon="5.84343">
        <ele>1370.02</ele>
        <time>2012-03-22T12:19:54Z</time>
      </trkpt>
      <trkpt lat="44.38995" lon="5.84343">
        <ele>1365.69</ele>
        <time>2012-03-22T12:19:55Z</time>
      </trkpt>
      <trkpt lat="44.38994" lon="5.84346">
        <ele>1363.77</ele>
        <time>2012-03-22T12:19:58Z</time>
      </trkpt>
      <trkpt lat="44.38991" lon="5.84355">
        <ele>1364.25</ele>
        <time>2012-03-22T12:20:07Z</time>
      </trkpt>
      <trkpt lat="44.3899" lon="5.84356">
        <ele>1360.88</ele>
        <time>2012-03-22T12:20:08Z</time>
      </trkpt>
      <trkpt lat="44.3899" lon="5.84357">
        <ele>1365.21</ele>
        <time>2012-03-22T12:20:09Z</time>
      </trkpt>
      <trkpt lat="44.38987" lon="5.84362">
        <ele>1365.69</ele>
        <time>2012-03-22T12:20:14Z</time>
      </trkpt>
      <trkpt lat="44.38986" lon="5.84364">
        <ele>1364.73</ele>
        <time>2012-03-22T12:20:16Z</time>
      </trkpt>
      <trkpt lat="44.38985" lon="5.84365">
        <ele>1361.84</ele>
        <time>2012-03-22T12:20:18Z</time>
      </trkpt>
      <trkpt lat="44.38983" lon="5.84371">
        <ele>1362.33</ele>
        <time>2012-03-22T12:20:25Z</time>
      </trkpt>
      <trkpt lat="44.38982" lon="5.84373">
        <ele>1358.96</ele>
        <time>2012-03-22T12:20:27Z</time>
      </trkpt>
      <trkpt lat="44.38981" lon="5.84376">
        <ele>1363.29</ele>
        <time>2012-03-22T12:20:29Z</time>
      </trkpt>
      <trkpt lat="44.3898" lon="5.84378">
        <ele>1358</ele>
        <time>2012-03-22T12:20:30Z</time>
      </trkpt>
      <trkpt lat="44.38979" lon="5.84383">
        <ele>1362.81</ele>
        <time>2012-03-22T12:20:33Z</time>
      </trkpt>
      <trkpt lat="44.38977" lon="5.84385">
        <ele>1358.96</ele>
        <time>2012-03-22T12:20:34Z</time>
      </trkpt>
      <trkpt lat="44.38976" lon="5.84388">
        <ele>1363.29</ele>
        <time>2012-03-22T12:20:36Z</time>
      </trkpt>
      <trkpt lat="44.38975" lon="5.84391">
        <ele>1359.92</ele>
        <time>2012-03-22T12:20:37Z</time>
      </trkpt>
      <trkpt lat="44.38972" lon="5.84398">
        <ele>1358</ele>
        <time>2012-03-22T12:20:40Z</time>
      </trkpt>
      <trkpt lat="44.38971" lon="5.844">
        <ele>1362.33</ele>
        <time>2012-03-22T12:20:41Z</time>
      </trkpt>
      <trkpt lat="44.3897" lon="5.84402">
        <ele>1360.88</ele>
        <time>2012-03-22T12:20:42Z</time>
      </trkpt>
      <trkpt lat="44.3897" lon="5.84402">
        <ele>1357.52</ele>
        <time>2012-03-22T12:20:43Z</time>
      </trkpt>
      <trkpt lat="44.3897" lon="5.84402">
        <ele>1354.15</ele>
        <time>2012-03-22T12:20:51Z</time>
      </trkpt>
      <trkpt lat="44.3897" lon="5.84402">
        <ele>1357.52</ele>
        <time>2012-03-22T12:20:52Z</time>
      </trkpt>
      <trkpt lat="44.3897" lon="5.84402">
        <ele>1358.48</ele>
        <time>2012-03-22T12:20:53Z</time>
      </trkpt>
      <trkpt lat="44.38969" lon="5.84405">
        <ele>1359.44</ele>
        <time>2012-03-22T12:20:55Z</time>
      </trkpt>
      <trkpt lat="44.38968" lon="5.84407">
        <ele>1354.15</ele>
        <time>2012-03-22T12:20:58Z</time>
      </trkpt>
      <trkpt lat="44.38968" lon="5.84407">
        <ele>1355.12</ele>
        <time>2012-03-22T12:20:59Z</time>
      </trkpt>
      <trkpt lat="44.38967" lon="5.84408">
        <ele>1360.88</ele>
        <time>2012-03-22T12:21:02Z</time>
      </trkpt>
      <trkpt lat="44.38967" lon="5.8441">
        <ele>1358.96</ele>
        <time>2012-03-22T12:21:03Z</time>
      </trkpt>
      <trkpt lat="44.38966" lon="5.84413">
        <ele>1357.52</ele>
        <time>2012-03-22T12:21:05Z</time>
      </trkpt>
      <trkpt lat="44.38966" lon="5.84413">
        <ele>1354.15</ele>
        <time>2012-03-22T12:21:06Z</time>
      </trkpt>
      <trkpt lat="44.38966" lon="5.84413">
        <ele>1358</ele>
        <time>2012-03-22T12:21:08Z</time>
      </trkpt>
      <trkpt lat="44.38966" lon="5.84413">
        <ele>1355.12</ele>
        <time>2012-03-22T12:21:11Z</time>
      </trkpt>
      <trkpt lat="44.38965" lon="5.84415">
        <ele>1358.96</ele>
        <time>2012-03-22T12:21:17Z</time>
      </trkpt>
      <trkpt lat="44.38963" lon="5.84418">
        <ele>1356.08</ele>
        <time>2012-03-22T12:21:18Z</time>
      </trkpt>
      <trkpt lat="44.38961" lon="5.84423">
        <ele>1354.15</ele>
        <time>2012-03-22T12:21:20Z</time>
      </trkpt>
      <trkpt lat="44.38958" lon="5.84429">
        <ele>1352.71</ele>
        <time>2012-03-22T12:21:22Z</time>
      </trkpt>
      <trkpt lat="44.38958" lon="5.84429">
        <ele>1355.6</ele>
        <time>2012-03-22T12:21:23Z</time>
      </trkpt>
      <trkpt lat="44.38957" lon="5.84432">
        <ele>1352.23</ele>
        <time>2012-03-22T12:21:24Z</time>
      </trkpt>
      <trkpt lat="44.38951" lon="5.84443">
        <ele>1350.31</ele>
        <time>2012-03-22T12:21:34Z</time>
      </trkpt>
      <trkpt lat="44.3895" lon="5.84446">
        <ele>1348.39</ele>
        <time>2012-03-22T12:21:36Z</time>
      </trkpt>
      <trkpt lat="44.3895" lon="5.84447">
        <ele>1353.19</ele>
        <time>2012-03-22T12:21:37Z</time>
      </trkpt>
      <trkpt lat="44.38949" lon="5.84449">
        <ele>1349.35</ele>
        <time>2012-03-22T12:21:38Z</time>
      </trkpt>
      <trkpt lat="44.38949" lon="5.84449">
        <ele>1355.12</ele>
        <time>2012-03-22T12:21:40Z</time>
      </trkpt>
      <trkpt lat="44.38949" lon="5.8445">
        <ele>1347.43</ele>
        <time>2012-03-22T12:21:41Z</time>
      </trkpt>
      <trkpt lat="44.38948" lon="5.84452">
        <ele>1350.79</ele>
        <time>2012-03-22T12:21:42Z</time>
      </trkpt>
      <trkpt lat="44.38947" lon="5.84454">
        <ele>1351.75</ele>
        <time>2012-03-22T12:21:44Z</time>
      </trkpt>
      <trkpt lat="44.38947" lon="5.84454">
        <ele>1348.87</ele>
        <time>2012-03-22T12:21:46Z</time>
      </trkpt>
      <trkpt lat="44.38944" lon="5.84459">
        <ele>1353.19</ele>
        <time>2012-03-22T12:21:56Z</time>
      </trkpt>
      <trkpt lat="44.38942" lon="5.84462">
        <ele>1348.39</ele>
        <time>2012-03-22T12:21:58Z</time>
      </trkpt>
      <trkpt lat="44.38937" lon="5.84471">
        <ele>1345.5</ele>
        <time>2012-03-22T12:22:02Z</time>
      </trkpt>
      <trkpt lat="44.38934" lon="5.84479">
        <ele>1345.02</ele>
        <time>2012-03-22T12:22:05Z</time>
      </trkpt>
      <trkpt lat="44.38934" lon="5.84479">
        <ele>1345.98</ele>
        <time>2012-03-22T12:22:06Z</time>
      </trkpt>
      <trkpt lat="44.38931" lon="5.84484">
        <ele>1349.83</ele>
        <time>2012-03-22T12:22:11Z</time>
      </trkpt>
      <trkpt lat="44.38931" lon="5.84485">
        <ele>1346.46</ele>
        <time>2012-03-22T12:22:12Z</time>
      </trkpt>
      <trkpt lat="44.38928" lon="5.8449">
        <ele>1350.31</ele>
        <time>2012-03-22T12:22:15Z</time>
      </trkpt>
      <trkpt lat="44.38927" lon="5.84491">
        <ele>1345.98</ele>
        <time>2012-03-22T12:22:16Z</time>
      </trkpt>
      <trkpt lat="44.38923" lon="5.84497">
        <ele>1347.91</ele>
        <time>2012-03-22T12:22:20Z</time>
      </trkpt>
      <trkpt lat="44.38919" lon="5.84499">
        <ele>1352.23</ele>
        <time>2012-03-22T12:22:25Z</time>
      </trkpt>
      <trkpt lat="44.38919" lon="5.84499">
        <ele>1346.94</ele>
        <time>2012-03-22T12:22:26Z</time>
      </trkpt>
      <trkpt lat="44.38912" lon="5.84508">
        <ele>1343.58</ele>
        <time>2012-03-22T12:22:33Z</time>
      </trkpt>
      <trkpt lat="44.38912" lon="5.84509">
        <ele>1343.58</ele>
        <time>2012-03-22T12:22:34Z</time>
      </trkpt>
      <trkpt lat="44.38911" lon="5.84511">
        <ele>1348.39</ele>
        <time>2012-03-22T12:22:38Z</time>
      </trkpt>
      <trkpt lat="44.3891" lon="5.84512">
        <ele>1343.1</ele>
        <time>2012-03-22T12:22:39Z</time>
      </trkpt>
      <trkpt lat="44.38907" lon="5.84519">
        <ele>1350.31</ele>
        <time>2012-03-22T12:22:43Z</time>
      </trkpt>
      <trkpt lat="44.38906" lon="5.84522">
        <ele>1346.46</ele>
        <time>2012-03-22T12:22:44Z</time>
      </trkpt>
      <trkpt lat="44.38906" lon="5.84522">
        <ele>1343.58</ele>
        <time>2012-03-22T12:22:46Z</time>
      </trkpt>
      <trkpt lat="44.38906" lon="5.84522">
        <ele>1345.02</ele>
        <time>2012-03-22T12:22:47Z</time>
      </trkpt>
      <trkpt lat="44.38906" lon="5.84524">
        <ele>1347.91</ele>
        <time>2012-03-22T12:22:52Z</time>
      </trkpt>
      <trkpt lat="44.38906" lon="5.84525">
        <ele>1344.06</ele>
        <time>2012-03-22T12:22:53Z</time>
      </trkpt>
      <trkpt lat="44.38906" lon="5.84525">
        <ele>1338.77</ele>
        <time>2012-03-22T12:22:55Z</time>
      </trkpt>
      <trkpt lat="44.38906" lon="5.84525">
        <ele>1341.66</ele>
        <time>2012-03-22T12:22:56Z</time>
      </trkpt>
      <trkpt lat="44.38904" lon="5.84531">
        <ele>1345.98</ele>
        <time>2012-03-22T12:22:59Z</time>
      </trkpt>
      <trkpt lat="44.38903" lon="5.84536">
        <ele>1342.62</ele>
        <time>2012-03-22T12:23:03Z</time>
      </trkpt>
      <trkpt lat="44.38902" lon="5.84538">
        <ele>1343.58</ele>
        <time>2012-03-22T12:23:04Z</time>
      </trkpt>
      <trkpt lat="44.38892" lon="5.84553">
        <ele>1338.77</ele>
        <time>2012-03-22T12:23:12Z</time>
      </trkpt>
      <trkpt lat="44.3889" lon="5.84554">
        <ele>1338.77</ele>
        <time>2012-03-22T12:23:13Z</time>
      </trkpt>
      <trkpt lat="44.38886" lon="5.84557">
        <ele>1344.06</ele>
        <time>2012-03-22T12:23:19Z</time>
      </trkpt>
      <trkpt lat="44.38886" lon="5.84557">
        <ele>1342.62</ele>
        <time>2012-03-22T12:23:20Z</time>
      </trkpt>
      <trkpt lat="44.38885" lon="5.84557">
        <ele>1339.25</ele>
        <time>2012-03-22T12:23:21Z</time>
      </trkpt>
      <trkpt lat="44.38883" lon="5.84559">
        <ele>1341.66</ele>
        <time>2012-03-22T12:23:22Z</time>
      </trkpt>
      <trkpt lat="44.38883" lon="5.84559">
        <ele>1337.33</ele>
        <time>2012-03-22T12:23:23Z</time>
      </trkpt>
      <trkpt lat="44.38882" lon="5.8456">
        <ele>1340.7</ele>
        <time>2012-03-22T12:23:24Z</time>
      </trkpt>
      <trkpt lat="44.3888" lon="5.84564">
        <ele>1337.81</ele>
        <time>2012-03-22T12:23:28Z</time>
      </trkpt>
      <trkpt lat="44.38879" lon="5.84565">
        <ele>1337.81</ele>
        <time>2012-03-22T12:23:29Z</time>
      </trkpt>
      <trkpt lat="44.38878" lon="5.84567">
        <ele>1341.18</ele>
        <time>2012-03-22T12:23:33Z</time>
      </trkpt>
      <trkpt lat="44.38877" lon="5.84568">
        <ele>1336.37</ele>
        <time>2012-03-22T12:23:35Z</time>
      </trkpt>
      <trkpt lat="44.38872" lon="5.84583">
        <ele>1338.29</ele>
        <time>2012-03-22T12:23:46Z</time>
      </trkpt>
      <trkpt lat="44.38871" lon="5.84584">
        <ele>1333.49</ele>
        <time>2012-03-22T12:23:48Z</time>
      </trkpt>
      <trkpt lat="44.38871" lon="5.84584">
        <ele>1337.33</ele>
        <time>2012-03-22T12:23:49Z</time>
      </trkpt>
      <trkpt lat="44.38871" lon="5.84584">
        <ele>1333.97</ele>
        <time>2012-03-22T12:23:52Z</time>
      </trkpt>
      <trkpt lat="44.38869" lon="5.84588">
        <ele>1339.25</ele>
        <time>2012-03-22T12:23:55Z</time>
      </trkpt>
      <trkpt lat="44.38869" lon="5.84588">
        <ele>1335.41</ele>
        <time>2012-03-22T12:23:56Z</time>
      </trkpt>
      <trkpt lat="44.38866" lon="5.8459">
        <ele>1336.37</ele>
        <time>2012-03-22T12:24:01Z</time>
      </trkpt>
      <trkpt lat="44.38859" lon="5.84595">
        <ele>1331.08</ele>
        <time>2012-03-22T12:24:06Z</time>
      </trkpt>
      <trkpt lat="44.38858" lon="5.84596">
        <ele>1332.04</ele>
        <time>2012-03-22T12:24:07Z</time>
      </trkpt>
      <trkpt lat="44.38856" lon="5.84597">
        <ele>1338.29</ele>
        <time>2012-03-22T12:24:09Z</time>
      </trkpt>
      <trkpt lat="44.38855" lon="5.84597">
        <ele>1333.97</ele>
        <time>2012-03-22T12:24:10Z</time>
      </trkpt>
      <trkpt lat="44.38852" lon="5.846">
        <ele>1331.08</ele>
        <time>2012-03-22T12:24:13Z</time>
      </trkpt>
      <trkpt lat="44.38851" lon="5.84601">
        <ele>1336.85</ele>
        <time>2012-03-22T12:24:14Z</time>
      </trkpt>
      <trkpt lat="44.38851" lon="5.84602">
        <ele>1335.89</ele>
        <time>2012-03-22T12:24:15Z</time>
      </trkpt>
      <trkpt lat="44.3885" lon="5.84604">
        <ele>1332.52</ele>
        <time>2012-03-22T12:24:16Z</time>
      </trkpt>
      <trkpt lat="44.3885" lon="5.84604">
        <ele>1332.52</ele>
        <time>2012-03-22T12:24:17Z</time>
      </trkpt>
      <trkpt lat="44.38848" lon="5.84612">
        <ele>1330.6</ele>
        <time>2012-03-22T12:24:25Z</time>
      </trkpt>
      <trkpt lat="44.38846" lon="5.84617">
        <ele>1335.89</ele>
        <time>2012-03-22T12:24:28Z</time>
      </trkpt>
      <trkpt lat="44.38845" lon="5.84618">
        <ele>1332.52</ele>
        <time>2012-03-22T12:24:29Z</time>
      </trkpt>
      <trkpt lat="44.38844" lon="5.84619">
        <ele>1328.2</ele>
        <time>2012-03-22T12:24:31Z</time>
      </trkpt>
      <trkpt lat="44.38843" lon="5.8462">
        <ele>1333.01</ele>
        <time>2012-03-22T12:24:32Z</time>
      </trkpt>
      <trkpt lat="44.38841" lon="5.84623">
        <ele>1327.72</ele>
        <time>2012-03-22T12:24:39Z</time>
      </trkpt>
      <trkpt lat="44.3884" lon="5.84623">
        <ele>1333.49</ele>
        <time>2012-03-22T12:24:40Z</time>
      </trkpt>
      <trkpt lat="44.38839" lon="5.84623">
        <ele>1328.2</ele>
        <time>2012-03-22T12:24:42Z</time>
      </trkpt>
      <trkpt lat="44.38838" lon="5.84623">
        <ele>1330.12</ele>
        <time>2012-03-22T12:24:43Z</time>
      </trkpt>
      <trkpt lat="44.38837" lon="5.84623">
        <ele>1333.97</ele>
        <time>2012-03-22T12:24:45Z</time>
      </trkpt>
      <trkpt lat="44.38836" lon="5.84623">
        <ele>1329.16</ele>
        <time>2012-03-22T12:24:46Z</time>
      </trkpt>
      <trkpt lat="44.38827" lon="5.84624">
        <ele>1329.16</ele>
        <time>2012-03-22T12:24:54Z</time>
      </trkpt>
      <trkpt lat="44.38825" lon="5.84625">
        <ele>1327.72</ele>
        <time>2012-03-22T12:24:56Z</time>
      </trkpt>
      <trkpt lat="44.38817" lon="5.8463">
        <ele>1327.72</ele>
        <time>2012-03-22T12:25:06Z</time>
      </trkpt>
      <trkpt lat="44.38816" lon="5.84632">
        <ele>1328.68</ele>
        <time>2012-03-22T12:25:11Z</time>
      </trkpt>
      <trkpt lat="44.38815" lon="5.84636">
        <ele>1325.31</ele>
        <time>2012-03-22T12:25:14Z</time>
      </trkpt>
      <trkpt lat="44.38814" lon="5.84638">
        <ele>1329.16</ele>
        <time>2012-03-22T12:25:15Z</time>
      </trkpt>
      <trkpt lat="44.38814" lon="5.84639">
        <ele>1328.2</ele>
        <time>2012-03-22T12:25:16Z</time>
      </trkpt>
      <trkpt lat="44.38814" lon="5.8464">
        <ele>1324.35</ele>
        <time>2012-03-22T12:25:17Z</time>
      </trkpt>
      <trkpt lat="44.38813" lon="5.84641">
        <ele>1329.64</ele>
        <time>2012-03-22T12:25:18Z</time>
      </trkpt>
      <trkpt lat="44.38813" lon="5.84641">
        <ele>1326.28</ele>
        <time>2012-03-22T12:25:19Z</time>
      </trkpt>
      <trkpt lat="44.38812" lon="5.84641">
        <ele>1325.31</ele>
        <time>2012-03-22T12:25:21Z</time>
      </trkpt>
      <trkpt lat="44.38809" lon="5.84645">
        <ele>1327.24</ele>
        <time>2012-03-22T12:25:25Z</time>
      </trkpt>
      <trkpt lat="44.38807" lon="5.84647">
        <ele>1325.31</ele>
        <time>2012-03-22T12:25:27Z</time>
      </trkpt>
      <trkpt lat="44.388" lon="5.84651">
        <ele>1321.95</ele>
        <time>2012-03-22T12:25:34Z</time>
      </trkpt>
      <trkpt lat="44.38799" lon="5.84651">
        <ele>1325.8</ele>
        <time>2012-03-22T12:25:35Z</time>
      </trkpt>
      <trkpt lat="44.38798" lon="5.84651">
        <ele>1321.95</ele>
        <time>2012-03-22T12:25:37Z</time>
      </trkpt>
      <trkpt lat="44.38798" lon="5.84651">
        <ele>1323.39</ele>
        <time>2012-03-22T12:25:38Z</time>
      </trkpt>
      <trkpt lat="44.38797" lon="5.84652">
        <ele>1318.59</ele>
        <time>2012-03-22T12:25:40Z</time>
      </trkpt>
      <trkpt lat="44.38796" lon="5.84652">
        <ele>1324.35</ele>
        <time>2012-03-22T12:25:42Z</time>
      </trkpt>
      <trkpt lat="44.38796" lon="5.84652">
        <ele>1321.95</ele>
        <time>2012-03-22T12:25:43Z</time>
      </trkpt>
      <trkpt lat="44.38795" lon="5.84654">
        <ele>1326.76</ele>
        <time>2012-03-22T12:25:45Z</time>
      </trkpt>
      <trkpt lat="44.38794" lon="5.84655">
        <ele>1322.91</ele>
        <time>2012-03-22T12:25:46Z</time>
      </trkpt>
      <trkpt lat="44.38791" lon="5.84661">
        <ele>1325.8</ele>
        <time>2012-03-22T12:25:51Z</time>
      </trkpt>
      <trkpt lat="44.38791" lon="5.84661">
        <ele>1320.03</ele>
        <time>2012-03-22T12:25:53Z</time>
      </trkpt>
      <trkpt lat="44.38789" lon="5.84663">
        <ele>1323.87</ele>
        <time>2012-03-22T12:25:57Z</time>
      </trkpt>
      <trkpt lat="44.38788" lon="5.84663">
        <ele>1318.59</ele>
        <time>2012-03-22T12:25:59Z</time>
      </trkpt>
      <trkpt lat="44.38788" lon="5.84663">
        <ele>1318.59</ele>
        <time>2012-03-22T12:26:00Z</time>
      </trkpt>
      <trkpt lat="44.38786" lon="5.84664">
        <ele>1325.31</ele>
        <time>2012-03-22T12:26:05Z</time>
      </trkpt>
      <trkpt lat="44.38786" lon="5.84664">
        <ele>1321.95</ele>
        <time>2012-03-22T12:26:06Z</time>
      </trkpt>
      <trkpt lat="44.38786" lon="5.84665">
        <ele>1318.1</ele>
        <time>2012-03-22T12:26:07Z</time>
      </trkpt>
      <trkpt lat="44.38785" lon="5.84666">
        <ele>1319.07</ele>
        <time>2012-03-22T12:26:08Z</time>
      </trkpt>
      <trkpt lat="44.38784" lon="5.84668">
        <ele>1315.7</ele>
        <time>2012-03-22T12:26:11Z</time>
      </trkpt>
      <trkpt lat="44.38782" lon="5.84678">
        <ele>1314.74</ele>
        <time>2012-03-22T12:26:18Z</time>
      </trkpt>
      <trkpt lat="44.38782" lon="5.84679">
        <ele>1318.1</ele>
        <time>2012-03-22T12:26:19Z</time>
      </trkpt>
      <trkpt lat="44.38781" lon="5.8468">
        <ele>1317.62</ele>
        <time>2012-03-22T12:26:20Z</time>
      </trkpt>
      <trkpt lat="44.38779" lon="5.84686">
        <ele>1321.47</ele>
        <time>2012-03-22T12:26:22Z</time>
      </trkpt>
      <trkpt lat="44.38777" lon="5.84689">
        <ele>1316.66</ele>
        <time>2012-03-22T12:26:23Z</time>
      </trkpt>
      <trkpt lat="44.38776" lon="5.84691">
        <ele>1312.82</ele>
        <time>2012-03-22T12:26:24Z</time>
      </trkpt>
      <trkpt lat="44.38774" lon="5.84694">
        <ele>1316.66</ele>
        <time>2012-03-22T12:26:25Z</time>
      </trkpt>
      <trkpt lat="44.38769" lon="5.84706">
        <ele>1320.51</ele>
        <time>2012-03-22T12:26:32Z</time>
      </trkpt>
      <trkpt lat="44.38769" lon="5.84706">
        <ele>1314.74</ele>
        <time>2012-03-22T12:26:33Z</time>
      </trkpt>
      <trkpt lat="44.38769" lon="5.84708">
        <ele>1314.26</ele>
        <time>2012-03-22T12:26:34Z</time>
      </trkpt>
      <trkpt lat="44.38769" lon="5.84708">
        <ele>1318.1</ele>
        <time>2012-03-22T12:26:35Z</time>
      </trkpt>
      <trkpt lat="44.38769" lon="5.84708">
        <ele>1314.26</ele>
        <time>2012-03-22T12:26:37Z</time>
      </trkpt>
      <trkpt lat="44.38768" lon="5.84709">
        <ele>1317.62</ele>
        <time>2012-03-22T12:26:42Z</time>
      </trkpt>
      <trkpt lat="44.38768" lon="5.8471">
        <ele>1313.78</ele>
        <time>2012-03-22T12:26:43Z</time>
      </trkpt>
      <trkpt lat="44.38764" lon="5.84716">
        <ele>1309.45</ele>
        <time>2012-03-22T12:26:52Z</time>
      </trkpt>
      <trkpt lat="44.38764" lon="5.84717">
        <ele>1311.38</ele>
        <time>2012-03-22T12:26:55Z</time>
      </trkpt>
      <trkpt lat="44.38764" lon="5.84717">
        <ele>1317.14</ele>
        <time>2012-03-22T12:26:57Z</time>
      </trkpt>
      <trkpt lat="44.38764" lon="5.84717">
        <ele>1311.86</ele>
        <time>2012-03-22T12:26:58Z</time>
      </trkpt>
      <trkpt lat="44.38764" lon="5.84721">
        <ele>1313.3</ele>
        <time>2012-03-22T12:27:13Z</time>
      </trkpt>
      <trkpt lat="44.38764" lon="5.84721">
        <ele>1308.01</ele>
        <time>2012-03-22T12:27:15Z</time>
      </trkpt>
      <trkpt lat="44.38764" lon="5.84721">
        <ele>1309.45</ele>
        <time>2012-03-22T12:27:16Z</time>
      </trkpt>
      <trkpt lat="44.38763" lon="5.84725">
        <ele>1313.78</ele>
        <time>2012-03-22T12:27:18Z</time>
      </trkpt>
      <trkpt lat="44.38763" lon="5.84725">
        <ele>1310.41</ele>
        <time>2012-03-22T12:27:19Z</time>
      </trkpt>
      <trkpt lat="44.38762" lon="5.84726">
        <ele>1308.01</ele>
        <time>2012-03-22T12:27:22Z</time>
      </trkpt>
      <trkpt lat="44.3876" lon="5.84731">
        <ele>1309.93</ele>
        <time>2012-03-22T12:27:27Z</time>
      </trkpt>
      <trkpt lat="44.38759" lon="5.84734">
        <ele>1305.61</ele>
        <time>2012-03-22T12:27:29Z</time>
      </trkpt>
      <trkpt lat="44.38759" lon="5.84734">
        <ele>1313.3</ele>
        <time>2012-03-22T12:27:30Z</time>
      </trkpt>
      <trkpt lat="44.38759" lon="5.84734">
        <ele>1310.41</ele>
        <time>2012-03-22T12:27:31Z</time>
      </trkpt>
      <trkpt lat="44.38759" lon="5.84735">
        <ele>1308.01</ele>
        <time>2012-03-22T12:27:33Z</time>
      </trkpt>
      <trkpt lat="44.38758" lon="5.84737">
        <ele>1311.86</ele>
        <time>2012-03-22T12:27:37Z</time>
      </trkpt>
      <trkpt lat="44.38757" lon="5.84741">
        <ele>1308.49</ele>
        <time>2012-03-22T12:27:39Z</time>
      </trkpt>
      <trkpt lat="44.38757" lon="5.84741">
        <ele>1308.49</ele>
        <time>2012-03-22T12:27:40Z</time>
      </trkpt>
      <trkpt lat="44.38757" lon="5.84744">
        <ele>1301.28</ele>
        <time>2012-03-22T12:27:46Z</time>
      </trkpt>
      <trkpt lat="44.38757" lon="5.84744">
        <ele>1310.41</ele>
        <time>2012-03-22T12:27:47Z</time>
      </trkpt>
      <trkpt lat="44.38757" lon="5.84744">
        <ele>1308.01</ele>
        <time>2012-03-22T12:27:48Z</time>
      </trkpt>
      <trkpt lat="44.38756" lon="5.84747">
        <ele>1299.84</ele>
        <time>2012-03-22T12:27:50Z</time>
      </trkpt>
      <trkpt lat="44.38754" lon="5.84754">
        <ele>1303.2</ele>
        <time>2012-03-22T12:27:51Z</time>
      </trkpt>
      <trkpt lat="44.38752" lon="5.84757">
        <ele>1306.09</ele>
        <time>2012-03-22T12:27:53Z</time>
      </trkpt>
      <trkpt lat="44.38752" lon="5.84761">
        <ele>1301.76</ele>
        <time>2012-03-22T12:27:58Z</time>
      </trkpt>
      <trkpt lat="44.38752" lon="5.84761">
        <ele>1307.53</ele>
        <time>2012-03-22T12:27:59Z</time>
      </trkpt>
      <trkpt lat="44.38751" lon="5.84763">
        <ele>1303.69</ele>
        <time>2012-03-22T12:28:03Z</time>
      </trkpt>
      <trkpt lat="44.38748" lon="5.84771">
        <ele>1308.49</ele>
        <time>2012-03-22T12:28:08Z</time>
      </trkpt>
      <trkpt lat="44.38747" lon="5.84774">
        <ele>1308.01</ele>
        <time>2012-03-22T12:28:09Z</time>
      </trkpt>
      <trkpt lat="44.38746" lon="5.84778">
        <ele>1305.61</ele>
        <time>2012-03-22T12:28:11Z</time>
      </trkpt>
      <trkpt lat="44.38746" lon="5.84781">
        <ele>1308.97</ele>
        <time>2012-03-22T12:28:12Z</time>
      </trkpt>
      <trkpt lat="44.38745" lon="5.84783">
        <ele>1301.76</ele>
        <time>2012-03-22T12:28:13Z</time>
      </trkpt>
      <trkpt lat="44.38744" lon="5.84785">
        <ele>1305.13</ele>
        <time>2012-03-22T12:28:14Z</time>
      </trkpt>
      <trkpt lat="44.38743" lon="5.84788">
        <ele>1299.36</ele>
        <time>2012-03-22T12:28:18Z</time>
      </trkpt>
      <trkpt lat="44.38742" lon="5.8479">
        <ele>1307.05</ele>
        <time>2012-03-22T12:28:19Z</time>
      </trkpt>
      <trkpt lat="44.3874" lon="5.84793">
        <ele>1304.17</ele>
        <time>2012-03-22T12:28:20Z</time>
      </trkpt>
      <trkpt lat="44.38739" lon="5.84795">
        <ele>1309.45</ele>
        <time>2012-03-22T12:28:21Z</time>
      </trkpt>
      <trkpt lat="44.38739" lon="5.84796">
        <ele>1302.72</ele>
        <time>2012-03-22T12:28:22Z</time>
      </trkpt>
      <trkpt lat="44.38738" lon="5.84797">
        <ele>1296.96</ele>
        <time>2012-03-22T12:28:23Z</time>
      </trkpt>
      <trkpt lat="44.38737" lon="5.84799">
        <ele>1304.17</ele>
        <time>2012-03-22T12:28:24Z</time>
      </trkpt>
      <trkpt lat="44.38737" lon="5.84799">
        <ele>1307.53</ele>
        <time>2012-03-22T12:28:25Z</time>
      </trkpt>
      <trkpt lat="44.38736" lon="5.848">
        <ele>1303.2</ele>
        <time>2012-03-22T12:28:26Z</time>
      </trkpt>
      <trkpt lat="44.38729" lon="5.84808">
        <ele>1304.17</ele>
        <time>2012-03-22T12:28:33Z</time>
      </trkpt>
      <trkpt lat="44.38728" lon="5.8481">
        <ele>1299.84</ele>
        <time>2012-03-22T12:28:34Z</time>
      </trkpt>
      <trkpt lat="44.38727" lon="5.84811">
        <ele>1303.69</ele>
        <time>2012-03-22T12:28:35Z</time>
      </trkpt>
      <trkpt lat="44.38723" lon="5.84814">
        <ele>1298.88</ele>
        <time>2012-03-22T12:28:38Z</time>
      </trkpt>
      <trkpt lat="44.38716" lon="5.84828">
        <ele>1304.65</ele>
        <time>2012-03-22T12:28:40Z</time>
      </trkpt>
      <trkpt lat="44.38716" lon="5.84829">
        <ele>1298.88</ele>
        <time>2012-03-22T12:28:41Z</time>
      </trkpt>
      <trkpt lat="44.38716" lon="5.84829">
        <ele>1304.65</ele>
        <time>2012-03-22T12:28:43Z</time>
      </trkpt>
      <trkpt lat="44.38716" lon="5.8483">
        <ele>1298.88</ele>
        <time>2012-03-22T12:28:44Z</time>
      </trkpt>
      <trkpt lat="44.38716" lon="5.8483">
        <ele>1305.61</ele>
        <time>2012-03-22T12:28:45Z</time>
      </trkpt>
      <trkpt lat="44.38715" lon="5.84831">
        <ele>1301.28</ele>
        <time>2012-03-22T12:28:47Z</time>
      </trkpt>
      <trkpt lat="44.38714" lon="5.84832">
        <ele>1301.28</ele>
        <time>2012-03-22T12:28:48Z</time>
      </trkpt>
      <trkpt lat="44.38712" lon="5.84835">
        <ele>1302.72</ele>
        <time>2012-03-22T12:28:50Z</time>
      </trkpt>
      <trkpt lat="44.38711" lon="5.84837">
        <ele>1298.88</ele>
        <time>2012-03-22T12:28:52Z</time>
      </trkpt>
      <trkpt lat="44.38711" lon="5.84837">
        <ele>1302.72</ele>
        <time>2012-03-22T12:28:53Z</time>
      </trkpt>
      <trkpt lat="44.38711" lon="5.84837">
        <ele>1299.36</ele>
        <time>2012-03-22T12:28:55Z</time>
      </trkpt>
      <trkpt lat="44.38704" lon="5.84851">
        <ele>1296.48</ele>
        <time>2012-03-22T12:29:02Z</time>
      </trkpt>
      <trkpt lat="44.38704" lon="5.84852">
        <ele>1296.96</ele>
        <time>2012-03-22T12:29:03Z</time>
      </trkpt>
      <trkpt lat="44.38703" lon="5.84853">
        <ele>1298.4</ele>
        <time>2012-03-22T12:29:05Z</time>
      </trkpt>
      <trkpt lat="44.38702" lon="5.84856">
        <ele>1301.76</ele>
        <time>2012-03-22T12:29:10Z</time>
      </trkpt>
      <trkpt lat="44.38698" lon="5.84865">
        <ele>1296.48</ele>
        <time>2012-03-22T12:29:14Z</time>
      </trkpt>
      <trkpt lat="44.38697" lon="5.84867">
        <ele>1296.48</ele>
        <time>2012-03-22T12:29:15Z</time>
      </trkpt>
      <trkpt lat="44.38697" lon="5.84869">
        <ele>1300.32</ele>
        <time>2012-03-22T12:29:16Z</time>
      </trkpt>
      <trkpt lat="44.38696" lon="5.84876">
        <ele>1295.99</ele>
        <time>2012-03-22T12:29:20Z</time>
      </trkpt>
      <trkpt lat="44.38696" lon="5.84877">
        <ele>1296.96</ele>
        <time>2012-03-22T12:29:21Z</time>
      </trkpt>
      <trkpt lat="44.38696" lon="5.84878">
        <ele>1302.24</ele>
        <time>2012-03-22T12:29:22Z</time>
      </trkpt>
      <trkpt lat="44.38696" lon="5.84879">
        <ele>1300.32</ele>
        <time>2012-03-22T12:29:23Z</time>
      </trkpt>
      <trkpt lat="44.38696" lon="5.84883">
        <ele>1297.44</ele>
        <time>2012-03-22T12:29:26Z</time>
      </trkpt>
      <trkpt lat="44.38695" lon="5.84887">
        <ele>1294.07</ele>
        <time>2012-03-22T12:29:28Z</time>
      </trkpt>
      <trkpt lat="44.38694" lon="5.84888">
        <ele>1295.03</ele>
        <time>2012-03-22T12:29:29Z</time>
      </trkpt>
      <trkpt lat="44.38694" lon="5.8489">
        <ele>1299.36</ele>
        <time>2012-03-22T12:29:30Z</time>
      </trkpt>
      <trkpt lat="44.38695" lon="5.84891">
        <ele>1296.48</ele>
        <time>2012-03-22T12:29:31Z</time>
      </trkpt>
      <trkpt lat="44.38695" lon="5.84895">
        <ele>1292.15</ele>
        <time>2012-03-22T12:29:35Z</time>
      </trkpt>
      <trkpt lat="44.38695" lon="5.84896">
        <ele>1297.44</ele>
        <time>2012-03-22T12:29:36Z</time>
      </trkpt>
      <trkpt lat="44.38697" lon="5.84901">
        <ele>1295.51</ele>
        <time>2012-03-22T12:29:39Z</time>
      </trkpt>
      <trkpt lat="44.38697" lon="5.84904">
        <ele>1290.23</ele>
        <time>2012-03-22T12:29:41Z</time>
      </trkpt>
      <trkpt lat="44.38697" lon="5.84906">
        <ele>1292.63</ele>
        <time>2012-03-22T12:29:42Z</time>
      </trkpt>
      <trkpt lat="44.38697" lon="5.84907">
        <ele>1296.96</ele>
        <time>2012-03-22T12:29:43Z</time>
      </trkpt>
      <trkpt lat="44.38696" lon="5.84908">
        <ele>1295.51</ele>
        <time>2012-03-22T12:29:44Z</time>
      </trkpt>
      <trkpt lat="44.38695" lon="5.84912">
        <ele>1295.03</ele>
        <time>2012-03-22T12:29:47Z</time>
      </trkpt>
      <trkpt lat="44.38694" lon="5.84913">
        <ele>1295.03</ele>
        <time>2012-03-22T12:29:48Z</time>
      </trkpt>
      <trkpt lat="44.38693" lon="5.84918">
        <ele>1294.55</ele>
        <time>2012-03-22T12:29:51Z</time>
      </trkpt>
      <trkpt lat="44.38691" lon="5.84922">
        <ele>1295.03</ele>
        <time>2012-03-22T12:29:55Z</time>
      </trkpt>
      <trkpt lat="44.38689" lon="5.84927">
        <ele>1295.51</ele>
        <time>2012-03-22T12:29:58Z</time>
      </trkpt>
      <trkpt lat="44.38688" lon="5.8493">
        <ele>1292.63</ele>
        <time>2012-03-22T12:30:01Z</time>
      </trkpt>
      <trkpt lat="44.38687" lon="5.84931">
        <ele>1295.99</ele>
        <time>2012-03-22T12:30:02Z</time>
      </trkpt>
      <trkpt lat="44.38685" lon="5.84933">
        <ele>1292.15</ele>
        <time>2012-03-22T12:30:04Z</time>
      </trkpt>
      <trkpt lat="44.38684" lon="5.84936">
        <ele>1295.99</ele>
        <time>2012-03-22T12:30:06Z</time>
      </trkpt>
      <trkpt lat="44.38683" lon="5.84938">
        <ele>1292.63</ele>
        <time>2012-03-22T12:30:07Z</time>
      </trkpt>
      <trkpt lat="44.38682" lon="5.84941">
        <ele>1289.27</ele>
        <time>2012-03-22T12:30:09Z</time>
      </trkpt>
      <trkpt lat="44.38682" lon="5.84942">
        <ele>1292.63</ele>
        <time>2012-03-22T12:30:10Z</time>
      </trkpt>
      <trkpt lat="44.38681" lon="5.84944">
        <ele>1293.11</ele>
        <time>2012-03-22T12:30:12Z</time>
      </trkpt>
      <trkpt lat="44.38678" lon="5.8495">
        <ele>1291.19</ele>
        <time>2012-03-22T12:30:22Z</time>
      </trkpt>
      <trkpt lat="44.38678" lon="5.8495">
        <ele>1294.07</ele>
        <time>2012-03-22T12:30:24Z</time>
      </trkpt>
      <trkpt lat="44.38676" lon="5.84952">
        <ele>1290.23</ele>
        <time>2012-03-22T12:30:26Z</time>
      </trkpt>
      <trkpt lat="44.38669" lon="5.84959">
        <ele>1289.27</ele>
        <time>2012-03-22T12:30:36Z</time>
      </trkpt>
      <trkpt lat="44.38668" lon="5.8496">
        <ele>1286.38</ele>
        <time>2012-03-22T12:30:37Z</time>
      </trkpt>
      <trkpt lat="44.38667" lon="5.84962">
        <ele>1290.23</ele>
        <time>2012-03-22T12:30:40Z</time>
      </trkpt>
      <trkpt lat="44.38667" lon="5.84962">
        <ele>1289.27</ele>
        <time>2012-03-22T12:30:41Z</time>
      </trkpt>
      <trkpt lat="44.38664" lon="5.84965">
        <ele>1287.82</ele>
        <time>2012-03-22T12:30:44Z</time>
      </trkpt>
      <trkpt lat="44.38661" lon="5.84971">
        <ele>1291.19</ele>
        <time>2012-03-22T12:30:51Z</time>
      </trkpt>
      <trkpt lat="44.3866" lon="5.84972">
        <ele>1288.3</ele>
        <time>2012-03-22T12:30:54Z</time>
      </trkpt>
      <trkpt lat="44.38658" lon="5.84975">
        <ele>1292.15</ele>
        <time>2012-03-22T12:30:58Z</time>
      </trkpt>
      <trkpt lat="44.38657" lon="5.84976">
        <ele>1286.38</ele>
        <time>2012-03-22T12:30:59Z</time>
      </trkpt>
      <trkpt lat="44.38657" lon="5.84978">
        <ele>1286.38</ele>
        <time>2012-03-22T12:31:00Z</time>
      </trkpt>
      <trkpt lat="44.38653" lon="5.84983">
        <ele>1282.06</ele>
        <time>2012-03-22T12:31:04Z</time>
      </trkpt>
      <trkpt lat="44.38652" lon="5.84985">
        <ele>1287.34</ele>
        <time>2012-03-22T12:31:05Z</time>
      </trkpt>
      <trkpt lat="44.38649" lon="5.84989">
        <ele>1281.09</ele>
        <time>2012-03-22T12:31:11Z</time>
      </trkpt>
      <trkpt lat="44.38648" lon="5.84991">
        <ele>1283.5</ele>
        <time>2012-03-22T12:31:12Z</time>
      </trkpt>
      <trkpt lat="44.38648" lon="5.84992">
        <ele>1288.78</ele>
        <time>2012-03-22T12:31:13Z</time>
      </trkpt>
      <trkpt lat="44.38647" lon="5.84993">
        <ele>1286.38</ele>
        <time>2012-03-22T12:31:14Z</time>
      </trkpt>
      <trkpt lat="44.38646" lon="5.84995">
        <ele>1285.42</ele>
        <time>2012-03-22T12:31:16Z</time>
      </trkpt>
      <trkpt lat="44.38646" lon="5.84996">
        <ele>1280.61</ele>
        <time>2012-03-22T12:31:18Z</time>
      </trkpt>
      <trkpt lat="44.38645" lon="5.84997">
        <ele>1287.34</ele>
        <time>2012-03-22T12:31:19Z</time>
      </trkpt>
      <trkpt lat="44.38645" lon="5.84998">
        <ele>1286.86</ele>
        <time>2012-03-22T12:31:20Z</time>
      </trkpt>
      <trkpt lat="44.38645" lon="5.84999">
        <ele>1283.98</ele>
        <time>2012-03-22T12:31:22Z</time>
      </trkpt>
      <trkpt lat="44.38645" lon="5.85">
        <ele>1281.09</ele>
        <time>2012-03-22T12:31:24Z</time>
      </trkpt>
      <trkpt lat="44.38643" lon="5.85002">
        <ele>1288.3</ele>
        <time>2012-03-22T12:31:26Z</time>
      </trkpt>
      <trkpt lat="44.38643" lon="5.85003">
        <ele>1286.38</ele>
        <time>2012-03-22T12:31:27Z</time>
      </trkpt>
      <trkpt lat="44.38642" lon="5.85004">
        <ele>1282.54</ele>
        <time>2012-03-22T12:31:29Z</time>
      </trkpt>
      <trkpt lat="44.38642" lon="5.85004">
        <ele>1283.98</ele>
        <time>2012-03-22T12:31:30Z</time>
      </trkpt>
      <trkpt lat="44.38641" lon="5.85006">
        <ele>1279.17</ele>
        <time>2012-03-22T12:31:32Z</time>
      </trkpt>
      <trkpt lat="44.3864" lon="5.85007">
        <ele>1283.02</ele>
        <time>2012-03-22T12:31:33Z</time>
      </trkpt>
      <trkpt lat="44.38638" lon="5.85009">
        <ele>1285.42</ele>
        <time>2012-03-22T12:31:35Z</time>
      </trkpt>
      <trkpt lat="44.38633" lon="5.85014">
        <ele>1279.65</ele>
        <time>2012-03-22T12:31:40Z</time>
      </trkpt>
      <trkpt lat="44.38618" lon="5.85031">
        <ele>1277.25</ele>
        <time>2012-03-22T12:31:48Z</time>
      </trkpt>
      <trkpt lat="44.38617" lon="5.85033">
        <ele>1282.54</ele>
        <time>2012-03-22T12:31:49Z</time>
      </trkpt>
      <trkpt lat="44.38609" lon="5.8504">
        <ele>1280.61</ele>
        <time>2012-03-22T12:31:55Z</time>
      </trkpt>
      <trkpt lat="44.38606" lon="5.85041">
        <ele>1285.42</ele>
        <time>2012-03-22T12:31:58Z</time>
      </trkpt>
      <trkpt lat="44.38605" lon="5.85042">
        <ele>1279.65</ele>
        <time>2012-03-22T12:31:59Z</time>
      </trkpt>
      <trkpt lat="44.38605" lon="5.85042">
        <ele>1280.13</ele>
        <time>2012-03-22T12:32:00Z</time>
      </trkpt>
      <trkpt lat="44.38601" lon="5.85046">
        <ele>1283.98</ele>
        <time>2012-03-22T12:32:05Z</time>
      </trkpt>
      <trkpt lat="44.386" lon="5.85047">
        <ele>1279.65</ele>
        <time>2012-03-22T12:32:06Z</time>
      </trkpt>
      <trkpt lat="44.38596" lon="5.85048">
        <ele>1274.36</ele>
        <time>2012-03-22T12:32:12Z</time>
      </trkpt>
      <trkpt lat="44.38596" lon="5.85049">
        <ele>1277.73</ele>
        <time>2012-03-22T12:32:13Z</time>
      </trkpt>
      <trkpt lat="44.38593" lon="5.85052">
        <ele>1274.85</ele>
        <time>2012-03-22T12:32:18Z</time>
      </trkpt>
      <trkpt lat="44.38592" lon="5.85053">
        <ele>1274.85</ele>
        <time>2012-03-22T12:32:19Z</time>
      </trkpt>
      <trkpt lat="44.38591" lon="5.85054">
        <ele>1279.65</ele>
        <time>2012-03-22T12:32:20Z</time>
      </trkpt>
      <trkpt lat="44.3859" lon="5.85055">
        <ele>1279.65</ele>
        <time>2012-03-22T12:32:21Z</time>
      </trkpt>
      <trkpt lat="44.38589" lon="5.85056">
        <ele>1276.29</ele>
        <time>2012-03-22T12:32:22Z</time>
      </trkpt>
      <trkpt lat="44.38588" lon="5.85058">
        <ele>1273.4</ele>
        <time>2012-03-22T12:32:24Z</time>
      </trkpt>
      <trkpt lat="44.38588" lon="5.85058">
        <ele>1273.88</ele>
        <time>2012-03-22T12:32:25Z</time>
      </trkpt>
      <trkpt lat="44.38587" lon="5.85058">
        <ele>1278.69</ele>
        <time>2012-03-22T12:32:27Z</time>
      </trkpt>
      <trkpt lat="44.38587" lon="5.85058">
        <ele>1276.29</ele>
        <time>2012-03-22T12:32:28Z</time>
      </trkpt>
      <trkpt lat="44.38583" lon="5.85062">
        <ele>1269.08</ele>
        <time>2012-03-22T12:32:32Z</time>
      </trkpt>
      <trkpt lat="44.38582" lon="5.85062">
        <ele>1276.77</ele>
        <time>2012-03-22T12:32:33Z</time>
      </trkpt>
      <trkpt lat="44.38581" lon="5.85064">
        <ele>1277.25</ele>
        <time>2012-03-22T12:32:35Z</time>
      </trkpt>
      <trkpt lat="44.38578" lon="5.85067">
        <ele>1271</ele>
        <time>2012-03-22T12:32:39Z</time>
      </trkpt>
      <trkpt lat="44.38577" lon="5.85068">
        <ele>1273.4</ele>
        <time>2012-03-22T12:32:40Z</time>
      </trkpt>
      <trkpt lat="44.38575" lon="5.8507">
        <ele>1276.29</ele>
        <time>2012-03-22T12:32:41Z</time>
      </trkpt>
      <trkpt lat="44.38572" lon="5.85075">
        <ele>1272.44</ele>
        <time>2012-03-22T12:32:44Z</time>
      </trkpt>
      <trkpt lat="44.3857" lon="5.85075">
        <ele>1269.08</ele>
        <time>2012-03-22T12:32:47Z</time>
      </trkpt>
      <trkpt lat="44.3857" lon="5.85076">
        <ele>1273.88</ele>
        <time>2012-03-22T12:32:48Z</time>
      </trkpt>
      <trkpt lat="44.38565" lon="5.85081">
        <ele>1278.21</ele>
        <time>2012-03-22T12:32:52Z</time>
      </trkpt>
      <trkpt lat="44.38565" lon="5.85082">
        <ele>1273.88</ele>
        <time>2012-03-22T12:32:53Z</time>
      </trkpt>
      <trkpt lat="44.38564" lon="5.85083">
        <ele>1270.52</ele>
        <time>2012-03-22T12:32:55Z</time>
      </trkpt>
      <trkpt lat="44.38562" lon="5.85084">
        <ele>1275.81</ele>
        <time>2012-03-22T12:32:57Z</time>
      </trkpt>
      <trkpt lat="44.38562" lon="5.85084">
        <ele>1273.88</ele>
        <time>2012-03-22T12:32:58Z</time>
      </trkpt>
      <trkpt lat="44.38559" lon="5.85086">
        <ele>1269.56</ele>
        <time>2012-03-22T12:33:04Z</time>
      </trkpt>
      <trkpt lat="44.38557" lon="5.85086">
        <ele>1277.25</ele>
        <time>2012-03-22T12:33:07Z</time>
      </trkpt>
      <trkpt lat="44.38557" lon="5.85086">
        <ele>1270.52</ele>
        <time>2012-03-22T12:33:08Z</time>
      </trkpt>
      <trkpt lat="44.38556" lon="5.85087">
        <ele>1273.4</ele>
        <time>2012-03-22T12:33:10Z</time>
      </trkpt>
      <trkpt lat="44.38556" lon="5.85085">
        <ele>1269.56</ele>
        <time>2012-03-22T12:33:12Z</time>
      </trkpt>
      <trkpt lat="44.38556" lon="5.85084">
        <ele>1275.33</ele>
        <time>2012-03-22T12:33:13Z</time>
      </trkpt>
      <trkpt lat="44.38556" lon="5.85084">
        <ele>1270.04</ele>
        <time>2012-03-22T12:33:15Z</time>
      </trkpt>
      <trkpt lat="44.38556" lon="5.85084">
        <ele>1270.52</ele>
        <time>2012-03-22T12:33:16Z</time>
      </trkpt>
      <trkpt lat="44.38555" lon="5.85085">
        <ele>1272.44</ele>
        <time>2012-03-22T12:33:17Z</time>
      </trkpt>
      <trkpt lat="44.38553" lon="5.85087">
        <ele>1269.08</ele>
        <time>2012-03-22T12:33:19Z</time>
      </trkpt>
      <trkpt lat="44.3855" lon="5.8509">
        <ele>1275.33</ele>
        <time>2012-03-22T12:33:22Z</time>
      </trkpt>
      <trkpt lat="44.3855" lon="5.85091">
        <ele>1272.92</ele>
        <time>2012-03-22T12:33:23Z</time>
      </trkpt>
      <trkpt lat="44.38549" lon="5.85091">
        <ele>1269.56</ele>
        <time>2012-03-22T12:33:24Z</time>
      </trkpt>
      <trkpt lat="44.38548" lon="5.85091">
        <ele>1266.67</ele>
        <time>2012-03-22T12:33:28Z</time>
      </trkpt>
      <trkpt lat="44.38547" lon="5.85092">
        <ele>1262.83</ele>
        <time>2012-03-22T12:33:29Z</time>
      </trkpt>
      <trkpt lat="44.38547" lon="5.85092">
        <ele>1269.08</ele>
        <time>2012-03-22T12:33:30Z</time>
      </trkpt>
      <trkpt lat="44.38546" lon="5.85093">
        <ele>1268.12</ele>
        <time>2012-03-22T12:33:31Z</time>
      </trkpt>
      <trkpt lat="44.38544" lon="5.85096">
        <ele>1265.23</ele>
        <time>2012-03-22T12:33:35Z</time>
      </trkpt>
      <trkpt lat="44.38543" lon="5.85098">
        <ele>1268.6</ele>
        <time>2012-03-22T12:33:36Z</time>
      </trkpt>
      <trkpt lat="44.38538" lon="5.85103">
        <ele>1265.23</ele>
        <time>2012-03-22T12:33:42Z</time>
      </trkpt>
      <trkpt lat="44.38537" lon="5.85104">
        <ele>1268.6</ele>
        <time>2012-03-22T12:33:43Z</time>
      </trkpt>
      <trkpt lat="44.38536" lon="5.85105">
        <ele>1262.83</ele>
        <time>2012-03-22T12:33:44Z</time>
      </trkpt>
      <trkpt lat="44.38535" lon="5.85107">
        <ele>1270.52</ele>
        <time>2012-03-22T12:33:46Z</time>
      </trkpt>
      <trkpt lat="44.38534" lon="5.85108">
        <ele>1267.64</ele>
        <time>2012-03-22T12:33:47Z</time>
      </trkpt>
      <trkpt lat="44.3853" lon="5.85111">
        <ele>1263.31</ele>
        <time>2012-03-22T12:33:50Z</time>
      </trkpt>
      <trkpt lat="44.38527" lon="5.85115">
        <ele>1268.6</ele>
        <time>2012-03-22T12:33:53Z</time>
      </trkpt>
      <trkpt lat="44.38526" lon="5.85116">
        <ele>1264.27</ele>
        <time>2012-03-22T12:33:54Z</time>
      </trkpt>
      <trkpt lat="44.38522" lon="5.8512">
        <ele>1258.98</ele>
        <time>2012-03-22T12:33:59Z</time>
      </trkpt>
      <trkpt lat="44.38521" lon="5.85121">
        <ele>1260.43</ele>
        <time>2012-03-22T12:34:00Z</time>
      </trkpt>
      <trkpt lat="44.3852" lon="5.85122">
        <ele>1271</ele>
        <time>2012-03-22T12:34:01Z</time>
      </trkpt>
      <trkpt lat="44.38519" lon="5.85123">
        <ele>1267.64</ele>
        <time>2012-03-22T12:34:02Z</time>
      </trkpt>
      <trkpt lat="44.38516" lon="5.85127">
        <ele>1266.19</ele>
        <time>2012-03-22T12:34:04Z</time>
      </trkpt>
      <trkpt lat="44.38514" lon="5.85129">
        <ele>1262.83</ele>
        <time>2012-03-22T12:34:06Z</time>
      </trkpt>
      <trkpt lat="44.38513" lon="5.85129">
        <ele>1258.5</ele>
        <time>2012-03-22T12:34:07Z</time>
      </trkpt>
      <trkpt lat="44.38512" lon="5.8513">
        <ele>1266.67</ele>
        <time>2012-03-22T12:34:08Z</time>
      </trkpt>
      <trkpt lat="44.38511" lon="5.85131">
        <ele>1264.27</ele>
        <time>2012-03-22T12:34:09Z</time>
      </trkpt>
      <trkpt lat="44.38506" lon="5.85136">
        <ele>1259.94</ele>
        <time>2012-03-22T12:34:14Z</time>
      </trkpt>
      <trkpt lat="44.38505" lon="5.85137">
        <ele>1263.79</ele>
        <time>2012-03-22T12:34:15Z</time>
      </trkpt>
      <trkpt lat="44.38503" lon="5.8514">
        <ele>1261.87</ele>
        <time>2012-03-22T12:34:18Z</time>
      </trkpt>
      <trkpt lat="44.38503" lon="5.8514">
        <ele>1267.64</ele>
        <time>2012-03-22T12:34:19Z</time>
      </trkpt>
      <trkpt lat="44.38503" lon="5.8514">
        <ele>1263.31</ele>
        <time>2012-03-22T12:34:20Z</time>
      </trkpt>
      <trkpt lat="44.38502" lon="5.85139">
        <ele>1259.94</ele>
        <time>2012-03-22T12:34:21Z</time>
      </trkpt>
      <trkpt lat="44.38501" lon="5.85139">
        <ele>1265.23</ele>
        <time>2012-03-22T12:34:23Z</time>
      </trkpt>
      <trkpt lat="44.38501" lon="5.85139">
        <ele>1262.35</ele>
        <time>2012-03-22T12:34:24Z</time>
      </trkpt>
      <trkpt lat="44.38499" lon="5.8514">
        <ele>1263.79</ele>
        <time>2012-03-22T12:34:27Z</time>
      </trkpt>
      <trkpt lat="44.38497" lon="5.85141">
        <ele>1259.46</ele>
        <time>2012-03-22T12:34:30Z</time>
      </trkpt>
      <trkpt lat="44.38496" lon="5.8514">
        <ele>1260.91</ele>
        <time>2012-03-22T12:34:31Z</time>
      </trkpt>
      <trkpt lat="44.38489" lon="5.85147">
        <ele>1264.75</ele>
        <time>2012-03-22T12:34:37Z</time>
      </trkpt>
      <trkpt lat="44.38486" lon="5.85151">
        <ele>1256.1</ele>
        <time>2012-03-22T12:34:39Z</time>
      </trkpt>
      <trkpt lat="44.38485" lon="5.85152">
        <ele>1259.94</ele>
        <time>2012-03-22T12:34:40Z</time>
      </trkpt>
      <trkpt lat="44.38482" lon="5.85156">
        <ele>1260.91</ele>
        <time>2012-03-22T12:34:42Z</time>
      </trkpt>
      <trkpt lat="44.3848" lon="5.85157">
        <ele>1257.54</ele>
        <time>2012-03-22T12:34:44Z</time>
      </trkpt>
      <trkpt lat="44.3848" lon="5.85158">
        <ele>1259.46</ele>
        <time>2012-03-22T12:34:45Z</time>
      </trkpt>
      <trkpt lat="44.38476" lon="5.85159">
        <ele>1261.39</ele>
        <time>2012-03-22T12:34:49Z</time>
      </trkpt>
      <trkpt lat="44.38475" lon="5.85159">
        <ele>1257.54</ele>
        <time>2012-03-22T12:34:51Z</time>
      </trkpt>
      <trkpt lat="44.3847" lon="5.85161">
        <ele>1262.35</ele>
        <time>2012-03-22T12:34:57Z</time>
      </trkpt>
      <trkpt lat="44.38467" lon="5.85164">
        <ele>1258.98</ele>
        <time>2012-03-22T12:35:00Z</time>
      </trkpt>
      <trkpt lat="44.38465" lon="5.85165">
        <ele>1257.06</ele>
        <time>2012-03-22T12:35:02Z</time>
      </trkpt>
      <trkpt lat="44.38463" lon="5.85166">
        <ele>1261.87</ele>
        <time>2012-03-22T12:35:04Z</time>
      </trkpt>
      <trkpt lat="44.38463" lon="5.85166">
        <ele>1258.02</ele>
        <time>2012-03-22T12:35:05Z</time>
      </trkpt>
      <trkpt lat="44.38459" lon="5.85169">
        <ele>1253.7</ele>
        <time>2012-03-22T12:35:12Z</time>
      </trkpt>
      <trkpt lat="44.38458" lon="5.8517">
        <ele>1255.62</ele>
        <time>2012-03-22T12:35:13Z</time>
      </trkpt>
      <trkpt lat="44.38453" lon="5.85176">
        <ele>1258.98</ele>
        <time>2012-03-22T12:35:16Z</time>
      </trkpt>
      <trkpt lat="44.3845" lon="5.85179">
        <ele>1258.02</ele>
        <time>2012-03-22T12:35:17Z</time>
      </trkpt>
      <trkpt lat="44.38448" lon="5.85181">
        <ele>1253.7</ele>
        <time>2012-03-22T12:35:18Z</time>
      </trkpt>
      <trkpt lat="44.38446" lon="5.85183">
        <ele>1256.1</ele>
        <time>2012-03-22T12:35:19Z</time>
      </trkpt>
      <trkpt lat="44.38441" lon="5.85185">
        <ele>1252.74</ele>
        <time>2012-03-22T12:35:26Z</time>
      </trkpt>
      <trkpt lat="44.38439" lon="5.85185">
        <ele>1255.14</ele>
        <time>2012-03-22T12:35:31Z</time>
      </trkpt>
      <trkpt lat="44.38439" lon="5.85185">
        <ele>1254.66</ele>
        <time>2012-03-22T12:35:56Z</time>
      </trkpt>
      <trkpt lat="44.38439" lon="5.85187">
        <ele>1254.66</ele>
        <time>2012-03-22T12:36:11Z</time>
      </trkpt>
      <trkpt lat="44.38439" lon="5.85187">
        <ele>1255.62</ele>
        <time>2012-03-22T12:36:33Z</time>
      </trkpt>
      <trkpt lat="44.38439" lon="5.85193">
        <ele>1254.66</ele>
        <time>2012-03-22T12:36:51Z</time>
      </trkpt>
      <trkpt lat="44.3844" lon="5.85195">
        <ele>1255.62</ele>
        <time>2012-03-22T12:37:01Z</time>
      </trkpt>
      <trkpt lat="44.3844" lon="5.85196">
        <ele>1255.14</ele>
        <time>2012-03-22T12:37:24Z</time>
      </trkpt>
      <trkpt lat="44.38437" lon="5.85194">
        <ele>1254.66</ele>
        <time>2012-03-22T12:38:07Z</time>
      </trkpt>
      <trkpt lat="44.38437" lon="5.85194">
        <ele>1253.7</ele>
        <time>2012-03-22T12:38:34Z</time>
      </trkpt>
      <trkpt lat="44.38437" lon="5.85191">
        <ele>1254.18</ele>
        <time>2012-03-22T12:38:47Z</time>
      </trkpt>
      <trkpt lat="44.38438" lon="5.85188">
        <ele>1253.7</ele>
        <time>2012-03-22T12:38:55Z</time>
      </trkpt>
      <trkpt lat="44.38438" lon="5.85188">
        <ele>1257.54</ele>
        <time>2012-03-22T12:39:03Z</time>
      </trkpt>
      <trkpt lat="44.38438" lon="5.85188">
        <ele>1252.74</ele>
        <time>2012-03-22T12:39:04Z</time>
      </trkpt>
      <trkpt lat="44.38438" lon="5.85187">
        <ele>1254.66</ele>
        <time>2012-03-22T12:39:30Z</time>
      </trkpt>
      <trkpt lat="44.38438" lon="5.85188">
        <ele>1254.18</ele>
        <time>2012-03-22T12:39:52Z</time>
      </trkpt>
      <trkpt lat="44.38438" lon="5.85188">
        <ele>1253.7</ele>
        <time>2012-03-22T12:40:08Z</time>
      </trkpt>
      <trkpt lat="44.38438" lon="5.85188">
        <ele>1252.25</ele>
        <time>2012-03-22T12:40:59Z</time>
      </trkpt>
      <trkpt lat="44.38438" lon="5.85188">
        <ele>1253.22</ele>
        <time>2012-03-22T12:41:03Z</time>
      </trkpt>
      <trkpt lat="44.38438" lon="5.85188">
        <ele>1253.22</ele>
        <time>2012-03-22T12:41:25Z</time>
      </trkpt>
      <trkpt lat="44.38438" lon="5.85189">
        <ele>1253.22</ele>
        <time>2012-03-22T12:42:09Z</time>
      </trkpt>
      <trkpt lat="44.38438" lon="5.85189">
        <ele>1252.74</ele>
        <time>2012-03-22T12:42:49Z</time>
      </trkpt>
      <trkpt lat="44.38439" lon="5.85186">
        <ele>1252.74</ele>
        <time>2012-03-22T12:43:57Z</time>
      </trkpt>
      <trkpt lat="44.38441" lon="5.85179">
        <ele>1252.25</ele>
        <time>2012-03-22T12:44:06Z</time>
      </trkpt>
      <trkpt lat="44.38444" lon="5.85174">
        <ele>1251.77</ele>
        <time>2012-03-22T12:44:13Z</time>
      </trkpt>
      <trkpt lat="44.38448" lon="5.85164">
        <ele>1251.29</ele>
        <time>2012-03-22T12:44:24Z</time>
      </trkpt>
      <trkpt lat="44.38451" lon="5.85159">
        <ele>1251.77</ele>
        <time>2012-03-22T12:44:34Z</time>
      </trkpt>
      <trkpt lat="44.38451" lon="5.85157">
        <ele>1248.89</ele>
        <time>2012-03-22T12:44:36Z</time>
      </trkpt>
      <trkpt lat="44.38453" lon="5.8515">
        <ele>1252.25</ele>
        <time>2012-03-22T12:44:41Z</time>
      </trkpt>
      <trkpt lat="44.38457" lon="5.85146">
        <ele>1247.45</ele>
        <time>2012-03-22T12:44:47Z</time>
      </trkpt>
      <trkpt lat="44.38458" lon="5.85143">
        <ele>1250.33</ele>
        <time>2012-03-22T12:44:49Z</time>
      </trkpt>
      <trkpt lat="44.3846" lon="5.85139">
        <ele>1245.04</ele>
        <time>2012-03-22T12:44:52Z</time>
      </trkpt>
      <trkpt lat="44.38461" lon="5.85137">
        <ele>1249.85</ele>
        <time>2012-03-22T12:44:53Z</time>
      </trkpt>
      <trkpt lat="44.38465" lon="5.85122">
        <ele>1243.12</ele>
        <time>2012-03-22T12:45:04Z</time>
      </trkpt>
      <trkpt lat="44.38465" lon="5.85121">
        <ele>1250.81</ele>
        <time>2012-03-22T12:45:05Z</time>
      </trkpt>
      <trkpt lat="44.38465" lon="5.8512">
        <ele>1249.85</ele>
        <time>2012-03-22T12:45:06Z</time>
      </trkpt>
      <trkpt lat="44.38466" lon="5.85117">
        <ele>1246.97</ele>
        <time>2012-03-22T12:45:08Z</time>
      </trkpt>
      <trkpt lat="44.38467" lon="5.85115">
        <ele>1243.12</ele>
        <time>2012-03-22T12:45:10Z</time>
      </trkpt>
      <trkpt lat="44.38467" lon="5.85113">
        <ele>1248.89</ele>
        <time>2012-03-22T12:45:11Z</time>
      </trkpt>
      <trkpt lat="44.38469" lon="5.85109">
        <ele>1245.04</ele>
        <time>2012-03-22T12:45:15Z</time>
      </trkpt>
      <trkpt lat="44.3847" lon="5.85108">
        <ele>1248.89</ele>
        <time>2012-03-22T12:45:16Z</time>
      </trkpt>
      <trkpt lat="44.3847" lon="5.85105">
        <ele>1245.53</ele>
        <time>2012-03-22T12:45:20Z</time>
      </trkpt>
      <trkpt lat="44.38471" lon="5.85102">
        <ele>1240.24</ele>
        <time>2012-03-22T12:45:23Z</time>
      </trkpt>
      <trkpt lat="44.38471" lon="5.851">
        <ele>1246.97</ele>
        <time>2012-03-22T12:45:24Z</time>
      </trkpt>
      <trkpt lat="44.38474" lon="5.85096">
        <ele>1243.12</ele>
        <time>2012-03-22T12:45:28Z</time>
      </trkpt>
      <trkpt lat="44.38474" lon="5.85095">
        <ele>1240.24</ele>
        <time>2012-03-22T12:45:29Z</time>
      </trkpt>
      <trkpt lat="44.38474" lon="5.85094">
        <ele>1246.49</ele>
        <time>2012-03-22T12:45:30Z</time>
      </trkpt>
      <trkpt lat="44.38474" lon="5.85093">
        <ele>1246.49</ele>
        <time>2012-03-22T12:45:31Z</time>
      </trkpt>
      <trkpt lat="44.38476" lon="5.85089">
        <ele>1239.28</ele>
        <time>2012-03-22T12:45:35Z</time>
      </trkpt>
      <trkpt lat="44.38476" lon="5.85088">
        <ele>1245.53</ele>
        <time>2012-03-22T12:45:36Z</time>
      </trkpt>
      <trkpt lat="44.38476" lon="5.85087">
        <ele>1246.49</ele>
        <time>2012-03-22T12:45:38Z</time>
      </trkpt>
      <trkpt lat="44.38477" lon="5.85083">
        <ele>1243.12</ele>
        <time>2012-03-22T12:45:41Z</time>
      </trkpt>
      <trkpt lat="44.38478" lon="5.85079">
        <ele>1245.04</ele>
        <time>2012-03-22T12:45:44Z</time>
      </trkpt>
      <trkpt lat="44.38478" lon="5.85078">
        <ele>1244.56</ele>
        <time>2012-03-22T12:45:45Z</time>
      </trkpt>
      <trkpt lat="44.38477" lon="5.85073">
        <ele>1243.12</ele>
        <time>2012-03-22T12:45:47Z</time>
      </trkpt>
      <trkpt lat="44.38477" lon="5.85071">
        <ele>1246.49</ele>
        <time>2012-03-22T12:45:48Z</time>
      </trkpt>
      <trkpt lat="44.38479" lon="5.85061">
        <ele>1245.53</ele>
        <time>2012-03-22T12:45:54Z</time>
      </trkpt>
      <trkpt lat="44.3848" lon="5.85058">
        <ele>1241.2</ele>
        <time>2012-03-22T12:45:56Z</time>
      </trkpt>
      <trkpt lat="44.3848" lon="5.85055">
        <ele>1242.64</ele>
        <time>2012-03-22T12:45:58Z</time>
      </trkpt>
      <trkpt lat="44.38482" lon="5.85046">
        <ele>1241.68</ele>
        <time>2012-03-22T12:46:04Z</time>
      </trkpt>
      <trkpt lat="44.38483" lon="5.85045">
        <ele>1241.2</ele>
        <time>2012-03-22T12:46:06Z</time>
      </trkpt>
      <trkpt lat="44.38484" lon="5.85042">
        <ele>1243.12</ele>
        <time>2012-03-22T12:46:08Z</time>
      </trkpt>
      <trkpt lat="44.38486" lon="5.85039">
        <ele>1241.2</ele>
        <time>2012-03-22T12:46:10Z</time>
      </trkpt>
      <trkpt lat="44.38489" lon="5.8503">
        <ele>1239.28</ele>
        <time>2012-03-22T12:46:17Z</time>
      </trkpt>
      <trkpt lat="44.38491" lon="5.85025">
        <ele>1242.64</ele>
        <time>2012-03-22T12:46:20Z</time>
      </trkpt>
      <trkpt lat="44.38491" lon="5.85024">
        <ele>1235.43</ele>
        <time>2012-03-22T12:46:21Z</time>
      </trkpt>
      <trkpt lat="44.38492" lon="5.85021">
        <ele>1240.24</ele>
        <time>2012-03-22T12:46:23Z</time>
      </trkpt>
      <trkpt lat="44.38492" lon="5.8502">
        <ele>1239.76</ele>
        <time>2012-03-22T12:46:24Z</time>
      </trkpt>
      <trkpt lat="44.38493" lon="5.85017">
        <ele>1241.2</ele>
        <time>2012-03-22T12:46:27Z</time>
      </trkpt>
      <trkpt lat="44.38494" lon="5.85015">
        <ele>1237.83</ele>
        <time>2012-03-22T12:46:28Z</time>
      </trkpt>
      <trkpt lat="44.38495" lon="5.85006">
        <ele>1236.87</ele>
        <time>2012-03-22T12:46:35Z</time>
      </trkpt>
      <trkpt lat="44.38495" lon="5.85003">
        <ele>1240.72</ele>
        <time>2012-03-22T12:46:38Z</time>
      </trkpt>
      <trkpt lat="44.38495" lon="5.85001">
        <ele>1238.8</ele>
        <time>2012-03-22T12:46:39Z</time>
      </trkpt>
      <trkpt lat="44.38496" lon="5.85">
        <ele>1234.95</ele>
        <time>2012-03-22T12:46:40Z</time>
      </trkpt>
      <trkpt lat="44.38496" lon="5.84999">
        <ele>1230.62</ele>
        <time>2012-03-22T12:46:41Z</time>
      </trkpt>
      <trkpt lat="44.38496" lon="5.84998">
        <ele>1237.83</ele>
        <time>2012-03-22T12:46:42Z</time>
      </trkpt>
      <trkpt lat="44.38496" lon="5.84997">
        <ele>1237.83</ele>
        <time>2012-03-22T12:46:43Z</time>
      </trkpt>
      <trkpt lat="44.38496" lon="5.8499">
        <ele>1235.91</ele>
        <time>2012-03-22T12:46:53Z</time>
      </trkpt>
      <trkpt lat="44.38496" lon="5.84983">
        <ele>1236.39</ele>
        <time>2012-03-22T12:46:58Z</time>
      </trkpt>
      <trkpt lat="44.38496" lon="5.84966">
        <ele>1234.47</ele>
        <time>2012-03-22T12:47:09Z</time>
      </trkpt>
      <trkpt lat="44.38494" lon="5.84952">
        <ele>1227.74</ele>
        <time>2012-03-22T12:47:20Z</time>
      </trkpt>
      <trkpt lat="44.38494" lon="5.84951">
        <ele>1230.62</ele>
        <time>2012-03-22T12:47:21Z</time>
      </trkpt>
      <trkpt lat="44.38492" lon="5.84943">
        <ele>1231.11</ele>
        <time>2012-03-22T12:47:27Z</time>
      </trkpt>
      <trkpt lat="44.38492" lon="5.84939">
        <ele>1232.55</ele>
        <time>2012-03-22T12:47:29Z</time>
      </trkpt>
      <trkpt lat="44.38491" lon="5.84933">
        <ele>1229.18</ele>
        <time>2012-03-22T12:47:34Z</time>
      </trkpt>
      <trkpt lat="44.38491" lon="5.84932">
        <ele>1230.62</ele>
        <time>2012-03-22T12:47:35Z</time>
      </trkpt>
      <trkpt lat="44.38487" lon="5.84916">
        <ele>1231.11</ele>
        <time>2012-03-22T12:47:45Z</time>
      </trkpt>
      <trkpt lat="44.38487" lon="5.84914">
        <ele>1235.91</ele>
        <time>2012-03-22T12:47:46Z</time>
      </trkpt>
      <trkpt lat="44.38486" lon="5.84913">
        <ele>1232.55</ele>
        <time>2012-03-22T12:47:47Z</time>
      </trkpt>
      <trkpt lat="44.38486" lon="5.84911">
        <ele>1228.7</ele>
        <time>2012-03-22T12:47:48Z</time>
      </trkpt>
      <trkpt lat="44.38486" lon="5.8491">
        <ele>1233.51</ele>
        <time>2012-03-22T12:47:49Z</time>
      </trkpt>
      <trkpt lat="44.38486" lon="5.84907">
        <ele>1234.95</ele>
        <time>2012-03-22T12:47:51Z</time>
      </trkpt>
      <trkpt lat="44.38485" lon="5.84906">
        <ele>1229.66</ele>
        <time>2012-03-22T12:47:52Z</time>
      </trkpt>
      <trkpt lat="44.38485" lon="5.84904">
        <ele>1229.66</ele>
        <time>2012-03-22T12:47:53Z</time>
      </trkpt>
      <trkpt lat="44.38485" lon="5.84902">
        <ele>1233.03</ele>
        <time>2012-03-22T12:47:54Z</time>
      </trkpt>
      <trkpt lat="44.38484" lon="5.84896">
        <ele>1232.07</ele>
        <time>2012-03-22T12:47:58Z</time>
      </trkpt>
      <trkpt lat="44.38484" lon="5.84895">
        <ele>1232.07</ele>
        <time>2012-03-22T12:47:59Z</time>
      </trkpt>
      <trkpt lat="44.38483" lon="5.84889">
        <ele>1229.66</ele>
        <time>2012-03-22T12:48:03Z</time>
      </trkpt>
      <trkpt lat="44.38483" lon="5.84885">
        <ele>1232.55</ele>
        <time>2012-03-22T12:48:06Z</time>
      </trkpt>
      <trkpt lat="44.38483" lon="5.84883">
        <ele>1228.7</ele>
        <time>2012-03-22T12:48:07Z</time>
      </trkpt>
      <trkpt lat="44.38483" lon="5.84881">
        <ele>1230.62</ele>
        <time>2012-03-22T12:48:09Z</time>
      </trkpt>
      <trkpt lat="44.38483" lon="5.84864">
        <ele>1228.7</ele>
        <time>2012-03-22T12:48:20Z</time>
      </trkpt>
      <trkpt lat="44.38482" lon="5.84857">
        <ele>1227.74</ele>
        <time>2012-03-22T12:48:25Z</time>
      </trkpt>
      <trkpt lat="44.38483" lon="5.84847">
        <ele>1226.3</ele>
        <time>2012-03-22T12:48:31Z</time>
      </trkpt>
      <trkpt lat="44.38482" lon="5.84841">
        <ele>1226.3</ele>
        <time>2012-03-22T12:48:35Z</time>
      </trkpt>
      <trkpt lat="44.38483" lon="5.84827">
        <ele>1224.86</ele>
        <time>2012-03-22T12:48:44Z</time>
      </trkpt>
      <trkpt lat="44.3849" lon="5.84815">
        <ele>1223.9</ele>
        <time>2012-03-22T12:48:54Z</time>
      </trkpt>
      <trkpt lat="44.38493" lon="5.84815">
        <ele>1224.86</ele>
        <time>2012-03-22T12:48:56Z</time>
      </trkpt>
      <trkpt lat="44.38494" lon="5.84814">
        <ele>1223.42</ele>
        <time>2012-03-22T12:48:58Z</time>
      </trkpt>
      <trkpt lat="44.38498" lon="5.84805">
        <ele>1219.09</ele>
        <time>2012-03-22T12:49:04Z</time>
      </trkpt>
      <trkpt lat="44.38499" lon="5.84804">
        <ele>1224.38</ele>
        <time>2012-03-22T12:49:05Z</time>
      </trkpt>
      <trkpt lat="44.385" lon="5.84797">
        <ele>1220.05</ele>
        <time>2012-03-22T12:49:10Z</time>
      </trkpt>
      <trkpt lat="44.38501" lon="5.84793">
        <ele>1218.61</ele>
        <time>2012-03-22T12:49:12Z</time>
      </trkpt>
      <trkpt lat="44.38502" lon="5.84792">
        <ele>1221.49</ele>
        <time>2012-03-22T12:49:13Z</time>
      </trkpt>
      <trkpt lat="44.38505" lon="5.84778">
        <ele>1218.61</ele>
        <time>2012-03-22T12:49:22Z</time>
      </trkpt>
      <trkpt lat="44.38507" lon="5.84771">
        <ele>1220.53</ele>
        <time>2012-03-22T12:49:27Z</time>
      </trkpt>
      <trkpt lat="44.38508" lon="5.84765">
        <ele>1219.09</ele>
        <time>2012-03-22T12:49:31Z</time>
      </trkpt>
      <trkpt lat="44.38509" lon="5.8475">
        <ele>1218.13</ele>
        <time>2012-03-22T12:49:40Z</time>
      </trkpt>
      <trkpt lat="44.3851" lon="5.84743">
        <ele>1214.76</ele>
        <time>2012-03-22T12:49:45Z</time>
      </trkpt>
      <trkpt lat="44.3851" lon="5.84741">
        <ele>1218.13</ele>
        <time>2012-03-22T12:49:46Z</time>
      </trkpt>
      <trkpt lat="44.3851" lon="5.84738">
        <ele>1215.24</ele>
        <time>2012-03-22T12:49:48Z</time>
      </trkpt>
      <trkpt lat="44.3851" lon="5.84737">
        <ele>1215.72</ele>
        <time>2012-03-22T12:49:49Z</time>
      </trkpt>
      <trkpt lat="44.3851" lon="5.84736">
        <ele>1216.69</ele>
        <time>2012-03-22T12:49:50Z</time>
      </trkpt>
      <trkpt lat="44.38511" lon="5.84729">
        <ele>1219.57</ele>
        <time>2012-03-22T12:49:54Z</time>
      </trkpt>
      <trkpt lat="44.38511" lon="5.84728">
        <ele>1215.24</ele>
        <time>2012-03-22T12:49:55Z</time>
      </trkpt>
      <trkpt lat="44.38511" lon="5.84726">
        <ele>1215.72</ele>
        <time>2012-03-22T12:49:56Z</time>
      </trkpt>
      <trkpt lat="44.38511" lon="5.8472">
        <ele>1215.72</ele>
        <time>2012-03-22T12:50:00Z</time>
      </trkpt>
      <trkpt lat="44.38515" lon="5.84707">
        <ele>1214.28</ele>
        <time>2012-03-22T12:50:09Z</time>
      </trkpt>
      <trkpt lat="44.38518" lon="5.84702">
        <ele>1217.65</ele>
        <time>2012-03-22T12:50:13Z</time>
      </trkpt>
      <trkpt lat="44.38518" lon="5.84699">
        <ele>1214.76</ele>
        <time>2012-03-22T12:50:15Z</time>
      </trkpt>
      <trkpt lat="44.3852" lon="5.84686">
        <ele>1209</ele>
        <time>2012-03-22T12:50:24Z</time>
      </trkpt>
      <trkpt lat="44.38519" lon="5.84684">
        <ele>1213.8</ele>
        <time>2012-03-22T12:50:26Z</time>
      </trkpt>
      <trkpt lat="44.38516" lon="5.84681">
        <ele>1211.88</ele>
        <time>2012-03-22T12:50:30Z</time>
      </trkpt>
      <trkpt lat="44.38514" lon="5.84676">
        <ele>1207.55</ele>
        <time>2012-03-22T12:50:34Z</time>
      </trkpt>
      <trkpt lat="44.38513" lon="5.84676">
        <ele>1210.92</ele>
        <time>2012-03-22T12:50:35Z</time>
      </trkpt>
      <trkpt lat="44.3851" lon="5.84673">
        <ele>1211.88</ele>
        <time>2012-03-22T12:50:38Z</time>
      </trkpt>
      <trkpt lat="44.38507" lon="5.84668">
        <ele>1208.51</ele>
        <time>2012-03-22T12:50:42Z</time>
      </trkpt>
      <trkpt lat="44.38506" lon="5.84667">
        <ele>1209</ele>
        <time>2012-03-22T12:50:43Z</time>
      </trkpt>
      <trkpt lat="44.38504" lon="5.84666">
        <ele>1210.44</ele>
        <time>2012-03-22T12:50:46Z</time>
      </trkpt>
      <trkpt lat="44.38496" lon="5.84658">
        <ele>1208.03</ele>
        <time>2012-03-22T12:50:56Z</time>
      </trkpt>
      <trkpt lat="44.38495" lon="5.84653">
        <ele>1207.55</ele>
        <time>2012-03-22T12:51:00Z</time>
      </trkpt>
      <trkpt lat="44.38493" lon="5.84648">
        <ele>1205.63</ele>
        <time>2012-03-22T12:51:05Z</time>
      </trkpt>
      <trkpt lat="44.3849" lon="5.84637">
        <ele>1206.11</ele>
        <time>2012-03-22T12:51:11Z</time>
      </trkpt>
      <trkpt lat="44.38487" lon="5.84625">
        <ele>1204.67</ele>
        <time>2012-03-22T12:51:19Z</time>
      </trkpt>
      <trkpt lat="44.38487" lon="5.84621">
        <ele>1203.23</ele>
        <time>2012-03-22T12:51:21Z</time>
      </trkpt>
      <trkpt lat="44.38486" lon="5.8462">
        <ele>1208.03</ele>
        <time>2012-03-22T12:51:22Z</time>
      </trkpt>
      <trkpt lat="44.38484" lon="5.84612">
        <ele>1205.63</ele>
        <time>2012-03-22T12:51:27Z</time>
      </trkpt>
      <trkpt lat="44.38484" lon="5.8461">
        <ele>1205.15</ele>
        <time>2012-03-22T12:51:28Z</time>
      </trkpt>
      <trkpt lat="44.38483" lon="5.84604">
        <ele>1198.9</ele>
        <time>2012-03-22T12:51:32Z</time>
      </trkpt>
      <trkpt lat="44.38482" lon="5.84604">
        <ele>1204.19</ele>
        <time>2012-03-22T12:51:33Z</time>
      </trkpt>
      <trkpt lat="44.38482" lon="5.84601">
        <ele>1208.03</ele>
        <time>2012-03-22T12:51:35Z</time>
      </trkpt>
      <trkpt lat="44.38482" lon="5.846">
        <ele>1205.15</ele>
        <time>2012-03-22T12:51:36Z</time>
      </trkpt>
      <trkpt lat="44.38482" lon="5.84596">
        <ele>1200.82</ele>
        <time>2012-03-22T12:51:40Z</time>
      </trkpt>
      <trkpt lat="44.38481" lon="5.84595">
        <ele>1195.54</ele>
        <time>2012-03-22T12:51:41Z</time>
      </trkpt>
      <trkpt lat="44.38481" lon="5.84594">
        <ele>1202.75</ele>
        <time>2012-03-22T12:51:42Z</time>
      </trkpt>
      <trkpt lat="44.38479" lon="5.84591">
        <ele>1205.15</ele>
        <time>2012-03-22T12:51:45Z</time>
      </trkpt>
      <trkpt lat="44.38479" lon="5.84587">
        <ele>1196.5</ele>
        <time>2012-03-22T12:51:48Z</time>
      </trkpt>
      <trkpt lat="44.38478" lon="5.84586">
        <ele>1197.46</ele>
        <time>2012-03-22T12:51:49Z</time>
      </trkpt>
      <trkpt lat="44.38478" lon="5.84585">
        <ele>1202.75</ele>
        <time>2012-03-22T12:51:50Z</time>
      </trkpt>
      <trkpt lat="44.38475" lon="5.84581">
        <ele>1201.3</ele>
        <time>2012-03-22T12:51:54Z</time>
      </trkpt>
      <trkpt lat="44.38473" lon="5.84569">
        <ele>1199.86</ele>
        <time>2012-03-22T12:52:02Z</time>
      </trkpt>
      <trkpt lat="44.38472" lon="5.84567">
        <ele>1203.71</ele>
        <time>2012-03-22T12:52:03Z</time>
      </trkpt>
      <trkpt lat="44.38472" lon="5.84566">
        <ele>1201.79</ele>
        <time>2012-03-22T12:52:04Z</time>
      </trkpt>
      <trkpt lat="44.3847" lon="5.84553">
        <ele>1198.42</ele>
        <time>2012-03-22T12:52:11Z</time>
      </trkpt>
      <trkpt lat="44.38468" lon="5.8455">
        <ele>1197.46</ele>
        <time>2012-03-22T12:52:13Z</time>
      </trkpt>
      <trkpt lat="44.38467" lon="5.84544">
        <ele>1196.02</ele>
        <time>2012-03-22T12:52:16Z</time>
      </trkpt>
      <trkpt lat="44.38468" lon="5.84538">
        <ele>1197.94</ele>
        <time>2012-03-22T12:52:19Z</time>
      </trkpt>
      <trkpt lat="44.38468" lon="5.84537">
        <ele>1201.3</ele>
        <time>2012-03-22T12:52:22Z</time>
      </trkpt>
      <trkpt lat="44.38468" lon="5.84534">
        <ele>1196.02</ele>
        <time>2012-03-22T12:52:24Z</time>
      </trkpt>
      <trkpt lat="44.38468" lon="5.84533">
        <ele>1197.94</ele>
        <time>2012-03-22T12:52:25Z</time>
      </trkpt>
      <trkpt lat="44.38468" lon="5.84531">
        <ele>1193.61</ele>
        <time>2012-03-22T12:52:26Z</time>
      </trkpt>
      <trkpt lat="44.38468" lon="5.84531">
        <ele>1196.98</ele>
        <time>2012-03-22T12:52:27Z</time>
      </trkpt>
      <trkpt lat="44.38469" lon="5.84525">
        <ele>1194.58</ele>
        <time>2012-03-22T12:52:32Z</time>
      </trkpt>
      <trkpt lat="44.38469" lon="5.84517">
        <ele>1193.61</ele>
        <time>2012-03-22T12:52:40Z</time>
      </trkpt>
      <trkpt lat="44.38469" lon="5.84511">
        <ele>1194.58</ele>
        <time>2012-03-22T12:52:44Z</time>
      </trkpt>
      <trkpt lat="44.38468" lon="5.84502">
        <ele>1192.17</ele>
        <time>2012-03-22T12:52:48Z</time>
      </trkpt>
      <trkpt lat="44.38468" lon="5.84497">
        <ele>1194.58</ele>
        <time>2012-03-22T12:52:51Z</time>
      </trkpt>
      <trkpt lat="44.38469" lon="5.84493">
        <ele>1192.65</ele>
        <time>2012-03-22T12:52:54Z</time>
      </trkpt>
      <trkpt lat="44.38471" lon="5.84483">
        <ele>1190.73</ele>
        <time>2012-03-22T12:53:02Z</time>
      </trkpt>
      <trkpt lat="44.38472" lon="5.84478">
        <ele>1190.25</ele>
        <time>2012-03-22T12:53:07Z</time>
      </trkpt>
      <trkpt lat="44.38472" lon="5.84472">
        <ele>1189.77</ele>
        <time>2012-03-22T12:53:10Z</time>
      </trkpt>
      <trkpt lat="44.38474" lon="5.84464">
        <ele>1188.81</ele>
        <time>2012-03-22T12:53:15Z</time>
      </trkpt>
      <trkpt lat="44.38477" lon="5.84454">
        <ele>1188.81</ele>
        <time>2012-03-22T12:53:24Z</time>
      </trkpt>
      <trkpt lat="44.38477" lon="5.84454">
        <ele>1187.37</ele>
        <time>2012-03-22T12:53:26Z</time>
      </trkpt>
      <trkpt lat="44.38479" lon="5.84445">
        <ele>1187.85</ele>
        <time>2012-03-22T12:53:31Z</time>
      </trkpt>
      <trkpt lat="44.3848" lon="5.84436">
        <ele>1191.69</ele>
        <time>2012-03-22T12:53:36Z</time>
      </trkpt>
      <trkpt lat="44.3848" lon="5.84432">
        <ele>1187.37</ele>
        <time>2012-03-22T12:53:38Z</time>
      </trkpt>
      <trkpt lat="44.38481" lon="5.84429">
        <ele>1185.92</ele>
        <time>2012-03-22T12:53:40Z</time>
      </trkpt>
      <trkpt lat="44.38485" lon="5.84417">
        <ele>1184.96</ele>
        <time>2012-03-22T12:53:47Z</time>
      </trkpt>
      <trkpt lat="44.38488" lon="5.84396">
        <ele>1184.48</ele>
        <time>2012-03-22T12:53:58Z</time>
      </trkpt>
      <trkpt lat="44.38489" lon="5.84393">
        <ele>1184.96</ele>
        <time>2012-03-22T12:54:00Z</time>
      </trkpt>
      <trkpt lat="44.38495" lon="5.84388">
        <ele>1182.08</ele>
        <time>2012-03-22T12:54:06Z</time>
      </trkpt>
      <trkpt lat="44.38497" lon="5.84384">
        <ele>1184</ele>
        <time>2012-03-22T12:54:11Z</time>
      </trkpt>
      <trkpt lat="44.385" lon="5.84382">
        <ele>1182.08</ele>
        <time>2012-03-22T12:54:13Z</time>
      </trkpt>
      <trkpt lat="44.38507" lon="5.84371">
        <ele>1181.6</ele>
        <time>2012-03-22T12:54:22Z</time>
      </trkpt>
      <trkpt lat="44.38512" lon="5.84367">
        <ele>1178.23</ele>
        <time>2012-03-22T12:54:27Z</time>
      </trkpt>
      <trkpt lat="44.38515" lon="5.84365">
        <ele>1181.6</ele>
        <time>2012-03-22T12:54:30Z</time>
      </trkpt>
      <trkpt lat="44.38516" lon="5.84365">
        <ele>1177.75</ele>
        <time>2012-03-22T12:54:31Z</time>
      </trkpt>
      <trkpt lat="44.38516" lon="5.84364">
        <ele>1178.23</ele>
        <time>2012-03-22T12:54:32Z</time>
      </trkpt>
      <trkpt lat="44.38517" lon="5.84364">
        <ele>1182.56</ele>
        <time>2012-03-22T12:54:33Z</time>
      </trkpt>
      <trkpt lat="44.38518" lon="5.84364">
        <ele>1180.16</ele>
        <time>2012-03-22T12:54:34Z</time>
      </trkpt>
      <trkpt lat="44.38519" lon="5.84364">
        <ele>1175.35</ele>
        <time>2012-03-22T12:54:35Z</time>
      </trkpt>
      <trkpt lat="44.38521" lon="5.84363">
        <ele>1180.64</ele>
        <time>2012-03-22T12:54:36Z</time>
      </trkpt>
      <trkpt lat="44.38523" lon="5.84363">
        <ele>1184.96</ele>
        <time>2012-03-22T12:54:38Z</time>
      </trkpt>
      <trkpt lat="44.38524" lon="5.84363">
        <ele>1182.56</ele>
        <time>2012-03-22T12:54:39Z</time>
      </trkpt>
      <trkpt lat="44.38526" lon="5.84363">
        <ele>1178.23</ele>
        <time>2012-03-22T12:54:41Z</time>
      </trkpt>
      <trkpt lat="44.3853" lon="5.84364">
        <ele>1181.6</ele>
        <time>2012-03-22T12:54:44Z</time>
      </trkpt>
      <trkpt lat="44.38533" lon="5.84365">
        <ele>1177.27</ele>
        <time>2012-03-22T12:54:47Z</time>
      </trkpt>
      <trkpt lat="44.38534" lon="5.84365">
        <ele>1179.19</ele>
        <time>2012-03-22T12:54:48Z</time>
      </trkpt>
      <trkpt lat="44.38546" lon="5.84368">
        <ele>1178.23</ele>
        <time>2012-03-22T12:54:59Z</time>
      </trkpt>
      <trkpt lat="44.38548" lon="5.84367">
        <ele>1171.5</ele>
        <time>2012-03-22T12:55:01Z</time>
      </trkpt>
      <trkpt lat="44.38549" lon="5.84367">
        <ele>1177.75</ele>
        <time>2012-03-22T12:55:02Z</time>
      </trkpt>
      <trkpt lat="44.38549" lon="5.84367">
        <ele>1183.04</ele>
        <time>2012-03-22T12:55:03Z</time>
      </trkpt>
      <trkpt lat="44.3855" lon="5.84367">
        <ele>1177.27</ele>
        <time>2012-03-22T12:55:04Z</time>
      </trkpt>
      <trkpt lat="44.38551" lon="5.84366">
        <ele>1182.56</ele>
        <time>2012-03-22T12:55:06Z</time>
      </trkpt>
      <trkpt lat="44.38552" lon="5.84366">
        <ele>1179.67</ele>
        <time>2012-03-22T12:55:07Z</time>
      </trkpt>
      <trkpt lat="44.38554" lon="5.84366">
        <ele>1175.83</ele>
        <time>2012-03-22T12:55:09Z</time>
      </trkpt>
      <trkpt lat="44.38555" lon="5.84365">
        <ele>1176.31</ele>
        <time>2012-03-22T12:55:10Z</time>
      </trkpt>
      <trkpt lat="44.38556" lon="5.84364">
        <ele>1177.75</ele>
        <time>2012-03-22T12:55:11Z</time>
      </trkpt>
      <trkpt lat="44.3856" lon="5.8436">
        <ele>1178.23</ele>
        <time>2012-03-22T12:55:20Z</time>
      </trkpt>
      <trkpt lat="44.38559" lon="5.84359">
        <ele>1177.75</ele>
        <time>2012-03-22T12:55:39Z</time>
      </trkpt>
      <trkpt lat="44.38559" lon="5.84359">
        <ele>1178.23</ele>
        <time>2012-03-22T12:56:39Z</time>
      </trkpt>
      <trkpt lat="44.38559" lon="5.84359">
        <ele>1177.27</ele>
        <time>2012-03-22T12:58:03Z</time>
      </trkpt>
      <trkpt lat="44.3856" lon="5.84359">
        <ele>1177.27</ele>
        <time>2012-03-22T12:58:47Z</time>
      </trkpt>
      <trkpt lat="44.3856" lon="5.84359">
        <ele>1177.75</ele>
        <time>2012-03-22T12:58:55Z</time>
      </trkpt>
      <trkpt lat="44.38564" lon="5.84357">
        <ele>1177.75</ele>
        <time>2012-03-22T12:59:08Z</time>
      </trkpt>
      <trkpt lat="44.38565" lon="5.84357">
        <ele>1177.75</ele>
        <time>2012-03-22T12:59:09Z</time>
      </trkpt>
      <trkpt lat="44.38571" lon="5.84355">
        <ele>1181.12</ele>
        <time>2012-03-22T12:59:15Z</time>
      </trkpt>
      <trkpt lat="44.38572" lon="5.84355">
        <ele>1177.75</ele>
        <time>2012-03-22T12:59:16Z</time>
      </trkpt>
      <trkpt lat="44.3858" lon="5.84353">
        <ele>1177.75</ele>
        <time>2012-03-22T12:59:24Z</time>
      </trkpt>
      <trkpt lat="44.38581" lon="5.84352">
        <ele>1181.12</ele>
        <time>2012-03-22T12:59:25Z</time>
      </trkpt>
      <trkpt lat="44.38582" lon="5.84351">
        <ele>1179.19</ele>
        <time>2012-03-22T12:59:26Z</time>
      </trkpt>
      <trkpt lat="44.38587" lon="5.84348">
        <ele>1178.23</ele>
        <time>2012-03-22T12:59:31Z</time>
      </trkpt>
      <trkpt lat="44.38588" lon="5.84346">
        <ele>1179.19</ele>
        <time>2012-03-22T12:59:33Z</time>
      </trkpt>
      <trkpt lat="44.38589" lon="5.84343">
        <ele>1179.19</ele>
        <time>2012-03-22T12:59:35Z</time>
      </trkpt>
      <trkpt lat="44.38591" lon="5.8434">
        <ele>1184.48</ele>
        <time>2012-03-22T12:59:38Z</time>
      </trkpt>
      <trkpt lat="44.38592" lon="5.84339">
        <ele>1180.64</ele>
        <time>2012-03-22T12:59:39Z</time>
      </trkpt>
      <trkpt lat="44.38593" lon="5.84336">
        <ele>1177.27</ele>
        <time>2012-03-22T12:59:42Z</time>
      </trkpt>
      <trkpt lat="44.38593" lon="5.84335">
        <ele>1180.16</ele>
        <time>2012-03-22T12:59:44Z</time>
      </trkpt>
      <trkpt lat="44.38595" lon="5.84331">
        <ele>1179.67</ele>
        <time>2012-03-22T12:59:48Z</time>
      </trkpt>
      <trkpt lat="44.38597" lon="5.84327">
        <ele>1182.56</ele>
        <time>2012-03-22T12:59:52Z</time>
      </trkpt>
      <trkpt lat="44.38598" lon="5.84325">
        <ele>1182.56</ele>
        <time>2012-03-22T12:59:55Z</time>
      </trkpt>
      <trkpt lat="44.38599" lon="5.84319">
        <ele>1179.19</ele>
        <time>2012-03-22T12:59:58Z</time>
      </trkpt>
      <trkpt lat="44.38602" lon="5.84314">
        <ele>1179.67</ele>
        <time>2012-03-22T13:00:02Z</time>
      </trkpt>
      <trkpt lat="44.38604" lon="5.84313">
        <ele>1180.16</ele>
        <time>2012-03-22T13:00:04Z</time>
      </trkpt>
      <trkpt lat="44.38608" lon="5.84304">
        <ele>1183.04</ele>
        <time>2012-03-22T13:00:12Z</time>
      </trkpt>
      <trkpt lat="44.38608" lon="5.84303">
        <ele>1180.16</ele>
        <time>2012-03-22T13:00:13Z</time>
      </trkpt>
      <trkpt lat="44.38609" lon="5.84302">
        <ele>1181.6</ele>
        <time>2012-03-22T13:00:15Z</time>
      </trkpt>
      <trkpt lat="44.38612" lon="5.84301">
        <ele>1183.52</ele>
        <time>2012-03-22T13:00:18Z</time>
      </trkpt>
      <trkpt lat="44.38616" lon="5.84299">
        <ele>1181.12</ele>
        <time>2012-03-22T13:00:22Z</time>
      </trkpt>
      <trkpt lat="44.3862" lon="5.84296">
        <ele>1184.96</ele>
        <time>2012-03-22T13:00:26Z</time>
      </trkpt>
      <trkpt lat="44.3862" lon="5.84295">
        <ele>1184.48</ele>
        <time>2012-03-22T13:00:27Z</time>
      </trkpt>
      <trkpt lat="44.38622" lon="5.84292">
        <ele>1181.6</ele>
        <time>2012-03-22T13:00:29Z</time>
      </trkpt>
      <trkpt lat="44.38623" lon="5.84291">
        <ele>1180.64</ele>
        <time>2012-03-22T13:00:30Z</time>
      </trkpt>
      <trkpt lat="44.38625" lon="5.8429">
        <ele>1184.48</ele>
        <time>2012-03-22T13:00:32Z</time>
      </trkpt>
      <trkpt lat="44.38632" lon="5.84283">
        <ele>1187.37</ele>
        <time>2012-03-22T13:00:41Z</time>
      </trkpt>
      <trkpt lat="44.38633" lon="5.84283">
        <ele>1187.85</ele>
        <time>2012-03-22T13:00:42Z</time>
      </trkpt>
      <trkpt lat="44.38636" lon="5.84282">
        <ele>1182.56</ele>
        <time>2012-03-22T13:00:45Z</time>
      </trkpt>
      <trkpt lat="44.38636" lon="5.84281">
        <ele>1181.6</ele>
        <time>2012-03-22T13:00:46Z</time>
      </trkpt>
      <trkpt lat="44.38638" lon="5.84279">
        <ele>1184.96</ele>
        <time>2012-03-22T13:00:48Z</time>
      </trkpt>
      <trkpt lat="44.38644" lon="5.84273">
        <ele>1184</ele>
        <time>2012-03-22T13:00:55Z</time>
      </trkpt>
      <trkpt lat="44.38645" lon="5.84273">
        <ele>1188.81</ele>
        <time>2012-03-22T13:00:56Z</time>
      </trkpt>
      <trkpt lat="44.38646" lon="5.84273">
        <ele>1183.52</ele>
        <time>2012-03-22T13:00:57Z</time>
      </trkpt>
      <trkpt lat="44.38648" lon="5.84271">
        <ele>1189.29</ele>
        <time>2012-03-22T13:00:59Z</time>
      </trkpt>
      <trkpt lat="44.38649" lon="5.84271">
        <ele>1184.96</ele>
        <time>2012-03-22T13:01:00Z</time>
      </trkpt>
      <trkpt lat="44.3865" lon="5.8427">
        <ele>1181.6</ele>
        <time>2012-03-22T13:01:01Z</time>
      </trkpt>
      <trkpt lat="44.38651" lon="5.8427">
        <ele>1183.04</ele>
        <time>2012-03-22T13:01:02Z</time>
      </trkpt>
      <trkpt lat="44.38651" lon="5.84269">
        <ele>1189.29</ele>
        <time>2012-03-22T13:01:03Z</time>
      </trkpt>
      <trkpt lat="44.38656" lon="5.84263">
        <ele>1185.44</ele>
        <time>2012-03-22T13:01:09Z</time>
      </trkpt>
      <trkpt lat="44.38658" lon="5.84261">
        <ele>1187.37</ele>
        <time>2012-03-22T13:01:11Z</time>
      </trkpt>
      <trkpt lat="44.38661" lon="5.8426">
        <ele>1184.48</ele>
        <time>2012-03-22T13:01:15Z</time>
      </trkpt>
      <trkpt lat="44.38664" lon="5.84257">
        <ele>1192.17</ele>
        <time>2012-03-22T13:01:18Z</time>
      </trkpt>
      <trkpt lat="44.38665" lon="5.84256">
        <ele>1187.37</ele>
        <time>2012-03-22T13:01:19Z</time>
      </trkpt>
      <trkpt lat="44.3867" lon="5.84255">
        <ele>1190.73</ele>
        <time>2012-03-22T13:01:23Z</time>
      </trkpt>
      <trkpt lat="44.38671" lon="5.84255">
        <ele>1190.25</ele>
        <time>2012-03-22T13:01:24Z</time>
      </trkpt>
      <trkpt lat="44.38672" lon="5.84255">
        <ele>1186.4</ele>
        <time>2012-03-22T13:01:25Z</time>
      </trkpt>
      <trkpt lat="44.38673" lon="5.84255">
        <ele>1188.33</ele>
        <time>2012-03-22T13:01:26Z</time>
      </trkpt>
      <trkpt lat="44.38674" lon="5.84254">
        <ele>1189.29</ele>
        <time>2012-03-22T13:01:27Z</time>
      </trkpt>
      <trkpt lat="44.38676" lon="5.84253">
        <ele>1187.85</ele>
        <time>2012-03-22T13:01:29Z</time>
      </trkpt>
      <trkpt lat="44.38677" lon="5.84252">
        <ele>1184.96</ele>
        <time>2012-03-22T13:01:30Z</time>
      </trkpt>
      <trkpt lat="44.38682" lon="5.84249">
        <ele>1192.17</ele>
        <time>2012-03-22T13:01:35Z</time>
      </trkpt>
      <trkpt lat="44.38683" lon="5.84249">
        <ele>1190.73</ele>
        <time>2012-03-22T13:01:36Z</time>
      </trkpt>
      <trkpt lat="44.38684" lon="5.84248">
        <ele>1186.4</ele>
        <time>2012-03-22T13:01:37Z</time>
      </trkpt>
      <trkpt lat="44.38684" lon="5.84247">
        <ele>1186.4</ele>
        <time>2012-03-22T13:01:38Z</time>
      </trkpt>
      <trkpt lat="44.38686" lon="5.84245">
        <ele>1190.73</ele>
        <time>2012-03-22T13:01:40Z</time>
      </trkpt>
      <trkpt lat="44.38687" lon="5.84244">
        <ele>1190.73</ele>
        <time>2012-03-22T13:01:41Z</time>
      </trkpt>
      <trkpt lat="44.38689" lon="5.84242">
        <ele>1187.85</ele>
        <time>2012-03-22T13:01:43Z</time>
      </trkpt>
      <trkpt lat="44.38691" lon="5.8424">
        <ele>1189.29</ele>
        <time>2012-03-22T13:01:45Z</time>
      </trkpt>
      <trkpt lat="44.38694" lon="5.84238">
        <ele>1188.81</ele>
        <time>2012-03-22T13:01:48Z</time>
      </trkpt>
      <trkpt lat="44.38695" lon="5.84235">
        <ele>1192.65</ele>
        <time>2012-03-22T13:01:50Z</time>
      </trkpt>
      <trkpt lat="44.38696" lon="5.84234">
        <ele>1187.85</ele>
        <time>2012-03-22T13:01:51Z</time>
      </trkpt>
      <trkpt lat="44.38699" lon="5.84232">
        <ele>1193.13</ele>
        <time>2012-03-22T13:01:54Z</time>
      </trkpt>
      <trkpt lat="44.387" lon="5.84232">
        <ele>1189.77</ele>
        <time>2012-03-22T13:01:55Z</time>
      </trkpt>
      <trkpt lat="44.38705" lon="5.84226">
        <ele>1188.33</ele>
        <time>2012-03-22T13:02:01Z</time>
      </trkpt>
      <trkpt lat="44.38708" lon="5.84225">
        <ele>1188.81</ele>
        <time>2012-03-22T13:02:04Z</time>
      </trkpt>
      <trkpt lat="44.3871" lon="5.84223">
        <ele>1196.02</ele>
        <time>2012-03-22T13:02:06Z</time>
      </trkpt>
      <trkpt lat="44.38711" lon="5.84222">
        <ele>1189.77</ele>
        <time>2012-03-22T13:02:07Z</time>
      </trkpt>
      <trkpt lat="44.38713" lon="5.84219">
        <ele>1196.5</ele>
        <time>2012-03-22T13:02:10Z</time>
      </trkpt>
      <trkpt lat="44.38713" lon="5.84218">
        <ele>1191.69</ele>
        <time>2012-03-22T13:02:11Z</time>
      </trkpt>
      <trkpt lat="44.3872" lon="5.8421">
        <ele>1189.77</ele>
        <time>2012-03-22T13:02:19Z</time>
      </trkpt>
      <trkpt lat="44.38722" lon="5.84206">
        <ele>1192.17</ele>
        <time>2012-03-22T13:02:23Z</time>
      </trkpt>
      <trkpt lat="44.38724" lon="5.84204">
        <ele>1196.5</ele>
        <time>2012-03-22T13:02:26Z</time>
      </trkpt>
      <trkpt lat="44.38725" lon="5.84203">
        <ele>1192.17</ele>
        <time>2012-03-22T13:02:27Z</time>
      </trkpt>
      <trkpt lat="44.38726" lon="5.84202">
        <ele>1190.73</ele>
        <time>2012-03-22T13:02:28Z</time>
      </trkpt>
      <trkpt lat="44.38728" lon="5.84199">
        <ele>1194.58</ele>
        <time>2012-03-22T13:02:30Z</time>
      </trkpt>
      <trkpt lat="44.38728" lon="5.84198">
        <ele>1188.33</ele>
        <time>2012-03-22T13:02:31Z</time>
      </trkpt>
      <trkpt lat="44.3873" lon="5.84195">
        <ele>1195.54</ele>
        <time>2012-03-22T13:02:33Z</time>
      </trkpt>
      <trkpt lat="44.38731" lon="5.84194">
        <ele>1196.02</ele>
        <time>2012-03-22T13:02:34Z</time>
      </trkpt>
      <trkpt lat="44.38732" lon="5.84192">
        <ele>1192.17</ele>
        <time>2012-03-22T13:02:36Z</time>
      </trkpt>
      <trkpt lat="44.38735" lon="5.8419">
        <ele>1193.13</ele>
        <time>2012-03-22T13:02:38Z</time>
      </trkpt>
      <trkpt lat="44.38736" lon="5.84188">
        <ele>1192.17</ele>
        <time>2012-03-22T13:02:40Z</time>
      </trkpt>
      <trkpt lat="44.38739" lon="5.84185">
        <ele>1192.65</ele>
        <time>2012-03-22T13:02:43Z</time>
      </trkpt>
      <trkpt lat="44.38743" lon="5.84181">
        <ele>1198.9</ele>
        <time>2012-03-22T13:02:48Z</time>
      </trkpt>
      <trkpt lat="44.38744" lon="5.84181">
        <ele>1194.58</ele>
        <time>2012-03-22T13:02:49Z</time>
      </trkpt>
      <trkpt lat="44.38745" lon="5.8418">
        <ele>1192.17</ele>
        <time>2012-03-22T13:02:50Z</time>
      </trkpt>
      <trkpt lat="44.38746" lon="5.84178">
        <ele>1199.38</ele>
        <time>2012-03-22T13:02:52Z</time>
      </trkpt>
      <trkpt lat="44.38747" lon="5.84177">
        <ele>1194.09</ele>
        <time>2012-03-22T13:02:53Z</time>
      </trkpt>
      <trkpt lat="44.38749" lon="5.84176">
        <ele>1193.13</ele>
        <time>2012-03-22T13:02:55Z</time>
      </trkpt>
      <trkpt lat="44.38751" lon="5.84175">
        <ele>1193.61</ele>
        <time>2012-03-22T13:02:57Z</time>
      </trkpt>
      <trkpt lat="44.38755" lon="5.84175">
        <ele>1195.54</ele>
        <time>2012-03-22T13:03:01Z</time>
      </trkpt>
      <trkpt lat="44.38757" lon="5.84174">
        <ele>1192.65</ele>
        <time>2012-03-22T13:03:03Z</time>
      </trkpt>
      <trkpt lat="44.38759" lon="5.84172">
        <ele>1195.06</ele>
        <time>2012-03-22T13:03:05Z</time>
      </trkpt>
      <trkpt lat="44.3876" lon="5.84171">
        <ele>1194.09</ele>
        <time>2012-03-22T13:03:06Z</time>
      </trkpt>
      <trkpt lat="44.38762" lon="5.84169">
        <ele>1193.61</ele>
        <time>2012-03-22T13:03:08Z</time>
      </trkpt>
      <trkpt lat="44.38763" lon="5.84169">
        <ele>1203.23</ele>
        <time>2012-03-22T13:03:09Z</time>
      </trkpt>
      <trkpt lat="44.38763" lon="5.84169">
        <ele>1195.06</ele>
        <time>2012-03-22T13:03:10Z</time>
      </trkpt>
      <trkpt lat="44.38769" lon="5.8416">
        <ele>1195.54</ele>
        <time>2012-03-22T13:03:20Z</time>
      </trkpt>
      <trkpt lat="44.3877" lon="5.84158">
        <ele>1199.86</ele>
        <time>2012-03-22T13:03:22Z</time>
      </trkpt>
      <trkpt lat="44.3877" lon="5.84157">
        <ele>1196.02</ele>
        <time>2012-03-22T13:03:23Z</time>
      </trkpt>
      <trkpt lat="44.38772" lon="5.84152">
        <ele>1197.46</ele>
        <time>2012-03-22T13:03:26Z</time>
      </trkpt>
      <trkpt lat="44.38774" lon="5.84149">
        <ele>1196.02</ele>
        <time>2012-03-22T13:03:29Z</time>
      </trkpt>
      <trkpt lat="44.38775" lon="5.84146">
        <ele>1192.65</ele>
        <time>2012-03-22T13:03:31Z</time>
      </trkpt>
      <trkpt lat="44.38776" lon="5.84141">
        <ele>1195.06</ele>
        <time>2012-03-22T13:03:34Z</time>
      </trkpt>
      <trkpt lat="44.38778" lon="5.84137">
        <ele>1197.46</ele>
        <time>2012-03-22T13:03:38Z</time>
      </trkpt>
      <trkpt lat="44.38782" lon="5.84126">
        <ele>1196.98</ele>
        <time>2012-03-22T13:03:46Z</time>
      </trkpt>
      <trkpt lat="44.38784" lon="5.8412">
        <ele>1200.82</ele>
        <time>2012-03-22T13:03:50Z</time>
      </trkpt>
      <trkpt lat="44.38785" lon="5.84119">
        <ele>1199.38</ele>
        <time>2012-03-22T13:03:52Z</time>
      </trkpt>
      <trkpt lat="44.38786" lon="5.84116">
        <ele>1197.94</ele>
        <time>2012-03-22T13:03:54Z</time>
      </trkpt>
      <trkpt lat="44.38787" lon="5.84113">
        <ele>1195.06</ele>
        <time>2012-03-22T13:03:56Z</time>
      </trkpt>
      <trkpt lat="44.38788" lon="5.8411">
        <ele>1200.82</ele>
        <time>2012-03-22T13:03:58Z</time>
      </trkpt>
      <trkpt lat="44.38788" lon="5.84109">
        <ele>1196.98</ele>
        <time>2012-03-22T13:03:59Z</time>
      </trkpt>
      <trkpt lat="44.3879" lon="5.84105">
        <ele>1201.79</ele>
        <time>2012-03-22T13:04:02Z</time>
      </trkpt>
      <trkpt lat="44.38791" lon="5.84104">
        <ele>1194.58</ele>
        <time>2012-03-22T13:04:03Z</time>
      </trkpt>
      <trkpt lat="44.38791" lon="5.84102">
        <ele>1197.46</ele>
        <time>2012-03-22T13:04:04Z</time>
      </trkpt>
      <trkpt lat="44.38792" lon="5.84101">
        <ele>1206.59</ele>
        <time>2012-03-22T13:04:05Z</time>
      </trkpt>
      <trkpt lat="44.38792" lon="5.841">
        <ele>1199.86</ele>
        <time>2012-03-22T13:04:06Z</time>
      </trkpt>
      <trkpt lat="44.38794" lon="5.84095">
        <ele>1203.23</ele>
        <time>2012-03-22T13:04:10Z</time>
      </trkpt>
      <trkpt lat="44.38794" lon="5.84094">
        <ele>1199.38</ele>
        <time>2012-03-22T13:04:11Z</time>
      </trkpt>
      <trkpt lat="44.38795" lon="5.84093">
        <ele>1194.58</ele>
        <time>2012-03-22T13:04:13Z</time>
      </trkpt>
      <trkpt lat="44.38796" lon="5.84092">
        <ele>1198.42</ele>
        <time>2012-03-22T13:04:14Z</time>
      </trkpt>
      <trkpt lat="44.38797" lon="5.84086">
        <ele>1195.54</ele>
        <time>2012-03-22T13:04:18Z</time>
      </trkpt>
      <trkpt lat="44.38798" lon="5.84083">
        <ele>1204.67</ele>
        <time>2012-03-22T13:04:20Z</time>
      </trkpt>
      <trkpt lat="44.38799" lon="5.84082">
        <ele>1199.86</ele>
        <time>2012-03-22T13:04:21Z</time>
      </trkpt>
      <trkpt lat="44.388" lon="5.84076">
        <ele>1199.38</ele>
        <time>2012-03-22T13:04:26Z</time>
      </trkpt>
      <trkpt lat="44.38804" lon="5.84065">
        <ele>1197.46</ele>
        <time>2012-03-22T13:04:34Z</time>
      </trkpt>
      <trkpt lat="44.38805" lon="5.84063">
        <ele>1201.3</ele>
        <time>2012-03-22T13:04:36Z</time>
      </trkpt>
      <trkpt lat="44.38806" lon="5.8406">
        <ele>1197.94</ele>
        <time>2012-03-22T13:04:38Z</time>
      </trkpt>
      <trkpt lat="44.38806" lon="5.84059">
        <ele>1199.38</ele>
        <time>2012-03-22T13:04:39Z</time>
      </trkpt>
      <trkpt lat="44.38807" lon="5.84056">
        <ele>1206.11</ele>
        <time>2012-03-22T13:04:41Z</time>
      </trkpt>
      <trkpt lat="44.38808" lon="5.84054">
        <ele>1199.38</ele>
        <time>2012-03-22T13:04:43Z</time>
      </trkpt>
      <trkpt lat="44.38808" lon="5.84053">
        <ele>1199.86</ele>
        <time>2012-03-22T13:04:44Z</time>
      </trkpt>
      <trkpt lat="44.38809" lon="5.8405">
        <ele>1200.82</ele>
        <time>2012-03-22T13:04:46Z</time>
      </trkpt>
      <trkpt lat="44.3881" lon="5.84045">
        <ele>1200.34</ele>
        <time>2012-03-22T13:04:49Z</time>
      </trkpt>
      <trkpt lat="44.38812" lon="5.84041">
        <ele>1194.58</ele>
        <time>2012-03-22T13:04:52Z</time>
      </trkpt>
      <trkpt lat="44.38812" lon="5.8404">
        <ele>1199.38</ele>
        <time>2012-03-22T13:04:53Z</time>
      </trkpt>
      <trkpt lat="44.38812" lon="5.84039">
        <ele>1203.23</ele>
        <time>2012-03-22T13:04:54Z</time>
      </trkpt>
      <trkpt lat="44.38815" lon="5.84032">
        <ele>1208.51</ele>
        <time>2012-03-22T13:04:58Z</time>
      </trkpt>
      <trkpt lat="44.38815" lon="5.8403">
        <ele>1205.63</ele>
        <time>2012-03-22T13:04:59Z</time>
      </trkpt>
      <trkpt lat="44.38815" lon="5.84028">
        <ele>1200.34</ele>
        <time>2012-03-22T13:05:00Z</time>
      </trkpt>
      <trkpt lat="44.38816" lon="5.84027">
        <ele>1201.79</ele>
        <time>2012-03-22T13:05:01Z</time>
      </trkpt>
      <trkpt lat="44.38819" lon="5.84015">
        <ele>1202.27</ele>
        <time>2012-03-22T13:05:09Z</time>
      </trkpt>
      <trkpt lat="44.3882" lon="5.84009">
        <ele>1196.98</ele>
        <time>2012-03-22T13:05:13Z</time>
      </trkpt>
      <trkpt lat="44.38821" lon="5.84007">
        <ele>1201.79</ele>
        <time>2012-03-22T13:05:14Z</time>
      </trkpt>
      <trkpt lat="44.38821" lon="5.84006">
        <ele>1208.03</ele>
        <time>2012-03-22T13:05:15Z</time>
      </trkpt>
      <trkpt lat="44.38823" lon="5.83996">
        <ele>1203.23</ele>
        <time>2012-03-22T13:05:21Z</time>
      </trkpt>
      <trkpt lat="44.38823" lon="5.83986">
        <ele>1205.63</ele>
        <time>2012-03-22T13:05:28Z</time>
      </trkpt>
      <trkpt lat="44.38823" lon="5.83985">
        <ele>1210.92</ele>
        <time>2012-03-22T13:05:29Z</time>
      </trkpt>
      <trkpt lat="44.38823" lon="5.83984">
        <ele>1204.19</ele>
        <time>2012-03-22T13:05:30Z</time>
      </trkpt>
      <trkpt lat="44.38823" lon="5.83982">
        <ele>1201.3</ele>
        <time>2012-03-22T13:05:31Z</time>
      </trkpt>
      <trkpt lat="44.38823" lon="5.83981">
        <ele>1207.55</ele>
        <time>2012-03-22T13:05:32Z</time>
      </trkpt>
      <trkpt lat="44.38822" lon="5.83977">
        <ele>1204.67</ele>
        <time>2012-03-22T13:05:35Z</time>
      </trkpt>
      <trkpt lat="44.38826" lon="5.83966">
        <ele>1207.55</ele>
        <time>2012-03-22T13:05:43Z</time>
      </trkpt>
      <trkpt lat="44.38826" lon="5.83965">
        <ele>1200.34</ele>
        <time>2012-03-22T13:05:44Z</time>
      </trkpt>
      <trkpt lat="44.38827" lon="5.83964">
        <ele>1206.59</ele>
        <time>2012-03-22T13:05:45Z</time>
      </trkpt>
      <trkpt lat="44.3883" lon="5.83961">
        <ele>1203.23</ele>
        <time>2012-03-22T13:05:48Z</time>
      </trkpt>
      <trkpt lat="44.38832" lon="5.83959">
        <ele>1208.51</ele>
        <time>2012-03-22T13:05:50Z</time>
      </trkpt>
      <trkpt lat="44.38833" lon="5.83958">
        <ele>1212.84</ele>
        <time>2012-03-22T13:05:52Z</time>
      </trkpt>
      <trkpt lat="44.38834" lon="5.83957">
        <ele>1207.07</ele>
        <time>2012-03-22T13:05:53Z</time>
      </trkpt>
      <trkpt lat="44.38835" lon="5.83957">
        <ele>1207.07</ele>
        <time>2012-03-22T13:05:54Z</time>
      </trkpt>
      <trkpt lat="44.38837" lon="5.83956">
        <ele>1211.88</ele>
        <time>2012-03-22T13:05:56Z</time>
      </trkpt>
      <trkpt lat="44.38838" lon="5.83954">
        <ele>1204.67</ele>
        <time>2012-03-22T13:05:58Z</time>
      </trkpt>
      <trkpt lat="44.38839" lon="5.83953">
        <ele>1206.11</ele>
        <time>2012-03-22T13:05:59Z</time>
      </trkpt>
      <trkpt lat="44.38841" lon="5.83951">
        <ele>1204.19</ele>
        <time>2012-03-22T13:06:02Z</time>
      </trkpt>
      <trkpt lat="44.38843" lon="5.83952">
        <ele>1206.59</ele>
        <time>2012-03-22T13:06:04Z</time>
      </trkpt>
      <trkpt lat="44.38845" lon="5.83949">
        <ele>1207.55</ele>
        <time>2012-03-22T13:06:07Z</time>
      </trkpt>
      <trkpt lat="44.38846" lon="5.83947">
        <ele>1210.92</ele>
        <time>2012-03-22T13:06:09Z</time>
      </trkpt>
      <trkpt lat="44.38847" lon="5.83945">
        <ele>1207.07</ele>
        <time>2012-03-22T13:06:10Z</time>
      </trkpt>
      <trkpt lat="44.3885" lon="5.83942">
        <ele>1213.8</ele>
        <time>2012-03-22T13:06:13Z</time>
      </trkpt>
      <trkpt lat="44.3885" lon="5.83941">
        <ele>1208.51</ele>
        <time>2012-03-22T13:06:14Z</time>
      </trkpt>
      <trkpt lat="44.38853" lon="5.83938">
        <ele>1206.59</ele>
        <time>2012-03-22T13:06:17Z</time>
      </trkpt>
      <trkpt lat="44.38855" lon="5.83936">
        <ele>1206.59</ele>
        <time>2012-03-22T13:06:19Z</time>
      </trkpt>
      <trkpt lat="44.38856" lon="5.83931">
        <ele>1210.44</ele>
        <time>2012-03-22T13:06:22Z</time>
      </trkpt>
      <trkpt lat="44.38858" lon="5.83926">
        <ele>1215.24</ele>
        <time>2012-03-22T13:06:26Z</time>
      </trkpt>
      <trkpt lat="44.38858" lon="5.83926">
        <ele>1213.32</ele>
        <time>2012-03-22T13:06:27Z</time>
      </trkpt>
      <trkpt lat="44.38859" lon="5.83925">
        <ele>1207.55</ele>
        <time>2012-03-22T13:06:28Z</time>
      </trkpt>
      <trkpt lat="44.38861" lon="5.83921">
        <ele>1209.48</ele>
        <time>2012-03-22T13:06:30Z</time>
      </trkpt>
      <trkpt lat="44.38861" lon="5.83917">
        <ele>1212.36</ele>
        <time>2012-03-22T13:06:32Z</time>
      </trkpt>
      <trkpt lat="44.38862" lon="5.83913">
        <ele>1209</ele>
        <time>2012-03-22T13:06:34Z</time>
      </trkpt>
      <trkpt lat="44.38863" lon="5.83908">
        <ele>1212.84</ele>
        <time>2012-03-22T13:06:37Z</time>
      </trkpt>
      <trkpt lat="44.38863" lon="5.83906">
        <ele>1209.48</ele>
        <time>2012-03-22T13:06:38Z</time>
      </trkpt>
      <trkpt lat="44.38862" lon="5.83892">
        <ele>1211.88</ele>
        <time>2012-03-22T13:06:47Z</time>
      </trkpt>
      <trkpt lat="44.38862" lon="5.83883">
        <ele>1213.8</ele>
        <time>2012-03-22T13:06:53Z</time>
      </trkpt>
      <trkpt lat="44.38862" lon="5.83881">
        <ele>1210.92</ele>
        <time>2012-03-22T13:06:54Z</time>
      </trkpt>
      <trkpt lat="44.38862" lon="5.83879">
        <ele>1208.03</ele>
        <time>2012-03-22T13:06:56Z</time>
      </trkpt>
      <trkpt lat="44.38862" lon="5.83877">
        <ele>1209.96</ele>
        <time>2012-03-22T13:06:57Z</time>
      </trkpt>
      <trkpt lat="44.38862" lon="5.83872">
        <ele>1211.4</ele>
        <time>2012-03-22T13:07:00Z</time>
      </trkpt>
      <trkpt lat="44.38861" lon="5.8387">
        <ele>1209.48</ele>
        <time>2012-03-22T13:07:02Z</time>
      </trkpt>
      <trkpt lat="44.38861" lon="5.83868">
        <ele>1212.84</ele>
        <time>2012-03-22T13:07:03Z</time>
      </trkpt>
      <trkpt lat="44.38861" lon="5.83867">
        <ele>1210.92</ele>
        <time>2012-03-22T13:07:04Z</time>
      </trkpt>
      <trkpt lat="44.38861" lon="5.83861">
        <ele>1209</ele>
        <time>2012-03-22T13:07:08Z</time>
      </trkpt>
      <trkpt lat="44.38861" lon="5.83853">
        <ele>1211.4</ele>
        <time>2012-03-22T13:07:12Z</time>
      </trkpt>
      <trkpt lat="44.38861" lon="5.8385">
        <ele>1206.11</ele>
        <time>2012-03-22T13:07:14Z</time>
      </trkpt>
      <trkpt lat="44.38861" lon="5.83848">
        <ele>1209.96</ele>
        <time>2012-03-22T13:07:15Z</time>
      </trkpt>
      <trkpt lat="44.38861" lon="5.83847">
        <ele>1211.88</ele>
        <time>2012-03-22T13:07:16Z</time>
      </trkpt>
      <trkpt lat="44.38861" lon="5.83843">
        <ele>1213.32</ele>
        <time>2012-03-22T13:07:18Z</time>
      </trkpt>
      <trkpt lat="44.38861" lon="5.83842">
        <ele>1209.96</ele>
        <time>2012-03-22T13:07:19Z</time>
      </trkpt>
      <trkpt lat="44.38862" lon="5.83838">
        <ele>1209.48</ele>
        <time>2012-03-22T13:07:22Z</time>
      </trkpt>
      <trkpt lat="44.38862" lon="5.83834">
        <ele>1216.21</ele>
        <time>2012-03-22T13:07:24Z</time>
      </trkpt>
      <trkpt lat="44.38862" lon="5.83832">
        <ele>1212.36</ele>
        <time>2012-03-22T13:07:25Z</time>
      </trkpt>
      <trkpt lat="44.38862" lon="5.83831">
        <ele>1209.48</ele>
        <time>2012-03-22T13:07:26Z</time>
      </trkpt>
      <trkpt lat="44.38864" lon="5.83826">
        <ele>1213.32</ele>
        <time>2012-03-22T13:07:29Z</time>
      </trkpt>
      <trkpt lat="44.38865" lon="5.83822">
        <ele>1212.36</ele>
        <time>2012-03-22T13:07:31Z</time>
      </trkpt>
      <trkpt lat="44.38865" lon="5.83818">
        <ele>1209</ele>
        <time>2012-03-22T13:07:33Z</time>
      </trkpt>
      <trkpt lat="44.38865" lon="5.83816">
        <ele>1210.44</ele>
        <time>2012-03-22T13:07:34Z</time>
      </trkpt>
      <trkpt lat="44.38867" lon="5.83813">
        <ele>1215.72</ele>
        <time>2012-03-22T13:07:37Z</time>
      </trkpt>
      <trkpt lat="44.38867" lon="5.83811">
        <ele>1209</ele>
        <time>2012-03-22T13:07:39Z</time>
      </trkpt>
      <trkpt lat="44.38868" lon="5.8381">
        <ele>1210.44</ele>
        <time>2012-03-22T13:07:40Z</time>
      </trkpt>
      <trkpt lat="44.3887" lon="5.838">
        <ele>1209.48</ele>
        <time>2012-03-22T13:07:46Z</time>
      </trkpt>
      <trkpt lat="44.38871" lon="5.83791">
        <ele>1209.96</ele>
        <time>2012-03-22T13:07:51Z</time>
      </trkpt>
      <trkpt lat="44.38872" lon="5.83789">
        <ele>1210.44</ele>
        <time>2012-03-22T13:07:53Z</time>
      </trkpt>
      <trkpt lat="44.38871" lon="5.83784">
        <ele>1208.51</ele>
        <time>2012-03-22T13:07:56Z</time>
      </trkpt>
      <trkpt lat="44.38869" lon="5.83778">
        <ele>1211.88</ele>
        <time>2012-03-22T13:08:00Z</time>
      </trkpt>
      <trkpt lat="44.38869" lon="5.83774">
        <ele>1210.92</ele>
        <time>2012-03-22T13:08:02Z</time>
      </trkpt>
      <trkpt lat="44.38866" lon="5.83769">
        <ele>1208.03</ele>
        <time>2012-03-22T13:08:05Z</time>
      </trkpt>
      <trkpt lat="44.38866" lon="5.83761">
        <ele>1213.32</ele>
        <time>2012-03-22T13:08:10Z</time>
      </trkpt>
      <trkpt lat="44.38865" lon="5.83759">
        <ele>1212.36</ele>
        <time>2012-03-22T13:08:11Z</time>
      </trkpt>
      <trkpt lat="44.38863" lon="5.83754">
        <ele>1207.55</ele>
        <time>2012-03-22T13:08:15Z</time>
      </trkpt>
      <trkpt lat="44.38862" lon="5.83749">
        <ele>1213.8</ele>
        <time>2012-03-22T13:08:18Z</time>
      </trkpt>
      <trkpt lat="44.3886" lon="5.83745">
        <ele>1209.48</ele>
        <time>2012-03-22T13:08:21Z</time>
      </trkpt>
      <trkpt lat="44.3886" lon="5.83743">
        <ele>1209.48</ele>
        <time>2012-03-22T13:08:22Z</time>
      </trkpt>
      <trkpt lat="44.38859" lon="5.83736">
        <ele>1213.8</ele>
        <time>2012-03-22T13:08:26Z</time>
      </trkpt>
      <trkpt lat="44.38859" lon="5.83735">
        <ele>1209.48</ele>
        <time>2012-03-22T13:08:27Z</time>
      </trkpt>
      <trkpt lat="44.38858" lon="5.83733">
        <ele>1209.48</ele>
        <time>2012-03-22T13:08:28Z</time>
      </trkpt>
      <trkpt lat="44.38858" lon="5.83724">
        <ele>1216.69</ele>
        <time>2012-03-22T13:08:34Z</time>
      </trkpt>
      <trkpt lat="44.38853" lon="5.83704">
        <ele>1208.51</ele>
        <time>2012-03-22T13:08:44Z</time>
      </trkpt>
      <trkpt lat="44.38852" lon="5.837">
        <ele>1211.88</ele>
        <time>2012-03-22T13:08:46Z</time>
      </trkpt>
      <trkpt lat="44.38852" lon="5.83699">
        <ele>1211.88</ele>
        <time>2012-03-22T13:08:47Z</time>
      </trkpt>
      <trkpt lat="44.38851" lon="5.83698">
        <ele>1208.03</ele>
        <time>2012-03-22T13:08:48Z</time>
      </trkpt>
      <trkpt lat="44.38851" lon="5.83696">
        <ele>1209.96</ele>
        <time>2012-03-22T13:08:49Z</time>
      </trkpt>
      <trkpt lat="44.38845" lon="5.83689">
        <ele>1209.48</ele>
        <time>2012-03-22T13:08:57Z</time>
      </trkpt>
      <trkpt lat="44.38844" lon="5.83689">
        <ele>1209.48</ele>
        <time>2012-03-22T13:08:58Z</time>
      </trkpt>
      <trkpt lat="44.38838" lon="5.83685">
        <ele>1205.63</ele>
        <time>2012-03-22T13:09:04Z</time>
      </trkpt>
      <trkpt lat="44.38835" lon="5.83683">
        <ele>1215.72</ele>
        <time>2012-03-22T13:09:07Z</time>
      </trkpt>
      <trkpt lat="44.38834" lon="5.83683">
        <ele>1215.24</ele>
        <time>2012-03-22T13:09:08Z</time>
      </trkpt>
      <trkpt lat="44.38834" lon="5.83682">
        <ele>1211.88</ele>
        <time>2012-03-22T13:09:09Z</time>
      </trkpt>
      <trkpt lat="44.3883" lon="5.83676">
        <ele>1212.84</ele>
        <time>2012-03-22T13:09:13Z</time>
      </trkpt>
      <trkpt lat="44.3883" lon="5.83675">
        <ele>1213.32</ele>
        <time>2012-03-22T13:09:14Z</time>
      </trkpt>
      <trkpt lat="44.38829" lon="5.83671">
        <ele>1206.11</ele>
        <time>2012-03-22T13:09:16Z</time>
      </trkpt>
      <trkpt lat="44.3883" lon="5.83668">
        <ele>1211.4</ele>
        <time>2012-03-22T13:09:18Z</time>
      </trkpt>
      <trkpt lat="44.38834" lon="5.8366">
        <ele>1208.03</ele>
        <time>2012-03-22T13:09:24Z</time>
      </trkpt>
      <trkpt lat="44.38834" lon="5.83659">
        <ele>1211.4</ele>
        <time>2012-03-22T13:09:25Z</time>
      </trkpt>
      <trkpt lat="44.38838" lon="5.83655">
        <ele>1209.96</ele>
        <time>2012-03-22T13:09:29Z</time>
      </trkpt>
      <trkpt lat="44.38839" lon="5.83654">
        <ele>1206.59</ele>
        <time>2012-03-22T13:09:30Z</time>
      </trkpt>
      <trkpt lat="44.38842" lon="5.83653">
        <ele>1205.15</ele>
        <time>2012-03-22T13:09:33Z</time>
      </trkpt>
      <trkpt lat="44.38842" lon="5.83652">
        <ele>1207.55</ele>
        <time>2012-03-22T13:09:34Z</time>
      </trkpt>
      <trkpt lat="44.38843" lon="5.83651">
        <ele>1206.11</ele>
        <time>2012-03-22T13:09:35Z</time>
      </trkpt>
      <trkpt lat="44.38845" lon="5.8365">
        <ele>1210.44</ele>
        <time>2012-03-22T13:09:37Z</time>
      </trkpt>
      <trkpt lat="44.38847" lon="5.83649">
        <ele>1209</ele>
        <time>2012-03-22T13:09:39Z</time>
      </trkpt>
      <trkpt lat="44.38853" lon="5.83644">
        <ele>1205.63</ele>
        <time>2012-03-22T13:09:45Z</time>
      </trkpt>
      <trkpt lat="44.38853" lon="5.83643">
        <ele>1206.11</ele>
        <time>2012-03-22T13:09:46Z</time>
      </trkpt>
      <trkpt lat="44.38855" lon="5.83642">
        <ele>1209</ele>
        <time>2012-03-22T13:09:48Z</time>
      </trkpt>
      <trkpt lat="44.38857" lon="5.83639">
        <ele>1209.96</ele>
        <time>2012-03-22T13:09:50Z</time>
      </trkpt>
      <trkpt lat="44.38858" lon="5.83637">
        <ele>1208.51</ele>
        <time>2012-03-22T13:09:52Z</time>
      </trkpt>
      <trkpt lat="44.38862" lon="5.83633">
        <ele>1207.55</ele>
        <time>2012-03-22T13:09:55Z</time>
      </trkpt>
      <trkpt lat="44.38863" lon="5.8363">
        <ele>1209.48</ele>
        <time>2012-03-22T13:09:57Z</time>
      </trkpt>
      <trkpt lat="44.38864" lon="5.83628">
        <ele>1206.59</ele>
        <time>2012-03-22T13:09:59Z</time>
      </trkpt>
      <trkpt lat="44.38866" lon="5.83625">
        <ele>1208.51</ele>
        <time>2012-03-22T13:10:02Z</time>
      </trkpt>
      <trkpt lat="44.38867" lon="5.83616">
        <ele>1201.79</ele>
        <time>2012-03-22T13:10:07Z</time>
      </trkpt>
      <trkpt lat="44.38867" lon="5.83613">
        <ele>1208.03</ele>
        <time>2012-03-22T13:10:09Z</time>
      </trkpt>
      <trkpt lat="44.38866" lon="5.83609">
        <ele>1204.67</ele>
        <time>2012-03-22T13:10:12Z</time>
      </trkpt>
      <trkpt lat="44.38866" lon="5.83607">
        <ele>1205.63</ele>
        <time>2012-03-22T13:10:13Z</time>
      </trkpt>
      <trkpt lat="44.38866" lon="5.83596">
        <ele>1205.15</ele>
        <time>2012-03-22T13:10:20Z</time>
      </trkpt>
      <trkpt lat="44.38866" lon="5.83587">
        <ele>1208.03</ele>
        <time>2012-03-22T13:10:26Z</time>
      </trkpt>
      <trkpt lat="44.38865" lon="5.83585">
        <ele>1203.23</ele>
        <time>2012-03-22T13:10:27Z</time>
      </trkpt>
      <trkpt lat="44.38865" lon="5.83584">
        <ele>1204.19</ele>
        <time>2012-03-22T13:10:28Z</time>
      </trkpt>
      <trkpt lat="44.38864" lon="5.83575">
        <ele>1208.51</ele>
        <time>2012-03-22T13:10:33Z</time>
      </trkpt>
      <trkpt lat="44.38864" lon="5.83574">
        <ele>1202.75</ele>
        <time>2012-03-22T13:10:34Z</time>
      </trkpt>
      <trkpt lat="44.38864" lon="5.83566">
        <ele>1204.67</ele>
        <time>2012-03-22T13:10:38Z</time>
      </trkpt>
      <trkpt lat="44.38864" lon="5.83553">
        <ele>1204.19</ele>
        <time>2012-03-22T13:10:46Z</time>
      </trkpt>
      <trkpt lat="44.38864" lon="5.83549">
        <ele>1201.3</ele>
        <time>2012-03-22T13:10:49Z</time>
      </trkpt>
      <trkpt lat="44.38864" lon="5.83544">
        <ele>1202.75</ele>
        <time>2012-03-22T13:10:53Z</time>
      </trkpt>
      <trkpt lat="44.38865" lon="5.83535">
        <ele>1200.34</ele>
        <time>2012-03-22T13:10:59Z</time>
      </trkpt>
      <trkpt lat="44.38866" lon="5.8353">
        <ele>1200.82</ele>
        <time>2012-03-22T13:11:02Z</time>
      </trkpt>
      <trkpt lat="44.38867" lon="5.83526">
        <ele>1207.55</ele>
        <time>2012-03-22T13:11:05Z</time>
      </trkpt>
      <trkpt lat="44.38867" lon="5.83525">
        <ele>1201.79</ele>
        <time>2012-03-22T13:11:06Z</time>
      </trkpt>
      <trkpt lat="44.3887" lon="5.83511">
        <ele>1202.27</ele>
        <time>2012-03-22T13:11:14Z</time>
      </trkpt>
      <trkpt lat="44.38871" lon="5.8351">
        <ele>1198.9</ele>
        <time>2012-03-22T13:11:15Z</time>
      </trkpt>
      <trkpt lat="44.38876" lon="5.83502">
        <ele>1203.71</ele>
        <time>2012-03-22T13:11:21Z</time>
      </trkpt>
      <trkpt lat="44.38876" lon="5.83501">
        <ele>1199.86</ele>
        <time>2012-03-22T13:11:22Z</time>
      </trkpt>
      <trkpt lat="44.38879" lon="5.83495">
        <ele>1199.86</ele>
        <time>2012-03-22T13:11:27Z</time>
      </trkpt>
      <trkpt lat="44.38886" lon="5.83486">
        <ele>1199.38</ele>
        <time>2012-03-22T13:11:35Z</time>
      </trkpt>
      <trkpt lat="44.38886" lon="5.83485">
        <ele>1199.38</ele>
        <time>2012-03-22T13:11:36Z</time>
      </trkpt>
      <trkpt lat="44.38889" lon="5.83479">
        <ele>1196.98</ele>
        <time>2012-03-22T13:11:40Z</time>
      </trkpt>
      <trkpt lat="44.38893" lon="5.83475">
        <ele>1197.46</ele>
        <time>2012-03-22T13:11:44Z</time>
      </trkpt>
      <trkpt lat="44.38896" lon="5.83466">
        <ele>1196.02</ele>
        <time>2012-03-22T13:11:50Z</time>
      </trkpt>
      <trkpt lat="44.389" lon="5.83455">
        <ele>1192.65</ele>
        <time>2012-03-22T13:11:58Z</time>
      </trkpt>
      <trkpt lat="44.38901" lon="5.83449">
        <ele>1196.02</ele>
        <time>2012-03-22T13:12:01Z</time>
      </trkpt>
      <trkpt lat="44.38902" lon="5.83445">
        <ele>1191.69</ele>
        <time>2012-03-22T13:12:03Z</time>
      </trkpt>
      <trkpt lat="44.38903" lon="5.83444">
        <ele>1194.58</ele>
        <time>2012-03-22T13:12:04Z</time>
      </trkpt>
      <trkpt lat="44.38904" lon="5.83441">
        <ele>1194.58</ele>
        <time>2012-03-22T13:12:06Z</time>
      </trkpt>
      <trkpt lat="44.38907" lon="5.83433">
        <ele>1187.85</ele>
        <time>2012-03-22T13:12:11Z</time>
      </trkpt>
      <trkpt lat="44.38908" lon="5.83427">
        <ele>1192.17</ele>
        <time>2012-03-22T13:12:15Z</time>
      </trkpt>
      <trkpt lat="44.3891" lon="5.8342">
        <ele>1196.02</ele>
        <time>2012-03-22T13:12:20Z</time>
      </trkpt>
      <trkpt lat="44.38911" lon="5.83419">
        <ele>1194.09</ele>
        <time>2012-03-22T13:12:21Z</time>
      </trkpt>
      <trkpt lat="44.38913" lon="5.83413">
        <ele>1186.88</ele>
        <time>2012-03-22T13:12:25Z</time>
      </trkpt>
      <trkpt lat="44.38914" lon="5.83412">
        <ele>1190.25</ele>
        <time>2012-03-22T13:12:26Z</time>
      </trkpt>
      <trkpt lat="44.38914" lon="5.83409">
        <ele>1196.02</ele>
        <time>2012-03-22T13:12:28Z</time>
      </trkpt>
      <trkpt lat="44.38915" lon="5.83408">
        <ele>1194.09</ele>
        <time>2012-03-22T13:12:29Z</time>
      </trkpt>
      <trkpt lat="44.38916" lon="5.83404">
        <ele>1186.88</ele>
        <time>2012-03-22T13:12:32Z</time>
      </trkpt>
      <trkpt lat="44.38917" lon="5.83403">
        <ele>1188.33</ele>
        <time>2012-03-22T13:12:33Z</time>
      </trkpt>
      <trkpt lat="44.38917" lon="5.834">
        <ele>1195.06</ele>
        <time>2012-03-22T13:12:35Z</time>
      </trkpt>
      <trkpt lat="44.38918" lon="5.83398">
        <ele>1195.54</ele>
        <time>2012-03-22T13:12:36Z</time>
      </trkpt>
      <trkpt lat="44.38919" lon="5.83395">
        <ele>1190.25</ele>
        <time>2012-03-22T13:12:38Z</time>
      </trkpt>
      <trkpt lat="44.3892" lon="5.83394">
        <ele>1184.48</ele>
        <time>2012-03-22T13:12:39Z</time>
      </trkpt>
      <trkpt lat="44.3892" lon="5.83392">
        <ele>1190.73</ele>
        <time>2012-03-22T13:12:40Z</time>
      </trkpt>
      <trkpt lat="44.3892" lon="5.83391">
        <ele>1192.65</ele>
        <time>2012-03-22T13:12:41Z</time>
      </trkpt>
      <trkpt lat="44.38921" lon="5.83388">
        <ele>1194.58</ele>
        <time>2012-03-22T13:12:43Z</time>
      </trkpt>
      <trkpt lat="44.38921" lon="5.83387">
        <ele>1191.69</ele>
        <time>2012-03-22T13:12:44Z</time>
      </trkpt>
      <trkpt lat="44.38922" lon="5.83386">
        <ele>1191.21</ele>
        <time>2012-03-22T13:12:45Z</time>
      </trkpt>
      <trkpt lat="44.38923" lon="5.83383">
        <ele>1190.25</ele>
        <time>2012-03-22T13:12:47Z</time>
      </trkpt>
      <trkpt lat="44.38924" lon="5.83382">
        <ele>1185.92</ele>
        <time>2012-03-22T13:12:48Z</time>
      </trkpt>
      <trkpt lat="44.38924" lon="5.8338">
        <ele>1187.85</ele>
        <time>2012-03-22T13:12:49Z</time>
      </trkpt>
      <trkpt lat="44.38924" lon="5.83379">
        <ele>1191.69</ele>
        <time>2012-03-22T13:12:50Z</time>
      </trkpt>
      <trkpt lat="44.38924" lon="5.83378">
        <ele>1194.58</ele>
        <time>2012-03-22T13:12:51Z</time>
      </trkpt>
      <trkpt lat="44.38925" lon="5.83375">
        <ele>1190.73</ele>
        <time>2012-03-22T13:12:53Z</time>
      </trkpt>
      <trkpt lat="44.38925" lon="5.83372">
        <ele>1189.77</ele>
        <time>2012-03-22T13:12:55Z</time>
      </trkpt>
      <trkpt lat="44.38927" lon="5.83368">
        <ele>1192.65</ele>
        <time>2012-03-22T13:12:59Z</time>
      </trkpt>
      <trkpt lat="44.38928" lon="5.83367">
        <ele>1191.21</ele>
        <time>2012-03-22T13:13:00Z</time>
      </trkpt>
      <trkpt lat="44.3893" lon="5.83361">
        <ele>1185.44</ele>
        <time>2012-03-22T13:13:05Z</time>
      </trkpt>
      <trkpt lat="44.3893" lon="5.8336">
        <ele>1185.44</ele>
        <time>2012-03-22T13:13:06Z</time>
      </trkpt>
      <trkpt lat="44.3893" lon="5.83355">
        <ele>1191.21</ele>
        <time>2012-03-22T13:13:09Z</time>
      </trkpt>
      <trkpt lat="44.3893" lon="5.83352">
        <ele>1189.77</ele>
        <time>2012-03-22T13:13:11Z</time>
      </trkpt>
      <trkpt lat="44.38931" lon="5.83346">
        <ele>1184</ele>
        <time>2012-03-22T13:13:14Z</time>
      </trkpt>
      <trkpt lat="44.38932" lon="5.83345">
        <ele>1188.81</ele>
        <time>2012-03-22T13:13:15Z</time>
      </trkpt>
      <trkpt lat="44.38932" lon="5.83343">
        <ele>1187.85</ele>
        <time>2012-03-22T13:13:16Z</time>
      </trkpt>
      <trkpt lat="44.38933" lon="5.83339">
        <ele>1190.25</ele>
        <time>2012-03-22T13:13:19Z</time>
      </trkpt>
      <trkpt lat="44.38934" lon="5.83334">
        <ele>1187.37</ele>
        <time>2012-03-22T13:13:22Z</time>
      </trkpt>
      <trkpt lat="44.38935" lon="5.83333">
        <ele>1183.04</ele>
        <time>2012-03-22T13:13:23Z</time>
      </trkpt>
      <trkpt lat="44.38935" lon="5.83331">
        <ele>1187.85</ele>
        <time>2012-03-22T13:13:24Z</time>
      </trkpt>
      <trkpt lat="44.38935" lon="5.8333">
        <ele>1187.37</ele>
        <time>2012-03-22T13:13:25Z</time>
      </trkpt>
      <trkpt lat="44.38935" lon="5.83327">
        <ele>1189.29</ele>
        <time>2012-03-22T13:13:27Z</time>
      </trkpt>
      <trkpt lat="44.38937" lon="5.83319">
        <ele>1189.29</ele>
        <time>2012-03-22T13:13:32Z</time>
      </trkpt>
      <trkpt lat="44.38939" lon="5.83314">
        <ele>1187.85</ele>
        <time>2012-03-22T13:13:35Z</time>
      </trkpt>
      <trkpt lat="44.38939" lon="5.83311">
        <ele>1185.44</ele>
        <time>2012-03-22T13:13:37Z</time>
      </trkpt>
      <trkpt lat="44.38944" lon="5.83298">
        <ele>1188.81</ele>
        <time>2012-03-22T13:13:45Z</time>
      </trkpt>
      <trkpt lat="44.38944" lon="5.83295">
        <ele>1184.96</ele>
        <time>2012-03-22T13:13:47Z</time>
      </trkpt>
      <trkpt lat="44.38945" lon="5.83293">
        <ele>1184.96</ele>
        <time>2012-03-22T13:13:48Z</time>
      </trkpt>
      <trkpt lat="44.38945" lon="5.83288">
        <ele>1184.96</ele>
        <time>2012-03-22T13:13:51Z</time>
      </trkpt>
      <trkpt lat="44.38947" lon="5.83275">
        <ele>1185.92</ele>
        <time>2012-03-22T13:13:57Z</time>
      </trkpt>
      <trkpt lat="44.38947" lon="5.83266">
        <ele>1183.52</ele>
        <time>2012-03-22T13:14:02Z</time>
      </trkpt>
      <trkpt lat="44.38948" lon="5.83263">
        <ele>1184.48</ele>
        <time>2012-03-22T13:14:04Z</time>
      </trkpt>
      <trkpt lat="44.38948" lon="5.8324">
        <ele>1171.5</ele>
        <time>2012-03-22T13:14:18Z</time>
      </trkpt>
      <trkpt lat="44.38948" lon="5.83239">
        <ele>1184.48</ele>
        <time>2012-03-22T13:14:19Z</time>
      </trkpt>
      <trkpt lat="44.38948" lon="5.83232">
        <ele>1181.12</ele>
        <time>2012-03-22T13:14:24Z</time>
      </trkpt>
      <trkpt lat="44.38948" lon="5.8323">
        <ele>1175.83</ele>
        <time>2012-03-22T13:14:25Z</time>
      </trkpt>
      <trkpt lat="44.38948" lon="5.83229">
        <ele>1183.52</ele>
        <time>2012-03-22T13:14:26Z</time>
      </trkpt>
      <trkpt lat="44.38948" lon="5.83227">
        <ele>1182.56</ele>
        <time>2012-03-22T13:14:27Z</time>
      </trkpt>
      <trkpt lat="44.3895" lon="5.83213">
        <ele>1180.64</ele>
        <time>2012-03-22T13:14:37Z</time>
      </trkpt>
      <trkpt lat="44.38952" lon="5.83211">
        <ele>1180.16</ele>
        <time>2012-03-22T13:14:39Z</time>
      </trkpt>
      <trkpt lat="44.38952" lon="5.83194">
        <ele>1179.19</ele>
        <time>2012-03-22T13:14:50Z</time>
      </trkpt>
      <trkpt lat="44.38953" lon="5.83175">
        <ele>1178.23</ele>
        <time>2012-03-22T13:15:02Z</time>
      </trkpt>
      <trkpt lat="44.38954" lon="5.83156">
        <ele>1176.79</ele>
        <time>2012-03-22T13:15:12Z</time>
      </trkpt>
      <trkpt lat="44.38954" lon="5.83138">
        <ele>1174.39</ele>
        <time>2012-03-22T13:15:23Z</time>
      </trkpt>
      <trkpt lat="44.38955" lon="5.83124">
        <ele>1174.39</ele>
        <time>2012-03-22T13:15:32Z</time>
      </trkpt>
      <trkpt lat="44.38955" lon="5.83122">
        <ele>1173.43</ele>
        <time>2012-03-22T13:15:34Z</time>
      </trkpt>
      <trkpt lat="44.38955" lon="5.83105">
        <ele>1172.95</ele>
        <time>2012-03-22T13:15:43Z</time>
      </trkpt>
      <trkpt lat="44.38955" lon="5.83104">
        <ele>1172.95</ele>
        <time>2012-03-22T13:15:44Z</time>
      </trkpt>
      <trkpt lat="44.38956" lon="5.83091">
        <ele>1172.47</ele>
        <time>2012-03-22T13:15:52Z</time>
      </trkpt>
      <trkpt lat="44.38954" lon="5.83086">
        <ele>1171.5</ele>
        <time>2012-03-22T13:15:55Z</time>
      </trkpt>
      <trkpt lat="44.38954" lon="5.83076">
        <ele>1171.02</ele>
        <time>2012-03-22T13:16:02Z</time>
      </trkpt>
      <trkpt lat="44.38958" lon="5.83065">
        <ele>1170.06</ele>
        <time>2012-03-22T13:16:09Z</time>
      </trkpt>
      <trkpt lat="44.38956" lon="5.8306">
        <ele>1170.54</ele>
        <time>2012-03-22T13:16:17Z</time>
      </trkpt>
      <trkpt lat="44.38958" lon="5.83058">
        <ele>1171.5</ele>
        <time>2012-03-22T13:16:29Z</time>
      </trkpt>
      <trkpt lat="44.3896" lon="5.83054">
        <ele>1169.58</ele>
        <time>2012-03-22T13:16:31Z</time>
      </trkpt>
      <trkpt lat="44.38968" lon="5.83046">
        <ele>1169.1</ele>
        <time>2012-03-22T13:16:40Z</time>
      </trkpt>
      <trkpt lat="44.38975" lon="5.83036">
        <ele>1168.14</ele>
        <time>2012-03-22T13:16:49Z</time>
      </trkpt>
      <trkpt lat="44.38978" lon="5.83029">
        <ele>1167.18</ele>
        <time>2012-03-22T13:16:56Z</time>
      </trkpt>
      <trkpt lat="44.38984" lon="5.83018">
        <ele>1173.91</ele>
        <time>2012-03-22T13:17:02Z</time>
      </trkpt>
      <trkpt lat="44.38984" lon="5.83017">
        <ele>1168.62</ele>
        <time>2012-03-22T13:17:03Z</time>
      </trkpt>
      <trkpt lat="44.38985" lon="5.83015">
        <ele>1173.43</ele>
        <time>2012-03-22T13:17:04Z</time>
      </trkpt>
      <trkpt lat="44.38986" lon="5.83015">
        <ele>1161.41</ele>
        <time>2012-03-22T13:17:05Z</time>
      </trkpt>
      <trkpt lat="44.38986" lon="5.83014">
        <ele>1168.14</ele>
        <time>2012-03-22T13:17:06Z</time>
      </trkpt>
      <trkpt lat="44.38988" lon="5.8301">
        <ele>1164.77</ele>
        <time>2012-03-22T13:17:10Z</time>
      </trkpt>
      <trkpt lat="44.38997" lon="5.82998">
        <ele>1163.81</ele>
        <time>2012-03-22T13:17:20Z</time>
      </trkpt>
      <trkpt lat="44.39" lon="5.82993">
        <ele>1163.33</ele>
        <time>2012-03-22T13:17:24Z</time>
      </trkpt>
      <trkpt lat="44.39003" lon="5.82984">
        <ele>1162.37</ele>
        <time>2012-03-22T13:17:30Z</time>
      </trkpt>
      <trkpt lat="44.39006" lon="5.8297">
        <ele>1161.89</ele>
        <time>2012-03-22T13:17:37Z</time>
      </trkpt>
      <trkpt lat="44.39003" lon="5.82958">
        <ele>1160.45</ele>
        <time>2012-03-22T13:17:46Z</time>
      </trkpt>
      <trkpt lat="44.39002" lon="5.82957">
        <ele>1160.45</ele>
        <time>2012-03-22T13:17:47Z</time>
      </trkpt>
      <trkpt lat="44.38998" lon="5.8295">
        <ele>1159.01</ele>
        <time>2012-03-22T13:17:54Z</time>
      </trkpt>
      <trkpt lat="44.38997" lon="5.82947">
        <ele>1159.01</ele>
        <time>2012-03-22T13:17:56Z</time>
      </trkpt>
      <trkpt lat="44.38994" lon="5.82934">
        <ele>1159.01</ele>
        <time>2012-03-22T13:18:04Z</time>
      </trkpt>
      <trkpt lat="44.38992" lon="5.82921">
        <ele>1157.56</ele>
        <time>2012-03-22T13:18:12Z</time>
      </trkpt>
      <trkpt lat="44.38994" lon="5.82907">
        <ele>1157.08</ele>
        <time>2012-03-22T13:18:21Z</time>
      </trkpt>
      <trkpt lat="44.38994" lon="5.82906">
        <ele>1156.6</ele>
        <time>2012-03-22T13:18:22Z</time>
      </trkpt>
      <trkpt lat="44.38994" lon="5.82897">
        <ele>1156.12</ele>
        <time>2012-03-22T13:18:26Z</time>
      </trkpt>
      <trkpt lat="44.38999" lon="5.82882">
        <ele>1154.68</ele>
        <time>2012-03-22T13:18:35Z</time>
      </trkpt>
      <trkpt lat="44.38999" lon="5.82882">
        <ele>1155.16</ele>
        <time>2012-03-22T13:18:37Z</time>
      </trkpt>
      <trkpt lat="44.39004" lon="5.82873">
        <ele>1153.72</ele>
        <time>2012-03-22T13:18:45Z</time>
      </trkpt>
      <trkpt lat="44.39011" lon="5.82864">
        <ele>1152.76</ele>
        <time>2012-03-22T13:18:51Z</time>
      </trkpt>
      <trkpt lat="44.39016" lon="5.82856">
        <ele>1151.32</ele>
        <time>2012-03-22T13:18:59Z</time>
      </trkpt>
      <trkpt lat="44.39017" lon="5.82853">
        <ele>1151.32</ele>
        <time>2012-03-22T13:19:00Z</time>
      </trkpt>
      <trkpt lat="44.39019" lon="5.82847">
        <ele>1150.35</ele>
        <time>2012-03-22T13:19:06Z</time>
      </trkpt>
      <trkpt lat="44.39019" lon="5.82846">
        <ele>1150.84</ele>
        <time>2012-03-22T13:19:07Z</time>
      </trkpt>
      <trkpt lat="44.39019" lon="5.82842">
        <ele>1151.8</ele>
        <time>2012-03-22T13:19:09Z</time>
      </trkpt>
      <trkpt lat="44.39024" lon="5.82827">
        <ele>1149.39</ele>
        <time>2012-03-22T13:19:18Z</time>
      </trkpt>
      <trkpt lat="44.39026" lon="5.82822">
        <ele>1153.72</ele>
        <time>2012-03-22T13:19:22Z</time>
      </trkpt>
      <trkpt lat="44.39026" lon="5.82821">
        <ele>1150.35</ele>
        <time>2012-03-22T13:19:23Z</time>
      </trkpt>
      <trkpt lat="44.39026" lon="5.82818">
        <ele>1149.39</ele>
        <time>2012-03-22T13:19:25Z</time>
      </trkpt>
      <trkpt lat="44.3903" lon="5.82804">
        <ele>1148.43</ele>
        <time>2012-03-22T13:19:34Z</time>
      </trkpt>
      <trkpt lat="44.39036" lon="5.82787">
        <ele>1146.03</ele>
        <time>2012-03-22T13:19:45Z</time>
      </trkpt>
      <trkpt lat="44.39042" lon="5.82777">
        <ele>1146.51</ele>
        <time>2012-03-22T13:19:55Z</time>
      </trkpt>
      <trkpt lat="44.39043" lon="5.82773">
        <ele>1145.55</ele>
        <time>2012-03-22T13:19:57Z</time>
      </trkpt>
      <trkpt lat="44.39047" lon="5.82768">
        <ele>1146.03</ele>
        <time>2012-03-22T13:20:01Z</time>
      </trkpt>
      <trkpt lat="44.39051" lon="5.82751">
        <ele>1144.11</ele>
        <time>2012-03-22T13:20:11Z</time>
      </trkpt>
      <trkpt lat="44.39056" lon="5.82734">
        <ele>1143.14</ele>
        <time>2012-03-22T13:20:22Z</time>
      </trkpt>
      <trkpt lat="44.39057" lon="5.82717">
        <ele>1141.22</ele>
        <time>2012-03-22T13:20:32Z</time>
      </trkpt>
      <trkpt lat="44.39058" lon="5.82702">
        <ele>1140.74</ele>
        <time>2012-03-22T13:20:42Z</time>
      </trkpt>
      <trkpt lat="44.39058" lon="5.82685">
        <ele>1138.82</ele>
        <time>2012-03-22T13:20:52Z</time>
      </trkpt>
      <trkpt lat="44.39058" lon="5.82683">
        <ele>1139.3</ele>
        <time>2012-03-22T13:20:53Z</time>
      </trkpt>
      <trkpt lat="44.39054" lon="5.82673">
        <ele>1138.82</ele>
        <time>2012-03-22T13:20:58Z</time>
      </trkpt>
      <trkpt lat="44.39053" lon="5.82668">
        <ele>1137.38</ele>
        <time>2012-03-22T13:21:00Z</time>
      </trkpt>
      <trkpt lat="44.39052" lon="5.82658">
        <ele>1138.82</ele>
        <time>2012-03-22T13:21:05Z</time>
      </trkpt>
      <trkpt lat="44.39051" lon="5.8265">
        <ele>1137.38</ele>
        <time>2012-03-22T13:21:10Z</time>
      </trkpt>
      <trkpt lat="44.39052" lon="5.82643">
        <ele>1135.94</ele>
        <time>2012-03-22T13:21:15Z</time>
      </trkpt>
      <trkpt lat="44.39056" lon="5.82627">
        <ele>1134.97</ele>
        <time>2012-03-22T13:21:26Z</time>
      </trkpt>
      <trkpt lat="44.39059" lon="5.82609">
        <ele>1134.01</ele>
        <time>2012-03-22T13:21:38Z</time>
      </trkpt>
      <trkpt lat="44.39062" lon="5.82599">
        <ele>1130.17</ele>
        <time>2012-03-22T13:21:46Z</time>
      </trkpt>
      <trkpt lat="44.39064" lon="5.82589">
        <ele>1132.09</ele>
        <time>2012-03-22T13:21:52Z</time>
      </trkpt>
      <trkpt lat="44.39067" lon="5.82578">
        <ele>1130.65</ele>
        <time>2012-03-22T13:21:57Z</time>
      </trkpt>
      <trkpt lat="44.39069" lon="5.82558">
        <ele>1130.17</ele>
        <time>2012-03-22T13:22:07Z</time>
      </trkpt>
      <trkpt lat="44.3907" lon="5.82554">
        <ele>1130.17</ele>
        <time>2012-03-22T13:22:09Z</time>
      </trkpt>
      <trkpt lat="44.39071" lon="5.82547">
        <ele>1127.76</ele>
        <time>2012-03-22T13:22:13Z</time>
      </trkpt>
      <trkpt lat="44.39072" lon="5.8254">
        <ele>1132.09</ele>
        <time>2012-03-22T13:22:17Z</time>
      </trkpt>
      <trkpt lat="44.39074" lon="5.82537">
        <ele>1129.21</ele>
        <time>2012-03-22T13:22:19Z</time>
      </trkpt>
      <trkpt lat="44.39079" lon="5.82526">
        <ele>1127.76</ele>
        <time>2012-03-22T13:22:28Z</time>
      </trkpt>
      <trkpt lat="44.39081" lon="5.82521">
        <ele>1125.36</ele>
        <time>2012-03-22T13:22:32Z</time>
      </trkpt>
      <trkpt lat="44.39082" lon="5.82518">
        <ele>1129.69</ele>
        <time>2012-03-22T13:22:34Z</time>
      </trkpt>
      <trkpt lat="44.39084" lon="5.82513">
        <ele>1126.8</ele>
        <time>2012-03-22T13:22:37Z</time>
      </trkpt>
      <trkpt lat="44.39088" lon="5.82506">
        <ele>1127.76</ele>
        <time>2012-03-22T13:22:43Z</time>
      </trkpt>
      <trkpt lat="44.3909" lon="5.825">
        <ele>1125.84</ele>
        <time>2012-03-22T13:22:47Z</time>
      </trkpt>
      <trkpt lat="44.39093" lon="5.82495">
        <ele>1123.92</ele>
        <time>2012-03-22T13:22:51Z</time>
      </trkpt>
      <trkpt lat="44.39094" lon="5.8249">
        <ele>1126.8</ele>
        <time>2012-03-22T13:22:54Z</time>
      </trkpt>
      <trkpt lat="44.39095" lon="5.82487">
        <ele>1125.36</ele>
        <time>2012-03-22T13:22:56Z</time>
      </trkpt>
      <trkpt lat="44.39097" lon="5.82484">
        <ele>1123.92</ele>
        <time>2012-03-22T13:22:58Z</time>
      </trkpt>
      <trkpt lat="44.39097" lon="5.82482">
        <ele>1122.96</ele>
        <time>2012-03-22T13:22:59Z</time>
      </trkpt>
      <trkpt lat="44.39098" lon="5.82477">
        <ele>1123.44</ele>
        <time>2012-03-22T13:23:02Z</time>
      </trkpt>
      <trkpt lat="44.39099" lon="5.8247">
        <ele>1123.92</ele>
        <time>2012-03-22T13:23:06Z</time>
      </trkpt>
      <trkpt lat="44.39101" lon="5.82451">
        <ele>1121.52</ele>
        <time>2012-03-22T13:23:16Z</time>
      </trkpt>
      <trkpt lat="44.39103" lon="5.82444">
        <ele>1122</ele>
        <time>2012-03-22T13:23:20Z</time>
      </trkpt>
      <trkpt lat="44.39103" lon="5.82434">
        <ele>1120.55</ele>
        <time>2012-03-22T13:23:26Z</time>
      </trkpt>
      <trkpt lat="44.39103" lon="5.82428">
        <ele>1118.15</ele>
        <time>2012-03-22T13:23:29Z</time>
      </trkpt>
      <trkpt lat="44.39103" lon="5.82427">
        <ele>1119.59</ele>
        <time>2012-03-22T13:23:30Z</time>
      </trkpt>
      <trkpt lat="44.39103" lon="5.82424">
        <ele>1121.03</ele>
        <time>2012-03-22T13:23:32Z</time>
      </trkpt>
      <trkpt lat="44.39103" lon="5.82421">
        <ele>1120.55</ele>
        <time>2012-03-22T13:23:34Z</time>
      </trkpt>
      <trkpt lat="44.39101" lon="5.82415">
        <ele>1120.55</ele>
        <time>2012-03-22T13:23:38Z</time>
      </trkpt>
      <trkpt lat="44.39102" lon="5.82405">
        <ele>1116.23</ele>
        <time>2012-03-22T13:23:43Z</time>
      </trkpt>
      <trkpt lat="44.39101" lon="5.82401">
        <ele>1118.63</ele>
        <time>2012-03-22T13:23:46Z</time>
      </trkpt>
      <trkpt lat="44.391" lon="5.82383">
        <ele>1117.19</ele>
        <time>2012-03-22T13:23:57Z</time>
      </trkpt>
      <trkpt lat="44.391" lon="5.82378">
        <ele>1118.15</ele>
        <time>2012-03-22T13:24:00Z</time>
      </trkpt>
      <trkpt lat="44.391" lon="5.82372">
        <ele>1118.63</ele>
        <time>2012-03-22T13:24:04Z</time>
      </trkpt>
      <trkpt lat="44.391" lon="5.8237">
        <ele>1116.71</ele>
        <time>2012-03-22T13:24:05Z</time>
      </trkpt>
      <trkpt lat="44.391" lon="5.82361">
        <ele>1114.31</ele>
        <time>2012-03-22T13:24:11Z</time>
      </trkpt>
      <trkpt lat="44.391" lon="5.82347">
        <ele>1113.82</ele>
        <time>2012-03-22T13:24:20Z</time>
      </trkpt>
      <trkpt lat="44.391" lon="5.82346">
        <ele>1113.34</ele>
        <time>2012-03-22T13:24:21Z</time>
      </trkpt>
      <trkpt lat="44.39102" lon="5.8234">
        <ele>1109.98</ele>
        <time>2012-03-22T13:24:25Z</time>
      </trkpt>
      <trkpt lat="44.39101" lon="5.82335">
        <ele>1113.82</ele>
        <time>2012-03-22T13:24:27Z</time>
      </trkpt>
      <trkpt lat="44.39101" lon="5.82333">
        <ele>1113.82</ele>
        <time>2012-03-22T13:24:28Z</time>
      </trkpt>
      <trkpt lat="44.39101" lon="5.82332">
        <ele>1114.79</ele>
        <time>2012-03-22T13:24:29Z</time>
      </trkpt>
      <trkpt lat="44.39103" lon="5.82322">
        <ele>1109.98</ele>
        <time>2012-03-22T13:24:34Z</time>
      </trkpt>
      <trkpt lat="44.39103" lon="5.82319">
        <ele>1113.34</ele>
        <time>2012-03-22T13:24:36Z</time>
      </trkpt>
      <trkpt lat="44.39108" lon="5.82304">
        <ele>1111.9</ele>
        <time>2012-03-22T13:24:46Z</time>
      </trkpt>
      <trkpt lat="44.39111" lon="5.82293">
        <ele>1110.94</ele>
        <time>2012-03-22T13:24:54Z</time>
      </trkpt>
      <trkpt lat="44.39113" lon="5.82287">
        <ele>1111.42</ele>
        <time>2012-03-22T13:24:58Z</time>
      </trkpt>
      <trkpt lat="44.39115" lon="5.82278">
        <ele>1108.54</ele>
        <time>2012-03-22T13:25:04Z</time>
      </trkpt>
      <trkpt lat="44.39118" lon="5.82265">
        <ele>1109.5</ele>
        <time>2012-03-22T13:25:13Z</time>
      </trkpt>
      <trkpt lat="44.39117" lon="5.82262">
        <ele>1107.58</ele>
        <time>2012-03-22T13:25:16Z</time>
      </trkpt>
      <trkpt lat="44.39118" lon="5.82259">
        <ele>1108.54</ele>
        <time>2012-03-22T13:25:18Z</time>
      </trkpt>
      <trkpt lat="44.3912" lon="5.82252">
        <ele>1108.06</ele>
        <time>2012-03-22T13:25:23Z</time>
      </trkpt>
      <trkpt lat="44.39121" lon="5.82244">
        <ele>1102.77</ele>
        <time>2012-03-22T13:25:27Z</time>
      </trkpt>
      <trkpt lat="44.39122" lon="5.82241">
        <ele>1107.58</ele>
        <time>2012-03-22T13:25:29Z</time>
      </trkpt>
      <trkpt lat="44.39122" lon="5.82239">
        <ele>1107.1</ele>
        <time>2012-03-22T13:25:30Z</time>
      </trkpt>
      <trkpt lat="44.39122" lon="5.82226">
        <ele>1106.61</ele>
        <time>2012-03-22T13:25:37Z</time>
      </trkpt>
      <trkpt lat="44.39123" lon="5.82223">
        <ele>1103.25</ele>
        <time>2012-03-22T13:25:39Z</time>
      </trkpt>
      <trkpt lat="44.39122" lon="5.82214">
        <ele>1105.17</ele>
        <time>2012-03-22T13:25:45Z</time>
      </trkpt>
      <trkpt lat="44.39121" lon="5.82199">
        <ele>1104.21</ele>
        <time>2012-03-22T13:25:53Z</time>
      </trkpt>
      <trkpt lat="44.39119" lon="5.82192">
        <ele>1103.73</ele>
        <time>2012-03-22T13:25:57Z</time>
      </trkpt>
      <trkpt lat="44.39119" lon="5.82189">
        <ele>1102.77</ele>
        <time>2012-03-22T13:25:59Z</time>
      </trkpt>
      <trkpt lat="44.39119" lon="5.82174">
        <ele>1102.29</ele>
        <time>2012-03-22T13:26:08Z</time>
      </trkpt>
      <trkpt lat="44.39121" lon="5.82169">
        <ele>1100.85</ele>
        <time>2012-03-22T13:26:11Z</time>
      </trkpt>
      <trkpt lat="44.39121" lon="5.82162">
        <ele>1101.81</ele>
        <time>2012-03-22T13:26:16Z</time>
      </trkpt>
      <trkpt lat="44.39122" lon="5.82157">
        <ele>1102.77</ele>
        <time>2012-03-22T13:26:19Z</time>
      </trkpt>
      <trkpt lat="44.39122" lon="5.82156">
        <ele>1102.29</ele>
        <time>2012-03-22T13:26:20Z</time>
      </trkpt>
      <trkpt lat="44.39123" lon="5.82152">
        <ele>1100.85</ele>
        <time>2012-03-22T13:26:23Z</time>
      </trkpt>
      <trkpt lat="44.39124" lon="5.82145">
        <ele>1102.77</ele>
        <time>2012-03-22T13:26:28Z</time>
      </trkpt>
      <trkpt lat="44.39123" lon="5.8214">
        <ele>1100.37</ele>
        <time>2012-03-22T13:26:38Z</time>
      </trkpt>
      <trkpt lat="44.39123" lon="5.8214">
        <ele>1100.85</ele>
        <time>2012-03-22T13:27:21Z</time>
      </trkpt>
      <trkpt lat="44.39124" lon="5.82127">
        <ele>1100.37</ele>
        <time>2012-03-22T13:27:32Z</time>
      </trkpt>
      <trkpt lat="44.39126" lon="5.82124">
        <ele>1099.89</ele>
        <time>2012-03-22T13:27:43Z</time>
      </trkpt>
      <trkpt lat="44.39125" lon="5.82124">
        <ele>1098.92</ele>
        <time>2012-03-22T13:28:17Z</time>
      </trkpt>
      <trkpt lat="44.39124" lon="5.82129">
        <ele>1098.92</ele>
        <time>2012-03-22T13:29:12Z</time>
      </trkpt>
      <trkpt lat="44.39124" lon="5.82134">
        <ele>1099.4</ele>
        <time>2012-03-22T13:29:21Z</time>
      </trkpt>
      <trkpt lat="44.39124" lon="5.82137">
        <ele>1099.89</ele>
        <time>2012-03-22T13:29:57Z</time>
      </trkpt>
      <trkpt lat="44.39124" lon="5.82138">
        <ele>1101.33</ele>
        <time>2012-03-22T13:30:23Z</time>
      </trkpt>
      <trkpt lat="44.39123" lon="5.82152">
        <ele>1103.25</ele>
        <time>2012-03-22T13:30:31Z</time>
      </trkpt>
      <trkpt lat="44.39122" lon="5.82157">
        <ele>1099.89</ele>
        <time>2012-03-22T13:30:34Z</time>
      </trkpt>
      <trkpt lat="44.39121" lon="5.82167">
        <ele>1101.33</ele>
        <time>2012-03-22T13:30:42Z</time>
      </trkpt>
      <trkpt lat="44.39121" lon="5.82172">
        <ele>1100.85</ele>
        <time>2012-03-22T13:30:53Z</time>
      </trkpt>
      <trkpt lat="44.39122" lon="5.82169">
        <ele>1104.21</ele>
        <time>2012-03-22T13:31:10Z</time>
      </trkpt>
      <trkpt lat="44.39122" lon="5.82167">
        <ele>1100.85</ele>
        <time>2012-03-22T13:31:11Z</time>
      </trkpt>
      <trkpt lat="44.39122" lon="5.82166">
        <ele>1101.33</ele>
        <time>2012-03-22T13:31:12Z</time>
      </trkpt>
      <trkpt lat="44.39124" lon="5.82154">
        <ele>1096.52</ele>
        <time>2012-03-22T13:31:21Z</time>
      </trkpt>
      <trkpt lat="44.39124" lon="5.82153">
        <ele>1098.44</ele>
        <time>2012-03-22T13:31:22Z</time>
      </trkpt>
      <trkpt lat="44.39124" lon="5.82152">
        <ele>1102.77</ele>
        <time>2012-03-22T13:31:23Z</time>
      </trkpt>
      <trkpt lat="44.39124" lon="5.82151">
        <ele>1102.77</ele>
        <time>2012-03-22T13:31:24Z</time>
      </trkpt>
      <trkpt lat="44.39126" lon="5.82149">
        <ele>1099.4</ele>
        <time>2012-03-22T13:31:32Z</time>
      </trkpt>
      <trkpt lat="44.39127" lon="5.82147">
        <ele>1102.77</ele>
        <time>2012-03-22T13:31:36Z</time>
      </trkpt>
      <trkpt lat="44.39128" lon="5.82147">
        <ele>1100.85</ele>
        <time>2012-03-22T13:31:39Z</time>
      </trkpt>
      <trkpt lat="44.39126" lon="5.8214">
        <ele>1101.81</ele>
        <time>2012-03-22T13:31:48Z</time>
      </trkpt>
      <trkpt lat="44.39123" lon="5.82138">
        <ele>1100.85</ele>
        <time>2012-03-22T13:31:52Z</time>
      </trkpt>
      <trkpt lat="44.39123" lon="5.8214">
        <ele>1099.89</ele>
        <time>2012-03-22T13:32:03Z</time>
      </trkpt>
      <trkpt lat="44.39123" lon="5.8214">
        <ele>1100.85</ele>
        <time>2012-03-22T13:32:16Z</time>
      </trkpt>
      <trkpt lat="44.39123" lon="5.82137">
        <ele>1099.89</ele>
        <time>2012-03-22T13:32:40Z</time>
      </trkpt>
      <trkpt lat="44.39123" lon="5.82137">
        <ele>1100.37</ele>
        <time>2012-03-22T13:33:17Z</time>
      </trkpt>
      <trkpt lat="44.39124" lon="5.82136">
        <ele>1099.4</ele>
        <time>2012-03-22T13:34:26Z</time>
      </trkpt>
      <trkpt lat="44.39124" lon="5.82136">
        <ele>1099.4</ele>
        <time>2012-03-22T13:35:54Z</time>
      </trkpt>
      <trkpt lat="44.39126" lon="5.82122">
        <ele>1096.52</ele>
        <time>2012-03-22T13:36:14Z</time>
      </trkpt>
      <trkpt lat="44.39126" lon="5.82119">
        <ele>1097.48</ele>
        <time>2012-03-22T13:36:16Z</time>
      </trkpt>
      <trkpt lat="44.39126" lon="5.82116">
        <ele>1098.44</ele>
        <time>2012-03-22T13:36:18Z</time>
      </trkpt>
      <trkpt lat="44.39126" lon="5.82113">
        <ele>1097</ele>
        <time>2012-03-22T13:36:20Z</time>
      </trkpt>
      <trkpt lat="44.39125" lon="5.82112">
        <ele>1098.44</ele>
        <time>2012-03-22T13:36:21Z</time>
      </trkpt>
      <trkpt lat="44.39125" lon="5.821">
        <ele>1093.64</ele>
        <time>2012-03-22T13:36:29Z</time>
      </trkpt>
      <trkpt lat="44.39125" lon="5.82097">
        <ele>1097.96</ele>
        <time>2012-03-22T13:36:31Z</time>
      </trkpt>
      <trkpt lat="44.39124" lon="5.82093">
        <ele>1094.12</ele>
        <time>2012-03-22T13:36:34Z</time>
      </trkpt>
      <trkpt lat="44.39124" lon="5.82091">
        <ele>1096.52</ele>
        <time>2012-03-22T13:36:36Z</time>
      </trkpt>
      <trkpt lat="44.39122" lon="5.82078">
        <ele>1094.6</ele>
        <time>2012-03-22T13:36:45Z</time>
      </trkpt>
      <trkpt lat="44.39122" lon="5.82076">
        <ele>1094.6</ele>
        <time>2012-03-22T13:36:47Z</time>
      </trkpt>
      <trkpt lat="44.3912" lon="5.82073">
        <ele>1096.04</ele>
        <time>2012-03-22T13:36:50Z</time>
      </trkpt>
      <trkpt lat="44.39119" lon="5.82071">
        <ele>1094.12</ele>
        <time>2012-03-22T13:36:52Z</time>
      </trkpt>
      <trkpt lat="44.39118" lon="5.8207">
        <ele>1095.56</ele>
        <time>2012-03-22T13:36:53Z</time>
      </trkpt>
      <trkpt lat="44.39115" lon="5.82066">
        <ele>1092.68</ele>
        <time>2012-03-22T13:36:57Z</time>
      </trkpt>
      <trkpt lat="44.39114" lon="5.82061">
        <ele>1094.12</ele>
        <time>2012-03-22T13:37:00Z</time>
      </trkpt>
      <trkpt lat="44.39113" lon="5.82048">
        <ele>1095.08</ele>
        <time>2012-03-22T13:37:09Z</time>
      </trkpt>
      <trkpt lat="44.39113" lon="5.82043">
        <ele>1091.71</ele>
        <time>2012-03-22T13:37:12Z</time>
      </trkpt>
      <trkpt lat="44.39116" lon="5.82029">
        <ele>1092.2</ele>
        <time>2012-03-22T13:37:22Z</time>
      </trkpt>
      <trkpt lat="44.39118" lon="5.82024">
        <ele>1088.35</ele>
        <time>2012-03-22T13:37:25Z</time>
      </trkpt>
      <trkpt lat="44.39118" lon="5.82022">
        <ele>1092.2</ele>
        <time>2012-03-22T13:37:26Z</time>
      </trkpt>
      <trkpt lat="44.39118" lon="5.82021">
        <ele>1091.71</ele>
        <time>2012-03-22T13:37:27Z</time>
      </trkpt>
      <trkpt lat="44.39119" lon="5.82018">
        <ele>1089.79</ele>
        <time>2012-03-22T13:37:30Z</time>
      </trkpt>
      <trkpt lat="44.39119" lon="5.82016">
        <ele>1088.35</ele>
        <time>2012-03-22T13:37:32Z</time>
      </trkpt>
      <trkpt lat="44.39119" lon="5.82006">
        <ele>1084.02</ele>
        <time>2012-03-22T13:37:38Z</time>
      </trkpt>
      <trkpt lat="44.39119" lon="5.82006">
        <ele>1087.87</ele>
        <time>2012-03-22T13:37:39Z</time>
      </trkpt>
      <trkpt lat="44.39119" lon="5.82003">
        <ele>1092.2</ele>
        <time>2012-03-22T13:37:41Z</time>
      </trkpt>
      <trkpt lat="44.39119" lon="5.81997">
        <ele>1086.43</ele>
        <time>2012-03-22T13:37:44Z</time>
      </trkpt>
      <trkpt lat="44.39118" lon="5.81991">
        <ele>1089.79</ele>
        <time>2012-03-22T13:37:48Z</time>
      </trkpt>
      <trkpt lat="44.39118" lon="5.81986">
        <ele>1087.87</ele>
        <time>2012-03-22T13:37:51Z</time>
      </trkpt>
      <trkpt lat="44.39118" lon="5.81979">
        <ele>1090.27</ele>
        <time>2012-03-22T13:37:55Z</time>
      </trkpt>
      <trkpt lat="44.39118" lon="5.81973">
        <ele>1087.39</ele>
        <time>2012-03-22T13:37:59Z</time>
      </trkpt>
      <trkpt lat="44.39119" lon="5.81968">
        <ele>1091.71</ele>
        <time>2012-03-22T13:38:02Z</time>
      </trkpt>
      <trkpt lat="44.39119" lon="5.81966">
        <ele>1087.87</ele>
        <time>2012-03-22T13:38:03Z</time>
      </trkpt>
      <trkpt lat="44.39121" lon="5.81957">
        <ele>1087.87</ele>
        <time>2012-03-22T13:38:08Z</time>
      </trkpt>
      <trkpt lat="44.39121" lon="5.81954">
        <ele>1086.91</ele>
        <time>2012-03-22T13:38:10Z</time>
      </trkpt>
      <trkpt lat="44.39122" lon="5.81951">
        <ele>1085.95</ele>
        <time>2012-03-22T13:38:12Z</time>
      </trkpt>
      <trkpt lat="44.39122" lon="5.8195">
        <ele>1087.39</ele>
        <time>2012-03-22T13:38:13Z</time>
      </trkpt>
      <trkpt lat="44.39126" lon="5.8194">
        <ele>1084.5</ele>
        <time>2012-03-22T13:38:22Z</time>
      </trkpt>
      <trkpt lat="44.39127" lon="5.81937">
        <ele>1084.02</ele>
        <time>2012-03-22T13:38:24Z</time>
      </trkpt>
      <trkpt lat="44.39129" lon="5.81933">
        <ele>1086.43</ele>
        <time>2012-03-22T13:38:27Z</time>
      </trkpt>
      <trkpt lat="44.39129" lon="5.81932">
        <ele>1085.47</ele>
        <time>2012-03-22T13:38:28Z</time>
      </trkpt>
      <trkpt lat="44.39129" lon="5.81923">
        <ele>1085.47</ele>
        <time>2012-03-22T13:38:34Z</time>
      </trkpt>
      <trkpt lat="44.39128" lon="5.81919">
        <ele>1079.22</ele>
        <time>2012-03-22T13:38:37Z</time>
      </trkpt>
      <trkpt lat="44.39127" lon="5.81918">
        <ele>1079.22</ele>
        <time>2012-03-22T13:38:38Z</time>
      </trkpt>
      <trkpt lat="44.39127" lon="5.81917">
        <ele>1083.54</ele>
        <time>2012-03-22T13:38:39Z</time>
      </trkpt>
      <trkpt lat="44.39126" lon="5.81915">
        <ele>1085.47</ele>
        <time>2012-03-22T13:38:40Z</time>
      </trkpt>
      <trkpt lat="44.39126" lon="5.81908">
        <ele>1082.1</ele>
        <time>2012-03-22T13:38:44Z</time>
      </trkpt>
      <trkpt lat="44.39125" lon="5.81901">
        <ele>1086.43</ele>
        <time>2012-03-22T13:38:48Z</time>
      </trkpt>
      <trkpt lat="44.39125" lon="5.81898">
        <ele>1082.58</ele>
        <time>2012-03-22T13:38:50Z</time>
      </trkpt>
      <trkpt lat="44.39124" lon="5.81897">
        <ele>1082.1</ele>
        <time>2012-03-22T13:38:51Z</time>
      </trkpt>
      <trkpt lat="44.39125" lon="5.81893">
        <ele>1083.06</ele>
        <time>2012-03-22T13:38:53Z</time>
      </trkpt>
      <trkpt lat="44.39124" lon="5.81891">
        <ele>1086.91</ele>
        <time>2012-03-22T13:38:55Z</time>
      </trkpt>
      <trkpt lat="44.39124" lon="5.81889">
        <ele>1081.14</ele>
        <time>2012-03-22T13:38:56Z</time>
      </trkpt>
      <trkpt lat="44.39124" lon="5.81887">
        <ele>1081.62</ele>
        <time>2012-03-22T13:38:57Z</time>
      </trkpt>
      <trkpt lat="44.39125" lon="5.81884">
        <ele>1075.85</ele>
        <time>2012-03-22T13:38:59Z</time>
      </trkpt>
      <trkpt lat="44.39125" lon="5.81882">
        <ele>1079.22</ele>
        <time>2012-03-22T13:39:00Z</time>
      </trkpt>
      <trkpt lat="44.39126" lon="5.81879">
        <ele>1085.47</ele>
        <time>2012-03-22T13:39:02Z</time>
      </trkpt>
      <trkpt lat="44.39126" lon="5.81877">
        <ele>1084.5</ele>
        <time>2012-03-22T13:39:03Z</time>
      </trkpt>
      <trkpt lat="44.39126" lon="5.81875">
        <ele>1081.14</ele>
        <time>2012-03-22T13:39:04Z</time>
      </trkpt>
      <trkpt lat="44.39126" lon="5.81872">
        <ele>1080.18</ele>
        <time>2012-03-22T13:39:06Z</time>
      </trkpt>
      <trkpt lat="44.39127" lon="5.81868">
        <ele>1077.29</ele>
        <time>2012-03-22T13:39:08Z</time>
      </trkpt>
      <trkpt lat="44.39128" lon="5.81865">
        <ele>1083.54</ele>
        <time>2012-03-22T13:39:10Z</time>
      </trkpt>
      <trkpt lat="44.39129" lon="5.81864">
        <ele>1081.62</ele>
        <time>2012-03-22T13:39:11Z</time>
      </trkpt>
      <trkpt lat="44.3913" lon="5.81859">
        <ele>1079.7</ele>
        <time>2012-03-22T13:39:14Z</time>
      </trkpt>
      <trkpt lat="44.39131" lon="5.81855">
        <ele>1076.81</ele>
        <time>2012-03-22T13:39:17Z</time>
      </trkpt>
      <trkpt lat="44.39131" lon="5.81854">
        <ele>1079.7</ele>
        <time>2012-03-22T13:39:18Z</time>
      </trkpt>
      <trkpt lat="44.39131" lon="5.81852">
        <ele>1080.18</ele>
        <time>2012-03-22T13:39:19Z</time>
      </trkpt>
      <trkpt lat="44.3913" lon="5.8185">
        <ele>1085.95</ele>
        <time>2012-03-22T13:39:20Z</time>
      </trkpt>
      <trkpt lat="44.3913" lon="5.81849">
        <ele>1079.7</ele>
        <time>2012-03-22T13:39:21Z</time>
      </trkpt>
      <trkpt lat="44.39129" lon="5.81847">
        <ele>1077.78</ele>
        <time>2012-03-22T13:39:22Z</time>
      </trkpt>
      <trkpt lat="44.39128" lon="5.8184">
        <ele>1080.66</ele>
        <time>2012-03-22T13:39:26Z</time>
      </trkpt>
      <trkpt lat="44.39127" lon="5.81839">
        <ele>1080.66</ele>
        <time>2012-03-22T13:39:27Z</time>
      </trkpt>
      <trkpt lat="44.39126" lon="5.81833">
        <ele>1076.33</ele>
        <time>2012-03-22T13:39:31Z</time>
      </trkpt>
      <trkpt lat="44.39125" lon="5.81824">
        <ele>1076.81</ele>
        <time>2012-03-22T13:39:38Z</time>
      </trkpt>
      <trkpt lat="44.39125" lon="5.81821">
        <ele>1074.89</ele>
        <time>2012-03-22T13:39:40Z</time>
      </trkpt>
      <trkpt lat="44.39125" lon="5.81808">
        <ele>1072.97</ele>
        <time>2012-03-22T13:39:49Z</time>
      </trkpt>
      <trkpt lat="44.39126" lon="5.81802">
        <ele>1076.81</ele>
        <time>2012-03-22T13:39:53Z</time>
      </trkpt>
      <trkpt lat="44.39129" lon="5.81795">
        <ele>1073.45</ele>
        <time>2012-03-22T13:39:58Z</time>
      </trkpt>
      <trkpt lat="44.39129" lon="5.81795">
        <ele>1072.97</ele>
        <time>2012-03-22T13:39:59Z</time>
      </trkpt>
      <trkpt lat="44.3913" lon="5.81794">
        <ele>1076.81</ele>
        <time>2012-03-22T13:40:00Z</time>
      </trkpt>
      <trkpt lat="44.39131" lon="5.81792">
        <ele>1073.93</ele>
        <time>2012-03-22T13:40:01Z</time>
      </trkpt>
      <trkpt lat="44.39132" lon="5.81789">
        <ele>1077.78</ele>
        <time>2012-03-22T13:40:03Z</time>
      </trkpt>
      <trkpt lat="44.39132" lon="5.81786">
        <ele>1076.33</ele>
        <time>2012-03-22T13:40:04Z</time>
      </trkpt>
      <trkpt lat="44.39133" lon="5.81783">
        <ele>1073.45</ele>
        <time>2012-03-22T13:40:06Z</time>
      </trkpt>
      <trkpt lat="44.39136" lon="5.81777">
        <ele>1075.37</ele>
        <time>2012-03-22T13:40:10Z</time>
      </trkpt>
      <trkpt lat="44.39137" lon="5.81775">
        <ele>1076.33</ele>
        <time>2012-03-22T13:40:11Z</time>
      </trkpt>
      <trkpt lat="44.39139" lon="5.81771">
        <ele>1072.97</ele>
        <time>2012-03-22T13:40:14Z</time>
      </trkpt>
      <trkpt lat="44.39141" lon="5.81768">
        <ele>1071.53</ele>
        <time>2012-03-22T13:40:16Z</time>
      </trkpt>
      <trkpt lat="44.39143" lon="5.81764">
        <ele>1075.37</ele>
        <time>2012-03-22T13:40:19Z</time>
      </trkpt>
      <trkpt lat="44.39144" lon="5.81763">
        <ele>1073.93</ele>
        <time>2012-03-22T13:40:20Z</time>
      </trkpt>
      <trkpt lat="44.39146" lon="5.81761">
        <ele>1072.49</ele>
        <time>2012-03-22T13:40:22Z</time>
      </trkpt>
      <trkpt lat="44.39151" lon="5.81757">
        <ele>1073.93</ele>
        <time>2012-03-22T13:40:27Z</time>
      </trkpt>
      <trkpt lat="44.39156" lon="5.81751">
        <ele>1067.68</ele>
        <time>2012-03-22T13:40:33Z</time>
      </trkpt>
      <trkpt lat="44.39158" lon="5.81749">
        <ele>1072.49</ele>
        <time>2012-03-22T13:40:35Z</time>
      </trkpt>
      <trkpt lat="44.39158" lon="5.81748">
        <ele>1072.01</ele>
        <time>2012-03-22T13:40:36Z</time>
      </trkpt>
      <trkpt lat="44.39161" lon="5.81746">
        <ele>1070.57</ele>
        <time>2012-03-22T13:40:38Z</time>
      </trkpt>
      <trkpt lat="44.39165" lon="5.8174">
        <ele>1072.49</ele>
        <time>2012-03-22T13:40:43Z</time>
      </trkpt>
      <trkpt lat="44.39166" lon="5.81725">
        <ele>1072.49</ele>
        <time>2012-03-22T13:40:52Z</time>
      </trkpt>
      <trkpt lat="44.39166" lon="5.8172">
        <ele>1068.64</ele>
        <time>2012-03-22T13:40:55Z</time>
      </trkpt>
      <trkpt lat="44.39166" lon="5.81713">
        <ele>1071.53</ele>
        <time>2012-03-22T13:40:59Z</time>
      </trkpt>
      <trkpt lat="44.39165" lon="5.8171">
        <ele>1068.64</ele>
        <time>2012-03-22T13:41:01Z</time>
      </trkpt>
      <trkpt lat="44.39165" lon="5.81708">
        <ele>1067.68</ele>
        <time>2012-03-22T13:41:02Z</time>
      </trkpt>
      <trkpt lat="44.39166" lon="5.81697">
        <ele>1067.2</ele>
        <time>2012-03-22T13:41:09Z</time>
      </trkpt>
      <trkpt lat="44.39168" lon="5.81687">
        <ele>1066.72</ele>
        <time>2012-03-22T13:41:15Z</time>
      </trkpt>
      <trkpt lat="44.39168" lon="5.81684">
        <ele>1066.72</ele>
        <time>2012-03-22T13:41:17Z</time>
      </trkpt>
      <trkpt lat="44.39169" lon="5.81673">
        <ele>1065.28</ele>
        <time>2012-03-22T13:41:24Z</time>
      </trkpt>
      <trkpt lat="44.3917" lon="5.8167">
        <ele>1065.28</ele>
        <time>2012-03-22T13:41:26Z</time>
      </trkpt>
      <trkpt lat="44.39172" lon="5.81658">
        <ele>1064.32</ele>
        <time>2012-03-22T13:41:34Z</time>
      </trkpt>
      <trkpt lat="44.39173" lon="5.81655">
        <ele>1065.76</ele>
        <time>2012-03-22T13:41:36Z</time>
      </trkpt>
      <trkpt lat="44.39175" lon="5.81648">
        <ele>1063.84</ele>
        <time>2012-03-22T13:41:41Z</time>
      </trkpt>
      <trkpt lat="44.39177" lon="5.81636">
        <ele>1062.87</ele>
        <time>2012-03-22T13:41:49Z</time>
      </trkpt>
      <trkpt lat="44.39178" lon="5.81635">
        <ele>1063.84</ele>
        <time>2012-03-22T13:41:50Z</time>
      </trkpt>
      <trkpt lat="44.3918" lon="5.81632">
        <ele>1065.28</ele>
        <time>2012-03-22T13:41:52Z</time>
      </trkpt>
      <trkpt lat="44.39181" lon="5.81626">
        <ele>1061.43</ele>
        <time>2012-03-22T13:41:57Z</time>
      </trkpt>
      <trkpt lat="44.39185" lon="5.81619">
        <ele>1064.32</ele>
        <time>2012-03-22T13:42:02Z</time>
      </trkpt>
      <trkpt lat="44.39187" lon="5.81616">
        <ele>1062.87</ele>
        <time>2012-03-22T13:42:05Z</time>
      </trkpt>
      <trkpt lat="44.3919" lon="5.81609">
        <ele>1063.36</ele>
        <time>2012-03-22T13:42:10Z</time>
      </trkpt>
      <trkpt lat="44.39191" lon="5.81602">
        <ele>1060.95</ele>
        <time>2012-03-22T13:42:14Z</time>
      </trkpt>
      <trkpt lat="44.39193" lon="5.81595">
        <ele>1057.59</ele>
        <time>2012-03-22T13:42:19Z</time>
      </trkpt>
      <trkpt lat="44.39193" lon="5.81594">
        <ele>1059.51</ele>
        <time>2012-03-22T13:42:20Z</time>
      </trkpt>
      <trkpt lat="44.39194" lon="5.81591">
        <ele>1060.95</ele>
        <time>2012-03-22T13:42:22Z</time>
      </trkpt>
      <trkpt lat="44.39194" lon="5.81589">
        <ele>1061.91</ele>
        <time>2012-03-22T13:42:23Z</time>
      </trkpt>
      <trkpt lat="44.39195" lon="5.81584">
        <ele>1056.63</ele>
        <time>2012-03-22T13:42:26Z</time>
      </trkpt>
      <trkpt lat="44.39196" lon="5.81583">
        <ele>1058.55</ele>
        <time>2012-03-22T13:42:27Z</time>
      </trkpt>
      <trkpt lat="44.39196" lon="5.81581">
        <ele>1059.99</ele>
        <time>2012-03-22T13:42:28Z</time>
      </trkpt>
      <trkpt lat="44.39196" lon="5.81578">
        <ele>1061.43</ele>
        <time>2012-03-22T13:42:30Z</time>
      </trkpt>
      <trkpt lat="44.39198" lon="5.81569">
        <ele>1059.51</ele>
        <time>2012-03-22T13:42:35Z</time>
      </trkpt>
      <trkpt lat="44.39198" lon="5.81568">
        <ele>1052.78</ele>
        <time>2012-03-22T13:42:36Z</time>
      </trkpt>
      <trkpt lat="44.39199" lon="5.81567">
        <ele>1058.55</ele>
        <time>2012-03-22T13:42:37Z</time>
      </trkpt>
      <trkpt lat="44.392" lon="5.81564">
        <ele>1059.51</ele>
        <time>2012-03-22T13:42:39Z</time>
      </trkpt>
      <trkpt lat="44.39202" lon="5.81562">
        <ele>1060.95</ele>
        <time>2012-03-22T13:42:41Z</time>
      </trkpt>
      <trkpt lat="44.39203" lon="5.81559">
        <ele>1055.67</ele>
        <time>2012-03-22T13:42:43Z</time>
      </trkpt>
      <trkpt lat="44.39205" lon="5.81553">
        <ele>1057.11</ele>
        <time>2012-03-22T13:42:47Z</time>
      </trkpt>
      <trkpt lat="44.39207" lon="5.8155">
        <ele>1059.51</ele>
        <time>2012-03-22T13:42:50Z</time>
      </trkpt>
      <trkpt lat="44.39212" lon="5.8154">
        <ele>1055.18</ele>
        <time>2012-03-22T13:42:57Z</time>
      </trkpt>
      <trkpt lat="44.39212" lon="5.81539">
        <ele>1055.67</ele>
        <time>2012-03-22T13:42:58Z</time>
      </trkpt>
      <trkpt lat="44.39213" lon="5.81536">
        <ele>1057.11</ele>
        <time>2012-03-22T13:43:00Z</time>
      </trkpt>
      <trkpt lat="44.39213" lon="5.81527">
        <ele>1055.18</ele>
        <time>2012-03-22T13:43:05Z</time>
      </trkpt>
      <trkpt lat="44.39213" lon="5.81525">
        <ele>1056.63</ele>
        <time>2012-03-22T13:43:06Z</time>
      </trkpt>
      <trkpt lat="44.39213" lon="5.81516">
        <ele>1055.67</ele>
        <time>2012-03-22T13:43:12Z</time>
      </trkpt>
      <trkpt lat="44.39213" lon="5.81514">
        <ele>1055.67</ele>
        <time>2012-03-22T13:43:13Z</time>
      </trkpt>
      <trkpt lat="44.39212" lon="5.81511">
        <ele>1055.18</ele>
        <time>2012-03-22T13:43:15Z</time>
      </trkpt>
      <trkpt lat="44.3921" lon="5.81496">
        <ele>1053.74</ele>
        <time>2012-03-22T13:43:24Z</time>
      </trkpt>
      <trkpt lat="44.3921" lon="5.8149">
        <ele>1052.78</ele>
        <time>2012-03-22T13:43:28Z</time>
      </trkpt>
      <trkpt lat="44.3921" lon="5.81484">
        <ele>1055.18</ele>
        <time>2012-03-22T13:43:31Z</time>
      </trkpt>
      <trkpt lat="44.39209" lon="5.81477">
        <ele>1053.26</ele>
        <time>2012-03-22T13:43:35Z</time>
      </trkpt>
      <trkpt lat="44.3921" lon="5.81472">
        <ele>1051.82</ele>
        <time>2012-03-22T13:43:38Z</time>
      </trkpt>
      <trkpt lat="44.39211" lon="5.81465">
        <ele>1055.67</ele>
        <time>2012-03-22T13:43:43Z</time>
      </trkpt>
      <trkpt lat="44.39211" lon="5.81463">
        <ele>1051.34</ele>
        <time>2012-03-22T13:43:44Z</time>
      </trkpt>
      <trkpt lat="44.39212" lon="5.8146">
        <ele>1050.38</ele>
        <time>2012-03-22T13:43:46Z</time>
      </trkpt>
      <trkpt lat="44.39212" lon="5.81455">
        <ele>1052.3</ele>
        <time>2012-03-22T13:43:49Z</time>
      </trkpt>
      <trkpt lat="44.39212" lon="5.81449">
        <ele>1050.38</ele>
        <time>2012-03-22T13:43:53Z</time>
      </trkpt>
      <trkpt lat="44.39212" lon="5.81445">
        <ele>1049.9</ele>
        <time>2012-03-22T13:43:55Z</time>
      </trkpt>
      <trkpt lat="44.39212" lon="5.81442">
        <ele>1052.3</ele>
        <time>2012-03-22T13:43:57Z</time>
      </trkpt>
      <trkpt lat="44.39212" lon="5.81438">
        <ele>1050.86</ele>
        <time>2012-03-22T13:43:59Z</time>
      </trkpt>
      <trkpt lat="44.39212" lon="5.81437">
        <ele>1048.45</ele>
        <time>2012-03-22T13:44:00Z</time>
      </trkpt>
      <trkpt lat="44.39212" lon="5.81429">
        <ele>1050.86</ele>
        <time>2012-03-22T13:44:05Z</time>
      </trkpt>
      <trkpt lat="44.39212" lon="5.81424">
        <ele>1047.97</ele>
        <time>2012-03-22T13:44:08Z</time>
      </trkpt>
      <trkpt lat="44.39214" lon="5.8142">
        <ele>1051.82</ele>
        <time>2012-03-22T13:44:11Z</time>
      </trkpt>
      <trkpt lat="44.39213" lon="5.81418">
        <ele>1051.34</ele>
        <time>2012-03-22T13:44:12Z</time>
      </trkpt>
      <trkpt lat="44.39213" lon="5.81415">
        <ele>1047.49</ele>
        <time>2012-03-22T13:44:14Z</time>
      </trkpt>
      <trkpt lat="44.39213" lon="5.81414">
        <ele>1047.01</ele>
        <time>2012-03-22T13:44:15Z</time>
      </trkpt>
      <trkpt lat="44.39216" lon="5.81405">
        <ele>1051.34</ele>
        <time>2012-03-22T13:44:20Z</time>
      </trkpt>
      <trkpt lat="44.39218" lon="5.81402">
        <ele>1047.01</ele>
        <time>2012-03-22T13:44:23Z</time>
      </trkpt>
      <trkpt lat="44.39218" lon="5.814">
        <ele>1047.01</ele>
        <time>2012-03-22T13:44:24Z</time>
      </trkpt>
      <trkpt lat="44.39218" lon="5.81399">
        <ele>1046.53</ele>
        <time>2012-03-22T13:44:25Z</time>
      </trkpt>
      <trkpt lat="44.3922" lon="5.81392">
        <ele>1050.86</ele>
        <time>2012-03-22T13:44:29Z</time>
      </trkpt>
      <trkpt lat="44.3922" lon="5.8139">
        <ele>1047.97</ele>
        <time>2012-03-22T13:44:30Z</time>
      </trkpt>
      <trkpt lat="44.39221" lon="5.81388">
        <ele>1045.57</ele>
        <time>2012-03-22T13:44:32Z</time>
      </trkpt>
      <trkpt lat="44.39222" lon="5.81382">
        <ele>1047.01</ele>
        <time>2012-03-22T13:44:35Z</time>
      </trkpt>
      <trkpt lat="44.39223" lon="5.8138">
        <ele>1047.49</ele>
        <time>2012-03-22T13:44:36Z</time>
      </trkpt>
      <trkpt lat="44.39223" lon="5.81379">
        <ele>1049.9</ele>
        <time>2012-03-22T13:44:37Z</time>
      </trkpt>
      <trkpt lat="44.39224" lon="5.81375">
        <ele>1045.57</ele>
        <time>2012-03-22T13:44:39Z</time>
      </trkpt>
      <trkpt lat="44.39224" lon="5.81373">
        <ele>1045.57</ele>
        <time>2012-03-22T13:44:40Z</time>
      </trkpt>
      <trkpt lat="44.39225" lon="5.81372">
        <ele>1045.57</ele>
        <time>2012-03-22T13:44:41Z</time>
      </trkpt>
      <trkpt lat="44.39226" lon="5.81369">
        <ele>1047.49</ele>
        <time>2012-03-22T13:44:43Z</time>
      </trkpt>
      <trkpt lat="44.39227" lon="5.81367">
        <ele>1047.97</ele>
        <time>2012-03-22T13:44:45Z</time>
      </trkpt>
      <trkpt lat="44.39229" lon="5.81362">
        <ele>1045.09</ele>
        <time>2012-03-22T13:44:48Z</time>
      </trkpt>
      <trkpt lat="44.39231" lon="5.81355">
        <ele>1047.01</ele>
        <time>2012-03-22T13:44:53Z</time>
      </trkpt>
      <trkpt lat="44.39232" lon="5.81351">
        <ele>1042.69</ele>
        <time>2012-03-22T13:44:56Z</time>
      </trkpt>
      <trkpt lat="44.39234" lon="5.81346">
        <ele>1045.57</ele>
        <time>2012-03-22T13:44:59Z</time>
      </trkpt>
      <trkpt lat="44.39235" lon="5.8134">
        <ele>1043.65</ele>
        <time>2012-03-22T13:45:03Z</time>
      </trkpt>
      <trkpt lat="44.39238" lon="5.81332">
        <ele>1043.65</ele>
        <time>2012-03-22T13:45:08Z</time>
      </trkpt>
      <trkpt lat="44.39238" lon="5.81329">
        <ele>1041.25</ele>
        <time>2012-03-22T13:45:10Z</time>
      </trkpt>
      <trkpt lat="44.39239" lon="5.81327">
        <ele>1041.73</ele>
        <time>2012-03-22T13:45:11Z</time>
      </trkpt>
      <trkpt lat="44.39239" lon="5.81324">
        <ele>1042.69</ele>
        <time>2012-03-22T13:45:13Z</time>
      </trkpt>
      <trkpt lat="44.39241" lon="5.81317">
        <ele>1041.25</ele>
        <time>2012-03-22T13:45:18Z</time>
      </trkpt>
      <trkpt lat="44.39245" lon="5.81302">
        <ele>1042.21</ele>
        <time>2012-03-22T13:45:27Z</time>
      </trkpt>
      <trkpt lat="44.39247" lon="5.81295">
        <ele>1038.36</ele>
        <time>2012-03-22T13:45:32Z</time>
      </trkpt>
      <trkpt lat="44.39248" lon="5.81293">
        <ele>1038.84</ele>
        <time>2012-03-22T13:45:33Z</time>
      </trkpt>
      <trkpt lat="44.39249" lon="5.81284">
        <ele>1041.73</ele>
        <time>2012-03-22T13:45:38Z</time>
      </trkpt>
      <trkpt lat="44.39249" lon="5.8128">
        <ele>1038.84</ele>
        <time>2012-03-22T13:45:40Z</time>
      </trkpt>
      <trkpt lat="44.3925" lon="5.81279">
        <ele>1038.36</ele>
        <time>2012-03-22T13:45:41Z</time>
      </trkpt>
      <trkpt lat="44.39252" lon="5.81273">
        <ele>1035</ele>
        <time>2012-03-22T13:45:45Z</time>
      </trkpt>
      <trkpt lat="44.39252" lon="5.81271">
        <ele>1038.84</ele>
        <time>2012-03-22T13:45:46Z</time>
      </trkpt>
      <trkpt lat="44.39253" lon="5.81268">
        <ele>1042.69</ele>
        <time>2012-03-22T13:45:48Z</time>
      </trkpt>
      <trkpt lat="44.39253" lon="5.81265">
        <ele>1040.28</ele>
        <time>2012-03-22T13:45:49Z</time>
      </trkpt>
      <trkpt lat="44.39253" lon="5.81263">
        <ele>1039.32</ele>
        <time>2012-03-22T13:45:51Z</time>
      </trkpt>
      <trkpt lat="44.39255" lon="5.81259">
        <ele>1035.48</ele>
        <time>2012-03-22T13:45:53Z</time>
      </trkpt>
      <trkpt lat="44.39255" lon="5.81254">
        <ele>1038.36</ele>
        <time>2012-03-22T13:45:56Z</time>
      </trkpt>
      <trkpt lat="44.39257" lon="5.81247">
        <ele>1032.11</ele>
        <time>2012-03-22T13:46:00Z</time>
      </trkpt>
      <trkpt lat="44.39258" lon="5.81246">
        <ele>1032.11</ele>
        <time>2012-03-22T13:46:01Z</time>
      </trkpt>
      <trkpt lat="44.39258" lon="5.81245">
        <ele>1033.55</ele>
        <time>2012-03-22T13:46:02Z</time>
      </trkpt>
      <trkpt lat="44.39259" lon="5.81241">
        <ele>1040.28</ele>
        <time>2012-03-22T13:46:04Z</time>
      </trkpt>
      <trkpt lat="44.39259" lon="5.8124">
        <ele>1037.4</ele>
        <time>2012-03-22T13:46:05Z</time>
      </trkpt>
      <trkpt lat="44.39261" lon="5.81231">
        <ele>1028.27</ele>
        <time>2012-03-22T13:46:10Z</time>
      </trkpt>
      <trkpt lat="44.39261" lon="5.81229">
        <ele>1031.15</ele>
        <time>2012-03-22T13:46:11Z</time>
      </trkpt>
      <trkpt lat="44.39262" lon="5.81228">
        <ele>1035</ele>
        <time>2012-03-22T13:46:12Z</time>
      </trkpt>
      <trkpt lat="44.39263" lon="5.8122">
        <ele>1032.11</ele>
        <time>2012-03-22T13:46:18Z</time>
      </trkpt>
      <trkpt lat="44.39262" lon="5.81215">
        <ele>1038.36</ele>
        <time>2012-03-22T13:46:21Z</time>
      </trkpt>
      <trkpt lat="44.39262" lon="5.81211">
        <ele>1031.63</ele>
        <time>2012-03-22T13:46:24Z</time>
      </trkpt>
      <trkpt lat="44.39262" lon="5.81209">
        <ele>1026.34</ele>
        <time>2012-03-22T13:46:25Z</time>
      </trkpt>
      <trkpt lat="44.39262" lon="5.81208">
        <ele>1030.19</ele>
        <time>2012-03-22T13:46:26Z</time>
      </trkpt>
      <trkpt lat="44.39262" lon="5.81206">
        <ele>1035</ele>
        <time>2012-03-22T13:46:27Z</time>
      </trkpt>
      <trkpt lat="44.39261" lon="5.81205">
        <ele>1032.59</ele>
        <time>2012-03-22T13:46:28Z</time>
      </trkpt>
      <trkpt lat="44.39261" lon="5.81201">
        <ele>1039.32</ele>
        <time>2012-03-22T13:46:30Z</time>
      </trkpt>
      <trkpt lat="44.3926" lon="5.81199">
        <ele>1034.52</ele>
        <time>2012-03-22T13:46:31Z</time>
      </trkpt>
      <trkpt lat="44.39261" lon="5.81196">
        <ele>1028.27</ele>
        <time>2012-03-22T13:46:33Z</time>
      </trkpt>
      <trkpt lat="44.39261" lon="5.81195">
        <ele>1031.15</ele>
        <time>2012-03-22T13:46:34Z</time>
      </trkpt>
      <trkpt lat="44.39261" lon="5.81192">
        <ele>1038.36</ele>
        <time>2012-03-22T13:46:36Z</time>
      </trkpt>
      <trkpt lat="44.3926" lon="5.81191">
        <ele>1037.4</ele>
        <time>2012-03-22T13:46:37Z</time>
      </trkpt>
      <trkpt lat="44.39261" lon="5.81189">
        <ele>1034.04</ele>
        <time>2012-03-22T13:46:38Z</time>
      </trkpt>
      <trkpt lat="44.39261" lon="5.81188">
        <ele>1030.19</ele>
        <time>2012-03-22T13:46:39Z</time>
      </trkpt>
      <trkpt lat="44.39261" lon="5.81186">
        <ele>1032.59</ele>
        <time>2012-03-22T13:46:40Z</time>
      </trkpt>
      <trkpt lat="44.39261" lon="5.81184">
        <ele>1028.75</ele>
        <time>2012-03-22T13:46:41Z</time>
      </trkpt>
      <trkpt lat="44.39262" lon="5.81183">
        <ele>1032.11</ele>
        <time>2012-03-22T13:46:42Z</time>
      </trkpt>
      <trkpt lat="44.39261" lon="5.8118">
        <ele>1038.36</ele>
        <time>2012-03-22T13:46:44Z</time>
      </trkpt>
      <trkpt lat="44.39261" lon="5.81178">
        <ele>1035</ele>
        <time>2012-03-22T13:46:45Z</time>
      </trkpt>
      <trkpt lat="44.39261" lon="5.81175">
        <ele>1030.67</ele>
        <time>2012-03-22T13:46:47Z</time>
      </trkpt>
      <trkpt lat="44.39262" lon="5.81168">
        <ele>1036.44</ele>
        <time>2012-03-22T13:46:51Z</time>
      </trkpt>
      <trkpt lat="44.39262" lon="5.81166">
        <ele>1035.96</ele>
        <time>2012-03-22T13:46:52Z</time>
      </trkpt>
      <trkpt lat="44.39261" lon="5.81163">
        <ele>1030.67</ele>
        <time>2012-03-22T13:46:54Z</time>
      </trkpt>
      <trkpt lat="44.39262" lon="5.81159">
        <ele>1031.15</ele>
        <time>2012-03-22T13:46:57Z</time>
      </trkpt>
      <trkpt lat="44.39263" lon="5.81143">
        <ele>1029.23</ele>
        <time>2012-03-22T13:47:07Z</time>
      </trkpt>
      <trkpt lat="44.39263" lon="5.81136">
        <ele>1031.15</ele>
        <time>2012-03-22T13:47:11Z</time>
      </trkpt>
      <trkpt lat="44.39264" lon="5.81133">
        <ele>1025.86</ele>
        <time>2012-03-22T13:47:13Z</time>
      </trkpt>
      <trkpt lat="44.39264" lon="5.81128">
        <ele>1029.71</ele>
        <time>2012-03-22T13:47:18Z</time>
      </trkpt>
      <trkpt lat="44.39264" lon="5.81126">
        <ele>1028.75</ele>
        <time>2012-03-22T13:47:25Z</time>
      </trkpt>
      <trkpt lat="44.39264" lon="5.8112">
        <ele>1026.34</ele>
        <time>2012-03-22T13:47:29Z</time>
      </trkpt>
      <trkpt lat="44.39265" lon="5.81115">
        <ele>1028.27</ele>
        <time>2012-03-22T13:47:32Z</time>
      </trkpt>
      <trkpt lat="44.39265" lon="5.81114">
        <ele>1027.31</ele>
        <time>2012-03-22T13:47:33Z</time>
      </trkpt>
      <trkpt lat="44.39267" lon="5.8111">
        <ele>1024.42</ele>
        <time>2012-03-22T13:47:36Z</time>
      </trkpt>
      <trkpt lat="44.39267" lon="5.81108">
        <ele>1028.75</ele>
        <time>2012-03-22T13:47:37Z</time>
      </trkpt>
      <trkpt lat="44.39269" lon="5.811">
        <ele>1027.31</ele>
        <time>2012-03-22T13:47:42Z</time>
      </trkpt>
      <trkpt lat="44.39271" lon="5.81093">
        <ele>1021.54</ele>
        <time>2012-03-22T13:47:46Z</time>
      </trkpt>
      <trkpt lat="44.39272" lon="5.81088">
        <ele>1027.31</ele>
        <time>2012-03-22T13:47:49Z</time>
      </trkpt>
      <trkpt lat="44.39274" lon="5.81081">
        <ele>1019.62</ele>
        <time>2012-03-22T13:47:55Z</time>
      </trkpt>
      <trkpt lat="44.39274" lon="5.8108">
        <ele>1024.9</ele>
        <time>2012-03-22T13:47:56Z</time>
      </trkpt>
      <trkpt lat="44.39278" lon="5.8107">
        <ele>1028.27</ele>
        <time>2012-03-22T13:48:02Z</time>
      </trkpt>
      <trkpt lat="44.39279" lon="5.81069">
        <ele>1023.46</ele>
        <time>2012-03-22T13:48:03Z</time>
      </trkpt>
      <trkpt lat="44.39279" lon="5.81067">
        <ele>1023.94</ele>
        <time>2012-03-22T13:48:04Z</time>
      </trkpt>
      <trkpt lat="44.39281" lon="5.81065">
        <ele>1024.42</ele>
        <time>2012-03-22T13:48:06Z</time>
      </trkpt>
      <trkpt lat="44.39284" lon="5.81058">
        <ele>1023.46</ele>
        <time>2012-03-22T13:48:12Z</time>
      </trkpt>
      <trkpt lat="44.39283" lon="5.81048">
        <ele>1024.9</ele>
        <time>2012-03-22T13:48:20Z</time>
      </trkpt>
      <trkpt lat="44.39281" lon="5.81045">
        <ele>1023.46</ele>
        <time>2012-03-22T13:48:22Z</time>
      </trkpt>
      <trkpt lat="44.39274" lon="5.81034">
        <ele>1024.9</ele>
        <time>2012-03-22T13:48:30Z</time>
      </trkpt>
      <trkpt lat="44.39272" lon="5.81032">
        <ele>1021.54</ele>
        <time>2012-03-22T13:48:33Z</time>
      </trkpt>
      <trkpt lat="44.39269" lon="5.81028">
        <ele>1022.5</ele>
        <time>2012-03-22T13:48:39Z</time>
      </trkpt>
      <trkpt lat="44.39265" lon="5.81023">
        <ele>1020.58</ele>
        <time>2012-03-22T13:48:44Z</time>
      </trkpt>
      <trkpt lat="44.39258" lon="5.81013">
        <ele>1022.02</ele>
        <time>2012-03-22T13:48:52Z</time>
      </trkpt>
      <trkpt lat="44.39257" lon="5.81011">
        <ele>1021.06</ele>
        <time>2012-03-22T13:48:53Z</time>
      </trkpt>
      <trkpt lat="44.39253" lon="5.81004">
        <ele>1020.1</ele>
        <time>2012-03-22T13:48:59Z</time>
      </trkpt>
      <trkpt lat="44.3925" lon="5.80997">
        <ele>1019.13</ele>
        <time>2012-03-22T13:49:04Z</time>
      </trkpt>
      <trkpt lat="44.3925" lon="5.80989">
        <ele>1017.69</ele>
        <time>2012-03-22T13:49:09Z</time>
      </trkpt>
      <trkpt lat="44.39249" lon="5.80982">
        <ele>1021.06</ele>
        <time>2012-03-22T13:49:13Z</time>
      </trkpt>
      <trkpt lat="44.39249" lon="5.80978">
        <ele>1016.73</ele>
        <time>2012-03-22T13:49:17Z</time>
      </trkpt>
      <trkpt lat="44.39249" lon="5.80977">
        <ele>1017.69</ele>
        <time>2012-03-22T13:49:18Z</time>
      </trkpt>
      <trkpt lat="44.39244" lon="5.80958">
        <ele>1016.73</ele>
        <time>2012-03-22T13:49:28Z</time>
      </trkpt>
      <trkpt lat="44.39239" lon="5.80942">
        <ele>1016.25</ele>
        <time>2012-03-22T13:49:37Z</time>
      </trkpt>
      <trkpt lat="44.39236" lon="5.80929">
        <ele>1014.81</ele>
        <time>2012-03-22T13:49:46Z</time>
      </trkpt>
      <trkpt lat="44.39231" lon="5.80917">
        <ele>1013.85</ele>
        <time>2012-03-22T13:49:55Z</time>
      </trkpt>
      <trkpt lat="44.39226" lon="5.80901">
        <ele>1013.85</ele>
        <time>2012-03-22T13:50:02Z</time>
      </trkpt>
      <trkpt lat="44.39222" lon="5.80895">
        <ele>1018.65</ele>
        <time>2012-03-22T13:50:08Z</time>
      </trkpt>
      <trkpt lat="44.39221" lon="5.80891">
        <ele>1012.89</ele>
        <time>2012-03-22T13:50:11Z</time>
      </trkpt>
      <trkpt lat="44.3922" lon="5.80878">
        <ele>1011.44</ele>
        <time>2012-03-22T13:50:20Z</time>
      </trkpt>
      <trkpt lat="44.39221" lon="5.80875">
        <ele>1011.93</ele>
        <time>2012-03-22T13:50:22Z</time>
      </trkpt>
      <trkpt lat="44.39223" lon="5.80862">
        <ele>1018.65</ele>
        <time>2012-03-22T13:50:30Z</time>
      </trkpt>
      <trkpt lat="44.39224" lon="5.80861">
        <ele>1010.96</ele>
        <time>2012-03-22T13:50:31Z</time>
      </trkpt>
      <trkpt lat="44.39224" lon="5.80859">
        <ele>1017.69</ele>
        <time>2012-03-22T13:50:32Z</time>
      </trkpt>
      <trkpt lat="44.39225" lon="5.80858">
        <ele>1011.44</ele>
        <time>2012-03-22T13:50:33Z</time>
      </trkpt>
      <trkpt lat="44.39225" lon="5.80857">
        <ele>1005.68</ele>
        <time>2012-03-22T13:50:34Z</time>
      </trkpt>
      <trkpt lat="44.39226" lon="5.80855">
        <ele>1016.73</ele>
        <time>2012-03-22T13:50:35Z</time>
      </trkpt>
      <trkpt lat="44.39226" lon="5.80854">
        <ele>1010.96</ele>
        <time>2012-03-22T13:50:36Z</time>
      </trkpt>
      <trkpt lat="44.39228" lon="5.80852">
        <ele>1000.87</ele>
        <time>2012-03-22T13:50:38Z</time>
      </trkpt>
      <trkpt lat="44.39228" lon="5.80851">
        <ele>1011.93</ele>
        <time>2012-03-22T13:50:39Z</time>
      </trkpt>
      <trkpt lat="44.39231" lon="5.80847">
        <ele>1020.58</ele>
        <time>2012-03-22T13:50:42Z</time>
      </trkpt>
      <trkpt lat="44.39231" lon="5.80846">
        <ele>1016.25</ele>
        <time>2012-03-22T13:50:43Z</time>
      </trkpt>
      <trkpt lat="44.39232" lon="5.80844">
        <ele>1011.44</ele>
        <time>2012-03-22T13:50:44Z</time>
      </trkpt>
      <trkpt lat="44.39233" lon="5.80842">
        <ele>1009.04</ele>
        <time>2012-03-22T13:50:46Z</time>
      </trkpt>
      <trkpt lat="44.39234" lon="5.8084">
        <ele>1003.27</ele>
        <time>2012-03-22T13:50:48Z</time>
      </trkpt>
      <trkpt lat="44.39235" lon="5.80839">
        <ele>1010.96</ele>
        <time>2012-03-22T13:50:49Z</time>
      </trkpt>
      <trkpt lat="44.39242" lon="5.80827">
        <ele>1007.6</ele>
        <time>2012-03-22T13:50:57Z</time>
      </trkpt>
      <trkpt lat="44.39251" lon="5.80815">
        <ele>1005.68</ele>
        <time>2012-03-22T13:51:07Z</time>
      </trkpt>
      <trkpt lat="44.39256" lon="5.8081">
        <ele>1005.68</ele>
        <time>2012-03-22T13:51:12Z</time>
      </trkpt>
      <trkpt lat="44.39259" lon="5.80806">
        <ele>991.26</ele>
        <time>2012-03-22T13:51:15Z</time>
      </trkpt>
      <trkpt lat="44.3926" lon="5.80805">
        <ele>1012.89</ele>
        <time>2012-03-22T13:51:16Z</time>
      </trkpt>
      <trkpt lat="44.3926" lon="5.80804">
        <ele>1007.12</ele>
        <time>2012-03-22T13:51:17Z</time>
      </trkpt>
      <trkpt lat="44.39262" lon="5.80802">
        <ele>1004.23</ele>
        <time>2012-03-22T13:51:19Z</time>
      </trkpt>
      <trkpt lat="44.39262" lon="5.80801">
        <ele>1015.29</ele>
        <time>2012-03-22T13:51:20Z</time>
      </trkpt>
      <trkpt lat="44.39263" lon="5.80799">
        <ele>1007.12</ele>
        <time>2012-03-22T13:51:21Z</time>
      </trkpt>
      <trkpt lat="44.39263" lon="5.80798">
        <ele>1012.89</ele>
        <time>2012-03-22T13:51:22Z</time>
      </trkpt>
      <trkpt lat="44.39264" lon="5.80797">
        <ele>1006.64</ele>
        <time>2012-03-22T13:51:23Z</time>
      </trkpt>
      <trkpt lat="44.39265" lon="5.80794">
        <ele>1002.31</ele>
        <time>2012-03-22T13:51:25Z</time>
      </trkpt>
      <trkpt lat="44.39265" lon="5.80793">
        <ele>1004.23</ele>
        <time>2012-03-22T13:51:26Z</time>
      </trkpt>
      <trkpt lat="44.39266" lon="5.80791">
        <ele>1003.75</ele>
        <time>2012-03-22T13:51:28Z</time>
      </trkpt>
      <trkpt lat="44.39267" lon="5.80788">
        <ele>1003.27</ele>
        <time>2012-03-22T13:51:30Z</time>
      </trkpt>
      <trkpt lat="44.39268" lon="5.80771">
        <ele>999.43</ele>
        <time>2012-03-22T13:51:41Z</time>
      </trkpt>
      <trkpt lat="44.39268" lon="5.8077">
        <ele>1004.23</ele>
        <time>2012-03-22T13:51:42Z</time>
      </trkpt>
      <trkpt lat="44.39269" lon="5.80764">
        <ele>996.54</ele>
        <time>2012-03-22T13:51:46Z</time>
      </trkpt>
      <trkpt lat="44.39268" lon="5.80762">
        <ele>1000.39</ele>
        <time>2012-03-22T13:51:47Z</time>
      </trkpt>
      <trkpt lat="44.39268" lon="5.80739">
        <ele>999.43</ele>
        <time>2012-03-22T13:52:01Z</time>
      </trkpt>
      <trkpt lat="44.39269" lon="5.80727">
        <ele>997.99</ele>
        <time>2012-03-22T13:52:09Z</time>
      </trkpt>
      <trkpt lat="44.3927" lon="5.8071">
        <ele>997.99</ele>
        <time>2012-03-22T13:52:18Z</time>
      </trkpt>
      <trkpt lat="44.3927" lon="5.80702">
        <ele>997.51</ele>
        <time>2012-03-22T13:52:23Z</time>
      </trkpt>
      <trkpt lat="44.39269" lon="5.80692">
        <ele>995.58</ele>
        <time>2012-03-22T13:52:29Z</time>
      </trkpt>
      <trkpt lat="44.39269" lon="5.80688">
        <ele>995.58</ele>
        <time>2012-03-22T13:52:31Z</time>
      </trkpt>
      <trkpt lat="44.39267" lon="5.80669">
        <ele>994.14</ele>
        <time>2012-03-22T13:52:41Z</time>
      </trkpt>
      <trkpt lat="44.39267" lon="5.80663">
        <ele>994.14</ele>
        <time>2012-03-22T13:52:45Z</time>
      </trkpt>
      <trkpt lat="44.39264" lon="5.80647">
        <ele>993.18</ele>
        <time>2012-03-22T13:52:54Z</time>
      </trkpt>
      <trkpt lat="44.39263" lon="5.80629">
        <ele>991.26</ele>
        <time>2012-03-22T13:53:04Z</time>
      </trkpt>
      <trkpt lat="44.39264" lon="5.80622">
        <ele>991.26</ele>
        <time>2012-03-22T13:53:09Z</time>
      </trkpt>
      <trkpt lat="44.39264" lon="5.80618">
        <ele>990.3</ele>
        <time>2012-03-22T13:53:11Z</time>
      </trkpt>
      <trkpt lat="44.39263" lon="5.8061">
        <ele>989.81</ele>
        <time>2012-03-22T13:53:15Z</time>
      </trkpt>
      <trkpt lat="44.39264" lon="5.80599">
        <ele>988.37</ele>
        <time>2012-03-22T13:53:21Z</time>
      </trkpt>
      <trkpt lat="44.39262" lon="5.80586">
        <ele>987.89</ele>
        <time>2012-03-22T13:53:29Z</time>
      </trkpt>
      <trkpt lat="44.39262" lon="5.80583">
        <ele>987.89</ele>
        <time>2012-03-22T13:53:31Z</time>
      </trkpt>
      <trkpt lat="44.3926" lon="5.80566">
        <ele>985.97</ele>
        <time>2012-03-22T13:53:41Z</time>
      </trkpt>
      <trkpt lat="44.39258" lon="5.80553">
        <ele>984.53</ele>
        <time>2012-03-22T13:53:50Z</time>
      </trkpt>
      <trkpt lat="44.39255" lon="5.80538">
        <ele>985.01</ele>
        <time>2012-03-22T13:53:58Z</time>
      </trkpt>
      <trkpt lat="44.39255" lon="5.8052">
        <ele>982.6</ele>
        <time>2012-03-22T13:54:09Z</time>
      </trkpt>
      <trkpt lat="44.39251" lon="5.80506">
        <ele>980.2</ele>
        <time>2012-03-22T13:54:16Z</time>
      </trkpt>
      <trkpt lat="44.39252" lon="5.80502">
        <ele>981.64</ele>
        <time>2012-03-22T13:54:18Z</time>
      </trkpt>
      <trkpt lat="44.39256" lon="5.80492">
        <ele>981.64</ele>
        <time>2012-03-22T13:54:26Z</time>
      </trkpt>
      <trkpt lat="44.39259" lon="5.8048">
        <ele>978.28</ele>
        <time>2012-03-22T13:54:35Z</time>
      </trkpt>
      <trkpt lat="44.3926" lon="5.80463">
        <ele>977.8</ele>
        <time>2012-03-22T13:54:45Z</time>
      </trkpt>
      <trkpt lat="44.39262" lon="5.80454">
        <ele>976.84</ele>
        <time>2012-03-22T13:54:51Z</time>
      </trkpt>
      <trkpt lat="44.39263" lon="5.80442">
        <ele>975.88</ele>
        <time>2012-03-22T13:54:58Z</time>
      </trkpt>
      <trkpt lat="44.39262" lon="5.8043">
        <ele>975.88</ele>
        <time>2012-03-22T13:55:04Z</time>
      </trkpt>
      <trkpt lat="44.3926" lon="5.80419">
        <ele>973.95</ele>
        <time>2012-03-22T13:55:09Z</time>
      </trkpt>
      <trkpt lat="44.39261" lon="5.80415">
        <ele>973.47</ele>
        <time>2012-03-22T13:55:11Z</time>
      </trkpt>
      <trkpt lat="44.39261" lon="5.80413">
        <ele>974.91</ele>
        <time>2012-03-22T13:55:13Z</time>
      </trkpt>
      <trkpt lat="44.39261" lon="5.80406">
        <ele>973.47</ele>
        <time>2012-03-22T13:55:18Z</time>
      </trkpt>
      <trkpt lat="44.3926" lon="5.80393">
        <ele>972.99</ele>
        <time>2012-03-22T13:55:27Z</time>
      </trkpt>
      <trkpt lat="44.3926" lon="5.8039">
        <ele>972.99</ele>
        <time>2012-03-22T13:55:30Z</time>
      </trkpt>
      <trkpt lat="44.39255" lon="5.80371">
        <ele>971.07</ele>
        <time>2012-03-22T13:55:40Z</time>
      </trkpt>
      <trkpt lat="44.39252" lon="5.80355">
        <ele>968.67</ele>
        <time>2012-03-22T13:55:50Z</time>
      </trkpt>
      <trkpt lat="44.39251" lon="5.80352">
        <ele>970.11</ele>
        <time>2012-03-22T13:55:51Z</time>
      </trkpt>
      <trkpt lat="44.39246" lon="5.80339">
        <ele>967.7</ele>
        <time>2012-03-22T13:56:01Z</time>
      </trkpt>
      <trkpt lat="44.39239" lon="5.8032">
        <ele>968.18</ele>
        <time>2012-03-22T13:56:10Z</time>
      </trkpt>
      <trkpt lat="44.39236" lon="5.80304">
        <ele>965.78</ele>
        <time>2012-03-22T13:56:19Z</time>
      </trkpt>
      <trkpt lat="44.39236" lon="5.80304">
        <ele>965.3</ele>
        <time>2012-03-22T13:56:21Z</time>
      </trkpt>
      <trkpt lat="44.39234" lon="5.80287">
        <ele>964.82</ele>
        <time>2012-03-22T13:56:30Z</time>
      </trkpt>
      <trkpt lat="44.39233" lon="5.80282">
        <ele>962.9</ele>
        <time>2012-03-22T13:56:34Z</time>
      </trkpt>
      <trkpt lat="44.39228" lon="5.80264">
        <ele>962.9</ele>
        <time>2012-03-22T13:56:44Z</time>
      </trkpt>
      <trkpt lat="44.39227" lon="5.80257">
        <ele>961.94</ele>
        <time>2012-03-22T13:56:48Z</time>
      </trkpt>
      <trkpt lat="44.39225" lon="5.80248">
        <ele>959.05</ele>
        <time>2012-03-22T13:56:56Z</time>
      </trkpt>
      <trkpt lat="44.39222" lon="5.80228">
        <ele>961.46</ele>
        <time>2012-03-22T13:57:07Z</time>
      </trkpt>
      <trkpt lat="44.39223" lon="5.80223">
        <ele>958.57</ele>
        <time>2012-03-22T13:57:10Z</time>
      </trkpt>
      <trkpt lat="44.39221" lon="5.80216">
        <ele>960.01</ele>
        <time>2012-03-22T13:57:13Z</time>
      </trkpt>
      <trkpt lat="44.3922" lon="5.80213">
        <ele>959.05</ele>
        <time>2012-03-22T13:57:15Z</time>
      </trkpt>
      <trkpt lat="44.3922" lon="5.80205">
        <ele>958.09</ele>
        <time>2012-03-22T13:57:21Z</time>
      </trkpt>
      <trkpt lat="44.39219" lon="5.80197">
        <ele>957.61</ele>
        <time>2012-03-22T13:57:29Z</time>
      </trkpt>
      <trkpt lat="44.39217" lon="5.80181">
        <ele>955.21</ele>
        <time>2012-03-22T13:57:39Z</time>
      </trkpt>
      <trkpt lat="44.39213" lon="5.80165">
        <ele>956.17</ele>
        <time>2012-03-22T13:57:49Z</time>
      </trkpt>
      <trkpt lat="44.39202" lon="5.80142">
        <ele>953.28</ele>
        <time>2012-03-22T13:58:00Z</time>
      </trkpt>
      <trkpt lat="44.39197" lon="5.80132">
        <ele>953.77</ele>
        <time>2012-03-22T13:58:05Z</time>
      </trkpt>
      <trkpt lat="44.39196" lon="5.80112">
        <ele>952.8</ele>
        <time>2012-03-22T13:58:15Z</time>
      </trkpt>
      <trkpt lat="44.392" lon="5.80099">
        <ele>952.8</ele>
        <time>2012-03-22T13:58:24Z</time>
      </trkpt>
      <trkpt lat="44.39203" lon="5.80086">
        <ele>953.77</ele>
        <time>2012-03-22T13:58:32Z</time>
      </trkpt>
      <trkpt lat="44.39208" lon="5.80075">
        <ele>953.77</ele>
        <time>2012-03-22T13:58:41Z</time>
      </trkpt>
      <trkpt lat="44.39208" lon="5.80075">
        <ele>952.8</ele>
        <time>2012-03-22T13:58:42Z</time>
      </trkpt>
      <trkpt lat="44.3921" lon="5.80068">
        <ele>955.69</ele>
        <time>2012-03-22T13:58:46Z</time>
      </trkpt>
      <trkpt lat="44.3921" lon="5.80067">
        <ele>956.17</ele>
        <time>2012-03-22T13:58:47Z</time>
      </trkpt>
      <trkpt lat="44.39217" lon="5.80059">
        <ele>954.25</ele>
        <time>2012-03-22T13:58:55Z</time>
      </trkpt>
      <trkpt lat="44.39218" lon="5.80058">
        <ele>953.77</ele>
        <time>2012-03-22T13:58:56Z</time>
      </trkpt>
      <trkpt lat="44.39222" lon="5.80056">
        <ele>952.32</ele>
        <time>2012-03-22T13:58:58Z</time>
      </trkpt>
      <trkpt lat="44.39226" lon="5.80053">
        <ele>957.61</ele>
        <time>2012-03-22T13:59:01Z</time>
      </trkpt>
      <trkpt lat="44.39227" lon="5.80052">
        <ele>957.61</ele>
        <time>2012-03-22T13:59:02Z</time>
      </trkpt>
      <trkpt lat="44.39231" lon="5.8005">
        <ele>952.8</ele>
        <time>2012-03-22T13:59:05Z</time>
      </trkpt>
      <trkpt lat="44.39233" lon="5.80048">
        <ele>956.65</ele>
        <time>2012-03-22T13:59:07Z</time>
      </trkpt>
      <trkpt lat="44.39235" lon="5.80045">
        <ele>953.28</ele>
        <time>2012-03-22T13:59:10Z</time>
      </trkpt>
      <trkpt lat="44.39236" lon="5.80044">
        <ele>954.73</ele>
        <time>2012-03-22T13:59:11Z</time>
      </trkpt>
      <trkpt lat="44.39239" lon="5.80042">
        <ele>956.65</ele>
        <time>2012-03-22T13:59:14Z</time>
      </trkpt>
      <trkpt lat="44.39243" lon="5.80036">
        <ele>955.21</ele>
        <time>2012-03-22T13:59:18Z</time>
      </trkpt>
      <trkpt lat="44.39252" lon="5.80021">
        <ele>955.69</ele>
        <time>2012-03-22T13:59:29Z</time>
      </trkpt>
      <trkpt lat="44.39255" lon="5.80009">
        <ele>956.17</ele>
        <time>2012-03-22T13:59:38Z</time>
      </trkpt>
      <trkpt lat="44.39256" lon="5.79998">
        <ele>959.53</ele>
        <time>2012-03-22T13:59:46Z</time>
      </trkpt>
      <trkpt lat="44.39256" lon="5.79998">
        <ele>956.65</ele>
        <time>2012-03-22T13:59:47Z</time>
      </trkpt>
      <trkpt lat="44.39257" lon="5.7999">
        <ele>953.77</ele>
        <time>2012-03-22T13:59:51Z</time>
      </trkpt>
      <trkpt lat="44.39257" lon="5.79986">
        <ele>959.53</ele>
        <time>2012-03-22T13:59:53Z</time>
      </trkpt>
      <trkpt lat="44.39256" lon="5.79985">
        <ele>959.53</ele>
        <time>2012-03-22T13:59:54Z</time>
      </trkpt>
      <trkpt lat="44.39257" lon="5.79983">
        <ele>957.61</ele>
        <time>2012-03-22T13:59:55Z</time>
      </trkpt>
      <trkpt lat="44.39259" lon="5.79979">
        <ele>955.69</ele>
        <time>2012-03-22T13:59:58Z</time>
      </trkpt>
      <trkpt lat="44.39258" lon="5.79974">
        <ele>960.49</ele>
        <time>2012-03-22T14:00:01Z</time>
      </trkpt>
      <trkpt lat="44.39258" lon="5.79972">
        <ele>957.61</ele>
        <time>2012-03-22T14:00:02Z</time>
      </trkpt>
      <trkpt lat="44.39259" lon="5.7997">
        <ele>954.73</ele>
        <time>2012-03-22T14:00:04Z</time>
      </trkpt>
      <trkpt lat="44.39259" lon="5.79966">
        <ele>958.57</ele>
        <time>2012-03-22T14:00:06Z</time>
      </trkpt>
      <trkpt lat="44.39259" lon="5.7996">
        <ele>957.13</ele>
        <time>2012-03-22T14:00:10Z</time>
      </trkpt>
      <trkpt lat="44.39261" lon="5.79951">
        <ele>960.01</ele>
        <time>2012-03-22T14:00:15Z</time>
      </trkpt>
      <trkpt lat="44.39262" lon="5.79948">
        <ele>955.21</ele>
        <time>2012-03-22T14:00:17Z</time>
      </trkpt>
      <trkpt lat="44.39264" lon="5.79942">
        <ele>959.05</ele>
        <time>2012-03-22T14:00:21Z</time>
      </trkpt>
      <trkpt lat="44.39265" lon="5.79939">
        <ele>955.69</ele>
        <time>2012-03-22T14:00:23Z</time>
      </trkpt>
      <trkpt lat="44.39265" lon="5.79937">
        <ele>956.65</ele>
        <time>2012-03-22T14:00:25Z</time>
      </trkpt>
      <trkpt lat="44.39268" lon="5.79922">
        <ele>957.13</ele>
        <time>2012-03-22T14:00:34Z</time>
      </trkpt>
      <trkpt lat="44.39268" lon="5.79916">
        <ele>957.61</ele>
        <time>2012-03-22T14:00:38Z</time>
      </trkpt>
      <trkpt lat="44.3927" lon="5.79911">
        <ele>954.73</ele>
        <time>2012-03-22T14:00:41Z</time>
      </trkpt>
      <trkpt lat="44.3927" lon="5.79909">
        <ele>955.21</ele>
        <time>2012-03-22T14:00:42Z</time>
      </trkpt>
      <trkpt lat="44.39271" lon="5.79904">
        <ele>961.46</ele>
        <time>2012-03-22T14:00:45Z</time>
      </trkpt>
      <trkpt lat="44.39271" lon="5.79903">
        <ele>960.01</ele>
        <time>2012-03-22T14:00:46Z</time>
      </trkpt>
      <trkpt lat="44.39272" lon="5.799">
        <ele>955.69</ele>
        <time>2012-03-22T14:00:48Z</time>
      </trkpt>
      <trkpt lat="44.39272" lon="5.79898">
        <ele>955.69</ele>
        <time>2012-03-22T14:00:49Z</time>
      </trkpt>
      <trkpt lat="44.39272" lon="5.79894">
        <ele>960.49</ele>
        <time>2012-03-22T14:00:51Z</time>
      </trkpt>
      <trkpt lat="44.39272" lon="5.7989">
        <ele>959.53</ele>
        <time>2012-03-22T14:00:53Z</time>
      </trkpt>
      <trkpt lat="44.39274" lon="5.79886">
        <ele>957.13</ele>
        <time>2012-03-22T14:00:56Z</time>
      </trkpt>
      <trkpt lat="44.39274" lon="5.79884">
        <ele>960.49</ele>
        <time>2012-03-22T14:00:57Z</time>
      </trkpt>
      <trkpt lat="44.39274" lon="5.79879">
        <ele>958.09</ele>
        <time>2012-03-22T14:01:01Z</time>
      </trkpt>
      <trkpt lat="44.39274" lon="5.79872">
        <ele>961.46</ele>
        <time>2012-03-22T14:01:04Z</time>
      </trkpt>
      <trkpt lat="44.39274" lon="5.79871">
        <ele>960.49</ele>
        <time>2012-03-22T14:01:05Z</time>
      </trkpt>
      <trkpt lat="44.39274" lon="5.79868">
        <ele>958.57</ele>
        <time>2012-03-22T14:01:07Z</time>
      </trkpt>
      <trkpt lat="44.39274" lon="5.7986">
        <ele>958.09</ele>
        <time>2012-03-22T14:01:11Z</time>
      </trkpt>
      <trkpt lat="44.39274" lon="5.79855">
        <ele>959.05</ele>
        <time>2012-03-22T14:01:14Z</time>
      </trkpt>
      <trkpt lat="44.39276" lon="5.79843">
        <ele>959.53</ele>
        <time>2012-03-22T14:01:21Z</time>
      </trkpt>
      <trkpt lat="44.39278" lon="5.79839">
        <ele>957.61</ele>
        <time>2012-03-22T14:01:24Z</time>
      </trkpt>
      <trkpt lat="44.39278" lon="5.79837">
        <ele>957.13</ele>
        <time>2012-03-22T14:01:25Z</time>
      </trkpt>
      <trkpt lat="44.39278" lon="5.79834">
        <ele>964.34</ele>
        <time>2012-03-22T14:01:27Z</time>
      </trkpt>
      <trkpt lat="44.39278" lon="5.79832">
        <ele>962.9</ele>
        <time>2012-03-22T14:01:28Z</time>
      </trkpt>
      <trkpt lat="44.39279" lon="5.79829">
        <ele>959.53</ele>
        <time>2012-03-22T14:01:30Z</time>
      </trkpt>
      <trkpt lat="44.3928" lon="5.79826">
        <ele>957.61</ele>
        <time>2012-03-22T14:01:32Z</time>
      </trkpt>
      <trkpt lat="44.3928" lon="5.79822">
        <ele>964.34</ele>
        <time>2012-03-22T14:01:34Z</time>
      </trkpt>
      <trkpt lat="44.3928" lon="5.7982">
        <ele>961.46</ele>
        <time>2012-03-22T14:01:35Z</time>
      </trkpt>
      <trkpt lat="44.3928" lon="5.79819">
        <ele>960.49</ele>
        <time>2012-03-22T14:01:36Z</time>
      </trkpt>
      <trkpt lat="44.39282" lon="5.79816">
        <ele>959.05</ele>
        <time>2012-03-22T14:01:38Z</time>
      </trkpt>
      <trkpt lat="44.39282" lon="5.79813">
        <ele>963.38</ele>
        <time>2012-03-22T14:01:40Z</time>
      </trkpt>
      <trkpt lat="44.39282" lon="5.79811">
        <ele>959.53</ele>
        <time>2012-03-22T14:01:41Z</time>
      </trkpt>
      <trkpt lat="44.39283" lon="5.79811">
        <ele>960.49</ele>
        <time>2012-03-22T14:01:42Z</time>
      </trkpt>
      <trkpt lat="44.39285" lon="5.79805">
        <ele>960.49</ele>
        <time>2012-03-22T14:01:48Z</time>
      </trkpt>
      <trkpt lat="44.39288" lon="5.79802">
        <ele>960.98</ele>
        <time>2012-03-22T14:01:58Z</time>
      </trkpt>
      <trkpt lat="44.39289" lon="5.79799">
        <ele>960.01</ele>
        <time>2012-03-22T14:02:18Z</time>
      </trkpt>
      <trkpt lat="44.39289" lon="5.79799">
        <ele>961.46</ele>
        <time>2012-03-22T14:02:31Z</time>
      </trkpt>
      <trkpt lat="44.39289" lon="5.79799">
        <ele>959.53</ele>
        <time>2012-03-22T14:02:38Z</time>
      </trkpt>
      <trkpt lat="44.39291" lon="5.79797">
        <ele>959.05</ele>
        <time>2012-03-22T14:02:48Z</time>
      </trkpt>
      <trkpt lat="44.39294" lon="5.7979">
        <ele>961.94</ele>
        <time>2012-03-22T14:02:53Z</time>
      </trkpt>
      <trkpt lat="44.39295" lon="5.79787">
        <ele>959.53</ele>
        <time>2012-03-22T14:02:55Z</time>
      </trkpt>
      <trkpt lat="44.393" lon="5.7978">
        <ele>961.46</ele>
        <time>2012-03-22T14:03:01Z</time>
      </trkpt>
      <trkpt lat="44.39301" lon="5.79779">
        <ele>958.09</ele>
        <time>2012-03-22T14:03:02Z</time>
      </trkpt>
      <trkpt lat="44.39302" lon="5.79778">
        <ele>960.01</ele>
        <time>2012-03-22T14:03:03Z</time>
      </trkpt>
      <trkpt lat="44.39302" lon="5.79775">
        <ele>960.98</ele>
        <time>2012-03-22T14:03:05Z</time>
      </trkpt>
      <trkpt lat="44.39304" lon="5.79774">
        <ele>958.09</ele>
        <time>2012-03-22T14:03:07Z</time>
      </trkpt>
      <trkpt lat="44.39306" lon="5.79772">
        <ele>958.09</ele>
        <time>2012-03-22T14:03:10Z</time>
      </trkpt>
      <trkpt lat="44.39308" lon="5.79771">
        <ele>956.17</ele>
        <time>2012-03-22T14:03:12Z</time>
      </trkpt>
      <trkpt lat="44.39309" lon="5.79771">
        <ele>960.98</ele>
        <time>2012-03-22T14:03:14Z</time>
      </trkpt>
      <trkpt lat="44.39313" lon="5.79771">
        <ele>958.57</ele>
        <time>2012-03-22T14:03:17Z</time>
      </trkpt>
      <trkpt lat="44.39316" lon="5.7977">
        <ele>955.69</ele>
        <time>2012-03-22T14:03:20Z</time>
      </trkpt>
      <trkpt lat="44.39319" lon="5.7977">
        <ele>955.69</ele>
        <time>2012-03-22T14:03:23Z</time>
      </trkpt>
      <trkpt lat="44.3932" lon="5.79771">
        <ele>956.65</ele>
        <time>2012-03-22T14:03:24Z</time>
      </trkpt>
      <trkpt lat="44.39324" lon="5.79773">
        <ele>957.13</ele>
        <time>2012-03-22T14:03:27Z</time>
      </trkpt>
      <trkpt lat="44.39328" lon="5.79776">
        <ele>960.01</ele>
        <time>2012-03-22T14:03:31Z</time>
      </trkpt>
      <trkpt lat="44.39334" lon="5.7978">
        <ele>960.01</ele>
        <time>2012-03-22T14:03:36Z</time>
      </trkpt>
      <trkpt lat="44.39336" lon="5.79782">
        <ele>956.17</ele>
        <time>2012-03-22T14:03:38Z</time>
      </trkpt>
      <trkpt lat="44.39338" lon="5.79783">
        <ele>957.13</ele>
        <time>2012-03-22T14:03:40Z</time>
      </trkpt>
      <trkpt lat="44.3934" lon="5.79787">
        <ele>959.53</ele>
        <time>2012-03-22T14:03:43Z</time>
      </trkpt>
      <trkpt lat="44.39346" lon="5.79794">
        <ele>955.21</ele>
        <time>2012-03-22T14:03:50Z</time>
      </trkpt>
      <trkpt lat="44.39349" lon="5.79797">
        <ele>957.13</ele>
        <time>2012-03-22T14:03:54Z</time>
      </trkpt>
      <trkpt lat="44.3935" lon="5.79798">
        <ele>953.28</ele>
        <time>2012-03-22T14:03:55Z</time>
      </trkpt>
      <trkpt lat="44.39353" lon="5.79801">
        <ele>958.57</ele>
        <time>2012-03-22T14:03:59Z</time>
      </trkpt>
      <trkpt lat="44.39354" lon="5.79801">
        <ele>956.17</ele>
        <time>2012-03-22T14:04:00Z</time>
      </trkpt>
      <trkpt lat="44.39354" lon="5.79802">
        <ele>956.17</ele>
        <time>2012-03-22T14:04:01Z</time>
      </trkpt>
      <trkpt lat="44.39359" lon="5.798">
        <ele>955.69</ele>
        <time>2012-03-22T14:04:05Z</time>
      </trkpt>
      <trkpt lat="44.39361" lon="5.79798">
        <ele>957.13</ele>
        <time>2012-03-22T14:04:07Z</time>
      </trkpt>
      <trkpt lat="44.39362" lon="5.79797">
        <ele>954.25</ele>
        <time>2012-03-22T14:04:08Z</time>
      </trkpt>
      <trkpt lat="44.39368" lon="5.79789">
        <ele>954.73</ele>
        <time>2012-03-22T14:04:15Z</time>
      </trkpt>
      <trkpt lat="44.39369" lon="5.79787">
        <ele>949.92</ele>
        <time>2012-03-22T14:04:17Z</time>
      </trkpt>
      <trkpt lat="44.39371" lon="5.79787">
        <ele>952.8</ele>
        <time>2012-03-22T14:04:18Z</time>
      </trkpt>
      <trkpt lat="44.39373" lon="5.79785">
        <ele>954.73</ele>
        <time>2012-03-22T14:04:20Z</time>
      </trkpt>
      <trkpt lat="44.39377" lon="5.79781">
        <ele>950.88</ele>
        <time>2012-03-22T14:04:26Z</time>
      </trkpt>
      <trkpt lat="44.39377" lon="5.79781">
        <ele>951.36</ele>
        <time>2012-03-22T14:04:27Z</time>
      </trkpt>
      <trkpt lat="44.39387" lon="5.79785">
        <ele>952.32</ele>
        <time>2012-03-22T14:04:36Z</time>
      </trkpt>
      <trkpt lat="44.39394" lon="5.79788">
        <ele>951.84</ele>
        <time>2012-03-22T14:04:42Z</time>
      </trkpt>
      <trkpt lat="44.39396" lon="5.79788">
        <ele>947.04</ele>
        <time>2012-03-22T14:04:46Z</time>
      </trkpt>
      <trkpt lat="44.39397" lon="5.79788">
        <ele>948.48</ele>
        <time>2012-03-22T14:04:47Z</time>
      </trkpt>
      <trkpt lat="44.39398" lon="5.79787">
        <ele>951.84</ele>
        <time>2012-03-22T14:04:48Z</time>
      </trkpt>
      <trkpt lat="44.39399" lon="5.79786">
        <ele>951.36</ele>
        <time>2012-03-22T14:04:49Z</time>
      </trkpt>
      <trkpt lat="44.39402" lon="5.79786">
        <ele>947.52</ele>
        <time>2012-03-22T14:04:51Z</time>
      </trkpt>
      <trkpt lat="44.39403" lon="5.79786">
        <ele>948.48</ele>
        <time>2012-03-22T14:04:52Z</time>
      </trkpt>
      <trkpt lat="44.39412" lon="5.79783">
        <ele>951.84</ele>
        <time>2012-03-22T14:05:00Z</time>
      </trkpt>
      <trkpt lat="44.39417" lon="5.79776">
        <ele>948.48</ele>
        <time>2012-03-22T14:05:04Z</time>
      </trkpt>
      <trkpt lat="44.39419" lon="5.79775">
        <ele>949.92</ele>
        <time>2012-03-22T14:05:06Z</time>
      </trkpt>
      <trkpt lat="44.39428" lon="5.79777">
        <ele>948</ele>
        <time>2012-03-22T14:05:11Z</time>
      </trkpt>
      <trkpt lat="44.39434" lon="5.79776">
        <ele>948.96</ele>
        <time>2012-03-22T14:05:17Z</time>
      </trkpt>
      <trkpt lat="44.39445" lon="5.79771">
        <ele>948.96</ele>
        <time>2012-03-22T14:05:26Z</time>
      </trkpt>
      <trkpt lat="44.39446" lon="5.7977">
        <ele>948.48</ele>
        <time>2012-03-22T14:05:27Z</time>
      </trkpt>
      <trkpt lat="44.39447" lon="5.7977">
        <ele>947.04</ele>
        <time>2012-03-22T14:05:28Z</time>
      </trkpt>
      <trkpt lat="44.39454" lon="5.79768">
        <ele>944.15</ele>
        <time>2012-03-22T14:05:34Z</time>
      </trkpt>
      <trkpt lat="44.39455" lon="5.79768">
        <ele>944.63</ele>
        <time>2012-03-22T14:05:35Z</time>
      </trkpt>
      <trkpt lat="44.39458" lon="5.79767">
        <ele>946.07</ele>
        <time>2012-03-22T14:05:37Z</time>
      </trkpt>
      <trkpt lat="44.39466" lon="5.79764">
        <ele>944.63</ele>
        <time>2012-03-22T14:05:46Z</time>
      </trkpt>
      <trkpt lat="44.39474" lon="5.7976">
        <ele>945.59</ele>
        <time>2012-03-22T14:05:52Z</time>
      </trkpt>
      <trkpt lat="44.39484" lon="5.79759">
        <ele>944.15</ele>
        <time>2012-03-22T14:05:59Z</time>
      </trkpt>
      <trkpt lat="44.39489" lon="5.79758">
        <ele>941.75</ele>
        <time>2012-03-22T14:06:03Z</time>
      </trkpt>
      <trkpt lat="44.39492" lon="5.79757">
        <ele>944.63</ele>
        <time>2012-03-22T14:06:06Z</time>
      </trkpt>
      <trkpt lat="44.39498" lon="5.79755">
        <ele>941.75</ele>
        <time>2012-03-22T14:06:12Z</time>
      </trkpt>
      <trkpt lat="44.39502" lon="5.79754">
        <ele>943.19</ele>
        <time>2012-03-22T14:06:15Z</time>
      </trkpt>
      <trkpt lat="44.39506" lon="5.79752">
        <ele>939.83</ele>
        <time>2012-03-22T14:06:19Z</time>
      </trkpt>
      <trkpt lat="44.39516" lon="5.79747">
        <ele>941.27</ele>
        <time>2012-03-22T14:06:29Z</time>
      </trkpt>
      <trkpt lat="44.39513" lon="5.79746">
        <ele>940.31</ele>
        <time>2012-03-22T14:06:43Z</time>
      </trkpt>
      <trkpt lat="44.39513" lon="5.79746">
        <ele>939.83</ele>
        <time>2012-03-22T14:06:57Z</time>
      </trkpt>
      <trkpt lat="44.39509" lon="5.79747">
        <ele>937.42</ele>
        <time>2012-03-22T14:07:10Z</time>
      </trkpt>
      <trkpt lat="44.395" lon="5.79745">
        <ele>935.98</ele>
        <time>2012-03-22T14:07:19Z</time>
      </trkpt>
      <trkpt lat="44.39498" lon="5.79745">
        <ele>934.54</ele>
        <time>2012-03-22T14:07:21Z</time>
      </trkpt>
      <trkpt lat="44.39489" lon="5.79741">
        <ele>934.06</ele>
        <time>2012-03-22T14:07:30Z</time>
      </trkpt>
      <trkpt lat="44.39485" lon="5.79741">
        <ele>929.73</ele>
        <time>2012-03-22T14:07:34Z</time>
      </trkpt>
      <trkpt lat="44.39485" lon="5.7974">
        <ele>933.58</ele>
        <time>2012-03-22T14:07:35Z</time>
      </trkpt>
      <trkpt lat="44.39482" lon="5.7974">
        <ele>934.06</ele>
        <time>2012-03-22T14:07:37Z</time>
      </trkpt>
      <trkpt lat="44.39481" lon="5.7974">
        <ele>930.69</ele>
        <time>2012-03-22T14:07:40Z</time>
      </trkpt>
      <trkpt lat="44.39475" lon="5.79737">
        <ele>927.33</ele>
        <time>2012-03-22T14:07:48Z</time>
      </trkpt>
      <trkpt lat="44.39474" lon="5.79737">
        <ele>929.73</ele>
        <time>2012-03-22T14:07:49Z</time>
      </trkpt>
      <trkpt lat="44.39473" lon="5.79736">
        <ele>933.1</ele>
        <time>2012-03-22T14:07:50Z</time>
      </trkpt>
      <trkpt lat="44.39472" lon="5.79736">
        <ele>931.17</ele>
        <time>2012-03-22T14:07:51Z</time>
      </trkpt>
      <trkpt lat="44.39469" lon="5.79735">
        <ele>929.73</ele>
        <time>2012-03-22T14:07:53Z</time>
      </trkpt>
      <trkpt lat="44.39468" lon="5.79734">
        <ele>925.41</ele>
        <time>2012-03-22T14:07:55Z</time>
      </trkpt>
      <trkpt lat="44.39467" lon="5.79734">
        <ele>928.77</ele>
        <time>2012-03-22T14:07:56Z</time>
      </trkpt>
      <trkpt lat="44.39465" lon="5.79733">
        <ele>929.73</ele>
        <time>2012-03-22T14:07:58Z</time>
      </trkpt>
      <trkpt lat="44.39458" lon="5.79729">
        <ele>925.41</ele>
        <time>2012-03-22T14:08:05Z</time>
      </trkpt>
      <trkpt lat="44.39464" lon="5.79724">
        <ele>925.89</ele>
        <time>2012-03-22T14:08:15Z</time>
      </trkpt>
      <trkpt lat="44.39471" lon="5.79722">
        <ele>924.45</ele>
        <time>2012-03-22T14:08:21Z</time>
      </trkpt>
      <trkpt lat="44.39479" lon="5.79719">
        <ele>923.48</ele>
        <time>2012-03-22T14:08:28Z</time>
      </trkpt>
      <trkpt lat="44.39488" lon="5.79715">
        <ele>925.89</ele>
        <time>2012-03-22T14:08:36Z</time>
      </trkpt>
      <trkpt lat="44.39489" lon="5.79715">
        <ele>922.52</ele>
        <time>2012-03-22T14:08:37Z</time>
      </trkpt>
      <trkpt lat="44.3949" lon="5.79715">
        <ele>918.2</ele>
        <time>2012-03-22T14:08:38Z</time>
      </trkpt>
      <trkpt lat="44.39491" lon="5.79715">
        <ele>923.48</ele>
        <time>2012-03-22T14:08:39Z</time>
      </trkpt>
      <trkpt lat="44.39494" lon="5.79715">
        <ele>923.48</ele>
        <time>2012-03-22T14:08:42Z</time>
      </trkpt>
      <trkpt lat="44.39497" lon="5.79712">
        <ele>920.6</ele>
        <time>2012-03-22T14:08:45Z</time>
      </trkpt>
      <trkpt lat="44.39497" lon="5.79712">
        <ele>923.96</ele>
        <time>2012-03-22T14:08:46Z</time>
      </trkpt>
      <trkpt lat="44.39507" lon="5.79708">
        <ele>922.52</ele>
        <time>2012-03-22T14:08:55Z</time>
      </trkpt>
      <trkpt lat="44.39507" lon="5.79708">
        <ele>921.56</ele>
        <time>2012-03-22T14:08:57Z</time>
      </trkpt>
      <trkpt lat="44.39513" lon="5.79705">
        <ele>921.08</ele>
        <time>2012-03-22T14:09:06Z</time>
      </trkpt>
      <trkpt lat="44.39517" lon="5.79703">
        <ele>917.24</ele>
        <time>2012-03-22T14:09:09Z</time>
      </trkpt>
      <trkpt lat="44.3952" lon="5.79698">
        <ele>920.12</ele>
        <time>2012-03-22T14:09:12Z</time>
      </trkpt>
      <trkpt lat="44.39525" lon="5.79695">
        <ele>920.6</ele>
        <time>2012-03-22T14:09:15Z</time>
      </trkpt>
      <trkpt lat="44.39529" lon="5.79694">
        <ele>916.27</ele>
        <time>2012-03-22T14:09:18Z</time>
      </trkpt>
      <trkpt lat="44.39532" lon="5.79692">
        <ele>920.12</ele>
        <time>2012-03-22T14:09:20Z</time>
      </trkpt>
      <trkpt lat="44.39533" lon="5.79692">
        <ele>920.12</ele>
        <time>2012-03-22T14:09:21Z</time>
      </trkpt>
      <trkpt lat="44.39539" lon="5.79686">
        <ele>915.79</ele>
        <time>2012-03-22T14:09:27Z</time>
      </trkpt>
      <trkpt lat="44.39541" lon="5.79684">
        <ele>919.16</ele>
        <time>2012-03-22T14:09:29Z</time>
      </trkpt>
      <trkpt lat="44.39541" lon="5.79683">
        <ele>918.68</ele>
        <time>2012-03-22T14:09:30Z</time>
      </trkpt>
      <trkpt lat="44.39543" lon="5.7968">
        <ele>915.31</ele>
        <time>2012-03-22T14:09:34Z</time>
      </trkpt>
      <trkpt lat="44.39547" lon="5.79677">
        <ele>918.2</ele>
        <time>2012-03-22T14:09:38Z</time>
      </trkpt>
      <trkpt lat="44.39548" lon="5.79676">
        <ele>918.2</ele>
        <time>2012-03-22T14:09:39Z</time>
      </trkpt>
      <trkpt lat="44.3955" lon="5.79676">
        <ele>916.27</ele>
        <time>2012-03-22T14:09:41Z</time>
      </trkpt>
      <trkpt lat="44.39553" lon="5.79673">
        <ele>912.91</ele>
        <time>2012-03-22T14:09:44Z</time>
      </trkpt>
      <trkpt lat="44.39554" lon="5.79673">
        <ele>915.79</ele>
        <time>2012-03-22T14:09:45Z</time>
      </trkpt>
      <trkpt lat="44.39556" lon="5.79673">
        <ele>915.79</ele>
        <time>2012-03-22T14:09:49Z</time>
      </trkpt>
      <trkpt lat="44.39564" lon="5.79669">
        <ele>913.39</ele>
        <time>2012-03-22T14:09:55Z</time>
      </trkpt>
      <trkpt lat="44.39568" lon="5.79666">
        <ele>911.47</ele>
        <time>2012-03-22T14:09:58Z</time>
      </trkpt>
      <trkpt lat="44.39571" lon="5.79666">
        <ele>912.91</ele>
        <time>2012-03-22T14:10:00Z</time>
      </trkpt>
      <trkpt lat="44.39583" lon="5.79662">
        <ele>911.95</ele>
        <time>2012-03-22T14:10:11Z</time>
      </trkpt>
      <trkpt lat="44.3959" lon="5.79658">
        <ele>909.06</ele>
        <time>2012-03-22T14:10:18Z</time>
      </trkpt>
      <trkpt lat="44.39591" lon="5.79658">
        <ele>908.58</ele>
        <time>2012-03-22T14:10:19Z</time>
      </trkpt>
      <trkpt lat="44.39599" lon="5.79655">
        <ele>906.18</ele>
        <time>2012-03-22T14:10:28Z</time>
      </trkpt>
      <trkpt lat="44.39601" lon="5.79655">
        <ele>909.54</ele>
        <time>2012-03-22T14:10:31Z</time>
      </trkpt>
      <trkpt lat="44.39601" lon="5.79655">
        <ele>909.06</ele>
        <time>2012-03-22T14:10:32Z</time>
      </trkpt>
      <trkpt lat="44.39604" lon="5.79655">
        <ele>905.7</ele>
        <time>2012-03-22T14:10:36Z</time>
      </trkpt>
      <trkpt lat="44.3961" lon="5.79652">
        <ele>907.62</ele>
        <time>2012-03-22T14:10:40Z</time>
      </trkpt>
      <trkpt lat="44.39611" lon="5.79652">
        <ele>909.54</ele>
        <time>2012-03-22T14:10:42Z</time>
      </trkpt>
      <trkpt lat="44.39612" lon="5.79652">
        <ele>905.7</ele>
        <time>2012-03-22T14:10:43Z</time>
      </trkpt>
      <trkpt lat="44.39613" lon="5.79652">
        <ele>906.66</ele>
        <time>2012-03-22T14:10:44Z</time>
      </trkpt>
      <trkpt lat="44.3962" lon="5.7965">
        <ele>905.7</ele>
        <time>2012-03-22T14:10:52Z</time>
      </trkpt>
      <trkpt lat="44.39624" lon="5.79649">
        <ele>902.82</ele>
        <time>2012-03-22T14:10:54Z</time>
      </trkpt>
      <trkpt lat="44.3963" lon="5.79644">
        <ele>902.82</ele>
        <time>2012-03-22T14:11:03Z</time>
      </trkpt>
      <trkpt lat="44.39633" lon="5.79642">
        <ele>905.22</ele>
        <time>2012-03-22T14:11:06Z</time>
      </trkpt>
      <trkpt lat="44.39635" lon="5.79642">
        <ele>899.45</ele>
        <time>2012-03-22T14:11:09Z</time>
      </trkpt>
      <trkpt lat="44.39636" lon="5.79641">
        <ele>902.33</ele>
        <time>2012-03-22T14:11:10Z</time>
      </trkpt>
      <trkpt lat="44.3964" lon="5.79638">
        <ele>898.49</ele>
        <time>2012-03-22T14:11:15Z</time>
      </trkpt>
      <trkpt lat="44.39641" lon="5.79637">
        <ele>901.85</ele>
        <time>2012-03-22T14:11:16Z</time>
      </trkpt>
      <trkpt lat="44.39643" lon="5.79637">
        <ele>904.26</ele>
        <time>2012-03-22T14:11:19Z</time>
      </trkpt>
      <trkpt lat="44.39644" lon="5.79636">
        <ele>897.53</ele>
        <time>2012-03-22T14:11:21Z</time>
      </trkpt>
      <trkpt lat="44.39645" lon="5.79636">
        <ele>900.89</ele>
        <time>2012-03-22T14:11:22Z</time>
      </trkpt>
      <trkpt lat="44.39647" lon="5.79635">
        <ele>904.74</ele>
        <time>2012-03-22T14:11:24Z</time>
      </trkpt>
      <trkpt lat="44.39648" lon="5.79633">
        <ele>899.93</ele>
        <time>2012-03-22T14:11:27Z</time>
      </trkpt>
      <trkpt lat="44.3965" lon="5.79633">
        <ele>900.89</ele>
        <time>2012-03-22T14:11:28Z</time>
      </trkpt>
      <trkpt lat="44.39652" lon="5.79632">
        <ele>904.26</ele>
        <time>2012-03-22T14:11:30Z</time>
      </trkpt>
      <trkpt lat="44.39652" lon="5.79631">
        <ele>903.78</ele>
        <time>2012-03-22T14:11:31Z</time>
      </trkpt>
      <trkpt lat="44.39653" lon="5.7963">
        <ele>902.33</ele>
        <time>2012-03-22T14:11:33Z</time>
      </trkpt>
      <trkpt lat="44.39656" lon="5.79628">
        <ele>906.18</ele>
        <time>2012-03-22T14:11:36Z</time>
      </trkpt>
      <trkpt lat="44.39658" lon="5.79627">
        <ele>900.41</ele>
        <time>2012-03-22T14:11:38Z</time>
      </trkpt>
      <trkpt lat="44.3966" lon="5.79625">
        <ele>902.33</ele>
        <time>2012-03-22T14:11:39Z</time>
      </trkpt>
      <trkpt lat="44.39665" lon="5.79622">
        <ele>900.89</ele>
        <time>2012-03-22T14:11:44Z</time>
      </trkpt>
      <trkpt lat="44.39668" lon="5.7962">
        <ele>904.74</ele>
        <time>2012-03-22T14:11:46Z</time>
      </trkpt>
      <trkpt lat="44.39669" lon="5.79619">
        <ele>904.74</ele>
        <time>2012-03-22T14:11:47Z</time>
      </trkpt>
      <trkpt lat="44.39671" lon="5.79619">
        <ele>900.89</ele>
        <time>2012-03-22T14:11:48Z</time>
      </trkpt>
      <trkpt lat="44.39671" lon="5.79618">
        <ele>899.93</ele>
        <time>2012-03-22T14:11:49Z</time>
      </trkpt>
      <trkpt lat="44.39672" lon="5.79617">
        <ele>902.82</ele>
        <time>2012-03-22T14:11:50Z</time>
      </trkpt>
      <trkpt lat="44.39673" lon="5.79617">
        <ele>902.82</ele>
        <time>2012-03-22T14:11:51Z</time>
      </trkpt>
      <trkpt lat="44.39676" lon="5.79618">
        <ele>900.89</ele>
        <time>2012-03-22T14:11:53Z</time>
      </trkpt>
      <trkpt lat="44.39677" lon="5.79618">
        <ele>899.45</ele>
        <time>2012-03-22T14:11:54Z</time>
      </trkpt>
      <trkpt lat="44.39679" lon="5.79618">
        <ele>896.57</ele>
        <time>2012-03-22T14:11:55Z</time>
      </trkpt>
      <trkpt lat="44.39681" lon="5.79618">
        <ele>902.82</ele>
        <time>2012-03-22T14:11:57Z</time>
      </trkpt>
      <trkpt lat="44.39682" lon="5.79618">
        <ele>904.26</ele>
        <time>2012-03-22T14:11:58Z</time>
      </trkpt>
      <trkpt lat="44.39683" lon="5.79618">
        <ele>901.37</ele>
        <time>2012-03-22T14:12:00Z</time>
      </trkpt>
      <trkpt lat="44.39685" lon="5.79619">
        <ele>895.12</ele>
        <time>2012-03-22T14:12:01Z</time>
      </trkpt>
      <trkpt lat="44.39688" lon="5.79619">
        <ele>899.93</ele>
        <time>2012-03-22T14:12:03Z</time>
      </trkpt>
      <trkpt lat="44.39689" lon="5.79619">
        <ele>902.33</ele>
        <time>2012-03-22T14:12:04Z</time>
      </trkpt>
      <trkpt lat="44.39691" lon="5.79619">
        <ele>905.7</ele>
        <time>2012-03-22T14:12:05Z</time>
      </trkpt>
      <trkpt lat="44.39691" lon="5.79619">
        <ele>895.12</ele>
        <time>2012-03-22T14:12:06Z</time>
      </trkpt>
      <trkpt lat="44.39695" lon="5.79619">
        <ele>896.57</ele>
        <time>2012-03-22T14:12:08Z</time>
      </trkpt>
      <trkpt lat="44.39695" lon="5.79619">
        <ele>899.45</ele>
        <time>2012-03-22T14:12:09Z</time>
      </trkpt>
      <trkpt lat="44.39695" lon="5.79619">
        <ele>899.45</ele>
        <time>2012-03-22T14:12:10Z</time>
      </trkpt>
      <trkpt lat="44.39696" lon="5.79618">
        <ele>901.85</ele>
        <time>2012-03-22T14:12:11Z</time>
      </trkpt>
      <trkpt lat="44.39699" lon="5.79617">
        <ele>898.49</ele>
        <time>2012-03-22T14:12:12Z</time>
      </trkpt>
      <trkpt lat="44.39716" lon="5.79613">
        <ele>898.49</ele>
        <time>2012-03-22T14:12:20Z</time>
      </trkpt>
      <trkpt lat="44.39729" lon="5.79611">
        <ele>895.12</ele>
        <time>2012-03-22T14:12:26Z</time>
      </trkpt>
      <trkpt lat="44.39729" lon="5.79611">
        <ele>895.61</ele>
        <time>2012-03-22T14:12:27Z</time>
      </trkpt>
      <trkpt lat="44.39731" lon="5.79611">
        <ele>898.97</ele>
        <time>2012-03-22T14:12:29Z</time>
      </trkpt>
      <trkpt lat="44.39731" lon="5.79611">
        <ele>891.28</ele>
        <time>2012-03-22T14:12:30Z</time>
      </trkpt>
      <trkpt lat="44.39733" lon="5.7961">
        <ele>896.57</ele>
        <time>2012-03-22T14:12:32Z</time>
      </trkpt>
      <trkpt lat="44.39737" lon="5.79607">
        <ele>893.68</ele>
        <time>2012-03-22T14:12:36Z</time>
      </trkpt>
      <trkpt lat="44.39738" lon="5.79607">
        <ele>895.12</ele>
        <time>2012-03-22T14:12:37Z</time>
      </trkpt>
      <trkpt lat="44.3974" lon="5.79606">
        <ele>899.45</ele>
        <time>2012-03-22T14:12:38Z</time>
      </trkpt>
      <trkpt lat="44.39741" lon="5.79605">
        <ele>898.49</ele>
        <time>2012-03-22T14:12:39Z</time>
      </trkpt>
      <trkpt lat="44.39741" lon="5.79605">
        <ele>895.12</ele>
        <time>2012-03-22T14:12:40Z</time>
      </trkpt>
      <trkpt lat="44.39746" lon="5.79603">
        <ele>898.01</ele>
        <time>2012-03-22T14:12:44Z</time>
      </trkpt>
      <trkpt lat="44.39748" lon="5.79601">
        <ele>894.64</ele>
        <time>2012-03-22T14:12:46Z</time>
      </trkpt>
      <trkpt lat="44.39757" lon="5.79593">
        <ele>894.64</ele>
        <time>2012-03-22T14:12:56Z</time>
      </trkpt>
      <trkpt lat="44.39758" lon="5.79592">
        <ele>893.2</ele>
        <time>2012-03-22T14:12:58Z</time>
      </trkpt>
      <trkpt lat="44.39766" lon="5.7959">
        <ele>893.2</ele>
        <time>2012-03-22T14:13:07Z</time>
      </trkpt>
      <trkpt lat="44.39767" lon="5.79589">
        <ele>895.12</ele>
        <time>2012-03-22T14:13:11Z</time>
      </trkpt>
      <trkpt lat="44.39769" lon="5.79587">
        <ele>893.2</ele>
        <time>2012-03-22T14:13:13Z</time>
      </trkpt>
      <trkpt lat="44.39771" lon="5.79584">
        <ele>896.09</ele>
        <time>2012-03-22T14:13:17Z</time>
      </trkpt>
      <trkpt lat="44.39773" lon="5.79581">
        <ele>892.72</ele>
        <time>2012-03-22T14:13:21Z</time>
      </trkpt>
      <trkpt lat="44.39773" lon="5.7958">
        <ele>896.09</ele>
        <time>2012-03-22T14:13:23Z</time>
      </trkpt>
      <trkpt lat="44.39774" lon="5.79578">
        <ele>893.68</ele>
        <time>2012-03-22T14:13:25Z</time>
      </trkpt>
      <trkpt lat="44.39775" lon="5.79577">
        <ele>886.47</ele>
        <time>2012-03-22T14:13:27Z</time>
      </trkpt>
      <trkpt lat="44.39777" lon="5.79575">
        <ele>896.09</ele>
        <time>2012-03-22T14:13:29Z</time>
      </trkpt>
      <trkpt lat="44.39778" lon="5.79575">
        <ele>893.68</ele>
        <time>2012-03-22T14:13:30Z</time>
      </trkpt>
      <trkpt lat="44.39785" lon="5.79575">
        <ele>888.4</ele>
        <time>2012-03-22T14:13:37Z</time>
      </trkpt>
      <trkpt lat="44.39788" lon="5.79574">
        <ele>898.97</ele>
        <time>2012-03-22T14:13:39Z</time>
      </trkpt>
      <trkpt lat="44.39789" lon="5.79574">
        <ele>890.32</ele>
        <time>2012-03-22T14:13:40Z</time>
      </trkpt>
      <trkpt lat="44.3979" lon="5.79575">
        <ele>890.32</ele>
        <time>2012-03-22T14:13:41Z</time>
      </trkpt>
      <trkpt lat="44.39792" lon="5.79574">
        <ele>896.57</ele>
        <time>2012-03-22T14:13:43Z</time>
      </trkpt>
      <trkpt lat="44.39793" lon="5.79574">
        <ele>889.84</ele>
        <time>2012-03-22T14:13:44Z</time>
      </trkpt>
      <trkpt lat="44.39793" lon="5.79574">
        <ele>892.72</ele>
        <time>2012-03-22T14:13:45Z</time>
      </trkpt>
      <trkpt lat="44.39794" lon="5.79574">
        <ele>889.84</ele>
        <time>2012-03-22T14:13:47Z</time>
      </trkpt>
      <trkpt lat="44.398" lon="5.79571">
        <ele>893.68</ele>
        <time>2012-03-22T14:13:49Z</time>
      </trkpt>
      <trkpt lat="44.39802" lon="5.79571">
        <ele>893.68</ele>
        <time>2012-03-22T14:13:50Z</time>
      </trkpt>
      <trkpt lat="44.39809" lon="5.79568">
        <ele>891.76</ele>
        <time>2012-03-22T14:13:53Z</time>
      </trkpt>
      <trkpt lat="44.3981" lon="5.79567">
        <ele>896.57</ele>
        <time>2012-03-22T14:13:55Z</time>
      </trkpt>
      <trkpt lat="44.39811" lon="5.79567">
        <ele>892.24</ele>
        <time>2012-03-22T14:13:56Z</time>
      </trkpt>
      <trkpt lat="44.39812" lon="5.79567">
        <ele>885.03</ele>
        <time>2012-03-22T14:13:57Z</time>
      </trkpt>
      <trkpt lat="44.39813" lon="5.79566">
        <ele>885.03</ele>
        <time>2012-03-22T14:13:58Z</time>
      </trkpt>
      <trkpt lat="44.39814" lon="5.79565">
        <ele>890.32</ele>
        <time>2012-03-22T14:13:59Z</time>
      </trkpt>
      <trkpt lat="44.39815" lon="5.7956">
        <ele>890.8</ele>
        <time>2012-03-22T14:14:02Z</time>
      </trkpt>
      <trkpt lat="44.39816" lon="5.79555">
        <ele>890.8</ele>
        <time>2012-03-22T14:14:05Z</time>
      </trkpt>
      <trkpt lat="44.39816" lon="5.79553">
        <ele>891.76</ele>
        <time>2012-03-22T14:14:07Z</time>
      </trkpt>
      <trkpt lat="44.3982" lon="5.79551">
        <ele>888.4</ele>
        <time>2012-03-22T14:14:10Z</time>
      </trkpt>
      <trkpt lat="44.39823" lon="5.79549">
        <ele>891.28</ele>
        <time>2012-03-22T14:14:12Z</time>
      </trkpt>
      <trkpt lat="44.39824" lon="5.79548">
        <ele>896.09</ele>
        <time>2012-03-22T14:14:13Z</time>
      </trkpt>
      <trkpt lat="44.39824" lon="5.79548">
        <ele>892.24</ele>
        <time>2012-03-22T14:14:14Z</time>
      </trkpt>
      <trkpt lat="44.39825" lon="5.79547">
        <ele>885.99</ele>
        <time>2012-03-22T14:14:15Z</time>
      </trkpt>
      <trkpt lat="44.39826" lon="5.79547">
        <ele>889.36</ele>
        <time>2012-03-22T14:14:16Z</time>
      </trkpt>
      <trkpt lat="44.39826" lon="5.79546">
        <ele>895.12</ele>
        <time>2012-03-22T14:14:17Z</time>
      </trkpt>
      <trkpt lat="44.39828" lon="5.79545">
        <ele>891.76</ele>
        <time>2012-03-22T14:14:18Z</time>
      </trkpt>
      <trkpt lat="44.39829" lon="5.79543">
        <ele>892.24</ele>
        <time>2012-03-22T14:14:22Z</time>
      </trkpt>
      <trkpt lat="44.39838" lon="5.79538">
        <ele>891.76</ele>
        <time>2012-03-22T14:14:31Z</time>
      </trkpt>
      <trkpt lat="44.39843" lon="5.79533">
        <ele>897.53</ele>
        <time>2012-03-22T14:14:36Z</time>
      </trkpt>
      <trkpt lat="44.39844" lon="5.79533">
        <ele>893.2</ele>
        <time>2012-03-22T14:14:37Z</time>
      </trkpt>
      <trkpt lat="44.39846" lon="5.79532">
        <ele>892.24</ele>
        <time>2012-03-22T14:14:39Z</time>
      </trkpt>
      <trkpt lat="44.39849" lon="5.7953">
        <ele>896.57</ele>
        <time>2012-03-22T14:14:41Z</time>
      </trkpt>
      <trkpt lat="44.3985" lon="5.79529">
        <ele>892.72</ele>
        <time>2012-03-22T14:14:42Z</time>
      </trkpt>
      <trkpt lat="44.39851" lon="5.79528">
        <ele>891.28</ele>
        <time>2012-03-22T14:14:44Z</time>
      </trkpt>
      <trkpt lat="44.39854" lon="5.79526">
        <ele>892.72</ele>
        <time>2012-03-22T14:14:47Z</time>
      </trkpt>
      <trkpt lat="44.39855" lon="5.79526">
        <ele>891.76</ele>
        <time>2012-03-22T14:14:48Z</time>
      </trkpt>
      <trkpt lat="44.39858" lon="5.79524">
        <ele>890.8</ele>
        <time>2012-03-22T14:14:50Z</time>
      </trkpt>
      <trkpt lat="44.39859" lon="5.79523">
        <ele>893.2</ele>
        <time>2012-03-22T14:14:52Z</time>
      </trkpt>
      <trkpt lat="44.39861" lon="5.79522">
        <ele>889.36</ele>
        <time>2012-03-22T14:14:54Z</time>
      </trkpt>
      <trkpt lat="44.39862" lon="5.79522">
        <ele>889.84</ele>
        <time>2012-03-22T14:14:55Z</time>
      </trkpt>
      <trkpt lat="44.39862" lon="5.79521">
        <ele>895.61</ele>
        <time>2012-03-22T14:14:56Z</time>
      </trkpt>
      <trkpt lat="44.39863" lon="5.7952">
        <ele>893.2</ele>
        <time>2012-03-22T14:14:57Z</time>
      </trkpt>
      <trkpt lat="44.39866" lon="5.79519">
        <ele>888.4</ele>
        <time>2012-03-22T14:14:59Z</time>
      </trkpt>
      <trkpt lat="44.39866" lon="5.79518">
        <ele>888.88</ele>
        <time>2012-03-22T14:15:00Z</time>
      </trkpt>
      <trkpt lat="44.39867" lon="5.79517">
        <ele>893.2</ele>
        <time>2012-03-22T14:15:01Z</time>
      </trkpt>
      <trkpt lat="44.39868" lon="5.79515">
        <ele>895.12</ele>
        <time>2012-03-22T14:15:02Z</time>
      </trkpt>
      <trkpt lat="44.39868" lon="5.79514">
        <ele>889.84</ele>
        <time>2012-03-22T14:15:04Z</time>
      </trkpt>
      <trkpt lat="44.39869" lon="5.79514">
        <ele>891.28</ele>
        <time>2012-03-22T14:15:05Z</time>
      </trkpt>
      <trkpt lat="44.3987" lon="5.79514">
        <ele>892.24</ele>
        <time>2012-03-22T14:15:06Z</time>
      </trkpt>
      <trkpt lat="44.39872" lon="5.79514">
        <ele>897.53</ele>
        <time>2012-03-22T14:15:07Z</time>
      </trkpt>
      <trkpt lat="44.39873" lon="5.79513">
        <ele>894.16</ele>
        <time>2012-03-22T14:15:08Z</time>
      </trkpt>
      <trkpt lat="44.39876" lon="5.79511">
        <ele>891.76</ele>
        <time>2012-03-22T14:15:11Z</time>
      </trkpt>
      <trkpt lat="44.39879" lon="5.79509">
        <ele>893.2</ele>
        <time>2012-03-22T14:15:13Z</time>
      </trkpt>
      <trkpt lat="44.3988" lon="5.79507">
        <ele>890.8</ele>
        <time>2012-03-22T14:15:16Z</time>
      </trkpt>
      <trkpt lat="44.39885" lon="5.79504">
        <ele>887.91</ele>
        <time>2012-03-22T14:15:20Z</time>
      </trkpt>
      <trkpt lat="44.39886" lon="5.79502">
        <ele>891.76</ele>
        <time>2012-03-22T14:15:21Z</time>
      </trkpt>
      <trkpt lat="44.3989" lon="5.795">
        <ele>887.91</ele>
        <time>2012-03-22T14:15:25Z</time>
      </trkpt>
      <trkpt lat="44.3989" lon="5.79499">
        <ele>889.84</ele>
        <time>2012-03-22T14:15:26Z</time>
      </trkpt>
      <trkpt lat="44.39891" lon="5.79498">
        <ele>898.01</ele>
        <time>2012-03-22T14:15:27Z</time>
      </trkpt>
      <trkpt lat="44.39891" lon="5.79498">
        <ele>893.68</ele>
        <time>2012-03-22T14:15:28Z</time>
      </trkpt>
      <trkpt lat="44.39893" lon="5.79496">
        <ele>891.76</ele>
        <time>2012-03-22T14:15:30Z</time>
      </trkpt>
      <trkpt lat="44.39895" lon="5.79496">
        <ele>895.12</ele>
        <time>2012-03-22T14:15:31Z</time>
      </trkpt>
      <trkpt lat="44.39896" lon="5.79494">
        <ele>890.8</ele>
        <time>2012-03-22T14:15:33Z</time>
      </trkpt>
      <trkpt lat="44.399" lon="5.79491">
        <ele>893.2</ele>
        <time>2012-03-22T14:15:36Z</time>
      </trkpt>
      <trkpt lat="44.39901" lon="5.79489">
        <ele>887.91</ele>
        <time>2012-03-22T14:15:38Z</time>
      </trkpt>
      <trkpt lat="44.39905" lon="5.79486">
        <ele>893.2</ele>
        <time>2012-03-22T14:15:40Z</time>
      </trkpt>
      <trkpt lat="44.39908" lon="5.79485">
        <ele>892.72</ele>
        <time>2012-03-22T14:15:41Z</time>
      </trkpt>
      <trkpt lat="44.39911" lon="5.79483">
        <ele>889.36</ele>
        <time>2012-03-22T14:15:43Z</time>
      </trkpt>
      <trkpt lat="44.39912" lon="5.79481">
        <ele>894.16</ele>
        <time>2012-03-22T14:15:44Z</time>
      </trkpt>
      <trkpt lat="44.3992" lon="5.79477">
        <ele>889.84</ele>
        <time>2012-03-22T14:15:53Z</time>
      </trkpt>
      <trkpt lat="44.39921" lon="5.79477">
        <ele>892.72</ele>
        <time>2012-03-22T14:15:54Z</time>
      </trkpt>
      <trkpt lat="44.39921" lon="5.79476">
        <ele>898.97</ele>
        <time>2012-03-22T14:15:55Z</time>
      </trkpt>
      <trkpt lat="44.39922" lon="5.79475">
        <ele>891.76</ele>
        <time>2012-03-22T14:15:56Z</time>
      </trkpt>
      <trkpt lat="44.39924" lon="5.79474">
        <ele>895.12</ele>
        <time>2012-03-22T14:15:58Z</time>
      </trkpt>
      <trkpt lat="44.39924" lon="5.79474">
        <ele>892.24</ele>
        <time>2012-03-22T14:15:59Z</time>
      </trkpt>
      <trkpt lat="44.3993" lon="5.79476">
        <ele>897.05</ele>
        <time>2012-03-22T14:16:04Z</time>
      </trkpt>
      <trkpt lat="44.39931" lon="5.79475">
        <ele>897.05</ele>
        <time>2012-03-22T14:16:05Z</time>
      </trkpt>
      <trkpt lat="44.39932" lon="5.79473">
        <ele>887.43</ele>
        <time>2012-03-22T14:16:06Z</time>
      </trkpt>
      <trkpt lat="44.39933" lon="5.79471">
        <ele>891.76</ele>
        <time>2012-03-22T14:16:07Z</time>
      </trkpt>
      <trkpt lat="44.39934" lon="5.79466">
        <ele>899.45</ele>
        <time>2012-03-22T14:16:13Z</time>
      </trkpt>
      <trkpt lat="44.39934" lon="5.79466">
        <ele>894.16</ele>
        <time>2012-03-22T14:16:14Z</time>
      </trkpt>
      <trkpt lat="44.3994" lon="5.7946">
        <ele>898.01</ele>
        <time>2012-03-22T14:16:22Z</time>
      </trkpt>
      <trkpt lat="44.39941" lon="5.79459">
        <ele>894.16</ele>
        <time>2012-03-22T14:16:23Z</time>
      </trkpt>
      <trkpt lat="44.39941" lon="5.79459">
        <ele>893.68</ele>
        <time>2012-03-22T14:16:24Z</time>
      </trkpt>
      <trkpt lat="44.39941" lon="5.79459">
        <ele>899.93</ele>
        <time>2012-03-22T14:16:26Z</time>
      </trkpt>
      <trkpt lat="44.39941" lon="5.79459">
        <ele>894.64</ele>
        <time>2012-03-22T14:16:27Z</time>
      </trkpt>
      <trkpt lat="44.39943" lon="5.79456">
        <ele>899.45</ele>
        <time>2012-03-22T14:16:29Z</time>
      </trkpt>
      <trkpt lat="44.39943" lon="5.79456">
        <ele>895.61</ele>
        <time>2012-03-22T14:16:30Z</time>
      </trkpt>
      <trkpt lat="44.39945" lon="5.79453">
        <ele>894.64</ele>
        <time>2012-03-22T14:16:43Z</time>
      </trkpt>
      <trkpt lat="44.39945" lon="5.79453">
        <ele>894.64</ele>
        <time>2012-03-22T14:16:57Z</time>
      </trkpt>
      <trkpt lat="44.39945" lon="5.79453">
        <ele>893.68</ele>
        <time>2012-03-22T14:17:12Z</time>
      </trkpt>
      <trkpt lat="44.39947" lon="5.79451">
        <ele>894.64</ele>
        <time>2012-03-22T14:17:30Z</time>
      </trkpt>
      <trkpt lat="44.39948" lon="5.79452">
        <ele>891.28</ele>
        <time>2012-03-22T14:17:34Z</time>
      </trkpt>
      <trkpt lat="44.39949" lon="5.79456">
        <ele>894.64</ele>
        <time>2012-03-22T14:17:38Z</time>
      </trkpt>
      <trkpt lat="44.3995" lon="5.79456">
        <ele>886.47</ele>
        <time>2012-03-22T14:17:45Z</time>
      </trkpt>
      <trkpt lat="44.3995" lon="5.79457">
        <ele>888.88</ele>
        <time>2012-03-22T14:17:46Z</time>
      </trkpt>
      <trkpt lat="44.3995" lon="5.79457">
        <ele>895.12</ele>
        <time>2012-03-22T14:17:47Z</time>
      </trkpt>
      <trkpt lat="44.3995" lon="5.79457">
        <ele>894.64</ele>
        <time>2012-03-22T14:17:48Z</time>
      </trkpt>
      <trkpt lat="44.39951" lon="5.79455">
        <ele>888.4</ele>
        <time>2012-03-22T14:17:54Z</time>
      </trkpt>
      <trkpt lat="44.39952" lon="5.79454">
        <ele>894.16</ele>
        <time>2012-03-22T14:17:55Z</time>
      </trkpt>
      <trkpt lat="44.39951" lon="5.79456">
        <ele>893.2</ele>
        <time>2012-03-22T14:18:17Z</time>
      </trkpt>
      <trkpt lat="44.39951" lon="5.79456">
        <ele>896.57</ele>
        <time>2012-03-22T14:18:34Z</time>
      </trkpt>
      <trkpt lat="44.3995" lon="5.79457">
        <ele>892.72</ele>
        <time>2012-03-22T14:18:35Z</time>
      </trkpt>
      <trkpt lat="44.3995" lon="5.79458">
        <ele>893.68</ele>
        <time>2012-03-22T14:18:36Z</time>
      </trkpt>
      <trkpt lat="44.39947" lon="5.79455">
        <ele>893.2</ele>
        <time>2012-03-22T14:18:46Z</time>
      </trkpt>
      <trkpt lat="44.39946" lon="5.79453">
        <ele>895.61</ele>
        <time>2012-03-22T14:18:49Z</time>
      </trkpt>
      <trkpt lat="44.39946" lon="5.79452">
        <ele>892.72</ele>
        <time>2012-03-22T14:18:52Z</time>
      </trkpt>
      <trkpt lat="44.39946" lon="5.79452">
        <ele>892.24</ele>
        <time>2012-03-22T14:18:57Z</time>
      </trkpt>
      <trkpt lat="44.39948" lon="5.79455">
        <ele>893.2</ele>
        <time>2012-03-22T14:19:12Z</time>
      </trkpt>
      <trkpt lat="44.39948" lon="5.79454">
        <ele>894.16</ele>
        <time>2012-03-22T14:19:16Z</time>
      </trkpt>
      <trkpt lat="44.39949" lon="5.79452">
        <ele>892.72</ele>
        <time>2012-03-22T14:20:59Z</time>
      </trkpt>
      <trkpt lat="44.3995" lon="5.79453">
        <ele>891.28</ele>
        <time>2012-03-22T14:26:05Z</time>
      </trkpt>
      <trkpt lat="44.39951" lon="5.79458">
        <ele>892.24</ele>
        <time>2012-03-22T14:26:34Z</time>
      </trkpt>
      <trkpt lat="44.39959" lon="5.7945">
        <ele>892.72</ele>
        <time>2012-03-22T14:26:59Z</time>
      </trkpt>
      <trkpt lat="44.39963" lon="5.79445">
        <ele>893.2</ele>
        <time>2012-03-22T14:27:11Z</time>
      </trkpt>
      <trkpt lat="44.39987" lon="5.79447">
        <ele>892.24</ele>
        <time>2012-03-22T14:27:20Z</time>
      </trkpt>
      <trkpt lat="44.40012" lon="5.79476">
        <ele>888.88</ele>
        <time>2012-03-22T14:27:26Z</time>
      </trkpt>
      <trkpt lat="44.4003" lon="5.795">
        <ele>886.47</ele>
        <time>2012-03-22T14:27:30Z</time>
      </trkpt>
      <trkpt lat="44.40052" lon="5.79523">
        <ele>885.51</ele>
        <time>2012-03-22T14:27:34Z</time>
      </trkpt>
      <trkpt lat="44.40075" lon="5.79541">
        <ele>883.11</ele>
        <time>2012-03-22T14:27:38Z</time>
      </trkpt>
      <trkpt lat="44.4008" lon="5.79546">
        <ele>882.15</ele>
        <time>2012-03-22T14:27:39Z</time>
      </trkpt>
      <trkpt lat="44.40085" lon="5.79551">
        <ele>883.11</ele>
        <time>2012-03-22T14:27:40Z</time>
      </trkpt>
      <trkpt lat="44.40089" lon="5.79556">
        <ele>881.67</ele>
        <time>2012-03-22T14:27:41Z</time>
      </trkpt>
      <trkpt lat="44.40094" lon="5.79559">
        <ele>881.67</ele>
        <time>2012-03-22T14:27:42Z</time>
      </trkpt>
      <trkpt lat="44.40099" lon="5.79559">
        <ele>881.67</ele>
        <time>2012-03-22T14:27:43Z</time>
      </trkpt>
      <trkpt lat="44.40103" lon="5.79556">
        <ele>881.19</ele>
        <time>2012-03-22T14:27:44Z</time>
      </trkpt>
      <trkpt lat="44.40105" lon="5.79551">
        <ele>881.19</ele>
        <time>2012-03-22T14:27:45Z</time>
      </trkpt>
      <trkpt lat="44.40106" lon="5.79544">
        <ele>880.71</ele>
        <time>2012-03-22T14:27:46Z</time>
      </trkpt>
      <trkpt lat="44.40104" lon="5.79539">
        <ele>880.71</ele>
        <time>2012-03-22T14:27:47Z</time>
      </trkpt>
      <trkpt lat="44.40101" lon="5.79534">
        <ele>880.22</ele>
        <time>2012-03-22T14:27:48Z</time>
      </trkpt>
      <trkpt lat="44.40097" lon="5.79529">
        <ele>880.22</ele>
        <time>2012-03-22T14:27:49Z</time>
      </trkpt>
      <trkpt lat="44.40092" lon="5.79524">
        <ele>880.22</ele>
        <time>2012-03-22T14:27:50Z</time>
      </trkpt>
      <trkpt lat="44.40068" lon="5.79499">
        <ele>876.38</ele>
        <time>2012-03-22T14:27:54Z</time>
      </trkpt>
      <trkpt lat="44.40063" lon="5.79491">
        <ele>876.86</ele>
        <time>2012-03-22T14:27:55Z</time>
      </trkpt>
      <trkpt lat="44.40058" lon="5.79482">
        <ele>875.42</ele>
        <time>2012-03-22T14:27:56Z</time>
      </trkpt>
      <trkpt lat="44.40055" lon="5.79472">
        <ele>874.46</ele>
        <time>2012-03-22T14:27:57Z</time>
      </trkpt>
      <trkpt lat="44.40046" lon="5.79441">
        <ele>872.05</ele>
        <time>2012-03-22T14:28:00Z</time>
      </trkpt>
      <trkpt lat="44.40045" lon="5.79432">
        <ele>872.05</ele>
        <time>2012-03-22T14:28:01Z</time>
      </trkpt>
      <trkpt lat="44.40044" lon="5.79422">
        <ele>871.57</ele>
        <time>2012-03-22T14:28:02Z</time>
      </trkpt>
      <trkpt lat="44.40044" lon="5.79414">
        <ele>870.61</ele>
        <time>2012-03-22T14:28:03Z</time>
      </trkpt>
      <trkpt lat="44.40045" lon="5.79406">
        <ele>870.13</ele>
        <time>2012-03-22T14:28:04Z</time>
      </trkpt>
      <trkpt lat="44.40048" lon="5.79398">
        <ele>869.65</ele>
        <time>2012-03-22T14:28:05Z</time>
      </trkpt>
      <trkpt lat="44.40049" lon="5.7939">
        <ele>869.65</ele>
        <time>2012-03-22T14:28:06Z</time>
      </trkpt>
      <trkpt lat="44.4005" lon="5.79382">
        <ele>869.17</ele>
        <time>2012-03-22T14:28:07Z</time>
      </trkpt>
      <trkpt lat="44.4005" lon="5.79373">
        <ele>867.73</ele>
        <time>2012-03-22T14:28:08Z</time>
      </trkpt>
      <trkpt lat="44.40047" lon="5.79364">
        <ele>866.77</ele>
        <time>2012-03-22T14:28:09Z</time>
      </trkpt>
      <trkpt lat="44.40045" lon="5.79354">
        <ele>866.29</ele>
        <time>2012-03-22T14:28:10Z</time>
      </trkpt>
      <trkpt lat="44.40042" lon="5.79345">
        <ele>865.8</ele>
        <time>2012-03-22T14:28:11Z</time>
      </trkpt>
      <trkpt lat="44.40039" lon="5.79327">
        <ele>864.84</ele>
        <time>2012-03-22T14:28:13Z</time>
      </trkpt>
      <trkpt lat="44.40037" lon="5.7931">
        <ele>862.44</ele>
        <time>2012-03-22T14:28:15Z</time>
      </trkpt>
      <trkpt lat="44.40038" lon="5.79301">
        <ele>861</ele>
        <time>2012-03-22T14:28:16Z</time>
      </trkpt>
      <trkpt lat="44.40041" lon="5.79293">
        <ele>861</ele>
        <time>2012-03-22T14:28:17Z</time>
      </trkpt>
      <trkpt lat="44.40045" lon="5.79286">
        <ele>860.04</ele>
        <time>2012-03-22T14:28:18Z</time>
      </trkpt>
      <trkpt lat="44.40051" lon="5.7928">
        <ele>859.56</ele>
        <time>2012-03-22T14:28:19Z</time>
      </trkpt>
      <trkpt lat="44.40062" lon="5.79266">
        <ele>858.59</ele>
        <time>2012-03-22T14:28:21Z</time>
      </trkpt>
      <trkpt lat="44.40068" lon="5.7926">
        <ele>857.63</ele>
        <time>2012-03-22T14:28:22Z</time>
      </trkpt>
      <trkpt lat="44.40074" lon="5.79258">
        <ele>857.15</ele>
        <time>2012-03-22T14:28:23Z</time>
      </trkpt>
      <trkpt lat="44.40082" lon="5.79257">
        <ele>856.67</ele>
        <time>2012-03-22T14:28:24Z</time>
      </trkpt>
      <trkpt lat="44.40091" lon="5.79254">
        <ele>854.75</ele>
        <time>2012-03-22T14:28:25Z</time>
      </trkpt>
      <trkpt lat="44.40101" lon="5.79251">
        <ele>854.75</ele>
        <time>2012-03-22T14:28:26Z</time>
      </trkpt>
      <trkpt lat="44.40111" lon="5.79246">
        <ele>852.35</ele>
        <time>2012-03-22T14:28:27Z</time>
      </trkpt>
      <trkpt lat="44.40139" lon="5.79231">
        <ele>848.98</ele>
        <time>2012-03-22T14:28:30Z</time>
      </trkpt>
    </trkseg>
  </trk>
</gpx>